<?xml version='1.0' encoding='UTF-8'?><gpx version="1.1" creator="JPX - https://github.com/jenetics/jpx" xmlns="http://www.topografix.com/GPX/1/1"><trk><trkseg><trkpt lat="45.7694188" lon="12.9949599"><ele>11.0</ele><time>2026-05-02T06:42:47.809Z</time></trkpt><trkpt lat="45.7694034" lon="12.9948704"><ele>11.0</ele><time>2026-05-02T06:42:48.809Z</time></trkpt><trkpt lat="45.7693854" lon="12.9947695"><ele>11.0</ele><time>2026-05-02T06:42:49.809Z</time></trkpt><trkpt lat="45.7693613" lon="12.9946629"><ele>11.0</ele><time>2026-05-02T06:42:50.81Z</time></trkpt><trkpt lat="45.7693305" lon="12.9945546"><ele>11.0</ele><time>2026-05-02T06:42:51.81Z</time></trkpt><trkpt lat="45.7692956" lon="12.9944442"><ele>11.0</ele><time>2026-05-02T06:42:52.81Z</time></trkpt><trkpt lat="45.7692606" lon="12.9943325"><ele>10.5</ele><time>2026-05-02T06:42:53.81Z</time></trkpt><trkpt lat="45.7692287" lon="12.9942246"><ele>10.0</ele><time>2026-05-02T06:42:54.81Z</time></trkpt><trkpt lat="45.7692035" lon="12.9941355"><ele>9.5</ele><time>2026-05-02T06:42:55.809Z</time></trkpt><trkpt lat="45.7692073" lon="12.9940022"><ele>9.0</ele><time>2026-05-02T06:42:57.809Z</time></trkpt><trkpt lat="45.7692605" lon="12.9939101"><ele>8.5</ele><time>2026-05-02T06:43:09.811Z</time></trkpt><trkpt lat="45.7692627" lon="12.993744"><ele>8.0</ele><time>2026-05-02T06:43:11.811Z</time></trkpt><trkpt lat="45.7692419" lon="12.9936534"><ele>7.999999999999999</ele><time>2026-05-02T06:43:12.81Z</time></trkpt><trkpt lat="45.7692175" lon="12.9935617"><ele>8.0</ele><time>2026-05-02T06:43:13.811Z</time></trkpt><trkpt lat="45.7691905" lon="12.9934693"><ele>8.0</ele><time>2026-05-02T06:43:14.81Z</time></trkpt><trkpt lat="45.7691638" lon="12.993374"><ele>8.0</ele><time>2026-05-02T06:43:15.81Z</time></trkpt><trkpt lat="45.7691339" lon="12.9932628"><ele>7.999999999999999</ele><time>2026-05-02T06:43:16.811Z</time></trkpt><trkpt lat="45.7691035" lon="12.9931508"><ele>8.0</ele><time>2026-05-02T06:43:17.811Z</time></trkpt><trkpt lat="45.7690719" lon="12.9930202"><ele>7.75</ele><time>2026-05-02T06:43:18.81Z</time></trkpt><trkpt lat="45.769042" lon="12.9928778"><ele>7.5</ele><time>2026-05-02T06:43:19.81Z</time></trkpt><trkpt lat="45.7690158" lon="12.9927241"><ele>7.25</ele><time>2026-05-02T06:43:20.81Z</time></trkpt><trkpt lat="45.7689901" lon="12.9925544"><ele>7.0</ele><time>2026-05-02T06:43:21.811Z</time></trkpt><trkpt lat="45.7689685" lon="12.9923627"><ele>6.75</ele><time>2026-05-02T06:43:22.81Z</time></trkpt><trkpt lat="45.7689526" lon="12.9921623"><ele>6.5</ele><time>2026-05-02T06:43:23.811Z</time></trkpt><trkpt lat="45.7689456" lon="12.9919494"><ele>6.25</ele><time>2026-05-02T06:43:24.811Z</time></trkpt><trkpt lat="45.7689468" lon="12.9917285"><ele>6.0</ele><time>2026-05-02T06:43:25.811Z</time></trkpt><trkpt lat="45.7689562" lon="12.9914997"><ele>6.0</ele><time>2026-05-02T06:43:26.81Z</time></trkpt><trkpt lat="45.7689757" lon="12.9912649"><ele>6.0</ele><time>2026-05-02T06:43:27.811Z</time></trkpt><trkpt lat="45.7690048" lon="12.9910241"><ele>6.0</ele><time>2026-05-02T06:43:28.811Z</time></trkpt><trkpt lat="45.7690436" lon="12.9907794"><ele>6.0</ele><time>2026-05-02T06:43:29.811Z</time></trkpt><trkpt lat="45.7690911" lon="12.9905328"><ele>6.0</ele><time>2026-05-02T06:43:30.81Z</time></trkpt><trkpt lat="45.7691402" lon="12.9902856"><ele>6.0</ele><time>2026-05-02T06:43:31.811Z</time></trkpt><trkpt lat="45.7691987" lon="12.9900372"><ele>6.333333333333334</ele><time>2026-05-02T06:43:32.811Z</time></trkpt><trkpt lat="45.7692572" lon="12.9897905"><ele>6.666666666666667</ele><time>2026-05-02T06:43:33.811Z</time></trkpt><trkpt lat="45.7693156" lon="12.9895414"><ele>7.0</ele><time>2026-05-02T06:43:34.81Z</time></trkpt><trkpt lat="45.7693738" lon="12.9892935"><ele>8.0</ele><time>2026-05-02T06:43:35.811Z</time></trkpt><trkpt lat="45.7694312" lon="12.9890465"><ele>9.0</ele><time>2026-05-02T06:43:36.811Z</time></trkpt><trkpt lat="45.7694825" lon="12.9887965"><ele>10.0</ele><time>2026-05-02T06:43:37.81Z</time></trkpt><trkpt lat="45.7695264" lon="12.9885482"><ele>8.333333333333334</ele><time>2026-05-02T06:43:38.81Z</time></trkpt><trkpt lat="45.7695606" lon="12.9883128"><ele>6.666666666666667</ele><time>2026-05-02T06:43:39.81Z</time></trkpt><trkpt lat="45.7695899" lon="12.9880959"><ele>5.0</ele><time>2026-05-02T06:43:40.811Z</time></trkpt><trkpt lat="45.769613" lon="12.9878919"><ele>5.0</ele><time>2026-05-02T06:43:41.81Z</time></trkpt><trkpt lat="45.7696396" lon="12.9876771"><ele>5.0</ele><time>2026-05-02T06:43:42.811Z</time></trkpt><trkpt lat="45.7696698" lon="12.9874594"><ele>5.0</ele><time>2026-05-02T06:43:43.811Z</time></trkpt><trkpt lat="45.7696907" lon="12.987241"><ele>4.5</ele><time>2026-05-02T06:43:44.811Z</time></trkpt><trkpt lat="45.7697171" lon="12.9870275"><ele>4.0</ele><time>2026-05-02T06:43:45.81Z</time></trkpt><trkpt lat="45.7697438" lon="12.986821"><ele>3.5</ele><time>2026-05-02T06:43:46.81Z</time></trkpt><trkpt lat="45.7697665" lon="12.9866248"><ele>3.0</ele><time>2026-05-02T06:43:47.811Z</time></trkpt><trkpt lat="45.769784" lon="12.9864446"><ele>3.0</ele><time>2026-05-02T06:43:48.81Z</time></trkpt><trkpt lat="45.7698002" lon="12.9862685"><ele>3.0</ele><time>2026-05-02T06:43:49.811Z</time></trkpt><trkpt lat="45.7698158" lon="12.9861028"><ele>3.0</ele><time>2026-05-02T06:43:50.81Z</time></trkpt><trkpt lat="45.7698334" lon="12.9859588"><ele>3.0</ele><time>2026-05-02T06:43:51.811Z</time></trkpt><trkpt lat="45.7698463" lon="12.9858186"><ele>3.0</ele><time>2026-05-02T06:43:52.811Z</time></trkpt><trkpt lat="45.7698594" lon="12.985684"><ele>3.1666666666666665</ele><time>2026-05-02T06:43:53.811Z</time></trkpt><trkpt lat="45.7698686" lon="12.9855651"><ele>3.333333333333333</ele><time>2026-05-02T06:43:54.811Z</time></trkpt><trkpt lat="45.7698696" lon="12.9854521"><ele>3.5</ele><time>2026-05-02T06:43:55.811Z</time></trkpt><trkpt lat="45.7698684" lon="12.9853384"><ele>3.6666666666666665</ele><time>2026-05-02T06:43:56.812Z</time></trkpt><trkpt lat="45.7698706" lon="12.9852356"><ele>3.833333333333333</ele><time>2026-05-02T06:43:57.811Z</time></trkpt><trkpt lat="45.7698793" lon="12.9851462"><ele>4.0</ele><time>2026-05-02T06:43:58.812Z</time></trkpt><trkpt lat="45.7699355" lon="12.984993"><ele>4.0</ele><time>2026-05-02T06:44:00.811Z</time></trkpt><trkpt lat="45.7699623" lon="12.9848987"><ele>4.0</ele><time>2026-05-02T06:44:01.811Z</time></trkpt><trkpt lat="45.7699719" lon="12.9847665"><ele>4.0</ele><time>2026-05-02T06:44:02.811Z</time></trkpt><trkpt lat="45.7699735" lon="12.9846048"><ele>4.0</ele><time>2026-05-02T06:44:03.812Z</time></trkpt><trkpt lat="45.7699821" lon="12.9844156"><ele>4.0</ele><time>2026-05-02T06:44:04.811Z</time></trkpt><trkpt lat="45.7700114" lon="12.9842294"><ele>4.0</ele><time>2026-05-02T06:44:05.812Z</time></trkpt><trkpt lat="45.7700549" lon="12.9840267"><ele>4.0</ele><time>2026-05-02T06:44:06.812Z</time></trkpt><trkpt lat="45.7700951" lon="12.9838019"><ele>4.0</ele><time>2026-05-02T06:44:07.812Z</time></trkpt><trkpt lat="45.7701305" lon="12.9835656"><ele>4.0</ele><time>2026-05-02T06:44:08.812Z</time></trkpt><trkpt lat="45.7701644" lon="12.9832966"><ele>4.0</ele><time>2026-05-02T06:44:09.811Z</time></trkpt><trkpt lat="45.7702033" lon="12.9830279"><ele>4.0</ele><time>2026-05-02T06:44:10.811Z</time></trkpt><trkpt lat="45.7702336" lon="12.9827452"><ele>4.0</ele><time>2026-05-02T06:44:11.811Z</time></trkpt><trkpt lat="45.7702647" lon="12.98246"><ele>4.0</ele><time>2026-05-02T06:44:12.812Z</time></trkpt><trkpt lat="45.7703023" lon="12.9821588"><ele>4.0</ele><time>2026-05-02T06:44:13.812Z</time></trkpt><trkpt lat="45.7703356" lon="12.9818538"><ele>3.6666666666666665</ele><time>2026-05-02T06:44:14.812Z</time></trkpt><trkpt lat="45.7703746" lon="12.9815514"><ele>3.333333333333333</ele><time>2026-05-02T06:44:15.811Z</time></trkpt><trkpt lat="45.7704137" lon="12.9812445"><ele>3.0</ele><time>2026-05-02T06:44:16.812Z</time></trkpt><trkpt lat="45.7704473" lon="12.980938"><ele>3.333333333333333</ele><time>2026-05-02T06:44:17.811Z</time></trkpt><trkpt lat="45.7704864" lon="12.9806275"><ele>3.6666666666666665</ele><time>2026-05-02T06:44:18.812Z</time></trkpt><trkpt lat="45.7705233" lon="12.9803163"><ele>4.0</ele><time>2026-05-02T06:44:19.811Z</time></trkpt><trkpt lat="45.7705583" lon="12.980004"><ele>4.333333333333333</ele><time>2026-05-02T06:44:20.811Z</time></trkpt><trkpt lat="45.7705931" lon="12.9796895"><ele>4.666666666666667</ele><time>2026-05-02T06:44:21.811Z</time></trkpt><trkpt lat="45.7706329" lon="12.9793754"><ele>5.0</ele><time>2026-05-02T06:44:22.812Z</time></trkpt><trkpt lat="45.7706703" lon="12.979063"><ele>5.0</ele><time>2026-05-02T06:44:23.811Z</time></trkpt><trkpt lat="45.7707109" lon="12.9787513"><ele>5.0</ele><time>2026-05-02T06:44:24.812Z</time></trkpt><trkpt lat="45.7707496" lon="12.9784355"><ele>5.0</ele><time>2026-05-02T06:44:25.811Z</time></trkpt><trkpt lat="45.7707918" lon="12.978129"><ele>5.333333333333334</ele><time>2026-05-02T06:44:26.812Z</time></trkpt><trkpt lat="45.7708273" lon="12.9778158"><ele>5.666666666666667</ele><time>2026-05-02T06:44:27.811Z</time></trkpt><trkpt lat="45.7708618" lon="12.9775026"><ele>6.0</ele><time>2026-05-02T06:44:28.812Z</time></trkpt><trkpt lat="45.7709028" lon="12.9771877"><ele>5.333333333333333</ele><time>2026-05-02T06:44:29.812Z</time></trkpt><trkpt lat="45.7709378" lon="12.9768766"><ele>4.666666666666666</ele><time>2026-05-02T06:44:30.812Z</time></trkpt><trkpt lat="45.7709739" lon="12.9765685"><ele>4.0</ele><time>2026-05-02T06:44:31.812Z</time></trkpt><trkpt lat="45.7710099" lon="12.9762593"><ele>3.6666666666666665</ele><time>2026-05-02T06:44:32.811Z</time></trkpt><trkpt lat="45.7710439" lon="12.9759496"><ele>3.333333333333333</ele><time>2026-05-02T06:44:33.812Z</time></trkpt><trkpt lat="45.7710807" lon="12.9756434"><ele>3.0</ele><time>2026-05-02T06:44:34.811Z</time></trkpt><trkpt lat="45.771117" lon="12.9753267"><ele>2.3333333333333335</ele><time>2026-05-02T06:44:35.811Z</time></trkpt><trkpt lat="45.771156" lon="12.9750169"><ele>1.6666666666666665</ele><time>2026-05-02T06:44:36.811Z</time></trkpt><trkpt lat="45.771193" lon="12.9747002"><ele>1.0</ele><time>2026-05-02T06:44:37.811Z</time></trkpt><trkpt lat="45.7712292" lon="12.9743886"><ele>1.5</ele><time>2026-05-02T06:44:38.812Z</time></trkpt><trkpt lat="45.7712663" lon="12.9740653"><ele>2.0</ele><time>2026-05-02T06:44:39.812Z</time></trkpt><trkpt lat="45.771304" lon="12.9737473"><ele>2.0</ele><time>2026-05-02T06:44:40.811Z</time></trkpt><trkpt lat="45.7713419" lon="12.9734179"><ele>2.0</ele><time>2026-05-02T06:44:41.811Z</time></trkpt><trkpt lat="45.7713822" lon="12.9730901"><ele>2.0</ele><time>2026-05-02T06:44:42.811Z</time></trkpt><trkpt lat="45.7714208" lon="12.9727624"><ele>2.0</ele><time>2026-05-02T06:44:43.812Z</time></trkpt><trkpt lat="45.7714617" lon="12.9724388"><ele>2.0</ele><time>2026-05-02T06:44:44.811Z</time></trkpt><trkpt lat="45.7715026" lon="12.9721052"><ele>2.0</ele><time>2026-05-02T06:44:45.811Z</time></trkpt><trkpt lat="45.7715419" lon="12.9717749"><ele>2.0</ele><time>2026-05-02T06:44:46.811Z</time></trkpt><trkpt lat="45.7715798" lon="12.9714438"><ele>2.0</ele><time>2026-05-02T06:44:47.811Z</time></trkpt><trkpt lat="45.7716176" lon="12.9711149"><ele>2.5</ele><time>2026-05-02T06:44:48.812Z</time></trkpt><trkpt lat="45.7716546" lon="12.9707874"><ele>3.0</ele><time>2026-05-02T06:44:49.812Z</time></trkpt><trkpt lat="45.7716926" lon="12.9704598"><ele>3.0</ele><time>2026-05-02T06:44:50.811Z</time></trkpt><trkpt lat="45.7717285" lon="12.9701324"><ele>3.0</ele><time>2026-05-02T06:44:51.812Z</time></trkpt><trkpt lat="45.7717685" lon="12.9698057"><ele>3.0</ele><time>2026-05-02T06:44:52.812Z</time></trkpt><trkpt lat="45.771805" lon="12.9694777"><ele>3.0</ele><time>2026-05-02T06:44:53.811Z</time></trkpt><trkpt lat="45.7718422" lon="12.9691512"><ele>2.5</ele><time>2026-05-02T06:44:54.812Z</time></trkpt><trkpt lat="45.7718831" lon="12.9688248"><ele>2.0</ele><time>2026-05-02T06:44:55.813Z</time></trkpt><trkpt lat="45.7719256" lon="12.968494"><ele>2.5</ele><time>2026-05-02T06:44:56.811Z</time></trkpt><trkpt lat="45.7719676" lon="12.9681603"><ele>3.0</ele><time>2026-05-02T06:44:57.812Z</time></trkpt><trkpt lat="45.7720063" lon="12.9678373"><ele>3.0</ele><time>2026-05-02T06:44:58.812Z</time></trkpt><trkpt lat="45.7720477" lon="12.9675088"><ele>3.0</ele><time>2026-05-02T06:44:59.812Z</time></trkpt><trkpt lat="45.7720871" lon="12.9671789"><ele>3.0</ele><time>2026-05-02T06:45:00.813Z</time></trkpt><trkpt lat="45.7721271" lon="12.966851"><ele>3.0</ele><time>2026-05-02T06:45:01.813Z</time></trkpt><trkpt lat="45.772171" lon="12.9665222"><ele>3.0</ele><time>2026-05-02T06:45:02.813Z</time></trkpt><trkpt lat="45.7722103" lon="12.9661969"><ele>3.0</ele><time>2026-05-02T06:45:03.813Z</time></trkpt><trkpt lat="45.7722487" lon="12.9658707"><ele>2.5</ele><time>2026-05-02T06:45:04.812Z</time></trkpt><trkpt lat="45.7722872" lon="12.9655415"><ele>2.0</ele><time>2026-05-02T06:45:05.812Z</time></trkpt><trkpt lat="45.772326" lon="12.9652117"><ele>2.5</ele><time>2026-05-02T06:45:06.812Z</time></trkpt><trkpt lat="45.7723614" lon="12.9648817"><ele>3.0</ele><time>2026-05-02T06:45:07.812Z</time></trkpt><trkpt lat="45.7724023" lon="12.964555"><ele>3.0</ele><time>2026-05-02T06:45:08.812Z</time></trkpt><trkpt lat="45.7724415" lon="12.9642251"><ele>3.0</ele><time>2026-05-02T06:45:09.812Z</time></trkpt><trkpt lat="45.7724758" lon="12.9638949"><ele>3.0</ele><time>2026-05-02T06:45:10.813Z</time></trkpt><trkpt lat="45.7725146" lon="12.96357"><ele>3.0</ele><time>2026-05-02T06:45:11.813Z</time></trkpt><trkpt lat="45.7725593" lon="12.9632437"><ele>2.5</ele><time>2026-05-02T06:45:12.813Z</time></trkpt><trkpt lat="45.7725963" lon="12.9629155"><ele>2.0</ele><time>2026-05-02T06:45:13.812Z</time></trkpt><trkpt lat="45.7726363" lon="12.9625826"><ele>2.5</ele><time>2026-05-02T06:45:14.812Z</time></trkpt><trkpt lat="45.7726756" lon="12.9622559"><ele>3.0</ele><time>2026-05-02T06:45:15.813Z</time></trkpt><trkpt lat="45.7727162" lon="12.9619264"><ele>2.5</ele><time>2026-05-02T06:45:16.813Z</time></trkpt><trkpt lat="45.7727574" lon="12.9615988"><ele>2.0</ele><time>2026-05-02T06:45:17.812Z</time></trkpt><trkpt lat="45.7727906" lon="12.9612674"><ele>2.0</ele><time>2026-05-02T06:45:18.813Z</time></trkpt><trkpt lat="45.7728259" lon="12.9609369"><ele>2.0</ele><time>2026-05-02T06:45:19.812Z</time></trkpt><trkpt lat="45.7728679" lon="12.9606113"><ele>2.0</ele><time>2026-05-02T06:45:20.812Z</time></trkpt><trkpt lat="45.7729078" lon="12.9602874"><ele>2.0</ele><time>2026-05-02T06:45:21.813Z</time></trkpt><trkpt lat="45.7729473" lon="12.9599596"><ele>2.0</ele><time>2026-05-02T06:45:22.813Z</time></trkpt><trkpt lat="45.7729868" lon="12.9596305"><ele>2.0</ele><time>2026-05-02T06:45:23.813Z</time></trkpt><trkpt lat="45.7730251" lon="12.9592991"><ele>2.0</ele><time>2026-05-02T06:45:24.813Z</time></trkpt><trkpt lat="45.773063" lon="12.9589698"><ele>2.0</ele><time>2026-05-02T06:45:25.813Z</time></trkpt><trkpt lat="45.7731" lon="12.958643"><ele>2.0</ele><time>2026-05-02T06:45:26.812Z</time></trkpt><trkpt lat="45.7731403" lon="12.9583126"><ele>2.0</ele><time>2026-05-02T06:45:27.812Z</time></trkpt><trkpt lat="45.7731807" lon="12.9579832"><ele>2.0</ele><time>2026-05-02T06:45:28.812Z</time></trkpt><trkpt lat="45.7732191" lon="12.9576568"><ele>2.0</ele><time>2026-05-02T06:45:29.813Z</time></trkpt><trkpt lat="45.7732599" lon="12.9573231"><ele>2.0</ele><time>2026-05-02T06:45:30.813Z</time></trkpt><trkpt lat="45.7732971" lon="12.9569952"><ele>2.0</ele><time>2026-05-02T06:45:31.813Z</time></trkpt><trkpt lat="45.7733365" lon="12.9566669"><ele>2.0</ele><time>2026-05-02T06:45:32.813Z</time></trkpt><trkpt lat="45.7734217" lon="12.9560192"><ele>2.5</ele><time>2026-05-02T06:45:34.813Z</time></trkpt><trkpt lat="45.773462" lon="12.9556925"><ele>3.0</ele><time>2026-05-02T06:45:35.813Z</time></trkpt><trkpt lat="45.7735" lon="12.9553659"><ele>3.0</ele><time>2026-05-02T06:45:36.812Z</time></trkpt><trkpt lat="45.773535" lon="12.9550331"><ele>3.0</ele><time>2026-05-02T06:45:37.813Z</time></trkpt><trkpt lat="45.7735706" lon="12.9547016"><ele>3.0</ele><time>2026-05-02T06:45:38.813Z</time></trkpt><trkpt lat="45.7736109" lon="12.9543755"><ele>3.0</ele><time>2026-05-02T06:45:39.813Z</time></trkpt><trkpt lat="45.7736498" lon="12.954045"><ele>1.5</ele><time>2026-05-02T06:45:40.812Z</time></trkpt><trkpt lat="45.7736877" lon="12.9537177"><ele>0.0</ele><time>2026-05-02T06:45:41.812Z</time></trkpt><trkpt lat="45.7737272" lon="12.9533891"><ele>0.5</ele><time>2026-05-02T06:45:42.813Z</time></trkpt><trkpt lat="45.773766" lon="12.9530565"><ele>1.0</ele><time>2026-05-02T06:45:43.813Z</time></trkpt><trkpt lat="45.7738038" lon="12.9527311"><ele>1.0</ele><time>2026-05-02T06:45:44.812Z</time></trkpt><trkpt lat="45.773843" lon="12.952402"><ele>1.0</ele><time>2026-05-02T06:45:45.813Z</time></trkpt><trkpt lat="45.7738798" lon="12.9520744"><ele>1.0</ele><time>2026-05-02T06:45:46.813Z</time></trkpt><trkpt lat="45.7739183" lon="12.9517479"><ele>1.0</ele><time>2026-05-02T06:45:47.813Z</time></trkpt><trkpt lat="45.7739574" lon="12.9514227"><ele>1.0</ele><time>2026-05-02T06:45:48.813Z</time></trkpt><trkpt lat="45.7739944" lon="12.9510875"><ele>1.0</ele><time>2026-05-02T06:45:49.813Z</time></trkpt><trkpt lat="45.7740377" lon="12.9507609"><ele>0.5</ele><time>2026-05-02T06:45:50.813Z</time></trkpt><trkpt lat="45.7740746" lon="12.95043"><ele>0.0</ele><time>2026-05-02T06:45:51.812Z</time></trkpt><trkpt lat="45.7741143" lon="12.9501027"><ele>-0.3333333333333333</ele><time>2026-05-02T06:45:52.812Z</time></trkpt><trkpt lat="45.774152" lon="12.9497873"><ele>-0.6666666666666666</ele><time>2026-05-02T06:45:53.812Z</time></trkpt><trkpt lat="45.7741867" lon="12.9494914"><ele>-1.0</ele><time>2026-05-02T06:45:54.813Z</time></trkpt><trkpt lat="45.7742192" lon="12.9492044"><ele>-0.3333333333333333</ele><time>2026-05-02T06:45:55.813Z</time></trkpt><trkpt lat="45.7742592" lon="12.9489204"><ele>0.3333333333333333</ele><time>2026-05-02T06:45:56.814Z</time></trkpt><trkpt lat="45.7742941" lon="12.9486399"><ele>1.0</ele><time>2026-05-02T06:45:57.814Z</time></trkpt><trkpt lat="45.7743278" lon="12.9483658"><ele>0.6666666666666666</ele><time>2026-05-02T06:45:58.813Z</time></trkpt><trkpt lat="45.7743581" lon="12.9481004"><ele>0.3333333333333333</ele><time>2026-05-02T06:45:59.813Z</time></trkpt><trkpt lat="45.7743932" lon="12.9478328"><ele>0.0</ele><time>2026-05-02T06:46:00.814Z</time></trkpt><trkpt lat="45.7744237" lon="12.9475669"><ele>0.6666666666666666</ele><time>2026-05-02T06:46:01.813Z</time></trkpt><trkpt lat="45.7744518" lon="12.9472929"><ele>1.3333333333333333</ele><time>2026-05-02T06:46:02.814Z</time></trkpt><trkpt lat="45.7744838" lon="12.9470149"><ele>2.0</ele><time>2026-05-02T06:46:03.814Z</time></trkpt><trkpt lat="45.7745216" lon="12.9467266"><ele>1.6666666666666665</ele><time>2026-05-02T06:46:04.814Z</time></trkpt><trkpt lat="45.7745563" lon="12.9464437"><ele>1.3333333333333333</ele><time>2026-05-02T06:46:05.813Z</time></trkpt><trkpt lat="45.7745883" lon="12.9461788"><ele>1.0</ele><time>2026-05-02T06:46:06.814Z</time></trkpt><trkpt lat="45.7746177" lon="12.9459079"><ele>0.6666666666666666</ele><time>2026-05-02T06:46:07.814Z</time></trkpt><trkpt lat="45.774651" lon="12.94563"><ele>0.3333333333333333</ele><time>2026-05-02T06:46:08.813Z</time></trkpt><trkpt lat="45.774681" lon="12.9453381"><ele>0.0</ele><time>2026-05-02T06:46:09.813Z</time></trkpt><trkpt lat="45.7747104" lon="12.9449965"><ele>0.0</ele><time>2026-05-02T06:46:10.814Z</time></trkpt><trkpt lat="45.7747483" lon="12.9446333"><ele>0.0</ele><time>2026-05-02T06:46:11.814Z</time></trkpt><trkpt lat="45.7747915" lon="12.9442426"><ele>0.5</ele><time>2026-05-02T06:46:12.813Z</time></trkpt><trkpt lat="45.7748396" lon="12.9438355"><ele>1.0</ele><time>2026-05-02T06:46:13.814Z</time></trkpt><trkpt lat="45.7748949" lon="12.943418"><ele>1.0</ele><time>2026-05-02T06:46:14.813Z</time></trkpt><trkpt lat="45.7749573" lon="12.9429885"><ele>1.0</ele><time>2026-05-02T06:46:15.813Z</time></trkpt><trkpt lat="45.7750126" lon="12.9425611"><ele>1.5</ele><time>2026-05-02T06:46:16.813Z</time></trkpt><trkpt lat="45.7750649" lon="12.9421377"><ele>2.0</ele><time>2026-05-02T06:46:17.814Z</time></trkpt><trkpt lat="45.7751148" lon="12.941721"><ele>1.5</ele><time>2026-05-02T06:46:18.813Z</time></trkpt><trkpt lat="45.7751621" lon="12.9413191"><ele>1.0</ele><time>2026-05-02T06:46:19.814Z</time></trkpt><trkpt lat="45.7752088" lon="12.9409177"><ele>1.0</ele><time>2026-05-02T06:46:20.813Z</time></trkpt><trkpt lat="45.7752571" lon="12.9405196"><ele>1.0</ele><time>2026-05-02T06:46:21.813Z</time></trkpt><trkpt lat="45.7753056" lon="12.940124"><ele>1.0</ele><time>2026-05-02T06:46:22.814Z</time></trkpt><trkpt lat="45.7753523" lon="12.9397338"><ele>1.0</ele><time>2026-05-02T06:46:23.813Z</time></trkpt><trkpt lat="45.7753978" lon="12.9393452"><ele>0.0</ele><time>2026-05-02T06:46:24.814Z</time></trkpt><trkpt lat="45.7754459" lon="12.938959"><ele>-1.0</ele><time>2026-05-02T06:46:25.813Z</time></trkpt><trkpt lat="45.7754915" lon="12.9385743"><ele>-0.5</ele><time>2026-05-02T06:46:26.814Z</time></trkpt><trkpt lat="45.7755384" lon="12.9381921"><ele>0.0</ele><time>2026-05-02T06:46:27.814Z</time></trkpt><trkpt lat="45.775586" lon="12.9378158"><ele>1.0</ele><time>2026-05-02T06:46:28.814Z</time></trkpt><trkpt lat="45.7756276" lon="12.9374352"><ele>2.0</ele><time>2026-05-02T06:46:29.813Z</time></trkpt><trkpt lat="45.7756726" lon="12.9370554"><ele>2.0</ele><time>2026-05-02T06:46:30.814Z</time></trkpt><trkpt lat="45.7757163" lon="12.9366766"><ele>2.0</ele><time>2026-05-02T06:46:31.813Z</time></trkpt><trkpt lat="45.7757637" lon="12.9363018"><ele>2.0</ele><time>2026-05-02T06:46:32.814Z</time></trkpt><trkpt lat="45.7758073" lon="12.9359268"><ele>2.0</ele><time>2026-05-02T06:46:33.814Z</time></trkpt><trkpt lat="45.7758499" lon="12.9355542"><ele>2.5</ele><time>2026-05-02T06:46:34.814Z</time></trkpt><trkpt lat="45.7758939" lon="12.9351866"><ele>3.0</ele><time>2026-05-02T06:46:35.813Z</time></trkpt><trkpt lat="45.7759366" lon="12.9348207"><ele>3.0</ele><time>2026-05-02T06:46:36.813Z</time></trkpt><trkpt lat="45.7759835" lon="12.9344557"><ele>3.0</ele><time>2026-05-02T06:46:37.813Z</time></trkpt><trkpt lat="45.7760283" lon="12.9340951"><ele>2.5</ele><time>2026-05-02T06:46:38.813Z</time></trkpt><trkpt lat="45.7760695" lon="12.9337498"><ele>2.0</ele><time>2026-05-02T06:46:39.813Z</time></trkpt><trkpt lat="45.776109" lon="12.933423"><ele>2.0</ele><time>2026-05-02T06:46:40.814Z</time></trkpt><trkpt lat="45.7761444" lon="12.9331198"><ele>2.0</ele><time>2026-05-02T06:46:41.814Z</time></trkpt><trkpt lat="45.7761796" lon="12.9328306"><ele>2.0</ele><time>2026-05-02T06:46:42.814Z</time></trkpt><trkpt lat="45.7762131" lon="12.9325418"><ele>2.6666666666666665</ele><time>2026-05-02T06:46:43.813Z</time></trkpt><trkpt lat="45.7762442" lon="12.9322638"><ele>3.333333333333333</ele><time>2026-05-02T06:46:44.814Z</time></trkpt><trkpt lat="45.7762722" lon="12.9319951"><ele>4.0</ele><time>2026-05-02T06:46:45.814Z</time></trkpt><trkpt lat="45.7763029" lon="12.9317385"><ele>4.0</ele><time>2026-05-02T06:46:46.815Z</time></trkpt><trkpt lat="45.7763358" lon="12.9314995"><ele>4.0</ele><time>2026-05-02T06:46:47.813Z</time></trkpt><trkpt lat="45.7763596" lon="12.9312801"><ele>4.0</ele><time>2026-05-02T06:46:48.813Z</time></trkpt><trkpt lat="45.7763896" lon="12.9310811"><ele>4.0</ele><time>2026-05-02T06:46:49.813Z</time></trkpt><trkpt lat="45.7764331" lon="12.9309073"><ele>4.0</ele><time>2026-05-02T06:46:50.814Z</time></trkpt><trkpt lat="45.7765053" lon="12.9307539"><ele>4.0</ele><time>2026-05-02T06:46:51.814Z</time></trkpt><trkpt lat="45.7766064" lon="12.9306384"><ele>4.0</ele><time>2026-05-02T06:46:52.814Z</time></trkpt><trkpt lat="45.7767189" lon="12.9305426"><ele>3.5</ele><time>2026-05-02T06:46:53.813Z</time></trkpt><trkpt lat="45.7768222" lon="12.930422"><ele>3.0</ele><time>2026-05-02T06:46:54.815Z</time></trkpt><trkpt lat="45.7769073" lon="12.93026"><ele>2.5</ele><time>2026-05-02T06:46:55.814Z</time></trkpt><trkpt lat="45.7769625" lon="12.9300811"><ele>2.0</ele><time>2026-05-02T06:46:56.815Z</time></trkpt><trkpt lat="45.7769816" lon="12.9298943"><ele>2.0</ele><time>2026-05-02T06:46:57.814Z</time></trkpt><trkpt lat="45.7769709" lon="12.9297085"><ele>2.0</ele><time>2026-05-02T06:46:58.814Z</time></trkpt><trkpt lat="45.776927" lon="12.9295328"><ele>2.0</ele><time>2026-05-02T06:46:59.815Z</time></trkpt><trkpt lat="45.7768653" lon="12.9293657"><ele>2.0</ele><time>2026-05-02T06:47:00.814Z</time></trkpt><trkpt lat="45.7767878" lon="12.9292144"><ele>2.0</ele><time>2026-05-02T06:47:01.815Z</time></trkpt><trkpt lat="45.7767293" lon="12.929074"><ele>2.0</ele><time>2026-05-02T06:47:02.814Z</time></trkpt><trkpt lat="45.7766824" lon="12.9289176"><ele>2.0</ele><time>2026-05-02T06:47:03.814Z</time></trkpt><trkpt lat="45.7766667" lon="12.9287252"><ele>2.0</ele><time>2026-05-02T06:47:04.815Z</time></trkpt><trkpt lat="45.7766815" lon="12.9285013"><ele>2.0</ele><time>2026-05-02T06:47:05.815Z</time></trkpt><trkpt lat="45.7767141" lon="12.9282415"><ele>2.0</ele><time>2026-05-02T06:47:06.814Z</time></trkpt><trkpt lat="45.776749" lon="12.9279672"><ele>2.0</ele><time>2026-05-02T06:47:07.814Z</time></trkpt><trkpt lat="45.7767838" lon="12.9276937"><ele>2.0</ele><time>2026-05-02T06:47:08.814Z</time></trkpt><trkpt lat="45.7768148" lon="12.9274041"><ele>2.0</ele><time>2026-05-02T06:47:09.815Z</time></trkpt><trkpt lat="45.7768443" lon="12.9270774"><ele>2.0</ele><time>2026-05-02T06:47:10.814Z</time></trkpt><trkpt lat="45.7768829" lon="12.9267265"><ele>2.5</ele><time>2026-05-02T06:47:11.815Z</time></trkpt><trkpt lat="45.7769311" lon="12.9263678"><ele>3.0</ele><time>2026-05-02T06:47:12.814Z</time></trkpt><trkpt lat="45.776984" lon="12.9260185"><ele>2.5</ele><time>2026-05-02T06:47:13.815Z</time></trkpt><trkpt lat="45.7770321" lon="12.9256805"><ele>2.0</ele><time>2026-05-02T06:47:14.815Z</time></trkpt><trkpt lat="45.7770705" lon="12.9253541"><ele>2.6666666666666665</ele><time>2026-05-02T06:47:15.815Z</time></trkpt><trkpt lat="45.7771058" lon="12.925043"><ele>3.333333333333333</ele><time>2026-05-02T06:47:16.814Z</time></trkpt><trkpt lat="45.7771408" lon="12.9247521"><ele>4.0</ele><time>2026-05-02T06:47:17.814Z</time></trkpt><trkpt lat="45.7771721" lon="12.924484"><ele>4.0</ele><time>2026-05-02T06:47:18.815Z</time></trkpt><trkpt lat="45.7772009" lon="12.9242362"><ele>4.0</ele><time>2026-05-02T06:47:19.815Z</time></trkpt><trkpt lat="45.7772301" lon="12.9239997"><ele>4.0</ele><time>2026-05-02T06:47:20.815Z</time></trkpt><trkpt lat="45.7772562" lon="12.9237592"><ele>4.0</ele><time>2026-05-02T06:47:21.814Z</time></trkpt><trkpt lat="45.7772863" lon="12.9235169"><ele>4.0</ele><time>2026-05-02T06:47:22.815Z</time></trkpt><trkpt lat="45.7773165" lon="12.9232804"><ele>4.0</ele><time>2026-05-02T06:47:23.814Z</time></trkpt><trkpt lat="45.7773471" lon="12.9230496"><ele>4.0</ele><time>2026-05-02T06:47:24.814Z</time></trkpt><trkpt lat="45.7773748" lon="12.9228317"><ele>4.0</ele><time>2026-05-02T06:47:25.814Z</time></trkpt><trkpt lat="45.7774068" lon="12.9226186"><ele>4.0</ele><time>2026-05-02T06:47:26.815Z</time></trkpt><trkpt lat="45.777434" lon="12.9224254"><ele>4.0</ele><time>2026-05-02T06:47:27.814Z</time></trkpt><trkpt lat="45.7774597" lon="12.9222495"><ele>4.0</ele><time>2026-05-02T06:47:28.814Z</time></trkpt><trkpt lat="45.777483" lon="12.92209"><ele>4.0</ele><time>2026-05-02T06:47:29.814Z</time></trkpt><trkpt lat="45.7775114" lon="12.9219452"><ele>4.0</ele><time>2026-05-02T06:47:30.814Z</time></trkpt><trkpt lat="45.7775464" lon="12.9218245"><ele>4.0</ele><time>2026-05-02T06:47:31.814Z</time></trkpt><trkpt lat="45.7775993" lon="12.9217268"><ele>4.0</ele><time>2026-05-02T06:47:32.814Z</time></trkpt><trkpt lat="45.7776531" lon="12.9216253"><ele>4.0</ele><time>2026-05-02T06:47:33.814Z</time></trkpt><trkpt lat="45.7776967" lon="12.9214929"><ele>4.0</ele><time>2026-05-02T06:47:34.814Z</time></trkpt><trkpt lat="45.7776922" lon="12.9213706"><ele>4.0</ele><time>2026-05-02T06:47:35.814Z</time></trkpt><trkpt lat="45.7776628" lon="12.9212432"><ele>4.0</ele><time>2026-05-02T06:47:36.815Z</time></trkpt><trkpt lat="45.7776285" lon="12.9211096"><ele>4.0</ele><time>2026-05-02T06:47:37.814Z</time></trkpt><trkpt lat="45.7776154" lon="12.9209575"><ele>3.75</ele><time>2026-05-02T06:47:38.815Z</time></trkpt><trkpt lat="45.7776216" lon="12.9207879"><ele>3.5</ele><time>2026-05-02T06:47:39.815Z</time></trkpt><trkpt lat="45.7776356" lon="12.9205758"><ele>3.25</ele><time>2026-05-02T06:47:40.815Z</time></trkpt><trkpt lat="45.7776574" lon="12.9203275"><ele>3.0</ele><time>2026-05-02T06:47:41.815Z</time></trkpt><trkpt lat="45.7776896" lon="12.9200433"><ele>4.5</ele><time>2026-05-02T06:47:42.815Z</time></trkpt><trkpt lat="45.7777227" lon="12.9197373"><ele>6.0</ele><time>2026-05-02T06:47:43.815Z</time></trkpt><trkpt lat="45.7777618" lon="12.9193891"><ele>6.0</ele><time>2026-05-02T06:47:44.814Z</time></trkpt><trkpt lat="45.7778014" lon="12.9190036"><ele>6.0</ele><time>2026-05-02T06:47:45.815Z</time></trkpt><trkpt lat="45.7778553" lon="12.9185857"><ele>6.0</ele><time>2026-05-02T06:47:46.815Z</time></trkpt><trkpt lat="45.7779191" lon="12.9181432"><ele>6.0</ele><time>2026-05-02T06:47:47.815Z</time></trkpt><trkpt lat="45.7779881" lon="12.917669"><ele>4.5</ele><time>2026-05-02T06:47:48.815Z</time></trkpt><trkpt lat="45.7780505" lon="12.9171954"><ele>3.0</ele><time>2026-05-02T06:47:49.815Z</time></trkpt><trkpt lat="45.7781074" lon="12.9167466"><ele>3.5</ele><time>2026-05-02T06:47:50.815Z</time></trkpt><trkpt lat="45.7781583" lon="12.9163309"><ele>4.0</ele><time>2026-05-02T06:47:51.814Z</time></trkpt><trkpt lat="45.7782081" lon="12.9159392"><ele>4.0</ele><time>2026-05-02T06:47:52.815Z</time></trkpt><trkpt lat="45.7782537" lon="12.9155692"><ele>4.0</ele><time>2026-05-02T06:47:53.815Z</time></trkpt><trkpt lat="45.7782944" lon="12.9152087"><ele>3.5</ele><time>2026-05-02T06:47:54.816Z</time></trkpt><trkpt lat="45.7783359" lon="12.9148686"><ele>3.0</ele><time>2026-05-02T06:47:55.816Z</time></trkpt><trkpt lat="45.7783723" lon="12.9145431"><ele>3.333333333333333</ele><time>2026-05-02T06:47:56.815Z</time></trkpt><trkpt lat="45.7784011" lon="12.9142291"><ele>3.6666666666666665</ele><time>2026-05-02T06:47:57.816Z</time></trkpt><trkpt lat="45.7784335" lon="12.9139071"><ele>4.0</ele><time>2026-05-02T06:47:58.815Z</time></trkpt><trkpt lat="45.7784699" lon="12.9135991"><ele>4.333333333333333</ele><time>2026-05-02T06:47:59.815Z</time></trkpt><trkpt lat="45.7785039" lon="12.9132802"><ele>4.666666666666667</ele><time>2026-05-02T06:48:00.815Z</time></trkpt><trkpt lat="45.7785454" lon="12.9129705"><ele>5.0</ele><time>2026-05-02T06:48:01.815Z</time></trkpt><trkpt lat="45.7785843" lon="12.912661"><ele>5.666666666666667</ele><time>2026-05-02T06:48:02.815Z</time></trkpt><trkpt lat="45.7786189" lon="12.9123535"><ele>6.333333333333334</ele><time>2026-05-02T06:48:03.815Z</time></trkpt><trkpt lat="45.7786536" lon="12.912055"><ele>7.0</ele><time>2026-05-02T06:48:04.816Z</time></trkpt><trkpt lat="45.7786896" lon="12.9117576"><ele>6.333333333333334</ele><time>2026-05-02T06:48:05.816Z</time></trkpt><trkpt lat="45.7787264" lon="12.9114667"><ele>5.666666666666667</ele><time>2026-05-02T06:48:06.816Z</time></trkpt><trkpt lat="45.7787597" lon="12.9111745"><ele>5.0</ele><time>2026-05-02T06:48:07.816Z</time></trkpt><trkpt lat="45.7787951" lon="12.910884"><ele>4.666666666666667</ele><time>2026-05-02T06:48:08.815Z</time></trkpt><trkpt lat="45.7788265" lon="12.9105992"><ele>4.333333333333333</ele><time>2026-05-02T06:48:09.816Z</time></trkpt><trkpt lat="45.7788611" lon="12.9103321"><ele>4.0</ele><time>2026-05-02T06:48:10.816Z</time></trkpt><trkpt lat="45.7788911" lon="12.9100863"><ele>4.333333333333333</ele><time>2026-05-02T06:48:11.816Z</time></trkpt><trkpt lat="45.7789171" lon="12.9098542"><ele>4.666666666666667</ele><time>2026-05-02T06:48:12.815Z</time></trkpt><trkpt lat="45.7789456" lon="12.909638"><ele>5.0</ele><time>2026-05-02T06:48:13.816Z</time></trkpt><trkpt lat="45.778969" lon="12.9094384"><ele>5.0</ele><time>2026-05-02T06:48:14.816Z</time></trkpt><trkpt lat="45.7789884" lon="12.9092488"><ele>5.0</ele><time>2026-05-02T06:48:15.816Z</time></trkpt><trkpt lat="45.7790099" lon="12.9090592"><ele>5.0</ele><time>2026-05-02T06:48:16.815Z</time></trkpt><trkpt lat="45.779032" lon="12.9088717"><ele>5.0</ele><time>2026-05-02T06:48:17.816Z</time></trkpt><trkpt lat="45.7790558" lon="12.9086882"><ele>4.833333333333334</ele><time>2026-05-02T06:48:18.816Z</time></trkpt><trkpt lat="45.7790786" lon="12.908527"><ele>4.666666666666667</ele><time>2026-05-02T06:48:19.816Z</time></trkpt><trkpt lat="45.7790967" lon="12.9083844"><ele>4.5</ele><time>2026-05-02T06:48:20.815Z</time></trkpt><trkpt lat="45.7791159" lon="12.9082692"><ele>4.333333333333333</ele><time>2026-05-02T06:48:21.816Z</time></trkpt><trkpt lat="45.7791314" lon="12.9081777"><ele>4.166666666666666</ele><time>2026-05-02T06:48:22.816Z</time></trkpt><trkpt lat="45.7791417" lon="12.9080681"><ele>4.0</ele><time>2026-05-02T06:48:24.815Z</time></trkpt><trkpt lat="45.7791597" lon="12.9079214"><ele>3.9999999999999996</ele><time>2026-05-02T06:48:38.816Z</time></trkpt><trkpt lat="45.7791716" lon="12.9078264"><ele>4.0</ele><time>2026-05-02T06:48:39.816Z</time></trkpt><trkpt lat="45.7791854" lon="12.9077062"><ele>4.0</ele><time>2026-05-02T06:48:40.816Z</time></trkpt><trkpt lat="45.7792014" lon="12.9075837"><ele>4.0</ele><time>2026-05-02T06:48:41.816Z</time></trkpt><trkpt lat="45.7792174" lon="12.9074433"><ele>3.9999999999999996</ele><time>2026-05-02T06:48:42.815Z</time></trkpt><trkpt lat="45.7792343" lon="12.9072972"><ele>4.0</ele><time>2026-05-02T06:48:43.816Z</time></trkpt><trkpt lat="45.7792495" lon="12.9071367"><ele>4.0</ele><time>2026-05-02T06:48:44.816Z</time></trkpt><trkpt lat="45.7792668" lon="12.9069699"><ele>4.0</ele><time>2026-05-02T06:48:45.816Z</time></trkpt><trkpt lat="45.7792853" lon="12.9067911"><ele>4.0</ele><time>2026-05-02T06:48:46.815Z</time></trkpt><trkpt lat="45.7793043" lon="12.9066081"><ele>4.0</ele><time>2026-05-02T06:48:47.816Z</time></trkpt><trkpt lat="45.7793238" lon="12.9064127"><ele>4.0</ele><time>2026-05-02T06:48:48.815Z</time></trkpt><trkpt lat="45.779347" lon="12.906207"><ele>4.0</ele><time>2026-05-02T06:48:49.815Z</time></trkpt><trkpt lat="45.7793712" lon="12.9059917"><ele>4.0</ele><time>2026-05-02T06:48:50.816Z</time></trkpt><trkpt lat="45.7793967" lon="12.9057605"><ele>4.333333333333333</ele><time>2026-05-02T06:48:51.816Z</time></trkpt><trkpt lat="45.7794223" lon="12.905528"><ele>4.666666666666667</ele><time>2026-05-02T06:48:52.816Z</time></trkpt><trkpt lat="45.7794482" lon="12.9052969"><ele>5.0</ele><time>2026-05-02T06:48:53.816Z</time></trkpt><trkpt lat="45.7794759" lon="12.9050657"><ele>5.0</ele><time>2026-05-02T06:48:54.816Z</time></trkpt><trkpt lat="45.7795054" lon="12.9048345"><ele>5.0</ele><time>2026-05-02T06:48:55.817Z</time></trkpt><trkpt lat="45.7795372" lon="12.9046035"><ele>5.0</ele><time>2026-05-02T06:48:56.817Z</time></trkpt><trkpt lat="45.779568" lon="12.9043695"><ele>4.333333333333334</ele><time>2026-05-02T06:48:57.816Z</time></trkpt><trkpt lat="45.7796007" lon="12.9041349"><ele>3.666666666666667</ele><time>2026-05-02T06:48:58.816Z</time></trkpt><trkpt lat="45.77963" lon="12.9039008"><ele>3.0</ele><time>2026-05-02T06:48:59.817Z</time></trkpt><trkpt lat="45.7796601" lon="12.9036664"><ele>3.0</ele><time>2026-05-02T06:49:00.816Z</time></trkpt><trkpt lat="45.7796874" lon="12.9034296"><ele>3.0</ele><time>2026-05-02T06:49:01.816Z</time></trkpt><trkpt lat="45.7797174" lon="12.9031937"><ele>3.0</ele><time>2026-05-02T06:49:02.816Z</time></trkpt><trkpt lat="45.7797446" lon="12.9029577"><ele>3.333333333333333</ele><time>2026-05-02T06:49:03.816Z</time></trkpt><trkpt lat="45.779772" lon="12.9027244"><ele>3.6666666666666665</ele><time>2026-05-02T06:49:04.816Z</time></trkpt><trkpt lat="45.779797" lon="12.9024864"><ele>4.0</ele><time>2026-05-02T06:49:05.816Z</time></trkpt><trkpt lat="45.7798253" lon="12.902249"><ele>4.0</ele><time>2026-05-02T06:49:06.817Z</time></trkpt><trkpt lat="45.7798512" lon="12.9020111"><ele>4.0</ele><time>2026-05-02T06:49:07.817Z</time></trkpt><trkpt lat="45.7798835" lon="12.9017681"><ele>4.0</ele><time>2026-05-02T06:49:08.816Z</time></trkpt><trkpt lat="45.7799105" lon="12.9014989"><ele>4.0</ele><time>2026-05-02T06:49:09.817Z</time></trkpt><trkpt lat="45.7799434" lon="12.9012161"><ele>4.0</ele><time>2026-05-02T06:49:10.817Z</time></trkpt><trkpt lat="45.7799744" lon="12.900939"><ele>4.0</ele><time>2026-05-02T06:49:11.817Z</time></trkpt><trkpt lat="45.7800052" lon="12.9006817"><ele>4.0</ele><time>2026-05-02T06:49:12.817Z</time></trkpt><trkpt lat="45.7800326" lon="12.9004384"><ele>4.0</ele><time>2026-05-02T06:49:13.817Z</time></trkpt><trkpt lat="45.780062" lon="12.9002061"><ele>4.0</ele><time>2026-05-02T06:49:14.817Z</time></trkpt><trkpt lat="45.7800886" lon="12.899992"><ele>4.0</ele><time>2026-05-02T06:49:15.817Z</time></trkpt><trkpt lat="45.7801157" lon="12.8997591"><ele>4.0</ele><time>2026-05-02T06:49:16.817Z</time></trkpt><trkpt lat="45.7801401" lon="12.8995244"><ele>4.0</ele><time>2026-05-02T06:49:17.817Z</time></trkpt><trkpt lat="45.7801663" lon="12.8993056"><ele>3.6666666666666665</ele><time>2026-05-02T06:49:18.816Z</time></trkpt><trkpt lat="45.7801887" lon="12.8991026"><ele>3.333333333333333</ele><time>2026-05-02T06:49:19.816Z</time></trkpt><trkpt lat="45.7802126" lon="12.8988867"><ele>3.0</ele><time>2026-05-02T06:49:20.817Z</time></trkpt><trkpt lat="45.7802414" lon="12.8986612"><ele>3.0</ele><time>2026-05-02T06:49:21.817Z</time></trkpt><trkpt lat="45.7802652" lon="12.8984525"><ele>3.0</ele><time>2026-05-02T06:49:22.816Z</time></trkpt><trkpt lat="45.7802908" lon="12.8982624"><ele>3.0</ele><time>2026-05-02T06:49:23.816Z</time></trkpt><trkpt lat="45.7803131" lon="12.8980903"><ele>3.0</ele><time>2026-05-02T06:49:24.817Z</time></trkpt><trkpt lat="45.7803296" lon="12.8979352"><ele>3.0</ele><time>2026-05-02T06:49:25.817Z</time></trkpt><trkpt lat="45.7803425" lon="12.8977866"><ele>3.0</ele><time>2026-05-02T06:49:26.816Z</time></trkpt><trkpt lat="45.7803668" lon="12.8976414"><ele>3.0</ele><time>2026-05-02T06:49:27.817Z</time></trkpt><trkpt lat="45.7804028" lon="12.897515"><ele>3.0</ele><time>2026-05-02T06:49:28.817Z</time></trkpt><trkpt lat="45.7804572" lon="12.8973959"><ele>3.0</ele><time>2026-05-02T06:49:29.816Z</time></trkpt><trkpt lat="45.7804964" lon="12.897267"><ele>3.0</ele><time>2026-05-02T06:49:30.817Z</time></trkpt><trkpt lat="45.7805044" lon="12.8971124"><ele>3.0</ele><time>2026-05-02T06:49:31.816Z</time></trkpt><trkpt lat="45.7804892" lon="12.8969467"><ele>3.0</ele><time>2026-05-02T06:49:32.817Z</time></trkpt><trkpt lat="45.7804799" lon="12.8967694"><ele>3.0</ele><time>2026-05-02T06:49:33.817Z</time></trkpt><trkpt lat="45.7804896" lon="12.8965807"><ele>3.333333333333333</ele><time>2026-05-02T06:49:34.816Z</time></trkpt><trkpt lat="45.7805092" lon="12.8963819"><ele>3.6666666666666665</ele><time>2026-05-02T06:49:35.817Z</time></trkpt><trkpt lat="45.7805393" lon="12.896167"><ele>4.0</ele><time>2026-05-02T06:49:36.816Z</time></trkpt><trkpt lat="45.7805708" lon="12.8959276"><ele>4.0</ele><time>2026-05-02T06:49:37.817Z</time></trkpt><trkpt lat="45.7806005" lon="12.8956654"><ele>4.0</ele><time>2026-05-02T06:49:38.818Z</time></trkpt><trkpt lat="45.7806269" lon="12.8953747"><ele>4.0</ele><time>2026-05-02T06:49:39.816Z</time></trkpt><trkpt lat="45.7806695" lon="12.8950644"><ele>3.6666666666666665</ele><time>2026-05-02T06:49:40.817Z</time></trkpt><trkpt lat="45.780713" lon="12.894753"><ele>3.333333333333333</ele><time>2026-05-02T06:49:41.816Z</time></trkpt><trkpt lat="45.7807478" lon="12.89447"><ele>3.0</ele><time>2026-05-02T06:49:42.817Z</time></trkpt><trkpt lat="45.7807839" lon="12.8941671"><ele>3.0</ele><time>2026-05-02T06:49:43.816Z</time></trkpt><trkpt lat="45.780826" lon="12.8938452"><ele>3.0</ele><time>2026-05-02T06:49:44.817Z</time></trkpt><trkpt lat="45.7808657" lon="12.8935145"><ele>4.0</ele><time>2026-05-02T06:49:45.817Z</time></trkpt><trkpt lat="45.7809115" lon="12.8931836"><ele>5.0</ele><time>2026-05-02T06:49:46.816Z</time></trkpt><trkpt lat="45.7809587" lon="12.8928642"><ele>5.0</ele><time>2026-05-02T06:49:47.817Z</time></trkpt><trkpt lat="45.7809986" lon="12.8925455"><ele>5.0</ele><time>2026-05-02T06:49:48.817Z</time></trkpt><trkpt lat="45.7810419" lon="12.8922333"><ele>5.0</ele><time>2026-05-02T06:49:49.816Z</time></trkpt><trkpt lat="45.7810802" lon="12.8919341"><ele>4.0</ele><time>2026-05-02T06:49:50.817Z</time></trkpt><trkpt lat="45.7811166" lon="12.8916518"><ele>3.0</ele><time>2026-05-02T06:49:51.817Z</time></trkpt><trkpt lat="45.7811516" lon="12.8913949"><ele>2.0</ele><time>2026-05-02T06:49:52.817Z</time></trkpt><trkpt lat="45.7811783" lon="12.8911484"><ele>2.333333333333333</ele><time>2026-05-02T06:49:53.816Z</time></trkpt><trkpt lat="45.7812094" lon="12.8908846"><ele>2.6666666666666665</ele><time>2026-05-02T06:49:54.817Z</time></trkpt><trkpt lat="45.7812437" lon="12.8906087"><ele>3.0</ele><time>2026-05-02T06:49:55.817Z</time></trkpt><trkpt lat="45.7812748" lon="12.8903258"><ele>3.666666666666667</ele><time>2026-05-02T06:49:56.817Z</time></trkpt><trkpt lat="45.781309" lon="12.890045"><ele>4.333333333333334</ele><time>2026-05-02T06:49:57.818Z</time></trkpt><trkpt lat="45.7813424" lon="12.8897613"><ele>5.0</ele><time>2026-05-02T06:49:58.818Z</time></trkpt><trkpt lat="45.7813815" lon="12.8894759"><ele>5.0</ele><time>2026-05-02T06:49:59.817Z</time></trkpt><trkpt lat="45.7814169" lon="12.8891901"><ele>5.0</ele><time>2026-05-02T06:50:00.817Z</time></trkpt><trkpt lat="45.781451" lon="12.8888933"><ele>5.0</ele><time>2026-05-02T06:50:01.818Z</time></trkpt><trkpt lat="45.7814873" lon="12.8885823"><ele>5.0</ele><time>2026-05-02T06:50:02.817Z</time></trkpt><trkpt lat="45.7815263" lon="12.8882759"><ele>5.0</ele><time>2026-05-02T06:50:03.818Z</time></trkpt><trkpt lat="45.7815653" lon="12.887976"><ele>5.0</ele><time>2026-05-02T06:50:04.818Z</time></trkpt><trkpt lat="45.7816012" lon="12.8876731"><ele>4.666666666666667</ele><time>2026-05-02T06:50:05.818Z</time></trkpt><trkpt lat="45.7816307" lon="12.8873623"><ele>4.333333333333333</ele><time>2026-05-02T06:50:06.818Z</time></trkpt><trkpt lat="45.7816527" lon="12.88704"><ele>4.0</ele><time>2026-05-02T06:50:07.818Z</time></trkpt><trkpt lat="45.7816643" lon="12.8867071"><ele>3.5</ele><time>2026-05-02T06:50:08.818Z</time></trkpt><trkpt lat="45.7816751" lon="12.8863707"><ele>3.0</ele><time>2026-05-02T06:50:09.818Z</time></trkpt><trkpt lat="45.7816685" lon="12.8860405"><ele>2.5</ele><time>2026-05-02T06:50:10.818Z</time></trkpt><trkpt lat="45.7816487" lon="12.885702"><ele>2.0</ele><time>2026-05-02T06:50:11.818Z</time></trkpt><trkpt lat="45.7816174" lon="12.8853617"><ele>3.0</ele><time>2026-05-02T06:50:12.817Z</time></trkpt><trkpt lat="45.7815901" lon="12.8850145"><ele>4.0</ele><time>2026-05-02T06:50:13.818Z</time></trkpt><trkpt lat="45.7815554" lon="12.8846601"><ele>4.0</ele><time>2026-05-02T06:50:14.817Z</time></trkpt><trkpt lat="45.7815301" lon="12.8843204"><ele>4.0</ele><time>2026-05-02T06:50:15.817Z</time></trkpt><trkpt lat="45.7815095" lon="12.8839834"><ele>3.0</ele><time>2026-05-02T06:50:16.818Z</time></trkpt><trkpt lat="45.7814986" lon="12.8836408"><ele>2.0</ele><time>2026-05-02T06:50:17.817Z</time></trkpt><trkpt lat="45.7814977" lon="12.8833287"><ele>1.6666666666666665</ele><time>2026-05-02T06:50:18.817Z</time></trkpt><trkpt lat="45.7815059" lon="12.8830266"><ele>1.3333333333333333</ele><time>2026-05-02T06:50:19.817Z</time></trkpt><trkpt lat="45.7815236" lon="12.8827262"><ele>1.0</ele><time>2026-05-02T06:50:20.818Z</time></trkpt><trkpt lat="45.7815476" lon="12.8824171"><ele>1.0</ele><time>2026-05-02T06:50:21.817Z</time></trkpt><trkpt lat="45.7815744" lon="12.882121"><ele>1.0</ele><time>2026-05-02T06:50:22.817Z</time></trkpt><trkpt lat="45.7816137" lon="12.8818168"><ele>1.0</ele><time>2026-05-02T06:50:23.818Z</time></trkpt><trkpt lat="45.7816659" lon="12.8814914"><ele>1.5</ele><time>2026-05-02T06:50:24.817Z</time></trkpt><trkpt lat="45.7817366" lon="12.8811452"><ele>2.0</ele><time>2026-05-02T06:50:25.818Z</time></trkpt><trkpt lat="45.781822" lon="12.8807844"><ele>2.0</ele><time>2026-05-02T06:50:26.818Z</time></trkpt><trkpt lat="45.7819253" lon="12.8804148"><ele>2.0</ele><time>2026-05-02T06:50:27.818Z</time></trkpt><trkpt lat="45.7820386" lon="12.8800425"><ele>1.5</ele><time>2026-05-02T06:50:28.818Z</time></trkpt><trkpt lat="45.7821605" lon="12.879664"><ele>1.0</ele><time>2026-05-02T06:50:29.818Z</time></trkpt><trkpt lat="45.7822943" lon="12.8792796"><ele>0.5</ele><time>2026-05-02T06:50:30.818Z</time></trkpt><trkpt lat="45.782437" lon="12.878884"><ele>0.0</ele><time>2026-05-02T06:50:31.817Z</time></trkpt><trkpt lat="45.7825714" lon="12.8784746"><ele>0.5</ele><time>2026-05-02T06:50:32.818Z</time></trkpt><trkpt lat="45.7827076" lon="12.8780711"><ele>1.0</ele><time>2026-05-02T06:50:33.817Z</time></trkpt><trkpt lat="45.7828461" lon="12.8776627"><ele>1.5</ele><time>2026-05-02T06:50:34.818Z</time></trkpt><trkpt lat="45.7829849" lon="12.877246"><ele>2.0</ele><time>2026-05-02T06:50:35.818Z</time></trkpt><trkpt lat="45.7831248" lon="12.8768311"><ele>2.0</ele><time>2026-05-02T06:50:36.817Z</time></trkpt><trkpt lat="45.7832698" lon="12.8764105"><ele>2.0</ele><time>2026-05-02T06:50:37.818Z</time></trkpt><trkpt lat="45.7834017" lon="12.8759833"><ele>2.0</ele><time>2026-05-02T06:50:38.818Z</time></trkpt><trkpt lat="45.7835207" lon="12.8755532"><ele>2.0</ele><time>2026-05-02T06:50:39.818Z</time></trkpt><trkpt lat="45.7836268" lon="12.8751112"><ele>2.0</ele><time>2026-05-02T06:50:40.817Z</time></trkpt><trkpt lat="45.7837211" lon="12.874664"><ele>2.0</ele><time>2026-05-02T06:50:41.817Z</time></trkpt><trkpt lat="45.783804" lon="12.8742115"><ele>2.0</ele><time>2026-05-02T06:50:42.818Z</time></trkpt><trkpt lat="45.7838687" lon="12.8737485"><ele>2.0</ele><time>2026-05-02T06:50:43.818Z</time></trkpt><trkpt lat="45.7839235" lon="12.8732835"><ele>2.5</ele><time>2026-05-02T06:50:44.818Z</time></trkpt><trkpt lat="45.7839629" lon="12.8728144"><ele>3.0</ele><time>2026-05-02T06:50:45.817Z</time></trkpt><trkpt lat="45.7839923" lon="12.8723389"><ele>3.0</ele><time>2026-05-02T06:50:46.818Z</time></trkpt><trkpt lat="45.7840003" lon="12.8718646"><ele>3.0</ele><time>2026-05-02T06:50:47.817Z</time></trkpt><trkpt lat="45.7839968" lon="12.8713956"><ele>3.5</ele><time>2026-05-02T06:50:48.817Z</time></trkpt><trkpt lat="45.7839849" lon="12.8709232"><ele>4.0</ele><time>2026-05-02T06:50:49.818Z</time></trkpt><trkpt lat="45.7839734" lon="12.8704515"><ele>3.0</ele><time>2026-05-02T06:50:50.819Z</time></trkpt><trkpt lat="45.7839638" lon="12.8699835"><ele>2.0</ele><time>2026-05-02T06:50:51.818Z</time></trkpt><trkpt lat="45.7839548" lon="12.8695147"><ele>2.0</ele><time>2026-05-02T06:50:52.819Z</time></trkpt><trkpt lat="45.7839441" lon="12.8690448"><ele>2.0</ele><time>2026-05-02T06:50:53.818Z</time></trkpt><trkpt lat="45.783931" lon="12.8685861"><ele>2.5</ele><time>2026-05-02T06:50:54.818Z</time></trkpt><trkpt lat="45.7839203" lon="12.868123"><ele>3.0</ele><time>2026-05-02T06:50:55.819Z</time></trkpt><trkpt lat="45.7839119" lon="12.8676611"><ele>3.0</ele><time>2026-05-02T06:50:56.818Z</time></trkpt><trkpt lat="45.7838971" lon="12.8672013"><ele>3.0</ele><time>2026-05-02T06:50:57.819Z</time></trkpt><trkpt lat="45.7838868" lon="12.8667501"><ele>3.0</ele><time>2026-05-02T06:50:58.818Z</time></trkpt><trkpt lat="45.7838718" lon="12.8662986"><ele>3.0</ele><time>2026-05-02T06:50:59.818Z</time></trkpt><trkpt lat="45.7838641" lon="12.8658427"><ele>2.5</ele><time>2026-05-02T06:51:00.818Z</time></trkpt><trkpt lat="45.7838539" lon="12.8653946"><ele>2.0</ele><time>2026-05-02T06:51:01.819Z</time></trkpt><trkpt lat="45.7838464" lon="12.8649458"><ele>2.0</ele><time>2026-05-02T06:51:02.819Z</time></trkpt><trkpt lat="45.7838324" lon="12.864491"><ele>2.0</ele><time>2026-05-02T06:51:03.819Z</time></trkpt><trkpt lat="45.7838162" lon="12.8640525"><ele>2.0</ele><time>2026-05-02T06:51:04.819Z</time></trkpt><trkpt lat="45.7838052" lon="12.8636055"><ele>2.0</ele><time>2026-05-02T06:51:05.819Z</time></trkpt><trkpt lat="45.7837968" lon="12.8631631"><ele>2.5</ele><time>2026-05-02T06:51:06.818Z</time></trkpt><trkpt lat="45.783789" lon="12.8627209"><ele>3.0</ele><time>2026-05-02T06:51:07.818Z</time></trkpt><trkpt lat="45.7837804" lon="12.8622784"><ele>3.0</ele><time>2026-05-02T06:51:08.818Z</time></trkpt><trkpt lat="45.7837738" lon="12.861839"><ele>3.0</ele><time>2026-05-02T06:51:09.819Z</time></trkpt><trkpt lat="45.7837619" lon="12.8614105"><ele>3.0</ele><time>2026-05-02T06:51:10.818Z</time></trkpt><trkpt lat="45.7837493" lon="12.8609752"><ele>3.0</ele><time>2026-05-02T06:51:11.818Z</time></trkpt><trkpt lat="45.783737" lon="12.8605502"><ele>3.0</ele><time>2026-05-02T06:51:12.819Z</time></trkpt><trkpt lat="45.7837208" lon="12.8601232"><ele>3.0</ele><time>2026-05-02T06:51:13.819Z</time></trkpt><trkpt lat="45.7837069" lon="12.8596933"><ele>2.5</ele><time>2026-05-02T06:51:14.819Z</time></trkpt><trkpt lat="45.7836988" lon="12.8592636"><ele>2.0</ele><time>2026-05-02T06:51:15.818Z</time></trkpt><trkpt lat="45.7836898" lon="12.8588453"><ele>1.5</ele><time>2026-05-02T06:51:16.818Z</time></trkpt><trkpt lat="45.7836878" lon="12.8584436"><ele>1.0</ele><time>2026-05-02T06:51:17.818Z</time></trkpt><trkpt lat="45.7836897" lon="12.8580662"><ele>1.0</ele><time>2026-05-02T06:51:18.818Z</time></trkpt><trkpt lat="45.7837018" lon="12.8576897"><ele>1.0</ele><time>2026-05-02T06:51:19.818Z</time></trkpt><trkpt lat="45.7837174" lon="12.8573349"><ele>1.0</ele><time>2026-05-02T06:51:20.819Z</time></trkpt><trkpt lat="45.7837406" lon="12.8569984"><ele>1.0</ele><time>2026-05-02T06:51:21.819Z</time></trkpt><trkpt lat="45.7837702" lon="12.8566855"><ele>1.0</ele><time>2026-05-02T06:51:22.818Z</time></trkpt><trkpt lat="45.7838004" lon="12.8563907"><ele>1.0</ele><time>2026-05-02T06:51:23.818Z</time></trkpt><trkpt lat="45.7838365" lon="12.8560998"><ele>1.0</ele><time>2026-05-02T06:51:24.819Z</time></trkpt><trkpt lat="45.7838705" lon="12.8558232"><ele>1.6666666666666665</ele><time>2026-05-02T06:51:25.819Z</time></trkpt><trkpt lat="45.7839038" lon="12.855551"><ele>2.3333333333333335</ele><time>2026-05-02T06:51:26.818Z</time></trkpt><trkpt lat="45.7839372" lon="12.8552865"><ele>3.0</ele><time>2026-05-02T06:51:27.818Z</time></trkpt><trkpt lat="45.7839705" lon="12.855012"><ele>3.0</ele><time>2026-05-02T06:51:28.819Z</time></trkpt><trkpt lat="45.7839967" lon="12.8546988"><ele>3.0</ele><time>2026-05-02T06:51:29.819Z</time></trkpt><trkpt lat="45.7840338" lon="12.8543462"><ele>2.5</ele><time>2026-05-02T06:51:30.818Z</time></trkpt><trkpt lat="45.7840822" lon="12.8539592"><ele>2.0</ele><time>2026-05-02T06:51:31.818Z</time></trkpt><trkpt lat="45.7841409" lon="12.8535332"><ele>2.0</ele><time>2026-05-02T06:51:32.818Z</time></trkpt><trkpt lat="45.784212" lon="12.8530835"><ele>2.0</ele><time>2026-05-02T06:51:33.818Z</time></trkpt><trkpt lat="45.7842827" lon="12.8526109"><ele>1.5</ele><time>2026-05-02T06:51:34.819Z</time></trkpt><trkpt lat="45.7843508" lon="12.852129"><ele>1.0</ele><time>2026-05-02T06:51:35.818Z</time></trkpt><trkpt lat="45.7844138" lon="12.8516353"><ele>0.5</ele><time>2026-05-02T06:51:36.819Z</time></trkpt><trkpt lat="45.7844806" lon="12.8511291"><ele>0.0</ele><time>2026-05-02T06:51:37.819Z</time></trkpt><trkpt lat="45.7845504" lon="12.850611"><ele>1.0</ele><time>2026-05-02T06:51:38.819Z</time></trkpt><trkpt lat="45.784615" lon="12.8501029"><ele>2.0</ele><time>2026-05-02T06:51:39.819Z</time></trkpt><trkpt lat="45.7846822" lon="12.849594"><ele>1.0</ele><time>2026-05-02T06:51:40.818Z</time></trkpt><trkpt lat="45.7847462" lon="12.8490848"><ele>0.0</ele><time>2026-05-02T06:51:41.819Z</time></trkpt><trkpt lat="45.7848097" lon="12.8485781"><ele>0.0</ele><time>2026-05-02T06:51:42.818Z</time></trkpt><trkpt lat="45.7848708" lon="12.8480821"><ele>0.0</ele><time>2026-05-02T06:51:43.819Z</time></trkpt><trkpt lat="45.784932" lon="12.847591"><ele>0.5</ele><time>2026-05-02T06:51:44.818Z</time></trkpt><trkpt lat="45.7849962" lon="12.8471112"><ele>1.0</ele><time>2026-05-02T06:51:45.819Z</time></trkpt><trkpt lat="45.7850593" lon="12.8466373"><ele>1.0</ele><time>2026-05-02T06:51:46.819Z</time></trkpt><trkpt lat="45.7851225" lon="12.8461772"><ele>1.0</ele><time>2026-05-02T06:51:47.818Z</time></trkpt><trkpt lat="45.7851878" lon="12.8457313"><ele>1.0</ele><time>2026-05-02T06:51:48.818Z</time></trkpt><trkpt lat="45.7852565" lon="12.8452964"><ele>1.0</ele><time>2026-05-02T06:51:49.819Z</time></trkpt><trkpt lat="45.7853265" lon="12.8448798"><ele>0.5</ele><time>2026-05-02T06:51:50.818Z</time></trkpt><trkpt lat="45.7854" lon="12.8444691"><ele>0.0</ele><time>2026-05-02T06:51:51.819Z</time></trkpt><trkpt lat="45.7854792" lon="12.84406"><ele>0.0</ele><time>2026-05-02T06:51:52.819Z</time></trkpt><trkpt lat="45.7855623" lon="12.8436661"><ele>0.0</ele><time>2026-05-02T06:51:53.818Z</time></trkpt><trkpt lat="45.7856483" lon="12.8432727"><ele>0.0</ele><time>2026-05-02T06:51:54.819Z</time></trkpt><trkpt lat="45.7857359" lon="12.8428874"><ele>0.0</ele><time>2026-05-02T06:51:55.82Z</time></trkpt><trkpt lat="45.7858363" lon="12.8425043"><ele>0.5</ele><time>2026-05-02T06:51:56.82Z</time></trkpt><trkpt lat="45.7859396" lon="12.8421312"><ele>1.0</ele><time>2026-05-02T06:51:57.819Z</time></trkpt><trkpt lat="45.786046" lon="12.8417626"><ele>2.0</ele><time>2026-05-02T06:51:58.82Z</time></trkpt><trkpt lat="45.7861578" lon="12.8413886"><ele>3.0</ele><time>2026-05-02T06:51:59.819Z</time></trkpt><trkpt lat="45.786277" lon="12.8410267"><ele>3.0</ele><time>2026-05-02T06:52:00.819Z</time></trkpt><trkpt lat="45.7864012" lon="12.8406654"><ele>3.0</ele><time>2026-05-02T06:52:01.819Z</time></trkpt><trkpt lat="45.7865254" lon="12.8403113"><ele>3.5</ele><time>2026-05-02T06:52:02.82Z</time></trkpt><trkpt lat="45.7866481" lon="12.8399529"><ele>4.0</ele><time>2026-05-02T06:52:03.819Z</time></trkpt><trkpt lat="45.7867718" lon="12.8395846"><ele>4.5</ele><time>2026-05-02T06:52:04.82Z</time></trkpt><trkpt lat="45.7868913" lon="12.8392205"><ele>5.0</ele><time>2026-05-02T06:52:05.82Z</time></trkpt><trkpt lat="45.7870154" lon="12.8388548"><ele>5.0</ele><time>2026-05-02T06:52:06.819Z</time></trkpt><trkpt lat="45.7871302" lon="12.838476"><ele>5.0</ele><time>2026-05-02T06:52:07.82Z</time></trkpt><trkpt lat="45.7872484" lon="12.8381019"><ele>4.5</ele><time>2026-05-02T06:52:08.82Z</time></trkpt><trkpt lat="45.7873475" lon="12.8377229"><ele>4.0</ele><time>2026-05-02T06:52:09.82Z</time></trkpt><trkpt lat="45.7874426" lon="12.8373462"><ele>4.0</ele><time>2026-05-02T06:52:10.82Z</time></trkpt><trkpt lat="45.787527" lon="12.8369671"><ele>4.0</ele><time>2026-05-02T06:52:11.819Z</time></trkpt><trkpt lat="45.7876045" lon="12.8365832"><ele>3.5</ele><time>2026-05-02T06:52:12.82Z</time></trkpt><trkpt lat="45.787668" lon="12.8362052"><ele>3.0</ele><time>2026-05-02T06:52:13.819Z</time></trkpt><trkpt lat="45.7877234" lon="12.8358176"><ele>2.5</ele><time>2026-05-02T06:52:14.819Z</time></trkpt><trkpt lat="45.7877669" lon="12.8354375"><ele>2.0</ele><time>2026-05-02T06:52:15.819Z</time></trkpt><trkpt lat="45.7878026" lon="12.8350568"><ele>2.0</ele><time>2026-05-02T06:52:16.82Z</time></trkpt><trkpt lat="45.7878288" lon="12.8346753"><ele>2.0</ele><time>2026-05-02T06:52:17.82Z</time></trkpt><trkpt lat="45.7878506" lon="12.8342982"><ele>1.5</ele><time>2026-05-02T06:52:18.819Z</time></trkpt><trkpt lat="45.7878609" lon="12.8339247"><ele>1.0</ele><time>2026-05-02T06:52:19.819Z</time></trkpt><trkpt lat="45.7878579" lon="12.8335509"><ele>0.5</ele><time>2026-05-02T06:52:20.82Z</time></trkpt><trkpt lat="45.7878537" lon="12.8331811"><ele>0.0</ele><time>2026-05-02T06:52:21.819Z</time></trkpt><trkpt lat="45.7878342" lon="12.8327982"><ele>0.0</ele><time>2026-05-02T06:52:22.819Z</time></trkpt><trkpt lat="45.7878111" lon="12.8324178"><ele>0.0</ele><time>2026-05-02T06:52:23.819Z</time></trkpt><trkpt lat="45.7877805" lon="12.8320388"><ele>1.0</ele><time>2026-05-02T06:52:24.819Z</time></trkpt><trkpt lat="45.7877403" lon="12.8316589"><ele>2.0</ele><time>2026-05-02T06:52:25.819Z</time></trkpt><trkpt lat="45.7876882" lon="12.8312781"><ele>2.5</ele><time>2026-05-02T06:52:26.819Z</time></trkpt><trkpt lat="45.7876329" lon="12.8308941"><ele>3.0</ele><time>2026-05-02T06:52:27.82Z</time></trkpt><trkpt lat="45.7875734" lon="12.8305087"><ele>4.0</ele><time>2026-05-02T06:52:28.82Z</time></trkpt><trkpt lat="45.7875221" lon="12.8301165"><ele>5.0</ele><time>2026-05-02T06:52:29.819Z</time></trkpt><trkpt lat="45.7874642" lon="12.8297232"><ele>5.0</ele><time>2026-05-02T06:52:30.819Z</time></trkpt><trkpt lat="45.7874057" lon="12.8293283"><ele>5.0</ele><time>2026-05-02T06:52:31.82Z</time></trkpt><trkpt lat="45.7873525" lon="12.8289284"><ele>5.0</ele><time>2026-05-02T06:52:32.819Z</time></trkpt><trkpt lat="45.7872924" lon="12.8285278"><ele>5.0</ele><time>2026-05-02T06:52:33.82Z</time></trkpt><trkpt lat="45.7872391" lon="12.8281259"><ele>5.0</ele><time>2026-05-02T06:52:34.82Z</time></trkpt><trkpt lat="45.7871907" lon="12.827713"><ele>5.0</ele><time>2026-05-02T06:52:35.819Z</time></trkpt><trkpt lat="45.7871403" lon="12.8273004"><ele>5.5</ele><time>2026-05-02T06:52:36.82Z</time></trkpt><trkpt lat="45.7870884" lon="12.8268943"><ele>6.0</ele><time>2026-05-02T06:52:37.819Z</time></trkpt><trkpt lat="45.787034" lon="12.8264823"><ele>6.0</ele><time>2026-05-02T06:52:38.82Z</time></trkpt><trkpt lat="45.7869802" lon="12.8260779"><ele>6.0</ele><time>2026-05-02T06:52:39.82Z</time></trkpt><trkpt lat="45.7869242" lon="12.8256679"><ele>6.5</ele><time>2026-05-02T06:52:40.819Z</time></trkpt><trkpt lat="45.7868705" lon="12.8252644"><ele>7.0</ele><time>2026-05-02T06:52:41.819Z</time></trkpt><trkpt lat="45.7868134" lon="12.824854"><ele>5.5</ele><time>2026-05-02T06:52:42.819Z</time></trkpt><trkpt lat="45.7867588" lon="12.8244473"><ele>4.0</ele><time>2026-05-02T06:52:43.819Z</time></trkpt><trkpt lat="45.7867047" lon="12.8240422"><ele>3.5</ele><time>2026-05-02T06:52:44.819Z</time></trkpt><trkpt lat="45.7866487" lon="12.8236387"><ele>3.0</ele><time>2026-05-02T06:52:45.82Z</time></trkpt><trkpt lat="45.7865882" lon="12.8232341"><ele>3.0</ele><time>2026-05-02T06:52:46.82Z</time></trkpt><trkpt lat="45.786519" lon="12.8228354"><ele>3.0</ele><time>2026-05-02T06:52:47.82Z</time></trkpt><trkpt lat="45.7864412" lon="12.8224462"><ele>3.5</ele><time>2026-05-02T06:52:48.819Z</time></trkpt><trkpt lat="45.786353" lon="12.8220612"><ele>4.0</ele><time>2026-05-02T06:52:49.819Z</time></trkpt><trkpt lat="45.7862545" lon="12.8216831"><ele>4.5</ele><time>2026-05-02T06:52:50.819Z</time></trkpt><trkpt lat="45.7861551" lon="12.8213053"><ele>5.0</ele><time>2026-05-02T06:52:51.819Z</time></trkpt><trkpt lat="45.7860518" lon="12.8209401"><ele>4.0</ele><time>2026-05-02T06:52:52.819Z</time></trkpt><trkpt lat="45.7859399" lon="12.8205681"><ele>3.0</ele><time>2026-05-02T06:52:53.82Z</time></trkpt><trkpt lat="45.785825" lon="12.8202052"><ele>3.5</ele><time>2026-05-02T06:52:54.821Z</time></trkpt><trkpt lat="45.7856971" lon="12.8198503"><ele>4.0</ele><time>2026-05-02T06:52:55.819Z</time></trkpt><trkpt lat="45.7855625" lon="12.819502"><ele>4.0</ele><time>2026-05-02T06:52:56.82Z</time></trkpt><trkpt lat="45.7854209" lon="12.8191575"><ele>4.0</ele><time>2026-05-02T06:52:57.821Z</time></trkpt><trkpt lat="45.7852728" lon="12.8188248"><ele>4.5</ele><time>2026-05-02T06:52:58.821Z</time></trkpt><trkpt lat="45.785113" lon="12.8184978"><ele>5.0</ele><time>2026-05-02T06:52:59.82Z</time></trkpt><trkpt lat="45.7849482" lon="12.8181754"><ele>4.0</ele><time>2026-05-02T06:53:00.821Z</time></trkpt><trkpt lat="45.7847779" lon="12.8178637"><ele>3.0</ele><time>2026-05-02T06:53:01.821Z</time></trkpt><trkpt lat="45.7846095" lon="12.8175581"><ele>3.0</ele><time>2026-05-02T06:53:02.821Z</time></trkpt><trkpt lat="45.7844255" lon="12.8172582"><ele>3.0</ele><time>2026-05-02T06:53:03.82Z</time></trkpt><trkpt lat="45.7842395" lon="12.816967"><ele>3.0</ele><time>2026-05-02T06:53:04.821Z</time></trkpt><trkpt lat="45.7840502" lon="12.8166904"><ele>3.0</ele><time>2026-05-02T06:53:05.821Z</time></trkpt><trkpt lat="45.7838487" lon="12.8164201"><ele>3.0</ele><time>2026-05-02T06:53:06.82Z</time></trkpt><trkpt lat="45.7836473" lon="12.8161703"><ele>3.0</ele><time>2026-05-02T06:53:07.82Z</time></trkpt><trkpt lat="45.7834402" lon="12.8159333"><ele>2.5</ele><time>2026-05-02T06:53:08.821Z</time></trkpt><trkpt lat="45.7832316" lon="12.8157102"><ele>2.0</ele><time>2026-05-02T06:53:09.821Z</time></trkpt><trkpt lat="45.7830244" lon="12.8155001"><ele>2.0</ele><time>2026-05-02T06:53:10.82Z</time></trkpt><trkpt lat="45.7828153" lon="12.8152853"><ele>2.0</ele><time>2026-05-02T06:53:11.82Z</time></trkpt><trkpt lat="45.7826165" lon="12.8150744"><ele>3.0</ele><time>2026-05-02T06:53:12.82Z</time></trkpt><trkpt lat="45.7824167" lon="12.8148728"><ele>4.0</ele><time>2026-05-02T06:53:13.821Z</time></trkpt><trkpt lat="45.7822017" lon="12.814681"><ele>4.0</ele><time>2026-05-02T06:53:14.82Z</time></trkpt><trkpt lat="45.7819788" lon="12.814513"><ele>4.0</ele><time>2026-05-02T06:53:15.82Z</time></trkpt><trkpt lat="45.7817431" lon="12.8143612"><ele>3.0</ele><time>2026-05-02T06:53:16.821Z</time></trkpt><trkpt lat="45.7815087" lon="12.8142157"><ele>2.0</ele><time>2026-05-02T06:53:17.82Z</time></trkpt><trkpt lat="45.7812864" lon="12.8140875"><ele>2.0</ele><time>2026-05-02T06:53:18.82Z</time></trkpt><trkpt lat="45.7810766" lon="12.8139758"><ele>2.0</ele><time>2026-05-02T06:53:19.82Z</time></trkpt><trkpt lat="45.7808799" lon="12.813877"><ele>2.0</ele><time>2026-05-02T06:53:20.821Z</time></trkpt><trkpt lat="45.7806941" lon="12.8137871"><ele>2.333333333333333</ele><time>2026-05-02T06:53:21.82Z</time></trkpt><trkpt lat="45.7805203" lon="12.8137106"><ele>2.6666666666666665</ele><time>2026-05-02T06:53:22.821Z</time></trkpt><trkpt lat="45.780357" lon="12.8136301"><ele>3.0</ele><time>2026-05-02T06:53:23.821Z</time></trkpt><trkpt lat="45.7802265" lon="12.8135303"><ele>2.75</ele><time>2026-05-02T06:53:24.821Z</time></trkpt><trkpt lat="45.7801227" lon="12.8133915"><ele>2.5</ele><time>2026-05-02T06:53:25.82Z</time></trkpt><trkpt lat="45.7800614" lon="12.8132165"><ele>2.25</ele><time>2026-05-02T06:53:26.821Z</time></trkpt><trkpt lat="45.7800269" lon="12.8130033"><ele>2.0</ele><time>2026-05-02T06:53:27.821Z</time></trkpt><trkpt lat="45.7799793" lon="12.8127764"><ele>2.0</ele><time>2026-05-02T06:53:28.82Z</time></trkpt><trkpt lat="45.7798961" lon="12.8125716"><ele>2.0</ele><time>2026-05-02T06:53:29.821Z</time></trkpt><trkpt lat="45.7797856" lon="12.81239"><ele>2.0</ele><time>2026-05-02T06:53:30.82Z</time></trkpt><trkpt lat="45.7796706" lon="12.8122045"><ele>2.0</ele><time>2026-05-02T06:53:31.821Z</time></trkpt><trkpt lat="45.7795834" lon="12.8119867"><ele>2.0</ele><time>2026-05-02T06:53:32.821Z</time></trkpt><trkpt lat="45.7795322" lon="12.811745"><ele>2.0</ele><time>2026-05-02T06:53:33.82Z</time></trkpt><trkpt lat="45.7795319" lon="12.811486"><ele>2.0</ele><time>2026-05-02T06:53:34.82Z</time></trkpt><trkpt lat="45.7795681" lon="12.8112016"><ele>2.0</ele><time>2026-05-02T06:53:35.82Z</time></trkpt><trkpt lat="45.7796105" lon="12.8108889"><ele>2.0</ele><time>2026-05-02T06:53:36.821Z</time></trkpt><trkpt lat="45.7796395" lon="12.8105582"><ele>2.0</ele><time>2026-05-02T06:53:37.82Z</time></trkpt><trkpt lat="45.7796728" lon="12.8102064"><ele>2.0</ele><time>2026-05-02T06:53:38.82Z</time></trkpt><trkpt lat="45.779712" lon="12.8098389"><ele>1.5</ele><time>2026-05-02T06:53:39.82Z</time></trkpt><trkpt lat="45.7797557" lon="12.8094619"><ele>1.0</ele><time>2026-05-02T06:53:40.82Z</time></trkpt><trkpt lat="45.7797965" lon="12.8090839"><ele>1.0</ele><time>2026-05-02T06:53:41.821Z</time></trkpt><trkpt lat="45.7798355" lon="12.8086989"><ele>1.0</ele><time>2026-05-02T06:53:42.82Z</time></trkpt><trkpt lat="45.7798756" lon="12.8082993"><ele>1.0</ele><time>2026-05-02T06:53:43.82Z</time></trkpt><trkpt lat="45.7799194" lon="12.8079017"><ele>1.0</ele><time>2026-05-02T06:53:44.821Z</time></trkpt><trkpt lat="45.7799567" lon="12.8075004"><ele>1.0</ele><time>2026-05-02T06:53:45.821Z</time></trkpt><trkpt lat="45.7799931" lon="12.8070989"><ele>1.0</ele><time>2026-05-02T06:53:46.821Z</time></trkpt><trkpt lat="45.7800382" lon="12.8066893"><ele>1.0</ele><time>2026-05-02T06:53:47.82Z</time></trkpt><trkpt lat="45.7800782" lon="12.8062797"><ele>1.0</ele><time>2026-05-02T06:53:48.821Z</time></trkpt><trkpt lat="45.7801227" lon="12.8058692"><ele>2.0</ele><time>2026-05-02T06:53:49.821Z</time></trkpt><trkpt lat="45.7801681" lon="12.8054572"><ele>3.0</ele><time>2026-05-02T06:53:50.82Z</time></trkpt><trkpt lat="45.7802156" lon="12.8050421"><ele>1.0</ele><time>2026-05-02T06:53:51.82Z</time></trkpt><trkpt lat="45.7802618" lon="12.8046396"><ele>-1.0</ele><time>2026-05-02T06:53:52.82Z</time></trkpt><trkpt lat="45.7803036" lon="12.8042346"><ele>-1.0</ele><time>2026-05-02T06:53:53.821Z</time></trkpt><trkpt lat="45.7803435" lon="12.8038565"><ele>-1.0</ele><time>2026-05-02T06:53:54.821Z</time></trkpt><trkpt lat="45.7803842" lon="12.8035004"><ele>0.0</ele><time>2026-05-02T06:53:55.821Z</time></trkpt><trkpt lat="45.7804168" lon="12.8031661"><ele>1.0</ele><time>2026-05-02T06:53:56.821Z</time></trkpt><trkpt lat="45.7804499" lon="12.8028356"><ele>0.5</ele><time>2026-05-02T06:53:57.821Z</time></trkpt><trkpt lat="45.7804862" lon="12.8025137"><ele>0.0</ele><time>2026-05-02T06:53:58.821Z</time></trkpt><trkpt lat="45.7805218" lon="12.8021982"><ele>0.0</ele><time>2026-05-02T06:53:59.822Z</time></trkpt><trkpt lat="45.7805576" lon="12.8018886"><ele>0.0</ele><time>2026-05-02T06:54:00.821Z</time></trkpt><trkpt lat="45.7805888" lon="12.8015899"><ele>0.0</ele><time>2026-05-02T06:54:01.821Z</time></trkpt><trkpt lat="45.7806171" lon="12.8013109"><ele>0.3333333333333333</ele><time>2026-05-02T06:54:02.822Z</time></trkpt><trkpt lat="45.7806459" lon="12.8010485"><ele>0.6666666666666666</ele><time>2026-05-02T06:54:03.821Z</time></trkpt><trkpt lat="45.7806715" lon="12.8008055"><ele>1.0</ele><time>2026-05-02T06:54:04.821Z</time></trkpt><trkpt lat="45.7806968" lon="12.80058"><ele>1.5</ele><time>2026-05-02T06:54:05.822Z</time></trkpt><trkpt lat="45.7807198" lon="12.8003708"><ele>2.0</ele><time>2026-05-02T06:54:06.822Z</time></trkpt><trkpt lat="45.780738" lon="12.8001808"><ele>2.5</ele><time>2026-05-02T06:54:07.822Z</time></trkpt><trkpt lat="45.7807544" lon="12.8000026"><ele>3.0</ele><time>2026-05-02T06:54:08.822Z</time></trkpt><trkpt lat="45.7807694" lon="12.7998398"><ele>3.4</ele><time>2026-05-02T06:54:09.822Z</time></trkpt><trkpt lat="45.780791" lon="12.7996892"><ele>3.8</ele><time>2026-05-02T06:54:10.822Z</time></trkpt><trkpt lat="45.7808083" lon="12.799544"><ele>4.2</ele><time>2026-05-02T06:54:11.821Z</time></trkpt><trkpt lat="45.7808225" lon="12.7994014"><ele>4.6</ele><time>2026-05-02T06:54:12.821Z</time></trkpt><trkpt lat="45.7808378" lon="12.7992546"><ele>5.0</ele><time>2026-05-02T06:54:13.821Z</time></trkpt><trkpt lat="45.7808526" lon="12.7991082"><ele>5.0</ele><time>2026-05-02T06:54:14.822Z</time></trkpt><trkpt lat="45.7808661" lon="12.7989719"><ele>5.0</ele><time>2026-05-02T06:54:15.821Z</time></trkpt><trkpt lat="45.7808827" lon="12.7988377"><ele>5.0</ele><time>2026-05-02T06:54:16.821Z</time></trkpt><trkpt lat="45.7809011" lon="12.7986897"><ele>5.0</ele><time>2026-05-02T06:54:17.821Z</time></trkpt><trkpt lat="45.7809192" lon="12.7985247"><ele>5.0</ele><time>2026-05-02T06:54:18.822Z</time></trkpt><trkpt lat="45.7809335" lon="12.7983491"><ele>4.75</ele><time>2026-05-02T06:54:19.822Z</time></trkpt><trkpt lat="45.7809489" lon="12.7981586"><ele>4.5</ele><time>2026-05-02T06:54:20.822Z</time></trkpt><trkpt lat="45.7809614" lon="12.7979576"><ele>4.25</ele><time>2026-05-02T06:54:21.821Z</time></trkpt><trkpt lat="45.780982" lon="12.7977606"><ele>4.0</ele><time>2026-05-02T06:54:22.822Z</time></trkpt><trkpt lat="45.7810027" lon="12.7975566"><ele>4.25</ele><time>2026-05-02T06:54:23.821Z</time></trkpt><trkpt lat="45.7810231" lon="12.797355"><ele>4.5</ele><time>2026-05-02T06:54:24.821Z</time></trkpt><trkpt lat="45.7810448" lon="12.79715"><ele>4.75</ele><time>2026-05-02T06:54:25.822Z</time></trkpt><trkpt lat="45.7810704" lon="12.7969312"><ele>5.0</ele><time>2026-05-02T06:54:26.821Z</time></trkpt><trkpt lat="45.7810905" lon="12.7966923"><ele>5.0</ele><time>2026-05-02T06:54:27.821Z</time></trkpt><trkpt lat="45.7811121" lon="12.7964277"><ele>5.0</ele><time>2026-05-02T06:54:28.822Z</time></trkpt><trkpt lat="45.7811385" lon="12.7961421"><ele>5.0</ele><time>2026-05-02T06:54:29.821Z</time></trkpt><trkpt lat="45.7811684" lon="12.7958417"><ele>5.5</ele><time>2026-05-02T06:54:30.822Z</time></trkpt><trkpt lat="45.7812055" lon="12.7955269"><ele>6.0</ele><time>2026-05-02T06:54:31.822Z</time></trkpt><trkpt lat="45.7812453" lon="12.7952033"><ele>5.5</ele><time>2026-05-02T06:54:32.821Z</time></trkpt><trkpt lat="45.7812872" lon="12.7948672"><ele>5.0</ele><time>2026-05-02T06:54:33.821Z</time></trkpt><trkpt lat="45.7813353" lon="12.7945345"><ele>4.5</ele><time>2026-05-02T06:54:34.822Z</time></trkpt><trkpt lat="45.7813841" lon="12.7941917"><ele>4.0</ele><time>2026-05-02T06:54:35.822Z</time></trkpt><trkpt lat="45.7814365" lon="12.7938495"><ele>3.5</ele><time>2026-05-02T06:54:36.821Z</time></trkpt><trkpt lat="45.7814899" lon="12.793505"><ele>3.0</ele><time>2026-05-02T06:54:37.822Z</time></trkpt><trkpt lat="45.7815427" lon="12.7931604"><ele>3.0</ele><time>2026-05-02T06:54:38.821Z</time></trkpt><trkpt lat="45.7815943" lon="12.7928163"><ele>3.0</ele><time>2026-05-02T06:54:39.821Z</time></trkpt><trkpt lat="45.7816481" lon="12.7924741"><ele>3.5</ele><time>2026-05-02T06:54:40.822Z</time></trkpt><trkpt lat="45.7817031" lon="12.7921354"><ele>4.0</ele><time>2026-05-02T06:54:41.821Z</time></trkpt><trkpt lat="45.7817619" lon="12.791801"><ele>4.0</ele><time>2026-05-02T06:54:42.822Z</time></trkpt><trkpt lat="45.7818152" lon="12.7914866"><ele>4.0</ele><time>2026-05-02T06:54:43.822Z</time></trkpt><trkpt lat="45.7818672" lon="12.7911764"><ele>4.0</ele><time>2026-05-02T06:54:44.822Z</time></trkpt><trkpt lat="45.7819177" lon="12.7908731"><ele>5.0</ele><time>2026-05-02T06:54:45.821Z</time></trkpt><trkpt lat="45.7819729" lon="12.7905725"><ele>6.0</ele><time>2026-05-02T06:54:46.821Z</time></trkpt><trkpt lat="45.7820237" lon="12.7902762"><ele>7.0</ele><time>2026-05-02T06:54:47.821Z</time></trkpt><trkpt lat="45.7820762" lon="12.7899809"><ele>7.5</ele><time>2026-05-02T06:54:48.822Z</time></trkpt><trkpt lat="45.7821182" lon="12.7896692"><ele>8.0</ele><time>2026-05-02T06:54:49.822Z</time></trkpt><trkpt lat="45.7821673" lon="12.7893429"><ele>5.5</ele><time>2026-05-02T06:54:50.821Z</time></trkpt><trkpt lat="45.7822185" lon="12.7890067"><ele>3.0</ele><time>2026-05-02T06:54:51.821Z</time></trkpt><trkpt lat="45.78228" lon="12.788667"><ele>3.5</ele><time>2026-05-02T06:54:52.822Z</time></trkpt><trkpt lat="45.7823438" lon="12.7883222"><ele>4.0</ele><time>2026-05-02T06:54:53.821Z</time></trkpt><trkpt lat="45.7824101" lon="12.7879651"><ele>4.0</ele><time>2026-05-02T06:54:54.821Z</time></trkpt><trkpt lat="45.7824714" lon="12.7875997"><ele>4.0</ele><time>2026-05-02T06:54:55.821Z</time></trkpt><trkpt lat="45.7825287" lon="12.7872315"><ele>4.0</ele><time>2026-05-02T06:54:56.821Z</time></trkpt><trkpt lat="45.7825868" lon="12.7868648"><ele>4.0</ele><time>2026-05-02T06:54:57.823Z</time></trkpt><trkpt lat="45.7826446" lon="12.7864998"><ele>3.5</ele><time>2026-05-02T06:54:58.823Z</time></trkpt><trkpt lat="45.7827035" lon="12.7861323"><ele>3.0</ele><time>2026-05-02T06:54:59.823Z</time></trkpt><trkpt lat="45.7827588" lon="12.7857574"><ele>3.0</ele><time>2026-05-02T06:55:00.822Z</time></trkpt><trkpt lat="45.7828214" lon="12.7853836"><ele>3.0</ele><time>2026-05-02T06:55:01.823Z</time></trkpt><trkpt lat="45.7828839" lon="12.7850189"><ele>3.5</ele><time>2026-05-02T06:55:02.822Z</time></trkpt><trkpt lat="45.7829421" lon="12.7846557"><ele>4.0</ele><time>2026-05-02T06:55:03.823Z</time></trkpt><trkpt lat="45.7830041" lon="12.7842924"><ele>4.0</ele><time>2026-05-02T06:55:04.822Z</time></trkpt><trkpt lat="45.7830609" lon="12.7839336"><ele>4.0</ele><time>2026-05-02T06:55:05.822Z</time></trkpt><trkpt lat="45.7831177" lon="12.783576"><ele>4.5</ele><time>2026-05-02T06:55:06.823Z</time></trkpt><trkpt lat="45.7831665" lon="12.7832385"><ele>5.0</ele><time>2026-05-02T06:55:07.822Z</time></trkpt><trkpt lat="45.7832254" lon="12.7828885"><ele>4.5</ele><time>2026-05-02T06:55:08.823Z</time></trkpt><trkpt lat="45.7832781" lon="12.7825351"><ele>4.0</ele><time>2026-05-02T06:55:09.822Z</time></trkpt><trkpt lat="45.7833361" lon="12.7821824"><ele>4.0</ele><time>2026-05-02T06:55:10.822Z</time></trkpt><trkpt lat="45.7833981" lon="12.7818212"><ele>4.0</ele><time>2026-05-02T06:55:11.823Z</time></trkpt><trkpt lat="45.7834658" lon="12.7814602"><ele>4.0</ele><time>2026-05-02T06:55:12.823Z</time></trkpt><trkpt lat="45.7835351" lon="12.781093"><ele>4.0</ele><time>2026-05-02T06:55:13.823Z</time></trkpt><trkpt lat="45.7836016" lon="12.7807265"><ele>4.0</ele><time>2026-05-02T06:55:14.822Z</time></trkpt><trkpt lat="45.7836667" lon="12.7803438"><ele>4.0</ele><time>2026-05-02T06:55:15.822Z</time></trkpt><trkpt lat="45.7837292" lon="12.7799635"><ele>4.0</ele><time>2026-05-02T06:55:16.823Z</time></trkpt><trkpt lat="45.783794" lon="12.7795816"><ele>4.0</ele><time>2026-05-02T06:55:17.823Z</time></trkpt><trkpt lat="45.783855" lon="12.7791973"><ele>3.5</ele><time>2026-05-02T06:55:18.823Z</time></trkpt><trkpt lat="45.7839198" lon="12.7788128"><ele>3.0</ele><time>2026-05-02T06:55:19.823Z</time></trkpt><trkpt lat="45.7839861" lon="12.7784337"><ele>3.0</ele><time>2026-05-02T06:55:20.822Z</time></trkpt><trkpt lat="45.7840477" lon="12.7780492"><ele>3.0</ele><time>2026-05-02T06:55:21.822Z</time></trkpt><trkpt lat="45.7841102" lon="12.7776721"><ele>3.0</ele><time>2026-05-02T06:55:22.822Z</time></trkpt><trkpt lat="45.7841717" lon="12.7772998"><ele>3.0</ele><time>2026-05-02T06:55:23.823Z</time></trkpt><trkpt lat="45.7842323" lon="12.7769268"><ele>3.5</ele><time>2026-05-02T06:55:24.822Z</time></trkpt><trkpt lat="45.7842924" lon="12.7765517"><ele>4.0</ele><time>2026-05-02T06:55:25.823Z</time></trkpt><trkpt lat="45.7843501" lon="12.7761857"><ele>4.5</ele><time>2026-05-02T06:55:26.822Z</time></trkpt><trkpt lat="45.7844099" lon="12.7758238"><ele>5.0</ele><time>2026-05-02T06:55:27.823Z</time></trkpt><trkpt lat="45.7844686" lon="12.7754624"><ele>5.0</ele><time>2026-05-02T06:55:28.822Z</time></trkpt><trkpt lat="45.7845328" lon="12.7751036"><ele>5.0</ele><time>2026-05-02T06:55:29.822Z</time></trkpt><trkpt lat="45.7845929" lon="12.7747456"><ele>5.0</ele><time>2026-05-02T06:55:30.822Z</time></trkpt><trkpt lat="45.7846471" lon="12.7743866"><ele>5.0</ele><time>2026-05-02T06:55:31.823Z</time></trkpt><trkpt lat="45.7847055" lon="12.7740332"><ele>5.0</ele><time>2026-05-02T06:55:32.823Z</time></trkpt><trkpt lat="45.7847606" lon="12.7736849"><ele>5.0</ele><time>2026-05-02T06:55:33.823Z</time></trkpt><trkpt lat="45.7848053" lon="12.7733327"><ele>4.0</ele><time>2026-05-02T06:55:34.823Z</time></trkpt><trkpt lat="45.7848447" lon="12.7729739"><ele>3.0</ele><time>2026-05-02T06:55:35.822Z</time></trkpt><trkpt lat="45.7848773" lon="12.7726124"><ele>2.0</ele><time>2026-05-02T06:55:36.823Z</time></trkpt><trkpt lat="45.7849035" lon="12.772244"><ele>1.0</ele><time>2026-05-02T06:55:37.822Z</time></trkpt><trkpt lat="45.7849237" lon="12.7718799"><ele>2.0</ele><time>2026-05-02T06:55:38.823Z</time></trkpt><trkpt lat="45.7849433" lon="12.7715064"><ele>3.0</ele><time>2026-05-02T06:55:39.823Z</time></trkpt><trkpt lat="45.7849604" lon="12.771136"><ele>4.0</ele><time>2026-05-02T06:55:40.823Z</time></trkpt><trkpt lat="45.7849852" lon="12.7707671"><ele>5.0</ele><time>2026-05-02T06:55:41.823Z</time></trkpt><trkpt lat="45.7850057" lon="12.7704028"><ele>5.0</ele><time>2026-05-02T06:55:42.822Z</time></trkpt><trkpt lat="45.7850229" lon="12.7700387"><ele>5.0</ele><time>2026-05-02T06:55:43.822Z</time></trkpt><trkpt lat="45.7850398" lon="12.7696733"><ele>5.0</ele><time>2026-05-02T06:55:44.823Z</time></trkpt><trkpt lat="45.7850595" lon="12.7693149"><ele>5.0</ele><time>2026-05-02T06:55:45.822Z</time></trkpt><trkpt lat="45.7850836" lon="12.7689615"><ele>5.0</ele><time>2026-05-02T06:55:46.822Z</time></trkpt><trkpt lat="45.7851019" lon="12.7686019"><ele>5.0</ele><time>2026-05-02T06:55:47.822Z</time></trkpt><trkpt lat="45.7851219" lon="12.7682446"><ele>5.0</ele><time>2026-05-02T06:55:48.823Z</time></trkpt><trkpt lat="45.7851421" lon="12.7678952"><ele>5.0</ele><time>2026-05-02T06:55:49.822Z</time></trkpt><trkpt lat="45.7851585" lon="12.7675445"><ele>4.5</ele><time>2026-05-02T06:55:50.824Z</time></trkpt><trkpt lat="45.7851769" lon="12.7671925"><ele>4.0</ele><time>2026-05-02T06:55:51.823Z</time></trkpt><trkpt lat="45.785198" lon="12.7668485"><ele>3.5</ele><time>2026-05-02T06:55:52.823Z</time></trkpt><trkpt lat="45.7852152" lon="12.7664992"><ele>3.0</ele><time>2026-05-02T06:55:53.822Z</time></trkpt><trkpt lat="45.7852349" lon="12.7661513"><ele>2.0</ele><time>2026-05-02T06:55:54.823Z</time></trkpt><trkpt lat="45.7852503" lon="12.7658018"><ele>1.0</ele><time>2026-05-02T06:55:55.822Z</time></trkpt><trkpt lat="45.78527" lon="12.765452"><ele>0.5</ele><time>2026-05-02T06:55:56.822Z</time></trkpt><trkpt lat="45.7852937" lon="12.7650941"><ele>0.0</ele><time>2026-05-02T06:55:57.824Z</time></trkpt><trkpt lat="45.7853088" lon="12.7647425"><ele>0.0</ele><time>2026-05-02T06:55:58.824Z</time></trkpt><trkpt lat="45.7853263" lon="12.7643931"><ele>0.0</ele><time>2026-05-02T06:55:59.823Z</time></trkpt><trkpt lat="45.7853464" lon="12.7640461"><ele>0.5</ele><time>2026-05-02T06:56:00.824Z</time></trkpt><trkpt lat="45.7853689" lon="12.7636963"><ele>1.0</ele><time>2026-05-02T06:56:01.824Z</time></trkpt><trkpt lat="45.7853882" lon="12.7633498"><ele>1.0</ele><time>2026-05-02T06:56:02.824Z</time></trkpt><trkpt lat="45.7854071" lon="12.7629933"><ele>1.0</ele><time>2026-05-02T06:56:03.824Z</time></trkpt><trkpt lat="45.785427" lon="12.7626411"><ele>-0.5</ele><time>2026-05-02T06:56:04.823Z</time></trkpt><trkpt lat="45.7854426" lon="12.7622892"><ele>-2.0</ele><time>2026-05-02T06:56:05.823Z</time></trkpt><trkpt lat="45.7854619" lon="12.7619495"><ele>-1.0</ele><time>2026-05-02T06:56:06.824Z</time></trkpt><trkpt lat="45.7854783" lon="12.7616219"><ele>0.0</ele><time>2026-05-02T06:56:07.824Z</time></trkpt><trkpt lat="45.7854955" lon="12.7613146"><ele>1.0</ele><time>2026-05-02T06:56:08.823Z</time></trkpt><trkpt lat="45.7855128" lon="12.7610228"><ele>1.3333333333333333</ele><time>2026-05-02T06:56:09.824Z</time></trkpt><trkpt lat="45.7855317" lon="12.760746"><ele>1.6666666666666665</ele><time>2026-05-02T06:56:10.824Z</time></trkpt><trkpt lat="45.7855504" lon="12.7604947"><ele>2.0</ele><time>2026-05-02T06:56:11.824Z</time></trkpt><trkpt lat="45.7855725" lon="12.7602587"><ele>2.5</ele><time>2026-05-02T06:56:12.824Z</time></trkpt><trkpt lat="45.7855993" lon="12.7600442"><ele>3.0</ele><time>2026-05-02T06:56:13.824Z</time></trkpt><trkpt lat="45.7856362" lon="12.7598462"><ele>3.5</ele><time>2026-05-02T06:56:14.824Z</time></trkpt><trkpt lat="45.7856885" lon="12.7596638"><ele>4.0</ele><time>2026-05-02T06:56:15.823Z</time></trkpt><trkpt lat="45.7857613" lon="12.7595174"><ele>4.0</ele><time>2026-05-02T06:56:16.823Z</time></trkpt><trkpt lat="45.7858472" lon="12.7594023"><ele>4.0</ele><time>2026-05-02T06:56:17.824Z</time></trkpt><trkpt lat="45.7859323" lon="12.7592989"><ele>4.0</ele><time>2026-05-02T06:56:18.824Z</time></trkpt><trkpt lat="45.78599" lon="12.7591786"><ele>4.0</ele><time>2026-05-02T06:56:19.824Z</time></trkpt><trkpt lat="45.7859892" lon="12.7590365"><ele>4.0</ele><time>2026-05-02T06:56:20.823Z</time></trkpt><trkpt lat="45.7859643" lon="12.7588681"><ele>4.0</ele><time>2026-05-02T06:56:21.824Z</time></trkpt><trkpt lat="45.7859618" lon="12.7586768"><ele>4.0</ele><time>2026-05-02T06:56:22.823Z</time></trkpt><trkpt lat="45.7860046" lon="12.7584671"><ele>4.0</ele><time>2026-05-02T06:56:23.824Z</time></trkpt><trkpt lat="45.7860718" lon="12.7582222"><ele>4.0</ele><time>2026-05-02T06:56:24.823Z</time></trkpt><trkpt lat="45.786145" lon="12.7579616"><ele>4.0</ele><time>2026-05-02T06:56:25.824Z</time></trkpt><trkpt lat="45.7862264" lon="12.7576857"><ele>4.0</ele><time>2026-05-02T06:56:26.824Z</time></trkpt><trkpt lat="45.7863185" lon="12.7573908"><ele>4.0</ele><time>2026-05-02T06:56:27.823Z</time></trkpt><trkpt lat="45.7864146" lon="12.7570876"><ele>4.0</ele><time>2026-05-02T06:56:28.824Z</time></trkpt><trkpt lat="45.7865125" lon="12.7567647"><ele>5.0</ele><time>2026-05-02T06:56:29.823Z</time></trkpt><trkpt lat="45.7866142" lon="12.7564318"><ele>6.0</ele><time>2026-05-02T06:56:30.824Z</time></trkpt><trkpt lat="45.7867176" lon="12.756094"><ele>5.5</ele><time>2026-05-02T06:56:31.823Z</time></trkpt><trkpt lat="45.7868264" lon="12.7557464"><ele>5.0</ele><time>2026-05-02T06:56:32.823Z</time></trkpt><trkpt lat="45.7869354" lon="12.7553973"><ele>5.0</ele><time>2026-05-02T06:56:33.824Z</time></trkpt><trkpt lat="45.7870456" lon="12.7550397"><ele>5.0</ele><time>2026-05-02T06:56:34.823Z</time></trkpt><trkpt lat="45.7871535" lon="12.7546801"><ele>4.0</ele><time>2026-05-02T06:56:35.824Z</time></trkpt><trkpt lat="45.7872656" lon="12.7543252"><ele>3.0</ele><time>2026-05-02T06:56:36.824Z</time></trkpt><trkpt lat="45.787375" lon="12.7539809"><ele>3.0</ele><time>2026-05-02T06:56:37.823Z</time></trkpt><trkpt lat="45.787482" lon="12.7536422"><ele>3.0</ele><time>2026-05-02T06:56:38.823Z</time></trkpt><trkpt lat="45.7875815" lon="12.7533244"><ele>3.0</ele><time>2026-05-02T06:56:39.824Z</time></trkpt><trkpt lat="45.7876754" lon="12.7530244"><ele>3.0</ele><time>2026-05-02T06:56:40.824Z</time></trkpt><trkpt lat="45.787772" lon="12.7527266"><ele>4.666666666666666</ele><time>2026-05-02T06:56:41.824Z</time></trkpt><trkpt lat="45.7878651" lon="12.7524438"><ele>6.333333333333333</ele><time>2026-05-02T06:56:42.824Z</time></trkpt><trkpt lat="45.7879573" lon="12.7521644"><ele>8.0</ele><time>2026-05-02T06:56:43.824Z</time></trkpt><trkpt lat="45.7880443" lon="12.7518906"><ele>7.666666666666666</ele><time>2026-05-02T06:56:44.824Z</time></trkpt><trkpt lat="45.7881303" lon="12.7516234"><ele>7.333333333333334</ele><time>2026-05-02T06:56:45.824Z</time></trkpt><trkpt lat="45.7882175" lon="12.7513622"><ele>7.0</ele><time>2026-05-02T06:56:46.823Z</time></trkpt><trkpt lat="45.7882989" lon="12.7511027"><ele>7.333333333333334</ele><time>2026-05-02T06:56:47.824Z</time></trkpt><trkpt lat="45.7883806" lon="12.7508405"><ele>7.666666666666666</ele><time>2026-05-02T06:56:48.823Z</time></trkpt><trkpt lat="45.7884653" lon="12.750579"><ele>8.0</ele><time>2026-05-02T06:56:49.824Z</time></trkpt><trkpt lat="45.7885471" lon="12.7503148"><ele>7.666666666666666</ele><time>2026-05-02T06:56:50.824Z</time></trkpt><trkpt lat="45.7886285" lon="12.7500755"><ele>7.333333333333334</ele><time>2026-05-02T06:56:51.824Z</time></trkpt><trkpt lat="45.7887082" lon="12.7498276"><ele>7.0</ele><time>2026-05-02T06:56:52.823Z</time></trkpt><trkpt lat="45.788789" lon="12.7495593"><ele>6.0</ele><time>2026-05-02T06:56:53.824Z</time></trkpt><trkpt lat="45.7888764" lon="12.7492853"><ele>5.0</ele><time>2026-05-02T06:56:54.825Z</time></trkpt><trkpt lat="45.7889677" lon="12.7490082"><ele>4.0</ele><time>2026-05-02T06:56:55.824Z</time></trkpt><trkpt lat="45.7890596" lon="12.7487339"><ele>3.6666666666666665</ele><time>2026-05-02T06:56:56.824Z</time></trkpt><trkpt lat="45.7891511" lon="12.7484569"><ele>3.333333333333333</ele><time>2026-05-02T06:56:57.824Z</time></trkpt><trkpt lat="45.7892375" lon="12.7481747"><ele>3.0</ele><time>2026-05-02T06:56:58.824Z</time></trkpt><trkpt lat="45.7893291" lon="12.7478921"><ele>3.333333333333333</ele><time>2026-05-02T06:56:59.825Z</time></trkpt><trkpt lat="45.7894173" lon="12.7476144"><ele>3.6666666666666665</ele><time>2026-05-02T06:57:00.824Z</time></trkpt><trkpt lat="45.7895086" lon="12.747331"><ele>4.0</ele><time>2026-05-02T06:57:01.825Z</time></trkpt><trkpt lat="45.7896029" lon="12.7470579"><ele>4.666666666666666</ele><time>2026-05-02T06:57:02.825Z</time></trkpt><trkpt lat="45.7896896" lon="12.7467729"><ele>5.333333333333333</ele><time>2026-05-02T06:57:03.824Z</time></trkpt><trkpt lat="45.7897777" lon="12.746498"><ele>6.0</ele><time>2026-05-02T06:57:04.824Z</time></trkpt><trkpt lat="45.789864" lon="12.7462218"><ele>5.333333333333333</ele><time>2026-05-02T06:57:05.824Z</time></trkpt><trkpt lat="45.7899494" lon="12.7459442"><ele>4.666666666666666</ele><time>2026-05-02T06:57:06.824Z</time></trkpt><trkpt lat="45.790041" lon="12.7456708"><ele>4.0</ele><time>2026-05-02T06:57:07.825Z</time></trkpt><trkpt lat="45.7901296" lon="12.7453934"><ele>4.0</ele><time>2026-05-02T06:57:08.824Z</time></trkpt><trkpt lat="45.7902163" lon="12.7451195"><ele>4.0</ele><time>2026-05-02T06:57:09.825Z</time></trkpt><trkpt lat="45.7903094" lon="12.744842"><ele>4.0</ele><time>2026-05-02T06:57:10.825Z</time></trkpt><trkpt lat="45.7903977" lon="12.7445627"><ele>4.0</ele><time>2026-05-02T06:57:11.825Z</time></trkpt><trkpt lat="45.7904899" lon="12.7442838"><ele>4.0</ele><time>2026-05-02T06:57:12.824Z</time></trkpt><trkpt lat="45.7905819" lon="12.744004"><ele>4.0</ele><time>2026-05-02T06:57:13.825Z</time></trkpt><trkpt lat="45.7906721" lon="12.7437208"><ele>4.0</ele><time>2026-05-02T06:57:14.825Z</time></trkpt><trkpt lat="45.7907664" lon="12.7434348"><ele>4.0</ele><time>2026-05-02T06:57:15.824Z</time></trkpt><trkpt lat="45.7908541" lon="12.7431492"><ele>4.0</ele><time>2026-05-02T06:57:16.824Z</time></trkpt><trkpt lat="45.7909453" lon="12.7428602"><ele>3.333333333333333</ele><time>2026-05-02T06:57:17.824Z</time></trkpt><trkpt lat="45.7910398" lon="12.7425691"><ele>2.6666666666666665</ele><time>2026-05-02T06:57:18.825Z</time></trkpt><trkpt lat="45.7911347" lon="12.7422779"><ele>2.0</ele><time>2026-05-02T06:57:19.824Z</time></trkpt><trkpt lat="45.7912286" lon="12.7419853"><ele>2.0</ele><time>2026-05-02T06:57:20.825Z</time></trkpt><trkpt lat="45.791327" lon="12.7416867"><ele>2.0</ele><time>2026-05-02T06:57:21.824Z</time></trkpt><trkpt lat="45.7914252" lon="12.7413856"><ele>2.0</ele><time>2026-05-02T06:57:22.825Z</time></trkpt><trkpt lat="45.7915259" lon="12.7410664"><ele>2.0</ele><time>2026-05-02T06:57:23.825Z</time></trkpt><trkpt lat="45.7916299" lon="12.7407261"><ele>1.5</ele><time>2026-05-02T06:57:24.824Z</time></trkpt><trkpt lat="45.7917382" lon="12.7403681"><ele>1.0</ele><time>2026-05-02T06:57:25.825Z</time></trkpt><trkpt lat="45.7918544" lon="12.7400019"><ele>2.5</ele><time>2026-05-02T06:57:26.824Z</time></trkpt><trkpt lat="45.7919777" lon="12.7396226"><ele>4.0</ele><time>2026-05-02T06:57:27.824Z</time></trkpt><trkpt lat="45.7921041" lon="12.7392368"><ele>4.0</ele><time>2026-05-02T06:57:28.825Z</time></trkpt><trkpt lat="45.7922348" lon="12.7388397"><ele>4.0</ele><time>2026-05-02T06:57:29.825Z</time></trkpt><trkpt lat="45.7923707" lon="12.7384454"><ele>3.5</ele><time>2026-05-02T06:57:30.824Z</time></trkpt><trkpt lat="45.7925076" lon="12.7380485"><ele>3.0</ele><time>2026-05-02T06:57:31.825Z</time></trkpt><trkpt lat="45.7926407" lon="12.7376595"><ele>3.5</ele><time>2026-05-02T06:57:32.825Z</time></trkpt><trkpt lat="45.7927602" lon="12.73728"><ele>4.0</ele><time>2026-05-02T06:57:33.824Z</time></trkpt><trkpt lat="45.7928828" lon="12.7369104"><ele>4.5</ele><time>2026-05-02T06:57:34.824Z</time></trkpt><trkpt lat="45.7930043" lon="12.7365528"><ele>5.0</ele><time>2026-05-02T06:57:35.824Z</time></trkpt><trkpt lat="45.7931248" lon="12.7362011"><ele>4.5</ele><time>2026-05-02T06:57:36.825Z</time></trkpt><trkpt lat="45.793258" lon="12.7358667"><ele>4.0</ele><time>2026-05-02T06:57:37.824Z</time></trkpt><trkpt lat="45.7934016" lon="12.7355431"><ele>3.5</ele><time>2026-05-02T06:57:38.825Z</time></trkpt><trkpt lat="45.7935543" lon="12.7352363"><ele>3.0</ele><time>2026-05-02T06:57:39.824Z</time></trkpt><trkpt lat="45.7937179" lon="12.7349429"><ele>3.0</ele><time>2026-05-02T06:57:40.824Z</time></trkpt><trkpt lat="45.7938934" lon="12.7346737"><ele>3.0</ele><time>2026-05-02T06:57:41.825Z</time></trkpt><trkpt lat="45.7940797" lon="12.7344158"><ele>4.5</ele><time>2026-05-02T06:57:42.825Z</time></trkpt><trkpt lat="45.7942782" lon="12.734183"><ele>6.0</ele><time>2026-05-02T06:57:43.824Z</time></trkpt><trkpt lat="45.794484" lon="12.7339642"><ele>6.0</ele><time>2026-05-02T06:57:44.824Z</time></trkpt><trkpt lat="45.7947005" lon="12.7337645"><ele>6.0</ele><time>2026-05-02T06:57:45.825Z</time></trkpt><trkpt lat="45.7949186" lon="12.7335769"><ele>6.0</ele><time>2026-05-02T06:57:46.825Z</time></trkpt><trkpt lat="45.7951378" lon="12.7334"><ele>6.0</ele><time>2026-05-02T06:57:47.825Z</time></trkpt><trkpt lat="45.7953571" lon="12.7332241"><ele>6.0</ele><time>2026-05-02T06:57:48.825Z</time></trkpt><trkpt lat="45.7955724" lon="12.7330458"><ele>6.0</ele><time>2026-05-02T06:57:49.825Z</time></trkpt><trkpt lat="45.7957935" lon="12.7328681"><ele>6.0</ele><time>2026-05-02T06:57:50.825Z</time></trkpt><trkpt lat="45.7960128" lon="12.7326892"><ele>6.0</ele><time>2026-05-02T06:57:51.824Z</time></trkpt><trkpt lat="45.7962224" lon="12.7325129"><ele>6.0</ele><time>2026-05-02T06:57:52.824Z</time></trkpt><trkpt lat="45.7964145" lon="12.7323434"><ele>6.0</ele><time>2026-05-02T06:57:53.825Z</time></trkpt><trkpt lat="45.7965936" lon="12.7321813"><ele>6.0</ele><time>2026-05-02T06:57:54.824Z</time></trkpt><trkpt lat="45.7967692" lon="12.7320235"><ele>6.0</ele><time>2026-05-02T06:57:55.825Z</time></trkpt><trkpt lat="45.796941" lon="12.7318717"><ele>6.0</ele><time>2026-05-02T06:57:56.826Z</time></trkpt><trkpt lat="45.797107" lon="12.7317214"><ele>6.0</ele><time>2026-05-02T06:57:57.826Z</time></trkpt><trkpt lat="45.7972647" lon="12.7315898"><ele>6.0</ele><time>2026-05-02T06:57:58.826Z</time></trkpt><trkpt lat="45.7974265" lon="12.7314596"><ele>6.0</ele><time>2026-05-02T06:57:59.825Z</time></trkpt><trkpt lat="45.79758" lon="12.7313228"><ele>6.0</ele><time>2026-05-02T06:58:00.826Z</time></trkpt><trkpt lat="45.7977315" lon="12.731182"><ele>6.0</ele><time>2026-05-02T06:58:01.826Z</time></trkpt><trkpt lat="45.7978903" lon="12.7310496"><ele>6.0</ele><time>2026-05-02T06:58:02.826Z</time></trkpt><trkpt lat="45.7980447" lon="12.7309247"><ele>6.0</ele><time>2026-05-02T06:58:03.826Z</time></trkpt><trkpt lat="45.7981976" lon="12.7307915"><ele>6.0</ele><time>2026-05-02T06:58:04.825Z</time></trkpt><trkpt lat="45.7983461" lon="12.7306657"><ele>6.0</ele><time>2026-05-02T06:58:05.825Z</time></trkpt><trkpt lat="45.7984948" lon="12.7305245"><ele>6.0</ele><time>2026-05-02T06:58:06.826Z</time></trkpt><trkpt lat="45.7986282" lon="12.7303771"><ele>6.0</ele><time>2026-05-02T06:58:07.825Z</time></trkpt><trkpt lat="45.7987654" lon="12.7302156"><ele>6.0</ele><time>2026-05-02T06:58:08.825Z</time></trkpt><trkpt lat="45.7989039" lon="12.7300474"><ele>6.0</ele><time>2026-05-02T06:58:09.825Z</time></trkpt><trkpt lat="45.799042" lon="12.7298555"><ele>6.0</ele><time>2026-05-02T06:58:10.825Z</time></trkpt><trkpt lat="45.7991998" lon="12.7296475"><ele>6.0</ele><time>2026-05-02T06:58:11.826Z</time></trkpt><trkpt lat="45.7993753" lon="12.7294314"><ele>6.0</ele><time>2026-05-02T06:58:12.825Z</time></trkpt><trkpt lat="45.7995638" lon="12.7292041"><ele>4.5</ele><time>2026-05-02T06:58:13.825Z</time></trkpt><trkpt lat="45.7997487" lon="12.7289616"><ele>3.0</ele><time>2026-05-02T06:58:14.825Z</time></trkpt><trkpt lat="45.7999354" lon="12.7287213"><ele>4.5</ele><time>2026-05-02T06:58:15.825Z</time></trkpt><trkpt lat="45.8001201" lon="12.7284797"><ele>6.0</ele><time>2026-05-02T06:58:16.826Z</time></trkpt><trkpt lat="45.8003024" lon="12.7282551"><ele>6.0</ele><time>2026-05-02T06:58:17.826Z</time></trkpt><trkpt lat="45.8004797" lon="12.7280269"><ele>6.0</ele><time>2026-05-02T06:58:18.825Z</time></trkpt><trkpt lat="45.8006461" lon="12.7277884"><ele>5.5</ele><time>2026-05-02T06:58:19.826Z</time></trkpt><trkpt lat="45.8008104" lon="12.7275629"><ele>5.0</ele><time>2026-05-02T06:58:20.826Z</time></trkpt><trkpt lat="45.8009805" lon="12.7273509"><ele>5.0</ele><time>2026-05-02T06:58:21.826Z</time></trkpt><trkpt lat="45.8011414" lon="12.7271472"><ele>5.0</ele><time>2026-05-02T06:58:22.825Z</time></trkpt><trkpt lat="45.8012978" lon="12.726943"><ele>5.0</ele><time>2026-05-02T06:58:23.825Z</time></trkpt><trkpt lat="45.8014432" lon="12.7267541"><ele>5.0</ele><time>2026-05-02T06:58:24.826Z</time></trkpt><trkpt lat="45.8015825" lon="12.7265758"><ele>5.0</ele><time>2026-05-02T06:58:25.826Z</time></trkpt><trkpt lat="45.8017146" lon="12.7264056"><ele>5.0</ele><time>2026-05-02T06:58:26.825Z</time></trkpt><trkpt lat="45.8018438" lon="12.7262333"><ele>5.0</ele><time>2026-05-02T06:58:27.826Z</time></trkpt><trkpt lat="45.8019737" lon="12.726054"><ele>5.0</ele><time>2026-05-02T06:58:28.825Z</time></trkpt><trkpt lat="45.8021054" lon="12.7258887"><ele>5.0</ele><time>2026-05-02T06:58:29.826Z</time></trkpt><trkpt lat="45.8022258" lon="12.7257233"><ele>5.0</ele><time>2026-05-02T06:58:30.825Z</time></trkpt><trkpt lat="45.802338" lon="12.7255686"><ele>5.0</ele><time>2026-05-02T06:58:31.825Z</time></trkpt><trkpt lat="45.802451" lon="12.7254088"><ele>5.0</ele><time>2026-05-02T06:58:32.825Z</time></trkpt><trkpt lat="45.8025725" lon="12.7252557"><ele>5.0</ele><time>2026-05-02T06:58:33.825Z</time></trkpt><trkpt lat="45.8026938" lon="12.725098"><ele>5.0</ele><time>2026-05-02T06:58:34.826Z</time></trkpt><trkpt lat="45.802815" lon="12.7249421"><ele>5.0</ele><time>2026-05-02T06:58:35.825Z</time></trkpt><trkpt lat="45.802932" lon="12.7247819"><ele>5.0</ele><time>2026-05-02T06:58:36.825Z</time></trkpt><trkpt lat="45.8030516" lon="12.7246289"><ele>5.0</ele><time>2026-05-02T06:58:37.826Z</time></trkpt><trkpt lat="45.8031703" lon="12.7244702"><ele>5.0</ele><time>2026-05-02T06:58:38.825Z</time></trkpt><trkpt lat="45.8032976" lon="12.7243312"><ele>5.666666666666667</ele><time>2026-05-02T06:58:39.825Z</time></trkpt><trkpt lat="45.8034304" lon="12.7242043"><ele>6.333333333333334</ele><time>2026-05-02T06:58:40.825Z</time></trkpt><trkpt lat="45.8035668" lon="12.7240975"><ele>7.0</ele><time>2026-05-02T06:58:41.826Z</time></trkpt><trkpt lat="45.80371" lon="12.7239804"><ele>7.0</ele><time>2026-05-02T06:58:42.826Z</time></trkpt><trkpt lat="45.8038527" lon="12.7238717"><ele>7.0</ele><time>2026-05-02T06:58:43.825Z</time></trkpt><trkpt lat="45.8039818" lon="12.7237747"><ele>7.0</ele><time>2026-05-02T06:58:44.825Z</time></trkpt><trkpt lat="45.8041022" lon="12.7236828"><ele>7.0</ele><time>2026-05-02T06:58:45.825Z</time></trkpt><trkpt lat="45.8042053" lon="12.7236017"><ele>7.0</ele><time>2026-05-02T06:58:46.825Z</time></trkpt><trkpt lat="45.8042967" lon="12.7235291"><ele>6.999999999999999</ele><time>2026-05-02T06:58:47.825Z</time></trkpt><trkpt lat="45.804376" lon="12.7234713"><ele>6.999999999999999</ele><time>2026-05-02T06:58:48.826Z</time></trkpt><trkpt lat="45.8044615" lon="12.7234303"><ele>7.0</ele><time>2026-05-02T06:58:49.826Z</time></trkpt><trkpt lat="45.8045492" lon="12.7234164"><ele>7.0</ele><time>2026-05-02T06:58:50.826Z</time></trkpt><trkpt lat="45.8046293" lon="12.7233992"><ele>6.6</ele><time>2026-05-02T06:58:51.826Z</time></trkpt><trkpt lat="45.8047008" lon="12.7233578"><ele>6.199999999999999</ele><time>2026-05-02T06:58:52.826Z</time></trkpt><trkpt lat="45.8047564" lon="12.7232669"><ele>5.8</ele><time>2026-05-02T06:58:53.825Z</time></trkpt><trkpt lat="45.8047987" lon="12.7231423"><ele>5.4</ele><time>2026-05-02T06:58:54.825Z</time></trkpt><trkpt lat="45.8048403" lon="12.7230031"><ele>5.0</ele><time>2026-05-02T06:58:55.826Z</time></trkpt><trkpt lat="45.8048904" lon="12.7228707"><ele>5.0</ele><time>2026-05-02T06:58:56.826Z</time></trkpt><trkpt lat="45.8049371" lon="12.7227522"><ele>5.0</ele><time>2026-05-02T06:58:57.826Z</time></trkpt><trkpt lat="45.8049553" lon="12.7226471"><ele>5.0</ele><time>2026-05-02T06:58:58.827Z</time></trkpt><trkpt lat="45.8049439" lon="12.722536"><ele>5.0</ele><time>2026-05-02T06:58:59.826Z</time></trkpt><trkpt lat="45.8049057" lon="12.7224358"><ele>5.0</ele><time>2026-05-02T06:59:00.827Z</time></trkpt><trkpt lat="45.8048432" lon="12.7223507"><ele>5.0</ele><time>2026-05-02T06:59:01.827Z</time></trkpt><trkpt lat="45.8047846" lon="12.722243"><ele>5.4</ele><time>2026-05-02T06:59:02.826Z</time></trkpt><trkpt lat="45.8047472" lon="12.7221045"><ele>5.8</ele><time>2026-05-02T06:59:03.826Z</time></trkpt><trkpt lat="45.8047318" lon="12.7219628"><ele>6.199999999999999</ele><time>2026-05-02T06:59:04.826Z</time></trkpt><trkpt lat="45.8047153" lon="12.7218354"><ele>6.6</ele><time>2026-05-02T06:59:05.827Z</time></trkpt><trkpt lat="45.8047064" lon="12.7217087"><ele>7.0</ele><time>2026-05-02T06:59:06.827Z</time></trkpt><trkpt lat="45.8047009" lon="12.7215821"><ele>7.000000000000001</ele><time>2026-05-02T06:59:07.826Z</time></trkpt><trkpt lat="45.8046963" lon="12.7214568"><ele>7.0</ele><time>2026-05-02T06:59:08.826Z</time></trkpt><trkpt lat="45.8046901" lon="12.7213458"><ele>7.0</ele><time>2026-05-02T06:59:09.827Z</time></trkpt><trkpt lat="45.804708" lon="12.7212511"><ele>7.0</ele><time>2026-05-02T06:59:10.827Z</time></trkpt><trkpt lat="45.8047936" lon="12.7211611"><ele>7.000000000000001</ele><time>2026-05-02T06:59:12.826Z</time></trkpt><trkpt lat="45.8048934" lon="12.7212008"><ele>7.0</ele><time>2026-05-02T06:59:14.827Z</time></trkpt><trkpt lat="45.805003" lon="12.721199"><ele>7.000000000000001</ele><time>2026-05-02T06:59:16.827Z</time></trkpt><trkpt lat="45.8050726" lon="12.7211181"><ele>7.0</ele><time>2026-05-02T06:59:18.826Z</time></trkpt><trkpt lat="45.8050246" lon="12.7210192"><ele>7.0</ele><time>2026-05-02T06:59:20.827Z</time></trkpt><trkpt lat="45.8049291" lon="12.7210421"><ele>7.0</ele><time>2026-05-02T06:59:22.826Z</time></trkpt><trkpt lat="45.8048522" lon="12.7210035"><ele>7.000000000000001</ele><time>2026-05-02T06:59:24.827Z</time></trkpt><trkpt lat="45.8047947" lon="12.721049"><ele>7.0</ele><time>2026-05-02T07:13:19.841Z</time></trkpt><trkpt lat="45.8047386" lon="12.7211003"><ele>7.000000000000001</ele><time>2026-05-02T07:13:24.841Z</time></trkpt><trkpt lat="45.8046876" lon="12.7210202"><ele>7.0</ele><time>2026-05-02T07:13:26.84Z</time></trkpt><trkpt lat="45.8046799" lon="12.7209298"><ele>7.0</ele><time>2026-05-02T07:13:27.84Z</time></trkpt><trkpt lat="45.8046746" lon="12.7208165"><ele>7.0</ele><time>2026-05-02T07:13:28.841Z</time></trkpt><trkpt lat="45.8046667" lon="12.7206886"><ele>7.000000000000001</ele><time>2026-05-02T07:13:29.84Z</time></trkpt><trkpt lat="45.804656" lon="12.7205392"><ele>7.0</ele><time>2026-05-02T07:13:30.84Z</time></trkpt><trkpt lat="45.804644" lon="12.720381"><ele>7.25</ele><time>2026-05-02T07:13:31.841Z</time></trkpt><trkpt lat="45.8046309" lon="12.720197"><ele>7.5</ele><time>2026-05-02T07:13:32.841Z</time></trkpt><trkpt lat="45.8046182" lon="12.7200025"><ele>7.75</ele><time>2026-05-02T07:13:33.841Z</time></trkpt><trkpt lat="45.8046063" lon="12.7198001"><ele>8.0</ele><time>2026-05-02T07:13:34.841Z</time></trkpt><trkpt lat="45.8045947" lon="12.7195957"><ele>7.75</ele><time>2026-05-02T07:13:35.841Z</time></trkpt><trkpt lat="45.8045825" lon="12.7193875"><ele>7.5</ele><time>2026-05-02T07:13:36.841Z</time></trkpt><trkpt lat="45.8045702" lon="12.7191787"><ele>7.25</ele><time>2026-05-02T07:13:37.841Z</time></trkpt><trkpt lat="45.8045589" lon="12.7189847"><ele>7.0</ele><time>2026-05-02T07:13:38.841Z</time></trkpt><trkpt lat="45.8045484" lon="12.718809"><ele>7.0</ele><time>2026-05-02T07:13:39.841Z</time></trkpt><trkpt lat="45.8045381" lon="12.7186376"><ele>7.0</ele><time>2026-05-02T07:13:40.841Z</time></trkpt><trkpt lat="45.8045227" lon="12.7184651"><ele>7.0</ele><time>2026-05-02T07:13:41.841Z</time></trkpt><trkpt lat="45.804504" lon="12.7182843"><ele>7.0</ele><time>2026-05-02T07:13:42.841Z</time></trkpt><trkpt lat="45.8044981" lon="12.7180923"><ele>7.25</ele><time>2026-05-02T07:13:43.84Z</time></trkpt><trkpt lat="45.8044888" lon="12.717891"><ele>7.5</ele><time>2026-05-02T07:13:44.84Z</time></trkpt><trkpt lat="45.8044746" lon="12.7176833"><ele>7.75</ele><time>2026-05-02T07:13:45.84Z</time></trkpt><trkpt lat="45.80446" lon="12.717476"><ele>8.0</ele><time>2026-05-02T07:13:46.841Z</time></trkpt><trkpt lat="45.8044465" lon="12.7172731"><ele>6.666666666666666</ele><time>2026-05-02T07:13:47.841Z</time></trkpt><trkpt lat="45.8044332" lon="12.7170646"><ele>5.333333333333333</ele><time>2026-05-02T07:13:48.84Z</time></trkpt><trkpt lat="45.8044198" lon="12.7168524"><ele>4.0</ele><time>2026-05-02T07:13:49.84Z</time></trkpt><trkpt lat="45.8044051" lon="12.7166302"><ele>3.6666666666666665</ele><time>2026-05-02T07:13:50.84Z</time></trkpt><trkpt lat="45.8043916" lon="12.7163963"><ele>3.333333333333333</ele><time>2026-05-02T07:13:51.841Z</time></trkpt><trkpt lat="45.8043792" lon="12.7161571"><ele>3.0</ele><time>2026-05-02T07:13:52.841Z</time></trkpt><trkpt lat="45.8043646" lon="12.7159261"><ele>3.666666666666667</ele><time>2026-05-02T07:13:53.841Z</time></trkpt><trkpt lat="45.8043505" lon="12.7157037"><ele>4.333333333333334</ele><time>2026-05-02T07:13:54.84Z</time></trkpt><trkpt lat="45.8043389" lon="12.7154858"><ele>5.0</ele><time>2026-05-02T07:13:55.841Z</time></trkpt><trkpt lat="45.804325" lon="12.7152694"><ele>6.0</ele><time>2026-05-02T07:13:56.84Z</time></trkpt><trkpt lat="45.8043089" lon="12.7150484"><ele>7.0</ele><time>2026-05-02T07:13:57.84Z</time></trkpt><trkpt lat="45.8042943" lon="12.7148229"><ele>8.0</ele><time>2026-05-02T07:13:58.841Z</time></trkpt><trkpt lat="45.8042809" lon="12.7145992"><ele>7.666666666666666</ele><time>2026-05-02T07:13:59.84Z</time></trkpt><trkpt lat="45.8042627" lon="12.7143779"><ele>7.333333333333334</ele><time>2026-05-02T07:14:00.841Z</time></trkpt><trkpt lat="45.8042421" lon="12.714166"><ele>7.0</ele><time>2026-05-02T07:14:01.84Z</time></trkpt><trkpt lat="45.8041939" lon="12.713957"><ele>7.0</ele><time>2026-05-02T07:14:02.841Z</time></trkpt><trkpt lat="45.804131" lon="12.7137543"><ele>7.0</ele><time>2026-05-02T07:14:03.84Z</time></trkpt><trkpt lat="45.8040526" lon="12.7135505"><ele>7.0</ele><time>2026-05-02T07:14:04.841Z</time></trkpt><trkpt lat="45.8039634" lon="12.7133432"><ele>6.666666666666667</ele><time>2026-05-02T07:14:05.841Z</time></trkpt><trkpt lat="45.8038671" lon="12.7131301"><ele>6.333333333333334</ele><time>2026-05-02T07:14:06.84Z</time></trkpt><trkpt lat="45.8037698" lon="12.7129153"><ele>6.0</ele><time>2026-05-02T07:14:07.841Z</time></trkpt><trkpt lat="45.8036721" lon="12.712702"><ele>5.666666666666667</ele><time>2026-05-02T07:14:08.84Z</time></trkpt><trkpt lat="45.8035732" lon="12.7124901"><ele>5.333333333333334</ele><time>2026-05-02T07:14:09.84Z</time></trkpt><trkpt lat="45.8034717" lon="12.7122774"><ele>5.0</ele><time>2026-05-02T07:14:10.841Z</time></trkpt><trkpt lat="45.8033685" lon="12.7120602"><ele>5.333333333333334</ele><time>2026-05-02T07:14:11.841Z</time></trkpt><trkpt lat="45.8032677" lon="12.7118348"><ele>5.666666666666667</ele><time>2026-05-02T07:14:12.84Z</time></trkpt><trkpt lat="45.8031676" lon="12.7116106"><ele>6.0</ele><time>2026-05-02T07:14:13.84Z</time></trkpt><trkpt lat="45.8030631" lon="12.7113937"><ele>6.0</ele><time>2026-05-02T07:14:14.842Z</time></trkpt><trkpt lat="45.8029631" lon="12.7111797"><ele>6.0</ele><time>2026-05-02T07:14:15.842Z</time></trkpt><trkpt lat="45.8028664" lon="12.7109701"><ele>6.0</ele><time>2026-05-02T07:14:16.842Z</time></trkpt><trkpt lat="45.8027669" lon="12.7107625"><ele>5.666666666666667</ele><time>2026-05-02T07:14:17.841Z</time></trkpt><trkpt lat="45.8026723" lon="12.7105596"><ele>5.333333333333334</ele><time>2026-05-02T07:14:18.841Z</time></trkpt><trkpt lat="45.8025755" lon="12.7103532"><ele>5.0</ele><time>2026-05-02T07:14:19.842Z</time></trkpt><trkpt lat="45.8024828" lon="12.7101461"><ele>5.0</ele><time>2026-05-02T07:14:20.842Z</time></trkpt><trkpt lat="45.8023839" lon="12.7099364"><ele>5.0</ele><time>2026-05-02T07:14:21.841Z</time></trkpt><trkpt lat="45.8022827" lon="12.7097303"><ele>5.0</ele><time>2026-05-02T07:14:22.841Z</time></trkpt><trkpt lat="45.8021854" lon="12.7095227"><ele>5.666666666666667</ele><time>2026-05-02T07:14:23.842Z</time></trkpt><trkpt lat="45.8020916" lon="12.7093162"><ele>6.333333333333334</ele><time>2026-05-02T07:14:24.842Z</time></trkpt><trkpt lat="45.8019998" lon="12.7091078"><ele>7.0</ele><time>2026-05-02T07:14:25.842Z</time></trkpt><trkpt lat="45.8019007" lon="12.708898"><ele>7.0</ele><time>2026-05-02T07:14:26.841Z</time></trkpt><trkpt lat="45.8017962" lon="12.7086716"><ele>7.0</ele><time>2026-05-02T07:14:27.842Z</time></trkpt><trkpt lat="45.8016915" lon="12.7084469"><ele>7.0</ele><time>2026-05-02T07:14:28.841Z</time></trkpt><trkpt lat="45.8015843" lon="12.7082163"><ele>7.0</ele><time>2026-05-02T07:14:29.841Z</time></trkpt><trkpt lat="45.8014741" lon="12.7079879"><ele>7.0</ele><time>2026-05-02T07:14:30.842Z</time></trkpt><trkpt lat="45.8013691" lon="12.7077606"><ele>7.0</ele><time>2026-05-02T07:14:31.841Z</time></trkpt><trkpt lat="45.8012664" lon="12.7075292"><ele>7.0</ele><time>2026-05-02T07:14:32.841Z</time></trkpt><trkpt lat="45.8011635" lon="12.7073127"><ele>7.0</ele><time>2026-05-02T07:14:33.842Z</time></trkpt><trkpt lat="45.8010591" lon="12.7070875"><ele>7.0</ele><time>2026-05-02T07:14:34.841Z</time></trkpt><trkpt lat="45.8009556" lon="12.7068664"><ele>7.0</ele><time>2026-05-02T07:14:35.841Z</time></trkpt><trkpt lat="45.800855" lon="12.70665"><ele>7.0</ele><time>2026-05-02T07:14:36.841Z</time></trkpt><trkpt lat="45.8007553" lon="12.7064301"><ele>7.0</ele><time>2026-05-02T07:14:37.841Z</time></trkpt><trkpt lat="45.8006519" lon="12.7062077"><ele>6.666666666666667</ele><time>2026-05-02T07:14:38.841Z</time></trkpt><trkpt lat="45.8005515" lon="12.7059903"><ele>6.333333333333334</ele><time>2026-05-02T07:14:39.841Z</time></trkpt><trkpt lat="45.8004519" lon="12.7057694"><ele>6.0</ele><time>2026-05-02T07:14:40.842Z</time></trkpt><trkpt lat="45.8003476" lon="12.7055466"><ele>6.0</ele><time>2026-05-02T07:14:41.841Z</time></trkpt><trkpt lat="45.8002437" lon="12.7053263"><ele>6.0</ele><time>2026-05-02T07:14:42.841Z</time></trkpt><trkpt lat="45.8001513" lon="12.7051181"><ele>6.0</ele><time>2026-05-02T07:14:43.841Z</time></trkpt><trkpt lat="45.8000635" lon="12.7049247"><ele>6.0</ele><time>2026-05-02T07:14:44.842Z</time></trkpt><trkpt lat="45.7999709" lon="12.7047284"><ele>6.0</ele><time>2026-05-02T07:14:45.842Z</time></trkpt><trkpt lat="45.7998821" lon="12.7045347"><ele>6.0</ele><time>2026-05-02T07:14:46.842Z</time></trkpt><trkpt lat="45.799785" lon="12.7043333"><ele>6.0</ele><time>2026-05-02T07:14:47.842Z</time></trkpt><trkpt lat="45.7996915" lon="12.7041326"><ele>6.0</ele><time>2026-05-02T07:14:48.841Z</time></trkpt><trkpt lat="45.7995997" lon="12.7039329"><ele>6.0</ele><time>2026-05-02T07:14:49.841Z</time></trkpt><trkpt lat="45.7995105" lon="12.7037365"><ele>5.666666666666667</ele><time>2026-05-02T07:14:50.841Z</time></trkpt><trkpt lat="45.799422" lon="12.7035367"><ele>5.333333333333334</ele><time>2026-05-02T07:14:51.841Z</time></trkpt><trkpt lat="45.7993305" lon="12.7033428"><ele>5.0</ele><time>2026-05-02T07:14:52.841Z</time></trkpt><trkpt lat="45.799238" lon="12.7031453"><ele>4.666666666666667</ele><time>2026-05-02T07:14:53.842Z</time></trkpt><trkpt lat="45.799151" lon="12.7029528"><ele>4.333333333333333</ele><time>2026-05-02T07:14:54.842Z</time></trkpt><trkpt lat="45.7990593" lon="12.7027595"><ele>4.0</ele><time>2026-05-02T07:14:55.841Z</time></trkpt><trkpt lat="45.7989674" lon="12.7025629"><ele>4.0</ele><time>2026-05-02T07:14:56.841Z</time></trkpt><trkpt lat="45.7988756" lon="12.702371"><ele>4.0</ele><time>2026-05-02T07:14:57.842Z</time></trkpt><trkpt lat="45.798787" lon="12.7021763"><ele>4.0</ele><time>2026-05-02T07:14:58.841Z</time></trkpt><trkpt lat="45.7987008" lon="12.701984"><ele>4.333333333333333</ele><time>2026-05-02T07:14:59.841Z</time></trkpt><trkpt lat="45.7986128" lon="12.7017892"><ele>4.666666666666667</ele><time>2026-05-02T07:15:00.841Z</time></trkpt><trkpt lat="45.7985261" lon="12.701603"><ele>5.0</ele><time>2026-05-02T07:15:01.842Z</time></trkpt><trkpt lat="45.7984367" lon="12.7014184"><ele>5.0</ele><time>2026-05-02T07:15:02.842Z</time></trkpt><trkpt lat="45.7983463" lon="12.7012225"><ele>5.0</ele><time>2026-05-02T07:15:03.842Z</time></trkpt><trkpt lat="45.7982567" lon="12.7010327"><ele>5.0</ele><time>2026-05-02T07:15:04.841Z</time></trkpt><trkpt lat="45.7981672" lon="12.7008387"><ele>5.0</ele><time>2026-05-02T07:15:05.841Z</time></trkpt><trkpt lat="45.7980759" lon="12.7006435"><ele>5.0</ele><time>2026-05-02T07:15:06.842Z</time></trkpt><trkpt lat="45.7979883" lon="12.7004408"><ele>5.0</ele><time>2026-05-02T07:15:07.841Z</time></trkpt><trkpt lat="45.7978945" lon="12.7002389"><ele>5.333333333333334</ele><time>2026-05-02T07:15:08.842Z</time></trkpt><trkpt lat="45.7978025" lon="12.7000348"><ele>5.666666666666667</ele><time>2026-05-02T07:15:09.842Z</time></trkpt><trkpt lat="45.7977135" lon="12.6998489"><ele>6.0</ele><time>2026-05-02T07:15:10.841Z</time></trkpt><trkpt lat="45.7976325" lon="12.6996726"><ele>6.25</ele><time>2026-05-02T07:15:11.842Z</time></trkpt><trkpt lat="45.7975497" lon="12.6995005"><ele>6.5</ele><time>2026-05-02T07:15:12.841Z</time></trkpt><trkpt lat="45.7974707" lon="12.6993343"><ele>6.75</ele><time>2026-05-02T07:15:13.843Z</time></trkpt><trkpt lat="45.7974003" lon="12.6991758"><ele>7.0</ele><time>2026-05-02T07:15:14.842Z</time></trkpt><trkpt lat="45.7973253" lon="12.6990202"><ele>7.25</ele><time>2026-05-02T07:15:15.841Z</time></trkpt><trkpt lat="45.7972475" lon="12.6988555"><ele>7.5</ele><time>2026-05-02T07:15:16.841Z</time></trkpt><trkpt lat="45.7971743" lon="12.6986849"><ele>7.75</ele><time>2026-05-02T07:15:17.842Z</time></trkpt><trkpt lat="45.797104" lon="12.6985276"><ele>8.0</ele><time>2026-05-02T07:15:18.843Z</time></trkpt><trkpt lat="45.7970366" lon="12.6983937"><ele>8.4</ele><time>2026-05-02T07:15:19.843Z</time></trkpt><trkpt lat="45.7969753" lon="12.6982652"><ele>8.8</ele><time>2026-05-02T07:15:20.842Z</time></trkpt><trkpt lat="45.7969248" lon="12.6981527"><ele>9.2</ele><time>2026-05-02T07:15:21.842Z</time></trkpt><trkpt lat="45.7968835" lon="12.698035"><ele>9.6</ele><time>2026-05-02T07:15:22.842Z</time></trkpt><trkpt lat="45.7968554" lon="12.6979132"><ele>10.0</ele><time>2026-05-02T07:15:23.843Z</time></trkpt><trkpt lat="45.7968604" lon="12.6977822"><ele>9.6</ele><time>2026-05-02T07:15:24.842Z</time></trkpt><trkpt lat="45.7968632" lon="12.6976612"><ele>9.2</ele><time>2026-05-02T07:15:25.842Z</time></trkpt><trkpt lat="45.7968485" lon="12.69754"><ele>8.8</ele><time>2026-05-02T07:15:26.842Z</time></trkpt><trkpt lat="45.7968083" lon="12.6974125"><ele>8.4</ele><time>2026-05-02T07:15:27.843Z</time></trkpt><trkpt lat="45.7967629" lon="12.6972814"><ele>8.0</ele><time>2026-05-02T07:15:28.842Z</time></trkpt><trkpt lat="45.7967425" lon="12.6971389"><ele>7.6000000000000005</ele><time>2026-05-02T07:15:29.843Z</time></trkpt><trkpt lat="45.7967409" lon="12.6969863"><ele>7.200000000000001</ele><time>2026-05-02T07:15:30.842Z</time></trkpt><trkpt lat="45.7967422" lon="12.6968354"><ele>6.8</ele><time>2026-05-02T07:15:31.842Z</time></trkpt><trkpt lat="45.7967366" lon="12.6966928"><ele>6.4</ele><time>2026-05-02T07:15:32.842Z</time></trkpt><trkpt lat="45.7967304" lon="12.6965436"><ele>6.0</ele><time>2026-05-02T07:15:33.843Z</time></trkpt><trkpt lat="45.7967256" lon="12.696384"><ele>6.0</ele><time>2026-05-02T07:15:34.843Z</time></trkpt><trkpt lat="45.7967193" lon="12.6962135"><ele>6.0</ele><time>2026-05-02T07:15:35.843Z</time></trkpt><trkpt lat="45.7967141" lon="12.6960387"><ele>6.0</ele><time>2026-05-02T07:15:36.843Z</time></trkpt><trkpt lat="45.7967103" lon="12.6958647"><ele>6.0</ele><time>2026-05-02T07:15:37.842Z</time></trkpt><trkpt lat="45.7967046" lon="12.6956898"><ele>5.666666666666667</ele><time>2026-05-02T07:15:38.843Z</time></trkpt><trkpt lat="45.7966995" lon="12.6954952"><ele>5.333333333333334</ele><time>2026-05-02T07:15:39.843Z</time></trkpt><trkpt lat="45.7966921" lon="12.6952796"><ele>5.0</ele><time>2026-05-02T07:15:40.842Z</time></trkpt><trkpt lat="45.7966818" lon="12.6950441"><ele>5.0</ele><time>2026-05-02T07:15:41.843Z</time></trkpt><trkpt lat="45.7966746" lon="12.6947977"><ele>5.0</ele><time>2026-05-02T07:15:42.843Z</time></trkpt><trkpt lat="45.7966664" lon="12.6945426"><ele>5.0</ele><time>2026-05-02T07:15:43.843Z</time></trkpt><trkpt lat="45.7966652" lon="12.6943081"><ele>5.0</ele><time>2026-05-02T07:15:44.843Z</time></trkpt><trkpt lat="45.7966605" lon="12.6940866"><ele>5.0</ele><time>2026-05-02T07:15:45.843Z</time></trkpt><trkpt lat="45.7966536" lon="12.6938994"><ele>5.0</ele><time>2026-05-02T07:15:46.843Z</time></trkpt><trkpt lat="45.7966509" lon="12.6937193"><ele>5.0</ele><time>2026-05-02T07:15:47.842Z</time></trkpt><trkpt lat="45.7966454" lon="12.6935553"><ele>5.2</ele><time>2026-05-02T07:15:48.843Z</time></trkpt><trkpt lat="45.79664" lon="12.6934033"><ele>5.4</ele><time>2026-05-02T07:15:49.843Z</time></trkpt><trkpt lat="45.7966363" lon="12.69324"><ele>5.6</ele><time>2026-05-02T07:15:50.843Z</time></trkpt><trkpt lat="45.796634" lon="12.69308"><ele>5.8</ele><time>2026-05-02T07:15:51.843Z</time></trkpt><trkpt lat="45.7966252" lon="12.6929214"><ele>6.0</ele><time>2026-05-02T07:15:52.842Z</time></trkpt><trkpt lat="45.7966169" lon="12.6927575"><ele>6.25</ele><time>2026-05-02T07:15:53.843Z</time></trkpt><trkpt lat="45.7966095" lon="12.6925713"><ele>6.5</ele><time>2026-05-02T07:15:54.843Z</time></trkpt><trkpt lat="45.7966068" lon="12.6923682"><ele>6.75</ele><time>2026-05-02T07:15:55.843Z</time></trkpt><trkpt lat="45.7966025" lon="12.6921389"><ele>7.0</ele><time>2026-05-02T07:15:56.843Z</time></trkpt><trkpt lat="45.7965956" lon="12.6918881"><ele>7.0</ele><time>2026-05-02T07:15:57.842Z</time></trkpt><trkpt lat="45.7965839" lon="12.6916242"><ele>7.0</ele><time>2026-05-02T07:15:58.843Z</time></trkpt><trkpt lat="45.7965714" lon="12.6913483"><ele>7.0</ele><time>2026-05-02T07:15:59.843Z</time></trkpt><trkpt lat="45.7965512" lon="12.6910654"><ele>6.666666666666667</ele><time>2026-05-02T07:16:00.843Z</time></trkpt><trkpt lat="45.7965235" lon="12.6907596"><ele>6.333333333333334</ele><time>2026-05-02T07:16:01.842Z</time></trkpt><trkpt lat="45.796474" lon="12.69044"><ele>6.0</ele><time>2026-05-02T07:16:02.843Z</time></trkpt><trkpt lat="45.7964148" lon="12.690116"><ele>5.5</ele><time>2026-05-02T07:16:03.842Z</time></trkpt><trkpt lat="45.7963503" lon="12.6897764"><ele>5.0</ele><time>2026-05-02T07:16:04.842Z</time></trkpt><trkpt lat="45.7962853" lon="12.6894333"><ele>5.0</ele><time>2026-05-02T07:16:05.843Z</time></trkpt><trkpt lat="45.796224" lon="12.6890836"><ele>5.0</ele><time>2026-05-02T07:16:06.843Z</time></trkpt><trkpt lat="45.7961641" lon="12.6887528"><ele>5.333333333333334</ele><time>2026-05-02T07:16:07.842Z</time></trkpt><trkpt lat="45.7961051" lon="12.6884305"><ele>5.666666666666667</ele><time>2026-05-02T07:16:08.842Z</time></trkpt><trkpt lat="45.7960477" lon="12.6881317"><ele>6.0</ele><time>2026-05-02T07:16:09.842Z</time></trkpt><trkpt lat="45.7959946" lon="12.6878433"><ele>6.666666666666666</ele><time>2026-05-02T07:16:10.844Z</time></trkpt><trkpt lat="45.7959461" lon="12.687582"><ele>7.333333333333333</ele><time>2026-05-02T07:16:11.843Z</time></trkpt><trkpt lat="45.7958993" lon="12.6873252"><ele>8.0</ele><time>2026-05-02T07:16:12.842Z</time></trkpt><trkpt lat="45.7958574" lon="12.687071"><ele>8.333333333333332</ele><time>2026-05-02T07:16:13.842Z</time></trkpt><trkpt lat="45.7958139" lon="12.6868199"><ele>8.666666666666666</ele><time>2026-05-02T07:16:14.843Z</time></trkpt><trkpt lat="45.7957665" lon="12.6865673"><ele>9.0</ele><time>2026-05-02T07:16:15.843Z</time></trkpt><trkpt lat="45.7957205" lon="12.6863184"><ele>8.666666666666666</ele><time>2026-05-02T07:16:16.843Z</time></trkpt><trkpt lat="45.7956813" lon="12.6860788"><ele>8.333333333333332</ele><time>2026-05-02T07:16:17.842Z</time></trkpt><trkpt lat="45.7956345" lon="12.6858519"><ele>8.0</ele><time>2026-05-02T07:16:18.843Z</time></trkpt><trkpt lat="45.795595" lon="12.6856189"><ele>8.0</ele><time>2026-05-02T07:16:19.843Z</time></trkpt><trkpt lat="45.7955766" lon="12.6853745"><ele>8.0</ele><time>2026-05-02T07:16:20.844Z</time></trkpt><trkpt lat="45.7955767" lon="12.6851259"><ele>8.0</ele><time>2026-05-02T07:16:21.844Z</time></trkpt><trkpt lat="45.7956017" lon="12.6848895"><ele>8.0</ele><time>2026-05-02T07:16:22.844Z</time></trkpt><trkpt lat="45.79563" lon="12.6846793"><ele>8.0</ele><time>2026-05-02T07:16:23.844Z</time></trkpt><trkpt lat="45.7956589" lon="12.6844988"><ele>8.0</ele><time>2026-05-02T07:16:24.844Z</time></trkpt><trkpt lat="45.7956858" lon="12.6843346"><ele>8.0</ele><time>2026-05-02T07:16:25.844Z</time></trkpt><trkpt lat="45.7957025" lon="12.6841808"><ele>7.999999999999999</ele><time>2026-05-02T07:16:26.843Z</time></trkpt><trkpt lat="45.7957223" lon="12.6840533"><ele>8.0</ele><time>2026-05-02T07:16:27.843Z</time></trkpt><trkpt lat="45.7957363" lon="12.6839533"><ele>8.0</ele><time>2026-05-02T07:16:28.843Z</time></trkpt><trkpt lat="45.7957522" lon="12.6838594"><ele>8.0</ele><time>2026-05-02T07:16:29.844Z</time></trkpt><trkpt lat="45.7957712" lon="12.6837434"><ele>7.999999999999999</ele><time>2026-05-02T07:16:31.843Z</time></trkpt><trkpt lat="45.7957808" lon="12.6836511"><ele>8.0</ele><time>2026-05-02T07:17:39.844Z</time></trkpt><trkpt lat="45.7958053" lon="12.6834653"><ele>8.0</ele><time>2026-05-02T07:17:41.844Z</time></trkpt><trkpt lat="45.7958195" lon="12.6833449"><ele>8.0</ele><time>2026-05-02T07:17:42.845Z</time></trkpt><trkpt lat="45.7958214" lon="12.6831868"><ele>8.0</ele><time>2026-05-02T07:17:43.844Z</time></trkpt><trkpt lat="45.7958145" lon="12.683001"><ele>8.0</ele><time>2026-05-02T07:17:44.845Z</time></trkpt><trkpt lat="45.795798" lon="12.6827781"><ele>8.0</ele><time>2026-05-02T07:17:45.845Z</time></trkpt><trkpt lat="45.7957695" lon="12.6825134"><ele>8.0</ele><time>2026-05-02T07:17:46.845Z</time></trkpt><trkpt lat="45.7957331" lon="12.6822262"><ele>8.0</ele><time>2026-05-02T07:17:47.844Z</time></trkpt><trkpt lat="45.795696" lon="12.681932"><ele>7.0</ele><time>2026-05-02T07:17:48.844Z</time></trkpt><trkpt lat="45.7956591" lon="12.6816366"><ele>6.0</ele><time>2026-05-02T07:17:49.844Z</time></trkpt><trkpt lat="45.7956207" lon="12.6813366"><ele>5.0</ele><time>2026-05-02T07:17:50.845Z</time></trkpt><trkpt lat="45.795584" lon="12.6810482"><ele>5.0</ele><time>2026-05-02T07:17:51.845Z</time></trkpt><trkpt lat="45.7955474" lon="12.680777"><ele>5.0</ele><time>2026-05-02T07:17:52.845Z</time></trkpt><trkpt lat="45.7955111" lon="12.6805152"><ele>5.0</ele><time>2026-05-02T07:17:53.844Z</time></trkpt><trkpt lat="45.7954815" lon="12.6802677"><ele>5.0</ele><time>2026-05-02T07:17:54.844Z</time></trkpt><trkpt lat="45.7954552" lon="12.6800398"><ele>5.0</ele><time>2026-05-02T07:17:55.844Z</time></trkpt><trkpt lat="45.7954253" lon="12.6798252"><ele>5.0</ele><time>2026-05-02T07:17:56.844Z</time></trkpt><trkpt lat="45.7953924" lon="12.6796113"><ele>5.0</ele><time>2026-05-02T07:17:57.845Z</time></trkpt><trkpt lat="45.7953635" lon="12.6793939"><ele>5.0</ele><time>2026-05-02T07:17:58.845Z</time></trkpt><trkpt lat="45.7953361" lon="12.679174"><ele>5.0</ele><time>2026-05-02T07:17:59.845Z</time></trkpt><trkpt lat="45.7953054" lon="12.6789499"><ele>5.0</ele><time>2026-05-02T07:18:00.844Z</time></trkpt><trkpt lat="45.7952722" lon="12.6787257"><ele>5.0</ele><time>2026-05-02T07:18:01.844Z</time></trkpt><trkpt lat="45.7952365" lon="12.6785004"><ele>5.0</ele><time>2026-05-02T07:18:02.845Z</time></trkpt><trkpt lat="45.795199" lon="12.6782788"><ele>5.25</ele><time>2026-05-02T07:18:03.844Z</time></trkpt><trkpt lat="45.7951525" lon="12.6780738"><ele>5.5</ele><time>2026-05-02T07:18:04.844Z</time></trkpt><trkpt lat="45.7951" lon="12.6778743"><ele>5.75</ele><time>2026-05-02T07:18:05.845Z</time></trkpt><trkpt lat="45.7950461" lon="12.6776753"><ele>6.0</ele><time>2026-05-02T07:18:06.845Z</time></trkpt><trkpt lat="45.7949975" lon="12.6774755"><ele>5.75</ele><time>2026-05-02T07:18:07.845Z</time></trkpt><trkpt lat="45.7949372" lon="12.6772837"><ele>5.5</ele><time>2026-05-02T07:18:08.844Z</time></trkpt><trkpt lat="45.7948772" lon="12.6770928"><ele>5.25</ele><time>2026-05-02T07:18:09.844Z</time></trkpt><trkpt lat="45.7948222" lon="12.676903"><ele>5.0</ele><time>2026-05-02T07:18:10.845Z</time></trkpt><trkpt lat="45.7947602" lon="12.6767154"><ele>5.0</ele><time>2026-05-02T07:18:11.844Z</time></trkpt><trkpt lat="45.7946987" lon="12.6765168"><ele>5.0</ele><time>2026-05-02T07:18:12.844Z</time></trkpt><trkpt lat="45.7946395" lon="12.6763193"><ele>5.0</ele><time>2026-05-02T07:18:13.845Z</time></trkpt><trkpt lat="45.7945698" lon="12.6761048"><ele>5.0</ele><time>2026-05-02T07:18:14.844Z</time></trkpt><trkpt lat="45.7945022" lon="12.6758909"><ele>5.0</ele><time>2026-05-02T07:18:15.845Z</time></trkpt><trkpt lat="45.7944327" lon="12.6756702"><ele>5.0</ele><time>2026-05-02T07:18:16.844Z</time></trkpt><trkpt lat="45.7943615" lon="12.6754435"><ele>4.666666666666667</ele><time>2026-05-02T07:18:17.844Z</time></trkpt><trkpt lat="45.7942894" lon="12.6752163"><ele>4.333333333333333</ele><time>2026-05-02T07:18:18.845Z</time></trkpt><trkpt lat="45.7942193" lon="12.6749932"><ele>4.0</ele><time>2026-05-02T07:18:19.845Z</time></trkpt><trkpt lat="45.7941504" lon="12.674773"><ele>4.0</ele><time>2026-05-02T07:18:20.844Z</time></trkpt><trkpt lat="45.7940807" lon="12.6745541"><ele>4.0</ele><time>2026-05-02T07:18:21.845Z</time></trkpt><trkpt lat="45.7940137" lon="12.6743387"><ele>4.0</ele><time>2026-05-02T07:18:22.845Z</time></trkpt><trkpt lat="45.7939416" lon="12.6741147"><ele>4.0</ele><time>2026-05-02T07:18:23.845Z</time></trkpt><trkpt lat="45.7938653" lon="12.673875"><ele>4.0</ele><time>2026-05-02T07:18:24.845Z</time></trkpt><trkpt lat="45.7937866" lon="12.6736232"><ele>4.0</ele><time>2026-05-02T07:18:25.844Z</time></trkpt><trkpt lat="45.7937084" lon="12.6733694"><ele>4.0</ele><time>2026-05-02T07:18:26.846Z</time></trkpt><trkpt lat="45.7936289" lon="12.6731147"><ele>4.0</ele><time>2026-05-02T07:18:27.845Z</time></trkpt><trkpt lat="45.7935489" lon="12.6728607"><ele>4.0</ele><time>2026-05-02T07:18:28.845Z</time></trkpt><trkpt lat="45.7934619" lon="12.6725919"><ele>3.6666666666666665</ele><time>2026-05-02T07:18:29.846Z</time></trkpt><trkpt lat="45.7933776" lon="12.672323"><ele>3.333333333333333</ele><time>2026-05-02T07:18:30.846Z</time></trkpt><trkpt lat="45.793302" lon="12.6720473"><ele>3.0</ele><time>2026-05-02T07:18:31.846Z</time></trkpt><trkpt lat="45.7932359" lon="12.6717739"><ele>3.0</ele><time>2026-05-02T07:18:32.846Z</time></trkpt><trkpt lat="45.7931664" lon="12.6715126"><ele>3.0</ele><time>2026-05-02T07:18:33.845Z</time></trkpt><trkpt lat="45.7930852" lon="12.6712633"><ele>3.0</ele><time>2026-05-02T07:18:34.846Z</time></trkpt><trkpt lat="45.7929969" lon="12.671018"><ele>3.333333333333333</ele><time>2026-05-02T07:18:35.845Z</time></trkpt><trkpt lat="45.7929177" lon="12.6707675"><ele>3.6666666666666665</ele><time>2026-05-02T07:18:36.845Z</time></trkpt><trkpt lat="45.7928329" lon="12.6705299"><ele>4.0</ele><time>2026-05-02T07:18:37.846Z</time></trkpt><trkpt lat="45.792741" lon="12.6702923"><ele>3.6666666666666665</ele><time>2026-05-02T07:18:38.845Z</time></trkpt><trkpt lat="45.792659" lon="12.670044"><ele>3.333333333333333</ele><time>2026-05-02T07:18:39.846Z</time></trkpt><trkpt lat="45.7925839" lon="12.6697933"><ele>3.0</ele><time>2026-05-02T07:18:40.846Z</time></trkpt><trkpt lat="45.7925045" lon="12.6695443"><ele>3.0</ele><time>2026-05-02T07:18:41.845Z</time></trkpt><trkpt lat="45.7924251" lon="12.6692956"><ele>3.0</ele><time>2026-05-02T07:18:42.845Z</time></trkpt><trkpt lat="45.7923424" lon="12.6690444"><ele>3.0</ele><time>2026-05-02T07:18:43.846Z</time></trkpt><trkpt lat="45.7922628" lon="12.6687888"><ele>3.333333333333333</ele><time>2026-05-02T07:18:44.846Z</time></trkpt><trkpt lat="45.7921768" lon="12.6685245"><ele>3.6666666666666665</ele><time>2026-05-02T07:18:45.846Z</time></trkpt><trkpt lat="45.7920975" lon="12.6682671"><ele>4.0</ele><time>2026-05-02T07:18:46.845Z</time></trkpt><trkpt lat="45.7920134" lon="12.6679984"><ele>4.0</ele><time>2026-05-02T07:18:47.846Z</time></trkpt><trkpt lat="45.7919325" lon="12.6677294"><ele>4.0</ele><time>2026-05-02T07:18:48.846Z</time></trkpt><trkpt lat="45.7918482" lon="12.6674616"><ele>4.0</ele><time>2026-05-02T07:18:49.846Z</time></trkpt><trkpt lat="45.7917618" lon="12.6671957"><ele>3.6666666666666665</ele><time>2026-05-02T07:18:50.846Z</time></trkpt><trkpt lat="45.7916742" lon="12.6669298"><ele>3.333333333333333</ele><time>2026-05-02T07:18:51.845Z</time></trkpt><trkpt lat="45.7915906" lon="12.6666613"><ele>3.0</ele><time>2026-05-02T07:18:52.846Z</time></trkpt><trkpt lat="45.7915082" lon="12.666397"><ele>3.0</ele><time>2026-05-02T07:18:53.846Z</time></trkpt><trkpt lat="45.7914302" lon="12.6661381"><ele>3.0</ele><time>2026-05-02T07:18:54.846Z</time></trkpt><trkpt lat="45.7913569" lon="12.6658975"><ele>3.0</ele><time>2026-05-02T07:18:55.846Z</time></trkpt><trkpt lat="45.7912854" lon="12.6656573"><ele>3.666666666666667</ele><time>2026-05-02T07:18:56.846Z</time></trkpt><trkpt lat="45.7912073" lon="12.6654222"><ele>4.333333333333334</ele><time>2026-05-02T07:18:57.845Z</time></trkpt><trkpt lat="45.7911333" lon="12.6651943"><ele>5.0</ele><time>2026-05-02T07:18:58.846Z</time></trkpt><trkpt lat="45.7910587" lon="12.6649653"><ele>4.666666666666667</ele><time>2026-05-02T07:18:59.845Z</time></trkpt><trkpt lat="45.7909866" lon="12.6647248"><ele>4.333333333333333</ele><time>2026-05-02T07:19:00.846Z</time></trkpt><trkpt lat="45.7909131" lon="12.6644843"><ele>4.0</ele><time>2026-05-02T07:19:01.845Z</time></trkpt><trkpt lat="45.7908335" lon="12.6642454"><ele>4.0</ele><time>2026-05-02T07:19:02.846Z</time></trkpt><trkpt lat="45.7907535" lon="12.6640026"><ele>4.0</ele><time>2026-05-02T07:19:03.845Z</time></trkpt><trkpt lat="45.7906757" lon="12.6637534"><ele>4.0</ele><time>2026-05-02T07:19:04.846Z</time></trkpt><trkpt lat="45.7905989" lon="12.6634931"><ele>4.0</ele><time>2026-05-02T07:19:05.846Z</time></trkpt><trkpt lat="45.7905204" lon="12.6632337"><ele>4.0</ele><time>2026-05-02T07:19:06.845Z</time></trkpt><trkpt lat="45.7904328" lon="12.6629793"><ele>4.0</ele><time>2026-05-02T07:19:07.845Z</time></trkpt><trkpt lat="45.7903509" lon="12.6627217"><ele>4.333333333333333</ele><time>2026-05-02T07:19:08.846Z</time></trkpt><trkpt lat="45.7902759" lon="12.662459"><ele>4.666666666666667</ele><time>2026-05-02T07:19:09.845Z</time></trkpt><trkpt lat="45.7901932" lon="12.6621998"><ele>5.0</ele><time>2026-05-02T07:19:10.845Z</time></trkpt><trkpt lat="45.7901116" lon="12.6619452"><ele>5.0</ele><time>2026-05-02T07:19:11.846Z</time></trkpt><trkpt lat="45.7900292" lon="12.6616922"><ele>5.0</ele><time>2026-05-02T07:19:12.846Z</time></trkpt><trkpt lat="45.789945" lon="12.6614336"><ele>5.0</ele><time>2026-05-02T07:19:13.845Z</time></trkpt><trkpt lat="45.7898626" lon="12.6611612"><ele>5.0</ele><time>2026-05-02T07:19:14.845Z</time></trkpt><trkpt lat="45.7897773" lon="12.6608866"><ele>5.0</ele><time>2026-05-02T07:19:15.846Z</time></trkpt><trkpt lat="45.789688" lon="12.6606037"><ele>5.0</ele><time>2026-05-02T07:19:16.846Z</time></trkpt><trkpt lat="45.7895966" lon="12.6603176"><ele>4.666666666666667</ele><time>2026-05-02T07:19:17.846Z</time></trkpt><trkpt lat="45.7895083" lon="12.6600373"><ele>4.333333333333333</ele><time>2026-05-02T07:19:18.845Z</time></trkpt><trkpt lat="45.7894247" lon="12.65976"><ele>4.0</ele><time>2026-05-02T07:19:19.846Z</time></trkpt><trkpt lat="45.7893405" lon="12.6594906"><ele>4.0</ele><time>2026-05-02T07:19:20.846Z</time></trkpt><trkpt lat="45.7892606" lon="12.6592344"><ele>4.0</ele><time>2026-05-02T07:19:21.846Z</time></trkpt><trkpt lat="45.789182" lon="12.6589908"><ele>4.0</ele><time>2026-05-02T07:19:22.846Z</time></trkpt><trkpt lat="45.7891059" lon="12.6587543"><ele>4.0</ele><time>2026-05-02T07:19:23.846Z</time></trkpt><trkpt lat="45.7890302" lon="12.6585112"><ele>4.0</ele><time>2026-05-02T07:19:24.846Z</time></trkpt><trkpt lat="45.7889489" lon="12.6582635"><ele>4.0</ele><time>2026-05-02T07:19:25.845Z</time></trkpt><trkpt lat="45.7888688" lon="12.6580114"><ele>3.6666666666666665</ele><time>2026-05-02T07:19:26.845Z</time></trkpt><trkpt lat="45.7887881" lon="12.6577537"><ele>3.333333333333333</ele><time>2026-05-02T07:19:27.846Z</time></trkpt><trkpt lat="45.788708" lon="12.6574973"><ele>3.0</ele><time>2026-05-02T07:19:28.846Z</time></trkpt><trkpt lat="45.7886258" lon="12.6572376"><ele>3.0</ele><time>2026-05-02T07:19:29.846Z</time></trkpt><trkpt lat="45.788544" lon="12.6569752"><ele>3.0</ele><time>2026-05-02T07:19:30.846Z</time></trkpt><trkpt lat="45.7884579" lon="12.6567104"><ele>3.0</ele><time>2026-05-02T07:19:31.847Z</time></trkpt><trkpt lat="45.788379" lon="12.6564498"><ele>2.6666666666666665</ele><time>2026-05-02T07:19:32.846Z</time></trkpt><trkpt lat="45.788293" lon="12.6561919"><ele>2.333333333333333</ele><time>2026-05-02T07:19:33.846Z</time></trkpt><trkpt lat="45.7882045" lon="12.6559443"><ele>2.0</ele><time>2026-05-02T07:19:34.846Z</time></trkpt><trkpt lat="45.7881359" lon="12.6557035"><ele>2.0</ele><time>2026-05-02T07:19:35.846Z</time></trkpt><trkpt lat="45.7880656" lon="12.655471"><ele>2.0</ele><time>2026-05-02T07:19:36.847Z</time></trkpt><trkpt lat="45.7879964" lon="12.6552379"><ele>2.0</ele><time>2026-05-02T07:19:37.846Z</time></trkpt><trkpt lat="45.7879218" lon="12.6550049"><ele>2.333333333333333</ele><time>2026-05-02T07:19:38.847Z</time></trkpt><trkpt lat="45.787848" lon="12.6547648"><ele>2.6666666666666665</ele><time>2026-05-02T07:19:39.846Z</time></trkpt><trkpt lat="45.787771" lon="12.6545241"><ele>3.0</ele><time>2026-05-02T07:19:40.846Z</time></trkpt><trkpt lat="45.7876944" lon="12.6542733"><ele>3.0</ele><time>2026-05-02T07:19:41.847Z</time></trkpt><trkpt lat="45.7876119" lon="12.6540179"><ele>3.0</ele><time>2026-05-02T07:19:42.847Z</time></trkpt><trkpt lat="45.7875319" lon="12.6537636"><ele>3.0</ele><time>2026-05-02T07:19:43.847Z</time></trkpt><trkpt lat="45.7874556" lon="12.6535202"><ele>3.333333333333333</ele><time>2026-05-02T07:19:44.846Z</time></trkpt><trkpt lat="45.7873863" lon="12.6532817"><ele>3.6666666666666665</ele><time>2026-05-02T07:19:45.847Z</time></trkpt><trkpt lat="45.7873107" lon="12.6530505"><ele>4.0</ele><time>2026-05-02T07:19:46.847Z</time></trkpt><trkpt lat="45.7872333" lon="12.6528152"><ele>5.0</ele><time>2026-05-02T07:19:47.847Z</time></trkpt><trkpt lat="45.7871597" lon="12.6525785"><ele>6.0</ele><time>2026-05-02T07:19:48.846Z</time></trkpt><trkpt lat="45.7870829" lon="12.6523409"><ele>7.0</ele><time>2026-05-02T07:19:49.847Z</time></trkpt><trkpt lat="45.7870109" lon="12.6521045"><ele>6.666666666666667</ele><time>2026-05-02T07:19:50.847Z</time></trkpt><trkpt lat="45.7869381" lon="12.6518598"><ele>6.333333333333334</ele><time>2026-05-02T07:19:51.846Z</time></trkpt><trkpt lat="45.7868674" lon="12.6516249"><ele>6.0</ele><time>2026-05-02T07:19:52.846Z</time></trkpt><trkpt lat="45.7867914" lon="12.6513894"><ele>5.0</ele><time>2026-05-02T07:19:53.846Z</time></trkpt><trkpt lat="45.7867166" lon="12.6511607"><ele>4.0</ele><time>2026-05-02T07:19:54.847Z</time></trkpt><trkpt lat="45.7866428" lon="12.6509274"><ele>3.0</ele><time>2026-05-02T07:19:55.847Z</time></trkpt><trkpt lat="45.7865691" lon="12.6506914"><ele>3.0</ele><time>2026-05-02T07:19:56.846Z</time></trkpt><trkpt lat="45.7864951" lon="12.6504471"><ele>3.0</ele><time>2026-05-02T07:19:57.846Z</time></trkpt><trkpt lat="45.7864196" lon="12.6502066"><ele>3.0</ele><time>2026-05-02T07:19:58.847Z</time></trkpt><trkpt lat="45.7863447" lon="12.6499702"><ele>3.0</ele><time>2026-05-02T07:19:59.847Z</time></trkpt><trkpt lat="45.7862653" lon="12.6497325"><ele>3.0</ele><time>2026-05-02T07:20:00.846Z</time></trkpt><trkpt lat="45.7861905" lon="12.6494937"><ele>3.0</ele><time>2026-05-02T07:20:01.847Z</time></trkpt><trkpt lat="45.78612" lon="12.6492559"><ele>3.0</ele><time>2026-05-02T07:20:02.846Z</time></trkpt><trkpt lat="45.7860457" lon="12.6490141"><ele>3.0</ele><time>2026-05-02T07:20:03.846Z</time></trkpt><trkpt lat="45.7859696" lon="12.6487702"><ele>3.0</ele><time>2026-05-02T07:20:04.846Z</time></trkpt><trkpt lat="45.785889" lon="12.648527"><ele>3.333333333333333</ele><time>2026-05-02T07:20:05.847Z</time></trkpt><trkpt lat="45.7858121" lon="12.6482837"><ele>3.6666666666666665</ele><time>2026-05-02T07:20:06.846Z</time></trkpt><trkpt lat="45.7857375" lon="12.6480309"><ele>4.0</ele><time>2026-05-02T07:20:07.846Z</time></trkpt><trkpt lat="45.7856614" lon="12.6477855"><ele>4.333333333333333</ele><time>2026-05-02T07:20:08.846Z</time></trkpt><trkpt lat="45.7855845" lon="12.6475464"><ele>4.666666666666667</ele><time>2026-05-02T07:20:09.846Z</time></trkpt><trkpt lat="45.7855062" lon="12.6473015"><ele>5.0</ele><time>2026-05-02T07:20:10.846Z</time></trkpt><trkpt lat="45.7854309" lon="12.6470577"><ele>4.0</ele><time>2026-05-02T07:20:11.846Z</time></trkpt><trkpt lat="45.785352" lon="12.6468036"><ele>3.0</ele><time>2026-05-02T07:20:12.847Z</time></trkpt><trkpt lat="45.7852723" lon="12.6465564"><ele>2.0</ele><time>2026-05-02T07:20:13.846Z</time></trkpt><trkpt lat="45.7851935" lon="12.6463065"><ele>2.6666666666666665</ele><time>2026-05-02T07:20:14.846Z</time></trkpt><trkpt lat="45.7851144" lon="12.646059"><ele>3.333333333333333</ele><time>2026-05-02T07:20:15.847Z</time></trkpt><trkpt lat="45.7850355" lon="12.6458154"><ele>4.0</ele><time>2026-05-02T07:20:16.846Z</time></trkpt><trkpt lat="45.7849609" lon="12.6455721"><ele>4.0</ele><time>2026-05-02T07:20:17.847Z</time></trkpt><trkpt lat="45.7848893" lon="12.6453327"><ele>4.0</ele><time>2026-05-02T07:20:18.847Z</time></trkpt><trkpt lat="45.7848122" lon="12.6450939"><ele>4.0</ele><time>2026-05-02T07:20:19.847Z</time></trkpt><trkpt lat="45.7847381" lon="12.6448659"><ele>4.0</ele><time>2026-05-02T07:20:20.846Z</time></trkpt><trkpt lat="45.7846662" lon="12.6446441"><ele>4.0</ele><time>2026-05-02T07:20:21.846Z</time></trkpt><trkpt lat="45.784595" lon="12.6444225"><ele>4.0</ele><time>2026-05-02T07:20:22.847Z</time></trkpt><trkpt lat="45.7845216" lon="12.6441909"><ele>4.0</ele><time>2026-05-02T07:20:23.846Z</time></trkpt><trkpt lat="45.7844478" lon="12.6439552"><ele>4.0</ele><time>2026-05-02T07:20:24.846Z</time></trkpt><trkpt lat="45.7843799" lon="12.6437272"><ele>4.0</ele><time>2026-05-02T07:20:25.847Z</time></trkpt><trkpt lat="45.7843073" lon="12.6435157"><ele>3.333333333333333</ele><time>2026-05-02T07:20:26.846Z</time></trkpt><trkpt lat="45.7842427" lon="12.6433136"><ele>2.6666666666666665</ele><time>2026-05-02T07:20:27.846Z</time></trkpt><trkpt lat="45.7841793" lon="12.6431009"><ele>2.0</ele><time>2026-05-02T07:20:28.847Z</time></trkpt><trkpt lat="45.7841193" lon="12.6428959"><ele>3.0</ele><time>2026-05-02T07:20:29.846Z</time></trkpt><trkpt lat="45.7840542" lon="12.6426929"><ele>4.0</ele><time>2026-05-02T07:20:30.846Z</time></trkpt><trkpt lat="45.7839898" lon="12.6424844"><ele>5.0</ele><time>2026-05-02T07:20:31.846Z</time></trkpt><trkpt lat="45.7839291" lon="12.6422975"><ele>5.0</ele><time>2026-05-02T07:20:32.848Z</time></trkpt><trkpt lat="45.7838737" lon="12.6421243"><ele>5.0</ele><time>2026-05-02T07:20:33.848Z</time></trkpt><trkpt lat="45.7838224" lon="12.6419657"><ele>5.0</ele><time>2026-05-02T07:20:34.848Z</time></trkpt><trkpt lat="45.783775" lon="12.6418202"><ele>5.0</ele><time>2026-05-02T07:20:35.847Z</time></trkpt><trkpt lat="45.7837276" lon="12.6416766"><ele>5.0</ele><time>2026-05-02T07:20:36.848Z</time></trkpt><trkpt lat="45.7836892" lon="12.6415514"><ele>5.0</ele><time>2026-05-02T07:20:37.848Z</time></trkpt><trkpt lat="45.783654" lon="12.6414422"><ele>5.0</ele><time>2026-05-02T07:20:38.848Z</time></trkpt><trkpt lat="45.7836229" lon="12.641349"><ele>5.0</ele><time>2026-05-02T07:20:39.847Z</time></trkpt><trkpt lat="45.7835943" lon="12.6412675"><ele>5.0</ele><time>2026-05-02T07:20:40.848Z</time></trkpt><trkpt lat="45.7835577" lon="12.6411344"><ele>5.0</ele><time>2026-05-02T07:20:42.848Z</time></trkpt><trkpt lat="45.7835222" lon="12.640998"><ele>5.0</ele><time>2026-05-02T07:20:44.848Z</time></trkpt><trkpt lat="45.7834834" lon="12.6408542"><ele>5.0</ele><time>2026-05-02T07:20:46.847Z</time></trkpt><trkpt lat="45.7834596" lon="12.6407626"><ele>5.0</ele><time>2026-05-02T07:20:47.848Z</time></trkpt><trkpt lat="45.7834253" lon="12.6406539"><ele>5.0</ele><time>2026-05-02T07:20:48.847Z</time></trkpt><trkpt lat="45.7833828" lon="12.6405335"><ele>5.0</ele><time>2026-05-02T07:20:49.847Z</time></trkpt><trkpt lat="45.7833249" lon="12.6403841"><ele>4.666666666666667</ele><time>2026-05-02T07:20:50.847Z</time></trkpt><trkpt lat="45.7832648" lon="12.6401836"><ele>4.333333333333333</ele><time>2026-05-02T07:20:51.848Z</time></trkpt><trkpt lat="45.7831942" lon="12.6399521"><ele>4.0</ele><time>2026-05-02T07:20:52.847Z</time></trkpt><trkpt lat="45.7831072" lon="12.639693"><ele>4.0</ele><time>2026-05-02T07:20:53.847Z</time></trkpt><trkpt lat="45.7830164" lon="12.639403"><ele>4.0</ele><time>2026-05-02T07:20:54.848Z</time></trkpt><trkpt lat="45.7829316" lon="12.6391283"><ele>4.0</ele><time>2026-05-02T07:20:55.848Z</time></trkpt><trkpt lat="45.7828535" lon="12.6388777"><ele>4.0</ele><time>2026-05-02T07:20:56.847Z</time></trkpt><trkpt lat="45.7827774" lon="12.6386452"><ele>4.0</ele><time>2026-05-02T07:20:57.848Z</time></trkpt><trkpt lat="45.7827025" lon="12.63841"><ele>4.0</ele><time>2026-05-02T07:20:58.848Z</time></trkpt><trkpt lat="45.7826298" lon="12.6381743"><ele>3.6666666666666665</ele><time>2026-05-02T07:20:59.848Z</time></trkpt><trkpt lat="45.7825587" lon="12.6379499"><ele>3.333333333333333</ele><time>2026-05-02T07:21:00.847Z</time></trkpt><trkpt lat="45.7824832" lon="12.6377177"><ele>3.0</ele><time>2026-05-02T07:21:01.848Z</time></trkpt><trkpt lat="45.7824049" lon="12.6374722"><ele>2.6666666666666665</ele><time>2026-05-02T07:21:02.847Z</time></trkpt><trkpt lat="45.7823282" lon="12.6372205"><ele>2.333333333333333</ele><time>2026-05-02T07:21:03.847Z</time></trkpt><trkpt lat="45.7822515" lon="12.6369679"><ele>2.0</ele><time>2026-05-02T07:21:04.847Z</time></trkpt><trkpt lat="45.7821714" lon="12.6367082"><ele>2.0</ele><time>2026-05-02T07:21:05.848Z</time></trkpt><trkpt lat="45.7820886" lon="12.6364384"><ele>2.0</ele><time>2026-05-02T07:21:06.848Z</time></trkpt><trkpt lat="45.7820032" lon="12.6361692"><ele>2.0</ele><time>2026-05-02T07:21:07.847Z</time></trkpt><trkpt lat="45.7819152" lon="12.6359047"><ele>2.333333333333333</ele><time>2026-05-02T07:21:08.847Z</time></trkpt><trkpt lat="45.7818318" lon="12.6356404"><ele>2.6666666666666665</ele><time>2026-05-02T07:21:09.848Z</time></trkpt><trkpt lat="45.7817489" lon="12.6353751"><ele>3.0</ele><time>2026-05-02T07:21:10.848Z</time></trkpt><trkpt lat="45.7816707" lon="12.6351154"><ele>3.0</ele><time>2026-05-02T07:21:11.847Z</time></trkpt><trkpt lat="45.7815916" lon="12.6348611"><ele>3.0</ele><time>2026-05-02T07:21:12.848Z</time></trkpt><trkpt lat="45.781509" lon="12.6346017"><ele>3.0</ele><time>2026-05-02T07:21:13.847Z</time></trkpt><trkpt lat="45.7814238" lon="12.6343447"><ele>3.0</ele><time>2026-05-02T07:21:14.848Z</time></trkpt><trkpt lat="45.7813392" lon="12.6340759"><ele>3.0</ele><time>2026-05-02T07:21:15.847Z</time></trkpt><trkpt lat="45.781256" lon="12.6338044"><ele>3.0</ele><time>2026-05-02T07:21:16.848Z</time></trkpt><trkpt lat="45.7811722" lon="12.6335363"><ele>3.0</ele><time>2026-05-02T07:21:17.848Z</time></trkpt><trkpt lat="45.78109" lon="12.6332672"><ele>3.0</ele><time>2026-05-02T07:21:18.848Z</time></trkpt><trkpt lat="45.7810048" lon="12.6329972"><ele>3.0</ele><time>2026-05-02T07:21:19.847Z</time></trkpt><trkpt lat="45.7809194" lon="12.6327264"><ele>3.0</ele><time>2026-05-02T07:21:20.848Z</time></trkpt><trkpt lat="45.7808354" lon="12.6324523"><ele>3.0</ele><time>2026-05-02T07:21:21.848Z</time></trkpt><trkpt lat="45.7807482" lon="12.632173"><ele>3.0</ele><time>2026-05-02T07:21:22.847Z</time></trkpt><trkpt lat="45.7806635" lon="12.6318945"><ele>3.333333333333333</ele><time>2026-05-02T07:21:23.847Z</time></trkpt><trkpt lat="45.780579" lon="12.6316343"><ele>3.6666666666666665</ele><time>2026-05-02T07:21:24.848Z</time></trkpt><trkpt lat="45.7804924" lon="12.6313836"><ele>4.0</ele><time>2026-05-02T07:21:25.848Z</time></trkpt><trkpt lat="45.780414" lon="12.631133"><ele>4.333333333333333</ele><time>2026-05-02T07:21:26.847Z</time></trkpt><trkpt lat="45.7803361" lon="12.630884"><ele>4.666666666666667</ele><time>2026-05-02T07:21:27.848Z</time></trkpt><trkpt lat="45.780257" lon="12.6306303"><ele>5.0</ele><time>2026-05-02T07:21:28.847Z</time></trkpt><trkpt lat="45.7801791" lon="12.6303793"><ele>4.666666666666667</ele><time>2026-05-02T07:21:29.848Z</time></trkpt><trkpt lat="45.7800994" lon="12.6301273"><ele>4.333333333333333</ele><time>2026-05-02T07:21:30.847Z</time></trkpt><trkpt lat="45.7800246" lon="12.6298733"><ele>4.0</ele><time>2026-05-02T07:21:31.847Z</time></trkpt><trkpt lat="45.7799436" lon="12.6296276"><ele>3.333333333333333</ele><time>2026-05-02T07:21:32.847Z</time></trkpt><trkpt lat="45.7798638" lon="12.6293836"><ele>2.6666666666666665</ele><time>2026-05-02T07:21:33.847Z</time></trkpt><trkpt lat="45.779783" lon="12.6291389"><ele>2.0</ele><time>2026-05-02T07:21:34.848Z</time></trkpt><trkpt lat="45.7797077" lon="12.6288992"><ele>2.0</ele><time>2026-05-02T07:21:35.848Z</time></trkpt><trkpt lat="45.779631" lon="12.6286566"><ele>2.0</ele><time>2026-05-02T07:21:36.849Z</time></trkpt><trkpt lat="45.7795508" lon="12.6284085"><ele>2.0</ele><time>2026-05-02T07:21:37.849Z</time></trkpt><trkpt lat="45.7794732" lon="12.6281581"><ele>1.6666666666666665</ele><time>2026-05-02T07:21:38.848Z</time></trkpt><trkpt lat="45.7793954" lon="12.6279033"><ele>1.3333333333333333</ele><time>2026-05-02T07:21:39.848Z</time></trkpt><trkpt lat="45.7793175" lon="12.627651"><ele>1.0</ele><time>2026-05-02T07:21:40.848Z</time></trkpt><trkpt lat="45.7792459" lon="12.6274119"><ele>2.0</ele><time>2026-05-02T07:21:41.848Z</time></trkpt><trkpt lat="45.7791744" lon="12.6271858"><ele>3.0</ele><time>2026-05-02T07:21:42.848Z</time></trkpt><trkpt lat="45.7791084" lon="12.6269822"><ele>4.0</ele><time>2026-05-02T07:21:43.849Z</time></trkpt><trkpt lat="45.7790445" lon="12.6267885"><ele>4.0</ele><time>2026-05-02T07:21:44.848Z</time></trkpt><trkpt lat="45.7789827" lon="12.6265901"><ele>4.0</ele><time>2026-05-02T07:21:45.849Z</time></trkpt><trkpt lat="45.7789209" lon="12.6263904"><ele>4.0</ele><time>2026-05-02T07:21:46.849Z</time></trkpt><trkpt lat="45.7788603" lon="12.6262056"><ele>4.0</ele><time>2026-05-02T07:21:47.848Z</time></trkpt><trkpt lat="45.7788053" lon="12.6260348"><ele>4.0</ele><time>2026-05-02T07:21:48.848Z</time></trkpt><trkpt lat="45.7787516" lon="12.6258621"><ele>4.0</ele><time>2026-05-02T07:21:49.848Z</time></trkpt><trkpt lat="45.7786923" lon="12.6256874"><ele>4.0</ele><time>2026-05-02T07:21:50.849Z</time></trkpt><trkpt lat="45.7786348" lon="12.6255065"><ele>4.0</ele><time>2026-05-02T07:21:51.849Z</time></trkpt><trkpt lat="45.7785784" lon="12.6253204"><ele>4.25</ele><time>2026-05-02T07:21:52.848Z</time></trkpt><trkpt lat="45.7785199" lon="12.6251332"><ele>4.5</ele><time>2026-05-02T07:21:53.849Z</time></trkpt><trkpt lat="45.7784626" lon="12.624938"><ele>4.75</ele><time>2026-05-02T07:21:54.849Z</time></trkpt><trkpt lat="45.7784027" lon="12.6247415"><ele>5.0</ele><time>2026-05-02T07:21:55.848Z</time></trkpt><trkpt lat="45.7783415" lon="12.6245353"><ele>5.0</ele><time>2026-05-02T07:21:56.848Z</time></trkpt><trkpt lat="45.7782743" lon="12.6243193"><ele>5.0</ele><time>2026-05-02T07:21:57.848Z</time></trkpt><trkpt lat="45.7782003" lon="12.6241082"><ele>5.0</ele><time>2026-05-02T07:21:58.849Z</time></trkpt><trkpt lat="45.7781306" lon="12.6238903"><ele>5.0</ele><time>2026-05-02T07:21:59.849Z</time></trkpt><trkpt lat="45.7780603" lon="12.6236773"><ele>5.0</ele><time>2026-05-02T07:22:00.848Z</time></trkpt><trkpt lat="45.7779901" lon="12.6234681"><ele>5.0</ele><time>2026-05-02T07:22:01.848Z</time></trkpt><trkpt lat="45.7779173" lon="12.6232747"><ele>5.0</ele><time>2026-05-02T07:22:02.849Z</time></trkpt><trkpt lat="45.7778471" lon="12.6230874"><ele>5.0</ele><time>2026-05-02T07:22:03.849Z</time></trkpt><trkpt lat="45.7777782" lon="12.6229038"><ele>5.0</ele><time>2026-05-02T07:22:04.848Z</time></trkpt><trkpt lat="45.7777104" lon="12.6227216"><ele>5.0</ele><time>2026-05-02T07:22:05.849Z</time></trkpt><trkpt lat="45.7776509" lon="12.6225377"><ele>5.0</ele><time>2026-05-02T07:22:06.849Z</time></trkpt><trkpt lat="45.7775978" lon="12.6223521"><ele>5.0</ele><time>2026-05-02T07:22:07.849Z</time></trkpt><trkpt lat="45.7775625" lon="12.6221604"><ele>5.0</ele><time>2026-05-02T07:22:08.848Z</time></trkpt><trkpt lat="45.7775497" lon="12.6219623"><ele>5.0</ele><time>2026-05-02T07:22:09.849Z</time></trkpt><trkpt lat="45.7775544" lon="12.6217564"><ele>5.0</ele><time>2026-05-02T07:22:10.849Z</time></trkpt><trkpt lat="45.7775749" lon="12.621547"><ele>5.0</ele><time>2026-05-02T07:22:11.849Z</time></trkpt><trkpt lat="45.7775996" lon="12.6213354"><ele>5.0</ele><time>2026-05-02T07:22:12.849Z</time></trkpt><trkpt lat="45.777628" lon="12.6211181"><ele>5.0</ele><time>2026-05-02T07:22:13.848Z</time></trkpt><trkpt lat="45.7776578" lon="12.6208863"><ele>5.0</ele><time>2026-05-02T07:22:14.848Z</time></trkpt><trkpt lat="45.7776901" lon="12.6206335"><ele>5.0</ele><time>2026-05-02T07:22:15.848Z</time></trkpt><trkpt lat="45.7777233" lon="12.6203649"><ele>6.333333333333334</ele><time>2026-05-02T07:22:16.848Z</time></trkpt><trkpt lat="45.7777563" lon="12.6200953"><ele>7.666666666666667</ele><time>2026-05-02T07:22:17.848Z</time></trkpt><trkpt lat="45.7777895" lon="12.6198154"><ele>9.0</ele><time>2026-05-02T07:22:18.849Z</time></trkpt><trkpt lat="45.7778282" lon="12.6195406"><ele>9.0</ele><time>2026-05-02T07:22:19.849Z</time></trkpt><trkpt lat="45.7778638" lon="12.6192832"><ele>9.0</ele><time>2026-05-02T07:22:20.849Z</time></trkpt><trkpt lat="45.7778977" lon="12.6190364"><ele>9.0</ele><time>2026-05-02T07:22:21.849Z</time></trkpt><trkpt lat="45.7779266" lon="12.6187909"><ele>8.0</ele><time>2026-05-02T07:22:22.849Z</time></trkpt><trkpt lat="45.7779601" lon="12.6185373"><ele>7.0</ele><time>2026-05-02T07:22:23.848Z</time></trkpt><trkpt lat="45.7779921" lon="12.618284"><ele>6.0</ele><time>2026-05-02T07:22:24.849Z</time></trkpt><trkpt lat="45.7780248" lon="12.6180404"><ele>6.333333333333334</ele><time>2026-05-02T07:22:25.849Z</time></trkpt><trkpt lat="45.7780586" lon="12.6177928"><ele>6.666666666666667</ele><time>2026-05-02T07:22:26.849Z</time></trkpt><trkpt lat="45.7780951" lon="12.6175504"><ele>7.0</ele><time>2026-05-02T07:22:27.849Z</time></trkpt><trkpt lat="45.7781282" lon="12.617307"><ele>7.0</ele><time>2026-05-02T07:22:28.849Z</time></trkpt><trkpt lat="45.7781618" lon="12.6170605"><ele>7.0</ele><time>2026-05-02T07:22:29.849Z</time></trkpt><trkpt lat="45.7781948" lon="12.6168195"><ele>7.0</ele><time>2026-05-02T07:22:30.848Z</time></trkpt><trkpt lat="45.7782263" lon="12.6165973"><ele>6.75</ele><time>2026-05-02T07:22:31.849Z</time></trkpt><trkpt lat="45.7782547" lon="12.6163882"><ele>6.5</ele><time>2026-05-02T07:22:32.848Z</time></trkpt><trkpt lat="45.7782813" lon="12.6161919"><ele>6.25</ele><time>2026-05-02T07:22:33.849Z</time></trkpt><trkpt lat="45.7783049" lon="12.6160053"><ele>6.0</ele><time>2026-05-02T07:22:34.849Z</time></trkpt><trkpt lat="45.7783311" lon="12.6158078"><ele>6.0</ele><time>2026-05-02T07:22:35.849Z</time></trkpt><trkpt lat="45.7783582" lon="12.6156148"><ele>6.0</ele><time>2026-05-02T07:22:36.849Z</time></trkpt><trkpt lat="45.7783889" lon="12.615418"><ele>6.0</ele><time>2026-05-02T07:22:37.849Z</time></trkpt><trkpt lat="45.7784165" lon="12.6152141"><ele>6.0</ele><time>2026-05-02T07:22:38.849Z</time></trkpt><trkpt lat="45.7784436" lon="12.6150043"><ele>6.333333333333334</ele><time>2026-05-02T07:22:39.85Z</time></trkpt><trkpt lat="45.778475" lon="12.6147732"><ele>6.666666666666667</ele><time>2026-05-02T07:22:40.849Z</time></trkpt><trkpt lat="45.7785134" lon="12.6145151"><ele>7.0</ele><time>2026-05-02T07:22:41.85Z</time></trkpt><trkpt lat="45.7785496" lon="12.6142517"><ele>6.0</ele><time>2026-05-02T07:22:42.849Z</time></trkpt><trkpt lat="45.7785777" lon="12.6140013"><ele>5.0</ele><time>2026-05-02T07:22:43.85Z</time></trkpt><trkpt lat="45.7786148" lon="12.6137515"><ele>4.0</ele><time>2026-05-02T07:22:44.85Z</time></trkpt><trkpt lat="45.7786481" lon="12.6134872"><ele>4.0</ele><time>2026-05-02T07:22:45.849Z</time></trkpt><trkpt lat="45.7786835" lon="12.6132179"><ele>4.0</ele><time>2026-05-02T07:22:46.849Z</time></trkpt><trkpt lat="45.7787221" lon="12.6129477"><ele>4.0</ele><time>2026-05-02T07:22:47.849Z</time></trkpt><trkpt lat="45.7787655" lon="12.6126716"><ele>4.333333333333333</ele><time>2026-05-02T07:22:48.85Z</time></trkpt><trkpt lat="45.7788009" lon="12.6123859"><ele>4.666666666666667</ele><time>2026-05-02T07:22:49.85Z</time></trkpt><trkpt lat="45.7788426" lon="12.6121003"><ele>5.0</ele><time>2026-05-02T07:22:50.849Z</time></trkpt><trkpt lat="45.7788807" lon="12.6118112"><ele>5.0</ele><time>2026-05-02T07:22:51.85Z</time></trkpt><trkpt lat="45.7789216" lon="12.6115276"><ele>5.0</ele><time>2026-05-02T07:22:52.849Z</time></trkpt><trkpt lat="45.7789604" lon="12.6112425"><ele>5.0</ele><time>2026-05-02T07:22:53.85Z</time></trkpt><trkpt lat="45.7789975" lon="12.6109553"><ele>5.0</ele><time>2026-05-02T07:22:54.85Z</time></trkpt><trkpt lat="45.7790374" lon="12.6106759"><ele>5.0</ele><time>2026-05-02T07:22:55.85Z</time></trkpt><trkpt lat="45.7790793" lon="12.610398"><ele>5.0</ele><time>2026-05-02T07:22:56.849Z</time></trkpt><trkpt lat="45.7791126" lon="12.6101172"><ele>5.0</ele><time>2026-05-02T07:22:57.849Z</time></trkpt><trkpt lat="45.7791492" lon="12.6098272"><ele>5.0</ele><time>2026-05-02T07:22:58.849Z</time></trkpt><trkpt lat="45.7791923" lon="12.6095322"><ele>5.0</ele><time>2026-05-02T07:22:59.849Z</time></trkpt><trkpt lat="45.7792351" lon="12.6092334"><ele>5.333333333333334</ele><time>2026-05-02T07:23:00.85Z</time></trkpt><trkpt lat="45.7792706" lon="12.6089356"><ele>5.666666666666667</ele><time>2026-05-02T07:23:01.85Z</time></trkpt><trkpt lat="45.7793082" lon="12.6086306"><ele>6.0</ele><time>2026-05-02T07:23:02.85Z</time></trkpt><trkpt lat="45.7793503" lon="12.6083321"><ele>6.0</ele><time>2026-05-02T07:23:03.849Z</time></trkpt><trkpt lat="45.7793903" lon="12.6080395"><ele>6.0</ele><time>2026-05-02T07:23:04.849Z</time></trkpt><trkpt lat="45.7794274" lon="12.6077511"><ele>6.0</ele><time>2026-05-02T07:23:05.849Z</time></trkpt><trkpt lat="45.7794659" lon="12.6074588"><ele>5.666666666666667</ele><time>2026-05-02T07:23:06.849Z</time></trkpt><trkpt lat="45.7795053" lon="12.6071738"><ele>5.333333333333334</ele><time>2026-05-02T07:23:07.849Z</time></trkpt><trkpt lat="45.7795455" lon="12.6068931"><ele>5.0</ele><time>2026-05-02T07:23:08.849Z</time></trkpt><trkpt lat="45.7795823" lon="12.6066085"><ele>4.666666666666667</ele><time>2026-05-02T07:23:09.849Z</time></trkpt><trkpt lat="45.7796202" lon="12.6063213"><ele>4.333333333333333</ele><time>2026-05-02T07:23:10.85Z</time></trkpt><trkpt lat="45.7796605" lon="12.6060287"><ele>4.0</ele><time>2026-05-02T07:23:11.849Z</time></trkpt><trkpt lat="45.7797015" lon="12.605738"><ele>4.0</ele><time>2026-05-02T07:23:12.849Z</time></trkpt><trkpt lat="45.7797417" lon="12.6054423"><ele>4.0</ele><time>2026-05-02T07:23:13.849Z</time></trkpt><trkpt lat="45.7797787" lon="12.6051433"><ele>4.0</ele><time>2026-05-02T07:23:14.849Z</time></trkpt><trkpt lat="45.7798225" lon="12.6048479"><ele>4.0</ele><time>2026-05-02T07:23:15.849Z</time></trkpt><trkpt lat="45.7798627" lon="12.6045466"><ele>4.0</ele><time>2026-05-02T07:23:16.85Z</time></trkpt><trkpt lat="45.7799009" lon="12.604243"><ele>4.0</ele><time>2026-05-02T07:23:17.85Z</time></trkpt><trkpt lat="45.7799416" lon="12.6039362"><ele>4.333333333333333</ele><time>2026-05-02T07:23:18.85Z</time></trkpt><trkpt lat="45.7799833" lon="12.60363"><ele>4.666666666666667</ele><time>2026-05-02T07:23:19.849Z</time></trkpt><trkpt lat="45.7800274" lon="12.6033247"><ele>5.0</ele><time>2026-05-02T07:23:20.849Z</time></trkpt><trkpt lat="45.7800732" lon="12.6030223"><ele>5.333333333333334</ele><time>2026-05-02T07:23:21.85Z</time></trkpt><trkpt lat="45.7801249" lon="12.6027254"><ele>5.666666666666667</ele><time>2026-05-02T07:23:22.85Z</time></trkpt><trkpt lat="45.7801742" lon="12.6024349"><ele>6.0</ele><time>2026-05-02T07:23:23.85Z</time></trkpt><trkpt lat="45.7802164" lon="12.6021492"><ele>6.0</ele><time>2026-05-02T07:23:24.849Z</time></trkpt><trkpt lat="45.7802554" lon="12.6018643"><ele>6.0</ele><time>2026-05-02T07:23:25.85Z</time></trkpt><trkpt lat="45.7802882" lon="12.6015851"><ele>6.0</ele><time>2026-05-02T07:23:26.849Z</time></trkpt><trkpt lat="45.780328" lon="12.601299"><ele>6.333333333333334</ele><time>2026-05-02T07:23:27.849Z</time></trkpt><trkpt lat="45.780369" lon="12.601012"><ele>6.666666666666667</ele><time>2026-05-02T07:23:28.849Z</time></trkpt><trkpt lat="45.7804099" lon="12.6007327"><ele>7.0</ele><time>2026-05-02T07:23:29.849Z</time></trkpt><trkpt lat="45.7804459" lon="12.6004485"><ele>7.0</ele><time>2026-05-02T07:23:30.849Z</time></trkpt><trkpt lat="45.7804773" lon="12.6001665"><ele>7.0</ele><time>2026-05-02T07:23:31.849Z</time></trkpt><trkpt lat="45.7805051" lon="12.5998845"><ele>7.0</ele><time>2026-05-02T07:23:32.85Z</time></trkpt><trkpt lat="45.7805294" lon="12.5995926"><ele>7.333333333333334</ele><time>2026-05-02T07:23:33.85Z</time></trkpt><trkpt lat="45.7805452" lon="12.5993126"><ele>7.666666666666666</ele><time>2026-05-02T07:23:34.849Z</time></trkpt><trkpt lat="45.7805564" lon="12.599031"><ele>8.0</ele><time>2026-05-02T07:23:35.849Z</time></trkpt><trkpt lat="45.7805672" lon="12.5987389"><ele>7.0</ele><time>2026-05-02T07:23:36.85Z</time></trkpt><trkpt lat="45.7805785" lon="12.5984548"><ele>6.0</ele><time>2026-05-02T07:23:37.849Z</time></trkpt><trkpt lat="45.7805827" lon="12.598165"><ele>5.0</ele><time>2026-05-02T07:23:38.85Z</time></trkpt><trkpt lat="45.7805909" lon="12.5978731"><ele>5.0</ele><time>2026-05-02T07:23:39.849Z</time></trkpt><trkpt lat="45.7806012" lon="12.5975806"><ele>5.0</ele><time>2026-05-02T07:23:40.851Z</time></trkpt><trkpt lat="45.7806116" lon="12.5972891"><ele>5.0</ele><time>2026-05-02T07:23:41.85Z</time></trkpt><trkpt lat="45.7806206" lon="12.5969967"><ele>5.0</ele><time>2026-05-02T07:23:42.85Z</time></trkpt><trkpt lat="45.780639" lon="12.596706"><ele>5.0</ele><time>2026-05-02T07:23:43.851Z</time></trkpt><trkpt lat="45.7806693" lon="12.5964183"><ele>5.0</ele><time>2026-05-02T07:23:44.851Z</time></trkpt><trkpt lat="45.7806975" lon="12.5961294"><ele>5.0</ele><time>2026-05-02T07:23:45.85Z</time></trkpt><trkpt lat="45.780738" lon="12.5958334"><ele>5.0</ele><time>2026-05-02T07:23:46.85Z</time></trkpt><trkpt lat="45.7807734" lon="12.5955345"><ele>5.0</ele><time>2026-05-02T07:23:47.851Z</time></trkpt><trkpt lat="45.7808074" lon="12.5952413"><ele>5.0</ele><time>2026-05-02T07:23:48.851Z</time></trkpt><trkpt lat="45.7808397" lon="12.5949485"><ele>5.0</ele><time>2026-05-02T07:23:49.851Z</time></trkpt><trkpt lat="45.7808731" lon="12.594656"><ele>5.0</ele><time>2026-05-02T07:23:50.851Z</time></trkpt><trkpt lat="45.7809071" lon="12.5943801"><ele>5.333333333333334</ele><time>2026-05-02T07:23:51.851Z</time></trkpt><trkpt lat="45.7809359" lon="12.5941143"><ele>5.666666666666667</ele><time>2026-05-02T07:23:52.85Z</time></trkpt><trkpt lat="45.780968" lon="12.5938507"><ele>6.0</ele><time>2026-05-02T07:23:53.851Z</time></trkpt><trkpt lat="45.7810027" lon="12.5935913"><ele>6.333333333333334</ele><time>2026-05-02T07:23:54.851Z</time></trkpt><trkpt lat="45.7810367" lon="12.5933321"><ele>6.666666666666667</ele><time>2026-05-02T07:23:55.85Z</time></trkpt><trkpt lat="45.7810719" lon="12.5930753"><ele>7.0</ele><time>2026-05-02T07:23:56.85Z</time></trkpt><trkpt lat="45.7811024" lon="12.592828"><ele>7.0</ele><time>2026-05-02T07:23:57.851Z</time></trkpt><trkpt lat="45.7811316" lon="12.5925773"><ele>7.0</ele><time>2026-05-02T07:23:58.851Z</time></trkpt><trkpt lat="45.7811606" lon="12.592322"><ele>7.0</ele><time>2026-05-02T07:23:59.851Z</time></trkpt><trkpt lat="45.7811912" lon="12.5920682"><ele>7.333333333333334</ele><time>2026-05-02T07:24:00.851Z</time></trkpt><trkpt lat="45.7812232" lon="12.5918061"><ele>7.666666666666666</ele><time>2026-05-02T07:24:01.85Z</time></trkpt><trkpt lat="45.7812528" lon="12.5915439"><ele>8.0</ele><time>2026-05-02T07:24:02.85Z</time></trkpt><trkpt lat="45.7812874" lon="12.5912804"><ele>7.666666666666666</ele><time>2026-05-02T07:24:03.85Z</time></trkpt><trkpt lat="45.7813208" lon="12.591002"><ele>7.333333333333334</ele><time>2026-05-02T07:24:04.85Z</time></trkpt><trkpt lat="45.7813571" lon="12.5907127"><ele>7.0</ele><time>2026-05-02T07:24:05.851Z</time></trkpt><trkpt lat="45.7813951" lon="12.5904"><ele>7.5</ele><time>2026-05-02T07:24:06.851Z</time></trkpt><trkpt lat="45.7814347" lon="12.5900747"><ele>8.0</ele><time>2026-05-02T07:24:07.851Z</time></trkpt><trkpt lat="45.7814786" lon="12.5897313"><ele>7.5</ele><time>2026-05-02T07:24:08.85Z</time></trkpt><trkpt lat="45.7815231" lon="12.5893833"><ele>7.0</ele><time>2026-05-02T07:24:09.851Z</time></trkpt><trkpt lat="45.7815709" lon="12.589031"><ele>7.0</ele><time>2026-05-02T07:24:10.85Z</time></trkpt><trkpt lat="45.7816187" lon="12.5886734"><ele>7.0</ele><time>2026-05-02T07:24:11.851Z</time></trkpt><trkpt lat="45.7816631" lon="12.5883269"><ele>7.0</ele><time>2026-05-02T07:24:12.851Z</time></trkpt><trkpt lat="45.7817078" lon="12.5879842"><ele>7.0</ele><time>2026-05-02T07:24:13.851Z</time></trkpt><trkpt lat="45.781755" lon="12.587654"><ele>7.0</ele><time>2026-05-02T07:24:14.85Z</time></trkpt><trkpt lat="45.7817962" lon="12.587329"><ele>7.0</ele><time>2026-05-02T07:24:15.851Z</time></trkpt><trkpt lat="45.7818355" lon="12.5870108"><ele>7.0</ele><time>2026-05-02T07:24:16.85Z</time></trkpt><trkpt lat="45.7818725" lon="12.5867023"><ele>7.0</ele><time>2026-05-02T07:24:17.851Z</time></trkpt><trkpt lat="45.7819077" lon="12.5863994"><ele>7.0</ele><time>2026-05-02T07:24:18.85Z</time></trkpt><trkpt lat="45.7819419" lon="12.5861003"><ele>6.666666666666667</ele><time>2026-05-02T07:24:19.851Z</time></trkpt><trkpt lat="45.7819787" lon="12.5858102"><ele>6.333333333333334</ele><time>2026-05-02T07:24:20.851Z</time></trkpt><trkpt lat="45.7820107" lon="12.5855098"><ele>6.0</ele><time>2026-05-02T07:24:21.85Z</time></trkpt><trkpt lat="45.7820401" lon="12.5852198"><ele>5.333333333333333</ele><time>2026-05-02T07:24:22.851Z</time></trkpt><trkpt lat="45.7820689" lon="12.5849424"><ele>4.666666666666666</ele><time>2026-05-02T07:24:23.85Z</time></trkpt><trkpt lat="45.7820944" lon="12.5846714"><ele>4.0</ele><time>2026-05-02T07:24:24.851Z</time></trkpt><trkpt lat="45.7821306" lon="12.5843945"><ele>4.0</ele><time>2026-05-02T07:24:25.85Z</time></trkpt><trkpt lat="45.78217" lon="12.5841157"><ele>4.0</ele><time>2026-05-02T07:24:26.85Z</time></trkpt><trkpt lat="45.7822023" lon="12.5838394"><ele>4.0</ele><time>2026-05-02T07:24:27.85Z</time></trkpt><trkpt lat="45.7822362" lon="12.5835588"><ele>4.333333333333333</ele><time>2026-05-02T07:24:28.851Z</time></trkpt><trkpt lat="45.7822706" lon="12.583285"><ele>4.666666666666667</ele><time>2026-05-02T07:24:29.85Z</time></trkpt><trkpt lat="45.7823056" lon="12.5830132"><ele>5.0</ele><time>2026-05-02T07:24:30.851Z</time></trkpt><trkpt lat="45.7823408" lon="12.5827463"><ele>5.0</ele><time>2026-05-02T07:24:31.85Z</time></trkpt><trkpt lat="45.7823766" lon="12.5824827"><ele>5.0</ele><time>2026-05-02T07:24:32.85Z</time></trkpt><trkpt lat="45.7824081" lon="12.5822289"><ele>5.0</ele><time>2026-05-02T07:24:33.851Z</time></trkpt><trkpt lat="45.782439" lon="12.581992"><ele>5.666666666666667</ele><time>2026-05-02T07:24:34.851Z</time></trkpt><trkpt lat="45.7824654" lon="12.5817655"><ele>6.333333333333334</ele><time>2026-05-02T07:24:35.851Z</time></trkpt><trkpt lat="45.7824929" lon="12.5815422"><ele>7.0</ele><time>2026-05-02T07:24:36.852Z</time></trkpt><trkpt lat="45.7825224" lon="12.5813212"><ele>7.0</ele><time>2026-05-02T07:24:37.852Z</time></trkpt><trkpt lat="45.7825498" lon="12.5811031"><ele>7.0</ele><time>2026-05-02T07:24:38.851Z</time></trkpt><trkpt lat="45.7825743" lon="12.5808925"><ele>7.0</ele><time>2026-05-02T07:24:39.85Z</time></trkpt><trkpt lat="45.7825962" lon="12.5806728"><ele>7.0</ele><time>2026-05-02T07:24:40.851Z</time></trkpt><trkpt lat="45.7826259" lon="12.5804612"><ele>7.0</ele><time>2026-05-02T07:24:41.851Z</time></trkpt><trkpt lat="45.782652" lon="12.5802413"><ele>7.0</ele><time>2026-05-02T07:24:42.851Z</time></trkpt><trkpt lat="45.7826825" lon="12.5800191"><ele>7.0</ele><time>2026-05-02T07:24:43.852Z</time></trkpt><trkpt lat="45.7827101" lon="12.5797887"><ele>7.0</ele><time>2026-05-02T07:24:44.851Z</time></trkpt><trkpt lat="45.7827409" lon="12.5795458"><ele>7.0</ele><time>2026-05-02T07:24:45.851Z</time></trkpt><trkpt lat="45.7827712" lon="12.5792989"><ele>7.0</ele><time>2026-05-02T07:24:46.852Z</time></trkpt><trkpt lat="45.7828107" lon="12.5790551"><ele>7.0</ele><time>2026-05-02T07:24:47.852Z</time></trkpt><trkpt lat="45.7828597" lon="12.5788137"><ele>7.0</ele><time>2026-05-02T07:24:48.852Z</time></trkpt><trkpt lat="45.7828956" lon="12.5785761"><ele>7.0</ele><time>2026-05-02T07:24:49.851Z</time></trkpt><trkpt lat="45.7829177" lon="12.5783615"><ele>7.0</ele><time>2026-05-02T07:24:50.852Z</time></trkpt><trkpt lat="45.7829393" lon="12.5781821"><ele>7.0</ele><time>2026-05-02T07:24:51.851Z</time></trkpt><trkpt lat="45.7829585" lon="12.57804"><ele>7.0</ele><time>2026-05-02T07:24:52.852Z</time></trkpt><trkpt lat="45.782971" lon="12.5779055"><ele>6.6</ele><time>2026-05-02T07:24:53.852Z</time></trkpt><trkpt lat="45.7829906" lon="12.5777801"><ele>6.199999999999999</ele><time>2026-05-02T07:24:54.851Z</time></trkpt><trkpt lat="45.7830083" lon="12.5776495"><ele>5.8</ele><time>2026-05-02T07:24:55.851Z</time></trkpt><trkpt lat="45.7830277" lon="12.5775036"><ele>5.4</ele><time>2026-05-02T07:24:56.852Z</time></trkpt><trkpt lat="45.7830516" lon="12.5773417"><ele>5.0</ele><time>2026-05-02T07:24:57.852Z</time></trkpt><trkpt lat="45.7830712" lon="12.5771763"><ele>4.75</ele><time>2026-05-02T07:24:58.851Z</time></trkpt><trkpt lat="45.7830933" lon="12.576995"><ele>4.5</ele><time>2026-05-02T07:24:59.851Z</time></trkpt><trkpt lat="45.7831184" lon="12.5768072"><ele>4.25</ele><time>2026-05-02T07:25:00.852Z</time></trkpt><trkpt lat="45.7831433" lon="12.5765998"><ele>4.0</ele><time>2026-05-02T07:25:01.851Z</time></trkpt><trkpt lat="45.7831614" lon="12.5763985"><ele>4.0</ele><time>2026-05-02T07:25:02.852Z</time></trkpt><trkpt lat="45.7831735" lon="12.5761871"><ele>4.0</ele><time>2026-05-02T07:25:03.852Z</time></trkpt><trkpt lat="45.7831929" lon="12.5759753"><ele>4.0</ele><time>2026-05-02T07:25:04.852Z</time></trkpt><trkpt lat="45.7832191" lon="12.5757609"><ele>4.0</ele><time>2026-05-02T07:25:05.851Z</time></trkpt><trkpt lat="45.7832447" lon="12.5755443"><ele>4.666666666666666</ele><time>2026-05-02T07:25:06.852Z</time></trkpt><trkpt lat="45.7832706" lon="12.57533"><ele>5.333333333333333</ele><time>2026-05-02T07:25:07.851Z</time></trkpt><trkpt lat="45.7832999" lon="12.5751059"><ele>6.0</ele><time>2026-05-02T07:25:08.851Z</time></trkpt><trkpt lat="45.7833323" lon="12.5748703"><ele>6.0</ele><time>2026-05-02T07:25:09.852Z</time></trkpt><trkpt lat="45.7833597" lon="12.5746225"><ele>6.0</ele><time>2026-05-02T07:25:10.851Z</time></trkpt><trkpt lat="45.7833879" lon="12.5743614"><ele>6.0</ele><time>2026-05-02T07:25:11.851Z</time></trkpt><trkpt lat="45.7834119" lon="12.574079"><ele>5.666666666666667</ele><time>2026-05-02T07:25:12.851Z</time></trkpt><trkpt lat="45.7834413" lon="12.5737996"><ele>5.333333333333334</ele><time>2026-05-02T07:25:13.852Z</time></trkpt><trkpt lat="45.7834718" lon="12.5735218"><ele>5.0</ele><time>2026-05-02T07:25:14.851Z</time></trkpt><trkpt lat="45.7834995" lon="12.5732283"><ele>4.5</ele><time>2026-05-02T07:25:15.851Z</time></trkpt><trkpt lat="45.7835216" lon="12.5729081"><ele>4.0</ele><time>2026-05-02T07:25:16.851Z</time></trkpt><trkpt lat="45.7835525" lon="12.5725478"><ele>5.0</ele><time>2026-05-02T07:25:17.851Z</time></trkpt><trkpt lat="45.7836002" lon="12.5721774"><ele>6.0</ele><time>2026-05-02T07:25:18.851Z</time></trkpt><trkpt lat="45.7836497" lon="12.5718069"><ele>6.0</ele><time>2026-05-02T07:25:19.851Z</time></trkpt><trkpt lat="45.7836889" lon="12.571458"><ele>6.0</ele><time>2026-05-02T07:25:20.852Z</time></trkpt><trkpt lat="45.7837216" lon="12.5711276"><ele>6.0</ele><time>2026-05-02T07:25:21.852Z</time></trkpt><trkpt lat="45.7837571" lon="12.5708067"><ele>6.0</ele><time>2026-05-02T07:25:22.852Z</time></trkpt><trkpt lat="45.783788" lon="12.5704927"><ele>6.0</ele><time>2026-05-02T07:25:23.851Z</time></trkpt><trkpt lat="45.783817" lon="12.5701805"><ele>6.666666666666666</ele><time>2026-05-02T07:25:24.851Z</time></trkpt><trkpt lat="45.7838527" lon="12.5698714"><ele>7.333333333333333</ele><time>2026-05-02T07:25:25.851Z</time></trkpt><trkpt lat="45.7838888" lon="12.5695726"><ele>8.0</ele><time>2026-05-02T07:25:26.851Z</time></trkpt><trkpt lat="45.7839212" lon="12.5692706"><ele>8.333333333333332</ele><time>2026-05-02T07:25:27.852Z</time></trkpt><trkpt lat="45.7839524" lon="12.568965"><ele>8.666666666666666</ele><time>2026-05-02T07:25:28.851Z</time></trkpt><trkpt lat="45.7839783" lon="12.5686604"><ele>9.0</ele><time>2026-05-02T07:25:29.852Z</time></trkpt><trkpt lat="45.784007" lon="12.5683548"><ele>8.0</ele><time>2026-05-02T07:25:30.851Z</time></trkpt><trkpt lat="45.7840379" lon="12.568047"><ele>7.0</ele><time>2026-05-02T07:25:31.852Z</time></trkpt><trkpt lat="45.7840702" lon="12.5677493"><ele>6.0</ele><time>2026-05-02T07:25:32.851Z</time></trkpt><trkpt lat="45.7841014" lon="12.5674638"><ele>6.0</ele><time>2026-05-02T07:25:33.852Z</time></trkpt><trkpt lat="45.7841337" lon="12.5671787"><ele>6.0</ele><time>2026-05-02T07:25:34.852Z</time></trkpt><trkpt lat="45.7841598" lon="12.5668999"><ele>6.0</ele><time>2026-05-02T07:25:35.852Z</time></trkpt><trkpt lat="45.7841865" lon="12.5666324"><ele>6.0</ele><time>2026-05-02T07:25:36.851Z</time></trkpt><trkpt lat="45.7842098" lon="12.5663852"><ele>6.0</ele><time>2026-05-02T07:25:37.851Z</time></trkpt><trkpt lat="45.7842431" lon="12.5661415"><ele>6.0</ele><time>2026-05-02T07:25:38.852Z</time></trkpt><trkpt lat="45.7842795" lon="12.5658853"><ele>6.0</ele><time>2026-05-02T07:25:39.853Z</time></trkpt><trkpt lat="45.7843122" lon="12.5656234"><ele>6.0</ele><time>2026-05-02T07:25:40.852Z</time></trkpt><trkpt lat="45.7843402" lon="12.5653562"><ele>6.0</ele><time>2026-05-02T07:25:41.851Z</time></trkpt><trkpt lat="45.7843693" lon="12.5650929"><ele>6.0</ele><time>2026-05-02T07:25:42.851Z</time></trkpt><trkpt lat="45.7844005" lon="12.5648238"><ele>6.0</ele><time>2026-05-02T07:25:43.853Z</time></trkpt><trkpt lat="45.7844289" lon="12.5645573"><ele>6.0</ele><time>2026-05-02T07:25:44.853Z</time></trkpt><trkpt lat="45.784452" lon="12.5642931"><ele>6.0</ele><time>2026-05-02T07:25:45.852Z</time></trkpt><trkpt lat="45.784479" lon="12.5640264"><ele>6.0</ele><time>2026-05-02T07:25:46.853Z</time></trkpt><trkpt lat="45.7845067" lon="12.5637628"><ele>6.0</ele><time>2026-05-02T07:25:47.853Z</time></trkpt><trkpt lat="45.7845305" lon="12.5634946"><ele>6.0</ele><time>2026-05-02T07:25:48.853Z</time></trkpt><trkpt lat="45.7845492" lon="12.5632254"><ele>6.0</ele><time>2026-05-02T07:25:49.853Z</time></trkpt><trkpt lat="45.7845717" lon="12.5629422"><ele>6.0</ele><time>2026-05-02T07:25:50.853Z</time></trkpt><trkpt lat="45.7846039" lon="12.562655"><ele>6.333333333333334</ele><time>2026-05-02T07:25:51.853Z</time></trkpt><trkpt lat="45.7846349" lon="12.5623721"><ele>6.666666666666667</ele><time>2026-05-02T07:25:52.853Z</time></trkpt><trkpt lat="45.7846653" lon="12.5620867"><ele>7.0</ele><time>2026-05-02T07:25:53.852Z</time></trkpt><trkpt lat="45.7846929" lon="12.561802"><ele>7.333333333333334</ele><time>2026-05-02T07:25:54.852Z</time></trkpt><trkpt lat="45.7847208" lon="12.561515"><ele>7.666666666666666</ele><time>2026-05-02T07:25:55.852Z</time></trkpt><trkpt lat="45.7847525" lon="12.5612316"><ele>8.0</ele><time>2026-05-02T07:25:56.853Z</time></trkpt><trkpt lat="45.7847864" lon="12.5609521"><ele>8.0</ele><time>2026-05-02T07:25:57.853Z</time></trkpt><trkpt lat="45.7848241" lon="12.5606746"><ele>8.0</ele><time>2026-05-02T07:25:58.852Z</time></trkpt><trkpt lat="45.7848599" lon="12.5603928"><ele>8.0</ele><time>2026-05-02T07:25:59.853Z</time></trkpt><trkpt lat="45.7848949" lon="12.5601117"><ele>7.333333333333333</ele><time>2026-05-02T07:26:00.853Z</time></trkpt><trkpt lat="45.7849237" lon="12.5598295"><ele>6.666666666666666</ele><time>2026-05-02T07:26:01.852Z</time></trkpt><trkpt lat="45.7849495" lon="12.5595494"><ele>6.0</ele><time>2026-05-02T07:26:02.853Z</time></trkpt><trkpt lat="45.784974" lon="12.5592758"><ele>6.0</ele><time>2026-05-02T07:26:03.852Z</time></trkpt><trkpt lat="45.7850024" lon="12.558998"><ele>6.0</ele><time>2026-05-02T07:26:04.853Z</time></trkpt><trkpt lat="45.7850307" lon="12.5587477"><ele>6.0</ele><time>2026-05-02T07:26:05.852Z</time></trkpt><trkpt lat="45.7850542" lon="12.5584996"><ele>6.0</ele><time>2026-05-02T07:26:06.852Z</time></trkpt><trkpt lat="45.7850848" lon="12.5582467"><ele>6.0</ele><time>2026-05-02T07:26:07.853Z</time></trkpt><trkpt lat="45.7851087" lon="12.5579902"><ele>6.0</ele><time>2026-05-02T07:26:08.852Z</time></trkpt><trkpt lat="45.7851358" lon="12.557727"><ele>6.333333333333334</ele><time>2026-05-02T07:26:09.852Z</time></trkpt><trkpt lat="45.7851612" lon="12.5574637"><ele>6.666666666666667</ele><time>2026-05-02T07:26:10.853Z</time></trkpt><trkpt lat="45.7851873" lon="12.5572019"><ele>7.0</ele><time>2026-05-02T07:26:11.853Z</time></trkpt><trkpt lat="45.7852123" lon="12.5569477"><ele>7.333333333333334</ele><time>2026-05-02T07:26:12.853Z</time></trkpt><trkpt lat="45.7852389" lon="12.5566916"><ele>7.666666666666666</ele><time>2026-05-02T07:26:13.853Z</time></trkpt><trkpt lat="45.7852667" lon="12.5564336"><ele>8.0</ele><time>2026-05-02T07:26:14.853Z</time></trkpt><trkpt lat="45.7852905" lon="12.5561795"><ele>8.0</ele><time>2026-05-02T07:26:15.853Z</time></trkpt><trkpt lat="45.7853169" lon="12.5559296"><ele>8.0</ele><time>2026-05-02T07:26:16.852Z</time></trkpt><trkpt lat="45.7853425" lon="12.5556931"><ele>8.0</ele><time>2026-05-02T07:26:17.853Z</time></trkpt><trkpt lat="45.785362" lon="12.555474"><ele>8.0</ele><time>2026-05-02T07:26:18.852Z</time></trkpt><trkpt lat="45.7853847" lon="12.5552598"><ele>8.0</ele><time>2026-05-02T07:26:19.853Z</time></trkpt><trkpt lat="45.7854084" lon="12.5550532"><ele>8.0</ele><time>2026-05-02T07:26:20.852Z</time></trkpt><trkpt lat="45.7854289" lon="12.5548579"><ele>8.0</ele><time>2026-05-02T07:26:21.852Z</time></trkpt><trkpt lat="45.7854498" lon="12.5546736"><ele>8.25</ele><time>2026-05-02T07:26:22.852Z</time></trkpt><trkpt lat="45.7854701" lon="12.5544777"><ele>8.5</ele><time>2026-05-02T07:26:23.852Z</time></trkpt><trkpt lat="45.78549" lon="12.5542728"><ele>8.75</ele><time>2026-05-02T07:26:24.852Z</time></trkpt><trkpt lat="45.7855128" lon="12.5540732"><ele>9.0</ele><time>2026-05-02T07:26:25.853Z</time></trkpt><trkpt lat="45.7855287" lon="12.5538787"><ele>8.75</ele><time>2026-05-02T07:26:26.852Z</time></trkpt><trkpt lat="45.7855459" lon="12.5536801"><ele>8.5</ele><time>2026-05-02T07:26:27.853Z</time></trkpt><trkpt lat="45.7855667" lon="12.553477"><ele>8.25</ele><time>2026-05-02T07:26:28.852Z</time></trkpt><trkpt lat="45.7855979" lon="12.5532796"><ele>8.0</ele><time>2026-05-02T07:26:29.852Z</time></trkpt><trkpt lat="45.7856471" lon="12.5530899"><ele>8.0</ele><time>2026-05-02T07:26:30.853Z</time></trkpt><trkpt lat="45.7857137" lon="12.5529038"><ele>8.0</ele><time>2026-05-02T07:26:31.853Z</time></trkpt><trkpt lat="45.7857871" lon="12.5527418"><ele>8.0</ele><time>2026-05-02T07:26:32.853Z</time></trkpt><trkpt lat="45.7858715" lon="12.5525824"><ele>8.0</ele><time>2026-05-02T07:26:33.853Z</time></trkpt><trkpt lat="45.7859617" lon="12.552431"><ele>8.0</ele><time>2026-05-02T07:26:34.852Z</time></trkpt><trkpt lat="45.7860597" lon="12.5522824"><ele>8.0</ele><time>2026-05-02T07:26:35.852Z</time></trkpt><trkpt lat="45.7861689" lon="12.5521347"><ele>8.0</ele><time>2026-05-02T07:26:36.853Z</time></trkpt><trkpt lat="45.7862714" lon="12.5519893"><ele>8.0</ele><time>2026-05-02T07:26:37.852Z</time></trkpt><trkpt lat="45.7863723" lon="12.5518451"><ele>8.0</ele><time>2026-05-02T07:26:38.853Z</time></trkpt><trkpt lat="45.7864606" lon="12.5517184"><ele>8.0</ele><time>2026-05-02T07:26:39.852Z</time></trkpt><trkpt lat="45.7865383" lon="12.551606"><ele>8.0</ele><time>2026-05-02T07:26:40.852Z</time></trkpt><trkpt lat="45.7866056" lon="12.5515004"><ele>8.0</ele><time>2026-05-02T07:26:41.853Z</time></trkpt><trkpt lat="45.7866544" lon="12.5514035"><ele>8.0</ele><time>2026-05-02T07:26:42.852Z</time></trkpt><trkpt lat="45.7866995" lon="12.5513187"><ele>8.0</ele><time>2026-05-02T07:26:43.853Z</time></trkpt><trkpt lat="45.7867581" lon="12.5511931"><ele>7.999999999999999</ele><time>2026-05-02T07:26:45.854Z</time></trkpt><trkpt lat="45.7867777" lon="12.5511022"><ele>8.0</ele><time>2026-05-02T07:27:04.853Z</time></trkpt><trkpt lat="45.786786" lon="12.5510124"><ele>8.0</ele><time>2026-05-02T07:27:06.854Z</time></trkpt><trkpt lat="45.7868179" lon="12.5509155"><ele>7.999999999999999</ele><time>2026-05-02T07:27:08.854Z</time></trkpt><trkpt lat="45.7868587" lon="12.5508436"><ele>8.0</ele><time>2026-05-02T07:27:22.853Z</time></trkpt><trkpt lat="45.7868801" lon="12.5507484"><ele>8.0</ele><time>2026-05-02T07:27:24.853Z</time></trkpt><trkpt lat="45.7868989" lon="12.5506505"><ele>8.25</ele><time>2026-05-02T07:27:25.854Z</time></trkpt><trkpt lat="45.7869264" lon="12.5505342"><ele>8.5</ele><time>2026-05-02T07:27:26.854Z</time></trkpt><trkpt lat="45.7869659" lon="12.5504067"><ele>8.75</ele><time>2026-05-02T07:27:27.854Z</time></trkpt><trkpt lat="45.7870191" lon="12.5502553"><ele>9.0</ele><time>2026-05-02T07:27:28.853Z</time></trkpt><trkpt lat="45.7870952" lon="12.5500719"><ele>9.0</ele><time>2026-05-02T07:27:29.854Z</time></trkpt><trkpt lat="45.7871839" lon="12.5498723"><ele>9.0</ele><time>2026-05-02T07:27:30.853Z</time></trkpt><trkpt lat="45.7872951" lon="12.5496561"><ele>9.0</ele><time>2026-05-02T07:27:31.854Z</time></trkpt><trkpt lat="45.7874058" lon="12.5494393"><ele>9.333333333333334</ele><time>2026-05-02T07:27:32.853Z</time></trkpt><trkpt lat="45.7875082" lon="12.5492178"><ele>9.666666666666668</ele><time>2026-05-02T07:27:33.854Z</time></trkpt><trkpt lat="45.7875915" lon="12.5489841"><ele>10.0</ele><time>2026-05-02T07:27:34.854Z</time></trkpt><trkpt lat="45.7876513" lon="12.5487362"><ele>9.0</ele><time>2026-05-02T07:27:35.854Z</time></trkpt><trkpt lat="45.7876878" lon="12.5484759"><ele>8.0</ele><time>2026-05-02T07:27:36.854Z</time></trkpt><trkpt lat="45.7877026" lon="12.5481993"><ele>7.0</ele><time>2026-05-02T07:27:37.853Z</time></trkpt><trkpt lat="45.7877002" lon="12.5479028"><ele>6.0</ele><time>2026-05-02T07:27:38.854Z</time></trkpt><trkpt lat="45.787689" lon="12.5476061"><ele>5.0</ele><time>2026-05-02T07:27:39.854Z</time></trkpt><trkpt lat="45.7876779" lon="12.5473259"><ele>4.0</ele><time>2026-05-02T07:27:40.853Z</time></trkpt><trkpt lat="45.7876613" lon="12.547062"><ele>4.333333333333333</ele><time>2026-05-02T07:27:41.853Z</time></trkpt><trkpt lat="45.7876477" lon="12.5468086"><ele>4.666666666666667</ele><time>2026-05-02T07:27:42.854Z</time></trkpt><trkpt lat="45.7876306" lon="12.5465575"><ele>5.0</ele><time>2026-05-02T07:27:43.854Z</time></trkpt><trkpt lat="45.7876155" lon="12.5463058"><ele>5.333333333333334</ele><time>2026-05-02T07:27:44.854Z</time></trkpt><trkpt lat="45.7875966" lon="12.5460672"><ele>5.666666666666667</ele><time>2026-05-02T07:27:45.854Z</time></trkpt><trkpt lat="45.7875819" lon="12.5458304"><ele>6.0</ele><time>2026-05-02T07:27:46.855Z</time></trkpt><trkpt lat="45.7875676" lon="12.5455983"><ele>6.0</ele><time>2026-05-02T07:27:47.854Z</time></trkpt><trkpt lat="45.7875548" lon="12.5453747"><ele>6.0</ele><time>2026-05-02T07:27:48.855Z</time></trkpt><trkpt lat="45.7875403" lon="12.5451528"><ele>6.0</ele><time>2026-05-02T07:27:49.854Z</time></trkpt><trkpt lat="45.7875255" lon="12.5449479"><ele>6.0</ele><time>2026-05-02T07:27:50.855Z</time></trkpt><trkpt lat="45.7875141" lon="12.54475"><ele>6.0</ele><time>2026-05-02T07:27:51.854Z</time></trkpt><trkpt lat="45.7875011" lon="12.5445388"><ele>6.0</ele><time>2026-05-02T07:27:52.855Z</time></trkpt><trkpt lat="45.787482" lon="12.5443208"><ele>6.0</ele><time>2026-05-02T07:27:53.854Z</time></trkpt><trkpt lat="45.7874652" lon="12.5440993"><ele>6.0</ele><time>2026-05-02T07:27:54.854Z</time></trkpt><trkpt lat="45.7874473" lon="12.5438719"><ele>6.0</ele><time>2026-05-02T07:27:55.855Z</time></trkpt><trkpt lat="45.787429" lon="12.5436383"><ele>6.0</ele><time>2026-05-02T07:27:56.854Z</time></trkpt><trkpt lat="45.7873991" lon="12.5433791"><ele>5.666666666666667</ele><time>2026-05-02T07:27:57.854Z</time></trkpt><trkpt lat="45.7873653" lon="12.5430984"><ele>5.333333333333334</ele><time>2026-05-02T07:27:58.854Z</time></trkpt><trkpt lat="45.7873357" lon="12.5427892"><ele>5.0</ele><time>2026-05-02T07:27:59.855Z</time></trkpt><trkpt lat="45.7873184" lon="12.5424662"><ele>5.0</ele><time>2026-05-02T07:28:00.855Z</time></trkpt><trkpt lat="45.7873133" lon="12.5421497"><ele>5.0</ele><time>2026-05-02T07:28:01.854Z</time></trkpt><trkpt lat="45.7873046" lon="12.5418375"><ele>5.0</ele><time>2026-05-02T07:28:02.854Z</time></trkpt><trkpt lat="45.7872844" lon="12.5415486"><ele>5.0</ele><time>2026-05-02T07:28:03.855Z</time></trkpt><trkpt lat="45.7872635" lon="12.5412745"><ele>5.0</ele><time>2026-05-02T07:28:04.855Z</time></trkpt><trkpt lat="45.787247" lon="12.5410147"><ele>5.0</ele><time>2026-05-02T07:28:05.855Z</time></trkpt><trkpt lat="45.7872336" lon="12.5407554"><ele>5.666666666666667</ele><time>2026-05-02T07:28:06.854Z</time></trkpt><trkpt lat="45.7872167" lon="12.5404957"><ele>6.333333333333334</ele><time>2026-05-02T07:28:07.855Z</time></trkpt><trkpt lat="45.7872007" lon="12.5402397"><ele>7.0</ele><time>2026-05-02T07:28:08.854Z</time></trkpt><trkpt lat="45.7871919" lon="12.5399766"><ele>7.0</ele><time>2026-05-02T07:28:09.854Z</time></trkpt><trkpt lat="45.7871888" lon="12.5396995"><ele>7.0</ele><time>2026-05-02T07:28:10.855Z</time></trkpt><trkpt lat="45.7872072" lon="12.5394152"><ele>7.0</ele><time>2026-05-02T07:28:11.855Z</time></trkpt><trkpt lat="45.78724" lon="12.5391321"><ele>6.666666666666667</ele><time>2026-05-02T07:28:12.854Z</time></trkpt><trkpt lat="45.7872868" lon="12.5388687"><ele>6.333333333333334</ele><time>2026-05-02T07:28:13.854Z</time></trkpt><trkpt lat="45.787349" lon="12.5386158"><ele>6.0</ele><time>2026-05-02T07:28:14.854Z</time></trkpt><trkpt lat="45.7874335" lon="12.5383622"><ele>6.0</ele><time>2026-05-02T07:28:15.855Z</time></trkpt><trkpt lat="45.7875468" lon="12.5381189"><ele>6.0</ele><time>2026-05-02T07:28:16.854Z</time></trkpt><trkpt lat="45.7876675" lon="12.5378851"><ele>6.0</ele><time>2026-05-02T07:28:17.854Z</time></trkpt><trkpt lat="45.7877783" lon="12.5376492"><ele>6.333333333333334</ele><time>2026-05-02T07:28:18.855Z</time></trkpt><trkpt lat="45.7878795" lon="12.5374225"><ele>6.666666666666667</ele><time>2026-05-02T07:28:19.854Z</time></trkpt><trkpt lat="45.7879806" lon="12.5372037"><ele>7.0</ele><time>2026-05-02T07:28:20.854Z</time></trkpt><trkpt lat="45.7880755" lon="12.5369997"><ele>7.0</ele><time>2026-05-02T07:28:21.855Z</time></trkpt><trkpt lat="45.788166" lon="12.5368006"><ele>7.0</ele><time>2026-05-02T07:28:22.854Z</time></trkpt><trkpt lat="45.7882624" lon="12.536593"><ele>7.0</ele><time>2026-05-02T07:28:23.854Z</time></trkpt><trkpt lat="45.788368" lon="12.5363691"><ele>6.333333333333334</ele><time>2026-05-02T07:28:24.854Z</time></trkpt><trkpt lat="45.7884747" lon="12.5361394"><ele>5.666666666666667</ele><time>2026-05-02T07:28:25.855Z</time></trkpt><trkpt lat="45.7885795" lon="12.5359041"><ele>5.0</ele><time>2026-05-02T07:28:26.855Z</time></trkpt><trkpt lat="45.7886902" lon="12.5356597"><ele>5.0</ele><time>2026-05-02T07:28:27.854Z</time></trkpt><trkpt lat="45.7888016" lon="12.5354248"><ele>5.0</ele><time>2026-05-02T07:28:28.855Z</time></trkpt><trkpt lat="45.7889125" lon="12.5351818"><ele>5.0</ele><time>2026-05-02T07:28:29.855Z</time></trkpt><trkpt lat="45.789028" lon="12.5349374"><ele>5.666666666666667</ele><time>2026-05-02T07:28:30.854Z</time></trkpt><trkpt lat="45.7891384" lon="12.5346943"><ele>6.333333333333334</ele><time>2026-05-02T07:28:31.855Z</time></trkpt><trkpt lat="45.7892461" lon="12.5344481"><ele>7.0</ele><time>2026-05-02T07:28:32.854Z</time></trkpt><trkpt lat="45.7893616" lon="12.5342024"><ele>7.666666666666667</ele><time>2026-05-02T07:28:33.854Z</time></trkpt><trkpt lat="45.7894826" lon="12.5339493"><ele>8.333333333333334</ele><time>2026-05-02T07:28:34.855Z</time></trkpt><trkpt lat="45.7896051" lon="12.5336905"><ele>9.0</ele><time>2026-05-02T07:28:35.855Z</time></trkpt><trkpt lat="45.7897281" lon="12.533428"><ele>9.0</ele><time>2026-05-02T07:28:36.854Z</time></trkpt><trkpt lat="45.7898457" lon="12.5331663"><ele>9.0</ele><time>2026-05-02T07:28:37.854Z</time></trkpt><trkpt lat="45.7899611" lon="12.5329159"><ele>9.0</ele><time>2026-05-02T07:28:38.855Z</time></trkpt><trkpt lat="45.7900751" lon="12.5326716"><ele>8.0</ele><time>2026-05-02T07:28:39.855Z</time></trkpt><trkpt lat="45.7901873" lon="12.532431"><ele>7.0</ele><time>2026-05-02T07:28:40.857Z</time></trkpt><trkpt lat="45.7902951" lon="12.532196"><ele>6.0</ele><time>2026-05-02T07:28:41.855Z</time></trkpt><trkpt lat="45.7904014" lon="12.5319664"><ele>6.0</ele><time>2026-05-02T07:28:42.854Z</time></trkpt><trkpt lat="45.7905075" lon="12.5317366"><ele>6.0</ele><time>2026-05-02T07:28:43.854Z</time></trkpt><trkpt lat="45.7906133" lon="12.5315045"><ele>6.0</ele><time>2026-05-02T07:28:44.855Z</time></trkpt><trkpt lat="45.7907144" lon="12.531266"><ele>6.333333333333334</ele><time>2026-05-02T07:28:45.855Z</time></trkpt><trkpt lat="45.7908117" lon="12.5310233"><ele>6.666666666666667</ele><time>2026-05-02T07:28:46.856Z</time></trkpt><trkpt lat="45.7908945" lon="12.530775"><ele>7.0</ele><time>2026-05-02T07:28:47.856Z</time></trkpt><trkpt lat="45.7909625" lon="12.5305167"><ele>7.0</ele><time>2026-05-02T07:28:48.856Z</time></trkpt><trkpt lat="45.7910117" lon="12.5302511"><ele>7.0</ele><time>2026-05-02T07:28:49.856Z</time></trkpt><trkpt lat="45.7910326" lon="12.5299772"><ele>7.0</ele><time>2026-05-02T07:28:50.856Z</time></trkpt><trkpt lat="45.791045" lon="12.5296998"><ele>7.333333333333334</ele><time>2026-05-02T07:28:51.856Z</time></trkpt><trkpt lat="45.7910526" lon="12.5294216"><ele>7.666666666666666</ele><time>2026-05-02T07:28:52.856Z</time></trkpt><trkpt lat="45.7910666" lon="12.5291647"><ele>8.0</ele><time>2026-05-02T07:28:53.855Z</time></trkpt><trkpt lat="45.7910775" lon="12.5289135"><ele>8.333333333333332</ele><time>2026-05-02T07:28:54.856Z</time></trkpt><trkpt lat="45.7910881" lon="12.5286686"><ele>8.666666666666666</ele><time>2026-05-02T07:28:55.856Z</time></trkpt><trkpt lat="45.7911032" lon="12.5284253"><ele>9.0</ele><time>2026-05-02T07:28:56.856Z</time></trkpt><trkpt lat="45.7911136" lon="12.528187"><ele>9.0</ele><time>2026-05-02T07:28:57.856Z</time></trkpt><trkpt lat="45.7911239" lon="12.5279414"><ele>9.0</ele><time>2026-05-02T07:28:58.855Z</time></trkpt><trkpt lat="45.7911293" lon="12.5276961"><ele>9.0</ele><time>2026-05-02T07:28:59.855Z</time></trkpt><trkpt lat="45.7911439" lon="12.5274514"><ele>8.666666666666666</ele><time>2026-05-02T07:29:00.856Z</time></trkpt><trkpt lat="45.7911583" lon="12.5272122"><ele>8.333333333333332</ele><time>2026-05-02T07:29:01.855Z</time></trkpt><trkpt lat="45.7911657" lon="12.5269737"><ele>8.0</ele><time>2026-05-02T07:29:02.855Z</time></trkpt><trkpt lat="45.7911735" lon="12.5267328"><ele>8.0</ele><time>2026-05-02T07:29:03.856Z</time></trkpt><trkpt lat="45.7911842" lon="12.5264963"><ele>8.0</ele><time>2026-05-02T07:29:04.855Z</time></trkpt><trkpt lat="45.7911894" lon="12.5262586"><ele>8.0</ele><time>2026-05-02T07:29:05.855Z</time></trkpt><trkpt lat="45.7912015" lon="12.5260271"><ele>8.25</ele><time>2026-05-02T07:29:06.855Z</time></trkpt><trkpt lat="45.7912104" lon="12.5258076"><ele>8.5</ele><time>2026-05-02T07:29:07.855Z</time></trkpt><trkpt lat="45.7912225" lon="12.5256066"><ele>8.75</ele><time>2026-05-02T07:29:08.856Z</time></trkpt><trkpt lat="45.7912319" lon="12.5254044"><ele>9.0</ele><time>2026-05-02T07:29:09.855Z</time></trkpt><trkpt lat="45.7912411" lon="12.5252028"><ele>9.0</ele><time>2026-05-02T07:29:10.855Z</time></trkpt><trkpt lat="45.7912515" lon="12.5250223"><ele>9.0</ele><time>2026-05-02T07:29:11.856Z</time></trkpt><trkpt lat="45.7912577" lon="12.5248461"><ele>9.0</ele><time>2026-05-02T07:29:12.856Z</time></trkpt><trkpt lat="45.7912681" lon="12.5246654"><ele>9.0</ele><time>2026-05-02T07:29:13.855Z</time></trkpt><trkpt lat="45.791276" lon="12.5244862"><ele>8.6</ele><time>2026-05-02T07:29:14.856Z</time></trkpt><trkpt lat="45.7912796" lon="12.5243154"><ele>8.2</ele><time>2026-05-02T07:29:15.855Z</time></trkpt><trkpt lat="45.7912872" lon="12.524165"><ele>7.799999999999999</ele><time>2026-05-02T07:29:16.855Z</time></trkpt><trkpt lat="45.7912983" lon="12.5240239"><ele>7.3999999999999995</ele><time>2026-05-02T07:29:17.856Z</time></trkpt><trkpt lat="45.7913027" lon="12.5238943"><ele>7.0</ele><time>2026-05-02T07:29:18.856Z</time></trkpt><trkpt lat="45.7913171" lon="12.5237702"><ele>7.199999999999999</ele><time>2026-05-02T07:29:19.856Z</time></trkpt><trkpt lat="45.7913607" lon="12.5236527"><ele>7.3999999999999995</ele><time>2026-05-02T07:29:20.856Z</time></trkpt><trkpt lat="45.7914317" lon="12.523546"><ele>7.6000000000000005</ele><time>2026-05-02T07:29:21.856Z</time></trkpt><trkpt lat="45.7915173" lon="12.523451"><ele>7.800000000000001</ele><time>2026-05-02T07:29:22.856Z</time></trkpt><trkpt lat="45.7915936" lon="12.5233349"><ele>8.0</ele><time>2026-05-02T07:29:23.855Z</time></trkpt><trkpt lat="45.7916588" lon="12.5231936"><ele>8.0</ele><time>2026-05-02T07:29:24.856Z</time></trkpt><trkpt lat="45.791748" lon="12.5230606"><ele>8.0</ele><time>2026-05-02T07:29:25.856Z</time></trkpt><trkpt lat="45.7918714" lon="12.5229591"><ele>8.0</ele><time>2026-05-02T07:29:26.855Z</time></trkpt><trkpt lat="45.7920188" lon="12.5228458"><ele>8.0</ele><time>2026-05-02T07:29:27.856Z</time></trkpt><trkpt lat="45.7921754" lon="12.5226834"><ele>8.0</ele><time>2026-05-02T07:29:28.855Z</time></trkpt><trkpt lat="45.7923333" lon="12.5224832"><ele>8.0</ele><time>2026-05-02T07:29:29.855Z</time></trkpt><trkpt lat="45.7924961" lon="12.5222753"><ele>8.0</ele><time>2026-05-02T07:29:30.856Z</time></trkpt><trkpt lat="45.7926475" lon="12.5220981"><ele>8.666666666666666</ele><time>2026-05-02T07:29:31.855Z</time></trkpt><trkpt lat="45.7927863" lon="12.521923"><ele>9.333333333333334</ele><time>2026-05-02T07:29:32.855Z</time></trkpt><trkpt lat="45.7929136" lon="12.521756"><ele>10.0</ele><time>2026-05-02T07:29:33.855Z</time></trkpt><trkpt lat="45.793042" lon="12.5215898"><ele>10.0</ele><time>2026-05-02T07:29:34.856Z</time></trkpt><trkpt lat="45.7931696" lon="12.5214106"><ele>10.0</ele><time>2026-05-02T07:29:35.856Z</time></trkpt><trkpt lat="45.793296" lon="12.5212139"><ele>10.0</ele><time>2026-05-02T07:29:36.855Z</time></trkpt><trkpt lat="45.7934249" lon="12.5209987"><ele>9.666666666666668</ele><time>2026-05-02T07:29:37.855Z</time></trkpt><trkpt lat="45.7935559" lon="12.5207704"><ele>9.333333333333334</ele><time>2026-05-02T07:29:38.855Z</time></trkpt><trkpt lat="45.7936809" lon="12.520542"><ele>9.0</ele><time>2026-05-02T07:29:39.856Z</time></trkpt><trkpt lat="45.7938071" lon="12.5203052"><ele>9.0</ele><time>2026-05-02T07:29:40.856Z</time></trkpt><trkpt lat="45.7939278" lon="12.5200536"><ele>9.0</ele><time>2026-05-02T07:29:41.855Z</time></trkpt><trkpt lat="45.7940411" lon="12.5197841"><ele>9.0</ele><time>2026-05-02T07:29:42.856Z</time></trkpt><trkpt lat="45.79415" lon="12.5195088"><ele>8.5</ele><time>2026-05-02T07:29:43.856Z</time></trkpt><trkpt lat="45.7942531" lon="12.5192207"><ele>8.0</ele><time>2026-05-02T07:29:44.856Z</time></trkpt><trkpt lat="45.7943484" lon="12.5189275"><ele>8.0</ele><time>2026-05-02T07:29:45.856Z</time></trkpt><trkpt lat="45.7944381" lon="12.5186197"><ele>8.0</ele><time>2026-05-02T07:29:46.856Z</time></trkpt><trkpt lat="45.7945255" lon="12.5183095"><ele>8.0</ele><time>2026-05-02T07:29:47.856Z</time></trkpt><trkpt lat="45.7946053" lon="12.5179974"><ele>8.0</ele><time>2026-05-02T07:29:48.856Z</time></trkpt><trkpt lat="45.7946828" lon="12.5176821"><ele>9.0</ele><time>2026-05-02T07:29:49.857Z</time></trkpt><trkpt lat="45.7947591" lon="12.5173737"><ele>10.0</ele><time>2026-05-02T07:29:50.856Z</time></trkpt><trkpt lat="45.794829" lon="12.5170704"><ele>10.333333333333334</ele><time>2026-05-02T07:29:51.856Z</time></trkpt><trkpt lat="45.7948954" lon="12.5167777"><ele>10.666666666666666</ele><time>2026-05-02T07:29:52.856Z</time></trkpt><trkpt lat="45.7949594" lon="12.516501"><ele>11.0</ele><time>2026-05-02T07:29:53.856Z</time></trkpt><trkpt lat="45.7950223" lon="12.5162257"><ele>10.333333333333332</ele><time>2026-05-02T07:29:54.857Z</time></trkpt><trkpt lat="45.7950853" lon="12.5159526"><ele>9.666666666666666</ele><time>2026-05-02T07:29:55.857Z</time></trkpt><trkpt lat="45.795146" lon="12.5156867"><ele>9.0</ele><time>2026-05-02T07:29:56.856Z</time></trkpt><trkpt lat="45.7952056" lon="12.5154452"><ele>9.666666666666666</ele><time>2026-05-02T07:29:57.857Z</time></trkpt><trkpt lat="45.7952591" lon="12.5152202"><ele>10.333333333333332</ele><time>2026-05-02T07:29:58.856Z</time></trkpt><trkpt lat="45.7953067" lon="12.5150147"><ele>11.0</ele><time>2026-05-02T07:29:59.857Z</time></trkpt><trkpt lat="45.7953517" lon="12.5148253"><ele>11.0</ele><time>2026-05-02T07:30:00.857Z</time></trkpt><trkpt lat="45.7953926" lon="12.5146463"><ele>11.0</ele><time>2026-05-02T07:30:01.856Z</time></trkpt><trkpt lat="45.7954305" lon="12.5144814"><ele>11.0</ele><time>2026-05-02T07:30:02.856Z</time></trkpt><trkpt lat="45.7954704" lon="12.5143286"><ele>11.0</ele><time>2026-05-02T07:30:03.857Z</time></trkpt><trkpt lat="45.7955069" lon="12.5141794"><ele>11.0</ele><time>2026-05-02T07:30:04.856Z</time></trkpt><trkpt lat="45.7955492" lon="12.5140228"><ele>11.0</ele><time>2026-05-02T07:30:05.857Z</time></trkpt><trkpt lat="45.7955853" lon="12.5138575"><ele>11.0</ele><time>2026-05-02T07:30:06.857Z</time></trkpt><trkpt lat="45.7956239" lon="12.5136915"><ele>11.0</ele><time>2026-05-02T07:30:07.857Z</time></trkpt><trkpt lat="45.7956616" lon="12.5135241"><ele>11.0</ele><time>2026-05-02T07:30:08.857Z</time></trkpt><trkpt lat="45.7956957" lon="12.5133759"><ele>11.0</ele><time>2026-05-02T07:30:09.856Z</time></trkpt><trkpt lat="45.7957245" lon="12.5132406"><ele>11.0</ele><time>2026-05-02T07:30:10.856Z</time></trkpt><trkpt lat="45.7957498" lon="12.5131212"><ele>11.0</ele><time>2026-05-02T07:30:11.857Z</time></trkpt><trkpt lat="45.7957766" lon="12.5130159"><ele>11.0</ele><time>2026-05-02T07:30:12.857Z</time></trkpt><trkpt lat="45.7958087" lon="12.5129284"><ele>11.0</ele><time>2026-05-02T07:30:13.857Z</time></trkpt><trkpt lat="45.7958548" lon="12.5128516"><ele>11.0</ele><time>2026-05-02T07:30:14.856Z</time></trkpt><trkpt lat="45.7959099" lon="12.5127885"><ele>11.0</ele><time>2026-05-02T07:30:15.857Z</time></trkpt><trkpt lat="45.7959832" lon="12.5127193"><ele>11.0</ele><time>2026-05-02T07:30:16.857Z</time></trkpt><trkpt lat="45.7960501" lon="12.5126276"><ele>11.0</ele><time>2026-05-02T07:30:17.857Z</time></trkpt><trkpt lat="45.7961037" lon="12.5125117"><ele>11.0</ele><time>2026-05-02T07:30:18.856Z</time></trkpt><trkpt lat="45.7961504" lon="12.5123755"><ele>11.0</ele><time>2026-05-02T07:30:19.856Z</time></trkpt><trkpt lat="45.796171" lon="12.5122241"><ele>11.0</ele><time>2026-05-02T07:30:20.857Z</time></trkpt><trkpt lat="45.7961651" lon="12.5120569"><ele>11.0</ele><time>2026-05-02T07:30:21.856Z</time></trkpt><trkpt lat="45.7961429" lon="12.5118861"><ele>11.0</ele><time>2026-05-02T07:30:22.857Z</time></trkpt><trkpt lat="45.7961311" lon="12.5117082"><ele>10.5</ele><time>2026-05-02T07:30:23.856Z</time></trkpt><trkpt lat="45.7961477" lon="12.511518"><ele>10.0</ele><time>2026-05-02T07:30:24.857Z</time></trkpt><trkpt lat="45.7961933" lon="12.5113098"><ele>9.5</ele><time>2026-05-02T07:30:25.857Z</time></trkpt><trkpt lat="45.7962541" lon="12.5111034"><ele>9.0</ele><time>2026-05-02T07:30:26.856Z</time></trkpt><trkpt lat="45.7963236" lon="12.5108852"><ele>9.0</ele><time>2026-05-02T07:30:27.857Z</time></trkpt><trkpt lat="45.7963904" lon="12.5106618"><ele>9.0</ele><time>2026-05-02T07:30:28.857Z</time></trkpt><trkpt lat="45.7964603" lon="12.510427"><ele>9.0</ele><time>2026-05-02T07:30:29.857Z</time></trkpt><trkpt lat="45.7965275" lon="12.5101857"><ele>8.666666666666666</ele><time>2026-05-02T07:30:30.857Z</time></trkpt><trkpt lat="45.7965916" lon="12.5099404"><ele>8.333333333333332</ele><time>2026-05-02T07:30:31.857Z</time></trkpt><trkpt lat="45.7966539" lon="12.5096879"><ele>8.0</ele><time>2026-05-02T07:30:32.856Z</time></trkpt><trkpt lat="45.796716" lon="12.5094361"><ele>8.0</ele><time>2026-05-02T07:30:33.856Z</time></trkpt><trkpt lat="45.7967775" lon="12.5091867"><ele>8.0</ele><time>2026-05-02T07:30:34.857Z</time></trkpt><trkpt lat="45.7968328" lon="12.5089482"><ele>8.0</ele><time>2026-05-02T07:30:35.857Z</time></trkpt><trkpt lat="45.7968868" lon="12.5087131"><ele>8.666666666666666</ele><time>2026-05-02T07:30:36.856Z</time></trkpt><trkpt lat="45.7969438" lon="12.5084827"><ele>9.333333333333334</ele><time>2026-05-02T07:30:37.857Z</time></trkpt><trkpt lat="45.7969946" lon="12.5082486"><ele>10.0</ele><time>2026-05-02T07:30:38.856Z</time></trkpt><trkpt lat="45.7970447" lon="12.5080262"><ele>10.333333333333334</ele><time>2026-05-02T07:30:39.856Z</time></trkpt><trkpt lat="45.7970905" lon="12.5077936"><ele>10.666666666666666</ele><time>2026-05-02T07:30:40.856Z</time></trkpt><trkpt lat="45.7971282" lon="12.5075577"><ele>11.0</ele><time>2026-05-02T07:30:41.856Z</time></trkpt><trkpt lat="45.7971567" lon="12.5073141"><ele>11.0</ele><time>2026-05-02T07:30:42.857Z</time></trkpt><trkpt lat="45.7971673" lon="12.5070679"><ele>11.0</ele><time>2026-05-02T07:30:43.856Z</time></trkpt><trkpt lat="45.7971701" lon="12.5068127"><ele>11.0</ele><time>2026-05-02T07:30:44.856Z</time></trkpt><trkpt lat="45.7971653" lon="12.5065575"><ele>11.0</ele><time>2026-05-02T07:30:45.857Z</time></trkpt><trkpt lat="45.7971515" lon="12.5063095"><ele>11.0</ele><time>2026-05-02T07:30:46.857Z</time></trkpt><trkpt lat="45.7971321" lon="12.506082"><ele>11.0</ele><time>2026-05-02T07:30:47.857Z</time></trkpt><trkpt lat="45.7971003" lon="12.5058592"><ele>10.666666666666666</ele><time>2026-05-02T07:30:48.856Z</time></trkpt><trkpt lat="45.7970607" lon="12.5056407"><ele>10.333333333333334</ele><time>2026-05-02T07:30:49.857Z</time></trkpt><trkpt lat="45.7970108" lon="12.5054157"><ele>10.0</ele><time>2026-05-02T07:30:50.858Z</time></trkpt><trkpt lat="45.796957" lon="12.5051991"><ele>9.666666666666668</ele><time>2026-05-02T07:30:51.858Z</time></trkpt><trkpt lat="45.7969042" lon="12.5049887"><ele>9.333333333333334</ele><time>2026-05-02T07:30:52.858Z</time></trkpt><trkpt lat="45.79685" lon="12.5047702"><ele>9.0</ele><time>2026-05-02T07:30:53.858Z</time></trkpt><trkpt lat="45.7967942" lon="12.5045539"><ele>9.0</ele><time>2026-05-02T07:30:54.857Z</time></trkpt><trkpt lat="45.7967406" lon="12.5043379"><ele>9.0</ele><time>2026-05-02T07:30:55.857Z</time></trkpt><trkpt lat="45.7966878" lon="12.5041324"><ele>9.0</ele><time>2026-05-02T07:30:56.858Z</time></trkpt><trkpt lat="45.7966344" lon="12.5039257"><ele>9.0</ele><time>2026-05-02T07:30:57.858Z</time></trkpt><trkpt lat="45.7965829" lon="12.5037291"><ele>9.0</ele><time>2026-05-02T07:30:58.857Z</time></trkpt><trkpt lat="45.7965401" lon="12.5035475"><ele>9.0</ele><time>2026-05-02T07:30:59.858Z</time></trkpt><trkpt lat="45.7965025" lon="12.5033813"><ele>9.0</ele><time>2026-05-02T07:31:00.857Z</time></trkpt><trkpt lat="45.7964537" lon="12.5032185"><ele>9.0</ele><time>2026-05-02T07:31:01.858Z</time></trkpt><trkpt lat="45.7964093" lon="12.5030699"><ele>9.0</ele><time>2026-05-02T07:31:02.858Z</time></trkpt><trkpt lat="45.7963668" lon="12.5029335"><ele>9.0</ele><time>2026-05-02T07:31:03.858Z</time></trkpt><trkpt lat="45.7963349" lon="12.5028141"><ele>9.0</ele><time>2026-05-02T07:31:04.857Z</time></trkpt><trkpt lat="45.7963011" lon="12.5026989"><ele>9.0</ele><time>2026-05-02T07:31:05.858Z</time></trkpt><trkpt lat="45.7962737" lon="12.5026032"><ele>9.166666666666666</ele><time>2026-05-02T07:31:06.857Z</time></trkpt><trkpt lat="45.7962514" lon="12.5025097"><ele>9.333333333333334</ele><time>2026-05-02T07:31:07.857Z</time></trkpt><trkpt lat="45.7962301" lon="12.5023939"><ele>9.5</ele><time>2026-05-02T07:31:09.858Z</time></trkpt><trkpt lat="45.7962159" lon="12.5023027"><ele>9.666666666666668</ele><time>2026-05-02T07:31:11.857Z</time></trkpt><trkpt lat="45.7962168" lon="12.5022017"><ele>9.833333333333334</ele><time>2026-05-02T07:31:14.857Z</time></trkpt><trkpt lat="45.7962026" lon="12.5020226"><ele>10.0</ele><time>2026-05-02T07:31:16.858Z</time></trkpt><trkpt lat="45.7961892" lon="12.5019031"><ele>10.0</ele><time>2026-05-02T07:31:17.857Z</time></trkpt><trkpt lat="45.7961704" lon="12.5017711"><ele>10.0</ele><time>2026-05-02T07:31:18.857Z</time></trkpt><trkpt lat="45.7961433" lon="12.5016409"><ele>10.0</ele><time>2026-05-02T07:31:19.858Z</time></trkpt><trkpt lat="45.7961183" lon="12.5015012"><ele>10.0</ele><time>2026-05-02T07:31:20.858Z</time></trkpt><trkpt lat="45.7960931" lon="12.5013521"><ele>10.0</ele><time>2026-05-02T07:31:21.858Z</time></trkpt><trkpt lat="45.796063" lon="12.5011951"><ele>10.0</ele><time>2026-05-02T07:31:22.858Z</time></trkpt><trkpt lat="45.7960314" lon="12.5010607"><ele>10.0</ele><time>2026-05-02T07:31:23.858Z</time></trkpt><trkpt lat="45.7959964" lon="12.5009289"><ele>10.0</ele><time>2026-05-02T07:31:24.858Z</time></trkpt><trkpt lat="45.7959592" lon="12.5007708"><ele>10.0</ele><time>2026-05-02T07:31:25.858Z</time></trkpt><trkpt lat="45.795922" lon="12.5005989"><ele>10.0</ele><time>2026-05-02T07:31:26.858Z</time></trkpt><trkpt lat="45.795879" lon="12.5003964"><ele>10.333333333333334</ele><time>2026-05-02T07:31:27.858Z</time></trkpt><trkpt lat="45.7958437" lon="12.5001574"><ele>10.666666666666666</ele><time>2026-05-02T07:31:28.858Z</time></trkpt><trkpt lat="45.7958166" lon="12.499928"><ele>11.0</ele><time>2026-05-02T07:31:29.858Z</time></trkpt><trkpt lat="45.7957893" lon="12.4997131"><ele>10.75</ele><time>2026-05-02T07:31:30.857Z</time></trkpt><trkpt lat="45.7957578" lon="12.4995241"><ele>10.5</ele><time>2026-05-02T07:31:31.858Z</time></trkpt><trkpt lat="45.795729" lon="12.4993556"><ele>10.25</ele><time>2026-05-02T07:31:32.857Z</time></trkpt><trkpt lat="45.7957031" lon="12.4991858"><ele>10.0</ele><time>2026-05-02T07:31:33.857Z</time></trkpt><trkpt lat="45.7956791" lon="12.4990255"><ele>10.0</ele><time>2026-05-02T07:31:34.857Z</time></trkpt><trkpt lat="45.7956583" lon="12.49888"><ele>10.0</ele><time>2026-05-02T07:31:35.858Z</time></trkpt><trkpt lat="45.795638" lon="12.49875"><ele>10.0</ele><time>2026-05-02T07:31:36.857Z</time></trkpt><trkpt lat="45.7956235" lon="12.4986329"><ele>10.0</ele><time>2026-05-02T07:31:37.857Z</time></trkpt><trkpt lat="45.7956107" lon="12.4985166"><ele>10.0</ele><time>2026-05-02T07:31:38.857Z</time></trkpt><trkpt lat="45.795604" lon="12.4983961"><ele>10.0</ele><time>2026-05-02T07:31:39.858Z</time></trkpt><trkpt lat="45.7956033" lon="12.4982762"><ele>9.6</ele><time>2026-05-02T07:31:40.858Z</time></trkpt><trkpt lat="45.7956348" lon="12.498154"><ele>9.2</ele><time>2026-05-02T07:31:41.858Z</time></trkpt><trkpt lat="45.7956655" lon="12.4980314"><ele>8.8</ele><time>2026-05-02T07:31:42.857Z</time></trkpt><trkpt lat="45.7956712" lon="12.4979009"><ele>8.4</ele><time>2026-05-02T07:31:43.857Z</time></trkpt><trkpt lat="45.7956447" lon="12.4977722"><ele>8.0</ele><time>2026-05-02T07:31:44.857Z</time></trkpt><trkpt lat="45.7956076" lon="12.4976489"><ele>8.0</ele><time>2026-05-02T07:31:45.857Z</time></trkpt><trkpt lat="45.7955425" lon="12.4975295"><ele>8.0</ele><time>2026-05-02T07:31:46.858Z</time></trkpt><trkpt lat="45.7954873" lon="12.4973965"><ele>8.0</ele><time>2026-05-02T07:31:47.857Z</time></trkpt><trkpt lat="45.7954444" lon="12.4972387"><ele>8.0</ele><time>2026-05-02T07:31:48.857Z</time></trkpt><trkpt lat="45.7954082" lon="12.4970655"><ele>8.25</ele><time>2026-05-02T07:31:49.857Z</time></trkpt><trkpt lat="45.795363" lon="12.4968848"><ele>8.5</ele><time>2026-05-02T07:31:50.858Z</time></trkpt><trkpt lat="45.7953027" lon="12.4966951"><ele>8.75</ele><time>2026-05-02T07:31:51.858Z</time></trkpt><trkpt lat="45.7952209" lon="12.4965039"><ele>9.0</ele><time>2026-05-02T07:31:52.859Z</time></trkpt><trkpt lat="45.7951177" lon="12.4963075"><ele>8.666666666666666</ele><time>2026-05-02T07:31:53.858Z</time></trkpt><trkpt lat="45.7949996" lon="12.4961059"><ele>8.333333333333332</ele><time>2026-05-02T07:31:54.858Z</time></trkpt><trkpt lat="45.79486" lon="12.4958925"><ele>8.0</ele><time>2026-05-02T07:31:55.859Z</time></trkpt><trkpt lat="45.7946997" lon="12.4956477"><ele>8.0</ele><time>2026-05-02T07:31:56.858Z</time></trkpt><trkpt lat="45.7945386" lon="12.4953912"><ele>8.0</ele><time>2026-05-02T07:31:57.858Z</time></trkpt><trkpt lat="45.7944058" lon="12.4951292"><ele>8.333333333333332</ele><time>2026-05-02T07:31:58.858Z</time></trkpt><trkpt lat="45.7942813" lon="12.4948959"><ele>8.666666666666666</ele><time>2026-05-02T07:31:59.859Z</time></trkpt><trkpt lat="45.794168" lon="12.4946779"><ele>9.0</ele><time>2026-05-02T07:32:00.858Z</time></trkpt><trkpt lat="45.7940633" lon="12.4944667"><ele>9.666666666666666</ele><time>2026-05-02T07:32:01.859Z</time></trkpt><trkpt lat="45.793979" lon="12.4942737"><ele>10.333333333333332</ele><time>2026-05-02T07:32:02.859Z</time></trkpt><trkpt lat="45.7938988" lon="12.4940936"><ele>11.0</ele><time>2026-05-02T07:32:03.859Z</time></trkpt><trkpt lat="45.793821" lon="12.4939181"><ele>10.75</ele><time>2026-05-02T07:32:04.858Z</time></trkpt><trkpt lat="45.7937442" lon="12.4937439"><ele>10.5</ele><time>2026-05-02T07:32:05.858Z</time></trkpt><trkpt lat="45.7936644" lon="12.4935639"><ele>10.25</ele><time>2026-05-02T07:32:06.858Z</time></trkpt><trkpt lat="45.7935834" lon="12.49338"><ele>10.0</ele><time>2026-05-02T07:32:07.858Z</time></trkpt><trkpt lat="45.7935018" lon="12.493194"><ele>9.333333333333334</ele><time>2026-05-02T07:32:08.858Z</time></trkpt><trkpt lat="45.7934193" lon="12.4930079"><ele>8.666666666666666</ele><time>2026-05-02T07:32:09.858Z</time></trkpt><trkpt lat="45.7933368" lon="12.49282"><ele>8.0</ele><time>2026-05-02T07:32:10.859Z</time></trkpt><trkpt lat="45.7932537" lon="12.4926307"><ele>7.666666666666666</ele><time>2026-05-02T07:32:11.859Z</time></trkpt><trkpt lat="45.793172" lon="12.492443"><ele>7.333333333333334</ele><time>2026-05-02T07:32:12.859Z</time></trkpt><trkpt lat="45.7930917" lon="12.4922586"><ele>7.0</ele><time>2026-05-02T07:32:13.858Z</time></trkpt><trkpt lat="45.793012" lon="12.4920772"><ele>6.75</ele><time>2026-05-02T07:32:14.858Z</time></trkpt><trkpt lat="45.7929329" lon="12.4918988"><ele>6.5</ele><time>2026-05-02T07:32:15.859Z</time></trkpt><trkpt lat="45.7928556" lon="12.4917245"><ele>6.25</ele><time>2026-05-02T07:32:16.859Z</time></trkpt><trkpt lat="45.7927791" lon="12.491554"><ele>6.0</ele><time>2026-05-02T07:32:17.858Z</time></trkpt><trkpt lat="45.7927033" lon="12.4913864"><ele>6.75</ele><time>2026-05-02T07:32:18.858Z</time></trkpt><trkpt lat="45.7926268" lon="12.4912181"><ele>7.5</ele><time>2026-05-02T07:32:19.858Z</time></trkpt><trkpt lat="45.7925503" lon="12.4910458"><ele>8.25</ele><time>2026-05-02T07:32:20.859Z</time></trkpt><trkpt lat="45.7924719" lon="12.4908688"><ele>9.0</ele><time>2026-05-02T07:32:21.859Z</time></trkpt><trkpt lat="45.7923917" lon="12.4906882"><ele>9.0</ele><time>2026-05-02T07:32:22.858Z</time></trkpt><trkpt lat="45.7923101" lon="12.4905036"><ele>9.0</ele><time>2026-05-02T07:32:23.859Z</time></trkpt><trkpt lat="45.7922273" lon="12.490315"><ele>9.0</ele><time>2026-05-02T07:32:24.858Z</time></trkpt><trkpt lat="45.7921434" lon="12.4901235"><ele>9.666666666666666</ele><time>2026-05-02T07:32:25.858Z</time></trkpt><trkpt lat="45.7920576" lon="12.489929"><ele>10.333333333333332</ele><time>2026-05-02T07:32:26.858Z</time></trkpt><trkpt lat="45.7919695" lon="12.4897317"><ele>11.0</ele><time>2026-05-02T07:32:27.859Z</time></trkpt><trkpt lat="45.7918798" lon="12.4895322"><ele>10.0</ele><time>2026-05-02T07:32:28.859Z</time></trkpt><trkpt lat="45.7917895" lon="12.4893304"><ele>9.0</ele><time>2026-05-02T07:32:29.859Z</time></trkpt><trkpt lat="45.7917025" lon="12.4891346"><ele>8.0</ele><time>2026-05-02T07:32:30.858Z</time></trkpt><trkpt lat="45.7916212" lon="12.4889521"><ele>8.0</ele><time>2026-05-02T07:32:31.858Z</time></trkpt><trkpt lat="45.7915423" lon="12.4887773"><ele>8.0</ele><time>2026-05-02T07:32:32.859Z</time></trkpt><trkpt lat="45.7914631" lon="12.4886003"><ele>8.0</ele><time>2026-05-02T07:32:33.859Z</time></trkpt><trkpt lat="45.7913826" lon="12.4884148"><ele>8.0</ele><time>2026-05-02T07:32:34.859Z</time></trkpt><trkpt lat="45.7913007" lon="12.4882272"><ele>7.666666666666666</ele><time>2026-05-02T07:32:35.858Z</time></trkpt><trkpt lat="45.7912175" lon="12.4880377"><ele>7.333333333333334</ele><time>2026-05-02T07:32:36.859Z</time></trkpt><trkpt lat="45.7911296" lon="12.4878415"><ele>7.0</ele><time>2026-05-02T07:32:37.859Z</time></trkpt><trkpt lat="45.7910424" lon="12.4876471"><ele>7.0</ele><time>2026-05-02T07:32:38.859Z</time></trkpt><trkpt lat="45.7909618" lon="12.4874667"><ele>7.0</ele><time>2026-05-02T07:32:39.858Z</time></trkpt><trkpt lat="45.7908866" lon="12.4872987"><ele>7.0</ele><time>2026-05-02T07:32:40.858Z</time></trkpt><trkpt lat="45.790816" lon="12.4871431"><ele>7.0</ele><time>2026-05-02T07:32:41.858Z</time></trkpt><trkpt lat="45.7907458" lon="12.4869902"><ele>7.25</ele><time>2026-05-02T07:32:42.859Z</time></trkpt><trkpt lat="45.7906751" lon="12.486837"><ele>7.5</ele><time>2026-05-02T07:32:43.858Z</time></trkpt><trkpt lat="45.7906116" lon="12.4866933"><ele>7.75</ele><time>2026-05-02T07:32:44.859Z</time></trkpt><trkpt lat="45.7905545" lon="12.4865623"><ele>8.0</ele><time>2026-05-02T07:32:45.859Z</time></trkpt><trkpt lat="45.790504" lon="12.486445"><ele>7.999999999999999</ele><time>2026-05-02T07:32:46.859Z</time></trkpt><trkpt lat="45.7904555" lon="12.4863384"><ele>8.0</ele><time>2026-05-02T07:32:47.858Z</time></trkpt><trkpt lat="45.7904076" lon="12.4862354"><ele>8.0</ele><time>2026-05-02T07:32:48.859Z</time></trkpt><trkpt lat="45.7903601" lon="12.4861311"><ele>8.0</ele><time>2026-05-02T07:32:49.859Z</time></trkpt><trkpt lat="45.7903147" lon="12.4860231"><ele>7.999999999999999</ele><time>2026-05-02T07:32:50.858Z</time></trkpt><trkpt lat="45.7902824" lon="12.4859191"><ele>8.0</ele><time>2026-05-02T07:32:51.858Z</time></trkpt><trkpt lat="45.7902697" lon="12.4858098"><ele>8.0</ele><time>2026-05-02T07:32:52.859Z</time></trkpt><trkpt lat="45.7902715" lon="12.485684"><ele>8.0</ele><time>2026-05-02T07:32:53.859Z</time></trkpt><trkpt lat="45.7902696" lon="12.4855429"><ele>8.0</ele><time>2026-05-02T07:32:54.86Z</time></trkpt><trkpt lat="45.7902617" lon="12.4854145"><ele>8.0</ele><time>2026-05-02T07:32:55.859Z</time></trkpt><trkpt lat="45.7902155" lon="12.4853101"><ele>8.0</ele><time>2026-05-02T07:32:56.86Z</time></trkpt><trkpt lat="45.7901445" lon="12.4852279"><ele>8.4</ele><time>2026-05-02T07:32:57.859Z</time></trkpt><trkpt lat="45.7900519" lon="12.4851743"><ele>8.8</ele><time>2026-05-02T07:32:58.86Z</time></trkpt><trkpt lat="45.7899495" lon="12.4851328"><ele>9.2</ele><time>2026-05-02T07:32:59.86Z</time></trkpt><trkpt lat="45.7898518" lon="12.4850687"><ele>9.6</ele><time>2026-05-02T07:33:00.86Z</time></trkpt><trkpt lat="45.7897657" lon="12.4849755"><ele>10.0</ele><time>2026-05-02T07:33:01.86Z</time></trkpt><trkpt lat="45.7896859" lon="12.4848635"><ele>10.0</ele><time>2026-05-02T07:33:02.86Z</time></trkpt><trkpt lat="45.7896008" lon="12.4847443"><ele>10.0</ele><time>2026-05-02T07:33:03.86Z</time></trkpt><trkpt lat="45.7895072" lon="12.484616"><ele>10.0</ele><time>2026-05-02T07:33:04.859Z</time></trkpt><trkpt lat="45.7894027" lon="12.484476"><ele>10.0</ele><time>2026-05-02T07:33:05.859Z</time></trkpt><trkpt lat="45.7892949" lon="12.4843334"><ele>9.75</ele><time>2026-05-02T07:33:06.859Z</time></trkpt><trkpt lat="45.7891842" lon="12.4841918"><ele>9.5</ele><time>2026-05-02T07:33:07.859Z</time></trkpt><trkpt lat="45.7890735" lon="12.4840535"><ele>9.25</ele><time>2026-05-02T07:33:08.86Z</time></trkpt><trkpt lat="45.7889715" lon="12.4839324"><ele>9.0</ele><time>2026-05-02T07:33:09.859Z</time></trkpt><trkpt lat="45.788873" lon="12.4838162"><ele>9.25</ele><time>2026-05-02T07:33:10.86Z</time></trkpt><trkpt lat="45.7887706" lon="12.4836921"><ele>9.5</ele><time>2026-05-02T07:33:11.86Z</time></trkpt><trkpt lat="45.7886681" lon="12.4835683"><ele>9.75</ele><time>2026-05-02T07:33:12.859Z</time></trkpt><trkpt lat="45.7885657" lon="12.4834437"><ele>10.0</ele><time>2026-05-02T07:33:13.86Z</time></trkpt><trkpt lat="45.7884618" lon="12.4833154"><ele>10.25</ele><time>2026-05-02T07:33:14.86Z</time></trkpt><trkpt lat="45.7883611" lon="12.4831878"><ele>10.5</ele><time>2026-05-02T07:33:15.86Z</time></trkpt><trkpt lat="45.7882596" lon="12.4830634"><ele>10.75</ele><time>2026-05-02T07:33:16.86Z</time></trkpt><trkpt lat="45.7881583" lon="12.4829453"><ele>11.0</ele><time>2026-05-02T07:33:17.859Z</time></trkpt><trkpt lat="45.7880658" lon="12.4828264"><ele>11.0</ele><time>2026-05-02T07:33:18.86Z</time></trkpt><trkpt lat="45.7879717" lon="12.4827165"><ele>11.0</ele><time>2026-05-02T07:33:19.859Z</time></trkpt><trkpt lat="45.7878705" lon="12.4825986"><ele>11.0</ele><time>2026-05-02T07:33:20.859Z</time></trkpt><trkpt lat="45.7877658" lon="12.4824846"><ele>11.0</ele><time>2026-05-02T07:33:21.86Z</time></trkpt><trkpt lat="45.7876514" lon="12.4823656"><ele>11.0</ele><time>2026-05-02T07:33:22.86Z</time></trkpt><trkpt lat="45.7875293" lon="12.4822632"><ele>11.0</ele><time>2026-05-02T07:33:23.859Z</time></trkpt><trkpt lat="45.787414" lon="12.4821587"><ele>11.0</ele><time>2026-05-02T07:33:24.859Z</time></trkpt><trkpt lat="45.7873038" lon="12.4820675"><ele>11.0</ele><time>2026-05-02T07:33:25.86Z</time></trkpt><trkpt lat="45.7872008" lon="12.4819871"><ele>11.166666666666666</ele><time>2026-05-02T07:33:26.859Z</time></trkpt><trkpt lat="45.7871108" lon="12.4819106"><ele>11.333333333333332</ele><time>2026-05-02T07:33:27.859Z</time></trkpt><trkpt lat="45.7870307" lon="12.4818416"><ele>11.5</ele><time>2026-05-02T07:33:28.859Z</time></trkpt><trkpt lat="45.7869601" lon="12.4817816"><ele>11.666666666666666</ele><time>2026-05-02T07:33:29.859Z</time></trkpt><trkpt lat="45.7868968" lon="12.4817295"><ele>11.833333333333334</ele><time>2026-05-02T07:33:30.859Z</time></trkpt><trkpt lat="45.7868328" lon="12.4816796"><ele>12.0</ele><time>2026-05-02T07:33:31.86Z</time></trkpt><trkpt lat="45.7867726" lon="12.4816298"><ele>12.2</ele><time>2026-05-02T07:33:32.86Z</time></trkpt><trkpt lat="45.7866801" lon="12.4815446"><ele>12.399999999999999</ele><time>2026-05-02T07:33:34.859Z</time></trkpt><trkpt lat="45.7865766" lon="12.4814217"><ele>12.600000000000001</ele><time>2026-05-02T07:33:36.86Z</time></trkpt><trkpt lat="45.7865162" lon="12.4813247"><ele>12.8</ele><time>2026-05-02T07:33:37.86Z</time></trkpt><trkpt lat="45.7864692" lon="12.4811907"><ele>13.0</ele><time>2026-05-02T07:33:38.86Z</time></trkpt><trkpt lat="45.7864416" lon="12.4810272"><ele>13.0</ele><time>2026-05-02T07:33:39.86Z</time></trkpt><trkpt lat="45.786434" lon="12.4808494"><ele>13.0</ele><time>2026-05-02T07:33:40.86Z</time></trkpt><trkpt lat="45.7864361" lon="12.4806654"><ele>13.0</ele><time>2026-05-02T07:33:41.859Z</time></trkpt><trkpt lat="45.786441" lon="12.4804769"><ele>13.0</ele><time>2026-05-02T07:33:42.86Z</time></trkpt><trkpt lat="45.786449" lon="12.4802829"><ele>12.666666666666666</ele><time>2026-05-02T07:33:43.86Z</time></trkpt><trkpt lat="45.7864601" lon="12.4800738"><ele>12.333333333333332</ele><time>2026-05-02T07:33:44.86Z</time></trkpt><trkpt lat="45.7864719" lon="12.4798555"><ele>12.0</ele><time>2026-05-02T07:33:45.859Z</time></trkpt><trkpt lat="45.7864831" lon="12.4796397"><ele>11.75</ele><time>2026-05-02T07:33:46.859Z</time></trkpt><trkpt lat="45.7864951" lon="12.4794424"><ele>11.5</ele><time>2026-05-02T07:33:47.859Z</time></trkpt><trkpt lat="45.7865052" lon="12.4792538"><ele>11.25</ele><time>2026-05-02T07:33:48.859Z</time></trkpt><trkpt lat="45.7865148" lon="12.4790615"><ele>11.0</ele><time>2026-05-02T07:33:49.86Z</time></trkpt><trkpt lat="45.7865214" lon="12.4788649"><ele>11.5</ele><time>2026-05-02T07:33:50.859Z</time></trkpt><trkpt lat="45.7865208" lon="12.4786621"><ele>12.0</ele><time>2026-05-02T07:33:51.86Z</time></trkpt><trkpt lat="45.7865133" lon="12.4784506"><ele>12.5</ele><time>2026-05-02T07:33:52.86Z</time></trkpt><trkpt lat="45.7865044" lon="12.4782338"><ele>13.0</ele><time>2026-05-02T07:33:53.861Z</time></trkpt><trkpt lat="45.7864747" lon="12.4780153"><ele>12.75</ele><time>2026-05-02T07:33:54.86Z</time></trkpt><trkpt lat="45.7864347" lon="12.4777974"><ele>12.5</ele><time>2026-05-02T07:33:55.86Z</time></trkpt><trkpt lat="45.7863921" lon="12.4775972"><ele>12.25</ele><time>2026-05-02T07:33:56.861Z</time></trkpt><trkpt lat="45.7863526" lon="12.4774215"><ele>12.0</ele><time>2026-05-02T07:33:57.86Z</time></trkpt><trkpt lat="45.7863136" lon="12.4772622"><ele>12.0</ele><time>2026-05-02T07:33:58.86Z</time></trkpt><trkpt lat="45.7862737" lon="12.4771131"><ele>12.0</ele><time>2026-05-02T07:33:59.86Z</time></trkpt><trkpt lat="45.7862298" lon="12.4769517"><ele>12.0</ele><time>2026-05-02T07:34:00.86Z</time></trkpt><trkpt lat="45.786192" lon="12.4767671"><ele>12.0</ele><time>2026-05-02T07:34:01.86Z</time></trkpt><trkpt lat="45.7861519" lon="12.4765661"><ele>12.333333333333332</ele><time>2026-05-02T07:34:02.86Z</time></trkpt><trkpt lat="45.7861087" lon="12.4763616"><ele>12.666666666666666</ele><time>2026-05-02T07:34:03.861Z</time></trkpt><trkpt lat="45.7860555" lon="12.476139"><ele>13.0</ele><time>2026-05-02T07:34:04.86Z</time></trkpt><trkpt lat="45.7860066" lon="12.4759085"><ele>12.666666666666666</ele><time>2026-05-02T07:34:05.86Z</time></trkpt><trkpt lat="45.7859658" lon="12.4756713"><ele>12.333333333333332</ele><time>2026-05-02T07:34:06.861Z</time></trkpt><trkpt lat="45.7859356" lon="12.4754288"><ele>12.0</ele><time>2026-05-02T07:34:07.861Z</time></trkpt><trkpt lat="45.7859191" lon="12.4751891"><ele>12.0</ele><time>2026-05-02T07:34:08.86Z</time></trkpt><trkpt lat="45.7859128" lon="12.4749682"><ele>12.0</ele><time>2026-05-02T07:34:09.86Z</time></trkpt><trkpt lat="45.7859148" lon="12.4747654"><ele>12.0</ele><time>2026-05-02T07:34:10.861Z</time></trkpt><trkpt lat="45.7859299" lon="12.4745712"><ele>12.0</ele><time>2026-05-02T07:34:11.861Z</time></trkpt><trkpt lat="45.7859414" lon="12.4743832"><ele>12.0</ele><time>2026-05-02T07:34:12.86Z</time></trkpt><trkpt lat="45.7859446" lon="12.4741936"><ele>12.0</ele><time>2026-05-02T07:34:13.86Z</time></trkpt><trkpt lat="45.7859377" lon="12.4739959"><ele>12.0</ele><time>2026-05-02T07:34:14.86Z</time></trkpt><trkpt lat="45.7859353" lon="12.4737938"><ele>12.0</ele><time>2026-05-02T07:34:15.861Z</time></trkpt><trkpt lat="45.7859368" lon="12.4735883"><ele>12.25</ele><time>2026-05-02T07:34:16.861Z</time></trkpt><trkpt lat="45.7859413" lon="12.4733836"><ele>12.5</ele><time>2026-05-02T07:34:17.86Z</time></trkpt><trkpt lat="45.7859305" lon="12.4731807"><ele>12.75</ele><time>2026-05-02T07:34:18.861Z</time></trkpt><trkpt lat="45.7858949" lon="12.4729803"><ele>13.0</ele><time>2026-05-02T07:34:19.86Z</time></trkpt><trkpt lat="45.7858344" lon="12.4727864"><ele>13.0</ele><time>2026-05-02T07:34:20.86Z</time></trkpt><trkpt lat="45.785757" lon="12.4725942"><ele>13.0</ele><time>2026-05-02T07:34:21.861Z</time></trkpt><trkpt lat="45.7856797" lon="12.472419"><ele>13.0</ele><time>2026-05-02T07:34:22.861Z</time></trkpt><trkpt lat="45.7856033" lon="12.4722551"><ele>13.0</ele><time>2026-05-02T07:34:23.861Z</time></trkpt><trkpt lat="45.7855243" lon="12.4721153"><ele>13.0</ele><time>2026-05-02T07:34:24.86Z</time></trkpt><trkpt lat="45.7854425" lon="12.4719875"><ele>13.0</ele><time>2026-05-02T07:34:25.86Z</time></trkpt><trkpt lat="45.7853684" lon="12.4718739"><ele>13.0</ele><time>2026-05-02T07:34:26.861Z</time></trkpt><trkpt lat="45.7852989" lon="12.4717629"><ele>13.0</ele><time>2026-05-02T07:34:27.86Z</time></trkpt><trkpt lat="45.7852276" lon="12.4716589"><ele>13.0</ele><time>2026-05-02T07:34:28.86Z</time></trkpt><trkpt lat="45.7851603" lon="12.4715545"><ele>13.0</ele><time>2026-05-02T07:34:29.86Z</time></trkpt><trkpt lat="45.7850958" lon="12.4714514"><ele>13.0</ele><time>2026-05-02T07:34:30.861Z</time></trkpt><trkpt lat="45.7850586" lon="12.4713306"><ele>13.0</ele><time>2026-05-02T07:34:31.86Z</time></trkpt><trkpt lat="45.7850498" lon="12.4711892"><ele>13.0</ele><time>2026-05-02T07:34:32.861Z</time></trkpt><trkpt lat="45.7850675" lon="12.4710375"><ele>13.0</ele><time>2026-05-02T07:34:33.861Z</time></trkpt><trkpt lat="45.785092" lon="12.4708766"><ele>12.75</ele><time>2026-05-02T07:34:34.86Z</time></trkpt><trkpt lat="45.7851106" lon="12.470708"><ele>12.5</ele><time>2026-05-02T07:34:35.86Z</time></trkpt><trkpt lat="45.7851249" lon="12.4705362"><ele>12.25</ele><time>2026-05-02T07:34:36.861Z</time></trkpt><trkpt lat="45.7850992" lon="12.4703623"><ele>12.0</ele><time>2026-05-02T07:34:37.86Z</time></trkpt><trkpt lat="45.7850729" lon="12.470182"><ele>11.75</ele><time>2026-05-02T07:34:38.861Z</time></trkpt><trkpt lat="45.7850651" lon="12.4699903"><ele>11.5</ele><time>2026-05-02T07:34:39.861Z</time></trkpt><trkpt lat="45.785075" lon="12.4697857"><ele>11.25</ele><time>2026-05-02T07:34:40.861Z</time></trkpt><trkpt lat="45.785101" lon="12.469575"><ele>11.0</ele><time>2026-05-02T07:34:41.861Z</time></trkpt><trkpt lat="45.7851354" lon="12.4693626"><ele>11.0</ele><time>2026-05-02T07:34:42.861Z</time></trkpt><trkpt lat="45.7851716" lon="12.4691496"><ele>11.0</ele><time>2026-05-02T07:34:43.861Z</time></trkpt><trkpt lat="45.7852088" lon="12.4689407"><ele>11.0</ele><time>2026-05-02T07:34:44.86Z</time></trkpt><trkpt lat="45.7852437" lon="12.468735"><ele>11.25</ele><time>2026-05-02T07:34:45.86Z</time></trkpt><trkpt lat="45.7852644" lon="12.4685279"><ele>11.5</ele><time>2026-05-02T07:34:46.86Z</time></trkpt><trkpt lat="45.7852734" lon="12.4683153"><ele>11.75</ele><time>2026-05-02T07:34:47.861Z</time></trkpt><trkpt lat="45.7852705" lon="12.468101"><ele>12.0</ele><time>2026-05-02T07:34:48.86Z</time></trkpt><trkpt lat="45.785254" lon="12.4678854"><ele>12.0</ele><time>2026-05-02T07:34:49.86Z</time></trkpt><trkpt lat="45.7852224" lon="12.4676765"><ele>12.0</ele><time>2026-05-02T07:34:50.861Z</time></trkpt><trkpt lat="45.7851772" lon="12.4674722"><ele>12.0</ele><time>2026-05-02T07:34:51.86Z</time></trkpt><trkpt lat="45.7851208" lon="12.4672715"><ele>12.0</ele><time>2026-05-02T07:34:52.861Z</time></trkpt><trkpt lat="45.7850531" lon="12.4670737"><ele>11.666666666666666</ele><time>2026-05-02T07:34:53.861Z</time></trkpt><trkpt lat="45.7849789" lon="12.4668772"><ele>11.333333333333332</ele><time>2026-05-02T07:34:54.861Z</time></trkpt><trkpt lat="45.7849024" lon="12.4666803"><ele>11.0</ele><time>2026-05-02T07:34:55.86Z</time></trkpt><trkpt lat="45.7848139" lon="12.4664798"><ele>11.0</ele><time>2026-05-02T07:34:56.861Z</time></trkpt><trkpt lat="45.7847246" lon="12.4662813"><ele>11.0</ele><time>2026-05-02T07:34:57.861Z</time></trkpt><trkpt lat="45.7846354" lon="12.466103"><ele>11.0</ele><time>2026-05-02T07:34:58.861Z</time></trkpt><trkpt lat="45.7845423" lon="12.4659364"><ele>11.0</ele><time>2026-05-02T07:34:59.862Z</time></trkpt><trkpt lat="45.7844356" lon="12.46577"><ele>11.0</ele><time>2026-05-02T07:35:00.862Z</time></trkpt><trkpt lat="45.7843123" lon="12.4656038"><ele>11.0</ele><time>2026-05-02T07:35:01.861Z</time></trkpt><trkpt lat="45.7841796" lon="12.4654339"><ele>10.666666666666666</ele><time>2026-05-02T07:35:02.862Z</time></trkpt><trkpt lat="45.7840451" lon="12.4652608"><ele>10.333333333333334</ele><time>2026-05-02T07:35:03.862Z</time></trkpt><trkpt lat="45.7839114" lon="12.4650865"><ele>10.0</ele><time>2026-05-02T07:35:04.862Z</time></trkpt><trkpt lat="45.7837847" lon="12.4649145"><ele>10.0</ele><time>2026-05-02T07:35:05.861Z</time></trkpt><trkpt lat="45.7836713" lon="12.4647509"><ele>10.0</ele><time>2026-05-02T07:35:06.861Z</time></trkpt><trkpt lat="45.7835645" lon="12.4645873"><ele>10.0</ele><time>2026-05-02T07:35:07.862Z</time></trkpt><trkpt lat="45.7834585" lon="12.4644177"><ele>10.5</ele><time>2026-05-02T07:35:08.861Z</time></trkpt><trkpt lat="45.7833617" lon="12.4642519"><ele>11.0</ele><time>2026-05-02T07:35:09.861Z</time></trkpt><trkpt lat="45.7832708" lon="12.4641"><ele>11.5</ele><time>2026-05-02T07:35:10.862Z</time></trkpt><trkpt lat="45.7831909" lon="12.4639556"><ele>12.0</ele><time>2026-05-02T07:35:11.861Z</time></trkpt><trkpt lat="45.7831111" lon="12.4638189"><ele>12.0</ele><time>2026-05-02T07:35:12.862Z</time></trkpt><trkpt lat="45.7830355" lon="12.4636781"><ele>12.0</ele><time>2026-05-02T07:35:13.862Z</time></trkpt><trkpt lat="45.7829653" lon="12.4635396"><ele>12.0</ele><time>2026-05-02T07:35:14.862Z</time></trkpt><trkpt lat="45.7829013" lon="12.4634062"><ele>12.0</ele><time>2026-05-02T07:35:15.862Z</time></trkpt><trkpt lat="45.7828387" lon="12.463264"><ele>12.0</ele><time>2026-05-02T07:35:16.861Z</time></trkpt><trkpt lat="45.7827799" lon="12.4631104"><ele>12.0</ele><time>2026-05-02T07:35:17.862Z</time></trkpt><trkpt lat="45.7827262" lon="12.462947"><ele>12.0</ele><time>2026-05-02T07:35:18.862Z</time></trkpt><trkpt lat="45.7826755" lon="12.4627798"><ele>12.0</ele><time>2026-05-02T07:35:19.861Z</time></trkpt><trkpt lat="45.7826273" lon="12.4626098"><ele>12.25</ele><time>2026-05-02T07:35:20.861Z</time></trkpt><trkpt lat="45.7825773" lon="12.4624264"><ele>12.5</ele><time>2026-05-02T07:35:21.862Z</time></trkpt><trkpt lat="45.7825236" lon="12.4622277"><ele>12.75</ele><time>2026-05-02T07:35:22.862Z</time></trkpt><trkpt lat="45.7824685" lon="12.4620095"><ele>13.0</ele><time>2026-05-02T07:35:23.861Z</time></trkpt><trkpt lat="45.7824106" lon="12.4617762"><ele>13.333333333333332</ele><time>2026-05-02T07:35:24.862Z</time></trkpt><trkpt lat="45.7823422" lon="12.4615215"><ele>13.666666666666668</ele><time>2026-05-02T07:35:25.862Z</time></trkpt><trkpt lat="45.7822677" lon="12.4612435"><ele>14.0</ele><time>2026-05-02T07:35:26.862Z</time></trkpt><trkpt lat="45.7821906" lon="12.4609464"><ele>12.5</ele><time>2026-05-02T07:35:27.861Z</time></trkpt><trkpt lat="45.7821099" lon="12.4606399"><ele>11.0</ele><time>2026-05-02T07:35:28.862Z</time></trkpt><trkpt lat="45.7820303" lon="12.4603284"><ele>10.0</ele><time>2026-05-02T07:35:29.862Z</time></trkpt><trkpt lat="45.7819589" lon="12.4600124"><ele>9.0</ele><time>2026-05-02T07:35:30.861Z</time></trkpt><trkpt lat="45.781892" lon="12.459702"><ele>9.0</ele><time>2026-05-02T07:35:31.861Z</time></trkpt><trkpt lat="45.781845" lon="12.4593865"><ele>9.0</ele><time>2026-05-02T07:35:32.861Z</time></trkpt><trkpt lat="45.7818062" lon="12.4590787"><ele>9.0</ele><time>2026-05-02T07:35:33.861Z</time></trkpt><trkpt lat="45.7817724" lon="12.4587777"><ele>9.0</ele><time>2026-05-02T07:35:34.861Z</time></trkpt><trkpt lat="45.7817462" lon="12.4584892"><ele>9.0</ele><time>2026-05-02T07:35:35.862Z</time></trkpt><trkpt lat="45.7817198" lon="12.4582021"><ele>9.0</ele><time>2026-05-02T07:35:36.862Z</time></trkpt><trkpt lat="45.7816909" lon="12.4579111"><ele>9.0</ele><time>2026-05-02T07:35:37.861Z</time></trkpt><trkpt lat="45.7816695" lon="12.4576195"><ele>9.0</ele><time>2026-05-02T07:35:38.862Z</time></trkpt><trkpt lat="45.7816568" lon="12.4573277"><ele>9.0</ele><time>2026-05-02T07:35:39.861Z</time></trkpt><trkpt lat="45.7816621" lon="12.4570297"><ele>9.333333333333334</ele><time>2026-05-02T07:35:40.861Z</time></trkpt><trkpt lat="45.7816863" lon="12.4567234"><ele>9.666666666666668</ele><time>2026-05-02T07:35:41.862Z</time></trkpt><trkpt lat="45.7817346" lon="12.4564144"><ele>10.0</ele><time>2026-05-02T07:35:42.861Z</time></trkpt><trkpt lat="45.7818005" lon="12.4561082"><ele>10.0</ele><time>2026-05-02T07:35:43.862Z</time></trkpt><trkpt lat="45.7818737" lon="12.4558026"><ele>10.0</ele><time>2026-05-02T07:35:44.861Z</time></trkpt><trkpt lat="45.7819506" lon="12.4555051"><ele>10.0</ele><time>2026-05-02T07:35:45.861Z</time></trkpt><trkpt lat="45.7820297" lon="12.455206"><ele>10.0</ele><time>2026-05-02T07:35:46.862Z</time></trkpt><trkpt lat="45.782108" lon="12.4549079"><ele>10.0</ele><time>2026-05-02T07:35:47.861Z</time></trkpt><trkpt lat="45.7821866" lon="12.4546072"><ele>10.0</ele><time>2026-05-02T07:35:48.862Z</time></trkpt><trkpt lat="45.7822634" lon="12.4543059"><ele>10.0</ele><time>2026-05-02T07:35:49.861Z</time></trkpt><trkpt lat="45.7823427" lon="12.4540091"><ele>10.0</ele><time>2026-05-02T07:35:50.862Z</time></trkpt><trkpt lat="45.7824176" lon="12.4537082"><ele>10.0</ele><time>2026-05-02T07:35:51.862Z</time></trkpt><trkpt lat="45.7824949" lon="12.4534052"><ele>10.0</ele><time>2026-05-02T07:35:52.862Z</time></trkpt><trkpt lat="45.7825726" lon="12.4531027"><ele>10.0</ele><time>2026-05-02T07:35:53.861Z</time></trkpt><trkpt lat="45.7826505" lon="12.4528024"><ele>10.0</ele><time>2026-05-02T07:35:54.862Z</time></trkpt><trkpt lat="45.7827251" lon="12.4525018"><ele>10.0</ele><time>2026-05-02T07:35:55.862Z</time></trkpt><trkpt lat="45.7828059" lon="12.4522"><ele>10.0</ele><time>2026-05-02T07:35:56.862Z</time></trkpt><trkpt lat="45.7828807" lon="12.4519019"><ele>10.0</ele><time>2026-05-02T07:35:57.861Z</time></trkpt><trkpt lat="45.7829568" lon="12.4516012"><ele>10.0</ele><time>2026-05-02T07:35:58.862Z</time></trkpt><trkpt lat="45.7830354" lon="12.4512995"><ele>10.0</ele><time>2026-05-02T07:35:59.862Z</time></trkpt><trkpt lat="45.7831147" lon="12.4509994"><ele>10.0</ele><time>2026-05-02T07:36:00.861Z</time></trkpt><trkpt lat="45.7831896" lon="12.4507004"><ele>10.0</ele><time>2026-05-02T07:36:01.862Z</time></trkpt><trkpt lat="45.7832673" lon="12.4504056"><ele>10.0</ele><time>2026-05-02T07:36:02.861Z</time></trkpt><trkpt lat="45.7833469" lon="12.4501071"><ele>10.0</ele><time>2026-05-02T07:36:03.861Z</time></trkpt><trkpt lat="45.7834211" lon="12.4498084"><ele>10.5</ele><time>2026-05-02T07:36:04.863Z</time></trkpt><trkpt lat="45.7834965" lon="12.4494996"><ele>11.0</ele><time>2026-05-02T07:36:05.863Z</time></trkpt><trkpt lat="45.7835798" lon="12.4491755"><ele>11.0</ele><time>2026-05-02T07:36:06.862Z</time></trkpt><trkpt lat="45.7836681" lon="12.4488451"><ele>11.0</ele><time>2026-05-02T07:36:07.862Z</time></trkpt><trkpt lat="45.7837565" lon="12.4485128"><ele>13.0</ele><time>2026-05-02T07:36:08.863Z</time></trkpt><trkpt lat="45.78393" lon="12.4478389"><ele>13.0</ele><time>2026-05-02T07:36:10.863Z</time></trkpt><trkpt lat="45.7840183" lon="12.447499"><ele>13.0</ele><time>2026-05-02T07:36:11.863Z</time></trkpt><trkpt lat="45.7841031" lon="12.4471596"><ele>13.5</ele><time>2026-05-02T07:36:12.863Z</time></trkpt><trkpt lat="45.7841877" lon="12.4468337"><ele>14.0</ele><time>2026-05-02T07:36:13.863Z</time></trkpt><trkpt lat="45.7842676" lon="12.4465137"><ele>14.0</ele><time>2026-05-02T07:36:14.863Z</time></trkpt><trkpt lat="45.7843483" lon="12.4462081"><ele>14.0</ele><time>2026-05-02T07:36:15.863Z</time></trkpt><trkpt lat="45.784425" lon="12.4459115"><ele>14.0</ele><time>2026-05-02T07:36:16.862Z</time></trkpt><trkpt lat="45.7844946" lon="12.4456295"><ele>13.666666666666668</ele><time>2026-05-02T07:36:17.862Z</time></trkpt><trkpt lat="45.784541" lon="12.4453513"><ele>13.333333333333332</ele><time>2026-05-02T07:36:18.862Z</time></trkpt><trkpt lat="45.7845586" lon="12.445076"><ele>13.0</ele><time>2026-05-02T07:36:19.862Z</time></trkpt><trkpt lat="45.7845404" lon="12.4448191"><ele>13.0</ele><time>2026-05-02T07:36:20.863Z</time></trkpt><trkpt lat="45.7844954" lon="12.4445802"><ele>13.0</ele><time>2026-05-02T07:36:21.863Z</time></trkpt><trkpt lat="45.7844236" lon="12.4443542"><ele>13.0</ele><time>2026-05-02T07:36:22.863Z</time></trkpt><trkpt lat="45.7843385" lon="12.4441463"><ele>13.0</ele><time>2026-05-02T07:36:23.863Z</time></trkpt><trkpt lat="45.7842339" lon="12.4439538"><ele>13.0</ele><time>2026-05-02T07:36:24.863Z</time></trkpt><trkpt lat="45.7841308" lon="12.4437554"><ele>13.0</ele><time>2026-05-02T07:36:25.862Z</time></trkpt><trkpt lat="45.7840459" lon="12.4435322"><ele>13.0</ele><time>2026-05-02T07:36:26.862Z</time></trkpt><trkpt lat="45.7839772" lon="12.4432944"><ele>13.0</ele><time>2026-05-02T07:36:27.863Z</time></trkpt><trkpt lat="45.7839203" lon="12.4430445"><ele>13.0</ele><time>2026-05-02T07:36:28.862Z</time></trkpt><trkpt lat="45.7838692" lon="12.4427818"><ele>12.666666666666666</ele><time>2026-05-02T07:36:29.862Z</time></trkpt><trkpt lat="45.7838219" lon="12.44252"><ele>12.333333333333332</ele><time>2026-05-02T07:36:30.862Z</time></trkpt><trkpt lat="45.7837769" lon="12.4422555"><ele>12.0</ele><time>2026-05-02T07:36:31.863Z</time></trkpt><trkpt lat="45.7837352" lon="12.4419953"><ele>12.0</ele><time>2026-05-02T07:36:32.863Z</time></trkpt><trkpt lat="45.7836942" lon="12.4417296"><ele>12.0</ele><time>2026-05-02T07:36:33.863Z</time></trkpt><trkpt lat="45.7836524" lon="12.4414631"><ele>12.0</ele><time>2026-05-02T07:36:34.863Z</time></trkpt><trkpt lat="45.7836114" lon="12.4411948"><ele>12.0</ele><time>2026-05-02T07:36:35.862Z</time></trkpt><trkpt lat="45.7835718" lon="12.4409383"><ele>12.0</ele><time>2026-05-02T07:36:36.863Z</time></trkpt><trkpt lat="45.7835344" lon="12.4406873"><ele>12.0</ele><time>2026-05-02T07:36:37.863Z</time></trkpt><trkpt lat="45.7835035" lon="12.4404436"><ele>12.0</ele><time>2026-05-02T07:36:38.862Z</time></trkpt><trkpt lat="45.7834704" lon="12.4401986"><ele>12.0</ele><time>2026-05-02T07:36:39.863Z</time></trkpt><trkpt lat="45.783431" lon="12.4399439"><ele>12.0</ele><time>2026-05-02T07:36:40.862Z</time></trkpt><trkpt lat="45.7833921" lon="12.439693"><ele>12.333333333333332</ele><time>2026-05-02T07:36:41.862Z</time></trkpt><trkpt lat="45.7833538" lon="12.4394552"><ele>12.666666666666666</ele><time>2026-05-02T07:36:42.863Z</time></trkpt><trkpt lat="45.7833178" lon="12.4392087"><ele>13.0</ele><time>2026-05-02T07:36:43.863Z</time></trkpt><trkpt lat="45.7832795" lon="12.4389602"><ele>13.333333333333332</ele><time>2026-05-02T07:36:44.863Z</time></trkpt><trkpt lat="45.7832422" lon="12.4387244"><ele>13.666666666666668</ele><time>2026-05-02T07:36:45.862Z</time></trkpt><trkpt lat="45.7832061" lon="12.438507"><ele>14.0</ele><time>2026-05-02T07:36:46.863Z</time></trkpt><trkpt lat="45.7831733" lon="12.4382911"><ele>14.0</ele><time>2026-05-02T07:36:47.862Z</time></trkpt><trkpt lat="45.7831294" lon="12.4380738"><ele>14.0</ele><time>2026-05-02T07:36:48.862Z</time></trkpt><trkpt lat="45.7830692" lon="12.4378537"><ele>14.0</ele><time>2026-05-02T07:36:49.863Z</time></trkpt><trkpt lat="45.7829732" lon="12.4376351"><ele>13.666666666666668</ele><time>2026-05-02T07:36:50.862Z</time></trkpt><trkpt lat="45.7828585" lon="12.4374113"><ele>13.333333333333332</ele><time>2026-05-02T07:36:51.862Z</time></trkpt><trkpt lat="45.7827349" lon="12.4371745"><ele>13.0</ele><time>2026-05-02T07:36:52.862Z</time></trkpt><trkpt lat="45.7826112" lon="12.4369202"><ele>13.0</ele><time>2026-05-02T07:36:53.863Z</time></trkpt><trkpt lat="45.7824917" lon="12.4366575"><ele>13.0</ele><time>2026-05-02T07:36:54.862Z</time></trkpt><trkpt lat="45.7823661" lon="12.4363686"><ele>13.5</ele><time>2026-05-02T07:36:55.863Z</time></trkpt><trkpt lat="45.7822382" lon="12.4360716"><ele>14.0</ele><time>2026-05-02T07:36:56.862Z</time></trkpt><trkpt lat="45.7821044" lon="12.435761"><ele>14.0</ele><time>2026-05-02T07:36:57.863Z</time></trkpt><trkpt lat="45.7819699" lon="12.4354345"><ele>14.0</ele><time>2026-05-02T07:36:58.863Z</time></trkpt><trkpt lat="45.7818482" lon="12.4350919"><ele>14.0</ele><time>2026-05-02T07:36:59.864Z</time></trkpt><trkpt lat="45.7817391" lon="12.4347416"><ele>14.0</ele><time>2026-05-02T07:37:00.863Z</time></trkpt><trkpt lat="45.7816283" lon="12.4344057"><ele>14.0</ele><time>2026-05-02T07:37:01.863Z</time></trkpt><trkpt lat="45.7815228" lon="12.4341"><ele>14.0</ele><time>2026-05-02T07:37:02.863Z</time></trkpt><trkpt lat="45.781419" lon="12.4338156"><ele>14.333333333333334</ele><time>2026-05-02T07:37:03.864Z</time></trkpt><trkpt lat="45.7813142" lon="12.433543"><ele>14.666666666666668</ele><time>2026-05-02T07:37:04.862Z</time></trkpt><trkpt lat="45.7812105" lon="12.4332911"><ele>15.0</ele><time>2026-05-02T07:37:05.862Z</time></trkpt><trkpt lat="45.7811086" lon="12.4330609"><ele>15.666666666666668</ele><time>2026-05-02T07:37:06.863Z</time></trkpt><trkpt lat="45.7810054" lon="12.4328471"><ele>16.333333333333336</ele><time>2026-05-02T07:37:07.863Z</time></trkpt><trkpt lat="45.7809028" lon="12.4326312"><ele>17.0</ele><time>2026-05-02T07:37:08.864Z</time></trkpt><trkpt lat="45.7807984" lon="12.432416"><ele>17.0</ele><time>2026-05-02T07:37:09.863Z</time></trkpt><trkpt lat="45.7806972" lon="12.432201"><ele>17.0</ele><time>2026-05-02T07:37:10.863Z</time></trkpt><trkpt lat="45.7805992" lon="12.4319841"><ele>17.0</ele><time>2026-05-02T07:37:11.863Z</time></trkpt><trkpt lat="45.7805097" lon="12.4317603"><ele>17.0</ele><time>2026-05-02T07:37:12.863Z</time></trkpt><trkpt lat="45.7804311" lon="12.4315274"><ele>17.0</ele><time>2026-05-02T07:37:13.864Z</time></trkpt><trkpt lat="45.7803604" lon="12.4312784"><ele>17.0</ele><time>2026-05-02T07:37:14.864Z</time></trkpt><trkpt lat="45.7802965" lon="12.4310391"><ele>16.666666666666668</ele><time>2026-05-02T07:37:15.864Z</time></trkpt><trkpt lat="45.7802353" lon="12.4308182"><ele>16.333333333333332</ele><time>2026-05-02T07:37:16.864Z</time></trkpt><trkpt lat="45.7801787" lon="12.4306099"><ele>16.0</ele><time>2026-05-02T07:37:17.863Z</time></trkpt><trkpt lat="45.7801285" lon="12.4304128"><ele>16.0</ele><time>2026-05-02T07:37:18.864Z</time></trkpt><trkpt lat="45.7800802" lon="12.43023"><ele>16.0</ele><time>2026-05-02T07:37:19.863Z</time></trkpt><trkpt lat="45.7800331" lon="12.4300612"><ele>16.0</ele><time>2026-05-02T07:37:20.863Z</time></trkpt><trkpt lat="45.7799918" lon="12.4299092"><ele>16.0</ele><time>2026-05-02T07:37:21.864Z</time></trkpt><trkpt lat="45.7799482" lon="12.4297555"><ele>15.75</ele><time>2026-05-02T07:37:22.863Z</time></trkpt><trkpt lat="45.7799052" lon="12.4295968"><ele>15.5</ele><time>2026-05-02T07:37:23.864Z</time></trkpt><trkpt lat="45.7798629" lon="12.429441"><ele>15.25</ele><time>2026-05-02T07:37:24.864Z</time></trkpt><trkpt lat="45.7798237" lon="12.4292787"><ele>15.0</ele><time>2026-05-02T07:37:25.863Z</time></trkpt><trkpt lat="45.7797843" lon="12.4291197"><ele>15.0</ele><time>2026-05-02T07:37:26.863Z</time></trkpt><trkpt lat="45.779748" lon="12.428963"><ele>15.0</ele><time>2026-05-02T07:37:27.863Z</time></trkpt><trkpt lat="45.7797139" lon="12.4288092"><ele>15.0</ele><time>2026-05-02T07:37:28.864Z</time></trkpt><trkpt lat="45.7796758" lon="12.4286431"><ele>15.0</ele><time>2026-05-02T07:37:29.864Z</time></trkpt><trkpt lat="45.7796414" lon="12.4284735"><ele>15.4</ele><time>2026-05-02T07:37:30.864Z</time></trkpt><trkpt lat="45.7796112" lon="12.4283165"><ele>15.8</ele><time>2026-05-02T07:37:31.864Z</time></trkpt><trkpt lat="45.7795819" lon="12.428178"><ele>16.2</ele><time>2026-05-02T07:37:32.864Z</time></trkpt><trkpt lat="45.7795547" lon="12.4280535"><ele>16.6</ele><time>2026-05-02T07:37:33.864Z</time></trkpt><trkpt lat="45.7795272" lon="12.4279507"><ele>17.0</ele><time>2026-05-02T07:37:34.863Z</time></trkpt><trkpt lat="45.7795056" lon="12.4278583"><ele>16.999999999999996</ele><time>2026-05-02T07:37:35.863Z</time></trkpt><trkpt lat="45.7794823" lon="12.427773"><ele>17.0</ele><time>2026-05-02T07:37:36.863Z</time></trkpt><trkpt lat="45.7794622" lon="12.4276759"><ele>17.0</ele><time>2026-05-02T07:37:37.863Z</time></trkpt><trkpt lat="45.7794567" lon="12.4275724"><ele>17.0</ele><time>2026-05-02T07:37:38.864Z</time></trkpt><trkpt lat="45.7794493" lon="12.4274671"><ele>17.0</ele><time>2026-05-02T07:37:39.864Z</time></trkpt><trkpt lat="45.7794368" lon="12.4273601"><ele>16.999999999999996</ele><time>2026-05-02T07:37:40.863Z</time></trkpt><trkpt lat="45.7794144" lon="12.4272515"><ele>17.0</ele><time>2026-05-02T07:37:41.864Z</time></trkpt><trkpt lat="45.779378" lon="12.4271374"><ele>17.25</ele><time>2026-05-02T07:37:42.863Z</time></trkpt><trkpt lat="45.7793321" lon="12.4270025"><ele>17.5</ele><time>2026-05-02T07:37:43.864Z</time></trkpt><trkpt lat="45.7792864" lon="12.4268394"><ele>17.75</ele><time>2026-05-02T07:37:44.863Z</time></trkpt><trkpt lat="45.7792421" lon="12.4266518"><ele>18.0</ele><time>2026-05-02T07:37:45.864Z</time></trkpt><trkpt lat="45.7791926" lon="12.4264399"><ele>18.0</ele><time>2026-05-02T07:37:46.864Z</time></trkpt><trkpt lat="45.7791375" lon="12.4262137"><ele>18.0</ele><time>2026-05-02T07:37:47.864Z</time></trkpt><trkpt lat="45.7790833" lon="12.4259933"><ele>18.0</ele><time>2026-05-02T07:37:48.863Z</time></trkpt><trkpt lat="45.7790345" lon="12.4257891"><ele>18.0</ele><time>2026-05-02T07:37:49.863Z</time></trkpt><trkpt lat="45.7789851" lon="12.4255964"><ele>18.0</ele><time>2026-05-02T07:37:50.863Z</time></trkpt><trkpt lat="45.7789381" lon="12.4254005"><ele>18.0</ele><time>2026-05-02T07:37:51.863Z</time></trkpt><trkpt lat="45.7788905" lon="12.4252025"><ele>18.0</ele><time>2026-05-02T07:37:52.863Z</time></trkpt><trkpt lat="45.7788357" lon="12.4249993"><ele>17.333333333333332</ele><time>2026-05-02T07:37:53.864Z</time></trkpt><trkpt lat="45.7787961" lon="12.4247953"><ele>16.666666666666664</ele><time>2026-05-02T07:37:54.864Z</time></trkpt><trkpt lat="45.7787762" lon="12.4245798"><ele>16.0</ele><time>2026-05-02T07:37:55.864Z</time></trkpt><trkpt lat="45.7787806" lon="12.4243546"><ele>15.666666666666666</ele><time>2026-05-02T07:37:56.864Z</time></trkpt><trkpt lat="45.7788019" lon="12.4241155"><ele>15.333333333333332</ele><time>2026-05-02T07:37:57.863Z</time></trkpt><trkpt lat="45.7788342" lon="12.4238821"><ele>15.0</ele><time>2026-05-02T07:37:58.864Z</time></trkpt><trkpt lat="45.7788653" lon="12.4236726"><ele>15.666666666666668</ele><time>2026-05-02T07:37:59.864Z</time></trkpt><trkpt lat="45.7788905" lon="12.4234597"><ele>16.333333333333336</ele><time>2026-05-02T07:38:00.864Z</time></trkpt><trkpt lat="45.7789131" lon="12.4232398"><ele>17.0</ele><time>2026-05-02T07:38:01.864Z</time></trkpt><trkpt lat="45.7789354" lon="12.4230235"><ele>17.0</ele><time>2026-05-02T07:38:02.864Z</time></trkpt><trkpt lat="45.7789392" lon="12.4228067"><ele>17.0</ele><time>2026-05-02T07:38:03.864Z</time></trkpt><trkpt lat="45.778931" lon="12.4225972"><ele>17.0</ele><time>2026-05-02T07:38:04.864Z</time></trkpt><trkpt lat="45.7789143" lon="12.4224121"><ele>17.0</ele><time>2026-05-02T07:38:05.863Z</time></trkpt><trkpt lat="45.7788978" lon="12.4222424"><ele>17.0</ele><time>2026-05-02T07:38:06.863Z</time></trkpt><trkpt lat="45.7788868" lon="12.4220743"><ele>17.0</ele><time>2026-05-02T07:38:07.864Z</time></trkpt><trkpt lat="45.7788739" lon="12.4219005"><ele>17.0</ele><time>2026-05-02T07:38:08.864Z</time></trkpt><trkpt lat="45.7788631" lon="12.4217395"><ele>17.0</ele><time>2026-05-02T07:38:09.865Z</time></trkpt><trkpt lat="45.7788579" lon="12.4215892"><ele>17.0</ele><time>2026-05-02T07:38:10.864Z</time></trkpt><trkpt lat="45.7788555" lon="12.4214433"><ele>17.0</ele><time>2026-05-02T07:38:11.865Z</time></trkpt><trkpt lat="45.77886" lon="12.4213021"><ele>17.0</ele><time>2026-05-02T07:38:12.865Z</time></trkpt><trkpt lat="45.7788703" lon="12.4211411"><ele>17.0</ele><time>2026-05-02T07:38:13.865Z</time></trkpt><trkpt lat="45.7788923" lon="12.4209622"><ele>17.0</ele><time>2026-05-02T07:38:14.864Z</time></trkpt><trkpt lat="45.778927" lon="12.4207816"><ele>16.666666666666668</ele><time>2026-05-02T07:38:15.865Z</time></trkpt><trkpt lat="45.7789804" lon="12.4205927"><ele>16.333333333333332</ele><time>2026-05-02T07:38:16.864Z</time></trkpt><trkpt lat="45.7790498" lon="12.4203681"><ele>16.0</ele><time>2026-05-02T07:38:17.865Z</time></trkpt><trkpt lat="45.7791204" lon="12.4201376"><ele>16.5</ele><time>2026-05-02T07:38:18.865Z</time></trkpt><trkpt lat="45.7791848" lon="12.4199397"><ele>17.0</ele><time>2026-05-02T07:38:19.864Z</time></trkpt><trkpt lat="45.7792427" lon="12.4197618"><ele>17.5</ele><time>2026-05-02T07:38:20.864Z</time></trkpt><trkpt lat="45.7792929" lon="12.4195974"><ele>18.0</ele><time>2026-05-02T07:38:21.865Z</time></trkpt><trkpt lat="45.7793361" lon="12.4194401"><ele>18.0</ele><time>2026-05-02T07:38:22.864Z</time></trkpt><trkpt lat="45.7793805" lon="12.4193001"><ele>18.0</ele><time>2026-05-02T07:38:23.864Z</time></trkpt><trkpt lat="45.7794202" lon="12.419182"><ele>18.0</ele><time>2026-05-02T07:38:24.865Z</time></trkpt><trkpt lat="45.7794552" lon="12.4190705"><ele>18.0</ele><time>2026-05-02T07:38:25.865Z</time></trkpt><trkpt lat="45.7794799" lon="12.4189744"><ele>18.0</ele><time>2026-05-02T07:38:26.865Z</time></trkpt><trkpt lat="45.7795083" lon="12.4188924"><ele>18.0</ele><time>2026-05-02T07:38:27.865Z</time></trkpt><trkpt lat="45.7795511" lon="12.4187724"><ele>18.0</ele><time>2026-05-02T07:38:29.865Z</time></trkpt><trkpt lat="45.7795903" lon="12.4186113"><ele>18.0</ele><time>2026-05-02T07:38:31.864Z</time></trkpt><trkpt lat="45.7796124" lon="12.4185159"><ele>18.0</ele><time>2026-05-02T07:38:32.864Z</time></trkpt><trkpt lat="45.7796375" lon="12.4184238"><ele>18.0</ele><time>2026-05-02T07:38:33.864Z</time></trkpt><trkpt lat="45.7796648" lon="12.4183262"><ele>18.0</ele><time>2026-05-02T07:38:34.865Z</time></trkpt><trkpt lat="45.7797005" lon="12.4182297"><ele>18.0</ele><time>2026-05-02T07:38:35.865Z</time></trkpt><trkpt lat="45.7797365" lon="12.41813"><ele>18.0</ele><time>2026-05-02T07:38:36.864Z</time></trkpt><trkpt lat="45.7797738" lon="12.4180272"><ele>18.0</ele><time>2026-05-02T07:38:37.865Z</time></trkpt><trkpt lat="45.779811" lon="12.4179104"><ele>18.0</ele><time>2026-05-02T07:38:38.864Z</time></trkpt><trkpt lat="45.7798493" lon="12.4177875"><ele>18.0</ele><time>2026-05-02T07:38:39.864Z</time></trkpt><trkpt lat="45.7798921" lon="12.4176502"><ele>18.0</ele><time>2026-05-02T07:38:40.865Z</time></trkpt><trkpt lat="45.7799392" lon="12.4175064"><ele>18.0</ele><time>2026-05-02T07:38:41.864Z</time></trkpt><trkpt lat="45.779981" lon="12.4173634"><ele>18.0</ele><time>2026-05-02T07:38:42.865Z</time></trkpt><trkpt lat="45.7800274" lon="12.4172277"><ele>18.0</ele><time>2026-05-02T07:38:43.865Z</time></trkpt><trkpt lat="45.7800769" lon="12.4170729"><ele>18.0</ele><time>2026-05-02T07:38:44.864Z</time></trkpt><trkpt lat="45.7801297" lon="12.4169154"><ele>18.0</ele><time>2026-05-02T07:38:45.865Z</time></trkpt><trkpt lat="45.780189" lon="12.4167403"><ele>18.0</ele><time>2026-05-02T07:38:46.864Z</time></trkpt><trkpt lat="45.7802522" lon="12.4165554"><ele>18.0</ele><time>2026-05-02T07:38:47.865Z</time></trkpt><trkpt lat="45.7803195" lon="12.4163709"><ele>18.0</ele><time>2026-05-02T07:38:48.865Z</time></trkpt><trkpt lat="45.7803965" lon="12.4161869"><ele>18.0</ele><time>2026-05-02T07:38:49.864Z</time></trkpt><trkpt lat="45.7804725" lon="12.4160027"><ele>18.0</ele><time>2026-05-02T07:38:50.865Z</time></trkpt><trkpt lat="45.7805544" lon="12.4158268"><ele>18.0</ele><time>2026-05-02T07:38:51.865Z</time></trkpt><trkpt lat="45.7806382" lon="12.4156466"><ele>18.0</ele><time>2026-05-02T07:38:52.864Z</time></trkpt><trkpt lat="45.7807264" lon="12.415468"><ele>18.0</ele><time>2026-05-02T07:38:53.865Z</time></trkpt><trkpt lat="45.7808177" lon="12.4152961"><ele>18.0</ele><time>2026-05-02T07:38:54.865Z</time></trkpt><trkpt lat="45.7809105" lon="12.4151254"><ele>18.0</ele><time>2026-05-02T07:38:55.865Z</time></trkpt><trkpt lat="45.7810148" lon="12.4149628"><ele>17.666666666666668</ele><time>2026-05-02T07:38:56.864Z</time></trkpt><trkpt lat="45.781123" lon="12.4148006"><ele>17.333333333333336</ele><time>2026-05-02T07:38:57.865Z</time></trkpt><trkpt lat="45.7812357" lon="12.4146345"><ele>17.0</ele><time>2026-05-02T07:38:58.865Z</time></trkpt><trkpt lat="45.7813501" lon="12.4144687"><ele>17.0</ele><time>2026-05-02T07:38:59.864Z</time></trkpt><trkpt lat="45.7814645" lon="12.414299"><ele>17.0</ele><time>2026-05-02T07:39:00.864Z</time></trkpt><trkpt lat="45.7815761" lon="12.4141292"><ele>17.0</ele><time>2026-05-02T07:39:01.865Z</time></trkpt><trkpt lat="45.781674" lon="12.4139343"><ele>17.0</ele><time>2026-05-02T07:39:02.864Z</time></trkpt><trkpt lat="45.7817692" lon="12.4137378"><ele>17.0</ele><time>2026-05-02T07:39:03.865Z</time></trkpt><trkpt lat="45.7818523" lon="12.4135483"><ele>17.0</ele><time>2026-05-02T07:39:04.865Z</time></trkpt><trkpt lat="45.7819261" lon="12.4133723"><ele>17.25</ele><time>2026-05-02T07:39:05.864Z</time></trkpt><trkpt lat="45.7819914" lon="12.4132001"><ele>17.5</ele><time>2026-05-02T07:39:06.865Z</time></trkpt><trkpt lat="45.7820501" lon="12.4130321"><ele>17.75</ele><time>2026-05-02T07:39:07.864Z</time></trkpt><trkpt lat="45.7821006" lon="12.4128752"><ele>18.0</ele><time>2026-05-02T07:39:08.864Z</time></trkpt><trkpt lat="45.7821459" lon="12.4127226"><ele>18.0</ele><time>2026-05-02T07:39:09.865Z</time></trkpt><trkpt lat="45.782192" lon="12.412564"><ele>18.0</ele><time>2026-05-02T07:39:10.864Z</time></trkpt><trkpt lat="45.782237" lon="12.4124048"><ele>18.0</ele><time>2026-05-02T07:39:11.865Z</time></trkpt><trkpt lat="45.7822798" lon="12.4122575"><ele>18.0</ele><time>2026-05-02T07:39:12.865Z</time></trkpt><trkpt lat="45.7823182" lon="12.4121248"><ele>18.0</ele><time>2026-05-02T07:39:13.866Z</time></trkpt><trkpt lat="45.7823514" lon="12.4120065"><ele>18.0</ele><time>2026-05-02T07:39:14.865Z</time></trkpt><trkpt lat="45.7823822" lon="12.4119021"><ele>18.0</ele><time>2026-05-02T07:39:15.866Z</time></trkpt><trkpt lat="45.7824084" lon="12.4118024"><ele>18.0</ele><time>2026-05-02T07:39:16.866Z</time></trkpt><trkpt lat="45.7824361" lon="12.4117053"><ele>18.0</ele><time>2026-05-02T07:39:17.866Z</time></trkpt><trkpt lat="45.7824631" lon="12.411607"><ele>18.0</ele><time>2026-05-02T07:39:18.866Z</time></trkpt><trkpt lat="45.7824919" lon="12.4115068"><ele>18.0</ele><time>2026-05-02T07:39:19.866Z</time></trkpt><trkpt lat="45.7825222" lon="12.4114038"><ele>18.0</ele><time>2026-05-02T07:39:20.866Z</time></trkpt><trkpt lat="45.7825532" lon="12.411299"><ele>18.0</ele><time>2026-05-02T07:39:21.865Z</time></trkpt><trkpt lat="45.7825846" lon="12.4111878"><ele>18.0</ele><time>2026-05-02T07:39:22.865Z</time></trkpt><trkpt lat="45.7826162" lon="12.4110721"><ele>18.0</ele><time>2026-05-02T07:39:23.865Z</time></trkpt><trkpt lat="45.7826476" lon="12.4109565"><ele>18.0</ele><time>2026-05-02T07:39:24.865Z</time></trkpt><trkpt lat="45.7826772" lon="12.4108458"><ele>18.0</ele><time>2026-05-02T07:39:25.866Z</time></trkpt><trkpt lat="45.782704" lon="12.4107456"><ele>18.0</ele><time>2026-05-02T07:39:26.866Z</time></trkpt><trkpt lat="45.7827299" lon="12.4106499"><ele>18.0</ele><time>2026-05-02T07:39:27.865Z</time></trkpt><trkpt lat="45.7827561" lon="12.410557"><ele>18.0</ele><time>2026-05-02T07:39:28.866Z</time></trkpt><trkpt lat="45.7827829" lon="12.4104661"><ele>18.0</ele><time>2026-05-02T07:39:29.866Z</time></trkpt><trkpt lat="45.7828228" lon="12.4103641"><ele>18.0</ele><time>2026-05-02T07:39:30.866Z</time></trkpt><trkpt lat="45.782872" lon="12.4102548"><ele>18.0</ele><time>2026-05-02T07:39:31.866Z</time></trkpt><trkpt lat="45.7829078" lon="12.4101201"><ele>18.0</ele><time>2026-05-02T07:39:32.866Z</time></trkpt><trkpt lat="45.7829337" lon="12.4099633"><ele>18.0</ele><time>2026-05-02T07:39:33.866Z</time></trkpt><trkpt lat="45.7829631" lon="12.4097971"><ele>18.0</ele><time>2026-05-02T07:39:34.866Z</time></trkpt><trkpt lat="45.7830027" lon="12.4096362"><ele>18.0</ele><time>2026-05-02T07:39:35.865Z</time></trkpt><trkpt lat="45.7830477" lon="12.409474"><ele>18.0</ele><time>2026-05-02T07:39:36.866Z</time></trkpt><trkpt lat="45.7830937" lon="12.4093106"><ele>18.0</ele><time>2026-05-02T07:39:37.866Z</time></trkpt><trkpt lat="45.7831413" lon="12.4091382"><ele>18.0</ele><time>2026-05-02T07:39:38.866Z</time></trkpt><trkpt lat="45.7831884" lon="12.4089642"><ele>18.25</ele><time>2026-05-02T07:39:39.866Z</time></trkpt><trkpt lat="45.7832362" lon="12.4087868"><ele>18.5</ele><time>2026-05-02T07:39:40.865Z</time></trkpt><trkpt lat="45.7832862" lon="12.4086086"><ele>18.75</ele><time>2026-05-02T07:39:41.865Z</time></trkpt><trkpt lat="45.7833377" lon="12.4084285"><ele>19.0</ele><time>2026-05-02T07:39:42.866Z</time></trkpt><trkpt lat="45.7833912" lon="12.4082476"><ele>19.0</ele><time>2026-05-02T07:39:43.866Z</time></trkpt><trkpt lat="45.7834454" lon="12.4080633"><ele>19.0</ele><time>2026-05-02T07:39:44.865Z</time></trkpt><trkpt lat="45.7834992" lon="12.4078749"><ele>19.0</ele><time>2026-05-02T07:39:45.866Z</time></trkpt><trkpt lat="45.7835491" lon="12.4076868"><ele>19.0</ele><time>2026-05-02T07:39:46.866Z</time></trkpt><trkpt lat="45.7836006" lon="12.407495"><ele>19.0</ele><time>2026-05-02T07:39:47.866Z</time></trkpt><trkpt lat="45.7836583" lon="12.4072918"><ele>19.0</ele><time>2026-05-02T07:39:48.865Z</time></trkpt><trkpt lat="45.783719" lon="12.4070799"><ele>19.0</ele><time>2026-05-02T07:39:49.865Z</time></trkpt><trkpt lat="45.7837796" lon="12.4068671"><ele>19.333333333333332</ele><time>2026-05-02T07:39:50.865Z</time></trkpt><trkpt lat="45.7838394" lon="12.4066564"><ele>19.666666666666668</ele><time>2026-05-02T07:39:51.865Z</time></trkpt><trkpt lat="45.7838974" lon="12.4064484"><ele>20.0</ele><time>2026-05-02T07:39:52.866Z</time></trkpt><trkpt lat="45.7839528" lon="12.4062509"><ele>19.5</ele><time>2026-05-02T07:39:53.865Z</time></trkpt><trkpt lat="45.7840046" lon="12.406068"><ele>19.0</ele><time>2026-05-02T07:39:54.866Z</time></trkpt><trkpt lat="45.7840538" lon="12.4059011"><ele>18.5</ele><time>2026-05-02T07:39:55.866Z</time></trkpt><trkpt lat="45.7841017" lon="12.4057522"><ele>18.0</ele><time>2026-05-02T07:39:56.866Z</time></trkpt><trkpt lat="45.7841453" lon="12.4056193"><ele>18.0</ele><time>2026-05-02T07:39:57.865Z</time></trkpt><trkpt lat="45.784184" lon="12.4055004"><ele>18.0</ele><time>2026-05-02T07:39:58.866Z</time></trkpt><trkpt lat="45.7842179" lon="12.4053937"><ele>18.0</ele><time>2026-05-02T07:39:59.865Z</time></trkpt><trkpt lat="45.7842484" lon="12.4052924"><ele>18.0</ele><time>2026-05-02T07:40:00.866Z</time></trkpt><trkpt lat="45.7842772" lon="12.4051947"><ele>18.0</ele><time>2026-05-02T07:40:01.866Z</time></trkpt><trkpt lat="45.7843057" lon="12.4050957"><ele>18.0</ele><time>2026-05-02T07:40:02.865Z</time></trkpt><trkpt lat="45.7843366" lon="12.4049961"><ele>18.0</ele><time>2026-05-02T07:40:03.865Z</time></trkpt><trkpt lat="45.7843791" lon="12.4049007"><ele>18.0</ele><time>2026-05-02T07:40:04.866Z</time></trkpt><trkpt lat="45.784441" lon="12.4048244"><ele>18.0</ele><time>2026-05-02T07:40:05.866Z</time></trkpt><trkpt lat="45.7844993" lon="12.4047364"><ele>18.0</ele><time>2026-05-02T07:40:06.865Z</time></trkpt><trkpt lat="45.7845312" lon="12.4046225"><ele>18.0</ele><time>2026-05-02T07:40:07.865Z</time></trkpt><trkpt lat="45.7845396" lon="12.4044938"><ele>18.0</ele><time>2026-05-02T07:40:08.865Z</time></trkpt><trkpt lat="45.7845415" lon="12.4043532"><ele>18.5</ele><time>2026-05-02T07:40:09.866Z</time></trkpt><trkpt lat="45.7845594" lon="12.4041982"><ele>19.0</ele><time>2026-05-02T07:40:10.866Z</time></trkpt><trkpt lat="45.7846002" lon="12.4040284"><ele>19.5</ele><time>2026-05-02T07:40:11.866Z</time></trkpt><trkpt lat="45.7846504" lon="12.4038478"><ele>20.0</ele><time>2026-05-02T07:40:12.866Z</time></trkpt><trkpt lat="45.7846995" lon="12.4036595"><ele>20.0</ele><time>2026-05-02T07:40:13.866Z</time></trkpt><trkpt lat="45.7847485" lon="12.4034672"><ele>20.0</ele><time>2026-05-02T07:40:14.866Z</time></trkpt><trkpt lat="45.7847975" lon="12.4032775"><ele>20.0</ele><time>2026-05-02T07:40:15.866Z</time></trkpt><trkpt lat="45.784844" lon="12.4031022"><ele>20.0</ele><time>2026-05-02T07:40:16.866Z</time></trkpt><trkpt lat="45.784893" lon="12.4029221"><ele>20.666666666666668</ele><time>2026-05-02T07:40:17.866Z</time></trkpt><trkpt lat="45.7849479" lon="12.402728"><ele>21.333333333333332</ele><time>2026-05-02T07:40:18.867Z</time></trkpt><trkpt lat="45.7850133" lon="12.4025288"><ele>22.0</ele><time>2026-05-02T07:40:19.866Z</time></trkpt><trkpt lat="45.7850986" lon="12.4023263"><ele>21.333333333333332</ele><time>2026-05-02T07:40:20.866Z</time></trkpt><trkpt lat="45.7852011" lon="12.4021223"><ele>20.666666666666668</ele><time>2026-05-02T07:40:21.867Z</time></trkpt><trkpt lat="45.785308" lon="12.4019246"><ele>20.0</ele><time>2026-05-02T07:40:22.867Z</time></trkpt><trkpt lat="45.7854214" lon="12.4017446"><ele>20.0</ele><time>2026-05-02T07:40:23.866Z</time></trkpt><trkpt lat="45.7855352" lon="12.4015752"><ele>20.0</ele><time>2026-05-02T07:40:24.867Z</time></trkpt><trkpt lat="45.7856533" lon="12.4014161"><ele>20.0</ele><time>2026-05-02T07:40:25.867Z</time></trkpt><trkpt lat="45.7857667" lon="12.4012754"><ele>20.0</ele><time>2026-05-02T07:40:26.867Z</time></trkpt><trkpt lat="45.7858735" lon="12.4011381"><ele>20.0</ele><time>2026-05-02T07:40:27.866Z</time></trkpt><trkpt lat="45.7859773" lon="12.4010023"><ele>20.0</ele><time>2026-05-02T07:40:28.866Z</time></trkpt><trkpt lat="45.7860789" lon="12.4008731"><ele>20.0</ele><time>2026-05-02T07:40:29.867Z</time></trkpt><trkpt lat="45.7861768" lon="12.4007482"><ele>19.75</ele><time>2026-05-02T07:40:30.867Z</time></trkpt><trkpt lat="45.7862742" lon="12.400625"><ele>19.5</ele><time>2026-05-02T07:40:31.866Z</time></trkpt><trkpt lat="45.7863666" lon="12.4004948"><ele>19.25</ele><time>2026-05-02T07:40:32.867Z</time></trkpt><trkpt lat="45.7864621" lon="12.4003666"><ele>19.0</ele><time>2026-05-02T07:40:33.867Z</time></trkpt><trkpt lat="45.7865649" lon="12.4002431"><ele>19.0</ele><time>2026-05-02T07:40:34.867Z</time></trkpt><trkpt lat="45.7866735" lon="12.4001236"><ele>19.0</ele><time>2026-05-02T07:40:35.866Z</time></trkpt><trkpt lat="45.7867799" lon="12.3999959"><ele>19.0</ele><time>2026-05-02T07:40:36.867Z</time></trkpt><trkpt lat="45.7868823" lon="12.3998654"><ele>19.0</ele><time>2026-05-02T07:40:37.867Z</time></trkpt><trkpt lat="45.7869812" lon="12.399738"><ele>20.0</ele><time>2026-05-02T07:40:38.867Z</time></trkpt><trkpt lat="45.7870805" lon="12.3996129"><ele>21.0</ele><time>2026-05-02T07:40:39.866Z</time></trkpt><trkpt lat="45.7871764" lon="12.399486"><ele>22.0</ele><time>2026-05-02T07:40:40.867Z</time></trkpt><trkpt lat="45.7872726" lon="12.3993627"><ele>23.0</ele><time>2026-05-02T07:40:41.866Z</time></trkpt><trkpt lat="45.7873679" lon="12.3992395"><ele>23.0</ele><time>2026-05-02T07:40:42.866Z</time></trkpt><trkpt lat="45.7874643" lon="12.3991168"><ele>23.0</ele><time>2026-05-02T07:40:43.866Z</time></trkpt><trkpt lat="45.7875581" lon="12.3989949"><ele>23.0</ele><time>2026-05-02T07:40:44.867Z</time></trkpt><trkpt lat="45.7876564" lon="12.3988743"><ele>23.0</ele><time>2026-05-02T07:40:45.866Z</time></trkpt><trkpt lat="45.787755" lon="12.3987535"><ele>22.75</ele><time>2026-05-02T07:40:46.867Z</time></trkpt><trkpt lat="45.7878479" lon="12.398628"><ele>22.5</ele><time>2026-05-02T07:40:47.867Z</time></trkpt><trkpt lat="45.7879398" lon="12.3985051"><ele>22.25</ele><time>2026-05-02T07:40:48.867Z</time></trkpt><trkpt lat="45.7880355" lon="12.3983821"><ele>22.0</ele><time>2026-05-02T07:40:49.867Z</time></trkpt><trkpt lat="45.7881288" lon="12.3982662"><ele>22.0</ele><time>2026-05-02T07:40:50.867Z</time></trkpt><trkpt lat="45.7882204" lon="12.3981489"><ele>22.0</ele><time>2026-05-02T07:40:51.866Z</time></trkpt><trkpt lat="45.7883072" lon="12.3980349"><ele>22.0</ele><time>2026-05-02T07:40:52.866Z</time></trkpt><trkpt lat="45.7883927" lon="12.3979252"><ele>22.0</ele><time>2026-05-02T07:40:53.866Z</time></trkpt><trkpt lat="45.7884766" lon="12.3978155"><ele>21.8</ele><time>2026-05-02T07:40:54.866Z</time></trkpt><trkpt lat="45.7885583" lon="12.3977088"><ele>21.6</ele><time>2026-05-02T07:40:55.867Z</time></trkpt><trkpt lat="45.7886323" lon="12.3976129"><ele>21.400000000000002</ele><time>2026-05-02T07:40:56.867Z</time></trkpt><trkpt lat="45.7886929" lon="12.397525"><ele>21.200000000000003</ele><time>2026-05-02T07:40:57.867Z</time></trkpt><trkpt lat="45.7887563" lon="12.3974351"><ele>21.0</ele><time>2026-05-02T07:40:58.867Z</time></trkpt><trkpt lat="45.7888229" lon="12.3973365"><ele>21.0</ele><time>2026-05-02T07:40:59.867Z</time></trkpt><trkpt lat="45.7888943" lon="12.3972308"><ele>21.0</ele><time>2026-05-02T07:41:00.867Z</time></trkpt><trkpt lat="45.7889687" lon="12.3971154"><ele>21.0</ele><time>2026-05-02T07:41:01.867Z</time></trkpt><trkpt lat="45.7890492" lon="12.396996"><ele>21.0</ele><time>2026-05-02T07:41:02.866Z</time></trkpt><trkpt lat="45.7891309" lon="12.3968773"><ele>21.0</ele><time>2026-05-02T07:41:03.867Z</time></trkpt><trkpt lat="45.7892118" lon="12.3967532"><ele>21.200000000000003</ele><time>2026-05-02T07:41:04.866Z</time></trkpt><trkpt lat="45.7892838" lon="12.3966307"><ele>21.400000000000002</ele><time>2026-05-02T07:41:05.866Z</time></trkpt><trkpt lat="45.7893484" lon="12.3965084"><ele>21.6</ele><time>2026-05-02T07:41:06.866Z</time></trkpt><trkpt lat="45.789415" lon="12.3963777"><ele>21.8</ele><time>2026-05-02T07:41:07.866Z</time></trkpt><trkpt lat="45.7894837" lon="12.3962476"><ele>22.0</ele><time>2026-05-02T07:41:08.867Z</time></trkpt><trkpt lat="45.7895466" lon="12.3961175"><ele>22.666666666666664</ele><time>2026-05-02T07:41:09.867Z</time></trkpt><trkpt lat="45.789607" lon="12.3960044"><ele>23.333333333333332</ele><time>2026-05-02T07:41:10.866Z</time></trkpt><trkpt lat="45.7896583" lon="12.3959022"><ele>24.0</ele><time>2026-05-02T07:41:11.866Z</time></trkpt><trkpt lat="45.7897065" lon="12.3958042"><ele>24.666666666666664</ele><time>2026-05-02T07:41:12.866Z</time></trkpt><trkpt lat="45.7897516" lon="12.3957156"><ele>25.333333333333332</ele><time>2026-05-02T07:41:13.867Z</time></trkpt><trkpt lat="45.789791" lon="12.3956379"><ele>26.0</ele><time>2026-05-02T07:41:14.867Z</time></trkpt><trkpt lat="45.7898619" lon="12.3954978"><ele>26.0</ele><time>2026-05-02T07:41:16.868Z</time></trkpt><trkpt lat="45.7898975" lon="12.395423"><ele>26.0</ele><time>2026-05-02T07:41:17.868Z</time></trkpt><trkpt lat="45.7899376" lon="12.3953423"><ele>26.0</ele><time>2026-05-02T07:41:18.868Z</time></trkpt><trkpt lat="45.7899924" lon="12.3951873"><ele>26.0</ele><time>2026-05-02T07:41:20.867Z</time></trkpt><trkpt lat="45.7900456" lon="12.3950491"><ele>26.0</ele><time>2026-05-02T07:41:22.867Z</time></trkpt><trkpt lat="45.7901231" lon="12.3949238"><ele>26.200000000000003</ele><time>2026-05-02T07:41:24.868Z</time></trkpt><trkpt lat="45.7901804" lon="12.3948501"><ele>26.400000000000002</ele><time>2026-05-02T07:41:25.867Z</time></trkpt><trkpt lat="45.790241" lon="12.3947493"><ele>26.6</ele><time>2026-05-02T07:41:26.868Z</time></trkpt><trkpt lat="45.7903079" lon="12.3946207"><ele>26.8</ele><time>2026-05-02T07:41:27.868Z</time></trkpt><trkpt lat="45.7903818" lon="12.3944739"><ele>27.0</ele><time>2026-05-02T07:41:28.867Z</time></trkpt><trkpt lat="45.7904577" lon="12.3943259"><ele>27.0</ele><time>2026-05-02T07:41:29.867Z</time></trkpt><trkpt lat="45.7905508" lon="12.3941867"><ele>27.0</ele><time>2026-05-02T07:41:30.868Z</time></trkpt><trkpt lat="45.7906783" lon="12.3941171"><ele>27.0</ele><time>2026-05-02T07:41:31.867Z</time></trkpt><trkpt lat="45.7908087" lon="12.3940675"><ele>27.0</ele><time>2026-05-02T07:41:32.868Z</time></trkpt><trkpt lat="45.7909325" lon="12.3941099"><ele>27.200000000000003</ele><time>2026-05-02T07:41:33.867Z</time></trkpt><trkpt lat="45.7910361" lon="12.3941441"><ele>27.400000000000002</ele><time>2026-05-02T07:41:34.868Z</time></trkpt><trkpt lat="45.7911351" lon="12.3941637"><ele>27.599999999999998</ele><time>2026-05-02T07:41:35.867Z</time></trkpt><trkpt lat="45.7912287" lon="12.3941566"><ele>27.799999999999997</ele><time>2026-05-02T07:41:36.867Z</time></trkpt><trkpt lat="45.79132" lon="12.3941225"><ele>28.0</ele><time>2026-05-02T07:41:37.867Z</time></trkpt><trkpt lat="45.7914064" lon="12.39407"><ele>28.0</ele><time>2026-05-02T07:41:38.867Z</time></trkpt><trkpt lat="45.7914731" lon="12.3940196"><ele>27.999999999999996</ele><time>2026-05-02T07:41:39.867Z</time></trkpt><trkpt lat="45.7915634" lon="12.3939404"><ele>27.999999999999996</ele><time>2026-05-02T07:41:41.867Z</time></trkpt><trkpt lat="45.7916764" lon="12.3938278"><ele>28.0</ele><time>2026-05-02T07:41:43.868Z</time></trkpt><trkpt lat="45.7917649" lon="12.3937394"><ele>28.0</ele><time>2026-05-02T07:41:44.868Z</time></trkpt><trkpt lat="45.7918566" lon="12.3936482"><ele>27.333333333333336</ele><time>2026-05-02T07:41:45.867Z</time></trkpt><trkpt lat="45.7919721" lon="12.3935299"><ele>26.666666666666664</ele><time>2026-05-02T07:41:46.867Z</time></trkpt><trkpt lat="45.7920985" lon="12.3934023"><ele>26.0</ele><time>2026-05-02T07:41:47.868Z</time></trkpt><trkpt lat="45.7922394" lon="12.393262"><ele>26.0</ele><time>2026-05-02T07:41:48.867Z</time></trkpt><trkpt lat="45.7924301" lon="12.3930864"><ele>26.0</ele><time>2026-05-02T07:41:49.868Z</time></trkpt><trkpt lat="45.7925935" lon="12.3929303"><ele>26.0</ele><time>2026-05-02T07:41:50.868Z</time></trkpt><trkpt lat="45.7927502" lon="12.3927775"><ele>25.666666666666664</ele><time>2026-05-02T07:41:51.867Z</time></trkpt><trkpt lat="45.7928907" lon="12.39264"><ele>25.333333333333336</ele><time>2026-05-02T07:41:52.867Z</time></trkpt><trkpt lat="45.7930173" lon="12.392518"><ele>25.0</ele><time>2026-05-02T07:41:53.867Z</time></trkpt><trkpt lat="45.7931356" lon="12.3924025"><ele>25.0</ele><time>2026-05-02T07:41:54.868Z</time></trkpt><trkpt lat="45.7932465" lon="12.3922916"><ele>25.0</ele><time>2026-05-02T07:41:55.868Z</time></trkpt><trkpt lat="45.7933524" lon="12.3921818"><ele>25.0</ele><time>2026-05-02T07:41:56.868Z</time></trkpt><trkpt lat="45.7934592" lon="12.392072"><ele>25.0</ele><time>2026-05-02T07:41:57.867Z</time></trkpt><trkpt lat="45.7935702" lon="12.3919609"><ele>25.0</ele><time>2026-05-02T07:41:58.868Z</time></trkpt><trkpt lat="45.79369" lon="12.3918474"><ele>25.0</ele><time>2026-05-02T07:41:59.868Z</time></trkpt><trkpt lat="45.7938193" lon="12.391728"><ele>25.0</ele><time>2026-05-02T07:42:00.867Z</time></trkpt><trkpt lat="45.7939564" lon="12.3915998"><ele>25.0</ele><time>2026-05-02T07:42:01.867Z</time></trkpt><trkpt lat="45.7940984" lon="12.3914605"><ele>25.0</ele><time>2026-05-02T07:42:02.868Z</time></trkpt><trkpt lat="45.7942439" lon="12.3913166"><ele>25.0</ele><time>2026-05-02T07:42:03.868Z</time></trkpt><trkpt lat="45.7943925" lon="12.3911719"><ele>25.0</ele><time>2026-05-02T07:42:04.867Z</time></trkpt><trkpt lat="45.7945402" lon="12.391026"><ele>25.0</ele><time>2026-05-02T07:42:05.868Z</time></trkpt><trkpt lat="45.794684" lon="12.3908817"><ele>25.0</ele><time>2026-05-02T07:42:06.867Z</time></trkpt><trkpt lat="45.794829" lon="12.3907421"><ele>25.0</ele><time>2026-05-02T07:42:07.868Z</time></trkpt><trkpt lat="45.7949675" lon="12.3906048"><ele>25.0</ele><time>2026-05-02T07:42:08.867Z</time></trkpt><trkpt lat="45.7951062" lon="12.3904706"><ele>25.0</ele><time>2026-05-02T07:42:09.868Z</time></trkpt><trkpt lat="45.7952454" lon="12.3903346"><ele>25.333333333333336</ele><time>2026-05-02T07:42:10.868Z</time></trkpt><trkpt lat="45.7953842" lon="12.3901983"><ele>25.666666666666664</ele><time>2026-05-02T07:42:11.868Z</time></trkpt><trkpt lat="45.7955226" lon="12.3900627"><ele>26.0</ele><time>2026-05-02T07:42:12.868Z</time></trkpt><trkpt lat="45.7956628" lon="12.3899203"><ele>26.0</ele><time>2026-05-02T07:42:13.868Z</time></trkpt><trkpt lat="45.7958006" lon="12.3897885"><ele>26.0</ele><time>2026-05-02T07:42:14.868Z</time></trkpt><trkpt lat="45.7959344" lon="12.3896554"><ele>26.0</ele><time>2026-05-02T07:42:15.867Z</time></trkpt><trkpt lat="45.7960661" lon="12.3895248"><ele>25.666666666666664</ele><time>2026-05-02T07:42:16.868Z</time></trkpt><trkpt lat="45.796197" lon="12.3893948"><ele>25.333333333333336</ele><time>2026-05-02T07:42:17.868Z</time></trkpt><trkpt lat="45.7963233" lon="12.3892617"><ele>25.0</ele><time>2026-05-02T07:42:18.867Z</time></trkpt><trkpt lat="45.7964506" lon="12.3891269"><ele>25.0</ele><time>2026-05-02T07:42:19.869Z</time></trkpt><trkpt lat="45.7965716" lon="12.3889702"><ele>25.0</ele><time>2026-05-02T07:42:20.869Z</time></trkpt><trkpt lat="45.796685" lon="12.3887897"><ele>25.0</ele><time>2026-05-02T07:42:21.869Z</time></trkpt><trkpt lat="45.7967987" lon="12.3885888"><ele>25.0</ele><time>2026-05-02T07:42:22.868Z</time></trkpt><trkpt lat="45.7969172" lon="12.3883868"><ele>25.0</ele><time>2026-05-02T07:42:23.868Z</time></trkpt><trkpt lat="45.7970368" lon="12.3881824"><ele>25.0</ele><time>2026-05-02T07:42:24.868Z</time></trkpt><trkpt lat="45.797158" lon="12.387985"><ele>24.666666666666668</ele><time>2026-05-02T07:42:25.868Z</time></trkpt><trkpt lat="45.7972737" lon="12.3877969"><ele>24.333333333333336</ele><time>2026-05-02T07:42:26.869Z</time></trkpt><trkpt lat="45.7973874" lon="12.3876039"><ele>24.0</ele><time>2026-05-02T07:42:27.869Z</time></trkpt><trkpt lat="45.7974997" lon="12.3874158"><ele>24.0</ele><time>2026-05-02T07:42:28.869Z</time></trkpt><trkpt lat="45.7976061" lon="12.38723"><ele>24.0</ele><time>2026-05-02T07:42:29.868Z</time></trkpt><trkpt lat="45.7977155" lon="12.3870448"><ele>24.0</ele><time>2026-05-02T07:42:30.868Z</time></trkpt><trkpt lat="45.7978266" lon="12.3868625"><ele>24.333333333333336</ele><time>2026-05-02T07:42:31.868Z</time></trkpt><trkpt lat="45.7979331" lon="12.3866833"><ele>24.666666666666668</ele><time>2026-05-02T07:42:32.868Z</time></trkpt><trkpt lat="45.7980349" lon="12.3864916"><ele>25.0</ele><time>2026-05-02T07:42:33.869Z</time></trkpt><trkpt lat="45.7981311" lon="12.3862905"><ele>25.0</ele><time>2026-05-02T07:42:34.869Z</time></trkpt><trkpt lat="45.7982145" lon="12.3860797"><ele>25.0</ele><time>2026-05-02T07:42:35.868Z</time></trkpt><trkpt lat="45.7982987" lon="12.3858669"><ele>25.0</ele><time>2026-05-02T07:42:36.869Z</time></trkpt><trkpt lat="45.7983724" lon="12.3856664"><ele>24.75</ele><time>2026-05-02T07:42:37.868Z</time></trkpt><trkpt lat="45.7984378" lon="12.3854845"><ele>24.5</ele><time>2026-05-02T07:42:38.869Z</time></trkpt><trkpt lat="45.7984977" lon="12.3853227"><ele>24.25</ele><time>2026-05-02T07:42:39.868Z</time></trkpt><trkpt lat="45.7985507" lon="12.3851779"><ele>24.0</ele><time>2026-05-02T07:42:40.868Z</time></trkpt><trkpt lat="45.7986003" lon="12.3850403"><ele>24.0</ele><time>2026-05-02T07:42:41.869Z</time></trkpt><trkpt lat="45.798657" lon="12.3849099"><ele>24.0</ele><time>2026-05-02T07:42:42.869Z</time></trkpt><trkpt lat="45.7987221" lon="12.3847883"><ele>24.0</ele><time>2026-05-02T07:42:43.869Z</time></trkpt><trkpt lat="45.7987964" lon="12.3846723"><ele>24.0</ele><time>2026-05-02T07:42:44.869Z</time></trkpt><trkpt lat="45.7988408" lon="12.384524"><ele>24.0</ele><time>2026-05-02T07:42:45.868Z</time></trkpt><trkpt lat="45.7988648" lon="12.3843574"><ele>24.0</ele><time>2026-05-02T07:42:46.868Z</time></trkpt><trkpt lat="45.7989026" lon="12.3841816"><ele>24.0</ele><time>2026-05-02T07:42:47.868Z</time></trkpt><trkpt lat="45.7989569" lon="12.3839982"><ele>24.0</ele><time>2026-05-02T07:42:48.869Z</time></trkpt><trkpt lat="45.7990201" lon="12.3838029"><ele>24.0</ele><time>2026-05-02T07:42:49.869Z</time></trkpt><trkpt lat="45.799092" lon="12.3835964"><ele>24.0</ele><time>2026-05-02T07:42:50.869Z</time></trkpt><trkpt lat="45.7991664" lon="12.383374"><ele>24.0</ele><time>2026-05-02T07:42:51.869Z</time></trkpt><trkpt lat="45.7992463" lon="12.3831474"><ele>24.0</ele><time>2026-05-02T07:42:52.869Z</time></trkpt><trkpt lat="45.7993285" lon="12.3829138"><ele>24.0</ele><time>2026-05-02T07:42:53.868Z</time></trkpt><trkpt lat="45.7994165" lon="12.3826649"><ele>24.0</ele><time>2026-05-02T07:42:54.868Z</time></trkpt><trkpt lat="45.7995079" lon="12.3824067"><ele>24.0</ele><time>2026-05-02T07:42:55.869Z</time></trkpt><trkpt lat="45.7995963" lon="12.3821482"><ele>24.0</ele><time>2026-05-02T07:42:56.869Z</time></trkpt><trkpt lat="45.7996878" lon="12.3818875"><ele>24.0</ele><time>2026-05-02T07:42:57.869Z</time></trkpt><trkpt lat="45.7997772" lon="12.3816212"><ele>24.0</ele><time>2026-05-02T07:42:58.868Z</time></trkpt><trkpt lat="45.7998722" lon="12.381356"><ele>24.333333333333336</ele><time>2026-05-02T07:42:59.869Z</time></trkpt><trkpt lat="45.7999633" lon="12.3810967"><ele>24.666666666666668</ele><time>2026-05-02T07:43:00.868Z</time></trkpt><trkpt lat="45.8000535" lon="12.3808434"><ele>25.0</ele><time>2026-05-02T07:43:01.868Z</time></trkpt><trkpt lat="45.8001447" lon="12.3805832"><ele>25.666666666666668</ele><time>2026-05-02T07:43:02.869Z</time></trkpt><trkpt lat="45.800238" lon="12.3803154"><ele>26.333333333333336</ele><time>2026-05-02T07:43:03.869Z</time></trkpt><trkpt lat="45.8003372" lon="12.3800346"><ele>27.0</ele><time>2026-05-02T07:43:04.869Z</time></trkpt><trkpt lat="45.8004439" lon="12.37975"><ele>27.5</ele><time>2026-05-02T07:43:05.868Z</time></trkpt><trkpt lat="45.8005625" lon="12.3794627"><ele>28.0</ele><time>2026-05-02T07:43:06.869Z</time></trkpt><trkpt lat="45.8006915" lon="12.3791758"><ele>28.0</ele><time>2026-05-02T07:43:07.868Z</time></trkpt><trkpt lat="45.8008242" lon="12.3788926"><ele>28.0</ele><time>2026-05-02T07:43:08.869Z</time></trkpt><trkpt lat="45.800958" lon="12.3786127"><ele>28.0</ele><time>2026-05-02T07:43:09.869Z</time></trkpt><trkpt lat="45.801095" lon="12.3783499"><ele>28.0</ele><time>2026-05-02T07:43:10.868Z</time></trkpt><trkpt lat="45.8012217" lon="12.3780914"><ele>28.0</ele><time>2026-05-02T07:43:11.868Z</time></trkpt><trkpt lat="45.8013415" lon="12.3778368"><ele>28.0</ele><time>2026-05-02T07:43:12.869Z</time></trkpt><trkpt lat="45.8014518" lon="12.3775843"><ele>28.0</ele><time>2026-05-02T07:43:13.868Z</time></trkpt><trkpt lat="45.8015554" lon="12.3773277"><ele>28.0</ele><time>2026-05-02T07:43:14.869Z</time></trkpt><trkpt lat="45.8016557" lon="12.3770719"><ele>28.0</ele><time>2026-05-02T07:43:15.868Z</time></trkpt><trkpt lat="45.8017525" lon="12.3768155"><ele>28.0</ele><time>2026-05-02T07:43:16.868Z</time></trkpt><trkpt lat="45.8018521" lon="12.3765661"><ele>28.0</ele><time>2026-05-02T07:43:17.869Z</time></trkpt><trkpt lat="45.8019505" lon="12.3763132"><ele>28.0</ele><time>2026-05-02T07:43:18.87Z</time></trkpt><trkpt lat="45.8020513" lon="12.376054"><ele>28.0</ele><time>2026-05-02T07:43:19.868Z</time></trkpt><trkpt lat="45.8021499" lon="12.3757864"><ele>28.0</ele><time>2026-05-02T07:43:20.869Z</time></trkpt><trkpt lat="45.80225" lon="12.3755099"><ele>28.0</ele><time>2026-05-02T07:43:21.869Z</time></trkpt><trkpt lat="45.802359" lon="12.3752309"><ele>28.0</ele><time>2026-05-02T07:43:22.869Z</time></trkpt><trkpt lat="45.8024668" lon="12.374943"><ele>28.0</ele><time>2026-05-02T07:43:23.87Z</time></trkpt><trkpt lat="45.8025788" lon="12.3746441"><ele>28.0</ele><time>2026-05-02T07:43:24.87Z</time></trkpt><trkpt lat="45.8026938" lon="12.3743465"><ele>27.5</ele><time>2026-05-02T07:43:25.87Z</time></trkpt><trkpt lat="45.8028137" lon="12.3740484"><ele>27.0</ele><time>2026-05-02T07:43:26.869Z</time></trkpt><trkpt lat="45.80294" lon="12.3737594"><ele>27.0</ele><time>2026-05-02T07:43:27.87Z</time></trkpt><trkpt lat="45.8030656" lon="12.3734692"><ele>27.0</ele><time>2026-05-02T07:43:28.87Z</time></trkpt><trkpt lat="45.803188" lon="12.3731841"><ele>27.0</ele><time>2026-05-02T07:43:29.87Z</time></trkpt><trkpt lat="45.8033031" lon="12.3729069"><ele>27.0</ele><time>2026-05-02T07:43:30.869Z</time></trkpt><trkpt lat="45.8034209" lon="12.3726413"><ele>27.0</ele><time>2026-05-02T07:43:31.869Z</time></trkpt><trkpt lat="45.8035383" lon="12.3723786"><ele>27.333333333333336</ele><time>2026-05-02T07:43:32.87Z</time></trkpt><trkpt lat="45.8036516" lon="12.3721172"><ele>27.666666666666668</ele><time>2026-05-02T07:43:33.87Z</time></trkpt><trkpt lat="45.8037636" lon="12.3718588"><ele>28.0</ele><time>2026-05-02T07:43:34.87Z</time></trkpt><trkpt lat="45.803876" lon="12.3715975"><ele>28.666666666666668</ele><time>2026-05-02T07:43:35.87Z</time></trkpt><trkpt lat="45.8039836" lon="12.3713344"><ele>29.333333333333336</ele><time>2026-05-02T07:43:36.87Z</time></trkpt><trkpt lat="45.8040843" lon="12.3710581"><ele>30.0</ele><time>2026-05-02T07:43:37.869Z</time></trkpt><trkpt lat="45.804182" lon="12.3707671"><ele>30.0</ele><time>2026-05-02T07:43:38.869Z</time></trkpt><trkpt lat="45.8042691" lon="12.3704687"><ele>30.0</ele><time>2026-05-02T07:43:39.869Z</time></trkpt><trkpt lat="45.8043562" lon="12.3701685"><ele>30.0</ele><time>2026-05-02T07:43:40.87Z</time></trkpt><trkpt lat="45.804442" lon="12.3698704"><ele>30.0</ele><time>2026-05-02T07:43:41.87Z</time></trkpt><trkpt lat="45.8045296" lon="12.3695772"><ele>30.0</ele><time>2026-05-02T07:43:42.869Z</time></trkpt><trkpt lat="45.8046106" lon="12.3692802"><ele>30.5</ele><time>2026-05-02T07:43:43.869Z</time></trkpt><trkpt lat="45.8046956" lon="12.368979"><ele>31.0</ele><time>2026-05-02T07:43:44.869Z</time></trkpt><trkpt lat="45.8047818" lon="12.3686788"><ele>30.0</ele><time>2026-05-02T07:43:45.87Z</time></trkpt><trkpt lat="45.804867" lon="12.3683819"><ele>29.0</ele><time>2026-05-02T07:43:46.87Z</time></trkpt><trkpt lat="45.8049511" lon="12.3680791"><ele>29.333333333333332</ele><time>2026-05-02T07:43:47.869Z</time></trkpt><trkpt lat="45.8050358" lon="12.3677816"><ele>29.666666666666664</ele><time>2026-05-02T07:43:48.87Z</time></trkpt><trkpt lat="45.8051167" lon="12.3674839"><ele>30.0</ele><time>2026-05-02T07:43:49.87Z</time></trkpt><trkpt lat="45.8051992" lon="12.367187"><ele>30.0</ele><time>2026-05-02T07:43:50.87Z</time></trkpt><trkpt lat="45.8052843" lon="12.3668909"><ele>30.0</ele><time>2026-05-02T07:43:51.869Z</time></trkpt><trkpt lat="45.8053708" lon="12.3665932"><ele>30.0</ele><time>2026-05-02T07:43:52.869Z</time></trkpt><trkpt lat="45.8054567" lon="12.3662979"><ele>30.333333333333336</ele><time>2026-05-02T07:43:53.87Z</time></trkpt><trkpt lat="45.8055471" lon="12.3660048"><ele>30.666666666666668</ele><time>2026-05-02T07:43:54.869Z</time></trkpt><trkpt lat="45.8056572" lon="12.3657322"><ele>31.0</ele><time>2026-05-02T07:43:55.87Z</time></trkpt><trkpt lat="45.805794" lon="12.3654809"><ele>30.666666666666668</ele><time>2026-05-02T07:43:56.87Z</time></trkpt><trkpt lat="45.8059486" lon="12.3652532"><ele>30.333333333333336</ele><time>2026-05-02T07:43:57.869Z</time></trkpt><trkpt lat="45.8061078" lon="12.3650259"><ele>30.0</ele><time>2026-05-02T07:43:58.869Z</time></trkpt><trkpt lat="45.8062689" lon="12.3647983"><ele>30.666666666666664</ele><time>2026-05-02T07:43:59.87Z</time></trkpt><trkpt lat="45.8064315" lon="12.3645758"><ele>31.333333333333332</ele><time>2026-05-02T07:44:00.87Z</time></trkpt><trkpt lat="45.8065949" lon="12.3643545"><ele>32.0</ele><time>2026-05-02T07:44:01.87Z</time></trkpt><trkpt lat="45.8067564" lon="12.3641334"><ele>32.0</ele><time>2026-05-02T07:44:02.87Z</time></trkpt><trkpt lat="45.8069123" lon="12.3639054"><ele>32.0</ele><time>2026-05-02T07:44:03.869Z</time></trkpt><trkpt lat="45.8070699" lon="12.3636751"><ele>32.0</ele><time>2026-05-02T07:44:04.869Z</time></trkpt><trkpt lat="45.8072252" lon="12.3634386"><ele>32.33333333333333</ele><time>2026-05-02T07:44:05.87Z</time></trkpt><trkpt lat="45.807379" lon="12.363202"><ele>32.666666666666664</ele><time>2026-05-02T07:44:06.87Z</time></trkpt><trkpt lat="45.8075285" lon="12.3629699"><ele>33.0</ele><time>2026-05-02T07:44:07.869Z</time></trkpt><trkpt lat="45.8076777" lon="12.3627321"><ele>33.0</ele><time>2026-05-02T07:44:08.87Z</time></trkpt><trkpt lat="45.8078248" lon="12.362495"><ele>33.0</ele><time>2026-05-02T07:44:09.869Z</time></trkpt><trkpt lat="45.8079745" lon="12.3622545"><ele>33.0</ele><time>2026-05-02T07:44:10.869Z</time></trkpt><trkpt lat="45.8081273" lon="12.3620136"><ele>32.666666666666664</ele><time>2026-05-02T07:44:11.87Z</time></trkpt><trkpt lat="45.8082771" lon="12.3617776"><ele>32.33333333333333</ele><time>2026-05-02T07:44:12.87Z</time></trkpt><trkpt lat="45.8084281" lon="12.3615354"><ele>32.0</ele><time>2026-05-02T07:44:13.87Z</time></trkpt><trkpt lat="45.8085767" lon="12.3612982"><ele>32.0</ele><time>2026-05-02T07:44:14.87Z</time></trkpt><trkpt lat="45.8087269" lon="12.3610627"><ele>32.0</ele><time>2026-05-02T07:44:15.869Z</time></trkpt><trkpt lat="45.8088759" lon="12.3608232"><ele>32.0</ele><time>2026-05-02T07:44:16.869Z</time></trkpt><trkpt lat="45.8090235" lon="12.36058"><ele>31.666666666666664</ele><time>2026-05-02T07:44:17.871Z</time></trkpt><trkpt lat="45.8091577" lon="12.3603254"><ele>31.333333333333336</ele><time>2026-05-02T07:44:18.869Z</time></trkpt><trkpt lat="45.8092789" lon="12.3600522"><ele>31.0</ele><time>2026-05-02T07:44:19.87Z</time></trkpt><trkpt lat="45.8093891" lon="12.3597668"><ele>31.333333333333336</ele><time>2026-05-02T07:44:20.87Z</time></trkpt><trkpt lat="45.8094855" lon="12.3594829"><ele>31.666666666666664</ele><time>2026-05-02T07:44:21.869Z</time></trkpt><trkpt lat="45.8095738" lon="12.3591977"><ele>32.0</ele><time>2026-05-02T07:44:22.87Z</time></trkpt><trkpt lat="45.8096569" lon="12.3589044"><ele>33.0</ele><time>2026-05-02T07:44:23.871Z</time></trkpt><trkpt lat="45.8097363" lon="12.3586027"><ele>34.0</ele><time>2026-05-02T07:44:24.871Z</time></trkpt><trkpt lat="45.8098144" lon="12.3582937"><ele>33.5</ele><time>2026-05-02T07:44:25.87Z</time></trkpt><trkpt lat="45.8098911" lon="12.3579891"><ele>33.0</ele><time>2026-05-02T07:44:26.87Z</time></trkpt><trkpt lat="45.8099642" lon="12.3576819"><ele>33.0</ele><time>2026-05-02T07:44:27.871Z</time></trkpt><trkpt lat="45.8100412" lon="12.3573714"><ele>33.0</ele><time>2026-05-02T07:44:28.87Z</time></trkpt><trkpt lat="45.8101149" lon="12.3570621"><ele>32.0</ele><time>2026-05-02T07:44:29.871Z</time></trkpt><trkpt lat="45.8101923" lon="12.3567531"><ele>31.0</ele><time>2026-05-02T07:44:30.871Z</time></trkpt><trkpt lat="45.8102723" lon="12.3564474"><ele>32.0</ele><time>2026-05-02T07:44:31.87Z</time></trkpt><trkpt lat="45.8103566" lon="12.356144"><ele>33.0</ele><time>2026-05-02T07:44:32.87Z</time></trkpt><trkpt lat="45.8104387" lon="12.3558413"><ele>33.0</ele><time>2026-05-02T07:44:33.871Z</time></trkpt><trkpt lat="45.8105204" lon="12.3555453"><ele>33.0</ele><time>2026-05-02T07:44:34.87Z</time></trkpt><trkpt lat="45.810606" lon="12.355247"><ele>33.0</ele><time>2026-05-02T07:44:35.87Z</time></trkpt><trkpt lat="45.8106883" lon="12.3549445"><ele>33.0</ele><time>2026-05-02T07:44:36.87Z</time></trkpt><trkpt lat="45.8107723" lon="12.3546451"><ele>33.0</ele><time>2026-05-02T07:44:37.871Z</time></trkpt><trkpt lat="45.8108517" lon="12.3543363"><ele>33.0</ele><time>2026-05-02T07:44:38.871Z</time></trkpt><trkpt lat="45.8109289" lon="12.3540305"><ele>33.0</ele><time>2026-05-02T07:44:39.87Z</time></trkpt><trkpt lat="45.8110073" lon="12.353729"><ele>33.0</ele><time>2026-05-02T07:44:40.87Z</time></trkpt><trkpt lat="45.811089" lon="12.3534286"><ele>33.0</ele><time>2026-05-02T07:44:41.871Z</time></trkpt><trkpt lat="45.8111646" lon="12.3531232"><ele>33.0</ele><time>2026-05-02T07:44:42.871Z</time></trkpt><trkpt lat="45.8112445" lon="12.3528192"><ele>33.0</ele><time>2026-05-02T07:44:43.871Z</time></trkpt><trkpt lat="45.8113197" lon="12.3525176"><ele>33.0</ele><time>2026-05-02T07:44:44.87Z</time></trkpt><trkpt lat="45.8113975" lon="12.352218"><ele>33.0</ele><time>2026-05-02T07:44:45.871Z</time></trkpt><trkpt lat="45.8114755" lon="12.3519207"><ele>33.0</ele><time>2026-05-02T07:44:46.87Z</time></trkpt><trkpt lat="45.8115532" lon="12.3516209"><ele>33.333333333333336</ele><time>2026-05-02T07:44:47.871Z</time></trkpt><trkpt lat="45.8116262" lon="12.3513212"><ele>33.66666666666667</ele><time>2026-05-02T07:44:48.87Z</time></trkpt><trkpt lat="45.8117004" lon="12.3510323"><ele>34.0</ele><time>2026-05-02T07:44:49.871Z</time></trkpt><trkpt lat="45.8117695" lon="12.3507582"><ele>35.333333333333336</ele><time>2026-05-02T07:44:50.871Z</time></trkpt><trkpt lat="45.811835" lon="12.3505011"><ele>36.666666666666664</ele><time>2026-05-02T07:44:51.871Z</time></trkpt><trkpt lat="45.8118984" lon="12.3502594"><ele>38.0</ele><time>2026-05-02T07:44:52.871Z</time></trkpt><trkpt lat="45.8119583" lon="12.3500409"><ele>38.0</ele><time>2026-05-02T07:44:53.871Z</time></trkpt><trkpt lat="45.8120169" lon="12.349842"><ele>38.0</ele><time>2026-05-02T07:44:54.871Z</time></trkpt><trkpt lat="45.8120708" lon="12.3496636"><ele>38.0</ele><time>2026-05-02T07:44:55.871Z</time></trkpt><trkpt lat="45.8121234" lon="12.3495041"><ele>38.0</ele><time>2026-05-02T07:44:56.871Z</time></trkpt><trkpt lat="45.8121892" lon="12.3493704"><ele>37.8</ele><time>2026-05-02T07:44:57.87Z</time></trkpt><trkpt lat="45.8122668" lon="12.3492598"><ele>37.599999999999994</ele><time>2026-05-02T07:44:58.87Z</time></trkpt><trkpt lat="45.8123575" lon="12.3491614"><ele>37.400000000000006</ele><time>2026-05-02T07:44:59.87Z</time></trkpt><trkpt lat="45.8124522" lon="12.3490707"><ele>37.2</ele><time>2026-05-02T07:45:00.871Z</time></trkpt><trkpt lat="45.8125301" lon="12.3489579"><ele>37.0</ele><time>2026-05-02T07:45:01.871Z</time></trkpt><trkpt lat="45.8125729" lon="12.3488132"><ele>36.5</ele><time>2026-05-02T07:45:02.87Z</time></trkpt><trkpt lat="45.8125727" lon="12.3486602"><ele>36.0</ele><time>2026-05-02T07:45:03.87Z</time></trkpt><trkpt lat="45.8125511" lon="12.3484921"><ele>35.5</ele><time>2026-05-02T07:45:04.87Z</time></trkpt><trkpt lat="45.8125222" lon="12.3483099"><ele>35.0</ele><time>2026-05-02T07:45:05.87Z</time></trkpt><trkpt lat="45.8125147" lon="12.3481048"><ele>35.33333333333333</ele><time>2026-05-02T07:45:06.87Z</time></trkpt><trkpt lat="45.812536" lon="12.3478891"><ele>35.666666666666664</ele><time>2026-05-02T07:45:07.87Z</time></trkpt><trkpt lat="45.8125708" lon="12.3476641"><ele>36.0</ele><time>2026-05-02T07:45:08.871Z</time></trkpt><trkpt lat="45.8126102" lon="12.3474342"><ele>36.0</ele><time>2026-05-02T07:45:09.871Z</time></trkpt><trkpt lat="45.8126707" lon="12.3471986"><ele>36.0</ele><time>2026-05-02T07:45:10.871Z</time></trkpt><trkpt lat="45.8127454" lon="12.3469518"><ele>36.0</ele><time>2026-05-02T07:45:11.87Z</time></trkpt><trkpt lat="45.812823" lon="12.3466944"><ele>36.0</ele><time>2026-05-02T07:45:12.871Z</time></trkpt><trkpt lat="45.8128981" lon="12.3464391"><ele>36.0</ele><time>2026-05-02T07:45:13.87Z</time></trkpt><trkpt lat="45.8129762" lon="12.3461791"><ele>36.0</ele><time>2026-05-02T07:45:14.871Z</time></trkpt><trkpt lat="45.8130545" lon="12.3459213"><ele>36.666666666666664</ele><time>2026-05-02T07:45:15.87Z</time></trkpt><trkpt lat="45.813138" lon="12.3456561"><ele>37.33333333333333</ele><time>2026-05-02T07:45:16.87Z</time></trkpt><trkpt lat="45.813218" lon="12.345385"><ele>38.0</ele><time>2026-05-02T07:45:17.87Z</time></trkpt><trkpt lat="45.8132966" lon="12.3451098"><ele>38.0</ele><time>2026-05-02T07:45:18.87Z</time></trkpt><trkpt lat="45.8133843" lon="12.3448323"><ele>38.0</ele><time>2026-05-02T07:45:19.87Z</time></trkpt><trkpt lat="45.8134673" lon="12.3445515"><ele>38.0</ele><time>2026-05-02T07:45:20.87Z</time></trkpt><trkpt lat="45.8135509" lon="12.3442676"><ele>38.0</ele><time>2026-05-02T07:45:21.871Z</time></trkpt><trkpt lat="45.8136367" lon="12.3439781"><ele>38.0</ele><time>2026-05-02T07:45:22.871Z</time></trkpt><trkpt lat="45.8137258" lon="12.3436857"><ele>38.0</ele><time>2026-05-02T07:45:23.87Z</time></trkpt><trkpt lat="45.8138163" lon="12.3433879"><ele>38.0</ele><time>2026-05-02T07:45:24.87Z</time></trkpt><trkpt lat="45.8139053" lon="12.3430967"><ele>38.0</ele><time>2026-05-02T07:45:25.871Z</time></trkpt><trkpt lat="45.8139962" lon="12.3428069"><ele>38.0</ele><time>2026-05-02T07:45:26.872Z</time></trkpt><trkpt lat="45.8140866" lon="12.3425198"><ele>38.0</ele><time>2026-05-02T07:45:27.872Z</time></trkpt><trkpt lat="45.8141814" lon="12.3422327"><ele>38.0</ele><time>2026-05-02T07:45:28.871Z</time></trkpt><trkpt lat="45.8142727" lon="12.3419413"><ele>38.0</ele><time>2026-05-02T07:45:29.872Z</time></trkpt><trkpt lat="45.8143633" lon="12.341648"><ele>38.0</ele><time>2026-05-02T07:45:30.871Z</time></trkpt><trkpt lat="45.814458" lon="12.3413497"><ele>38.0</ele><time>2026-05-02T07:45:31.872Z</time></trkpt><trkpt lat="45.8145515" lon="12.3410611"><ele>38.0</ele><time>2026-05-02T07:45:32.871Z</time></trkpt><trkpt lat="45.814641" lon="12.3407795"><ele>38.0</ele><time>2026-05-02T07:45:33.872Z</time></trkpt><trkpt lat="45.8147298" lon="12.3405049"><ele>38.0</ele><time>2026-05-02T07:45:34.872Z</time></trkpt><trkpt lat="45.8148158" lon="12.3402322"><ele>38.0</ele><time>2026-05-02T07:45:35.872Z</time></trkpt><trkpt lat="45.8149002" lon="12.3399665"><ele>38.0</ele><time>2026-05-02T07:45:36.872Z</time></trkpt><trkpt lat="45.8149827" lon="12.3397107"><ele>38.0</ele><time>2026-05-02T07:45:37.872Z</time></trkpt><trkpt lat="45.815063" lon="12.3394564"><ele>38.0</ele><time>2026-05-02T07:45:38.871Z</time></trkpt><trkpt lat="45.8151418" lon="12.3391995"><ele>38.0</ele><time>2026-05-02T07:45:39.872Z</time></trkpt><trkpt lat="45.8152192" lon="12.3389441"><ele>38.0</ele><time>2026-05-02T07:45:40.872Z</time></trkpt><trkpt lat="45.8153034" lon="12.3386873"><ele>38.33333333333333</ele><time>2026-05-02T07:45:41.872Z</time></trkpt><trkpt lat="45.8153871" lon="12.3384338"><ele>38.666666666666664</ele><time>2026-05-02T07:45:42.872Z</time></trkpt><trkpt lat="45.8154743" lon="12.338185"><ele>39.0</ele><time>2026-05-02T07:45:43.871Z</time></trkpt><trkpt lat="45.815561" lon="12.3379349"><ele>39.0</ele><time>2026-05-02T07:45:44.871Z</time></trkpt><trkpt lat="45.8156453" lon="12.3376853"><ele>39.0</ele><time>2026-05-02T07:45:45.872Z</time></trkpt><trkpt lat="45.8157266" lon="12.3374316"><ele>39.0</ele><time>2026-05-02T07:45:46.871Z</time></trkpt><trkpt lat="45.8158063" lon="12.3371801"><ele>39.333333333333336</ele><time>2026-05-02T07:45:47.872Z</time></trkpt><trkpt lat="45.8158777" lon="12.3369482"><ele>39.66666666666667</ele><time>2026-05-02T07:45:48.871Z</time></trkpt><trkpt lat="45.8159414" lon="12.3367382"><ele>40.0</ele><time>2026-05-02T07:45:49.871Z</time></trkpt><trkpt lat="45.8160071" lon="12.3365342"><ele>40.5</ele><time>2026-05-02T07:45:50.871Z</time></trkpt><trkpt lat="45.8160642" lon="12.3363506"><ele>41.0</ele><time>2026-05-02T07:45:51.871Z</time></trkpt><trkpt lat="45.8161162" lon="12.3361757"><ele>41.5</ele><time>2026-05-02T07:45:52.872Z</time></trkpt><trkpt lat="45.8161578" lon="12.3360202"><ele>42.0</ele><time>2026-05-02T07:45:53.871Z</time></trkpt><trkpt lat="45.8161972" lon="12.3358927"><ele>42.0</ele><time>2026-05-02T07:45:54.872Z</time></trkpt><trkpt lat="45.8162501" lon="12.3357858"><ele>42.0</ele><time>2026-05-02T07:45:55.871Z</time></trkpt><trkpt lat="45.8163172" lon="12.3357096"><ele>42.0</ele><time>2026-05-02T07:45:56.871Z</time></trkpt><trkpt lat="45.8163974" lon="12.3356631"><ele>42.0</ele><time>2026-05-02T07:45:57.871Z</time></trkpt><trkpt lat="45.816482" lon="12.3356326"><ele>42.0</ele><time>2026-05-02T07:45:58.872Z</time></trkpt><trkpt lat="45.8165595" lon="12.3355667"><ele>42.0</ele><time>2026-05-02T07:45:59.871Z</time></trkpt><trkpt lat="45.8166123" lon="12.3354522"><ele>41.4</ele><time>2026-05-02T07:46:00.871Z</time></trkpt><trkpt lat="45.816628" lon="12.3353162"><ele>40.800000000000004</ele><time>2026-05-02T07:46:01.872Z</time></trkpt><trkpt lat="45.8166078" lon="12.3351722"><ele>40.2</ele><time>2026-05-02T07:46:02.872Z</time></trkpt><trkpt lat="45.8165709" lon="12.3350311"><ele>39.6</ele><time>2026-05-02T07:46:03.872Z</time></trkpt><trkpt lat="45.8165355" lon="12.3348755"><ele>39.0</ele><time>2026-05-02T07:46:04.871Z</time></trkpt><trkpt lat="45.8165024" lon="12.3347029"><ele>39.0</ele><time>2026-05-02T07:46:05.871Z</time></trkpt><trkpt lat="45.8164824" lon="12.3345197"><ele>39.0</ele><time>2026-05-02T07:46:06.871Z</time></trkpt><trkpt lat="45.8164697" lon="12.3343244"><ele>39.0</ele><time>2026-05-02T07:46:07.871Z</time></trkpt><trkpt lat="45.8164728" lon="12.3341134"><ele>39.0</ele><time>2026-05-02T07:46:08.872Z</time></trkpt><trkpt lat="45.8164856" lon="12.3339"><ele>39.333333333333336</ele><time>2026-05-02T07:46:09.872Z</time></trkpt><trkpt lat="45.8165097" lon="12.3336759"><ele>39.66666666666667</ele><time>2026-05-02T07:46:10.872Z</time></trkpt><trkpt lat="45.8165349" lon="12.3334454"><ele>40.0</ele><time>2026-05-02T07:46:11.872Z</time></trkpt><trkpt lat="45.8165609" lon="12.3332132"><ele>40.0</ele><time>2026-05-02T07:46:12.872Z</time></trkpt><trkpt lat="45.8165875" lon="12.3329877"><ele>40.0</ele><time>2026-05-02T07:46:13.872Z</time></trkpt><trkpt lat="45.8166147" lon="12.3327586"><ele>40.0</ele><time>2026-05-02T07:46:14.872Z</time></trkpt><trkpt lat="45.8166413" lon="12.3325226"><ele>40.0</ele><time>2026-05-02T07:46:15.872Z</time></trkpt><trkpt lat="45.81667" lon="12.332287"><ele>40.0</ele><time>2026-05-02T07:46:16.872Z</time></trkpt><trkpt lat="45.8166997" lon="12.332047"><ele>40.0</ele><time>2026-05-02T07:46:17.871Z</time></trkpt><trkpt lat="45.8167215" lon="12.3317918"><ele>40.0</ele><time>2026-05-02T07:46:18.871Z</time></trkpt><trkpt lat="45.8167454" lon="12.3315345"><ele>40.0</ele><time>2026-05-02T07:46:19.871Z</time></trkpt><trkpt lat="45.8167762" lon="12.3312805"><ele>40.0</ele><time>2026-05-02T07:46:20.872Z</time></trkpt><trkpt lat="45.816804" lon="12.3310226"><ele>40.66666666666667</ele><time>2026-05-02T07:46:21.872Z</time></trkpt><trkpt lat="45.8168383" lon="12.3307592"><ele>41.333333333333336</ele><time>2026-05-02T07:46:22.872Z</time></trkpt><trkpt lat="45.8168656" lon="12.3304943"><ele>42.0</ele><time>2026-05-02T07:46:23.872Z</time></trkpt><trkpt lat="45.8168948" lon="12.3302269"><ele>41.333333333333336</ele><time>2026-05-02T07:46:24.871Z</time></trkpt><trkpt lat="45.8169243" lon="12.3299635"><ele>40.66666666666667</ele><time>2026-05-02T07:46:25.871Z</time></trkpt><trkpt lat="45.8169548" lon="12.3297018"><ele>40.0</ele><time>2026-05-02T07:46:26.871Z</time></trkpt><trkpt lat="45.8169855" lon="12.3294393"><ele>40.0</ele><time>2026-05-02T07:46:27.873Z</time></trkpt><trkpt lat="45.8170185" lon="12.3291727"><ele>40.0</ele><time>2026-05-02T07:46:28.873Z</time></trkpt><trkpt lat="45.8170477" lon="12.3289016"><ele>40.0</ele><time>2026-05-02T07:46:29.873Z</time></trkpt><trkpt lat="45.8170762" lon="12.3286291"><ele>40.66666666666667</ele><time>2026-05-02T07:46:30.873Z</time></trkpt><trkpt lat="45.8171098" lon="12.3283541"><ele>41.333333333333336</ele><time>2026-05-02T07:46:31.872Z</time></trkpt><trkpt lat="45.8171419" lon="12.3280686"><ele>42.0</ele><time>2026-05-02T07:46:32.873Z</time></trkpt><trkpt lat="45.8171738" lon="12.3277878"><ele>42.0</ele><time>2026-05-02T07:46:33.873Z</time></trkpt><trkpt lat="45.8172038" lon="12.3274999"><ele>42.0</ele><time>2026-05-02T07:46:34.872Z</time></trkpt><trkpt lat="45.8172355" lon="12.3271737"><ele>42.0</ele><time>2026-05-02T07:46:35.872Z</time></trkpt><trkpt lat="45.8172676" lon="12.3268161"><ele>42.0</ele><time>2026-05-02T07:46:36.872Z</time></trkpt><trkpt lat="45.8173007" lon="12.3264358"><ele>42.0</ele><time>2026-05-02T07:46:37.872Z</time></trkpt><trkpt lat="45.8173346" lon="12.3260345"><ele>42.0</ele><time>2026-05-02T07:46:38.873Z</time></trkpt><trkpt lat="45.8173771" lon="12.3256263"><ele>42.0</ele><time>2026-05-02T07:46:39.873Z</time></trkpt><trkpt lat="45.8174329" lon="12.3252152"><ele>42.0</ele><time>2026-05-02T07:46:40.873Z</time></trkpt><trkpt lat="45.8174902" lon="12.324826"><ele>42.0</ele><time>2026-05-02T07:46:41.873Z</time></trkpt><trkpt lat="45.817538" lon="12.324455"><ele>42.0</ele><time>2026-05-02T07:46:42.872Z</time></trkpt><trkpt lat="45.8175786" lon="12.3240983"><ele>42.0</ele><time>2026-05-02T07:46:43.872Z</time></trkpt><trkpt lat="45.8176174" lon="12.3237434"><ele>41.5</ele><time>2026-05-02T07:46:44.873Z</time></trkpt><trkpt lat="45.8176559" lon="12.3233979"><ele>41.0</ele><time>2026-05-02T07:46:45.873Z</time></trkpt><trkpt lat="45.8176949" lon="12.3230605"><ele>42.0</ele><time>2026-05-02T07:46:46.873Z</time></trkpt><trkpt lat="45.8177377" lon="12.3227307"><ele>43.0</ele><time>2026-05-02T07:46:47.872Z</time></trkpt><trkpt lat="45.817777" lon="12.3223981"><ele>44.0</ele><time>2026-05-02T07:46:48.872Z</time></trkpt><trkpt lat="45.8178133" lon="12.3220733"><ele>45.0</ele><time>2026-05-02T07:46:49.873Z</time></trkpt><trkpt lat="45.8178476" lon="12.3217386"><ele>45.0</ele><time>2026-05-02T07:46:50.873Z</time></trkpt><trkpt lat="45.8178839" lon="12.3214065"><ele>45.0</ele><time>2026-05-02T07:46:51.873Z</time></trkpt><trkpt lat="45.8179226" lon="12.3210745"><ele>45.5</ele><time>2026-05-02T07:46:52.872Z</time></trkpt><trkpt lat="45.8179614" lon="12.3207426"><ele>46.0</ele><time>2026-05-02T07:46:53.872Z</time></trkpt><trkpt lat="45.8179966" lon="12.3204082"><ele>45.0</ele><time>2026-05-02T07:46:54.873Z</time></trkpt><trkpt lat="45.8180372" lon="12.3200767"><ele>44.0</ele><time>2026-05-02T07:46:55.872Z</time></trkpt><trkpt lat="45.818075" lon="12.3197384"><ele>45.0</ele><time>2026-05-02T07:46:56.873Z</time></trkpt><trkpt lat="45.8181097" lon="12.3194082"><ele>46.0</ele><time>2026-05-02T07:46:57.873Z</time></trkpt><trkpt lat="45.8181458" lon="12.3190694"><ele>47.0</ele><time>2026-05-02T07:46:58.872Z</time></trkpt><trkpt lat="45.8181819" lon="12.3187307"><ele>48.0</ele><time>2026-05-02T07:46:59.872Z</time></trkpt><trkpt lat="45.8182215" lon="12.3183959"><ele>46.5</ele><time>2026-05-02T07:47:00.873Z</time></trkpt><trkpt lat="45.8182601" lon="12.3180641"><ele>45.0</ele><time>2026-05-02T07:47:01.873Z</time></trkpt><trkpt lat="45.8182974" lon="12.3177221"><ele>45.0</ele><time>2026-05-02T07:47:02.872Z</time></trkpt><trkpt lat="45.8183341" lon="12.3173834"><ele>45.0</ele><time>2026-05-02T07:47:03.872Z</time></trkpt><trkpt lat="45.8183699" lon="12.3170354"><ele>45.0</ele><time>2026-05-02T07:47:04.873Z</time></trkpt><trkpt lat="45.8184089" lon="12.316694"><ele>45.0</ele><time>2026-05-02T07:47:05.873Z</time></trkpt><trkpt lat="45.8184506" lon="12.3163602"><ele>45.0</ele><time>2026-05-02T07:47:06.872Z</time></trkpt><trkpt lat="45.8184878" lon="12.316028"><ele>45.0</ele><time>2026-05-02T07:47:07.872Z</time></trkpt><trkpt lat="45.8185252" lon="12.3156951"><ele>46.5</ele><time>2026-05-02T07:47:08.872Z</time></trkpt><trkpt lat="45.8185638" lon="12.3153687"><ele>48.0</ele><time>2026-05-02T07:47:09.872Z</time></trkpt><trkpt lat="45.8185974" lon="12.3150488"><ele>47.0</ele><time>2026-05-02T07:47:10.872Z</time></trkpt><trkpt lat="45.8186314" lon="12.3147361"><ele>46.0</ele><time>2026-05-02T07:47:11.873Z</time></trkpt><trkpt lat="45.818664" lon="12.3144216"><ele>45.0</ele><time>2026-05-02T07:47:12.873Z</time></trkpt><trkpt lat="45.8187048" lon="12.3141138"><ele>45.666666666666664</ele><time>2026-05-02T07:47:13.872Z</time></trkpt><trkpt lat="45.8187351" lon="12.313802"><ele>46.33333333333333</ele><time>2026-05-02T07:47:14.872Z</time></trkpt><trkpt lat="45.8187724" lon="12.3134856"><ele>47.0</ele><time>2026-05-02T07:47:15.872Z</time></trkpt><trkpt lat="45.8188037" lon="12.3131786"><ele>47.33333333333333</ele><time>2026-05-02T07:47:16.872Z</time></trkpt><trkpt lat="45.8188363" lon="12.312867"><ele>47.666666666666664</ele><time>2026-05-02T07:47:17.872Z</time></trkpt><trkpt lat="45.8188725" lon="12.3125534"><ele>48.0</ele><time>2026-05-02T07:47:18.873Z</time></trkpt><trkpt lat="45.8189077" lon="12.3122529"><ele>48.0</ele><time>2026-05-02T07:47:19.872Z</time></trkpt><trkpt lat="45.8189385" lon="12.311977"><ele>48.0</ele><time>2026-05-02T07:47:20.873Z</time></trkpt><trkpt lat="45.8189704" lon="12.3117153"><ele>48.0</ele><time>2026-05-02T07:47:21.873Z</time></trkpt><trkpt lat="45.819" lon="12.3114681"><ele>48.66666666666667</ele><time>2026-05-02T07:47:22.873Z</time></trkpt><trkpt lat="45.8190281" lon="12.3112446"><ele>49.333333333333336</ele><time>2026-05-02T07:47:23.872Z</time></trkpt><trkpt lat="45.8190514" lon="12.3110331"><ele>50.0</ele><time>2026-05-02T07:47:24.872Z</time></trkpt><trkpt lat="45.8190742" lon="12.3108296"><ele>50.0</ele><time>2026-05-02T07:47:25.872Z</time></trkpt><trkpt lat="45.8190959" lon="12.3106203"><ele>50.0</ele><time>2026-05-02T07:47:26.873Z</time></trkpt><trkpt lat="45.819118" lon="12.3104089"><ele>50.0</ele><time>2026-05-02T07:47:27.873Z</time></trkpt><trkpt lat="45.8191421" lon="12.310214"><ele>50.0</ele><time>2026-05-02T07:47:28.873Z</time></trkpt><trkpt lat="45.8191628" lon="12.3100464"><ele>50.00000000000001</ele><time>2026-05-02T07:47:29.873Z</time></trkpt><trkpt lat="45.8191769" lon="12.3098949"><ele>50.0</ele><time>2026-05-02T07:47:30.874Z</time></trkpt><trkpt lat="45.8191892" lon="12.3097634"><ele>50.0</ele><time>2026-05-02T07:47:31.873Z</time></trkpt><trkpt lat="45.8192044" lon="12.3096502"><ele>50.0</ele><time>2026-05-02T07:47:32.873Z</time></trkpt><trkpt lat="45.8192208" lon="12.3095399"><ele>50.00000000000001</ele><time>2026-05-02T07:47:33.874Z</time></trkpt><trkpt lat="45.8192511" lon="12.3094235"><ele>50.0</ele><time>2026-05-02T07:47:34.874Z</time></trkpt><trkpt lat="45.819267" lon="12.309297"><ele>50.0</ele><time>2026-05-02T07:47:35.874Z</time></trkpt><trkpt lat="45.8192667" lon="12.3091432"><ele>50.0</ele><time>2026-05-02T07:47:36.874Z</time></trkpt><trkpt lat="45.8192816" lon="12.3089575"><ele>50.0</ele><time>2026-05-02T07:47:37.874Z</time></trkpt><trkpt lat="45.8193068" lon="12.3087492"><ele>50.0</ele><time>2026-05-02T07:47:38.874Z</time></trkpt><trkpt lat="45.8193286" lon="12.3085296"><ele>49.333333333333336</ele><time>2026-05-02T07:47:39.873Z</time></trkpt><trkpt lat="45.8193533" lon="12.30829"><ele>48.66666666666667</ele><time>2026-05-02T07:47:40.874Z</time></trkpt><trkpt lat="45.8193826" lon="12.308053"><ele>48.0</ele><time>2026-05-02T07:47:41.873Z</time></trkpt><trkpt lat="45.8194077" lon="12.3078077"><ele>48.0</ele><time>2026-05-02T07:47:42.873Z</time></trkpt><trkpt lat="45.8194391" lon="12.307564"><ele>48.0</ele><time>2026-05-02T07:47:43.874Z</time></trkpt><trkpt lat="45.8194652" lon="12.3073205"><ele>48.0</ele><time>2026-05-02T07:47:44.873Z</time></trkpt><trkpt lat="45.8194912" lon="12.3070754"><ele>48.33333333333333</ele><time>2026-05-02T07:47:45.873Z</time></trkpt><trkpt lat="45.819518" lon="12.3068457"><ele>48.666666666666664</ele><time>2026-05-02T07:47:46.874Z</time></trkpt><trkpt lat="45.8195423" lon="12.3066105"><ele>49.0</ele><time>2026-05-02T07:47:47.874Z</time></trkpt><trkpt lat="45.8195675" lon="12.3063697"><ele>49.33333333333333</ele><time>2026-05-02T07:47:48.874Z</time></trkpt><trkpt lat="45.8195934" lon="12.3061287"><ele>49.66666666666667</ele><time>2026-05-02T07:47:49.873Z</time></trkpt><trkpt lat="45.8196223" lon="12.3058879"><ele>50.0</ele><time>2026-05-02T07:47:50.873Z</time></trkpt><trkpt lat="45.8196532" lon="12.3056422"><ele>50.333333333333336</ele><time>2026-05-02T07:47:51.873Z</time></trkpt><trkpt lat="45.8196808" lon="12.3053881"><ele>50.66666666666667</ele><time>2026-05-02T07:47:52.873Z</time></trkpt><trkpt lat="45.8197103" lon="12.3051282"><ele>51.0</ele><time>2026-05-02T07:47:53.873Z</time></trkpt><trkpt lat="45.8197401" lon="12.3048706"><ele>50.66666666666667</ele><time>2026-05-02T07:47:54.874Z</time></trkpt><trkpt lat="45.819769" lon="12.3046173"><ele>50.333333333333336</ele><time>2026-05-02T07:47:55.874Z</time></trkpt><trkpt lat="45.8198005" lon="12.3043661"><ele>50.0</ele><time>2026-05-02T07:47:56.873Z</time></trkpt><trkpt lat="45.8198298" lon="12.3041016"><ele>50.333333333333336</ele><time>2026-05-02T07:47:57.873Z</time></trkpt><trkpt lat="45.8198562" lon="12.3038348"><ele>50.66666666666667</ele><time>2026-05-02T07:47:58.874Z</time></trkpt><trkpt lat="45.8198862" lon="12.30356"><ele>51.0</ele><time>2026-05-02T07:47:59.874Z</time></trkpt><trkpt lat="45.8199173" lon="12.30328"><ele>50.66666666666667</ele><time>2026-05-02T07:48:00.873Z</time></trkpt><trkpt lat="45.8199505" lon="12.3029957"><ele>50.333333333333336</ele><time>2026-05-02T07:48:01.874Z</time></trkpt><trkpt lat="45.8199864" lon="12.3027019"><ele>50.0</ele><time>2026-05-02T07:48:02.874Z</time></trkpt><trkpt lat="45.8200187" lon="12.3024033"><ele>50.0</ele><time>2026-05-02T07:48:03.873Z</time></trkpt><trkpt lat="45.8200493" lon="12.3020988"><ele>50.0</ele><time>2026-05-02T07:48:04.873Z</time></trkpt><trkpt lat="45.8200848" lon="12.301798"><ele>50.0</ele><time>2026-05-02T07:48:05.873Z</time></trkpt><trkpt lat="45.8201205" lon="12.3014977"><ele>50.0</ele><time>2026-05-02T07:48:06.873Z</time></trkpt><trkpt lat="45.8201488" lon="12.3012006"><ele>50.0</ele><time>2026-05-02T07:48:07.873Z</time></trkpt><trkpt lat="45.8201819" lon="12.3008974"><ele>50.0</ele><time>2026-05-02T07:48:08.874Z</time></trkpt><trkpt lat="45.8202177" lon="12.3005918"><ele>50.333333333333336</ele><time>2026-05-02T07:48:09.874Z</time></trkpt><trkpt lat="45.8202508" lon="12.3002875"><ele>50.66666666666667</ele><time>2026-05-02T07:48:10.874Z</time></trkpt><trkpt lat="45.820284" lon="12.2999847"><ele>51.0</ele><time>2026-05-02T07:48:11.874Z</time></trkpt><trkpt lat="45.8203189" lon="12.2996769"><ele>51.0</ele><time>2026-05-02T07:48:12.873Z</time></trkpt><trkpt lat="45.8203503" lon="12.2993715"><ele>51.0</ele><time>2026-05-02T07:48:13.873Z</time></trkpt><trkpt lat="45.8203855" lon="12.2990646"><ele>51.0</ele><time>2026-05-02T07:48:14.873Z</time></trkpt><trkpt lat="45.8204226" lon="12.2987549"><ele>51.0</ele><time>2026-05-02T07:48:15.873Z</time></trkpt><trkpt lat="45.820458" lon="12.2984406"><ele>51.0</ele><time>2026-05-02T07:48:16.874Z</time></trkpt><trkpt lat="45.820493" lon="12.2981231"><ele>51.0</ele><time>2026-05-02T07:48:17.873Z</time></trkpt><trkpt lat="45.8205275" lon="12.2978093"><ele>51.0</ele><time>2026-05-02T07:48:18.874Z</time></trkpt><trkpt lat="45.8205629" lon="12.2974949"><ele>51.0</ele><time>2026-05-02T07:48:19.873Z</time></trkpt><trkpt lat="45.8205971" lon="12.2971705"><ele>51.0</ele><time>2026-05-02T07:48:20.874Z</time></trkpt><trkpt lat="45.8206333" lon="12.2968489"><ele>51.0</ele><time>2026-05-02T07:48:21.874Z</time></trkpt><trkpt lat="45.8206669" lon="12.2965245"><ele>52.0</ele><time>2026-05-02T07:48:22.874Z</time></trkpt><trkpt lat="45.820704" lon="12.2962044"><ele>53.0</ele><time>2026-05-02T07:48:23.873Z</time></trkpt><trkpt lat="45.8207406" lon="12.2958865"><ele>53.5</ele><time>2026-05-02T07:48:24.874Z</time></trkpt><trkpt lat="45.8207685" lon="12.2955604"><ele>54.0</ele><time>2026-05-02T07:48:25.873Z</time></trkpt><trkpt lat="45.8207849" lon="12.2952447"><ele>54.0</ele><time>2026-05-02T07:48:26.873Z</time></trkpt><trkpt lat="45.8207829" lon="12.2949273"><ele>54.0</ele><time>2026-05-02T07:48:27.874Z</time></trkpt><trkpt lat="45.8207554" lon="12.2946084"><ele>54.0</ele><time>2026-05-02T07:48:28.874Z</time></trkpt><trkpt lat="45.8207095" lon="12.2942976"><ele>53.66666666666667</ele><time>2026-05-02T07:48:29.873Z</time></trkpt><trkpt lat="45.8206396" lon="12.2939931"><ele>53.333333333333336</ele><time>2026-05-02T07:48:30.874Z</time></trkpt><trkpt lat="45.820553" lon="12.2937047"><ele>53.0</ele><time>2026-05-02T07:48:31.875Z</time></trkpt><trkpt lat="45.8204602" lon="12.2934213"><ele>52.66666666666667</ele><time>2026-05-02T07:48:32.873Z</time></trkpt><trkpt lat="45.8203662" lon="12.2931371"><ele>52.33333333333333</ele><time>2026-05-02T07:48:33.874Z</time></trkpt><trkpt lat="45.8202731" lon="12.2928582"><ele>52.0</ele><time>2026-05-02T07:48:34.874Z</time></trkpt><trkpt lat="45.8201814" lon="12.2925837"><ele>52.0</ele><time>2026-05-02T07:48:35.874Z</time></trkpt><trkpt lat="45.8200924" lon="12.2923234"><ele>52.0</ele><time>2026-05-02T07:48:36.874Z</time></trkpt><trkpt lat="45.8200012" lon="12.2920556"><ele>52.0</ele><time>2026-05-02T07:48:37.874Z</time></trkpt><trkpt lat="45.8199133" lon="12.2917966"><ele>52.666666666666664</ele><time>2026-05-02T07:48:38.874Z</time></trkpt><trkpt lat="45.819827" lon="12.291541"><ele>53.33333333333333</ele><time>2026-05-02T07:48:39.874Z</time></trkpt><trkpt lat="45.8197359" lon="12.2912861"><ele>54.0</ele><time>2026-05-02T07:48:40.874Z</time></trkpt><trkpt lat="45.8196453" lon="12.2910288"><ele>54.0</ele><time>2026-05-02T07:48:41.874Z</time></trkpt><trkpt lat="45.8195583" lon="12.2907748"><ele>54.0</ele><time>2026-05-02T07:48:42.875Z</time></trkpt><trkpt lat="45.8194722" lon="12.2905235"><ele>54.0</ele><time>2026-05-02T07:48:43.875Z</time></trkpt><trkpt lat="45.8193873" lon="12.2902783"><ele>54.0</ele><time>2026-05-02T07:48:44.874Z</time></trkpt><trkpt lat="45.8193097" lon="12.2900428"><ele>54.0</ele><time>2026-05-02T07:48:45.875Z</time></trkpt><trkpt lat="45.8192392" lon="12.2898192"><ele>54.0</ele><time>2026-05-02T07:48:46.874Z</time></trkpt><trkpt lat="45.8191704" lon="12.2896147"><ele>54.25</ele><time>2026-05-02T07:48:47.875Z</time></trkpt><trkpt lat="45.819111" lon="12.2894313"><ele>54.5</ele><time>2026-05-02T07:48:48.874Z</time></trkpt><trkpt lat="45.8190558" lon="12.2892663"><ele>54.75</ele><time>2026-05-02T07:48:49.875Z</time></trkpt><trkpt lat="45.8190142" lon="12.2891143"><ele>55.0</ele><time>2026-05-02T07:48:50.875Z</time></trkpt><trkpt lat="45.8190025" lon="12.2889572"><ele>54.4</ele><time>2026-05-02T07:48:51.875Z</time></trkpt><trkpt lat="45.8190111" lon="12.2888047"><ele>53.8</ele><time>2026-05-02T07:48:52.874Z</time></trkpt><trkpt lat="45.8190073" lon="12.2886629"><ele>53.2</ele><time>2026-05-02T07:48:53.875Z</time></trkpt><trkpt lat="45.8189572" lon="12.2885179"><ele>52.6</ele><time>2026-05-02T07:48:54.874Z</time></trkpt><trkpt lat="45.8188942" lon="12.2883701"><ele>52.0</ele><time>2026-05-02T07:48:55.875Z</time></trkpt><trkpt lat="45.8188494" lon="12.2881921"><ele>52.0</ele><time>2026-05-02T07:48:56.874Z</time></trkpt><trkpt lat="45.8188293" lon="12.2879826"><ele>52.0</ele><time>2026-05-02T07:48:57.874Z</time></trkpt><trkpt lat="45.8188237" lon="12.2877545"><ele>52.0</ele><time>2026-05-02T07:48:58.875Z</time></trkpt><trkpt lat="45.8188284" lon="12.2875146"><ele>52.666666666666664</ele><time>2026-05-02T07:48:59.875Z</time></trkpt><trkpt lat="45.8188427" lon="12.2872585"><ele>53.33333333333333</ele><time>2026-05-02T07:49:00.875Z</time></trkpt><trkpt lat="45.8188548" lon="12.2869949"><ele>54.0</ele><time>2026-05-02T07:49:01.875Z</time></trkpt><trkpt lat="45.8188666" lon="12.2867174"><ele>54.0</ele><time>2026-05-02T07:49:02.875Z</time></trkpt><trkpt lat="45.8188814" lon="12.2864329"><ele>54.0</ele><time>2026-05-02T07:49:03.874Z</time></trkpt><trkpt lat="45.8188927" lon="12.286143"><ele>54.0</ele><time>2026-05-02T07:49:04.875Z</time></trkpt><trkpt lat="45.818907" lon="12.2858474"><ele>54.33333333333333</ele><time>2026-05-02T07:49:05.875Z</time></trkpt><trkpt lat="45.8189231" lon="12.285553"><ele>54.666666666666664</ele><time>2026-05-02T07:49:06.875Z</time></trkpt><trkpt lat="45.8189398" lon="12.2852592"><ele>55.0</ele><time>2026-05-02T07:49:07.875Z</time></trkpt><trkpt lat="45.818955" lon="12.2849836"><ele>55.0</ele><time>2026-05-02T07:49:08.875Z</time></trkpt><trkpt lat="45.8189685" lon="12.2847287"><ele>55.0</ele><time>2026-05-02T07:49:09.875Z</time></trkpt><trkpt lat="45.8189802" lon="12.2844946"><ele>55.0</ele><time>2026-05-02T07:49:10.874Z</time></trkpt><trkpt lat="45.8189913" lon="12.2842787"><ele>55.0</ele><time>2026-05-02T07:49:11.875Z</time></trkpt><trkpt lat="45.819005" lon="12.2840905"><ele>55.0</ele><time>2026-05-02T07:49:12.875Z</time></trkpt><trkpt lat="45.819018" lon="12.2839221"><ele>55.0</ele><time>2026-05-02T07:49:13.875Z</time></trkpt><trkpt lat="45.8190369" lon="12.2837699"><ele>55.0</ele><time>2026-05-02T07:49:14.875Z</time></trkpt><trkpt lat="45.8190728" lon="12.2836373"><ele>55.0</ele><time>2026-05-02T07:49:15.874Z</time></trkpt><trkpt lat="45.8191332" lon="12.2835143"><ele>55.0</ele><time>2026-05-02T07:49:16.874Z</time></trkpt><trkpt lat="45.8192219" lon="12.2834219"><ele>55.0</ele><time>2026-05-02T07:49:17.875Z</time></trkpt><trkpt lat="45.8193082" lon="12.2833217"><ele>55.0</ele><time>2026-05-02T07:49:18.874Z</time></trkpt><trkpt lat="45.8193612" lon="12.2831791"><ele>55.0</ele><time>2026-05-02T07:49:19.875Z</time></trkpt><trkpt lat="45.8193687" lon="12.2830242"><ele>55.0</ele><time>2026-05-02T07:49:20.875Z</time></trkpt><trkpt lat="45.8193312" lon="12.2828751"><ele>55.0</ele><time>2026-05-02T07:49:21.875Z</time></trkpt><trkpt lat="45.8192545" lon="12.2827443"><ele>55.0</ele><time>2026-05-02T07:49:22.874Z</time></trkpt><trkpt lat="45.8191731" lon="12.2826035"><ele>55.0</ele><time>2026-05-02T07:49:23.875Z</time></trkpt><trkpt lat="45.8191204" lon="12.2824308"><ele>55.0</ele><time>2026-05-02T07:49:24.874Z</time></trkpt><trkpt lat="45.8191009" lon="12.2822163"><ele>55.0</ele><time>2026-05-02T07:49:25.875Z</time></trkpt><trkpt lat="45.8191066" lon="12.2819882"><ele>55.0</ele><time>2026-05-02T07:49:26.875Z</time></trkpt><trkpt lat="45.8191216" lon="12.2817422"><ele>55.0</ele><time>2026-05-02T07:49:27.875Z</time></trkpt><trkpt lat="45.8191383" lon="12.2814868"><ele>55.0</ele><time>2026-05-02T07:49:28.875Z</time></trkpt><trkpt lat="45.8191538" lon="12.2812108"><ele>55.0</ele><time>2026-05-02T07:49:29.875Z</time></trkpt><trkpt lat="45.8191712" lon="12.2809242"><ele>55.0</ele><time>2026-05-02T07:49:30.875Z</time></trkpt><trkpt lat="45.8191871" lon="12.2806251"><ele>55.0</ele><time>2026-05-02T07:49:31.875Z</time></trkpt><trkpt lat="45.8192025" lon="12.2803233"><ele>55.0</ele><time>2026-05-02T07:49:32.874Z</time></trkpt><trkpt lat="45.8192153" lon="12.280013"><ele>55.666666666666664</ele><time>2026-05-02T07:49:33.874Z</time></trkpt><trkpt lat="45.8192295" lon="12.2796995"><ele>56.33333333333333</ele><time>2026-05-02T07:49:34.875Z</time></trkpt><trkpt lat="45.8192475" lon="12.2793866"><ele>57.0</ele><time>2026-05-02T07:49:35.874Z</time></trkpt><trkpt lat="45.8192656" lon="12.2790839"><ele>57.66666666666667</ele><time>2026-05-02T07:49:36.875Z</time></trkpt><trkpt lat="45.8192807" lon="12.2787972"><ele>58.333333333333336</ele><time>2026-05-02T07:49:37.876Z</time></trkpt><trkpt lat="45.8192948" lon="12.2785213"><ele>59.0</ele><time>2026-05-02T07:49:38.875Z</time></trkpt><trkpt lat="45.8193072" lon="12.2782516"><ele>58.66666666666667</ele><time>2026-05-02T07:49:39.875Z</time></trkpt><trkpt lat="45.8193215" lon="12.2779879"><ele>58.33333333333333</ele><time>2026-05-02T07:49:40.876Z</time></trkpt><trkpt lat="45.8193351" lon="12.2777273"><ele>58.0</ele><time>2026-05-02T07:49:41.876Z</time></trkpt><trkpt lat="45.8193496" lon="12.2774656"><ele>57.666666666666664</ele><time>2026-05-02T07:49:42.875Z</time></trkpt><trkpt lat="45.8193643" lon="12.2772105"><ele>57.33333333333333</ele><time>2026-05-02T07:49:43.875Z</time></trkpt><trkpt lat="45.8193763" lon="12.2769658"><ele>57.0</ele><time>2026-05-02T07:49:44.875Z</time></trkpt><trkpt lat="45.8193932" lon="12.2767174"><ele>57.0</ele><time>2026-05-02T07:49:45.876Z</time></trkpt><trkpt lat="45.8194024" lon="12.2764938"><ele>57.0</ele><time>2026-05-02T07:49:46.876Z</time></trkpt><trkpt lat="45.8194115" lon="12.2762732"><ele>57.0</ele><time>2026-05-02T07:49:47.875Z</time></trkpt><trkpt lat="45.819426" lon="12.2760475"><ele>57.25</ele><time>2026-05-02T07:49:48.875Z</time></trkpt><trkpt lat="45.8194369" lon="12.275828"><ele>57.5</ele><time>2026-05-02T07:49:49.876Z</time></trkpt><trkpt lat="45.8194449" lon="12.275624"><ele>57.75</ele><time>2026-05-02T07:49:50.875Z</time></trkpt><trkpt lat="45.8194547" lon="12.2754324"><ele>58.0</ele><time>2026-05-02T07:49:51.876Z</time></trkpt><trkpt lat="45.8194647" lon="12.2752403"><ele>58.0</ele><time>2026-05-02T07:49:52.875Z</time></trkpt><trkpt lat="45.8194749" lon="12.2750503"><ele>58.0</ele><time>2026-05-02T07:49:53.876Z</time></trkpt><trkpt lat="45.8194843" lon="12.2748548"><ele>58.0</ele><time>2026-05-02T07:49:54.875Z</time></trkpt><trkpt lat="45.8194969" lon="12.2746556"><ele>58.0</ele><time>2026-05-02T07:49:55.876Z</time></trkpt><trkpt lat="45.8195084" lon="12.2744536"><ele>58.33333333333333</ele><time>2026-05-02T07:49:56.875Z</time></trkpt><trkpt lat="45.8195187" lon="12.2742381"><ele>58.66666666666667</ele><time>2026-05-02T07:49:57.876Z</time></trkpt><trkpt lat="45.8195253" lon="12.2740203"><ele>59.0</ele><time>2026-05-02T07:49:58.875Z</time></trkpt><trkpt lat="45.8195385" lon="12.2738053"><ele>59.0</ele><time>2026-05-02T07:49:59.875Z</time></trkpt><trkpt lat="45.8195522" lon="12.2735804"><ele>59.0</ele><time>2026-05-02T07:50:00.876Z</time></trkpt><trkpt lat="45.8195644" lon="12.2733507"><ele>59.0</ele><time>2026-05-02T07:50:01.875Z</time></trkpt><trkpt lat="45.8195789" lon="12.2731209"><ele>58.66666666666667</ele><time>2026-05-02T07:50:02.876Z</time></trkpt><trkpt lat="45.8195904" lon="12.2728905"><ele>58.33333333333333</ele><time>2026-05-02T07:50:03.875Z</time></trkpt><trkpt lat="45.8196042" lon="12.2726646"><ele>58.0</ele><time>2026-05-02T07:50:04.876Z</time></trkpt><trkpt lat="45.8196174" lon="12.2724325"><ele>57.666666666666664</ele><time>2026-05-02T07:50:05.875Z</time></trkpt><trkpt lat="45.8196285" lon="12.2721979"><ele>57.33333333333333</ele><time>2026-05-02T07:50:06.876Z</time></trkpt><trkpt lat="45.8196399" lon="12.2719659"><ele>57.0</ele><time>2026-05-02T07:50:07.876Z</time></trkpt><trkpt lat="45.8196511" lon="12.2717316"><ele>57.0</ele><time>2026-05-02T07:50:08.875Z</time></trkpt><trkpt lat="45.8196614" lon="12.2714994"><ele>57.0</ele><time>2026-05-02T07:50:09.876Z</time></trkpt><trkpt lat="45.8196748" lon="12.2712762"><ele>57.0</ele><time>2026-05-02T07:50:10.876Z</time></trkpt><trkpt lat="45.8196877" lon="12.2710541"><ele>57.0</ele><time>2026-05-02T07:50:11.876Z</time></trkpt><trkpt lat="45.8196963" lon="12.2708326"><ele>57.0</ele><time>2026-05-02T07:50:12.876Z</time></trkpt><trkpt lat="45.819706" lon="12.270614"><ele>57.0</ele><time>2026-05-02T07:50:13.875Z</time></trkpt><trkpt lat="45.8197163" lon="12.2704028"><ele>57.75</ele><time>2026-05-02T07:50:14.876Z</time></trkpt><trkpt lat="45.8197304" lon="12.2702097"><ele>58.5</ele><time>2026-05-02T07:50:15.875Z</time></trkpt><trkpt lat="45.8197429" lon="12.2700131"><ele>59.25</ele><time>2026-05-02T07:50:16.876Z</time></trkpt><trkpt lat="45.8197509" lon="12.2698163"><ele>60.0</ele><time>2026-05-02T07:50:17.875Z</time></trkpt><trkpt lat="45.8197576" lon="12.269614"><ele>60.0</ele><time>2026-05-02T07:50:18.876Z</time></trkpt><trkpt lat="45.8197696" lon="12.2694208"><ele>60.0</ele><time>2026-05-02T07:50:19.876Z</time></trkpt><trkpt lat="45.8197821" lon="12.2692227"><ele>60.0</ele><time>2026-05-02T07:50:20.876Z</time></trkpt><trkpt lat="45.8197927" lon="12.2690339"><ele>60.0</ele><time>2026-05-02T07:50:21.875Z</time></trkpt><trkpt lat="45.8198005" lon="12.2688403"><ele>60.5</ele><time>2026-05-02T07:50:22.876Z</time></trkpt><trkpt lat="45.819814" lon="12.2686491"><ele>61.0</ele><time>2026-05-02T07:50:23.876Z</time></trkpt><trkpt lat="45.8198235" lon="12.2684667"><ele>61.5</ele><time>2026-05-02T07:50:24.875Z</time></trkpt><trkpt lat="45.8198344" lon="12.2682847"><ele>62.0</ele><time>2026-05-02T07:50:25.875Z</time></trkpt><trkpt lat="45.8198416" lon="12.2681002"><ele>62.25</ele><time>2026-05-02T07:50:26.876Z</time></trkpt><trkpt lat="45.8198518" lon="12.2679219"><ele>62.5</ele><time>2026-05-02T07:50:27.876Z</time></trkpt><trkpt lat="45.8198606" lon="12.2677332"><ele>62.75</ele><time>2026-05-02T07:50:28.875Z</time></trkpt><trkpt lat="45.8198696" lon="12.2675396"><ele>63.0</ele><time>2026-05-02T07:50:29.875Z</time></trkpt><trkpt lat="45.8198804" lon="12.2673438"><ele>63.0</ele><time>2026-05-02T07:50:30.876Z</time></trkpt><trkpt lat="45.8198913" lon="12.2671317"><ele>63.0</ele><time>2026-05-02T07:50:31.876Z</time></trkpt><trkpt lat="45.8199045" lon="12.2669049"><ele>63.0</ele><time>2026-05-02T07:50:32.876Z</time></trkpt><trkpt lat="45.8199165" lon="12.2666663"><ele>63.0</ele><time>2026-05-02T07:50:33.875Z</time></trkpt><trkpt lat="45.8199323" lon="12.2664284"><ele>63.0</ele><time>2026-05-02T07:50:34.876Z</time></trkpt><trkpt lat="45.8199432" lon="12.2661881"><ele>63.0</ele><time>2026-05-02T07:50:35.875Z</time></trkpt><trkpt lat="45.8199563" lon="12.2659526"><ele>63.0</ele><time>2026-05-02T07:50:36.876Z</time></trkpt><trkpt lat="45.8199648" lon="12.2657188"><ele>63.0</ele><time>2026-05-02T07:50:37.876Z</time></trkpt><trkpt lat="45.8199771" lon="12.265494"><ele>63.0</ele><time>2026-05-02T07:50:38.876Z</time></trkpt><trkpt lat="45.8199902" lon="12.2652786"><ele>63.0</ele><time>2026-05-02T07:50:39.876Z</time></trkpt><trkpt lat="45.8199992" lon="12.2650655"><ele>63.0</ele><time>2026-05-02T07:50:40.876Z</time></trkpt><trkpt lat="45.820012" lon="12.2648678"><ele>63.0</ele><time>2026-05-02T07:50:41.876Z</time></trkpt><trkpt lat="45.820022" lon="12.2646803"><ele>63.0</ele><time>2026-05-02T07:50:42.876Z</time></trkpt><trkpt lat="45.820028" lon="12.2645027"><ele>63.0</ele><time>2026-05-02T07:50:43.877Z</time></trkpt><trkpt lat="45.8200378" lon="12.26433"><ele>63.0</ele><time>2026-05-02T07:50:44.876Z</time></trkpt><trkpt lat="45.8200439" lon="12.2641484"><ele>63.0</ele><time>2026-05-02T07:50:45.876Z</time></trkpt><trkpt lat="45.8200525" lon="12.2639514"><ele>63.0</ele><time>2026-05-02T07:50:46.877Z</time></trkpt><trkpt lat="45.8200637" lon="12.2637465"><ele>63.0</ele><time>2026-05-02T07:50:47.877Z</time></trkpt><trkpt lat="45.8200761" lon="12.2635428"><ele>63.0</ele><time>2026-05-02T07:50:48.877Z</time></trkpt><trkpt lat="45.8200852" lon="12.263357"><ele>63.0</ele><time>2026-05-02T07:50:49.877Z</time></trkpt><trkpt lat="45.8200945" lon="12.2631697"><ele>63.0</ele><time>2026-05-02T07:50:50.876Z</time></trkpt><trkpt lat="45.820104" lon="12.2629949"><ele>63.0</ele><time>2026-05-02T07:50:51.877Z</time></trkpt><trkpt lat="45.8201118" lon="12.2628364"><ele>63.0</ele><time>2026-05-02T07:50:52.877Z</time></trkpt><trkpt lat="45.82012" lon="12.2626884"><ele>63.0</ele><time>2026-05-02T07:50:53.877Z</time></trkpt><trkpt lat="45.8201245" lon="12.2625381"><ele>63.0</ele><time>2026-05-02T07:50:54.876Z</time></trkpt><trkpt lat="45.8201345" lon="12.2623761"><ele>63.0</ele><time>2026-05-02T07:50:55.876Z</time></trkpt><trkpt lat="45.8201477" lon="12.262216"><ele>63.25</ele><time>2026-05-02T07:50:56.877Z</time></trkpt><trkpt lat="45.8201584" lon="12.2620365"><ele>63.5</ele><time>2026-05-02T07:50:57.877Z</time></trkpt><trkpt lat="45.8201647" lon="12.261869"><ele>63.75</ele><time>2026-05-02T07:50:58.876Z</time></trkpt><trkpt lat="45.8201709" lon="12.2617082"><ele>64.0</ele><time>2026-05-02T07:50:59.876Z</time></trkpt><trkpt lat="45.8201782" lon="12.2615679"><ele>64.0</ele><time>2026-05-02T07:51:00.877Z</time></trkpt><trkpt lat="45.8201841" lon="12.261444"><ele>64.0</ele><time>2026-05-02T07:51:01.877Z</time></trkpt><trkpt lat="45.8201864" lon="12.2613407"><ele>64.0</ele><time>2026-05-02T07:51:02.876Z</time></trkpt><trkpt lat="45.820193" lon="12.2612187"><ele>64.0</ele><time>2026-05-02T07:51:03.876Z</time></trkpt><trkpt lat="45.8202051" lon="12.2610706"><ele>64.0</ele><time>2026-05-02T07:51:04.876Z</time></trkpt><trkpt lat="45.8202262" lon="12.2608986"><ele>64.0</ele><time>2026-05-02T07:51:05.876Z</time></trkpt><trkpt lat="45.8202475" lon="12.2607051"><ele>64.0</ele><time>2026-05-02T07:51:06.876Z</time></trkpt><trkpt lat="45.8202732" lon="12.2605143"><ele>64.0</ele><time>2026-05-02T07:51:07.876Z</time></trkpt><trkpt lat="45.8202989" lon="12.260332"><ele>64.0</ele><time>2026-05-02T07:51:08.876Z</time></trkpt><trkpt lat="45.8203279" lon="12.2601613"><ele>64.0</ele><time>2026-05-02T07:51:09.877Z</time></trkpt><trkpt lat="45.8203586" lon="12.2600084"><ele>64.0</ele><time>2026-05-02T07:51:10.877Z</time></trkpt><trkpt lat="45.8203883" lon="12.2598741"><ele>64.0</ele><time>2026-05-02T07:51:11.877Z</time></trkpt><trkpt lat="45.82042" lon="12.2597496"><ele>64.0</ele><time>2026-05-02T07:51:12.876Z</time></trkpt><trkpt lat="45.8204518" lon="12.259624"><ele>64.0</ele><time>2026-05-02T07:51:13.876Z</time></trkpt><trkpt lat="45.8204892" lon="12.2594913"><ele>64.5</ele><time>2026-05-02T07:51:14.877Z</time></trkpt><trkpt lat="45.8205324" lon="12.2593426"><ele>65.0</ele><time>2026-05-02T07:51:15.877Z</time></trkpt><trkpt lat="45.8205771" lon="12.2591926"><ele>65.5</ele><time>2026-05-02T07:51:16.876Z</time></trkpt><trkpt lat="45.8206273" lon="12.2590399"><ele>66.0</ele><time>2026-05-02T07:51:17.877Z</time></trkpt><trkpt lat="45.8206832" lon="12.2588864"><ele>66.0</ele><time>2026-05-02T07:51:18.876Z</time></trkpt><trkpt lat="45.8207425" lon="12.2587281"><ele>66.0</ele><time>2026-05-02T07:51:19.876Z</time></trkpt><trkpt lat="45.8208046" lon="12.2585676"><ele>66.0</ele><time>2026-05-02T07:51:20.876Z</time></trkpt><trkpt lat="45.8208677" lon="12.2584237"><ele>66.0</ele><time>2026-05-02T07:51:21.876Z</time></trkpt><trkpt lat="45.8209294" lon="12.2582885"><ele>65.75</ele><time>2026-05-02T07:51:22.876Z</time></trkpt><trkpt lat="45.8209929" lon="12.2581433"><ele>65.5</ele><time>2026-05-02T07:51:23.877Z</time></trkpt><trkpt lat="45.8210708" lon="12.2579902"><ele>65.25</ele><time>2026-05-02T07:51:24.878Z</time></trkpt><trkpt lat="45.8211462" lon="12.2578178"><ele>65.0</ele><time>2026-05-02T07:51:25.877Z</time></trkpt><trkpt lat="45.8212137" lon="12.2576608"><ele>65.0</ele><time>2026-05-02T07:51:26.877Z</time></trkpt><trkpt lat="45.8212638" lon="12.2575288"><ele>65.0</ele><time>2026-05-02T07:51:27.876Z</time></trkpt><trkpt lat="45.821309" lon="12.2574003"><ele>65.0</ele><time>2026-05-02T07:51:28.877Z</time></trkpt><trkpt lat="45.8213552" lon="12.2572664"><ele>65.0</ele><time>2026-05-02T07:51:29.877Z</time></trkpt><trkpt lat="45.8213988" lon="12.2571321"><ele>65.0</ele><time>2026-05-02T07:51:30.876Z</time></trkpt><trkpt lat="45.8214432" lon="12.2569971"><ele>65.2</ele><time>2026-05-02T07:51:31.877Z</time></trkpt><trkpt lat="45.8214871" lon="12.2568698"><ele>65.4</ele><time>2026-05-02T07:51:32.876Z</time></trkpt><trkpt lat="45.8215268" lon="12.2567581"><ele>65.6</ele><time>2026-05-02T07:51:33.877Z</time></trkpt><trkpt lat="45.8215733" lon="12.2566322"><ele>65.8</ele><time>2026-05-02T07:51:34.876Z</time></trkpt><trkpt lat="45.8216238" lon="12.2564969"><ele>66.0</ele><time>2026-05-02T07:51:35.876Z</time></trkpt><trkpt lat="45.8216718" lon="12.2563546"><ele>66.39999999999999</ele><time>2026-05-02T07:51:36.877Z</time></trkpt><trkpt lat="45.821718" lon="12.2562217"><ele>66.8</ele><time>2026-05-02T07:51:37.877Z</time></trkpt><trkpt lat="45.8217615" lon="12.256093"><ele>67.19999999999999</ele><time>2026-05-02T07:51:38.876Z</time></trkpt><trkpt lat="45.8218065" lon="12.2559663"><ele>67.6</ele><time>2026-05-02T07:51:39.876Z</time></trkpt><trkpt lat="45.8218472" lon="12.2558528"><ele>68.0</ele><time>2026-05-02T07:51:40.876Z</time></trkpt><trkpt lat="45.8218869" lon="12.255742"><ele>68.16666666666667</ele><time>2026-05-02T07:51:41.877Z</time></trkpt><trkpt lat="45.8219214" lon="12.2556493"><ele>68.33333333333334</ele><time>2026-05-02T07:51:42.878Z</time></trkpt><trkpt lat="45.8219568" lon="12.255554"><ele>68.5</ele><time>2026-05-02T07:51:43.878Z</time></trkpt><trkpt lat="45.8219912" lon="12.2554609"><ele>68.66666666666667</ele><time>2026-05-02T07:51:44.878Z</time></trkpt><trkpt lat="45.8220226" lon="12.2553671"><ele>68.83333333333333</ele><time>2026-05-02T07:51:45.877Z</time></trkpt><trkpt lat="45.8220503" lon="12.255284"><ele>69.0</ele><time>2026-05-02T07:51:46.878Z</time></trkpt><trkpt lat="45.822102" lon="12.2551375"><ele>69.0</ele><time>2026-05-02T07:51:48.878Z</time></trkpt><trkpt lat="45.8221428" lon="12.2550195"><ele>69.0</ele><time>2026-05-02T07:51:50.878Z</time></trkpt><trkpt lat="45.8221754" lon="12.2549357"><ele>69.0</ele><time>2026-05-02T07:51:52.878Z</time></trkpt><trkpt lat="45.8222095" lon="12.2548503"><ele>69.0</ele><time>2026-05-02T07:51:55.878Z</time></trkpt><trkpt lat="45.8222462" lon="12.2547668"><ele>69.0</ele><time>2026-05-02T07:52:00.878Z</time></trkpt><trkpt lat="45.8222806" lon="12.2546865"><ele>69.0</ele><time>2026-05-02T07:52:07.878Z</time></trkpt><trkpt lat="45.8223089" lon="12.2545987"><ele>69.0</ele><time>2026-05-02T07:52:12.878Z</time></trkpt><trkpt lat="45.8223572" lon="12.2545013"><ele>68.8</ele><time>2026-05-02T07:52:16.878Z</time></trkpt><trkpt lat="45.8224132" lon="12.2544257"><ele>68.60000000000001</ele><time>2026-05-02T07:52:20.877Z</time></trkpt><trkpt lat="45.8224733" lon="12.2543651"><ele>68.4</ele><time>2026-05-02T07:52:24.877Z</time></trkpt><trkpt lat="45.8225476" lon="12.2543217"><ele>68.2</ele><time>2026-05-02T07:52:26.877Z</time></trkpt><trkpt lat="45.8226627" lon="12.2542771"><ele>68.0</ele><time>2026-05-02T07:52:28.877Z</time></trkpt><trkpt lat="45.8227608" lon="12.2541839"><ele>68.0</ele><time>2026-05-02T07:52:30.879Z</time></trkpt><trkpt lat="45.8227881" lon="12.2540065"><ele>68.0</ele><time>2026-05-02T07:52:32.878Z</time></trkpt><trkpt lat="45.8227793" lon="12.2538548"><ele>68.0</ele><time>2026-05-02T07:52:34.877Z</time></trkpt><trkpt lat="45.8227468" lon="12.2537494"><ele>68.0</ele><time>2026-05-02T07:52:36.878Z</time></trkpt><trkpt lat="45.8227199" lon="12.2536216"><ele>68.0</ele><time>2026-05-02T07:52:38.877Z</time></trkpt><trkpt lat="45.8227277" lon="12.253453"><ele>68.2</ele><time>2026-05-02T07:52:40.878Z</time></trkpt><trkpt lat="45.8227431" lon="12.2533651"><ele>68.4</ele><time>2026-05-02T07:52:41.878Z</time></trkpt><trkpt lat="45.8227715" lon="12.2532556"><ele>68.60000000000001</ele><time>2026-05-02T07:52:42.878Z</time></trkpt><trkpt lat="45.8228108" lon="12.2531299"><ele>68.8</ele><time>2026-05-02T07:52:43.878Z</time></trkpt><trkpt lat="45.822858" lon="12.2529952"><ele>69.0</ele><time>2026-05-02T07:52:44.877Z</time></trkpt><trkpt lat="45.8229064" lon="12.2528576"><ele>69.2</ele><time>2026-05-02T07:52:45.878Z</time></trkpt><trkpt lat="45.8229549" lon="12.2527188"><ele>69.4</ele><time>2026-05-02T07:52:46.878Z</time></trkpt><trkpt lat="45.8230052" lon="12.2525802"><ele>69.6</ele><time>2026-05-02T07:52:47.879Z</time></trkpt><trkpt lat="45.8230552" lon="12.2524388"><ele>69.8</ele><time>2026-05-02T07:52:48.879Z</time></trkpt><trkpt lat="45.8231046" lon="12.2523019"><ele>70.0</ele><time>2026-05-02T07:52:49.879Z</time></trkpt><trkpt lat="45.8231545" lon="12.2521601"><ele>70.0</ele><time>2026-05-02T07:52:50.878Z</time></trkpt><trkpt lat="45.823203" lon="12.252017"><ele>70.0</ele><time>2026-05-02T07:52:51.878Z</time></trkpt><trkpt lat="45.8232541" lon="12.2518735"><ele>70.0</ele><time>2026-05-02T07:52:52.879Z</time></trkpt><trkpt lat="45.823304" lon="12.2517282"><ele>70.0</ele><time>2026-05-02T07:52:53.879Z</time></trkpt><trkpt lat="45.8233538" lon="12.2515808"><ele>69.75</ele><time>2026-05-02T07:52:54.878Z</time></trkpt><trkpt lat="45.8234042" lon="12.2514344"><ele>69.5</ele><time>2026-05-02T07:52:55.878Z</time></trkpt><trkpt lat="45.8234564" lon="12.2512873"><ele>69.25</ele><time>2026-05-02T07:52:56.879Z</time></trkpt><trkpt lat="45.8235088" lon="12.25114"><ele>69.0</ele><time>2026-05-02T07:52:57.878Z</time></trkpt><trkpt lat="45.8235608" lon="12.2509921"><ele>69.0</ele><time>2026-05-02T07:52:58.879Z</time></trkpt><trkpt lat="45.8236123" lon="12.2508455"><ele>69.0</ele><time>2026-05-02T07:52:59.879Z</time></trkpt><trkpt lat="45.8236623" lon="12.2506993"><ele>69.0</ele><time>2026-05-02T07:53:00.878Z</time></trkpt><trkpt lat="45.8237137" lon="12.2505536"><ele>69.0</ele><time>2026-05-02T07:53:01.878Z</time></trkpt><trkpt lat="45.8237659" lon="12.2504072"><ele>68.75</ele><time>2026-05-02T07:53:02.879Z</time></trkpt><trkpt lat="45.8238192" lon="12.2502582"><ele>68.5</ele><time>2026-05-02T07:53:03.879Z</time></trkpt><trkpt lat="45.8238709" lon="12.2501054"><ele>68.25</ele><time>2026-05-02T07:53:04.879Z</time></trkpt><trkpt lat="45.8239253" lon="12.2499492"><ele>68.0</ele><time>2026-05-02T07:53:05.878Z</time></trkpt><trkpt lat="45.8239806" lon="12.2497878"><ele>68.0</ele><time>2026-05-02T07:53:06.878Z</time></trkpt><trkpt lat="45.8240366" lon="12.2496251"><ele>68.0</ele><time>2026-05-02T07:53:07.879Z</time></trkpt><trkpt lat="45.824096" lon="12.2494582"><ele>68.0</ele><time>2026-05-02T07:53:08.879Z</time></trkpt><trkpt lat="45.8241561" lon="12.2492901"><ele>68.0</ele><time>2026-05-02T07:53:09.879Z</time></trkpt><trkpt lat="45.8242156" lon="12.2491222"><ele>68.0</ele><time>2026-05-02T07:53:10.879Z</time></trkpt><trkpt lat="45.8242749" lon="12.2489556"><ele>68.0</ele><time>2026-05-02T07:53:11.878Z</time></trkpt><trkpt lat="45.8243324" lon="12.2487925"><ele>68.0</ele><time>2026-05-02T07:53:12.878Z</time></trkpt><trkpt lat="45.8243883" lon="12.2486317"><ele>68.0</ele><time>2026-05-02T07:53:13.879Z</time></trkpt><trkpt lat="45.8244443" lon="12.2484721"><ele>68.0</ele><time>2026-05-02T07:53:14.878Z</time></trkpt><trkpt lat="45.8245001" lon="12.2483132"><ele>68.0</ele><time>2026-05-02T07:53:15.879Z</time></trkpt><trkpt lat="45.8245572" lon="12.248153"><ele>68.0</ele><time>2026-05-02T07:53:16.879Z</time></trkpt><trkpt lat="45.8246149" lon="12.2479923"><ele>68.0</ele><time>2026-05-02T07:53:17.879Z</time></trkpt><trkpt lat="45.8246736" lon="12.2478288"><ele>68.0</ele><time>2026-05-02T07:53:18.878Z</time></trkpt><trkpt lat="45.8247323" lon="12.2476634"><ele>68.0</ele><time>2026-05-02T07:53:19.878Z</time></trkpt><trkpt lat="45.824791" lon="12.2474939"><ele>68.0</ele><time>2026-05-02T07:53:20.879Z</time></trkpt><trkpt lat="45.8248503" lon="12.2473246"><ele>68.0</ele><time>2026-05-02T07:53:21.878Z</time></trkpt><trkpt lat="45.8249101" lon="12.2471509"><ele>68.5</ele><time>2026-05-02T07:53:22.878Z</time></trkpt><trkpt lat="45.8249712" lon="12.2469765"><ele>69.0</ele><time>2026-05-02T07:53:23.879Z</time></trkpt><trkpt lat="45.8250337" lon="12.2467992"><ele>69.5</ele><time>2026-05-02T07:53:24.878Z</time></trkpt><trkpt lat="45.8250955" lon="12.2466234"><ele>70.0</ele><time>2026-05-02T07:53:25.878Z</time></trkpt><trkpt lat="45.8251551" lon="12.2464552"><ele>70.0</ele><time>2026-05-02T07:53:26.878Z</time></trkpt><trkpt lat="45.82521" lon="12.2463009"><ele>70.0</ele><time>2026-05-02T07:53:27.878Z</time></trkpt><trkpt lat="45.825259" lon="12.2461604"><ele>70.0</ele><time>2026-05-02T07:53:28.879Z</time></trkpt><trkpt lat="45.8253039" lon="12.2460301"><ele>70.0</ele><time>2026-05-02T07:53:29.879Z</time></trkpt><trkpt lat="45.8253474" lon="12.2459058"><ele>70.0</ele><time>2026-05-02T07:53:30.878Z</time></trkpt><trkpt lat="45.8253922" lon="12.2457819"><ele>70.0</ele><time>2026-05-02T07:53:31.879Z</time></trkpt><trkpt lat="45.8254361" lon="12.2456517"><ele>70.0</ele><time>2026-05-02T07:53:32.879Z</time></trkpt><trkpt lat="45.8254824" lon="12.2455144"><ele>70.0</ele><time>2026-05-02T07:53:33.878Z</time></trkpt><trkpt lat="45.8255313" lon="12.2453722"><ele>70.0</ele><time>2026-05-02T07:53:34.879Z</time></trkpt><trkpt lat="45.8255825" lon="12.2452254"><ele>70.0</ele><time>2026-05-02T07:53:35.879Z</time></trkpt><trkpt lat="45.8256358" lon="12.2450753"><ele>70.0</ele><time>2026-05-02T07:53:36.879Z</time></trkpt><trkpt lat="45.8256907" lon="12.244921"><ele>70.0</ele><time>2026-05-02T07:53:37.878Z</time></trkpt><trkpt lat="45.8257469" lon="12.2447629"><ele>70.0</ele><time>2026-05-02T07:53:38.879Z</time></trkpt><trkpt lat="45.8258039" lon="12.2446064"><ele>70.0</ele><time>2026-05-02T07:53:39.879Z</time></trkpt><trkpt lat="45.8258634" lon="12.244443"><ele>70.25</ele><time>2026-05-02T07:53:40.878Z</time></trkpt><trkpt lat="45.8259217" lon="12.244274"><ele>70.5</ele><time>2026-05-02T07:53:41.879Z</time></trkpt><trkpt lat="45.8259812" lon="12.2441013"><ele>70.75</ele><time>2026-05-02T07:53:42.879Z</time></trkpt><trkpt lat="45.8260421" lon="12.2439307"><ele>71.0</ele><time>2026-05-02T07:53:43.878Z</time></trkpt><trkpt lat="45.8261043" lon="12.2437561"><ele>71.25</ele><time>2026-05-02T07:53:44.879Z</time></trkpt><trkpt lat="45.8261661" lon="12.243581"><ele>71.5</ele><time>2026-05-02T07:53:45.878Z</time></trkpt><trkpt lat="45.8262277" lon="12.2434011"><ele>71.75</ele><time>2026-05-02T07:53:46.878Z</time></trkpt><trkpt lat="45.8262913" lon="12.2432188"><ele>72.0</ele><time>2026-05-02T07:53:47.879Z</time></trkpt><trkpt lat="45.8263543" lon="12.2430377"><ele>72.0</ele><time>2026-05-02T07:53:48.879Z</time></trkpt><trkpt lat="45.8264204" lon="12.2428556"><ele>72.0</ele><time>2026-05-02T07:53:49.88Z</time></trkpt><trkpt lat="45.8264838" lon="12.2426712"><ele>72.0</ele><time>2026-05-02T07:53:50.88Z</time></trkpt><trkpt lat="45.8265464" lon="12.2424865"><ele>72.0</ele><time>2026-05-02T07:53:51.879Z</time></trkpt><trkpt lat="45.8266089" lon="12.2423012"><ele>71.75</ele><time>2026-05-02T07:53:52.88Z</time></trkpt><trkpt lat="45.8266692" lon="12.2421357"><ele>71.5</ele><time>2026-05-02T07:53:53.879Z</time></trkpt><trkpt lat="45.8267255" lon="12.2419841"><ele>71.25</ele><time>2026-05-02T07:53:54.88Z</time></trkpt><trkpt lat="45.8267802" lon="12.2418367"><ele>71.0</ele><time>2026-05-02T07:53:55.879Z</time></trkpt><trkpt lat="45.8268276" lon="12.2417002"><ele>71.0</ele><time>2026-05-02T07:53:56.879Z</time></trkpt><trkpt lat="45.8268768" lon="12.2415587"><ele>71.0</ele><time>2026-05-02T07:53:57.879Z</time></trkpt><trkpt lat="45.8269263" lon="12.2414144"><ele>71.0</ele><time>2026-05-02T07:53:58.879Z</time></trkpt><trkpt lat="45.8269764" lon="12.2412669"><ele>71.0</ele><time>2026-05-02T07:53:59.879Z</time></trkpt><trkpt lat="45.8270308" lon="12.2411159"><ele>71.25</ele><time>2026-05-02T07:54:00.879Z</time></trkpt><trkpt lat="45.8270846" lon="12.2409663"><ele>71.5</ele><time>2026-05-02T07:54:01.879Z</time></trkpt><trkpt lat="45.8271385" lon="12.2408114"><ele>71.75</ele><time>2026-05-02T07:54:02.879Z</time></trkpt><trkpt lat="45.8271937" lon="12.2406517"><ele>72.0</ele><time>2026-05-02T07:54:03.88Z</time></trkpt><trkpt lat="45.8272541" lon="12.2404794"><ele>72.0</ele><time>2026-05-02T07:54:04.88Z</time></trkpt><trkpt lat="45.8273192" lon="12.2402945"><ele>72.0</ele><time>2026-05-02T07:54:05.88Z</time></trkpt><trkpt lat="45.8273874" lon="12.2401011"><ele>72.0</ele><time>2026-05-02T07:54:06.88Z</time></trkpt><trkpt lat="45.8274548" lon="12.2399102"><ele>72.0</ele><time>2026-05-02T07:54:07.879Z</time></trkpt><trkpt lat="45.8275246" lon="12.2397163"><ele>72.0</ele><time>2026-05-02T07:54:08.88Z</time></trkpt><trkpt lat="45.8275955" lon="12.2395205"><ele>72.0</ele><time>2026-05-02T07:54:09.88Z</time></trkpt><trkpt lat="45.8276631" lon="12.2393265"><ele>72.0</ele><time>2026-05-02T07:54:10.88Z</time></trkpt><trkpt lat="45.8277157" lon="12.2391826"><ele>72.0</ele><time>2026-05-02T07:54:11.88Z</time></trkpt><trkpt lat="45.8277591" lon="12.2390646"><ele>72.0</ele><time>2026-05-02T07:54:12.88Z</time></trkpt><trkpt lat="45.827803" lon="12.2389398"><ele>72.0</ele><time>2026-05-02T07:54:13.879Z</time></trkpt><trkpt lat="45.8278497" lon="12.238802"><ele>72.0</ele><time>2026-05-02T07:54:14.88Z</time></trkpt><trkpt lat="45.8279013" lon="12.2386519"><ele>72.0</ele><time>2026-05-02T07:54:15.879Z</time></trkpt><trkpt lat="45.8279577" lon="12.2384939"><ele>72.0</ele><time>2026-05-02T07:54:16.88Z</time></trkpt><trkpt lat="45.8280162" lon="12.2383297"><ele>72.0</ele><time>2026-05-02T07:54:17.879Z</time></trkpt><trkpt lat="45.8280755" lon="12.2381588"><ele>72.0</ele><time>2026-05-02T07:54:18.879Z</time></trkpt><trkpt lat="45.8281394" lon="12.2379849"><ele>72.0</ele><time>2026-05-02T07:54:19.879Z</time></trkpt><trkpt lat="45.8282014" lon="12.237805"><ele>72.0</ele><time>2026-05-02T07:54:20.879Z</time></trkpt><trkpt lat="45.8282649" lon="12.2376218"><ele>72.25</ele><time>2026-05-02T07:54:21.88Z</time></trkpt><trkpt lat="45.8283293" lon="12.2374353"><ele>72.5</ele><time>2026-05-02T07:54:22.879Z</time></trkpt><trkpt lat="45.8283946" lon="12.2372475"><ele>72.75</ele><time>2026-05-02T07:54:23.88Z</time></trkpt><trkpt lat="45.8284585" lon="12.2370648"><ele>73.0</ele><time>2026-05-02T07:54:24.88Z</time></trkpt><trkpt lat="45.8285163" lon="12.2368961"><ele>73.0</ele><time>2026-05-02T07:54:25.88Z</time></trkpt><trkpt lat="45.8285727" lon="12.2367369"><ele>73.0</ele><time>2026-05-02T07:54:26.88Z</time></trkpt><trkpt lat="45.8286265" lon="12.2365761"><ele>73.0</ele><time>2026-05-02T07:54:27.879Z</time></trkpt><trkpt lat="45.8286804" lon="12.2364057"><ele>73.0</ele><time>2026-05-02T07:54:28.879Z</time></trkpt><trkpt lat="45.8287331" lon="12.2362288"><ele>73.0</ele><time>2026-05-02T07:54:29.88Z</time></trkpt><trkpt lat="45.8287861" lon="12.2360459"><ele>73.0</ele><time>2026-05-02T07:54:30.88Z</time></trkpt><trkpt lat="45.8288359" lon="12.2358647"><ele>73.0</ele><time>2026-05-02T07:54:31.879Z</time></trkpt><trkpt lat="45.8288809" lon="12.2356934"><ele>73.0</ele><time>2026-05-02T07:54:32.88Z</time></trkpt><trkpt lat="45.828925" lon="12.2355237"><ele>73.0</ele><time>2026-05-02T07:54:33.88Z</time></trkpt><trkpt lat="45.8289683" lon="12.235353"><ele>73.0</ele><time>2026-05-02T07:54:34.879Z</time></trkpt><trkpt lat="45.8290127" lon="12.2351862"><ele>73.0</ele><time>2026-05-02T07:54:35.88Z</time></trkpt><trkpt lat="45.8290561" lon="12.2350186"><ele>73.0</ele><time>2026-05-02T07:54:36.88Z</time></trkpt><trkpt lat="45.8291005" lon="12.2348501"><ele>73.25</ele><time>2026-05-02T07:54:37.88Z</time></trkpt><trkpt lat="45.8291442" lon="12.2346834"><ele>73.5</ele><time>2026-05-02T07:54:38.879Z</time></trkpt><trkpt lat="45.8291865" lon="12.2345221"><ele>73.75</ele><time>2026-05-02T07:54:39.879Z</time></trkpt><trkpt lat="45.8292318" lon="12.2343601"><ele>74.0</ele><time>2026-05-02T07:54:40.879Z</time></trkpt><trkpt lat="45.8292912" lon="12.2342077"><ele>73.5</ele><time>2026-05-02T07:54:41.88Z</time></trkpt><trkpt lat="45.8293472" lon="12.2340553"><ele>73.0</ele><time>2026-05-02T07:54:42.879Z</time></trkpt><trkpt lat="45.8293961" lon="12.2338978"><ele>72.5</ele><time>2026-05-02T07:54:43.879Z</time></trkpt><trkpt lat="45.829437" lon="12.2337322"><ele>72.0</ele><time>2026-05-02T07:54:44.879Z</time></trkpt><trkpt lat="45.829477" lon="12.2335558"><ele>72.0</ele><time>2026-05-02T07:54:45.88Z</time></trkpt><trkpt lat="45.8295258" lon="12.2333624"><ele>72.0</ele><time>2026-05-02T07:54:46.879Z</time></trkpt><trkpt lat="45.8295759" lon="12.2331721"><ele>72.0</ele><time>2026-05-02T07:54:47.88Z</time></trkpt><trkpt lat="45.8296262" lon="12.2329801"><ele>72.0</ele><time>2026-05-02T07:54:48.88Z</time></trkpt><trkpt lat="45.8296756" lon="12.2327844"><ele>72.5</ele><time>2026-05-02T07:54:49.88Z</time></trkpt><trkpt lat="45.8297243" lon="12.2325886"><ele>73.0</ele><time>2026-05-02T07:54:50.88Z</time></trkpt><trkpt lat="45.8297755" lon="12.2323911"><ele>73.5</ele><time>2026-05-02T07:54:51.881Z</time></trkpt><trkpt lat="45.8298257" lon="12.2321978"><ele>74.0</ele><time>2026-05-02T07:54:52.881Z</time></trkpt><trkpt lat="45.8298695" lon="12.2320153"><ele>74.0</ele><time>2026-05-02T07:54:53.88Z</time></trkpt><trkpt lat="45.8299032" lon="12.2318347"><ele>74.0</ele><time>2026-05-02T07:54:54.88Z</time></trkpt><trkpt lat="45.8299484" lon="12.231643"><ele>74.0</ele><time>2026-05-02T07:54:55.881Z</time></trkpt><trkpt lat="45.8300036" lon="12.2314391"><ele>74.0</ele><time>2026-05-02T07:54:56.88Z</time></trkpt><trkpt lat="45.8300629" lon="12.231202"><ele>74.0</ele><time>2026-05-02T07:54:57.88Z</time></trkpt><trkpt lat="45.8301258" lon="12.2309529"><ele>74.0</ele><time>2026-05-02T07:54:58.88Z</time></trkpt><trkpt lat="45.8301924" lon="12.230694"><ele>74.0</ele><time>2026-05-02T07:54:59.88Z</time></trkpt><trkpt lat="45.8302533" lon="12.2304562"><ele>73.66666666666667</ele><time>2026-05-02T07:55:00.88Z</time></trkpt><trkpt lat="45.8303086" lon="12.2302409"><ele>73.33333333333333</ele><time>2026-05-02T07:55:01.88Z</time></trkpt><trkpt lat="45.8303616" lon="12.2300431"><ele>73.0</ele><time>2026-05-02T07:55:02.88Z</time></trkpt><trkpt lat="45.8304152" lon="12.2298484"><ele>73.75</ele><time>2026-05-02T07:55:03.88Z</time></trkpt><trkpt lat="45.8304647" lon="12.2296623"><ele>74.5</ele><time>2026-05-02T07:55:04.881Z</time></trkpt><trkpt lat="45.8305139" lon="12.2294714"><ele>75.25</ele><time>2026-05-02T07:55:05.881Z</time></trkpt><trkpt lat="45.8305633" lon="12.2292801"><ele>76.0</ele><time>2026-05-02T07:55:06.88Z</time></trkpt><trkpt lat="45.8306133" lon="12.2290936"><ele>76.0</ele><time>2026-05-02T07:55:07.88Z</time></trkpt><trkpt lat="45.8306613" lon="12.2289093"><ele>76.0</ele><time>2026-05-02T07:55:08.881Z</time></trkpt><trkpt lat="45.8307074" lon="12.2287332"><ele>76.0</ele><time>2026-05-02T07:55:09.881Z</time></trkpt><trkpt lat="45.8307533" lon="12.2285598"><ele>76.0</ele><time>2026-05-02T07:55:10.88Z</time></trkpt><trkpt lat="45.830803" lon="12.22838"><ele>76.0</ele><time>2026-05-02T07:55:11.88Z</time></trkpt><trkpt lat="45.8308567" lon="12.2281971"><ele>76.0</ele><time>2026-05-02T07:55:12.88Z</time></trkpt><trkpt lat="45.8309244" lon="12.2280189"><ele>76.0</ele><time>2026-05-02T07:55:13.881Z</time></trkpt><trkpt lat="45.8310098" lon="12.2278518"><ele>76.0</ele><time>2026-05-02T07:55:14.881Z</time></trkpt><trkpt lat="45.8311072" lon="12.2276936"><ele>76.0</ele><time>2026-05-02T07:55:15.88Z</time></trkpt><trkpt lat="45.8312126" lon="12.2275363"><ele>76.0</ele><time>2026-05-02T07:55:16.88Z</time></trkpt><trkpt lat="45.8313225" lon="12.227376"><ele>76.0</ele><time>2026-05-02T07:55:17.881Z</time></trkpt><trkpt lat="45.8314322" lon="12.2272171"><ele>76.0</ele><time>2026-05-02T07:55:18.881Z</time></trkpt><trkpt lat="45.8315392" lon="12.227066"><ele>76.0</ele><time>2026-05-02T07:55:19.881Z</time></trkpt><trkpt lat="45.8316392" lon="12.2269288"><ele>76.0</ele><time>2026-05-02T07:55:20.881Z</time></trkpt><trkpt lat="45.8317318" lon="12.226802"><ele>76.0</ele><time>2026-05-02T07:55:21.88Z</time></trkpt><trkpt lat="45.8318161" lon="12.2266851"><ele>76.0</ele><time>2026-05-02T07:55:22.88Z</time></trkpt><trkpt lat="45.8318913" lon="12.2265786"><ele>76.0</ele><time>2026-05-02T07:55:23.881Z</time></trkpt><trkpt lat="45.8319633" lon="12.2264772"><ele>76.0</ele><time>2026-05-02T07:55:24.88Z</time></trkpt><trkpt lat="45.8320359" lon="12.2263768"><ele>76.0</ele><time>2026-05-02T07:55:25.881Z</time></trkpt><trkpt lat="45.8321102" lon="12.2262727"><ele>76.0</ele><time>2026-05-02T07:55:26.881Z</time></trkpt><trkpt lat="45.8321862" lon="12.2261657"><ele>76.0</ele><time>2026-05-02T07:55:27.881Z</time></trkpt><trkpt lat="45.8322666" lon="12.226051"><ele>76.0</ele><time>2026-05-02T07:55:28.881Z</time></trkpt><trkpt lat="45.832349" lon="12.2259324"><ele>76.0</ele><time>2026-05-02T07:55:29.88Z</time></trkpt><trkpt lat="45.8324356" lon="12.2258097"><ele>76.0</ele><time>2026-05-02T07:55:30.881Z</time></trkpt><trkpt lat="45.8325169" lon="12.2256966"><ele>76.0</ele><time>2026-05-02T07:55:31.88Z</time></trkpt><trkpt lat="45.8325888" lon="12.2255952"><ele>76.0</ele><time>2026-05-02T07:55:32.88Z</time></trkpt><trkpt lat="45.8326529" lon="12.2255021"><ele>76.0</ele><time>2026-05-02T07:55:33.881Z</time></trkpt><trkpt lat="45.8327139" lon="12.2254135"><ele>76.0</ele><time>2026-05-02T07:55:34.88Z</time></trkpt><trkpt lat="45.8327748" lon="12.2253239"><ele>76.0</ele><time>2026-05-02T07:55:35.88Z</time></trkpt><trkpt lat="45.8328347" lon="12.2252402"><ele>76.0</ele><time>2026-05-02T07:55:36.881Z</time></trkpt><trkpt lat="45.8328922" lon="12.225158"><ele>76.0</ele><time>2026-05-02T07:55:37.88Z</time></trkpt><trkpt lat="45.8329519" lon="12.225076"><ele>76.0</ele><time>2026-05-02T07:55:38.881Z</time></trkpt><trkpt lat="45.8330156" lon="12.2249907"><ele>76.0</ele><time>2026-05-02T07:55:39.88Z</time></trkpt><trkpt lat="45.8330834" lon="12.2248934"><ele>76.0</ele><time>2026-05-02T07:55:40.88Z</time></trkpt><trkpt lat="45.8331569" lon="12.2247863"><ele>76.0</ele><time>2026-05-02T07:55:41.88Z</time></trkpt><trkpt lat="45.8332356" lon="12.2246719"><ele>76.0</ele><time>2026-05-02T07:55:42.88Z</time></trkpt><trkpt lat="45.8333153" lon="12.2245446"><ele>76.0</ele><time>2026-05-02T07:55:43.88Z</time></trkpt><trkpt lat="45.8333882" lon="12.2244025"><ele>76.0</ele><time>2026-05-02T07:55:44.881Z</time></trkpt><trkpt lat="45.8334565" lon="12.224253"><ele>76.25</ele><time>2026-05-02T07:55:45.881Z</time></trkpt><trkpt lat="45.8335059" lon="12.2240831"><ele>76.5</ele><time>2026-05-02T07:55:46.881Z</time></trkpt><trkpt lat="45.8335446" lon="12.2239062"><ele>76.75</ele><time>2026-05-02T07:55:47.88Z</time></trkpt><trkpt lat="45.8335768" lon="12.2237294"><ele>77.0</ele><time>2026-05-02T07:55:48.881Z</time></trkpt><trkpt lat="45.8336073" lon="12.2235562"><ele>77.2</ele><time>2026-05-02T07:55:49.88Z</time></trkpt><trkpt lat="45.8336374" lon="12.2233863"><ele>77.4</ele><time>2026-05-02T07:55:50.881Z</time></trkpt><trkpt lat="45.8336639" lon="12.2232254"><ele>77.6</ele><time>2026-05-02T07:55:51.88Z</time></trkpt><trkpt lat="45.8336875" lon="12.2230818"><ele>77.8</ele><time>2026-05-02T07:55:52.88Z</time></trkpt><trkpt lat="45.8337098" lon="12.2229508"><ele>78.0</ele><time>2026-05-02T07:55:53.881Z</time></trkpt><trkpt lat="45.833732" lon="12.2228226"><ele>78.0</ele><time>2026-05-02T07:55:54.88Z</time></trkpt><trkpt lat="45.8337545" lon="12.2226948"><ele>78.0</ele><time>2026-05-02T07:55:55.881Z</time></trkpt><trkpt lat="45.8337754" lon="12.2225782"><ele>78.0</ele><time>2026-05-02T07:55:56.882Z</time></trkpt><trkpt lat="45.8337938" lon="12.2224688"><ele>78.0</ele><time>2026-05-02T07:55:57.881Z</time></trkpt><trkpt lat="45.8338129" lon="12.2223524"><ele>78.0</ele><time>2026-05-02T07:55:58.882Z</time></trkpt><trkpt lat="45.8338338" lon="12.2222229"><ele>78.0</ele><time>2026-05-02T07:55:59.881Z</time></trkpt><trkpt lat="45.8338559" lon="12.2220843"><ele>78.0</ele><time>2026-05-02T07:56:00.882Z</time></trkpt><trkpt lat="45.8338772" lon="12.2219439"><ele>78.0</ele><time>2026-05-02T07:56:01.882Z</time></trkpt><trkpt lat="45.8338932" lon="12.2217941"><ele>78.0</ele><time>2026-05-02T07:56:02.882Z</time></trkpt><trkpt lat="45.8339066" lon="12.2216349"><ele>78.0</ele><time>2026-05-02T07:56:03.881Z</time></trkpt><trkpt lat="45.8339106" lon="12.2214725"><ele>78.0</ele><time>2026-05-02T07:56:04.882Z</time></trkpt><trkpt lat="45.8339142" lon="12.2213072"><ele>78.5</ele><time>2026-05-02T07:56:05.882Z</time></trkpt><trkpt lat="45.8339205" lon="12.2211424"><ele>79.0</ele><time>2026-05-02T07:56:06.882Z</time></trkpt><trkpt lat="45.8339295" lon="12.2209751"><ele>79.5</ele><time>2026-05-02T07:56:07.882Z</time></trkpt><trkpt lat="45.8339429" lon="12.2207948"><ele>80.0</ele><time>2026-05-02T07:56:08.882Z</time></trkpt><trkpt lat="45.8339579" lon="12.2206089"><ele>80.0</ele><time>2026-05-02T07:56:09.882Z</time></trkpt><trkpt lat="45.8339819" lon="12.2204049"><ele>80.0</ele><time>2026-05-02T07:56:10.881Z</time></trkpt><trkpt lat="45.8340106" lon="12.2201993"><ele>80.0</ele><time>2026-05-02T07:56:11.882Z</time></trkpt><trkpt lat="45.8340347" lon="12.2199906"><ele>80.0</ele><time>2026-05-02T07:56:12.881Z</time></trkpt><trkpt lat="45.8340549" lon="12.2197741"><ele>79.66666666666667</ele><time>2026-05-02T07:56:13.881Z</time></trkpt><trkpt lat="45.8340742" lon="12.2195483"><ele>79.33333333333333</ele><time>2026-05-02T07:56:14.881Z</time></trkpt><trkpt lat="45.8340956" lon="12.2193168"><ele>79.0</ele><time>2026-05-02T07:56:15.881Z</time></trkpt><trkpt lat="45.8341171" lon="12.2190868"><ele>78.75</ele><time>2026-05-02T07:56:16.882Z</time></trkpt><trkpt lat="45.8341357" lon="12.2188733"><ele>78.5</ele><time>2026-05-02T07:56:17.882Z</time></trkpt><trkpt lat="45.8341546" lon="12.2186734"><ele>78.25</ele><time>2026-05-02T07:56:18.881Z</time></trkpt><trkpt lat="45.8341717" lon="12.2184955"><ele>78.0</ele><time>2026-05-02T07:56:19.882Z</time></trkpt><trkpt lat="45.8341872" lon="12.2183237"><ele>78.0</ele><time>2026-05-02T07:56:20.881Z</time></trkpt><trkpt lat="45.8342019" lon="12.2181567"><ele>78.0</ele><time>2026-05-02T07:56:21.881Z</time></trkpt><trkpt lat="45.8342179" lon="12.2179879"><ele>78.0</ele><time>2026-05-02T07:56:22.881Z</time></trkpt><trkpt lat="45.8342331" lon="12.2178116"><ele>78.0</ele><time>2026-05-02T07:56:23.881Z</time></trkpt><trkpt lat="45.834249" lon="12.2176355"><ele>78.0</ele><time>2026-05-02T07:56:24.882Z</time></trkpt><trkpt lat="45.8342648" lon="12.2174565"><ele>78.0</ele><time>2026-05-02T07:56:25.881Z</time></trkpt><trkpt lat="45.8342811" lon="12.2172805"><ele>78.0</ele><time>2026-05-02T07:56:26.882Z</time></trkpt><trkpt lat="45.8342959" lon="12.2171027"><ele>78.0</ele><time>2026-05-02T07:56:27.882Z</time></trkpt><trkpt lat="45.8343117" lon="12.2169245"><ele>78.0</ele><time>2026-05-02T07:56:28.881Z</time></trkpt><trkpt lat="45.834329" lon="12.216744"><ele>78.0</ele><time>2026-05-02T07:56:29.882Z</time></trkpt><trkpt lat="45.8343448" lon="12.2165726"><ele>78.0</ele><time>2026-05-02T07:56:30.882Z</time></trkpt><trkpt lat="45.8343581" lon="12.2164029"><ele>78.0</ele><time>2026-05-02T07:56:31.882Z</time></trkpt><trkpt lat="45.8343722" lon="12.2162281"><ele>78.25</ele><time>2026-05-02T07:56:32.882Z</time></trkpt><trkpt lat="45.8343867" lon="12.2160529"><ele>78.5</ele><time>2026-05-02T07:56:33.881Z</time></trkpt><trkpt lat="45.8343984" lon="12.2158838"><ele>78.75</ele><time>2026-05-02T07:56:34.882Z</time></trkpt><trkpt lat="45.8344081" lon="12.2157213"><ele>79.0</ele><time>2026-05-02T07:56:35.881Z</time></trkpt><trkpt lat="45.8344172" lon="12.2155715"><ele>79.2</ele><time>2026-05-02T07:56:36.881Z</time></trkpt><trkpt lat="45.834426" lon="12.2154239"><ele>79.4</ele><time>2026-05-02T07:56:37.882Z</time></trkpt><trkpt lat="45.8344335" lon="12.2152791"><ele>79.6</ele><time>2026-05-02T07:56:38.882Z</time></trkpt><trkpt lat="45.8344411" lon="12.2151318"><ele>79.8</ele><time>2026-05-02T07:56:39.882Z</time></trkpt><trkpt lat="45.834448" lon="12.2149812"><ele>80.0</ele><time>2026-05-02T07:56:40.881Z</time></trkpt><trkpt lat="45.834455" lon="12.2148209"><ele>80.25</ele><time>2026-05-02T07:56:41.881Z</time></trkpt><trkpt lat="45.8344623" lon="12.2146531"><ele>80.5</ele><time>2026-05-02T07:56:42.882Z</time></trkpt><trkpt lat="45.8344697" lon="12.2144815"><ele>80.75</ele><time>2026-05-02T07:56:43.882Z</time></trkpt><trkpt lat="45.8344779" lon="12.2143087"><ele>81.0</ele><time>2026-05-02T07:56:44.882Z</time></trkpt><trkpt lat="45.8344891" lon="12.2141334"><ele>81.0</ele><time>2026-05-02T07:56:45.882Z</time></trkpt><trkpt lat="45.8344981" lon="12.2139622"><ele>81.0</ele><time>2026-05-02T07:56:46.882Z</time></trkpt><trkpt lat="45.8345062" lon="12.2138026"><ele>81.0</ele><time>2026-05-02T07:56:47.881Z</time></trkpt><trkpt lat="45.8345165" lon="12.213642"><ele>81.0</ele><time>2026-05-02T07:56:48.881Z</time></trkpt><trkpt lat="45.8345292" lon="12.2134638"><ele>81.0</ele><time>2026-05-02T07:56:49.882Z</time></trkpt><trkpt lat="45.8345461" lon="12.2132731"><ele>81.0</ele><time>2026-05-02T07:56:50.881Z</time></trkpt><trkpt lat="45.8345677" lon="12.2130849"><ele>81.0</ele><time>2026-05-02T07:56:51.881Z</time></trkpt><trkpt lat="45.8345964" lon="12.2128928"><ele>81.0</ele><time>2026-05-02T07:56:52.882Z</time></trkpt><trkpt lat="45.8346257" lon="12.2126986"><ele>81.25</ele><time>2026-05-02T07:56:53.882Z</time></trkpt><trkpt lat="45.8346595" lon="12.2125018"><ele>81.5</ele><time>2026-05-02T07:56:54.883Z</time></trkpt><trkpt lat="45.8346954" lon="12.2123065"><ele>81.75</ele><time>2026-05-02T07:56:55.882Z</time></trkpt><trkpt lat="45.8347351" lon="12.2121117"><ele>82.0</ele><time>2026-05-02T07:56:56.882Z</time></trkpt><trkpt lat="45.8347726" lon="12.2119248"><ele>82.0</ele><time>2026-05-02T07:56:57.882Z</time></trkpt><trkpt lat="45.8348138" lon="12.21174"><ele>82.0</ele><time>2026-05-02T07:56:58.882Z</time></trkpt><trkpt lat="45.8348599" lon="12.2115506"><ele>82.0</ele><time>2026-05-02T07:56:59.882Z</time></trkpt><trkpt lat="45.8349086" lon="12.2113563"><ele>82.0</ele><time>2026-05-02T07:57:00.883Z</time></trkpt><trkpt lat="45.8349691" lon="12.2111543"><ele>82.0</ele><time>2026-05-02T07:57:01.882Z</time></trkpt><trkpt lat="45.8350415" lon="12.2109528"><ele>82.0</ele><time>2026-05-02T07:57:02.883Z</time></trkpt><trkpt lat="45.8351157" lon="12.2107499"><ele>82.0</ele><time>2026-05-02T07:57:03.883Z</time></trkpt><trkpt lat="45.8351923" lon="12.2105522"><ele>83.33333333333333</ele><time>2026-05-02T07:57:04.883Z</time></trkpt><trkpt lat="45.8352711" lon="12.2103546"><ele>84.66666666666667</ele><time>2026-05-02T07:57:05.882Z</time></trkpt><trkpt lat="45.8353481" lon="12.2101542"><ele>86.0</ele><time>2026-05-02T07:57:06.883Z</time></trkpt><trkpt lat="45.8354224" lon="12.2099434"><ele>85.66666666666667</ele><time>2026-05-02T07:57:07.883Z</time></trkpt><trkpt lat="45.8354904" lon="12.2097247"><ele>85.33333333333333</ele><time>2026-05-02T07:57:08.882Z</time></trkpt><trkpt lat="45.8355507" lon="12.2095029"><ele>85.0</ele><time>2026-05-02T07:57:09.882Z</time></trkpt><trkpt lat="45.8356086" lon="12.2092863"><ele>85.0</ele><time>2026-05-02T07:57:10.883Z</time></trkpt><trkpt lat="45.8356695" lon="12.2090685"><ele>85.0</ele><time>2026-05-02T07:57:11.882Z</time></trkpt><trkpt lat="45.8357467" lon="12.2088493"><ele>85.0</ele><time>2026-05-02T07:57:12.882Z</time></trkpt><trkpt lat="45.8358417" lon="12.2086419"><ele>85.0</ele><time>2026-05-02T07:57:13.883Z</time></trkpt><trkpt lat="45.8359404" lon="12.2084383"><ele>85.0</ele><time>2026-05-02T07:57:14.882Z</time></trkpt><trkpt lat="45.8360497" lon="12.2082438"><ele>85.0</ele><time>2026-05-02T07:57:15.883Z</time></trkpt><trkpt lat="45.8361643" lon="12.2080602"><ele>85.0</ele><time>2026-05-02T07:57:16.883Z</time></trkpt><trkpt lat="45.8362729" lon="12.2078831"><ele>85.0</ele><time>2026-05-02T07:57:17.883Z</time></trkpt><trkpt lat="45.8363798" lon="12.2077128"><ele>85.0</ele><time>2026-05-02T07:57:18.882Z</time></trkpt><trkpt lat="45.8364872" lon="12.2075572"><ele>85.0</ele><time>2026-05-02T07:57:19.883Z</time></trkpt><trkpt lat="45.8365994" lon="12.2074128"><ele>85.0</ele><time>2026-05-02T07:57:20.882Z</time></trkpt><trkpt lat="45.8367138" lon="12.207284"><ele>85.0</ele><time>2026-05-02T07:57:21.882Z</time></trkpt><trkpt lat="45.8368339" lon="12.2071771"><ele>85.0</ele><time>2026-05-02T07:57:22.882Z</time></trkpt><trkpt lat="45.8369639" lon="12.2070866"><ele>84.33333333333333</ele><time>2026-05-02T07:57:23.883Z</time></trkpt><trkpt lat="45.8371105" lon="12.2070098"><ele>83.66666666666667</ele><time>2026-05-02T07:57:24.883Z</time></trkpt><trkpt lat="45.837256" lon="12.2069221"><ele>83.0</ele><time>2026-05-02T07:57:25.883Z</time></trkpt><trkpt lat="45.8374053" lon="12.2068272"><ele>83.0</ele><time>2026-05-02T07:57:26.883Z</time></trkpt><trkpt lat="45.8375572" lon="12.2067378"><ele>83.0</ele><time>2026-05-02T07:57:27.883Z</time></trkpt><trkpt lat="45.8377129" lon="12.2066453"><ele>83.0</ele><time>2026-05-02T07:57:28.883Z</time></trkpt><trkpt lat="45.8378723" lon="12.2065484"><ele>83.66666666666667</ele><time>2026-05-02T07:57:29.882Z</time></trkpt><trkpt lat="45.8380328" lon="12.2064525"><ele>84.33333333333333</ele><time>2026-05-02T07:57:30.883Z</time></trkpt><trkpt lat="45.8381973" lon="12.2063638"><ele>85.0</ele><time>2026-05-02T07:57:31.882Z</time></trkpt><trkpt lat="45.8383622" lon="12.2062743"><ele>88.0</ele><time>2026-05-02T07:57:32.882Z</time></trkpt><trkpt lat="45.8385217" lon="12.206177"><ele>91.0</ele><time>2026-05-02T07:57:33.882Z</time></trkpt><trkpt lat="45.8386853" lon="12.2060771"><ele>94.0</ele><time>2026-05-02T07:57:34.883Z</time></trkpt><trkpt lat="45.8388515" lon="12.2059755"><ele>94.0</ele><time>2026-05-02T07:57:35.883Z</time></trkpt><trkpt lat="45.8390077" lon="12.2058811"><ele>94.0</ele><time>2026-05-02T07:57:36.882Z</time></trkpt><trkpt lat="45.8391559" lon="12.2057897"><ele>94.0</ele><time>2026-05-02T07:57:37.882Z</time></trkpt><trkpt lat="45.8393122" lon="12.2057018"><ele>95.25</ele><time>2026-05-02T07:57:38.882Z</time></trkpt><trkpt lat="45.8394534" lon="12.2056192"><ele>96.5</ele><time>2026-05-02T07:57:39.883Z</time></trkpt><trkpt lat="45.8395857" lon="12.2055409"><ele>97.75</ele><time>2026-05-02T07:57:40.882Z</time></trkpt><trkpt lat="45.8397081" lon="12.2054608"><ele>99.0</ele><time>2026-05-02T07:57:41.882Z</time></trkpt><trkpt lat="45.8398227" lon="12.2053888"><ele>99.0</ele><time>2026-05-02T07:57:42.882Z</time></trkpt><trkpt lat="45.8399461" lon="12.205312"><ele>99.0</ele><time>2026-05-02T07:57:43.882Z</time></trkpt><trkpt lat="45.8400787" lon="12.2052724"><ele>99.0</ele><time>2026-05-02T07:57:44.883Z</time></trkpt><trkpt lat="45.8402215" lon="12.2052633"><ele>99.0</ele><time>2026-05-02T07:57:45.883Z</time></trkpt><trkpt lat="45.8403664" lon="12.2052863"><ele>98.75</ele><time>2026-05-02T07:57:46.883Z</time></trkpt><trkpt lat="45.8405146" lon="12.2053341"><ele>98.5</ele><time>2026-05-02T07:57:47.883Z</time></trkpt><trkpt lat="45.8406572" lon="12.2053767"><ele>98.25</ele><time>2026-05-02T07:57:48.883Z</time></trkpt><trkpt lat="45.8407988" lon="12.2054117"><ele>98.0</ele><time>2026-05-02T07:57:49.883Z</time></trkpt><trkpt lat="45.8409412" lon="12.2054204"><ele>98.0</ele><time>2026-05-02T07:57:50.882Z</time></trkpt><trkpt lat="45.8410918" lon="12.2054002"><ele>98.0</ele><time>2026-05-02T07:57:51.883Z</time></trkpt><trkpt lat="45.8412472" lon="12.2053493"><ele>98.0</ele><time>2026-05-02T07:57:52.883Z</time></trkpt><trkpt lat="45.8414105" lon="12.2052735"><ele>98.0</ele><time>2026-05-02T07:57:53.882Z</time></trkpt><trkpt lat="45.8415809" lon="12.2051854"><ele>98.0</ele><time>2026-05-02T07:57:54.882Z</time></trkpt><trkpt lat="45.8417426" lon="12.2050842"><ele>98.0</ele><time>2026-05-02T07:57:55.883Z</time></trkpt><trkpt lat="45.8418961" lon="12.2049963"><ele>99.0</ele><time>2026-05-02T07:57:56.883Z</time></trkpt><trkpt lat="45.8420453" lon="12.2049125"><ele>100.0</ele><time>2026-05-02T07:57:57.883Z</time></trkpt><trkpt lat="45.8421958" lon="12.2048222"><ele>101.0</ele><time>2026-05-02T07:57:58.882Z</time></trkpt><trkpt lat="45.8423538" lon="12.2047306"><ele>101.66666666666666</ele><time>2026-05-02T07:57:59.883Z</time></trkpt><trkpt lat="45.8425092" lon="12.2046348"><ele>102.33333333333334</ele><time>2026-05-02T07:58:00.884Z</time></trkpt><trkpt lat="45.8426644" lon="12.2045454"><ele>103.0</ele><time>2026-05-02T07:58:01.883Z</time></trkpt><trkpt lat="45.8428104" lon="12.2044475"><ele>103.33333333333334</ele><time>2026-05-02T07:58:02.884Z</time></trkpt><trkpt lat="45.8429474" lon="12.2043403"><ele>103.66666666666666</ele><time>2026-05-02T07:58:03.884Z</time></trkpt><trkpt lat="45.8430803" lon="12.2042085"><ele>104.0</ele><time>2026-05-02T07:58:04.883Z</time></trkpt><trkpt lat="45.8432221" lon="12.2040691"><ele>104.33333333333333</ele><time>2026-05-02T07:58:05.884Z</time></trkpt><trkpt lat="45.8433616" lon="12.2039233"><ele>104.66666666666666</ele><time>2026-05-02T07:58:06.884Z</time></trkpt><trkpt lat="45.8434987" lon="12.2037804"><ele>105.0</ele><time>2026-05-02T07:58:07.883Z</time></trkpt><trkpt lat="45.8436308" lon="12.2036336"><ele>104.0</ele><time>2026-05-02T07:58:08.883Z</time></trkpt><trkpt lat="45.8437456" lon="12.2034965"><ele>103.0</ele><time>2026-05-02T07:58:09.883Z</time></trkpt><trkpt lat="45.8438632" lon="12.2033519"><ele>102.0</ele><time>2026-05-02T07:58:10.883Z</time></trkpt><trkpt lat="45.8439821" lon="12.2032097"><ele>102.33333333333334</ele><time>2026-05-02T07:58:11.883Z</time></trkpt><trkpt lat="45.8441032" lon="12.2030558"><ele>102.66666666666667</ele><time>2026-05-02T07:58:12.884Z</time></trkpt><trkpt lat="45.8442185" lon="12.2029217"><ele>103.0</ele><time>2026-05-02T07:58:13.884Z</time></trkpt><trkpt lat="45.8443496" lon="12.2027763"><ele>103.33333333333334</ele><time>2026-05-02T07:58:14.884Z</time></trkpt><trkpt lat="45.8444789" lon="12.2026327"><ele>103.66666666666666</ele><time>2026-05-02T07:58:15.883Z</time></trkpt><trkpt lat="45.8446138" lon="12.2024881"><ele>104.0</ele><time>2026-05-02T07:58:16.883Z</time></trkpt><trkpt lat="45.84475" lon="12.2023298"><ele>103.66666666666666</ele><time>2026-05-02T07:58:17.883Z</time></trkpt><trkpt lat="45.8448977" lon="12.2021643"><ele>103.33333333333334</ele><time>2026-05-02T07:58:18.883Z</time></trkpt><trkpt lat="45.8450577" lon="12.2019768"><ele>103.0</ele><time>2026-05-02T07:58:19.884Z</time></trkpt><trkpt lat="45.8452292" lon="12.2017721"><ele>103.0</ele><time>2026-05-02T07:58:20.883Z</time></trkpt><trkpt lat="45.8454115" lon="12.2015448"><ele>103.0</ele><time>2026-05-02T07:58:21.884Z</time></trkpt><trkpt lat="45.8456057" lon="12.2013046"><ele>103.5</ele><time>2026-05-02T07:58:22.884Z</time></trkpt><trkpt lat="45.8458001" lon="12.2010976"><ele>104.0</ele><time>2026-05-02T07:58:23.884Z</time></trkpt><trkpt lat="45.8459879" lon="12.2009242"><ele>104.0</ele><time>2026-05-02T07:58:24.884Z</time></trkpt><trkpt lat="45.8461616" lon="12.2007481"><ele>104.0</ele><time>2026-05-02T07:58:25.884Z</time></trkpt><trkpt lat="45.846318" lon="12.200566"><ele>104.0</ele><time>2026-05-02T07:58:26.883Z</time></trkpt><trkpt lat="45.8464662" lon="12.2003841"><ele>104.33333333333333</ele><time>2026-05-02T07:58:27.884Z</time></trkpt><trkpt lat="45.8466104" lon="12.2002151"><ele>104.66666666666666</ele><time>2026-05-02T07:58:28.883Z</time></trkpt><trkpt lat="45.8467564" lon="12.2000523"><ele>105.0</ele><time>2026-05-02T07:58:29.883Z</time></trkpt><trkpt lat="45.8468994" lon="12.199896"><ele>106.0</ele><time>2026-05-02T07:58:30.884Z</time></trkpt><trkpt lat="45.8470372" lon="12.1997451"><ele>107.0</ele><time>2026-05-02T07:58:31.883Z</time></trkpt><trkpt lat="45.8471657" lon="12.1995759"><ele>108.0</ele><time>2026-05-02T07:58:32.884Z</time></trkpt><trkpt lat="45.8472786" lon="12.1993885"><ele>108.0</ele><time>2026-05-02T07:58:33.883Z</time></trkpt><trkpt lat="45.847371" lon="12.1991742"><ele>108.0</ele><time>2026-05-02T07:58:34.884Z</time></trkpt><trkpt lat="45.8474402" lon="12.1989395"><ele>108.0</ele><time>2026-05-02T07:58:35.883Z</time></trkpt><trkpt lat="45.8474929" lon="12.1986863"><ele>108.0</ele><time>2026-05-02T07:58:36.884Z</time></trkpt><trkpt lat="45.8475415" lon="12.1984234"><ele>108.0</ele><time>2026-05-02T07:58:37.884Z</time></trkpt><trkpt lat="45.8475884" lon="12.1981649"><ele>108.0</ele><time>2026-05-02T07:58:38.884Z</time></trkpt><trkpt lat="45.8476337" lon="12.1979347"><ele>108.66666666666666</ele><time>2026-05-02T07:58:39.884Z</time></trkpt><trkpt lat="45.847679" lon="12.1977085"><ele>109.33333333333333</ele><time>2026-05-02T07:58:40.884Z</time></trkpt><trkpt lat="45.8477269" lon="12.1974778"><ele>110.0</ele><time>2026-05-02T07:58:41.883Z</time></trkpt><trkpt lat="45.8477648" lon="12.1972475"><ele>108.66666666666666</ele><time>2026-05-02T07:58:42.883Z</time></trkpt><trkpt lat="45.8478065" lon="12.197016"><ele>107.33333333333334</ele><time>2026-05-02T07:58:43.883Z</time></trkpt><trkpt lat="45.8478488" lon="12.1967853"><ele>106.0</ele><time>2026-05-02T07:58:44.883Z</time></trkpt><trkpt lat="45.8478959" lon="12.196559"><ele>105.0</ele><time>2026-05-02T07:58:45.884Z</time></trkpt><trkpt lat="45.8479482" lon="12.1963344"><ele>104.0</ele><time>2026-05-02T07:58:46.883Z</time></trkpt><trkpt lat="45.8480107" lon="12.1961071"><ele>103.0</ele><time>2026-05-02T07:58:47.883Z</time></trkpt><trkpt lat="45.8480819" lon="12.1958877"><ele>103.0</ele><time>2026-05-02T07:58:48.883Z</time></trkpt><trkpt lat="45.8481721" lon="12.19568"><ele>103.0</ele><time>2026-05-02T07:58:49.883Z</time></trkpt><trkpt lat="45.8482917" lon="12.1954963"><ele>103.0</ele><time>2026-05-02T07:58:50.883Z</time></trkpt><trkpt lat="45.84843" lon="12.1953285"><ele>104.0</ele><time>2026-05-02T07:58:51.884Z</time></trkpt><trkpt lat="45.8485818" lon="12.1951929"><ele>105.0</ele><time>2026-05-02T07:58:52.883Z</time></trkpt><trkpt lat="45.8487399" lon="12.1950672"><ele>106.0</ele><time>2026-05-02T07:58:53.883Z</time></trkpt><trkpt lat="45.8489098" lon="12.194965"><ele>106.0</ele><time>2026-05-02T07:58:54.883Z</time></trkpt><trkpt lat="45.8490688" lon="12.1948725"><ele>106.0</ele><time>2026-05-02T07:58:55.883Z</time></trkpt><trkpt lat="45.8492204" lon="12.1947845"><ele>106.0</ele><time>2026-05-02T07:58:56.883Z</time></trkpt><trkpt lat="45.8493792" lon="12.1946906"><ele>103.66666666666667</ele><time>2026-05-02T07:58:57.883Z</time></trkpt><trkpt lat="45.8495372" lon="12.1946071"><ele>101.33333333333334</ele><time>2026-05-02T07:58:58.883Z</time></trkpt><trkpt lat="45.8496951" lon="12.1945222"><ele>99.0</ele><time>2026-05-02T07:58:59.884Z</time></trkpt><trkpt lat="45.8498426" lon="12.1944276"><ele>99.0</ele><time>2026-05-02T07:59:00.883Z</time></trkpt><trkpt lat="45.8499847" lon="12.1943163"><ele>99.0</ele><time>2026-05-02T07:59:01.883Z</time></trkpt><trkpt lat="45.8501193" lon="12.1941827"><ele>99.0</ele><time>2026-05-02T07:59:02.884Z</time></trkpt><trkpt lat="45.8502461" lon="12.1940247"><ele>102.66666666666666</ele><time>2026-05-02T07:59:03.883Z</time></trkpt><trkpt lat="45.8503588" lon="12.1938333"><ele>106.33333333333333</ele><time>2026-05-02T07:59:04.884Z</time></trkpt><trkpt lat="45.8504629" lon="12.1936259"><ele>110.0</ele><time>2026-05-02T07:59:05.885Z</time></trkpt><trkpt lat="45.8505592" lon="12.1934147"><ele>110.0</ele><time>2026-05-02T07:59:06.885Z</time></trkpt><trkpt lat="45.8506501" lon="12.1932174"><ele>110.0</ele><time>2026-05-02T07:59:07.885Z</time></trkpt><trkpt lat="45.8507355" lon="12.1930402"><ele>110.0</ele><time>2026-05-02T07:59:08.885Z</time></trkpt><trkpt lat="45.850815" lon="12.1928627"><ele>110.66666666666666</ele><time>2026-05-02T07:59:09.885Z</time></trkpt><trkpt lat="45.8509012" lon="12.1926836"><ele>111.33333333333334</ele><time>2026-05-02T07:59:10.885Z</time></trkpt><trkpt lat="45.850992" lon="12.1925012"><ele>112.0</ele><time>2026-05-02T07:59:11.884Z</time></trkpt><trkpt lat="45.8510898" lon="12.1923225"><ele>112.0</ele><time>2026-05-02T07:59:12.884Z</time></trkpt><trkpt lat="45.8511963" lon="12.192146"><ele>112.0</ele><time>2026-05-02T07:59:13.884Z</time></trkpt><trkpt lat="45.8513174" lon="12.1919945"><ele>112.0</ele><time>2026-05-02T07:59:14.885Z</time></trkpt><trkpt lat="45.851444" lon="12.1918625"><ele>112.0</ele><time>2026-05-02T07:59:15.885Z</time></trkpt><trkpt lat="45.8515808" lon="12.1917515"><ele>112.0</ele><time>2026-05-02T07:59:16.884Z</time></trkpt><trkpt lat="45.8517216" lon="12.1916402"><ele>112.0</ele><time>2026-05-02T07:59:17.884Z</time></trkpt><trkpt lat="45.8518633" lon="12.1915289"><ele>111.0</ele><time>2026-05-02T07:59:18.885Z</time></trkpt><trkpt lat="45.852017" lon="12.1914169"><ele>110.0</ele><time>2026-05-02T07:59:19.884Z</time></trkpt><trkpt lat="45.852179" lon="12.1912986"><ele>109.0</ele><time>2026-05-02T07:59:20.884Z</time></trkpt><trkpt lat="45.8523468" lon="12.1911773"><ele>109.0</ele><time>2026-05-02T07:59:21.884Z</time></trkpt><trkpt lat="45.852518" lon="12.1910615"><ele>109.0</ele><time>2026-05-02T07:59:22.884Z</time></trkpt><trkpt lat="45.8526891" lon="12.1909436"><ele>109.0</ele><time>2026-05-02T07:59:23.884Z</time></trkpt><trkpt lat="45.8528602" lon="12.1908214"><ele>109.0</ele><time>2026-05-02T07:59:24.885Z</time></trkpt><trkpt lat="45.8530281" lon="12.190701"><ele>109.0</ele><time>2026-05-02T07:59:25.884Z</time></trkpt><trkpt lat="45.853202" lon="12.1905793"><ele>109.0</ele><time>2026-05-02T07:59:26.884Z</time></trkpt><trkpt lat="45.8533657" lon="12.1904581"><ele>109.66666666666667</ele><time>2026-05-02T07:59:27.885Z</time></trkpt><trkpt lat="45.8535323" lon="12.190341"><ele>110.33333333333334</ele><time>2026-05-02T07:59:28.884Z</time></trkpt><trkpt lat="45.8536932" lon="12.1902181"><ele>111.0</ele><time>2026-05-02T07:59:29.885Z</time></trkpt><trkpt lat="45.8538552" lon="12.1901082"><ele>111.0</ele><time>2026-05-02T07:59:30.885Z</time></trkpt><trkpt lat="45.8540196" lon="12.189993"><ele>111.0</ele><time>2026-05-02T07:59:31.885Z</time></trkpt><trkpt lat="45.8541817" lon="12.1898718"><ele>111.0</ele><time>2026-05-02T07:59:32.884Z</time></trkpt><trkpt lat="45.854351" lon="12.1897603"><ele>111.33333333333334</ele><time>2026-05-02T07:59:33.885Z</time></trkpt><trkpt lat="45.8545236" lon="12.1896404"><ele>111.66666666666667</ele><time>2026-05-02T07:59:34.885Z</time></trkpt><trkpt lat="45.8546927" lon="12.1895227"><ele>112.0</ele><time>2026-05-02T07:59:35.885Z</time></trkpt><trkpt lat="45.85486" lon="12.189401"><ele>112.0</ele><time>2026-05-02T07:59:36.885Z</time></trkpt><trkpt lat="45.855028" lon="12.1892819"><ele>112.0</ele><time>2026-05-02T07:59:37.884Z</time></trkpt><trkpt lat="45.8551904" lon="12.1891643"><ele>112.0</ele><time>2026-05-02T07:59:38.884Z</time></trkpt><trkpt lat="45.855351" lon="12.1890501"><ele>112.66666666666667</ele><time>2026-05-02T07:59:39.885Z</time></trkpt><trkpt lat="45.8554966" lon="12.1889517"><ele>113.33333333333334</ele><time>2026-05-02T07:59:40.885Z</time></trkpt><trkpt lat="45.8556288" lon="12.1888545"><ele>114.0</ele><time>2026-05-02T07:59:41.885Z</time></trkpt><trkpt lat="45.8557577" lon="12.1887619"><ele>114.0</ele><time>2026-05-02T07:59:42.885Z</time></trkpt><trkpt lat="45.8558917" lon="12.1886641"><ele>114.0</ele><time>2026-05-02T07:59:43.885Z</time></trkpt><trkpt lat="45.8560328" lon="12.1885672"><ele>114.0</ele><time>2026-05-02T07:59:44.884Z</time></trkpt><trkpt lat="45.8561769" lon="12.1884672"><ele>114.0</ele><time>2026-05-02T07:59:45.884Z</time></trkpt><trkpt lat="45.8563248" lon="12.188366"><ele>114.0</ele><time>2026-05-02T07:59:46.884Z</time></trkpt><trkpt lat="45.856479" lon="12.1882552"><ele>114.0</ele><time>2026-05-02T07:59:47.885Z</time></trkpt><trkpt lat="45.8566397" lon="12.1881429"><ele>113.66666666666666</ele><time>2026-05-02T07:59:48.885Z</time></trkpt><trkpt lat="45.8568015" lon="12.1880233"><ele>113.33333333333333</ele><time>2026-05-02T07:59:49.885Z</time></trkpt><trkpt lat="45.8569722" lon="12.1879046"><ele>113.0</ele><time>2026-05-02T07:59:50.884Z</time></trkpt><trkpt lat="45.8571385" lon="12.1877896"><ele>113.0</ele><time>2026-05-02T07:59:51.885Z</time></trkpt><trkpt lat="45.8572928" lon="12.1876777"><ele>113.0</ele><time>2026-05-02T07:59:52.885Z</time></trkpt><trkpt lat="45.8574402" lon="12.1875696"><ele>113.0</ele><time>2026-05-02T07:59:53.885Z</time></trkpt><trkpt lat="45.8575894" lon="12.18747"><ele>113.66666666666666</ele><time>2026-05-02T07:59:54.884Z</time></trkpt><trkpt lat="45.8577392" lon="12.1873627"><ele>114.33333333333334</ele><time>2026-05-02T07:59:55.884Z</time></trkpt><trkpt lat="45.8578873" lon="12.1872591"><ele>115.0</ele><time>2026-05-02T07:59:56.884Z</time></trkpt><trkpt lat="45.8580384" lon="12.1871551"><ele>115.0</ele><time>2026-05-02T07:59:57.885Z</time></trkpt><trkpt lat="45.8581935" lon="12.1870433"><ele>115.0</ele><time>2026-05-02T07:59:58.885Z</time></trkpt><trkpt lat="45.8583543" lon="12.1869306"><ele>115.0</ele><time>2026-05-02T07:59:59.884Z</time></trkpt><trkpt lat="45.8585161" lon="12.1868181"><ele>114.66666666666667</ele><time>2026-05-02T08:00:00.884Z</time></trkpt><trkpt lat="45.8586754" lon="12.186706"><ele>114.33333333333334</ele><time>2026-05-02T08:00:01.884Z</time></trkpt><trkpt lat="45.8588307" lon="12.1865983"><ele>114.0</ele><time>2026-05-02T08:00:02.884Z</time></trkpt><trkpt lat="45.8589792" lon="12.1864878"><ele>114.33333333333334</ele><time>2026-05-02T08:00:03.884Z</time></trkpt><trkpt lat="45.8591258" lon="12.1863804"><ele>114.66666666666667</ele><time>2026-05-02T08:00:04.885Z</time></trkpt><trkpt lat="45.8592779" lon="12.1862698"><ele>115.0</ele><time>2026-05-02T08:00:05.884Z</time></trkpt><trkpt lat="45.8594314" lon="12.186163"><ele>115.0</ele><time>2026-05-02T08:00:06.885Z</time></trkpt><trkpt lat="45.8595878" lon="12.1860546"><ele>115.0</ele><time>2026-05-02T08:00:07.885Z</time></trkpt><trkpt lat="45.859744" lon="12.185949"><ele>115.0</ele><time>2026-05-02T08:00:08.886Z</time></trkpt><trkpt lat="45.8598909" lon="12.1858468"><ele>115.0</ele><time>2026-05-02T08:00:09.885Z</time></trkpt><trkpt lat="45.8600342" lon="12.1857438"><ele>115.0</ele><time>2026-05-02T08:00:10.885Z</time></trkpt><trkpt lat="45.8601857" lon="12.1856381"><ele>115.0</ele><time>2026-05-02T08:00:11.885Z</time></trkpt><trkpt lat="45.8603464" lon="12.1855272"><ele>114.66666666666667</ele><time>2026-05-02T08:00:12.886Z</time></trkpt><trkpt lat="45.8604989" lon="12.1854141"><ele>114.33333333333334</ele><time>2026-05-02T08:00:13.886Z</time></trkpt><trkpt lat="45.8606373" lon="12.1853157"><ele>114.0</ele><time>2026-05-02T08:00:14.885Z</time></trkpt><trkpt lat="45.860762" lon="12.1852213"><ele>114.0</ele><time>2026-05-02T08:00:15.885Z</time></trkpt><trkpt lat="45.8608846" lon="12.1851341"><ele>114.0</ele><time>2026-05-02T08:00:16.885Z</time></trkpt><trkpt lat="45.861011" lon="12.1850487"><ele>114.0</ele><time>2026-05-02T08:00:17.886Z</time></trkpt><trkpt lat="45.8611393" lon="12.1849637"><ele>114.0</ele><time>2026-05-02T08:00:18.885Z</time></trkpt><trkpt lat="45.8612593" lon="12.1848773"><ele>112.75</ele><time>2026-05-02T08:00:19.885Z</time></trkpt><trkpt lat="45.8613757" lon="12.1847746"><ele>111.5</ele><time>2026-05-02T08:00:20.885Z</time></trkpt><trkpt lat="45.8614857" lon="12.18466"><ele>110.25</ele><time>2026-05-02T08:00:21.886Z</time></trkpt><trkpt lat="45.8615957" lon="12.184534"><ele>109.0</ele><time>2026-05-02T08:00:22.885Z</time></trkpt><trkpt lat="45.8617006" lon="12.184398"><ele>108.0</ele><time>2026-05-02T08:00:23.886Z</time></trkpt><trkpt lat="45.8618122" lon="12.184259"><ele>107.0</ele><time>2026-05-02T08:00:24.886Z</time></trkpt><trkpt lat="45.8619241" lon="12.1841041"><ele>106.0</ele><time>2026-05-02T08:00:25.886Z</time></trkpt><trkpt lat="45.8620413" lon="12.1839455"><ele>104.33333333333334</ele><time>2026-05-02T08:00:26.886Z</time></trkpt><trkpt lat="45.8621526" lon="12.1837983"><ele>102.66666666666666</ele><time>2026-05-02T08:00:27.885Z</time></trkpt><trkpt lat="45.862265" lon="12.1836553"><ele>101.0</ele><time>2026-05-02T08:00:28.885Z</time></trkpt><trkpt lat="45.8623797" lon="12.1835029"><ele>101.0</ele><time>2026-05-02T08:00:29.886Z</time></trkpt><trkpt lat="45.8624869" lon="12.1833544"><ele>101.0</ele><time>2026-05-02T08:00:30.885Z</time></trkpt><trkpt lat="45.862587" lon="12.1832186"><ele>101.0</ele><time>2026-05-02T08:00:31.885Z</time></trkpt><trkpt lat="45.8626865" lon="12.1830919"><ele>101.0</ele><time>2026-05-02T08:00:32.885Z</time></trkpt><trkpt lat="45.8627822" lon="12.1829683"><ele>99.5</ele><time>2026-05-02T08:00:33.885Z</time></trkpt><trkpt lat="45.8628792" lon="12.1828421"><ele>98.0</ele><time>2026-05-02T08:00:34.886Z</time></trkpt><trkpt lat="45.8629734" lon="12.1827173"><ele>96.5</ele><time>2026-05-02T08:00:35.886Z</time></trkpt><trkpt lat="45.8630694" lon="12.1825922"><ele>95.0</ele><time>2026-05-02T08:00:36.886Z</time></trkpt><trkpt lat="45.8631647" lon="12.1824658"><ele>94.5</ele><time>2026-05-02T08:00:37.886Z</time></trkpt><trkpt lat="45.8632621" lon="12.1823303"><ele>94.0</ele><time>2026-05-02T08:00:38.885Z</time></trkpt><trkpt lat="45.8633652" lon="12.1821927"><ele>93.5</ele><time>2026-05-02T08:00:39.885Z</time></trkpt><trkpt lat="45.8634668" lon="12.1820626"><ele>93.0</ele><time>2026-05-02T08:00:40.886Z</time></trkpt><trkpt lat="45.8635616" lon="12.1819343"><ele>93.75</ele><time>2026-05-02T08:00:41.886Z</time></trkpt><trkpt lat="45.8636494" lon="12.1818152"><ele>94.5</ele><time>2026-05-02T08:00:42.886Z</time></trkpt><trkpt lat="45.8637349" lon="12.1817007"><ele>95.25</ele><time>2026-05-02T08:00:43.886Z</time></trkpt><trkpt lat="45.8638227" lon="12.1815899"><ele>96.0</ele><time>2026-05-02T08:00:44.886Z</time></trkpt><trkpt lat="45.8639161" lon="12.1814656"><ele>96.0</ele><time>2026-05-02T08:00:45.886Z</time></trkpt><trkpt lat="45.8640111" lon="12.181335"><ele>96.0</ele><time>2026-05-02T08:00:46.885Z</time></trkpt><trkpt lat="45.864099" lon="12.1812179"><ele>96.0</ele><time>2026-05-02T08:00:47.886Z</time></trkpt><trkpt lat="45.8641802" lon="12.1811089"><ele>96.0</ele><time>2026-05-02T08:00:48.885Z</time></trkpt><trkpt lat="45.8642534" lon="12.1810091"><ele>96.28571428571428</ele><time>2026-05-02T08:00:49.886Z</time></trkpt><trkpt lat="45.8643203" lon="12.180919"><ele>96.57142857142857</ele><time>2026-05-02T08:00:50.885Z</time></trkpt><trkpt lat="45.864381" lon="12.1808416"><ele>96.85714285714286</ele><time>2026-05-02T08:00:51.885Z</time></trkpt><trkpt lat="45.8644342" lon="12.1807736"><ele>97.14285714285714</ele><time>2026-05-02T08:00:52.886Z</time></trkpt><trkpt lat="45.8644802" lon="12.1807112"><ele>97.42857142857143</ele><time>2026-05-02T08:00:53.886Z</time></trkpt><trkpt lat="45.8645267" lon="12.1806497"><ele>97.71428571428571</ele><time>2026-05-02T08:00:54.885Z</time></trkpt><trkpt lat="45.8645757" lon="12.1805848"><ele>98.0</ele><time>2026-05-02T08:00:55.886Z</time></trkpt><trkpt lat="45.8646237" lon="12.180523"><ele>98.66666666666666</ele><time>2026-05-02T08:00:56.886Z</time></trkpt><trkpt lat="45.8647038" lon="12.1804381"><ele>99.33333333333333</ele><time>2026-05-02T08:00:58.885Z</time></trkpt><trkpt lat="45.8647753" lon="12.1804024"><ele>100.0</ele><time>2026-05-02T08:01:01.885Z</time></trkpt><trkpt lat="45.8648422" lon="12.1803583"><ele>100.66666666666666</ele><time>2026-05-02T08:01:03.885Z</time></trkpt><trkpt lat="45.8648795" lon="12.1801963"><ele>101.33333333333333</ele><time>2026-05-02T08:01:05.886Z</time></trkpt><trkpt lat="45.8648527" lon="12.1800971"><ele>102.0</ele><time>2026-05-02T08:01:06.885Z</time></trkpt><trkpt lat="45.8648052" lon="12.1799861"><ele>103.5</ele><time>2026-05-02T08:01:07.885Z</time></trkpt><trkpt lat="45.8647544" lon="12.1798428"><ele>105.0</ele><time>2026-05-02T08:01:08.885Z</time></trkpt><trkpt lat="45.8647024" lon="12.1796805"><ele>106.5</ele><time>2026-05-02T08:01:09.885Z</time></trkpt><trkpt lat="45.8646588" lon="12.1794736"><ele>108.0</ele><time>2026-05-02T08:01:10.885Z</time></trkpt><trkpt lat="45.8645891" lon="12.1792616"><ele>108.0</ele><time>2026-05-02T08:01:11.886Z</time></trkpt><trkpt lat="45.8644891" lon="12.1790538"><ele>108.0</ele><time>2026-05-02T08:01:12.886Z</time></trkpt><trkpt lat="45.8643646" lon="12.1788591"><ele>108.0</ele><time>2026-05-02T08:01:13.886Z</time></trkpt><trkpt lat="45.8642243" lon="12.1786738"><ele>108.0</ele><time>2026-05-02T08:01:14.886Z</time></trkpt><trkpt lat="45.8640797" lon="12.1784868"><ele>108.0</ele><time>2026-05-02T08:01:15.887Z</time></trkpt><trkpt lat="45.8639274" lon="12.1783036"><ele>108.0</ele><time>2026-05-02T08:01:16.887Z</time></trkpt><trkpt lat="45.8637748" lon="12.178124"><ele>108.0</ele><time>2026-05-02T08:01:17.886Z</time></trkpt><trkpt lat="45.8636242" lon="12.177946"><ele>108.0</ele><time>2026-05-02T08:01:18.887Z</time></trkpt><trkpt lat="45.863476" lon="12.177771"><ele>108.0</ele><time>2026-05-02T08:01:19.886Z</time></trkpt><trkpt lat="45.8633308" lon="12.1775999"><ele>107.33333333333334</ele><time>2026-05-02T08:01:20.887Z</time></trkpt><trkpt lat="45.8631885" lon="12.1774324"><ele>106.66666666666667</ele><time>2026-05-02T08:01:21.886Z</time></trkpt><trkpt lat="45.8630528" lon="12.1772724"><ele>106.0</ele><time>2026-05-02T08:01:22.887Z</time></trkpt><trkpt lat="45.8629269" lon="12.1771218"><ele>106.0</ele><time>2026-05-02T08:01:23.887Z</time></trkpt><trkpt lat="45.8628105" lon="12.1769885"><ele>106.0</ele><time>2026-05-02T08:01:24.887Z</time></trkpt><trkpt lat="45.8626964" lon="12.1768527"><ele>106.0</ele><time>2026-05-02T08:01:25.887Z</time></trkpt><trkpt lat="45.862575" lon="12.1767104"><ele>106.0</ele><time>2026-05-02T08:01:26.887Z</time></trkpt><trkpt lat="45.8624534" lon="12.1765689"><ele>106.0</ele><time>2026-05-02T08:01:27.887Z</time></trkpt><trkpt lat="45.8623358" lon="12.1764263"><ele>106.0</ele><time>2026-05-02T08:01:28.886Z</time></trkpt><trkpt lat="45.8622156" lon="12.1762854"><ele>107.66666666666667</ele><time>2026-05-02T08:01:29.886Z</time></trkpt><trkpt lat="45.8620957" lon="12.1761316"><ele>109.33333333333334</ele><time>2026-05-02T08:01:30.887Z</time></trkpt><trkpt lat="45.8619799" lon="12.175962"><ele>111.0</ele><time>2026-05-02T08:01:31.886Z</time></trkpt><trkpt lat="45.8618719" lon="12.1757747"><ele>111.66666666666666</ele><time>2026-05-02T08:01:32.887Z</time></trkpt><trkpt lat="45.8617727" lon="12.1755705"><ele>112.33333333333333</ele><time>2026-05-02T08:01:33.886Z</time></trkpt><trkpt lat="45.8616824" lon="12.1753603"><ele>113.0</ele><time>2026-05-02T08:01:34.886Z</time></trkpt><trkpt lat="45.8616096" lon="12.1751395"><ele>113.0</ele><time>2026-05-02T08:01:35.887Z</time></trkpt><trkpt lat="45.8615483" lon="12.1749212"><ele>113.0</ele><time>2026-05-02T08:01:36.887Z</time></trkpt><trkpt lat="45.8614914" lon="12.1747029"><ele>113.0</ele><time>2026-05-02T08:01:37.886Z</time></trkpt><trkpt lat="45.86143" lon="12.1744924"><ele>113.0</ele><time>2026-05-02T08:01:38.886Z</time></trkpt><trkpt lat="45.8613529" lon="12.1742874"><ele>113.0</ele><time>2026-05-02T08:01:39.887Z</time></trkpt><trkpt lat="45.8612662" lon="12.1740867"><ele>113.0</ele><time>2026-05-02T08:01:40.886Z</time></trkpt><trkpt lat="45.8611661" lon="12.1738974"><ele>113.0</ele><time>2026-05-02T08:01:41.887Z</time></trkpt><trkpt lat="45.8610676" lon="12.1737072"><ele>113.0</ele><time>2026-05-02T08:01:42.887Z</time></trkpt><trkpt lat="45.8609705" lon="12.1735121"><ele>113.0</ele><time>2026-05-02T08:01:43.886Z</time></trkpt><trkpt lat="45.8608837" lon="12.1733162"><ele>112.0</ele><time>2026-05-02T08:01:44.887Z</time></trkpt><trkpt lat="45.8608112" lon="12.173125"><ele>111.0</ele><time>2026-05-02T08:01:45.886Z</time></trkpt><trkpt lat="45.8607452" lon="12.1729309"><ele>110.0</ele><time>2026-05-02T08:01:46.887Z</time></trkpt><trkpt lat="45.8607046" lon="12.1727148"><ele>110.0</ele><time>2026-05-02T08:01:47.886Z</time></trkpt><trkpt lat="45.8606651" lon="12.172496"><ele>110.0</ele><time>2026-05-02T08:01:48.887Z</time></trkpt><trkpt lat="45.8606253" lon="12.1722794"><ele>110.0</ele><time>2026-05-02T08:01:49.887Z</time></trkpt><trkpt lat="45.8605894" lon="12.1720863"><ele>110.25</ele><time>2026-05-02T08:01:50.887Z</time></trkpt><trkpt lat="45.8605599" lon="12.1719088"><ele>110.5</ele><time>2026-05-02T08:01:51.887Z</time></trkpt><trkpt lat="45.8605281" lon="12.1717485"><ele>110.75</ele><time>2026-05-02T08:01:52.886Z</time></trkpt><trkpt lat="45.8604925" lon="12.171585"><ele>111.0</ele><time>2026-05-02T08:01:53.886Z</time></trkpt><trkpt lat="45.8604636" lon="12.1714093"><ele>110.5</ele><time>2026-05-02T08:01:54.887Z</time></trkpt><trkpt lat="45.8604351" lon="12.1712347"><ele>110.0</ele><time>2026-05-02T08:01:55.886Z</time></trkpt><trkpt lat="45.8604028" lon="12.1710585"><ele>109.5</ele><time>2026-05-02T08:01:56.887Z</time></trkpt><trkpt lat="45.8603723" lon="12.170885"><ele>109.0</ele><time>2026-05-02T08:01:57.886Z</time></trkpt><trkpt lat="45.8603425" lon="12.1707239"><ele>109.5</ele><time>2026-05-02T08:01:58.887Z</time></trkpt><trkpt lat="45.8603151" lon="12.1705629"><ele>110.0</ele><time>2026-05-02T08:01:59.886Z</time></trkpt><trkpt lat="45.8602957" lon="12.1703796"><ele>110.5</ele><time>2026-05-02T08:02:00.887Z</time></trkpt><trkpt lat="45.8602939" lon="12.1702115"><ele>111.0</ele><time>2026-05-02T08:02:01.887Z</time></trkpt><trkpt lat="45.8603054" lon="12.1700631"><ele>111.0</ele><time>2026-05-02T08:02:02.886Z</time></trkpt><trkpt lat="45.8603212" lon="12.1698967"><ele>111.0</ele><time>2026-05-02T08:02:03.886Z</time></trkpt><trkpt lat="45.8603467" lon="12.1697309"><ele>111.0</ele><time>2026-05-02T08:02:04.887Z</time></trkpt><trkpt lat="45.8603834" lon="12.1695611"><ele>111.0</ele><time>2026-05-02T08:02:05.887Z</time></trkpt><trkpt lat="45.8604531" lon="12.1693975"><ele>111.25</ele><time>2026-05-02T08:02:06.887Z</time></trkpt><trkpt lat="45.8605174" lon="12.1692386"><ele>111.5</ele><time>2026-05-02T08:02:07.887Z</time></trkpt><trkpt lat="45.8605741" lon="12.1690868"><ele>111.75</ele><time>2026-05-02T08:02:08.887Z</time></trkpt><trkpt lat="45.8606243" lon="12.1689443"><ele>112.0</ele><time>2026-05-02T08:02:09.887Z</time></trkpt><trkpt lat="45.8606716" lon="12.1688081"><ele>111.25</ele><time>2026-05-02T08:02:10.886Z</time></trkpt><trkpt lat="45.8607135" lon="12.1686582"><ele>110.5</ele><time>2026-05-02T08:02:11.887Z</time></trkpt><trkpt lat="45.8607418" lon="12.1684966"><ele>109.75</ele><time>2026-05-02T08:02:12.886Z</time></trkpt><trkpt lat="45.8607639" lon="12.1683363"><ele>109.0</ele><time>2026-05-02T08:02:13.886Z</time></trkpt><trkpt lat="45.8607754" lon="12.1681815"><ele>108.80000000000001</ele><time>2026-05-02T08:02:14.887Z</time></trkpt><trkpt lat="45.8607791" lon="12.1680363"><ele>108.60000000000001</ele><time>2026-05-02T08:02:15.887Z</time></trkpt><trkpt lat="45.8607742" lon="12.1678893"><ele>108.4</ele><time>2026-05-02T08:02:16.887Z</time></trkpt><trkpt lat="45.8607626" lon="12.167738"><ele>108.2</ele><time>2026-05-02T08:02:17.888Z</time></trkpt><trkpt lat="45.8607473" lon="12.1675797"><ele>108.0</ele><time>2026-05-02T08:02:18.887Z</time></trkpt><trkpt lat="45.860732" lon="12.1674056"><ele>108.0</ele><time>2026-05-02T08:02:19.887Z</time></trkpt><trkpt lat="45.8607154" lon="12.1672156"><ele>108.0</ele><time>2026-05-02T08:02:20.888Z</time></trkpt><trkpt lat="45.8606942" lon="12.1670192"><ele>108.0</ele><time>2026-05-02T08:02:21.888Z</time></trkpt><trkpt lat="45.8606669" lon="12.1668207"><ele>108.0</ele><time>2026-05-02T08:02:22.887Z</time></trkpt><trkpt lat="45.8606395" lon="12.166618"><ele>108.0</ele><time>2026-05-02T08:02:23.887Z</time></trkpt><trkpt lat="45.8606119" lon="12.1664125"><ele>108.0</ele><time>2026-05-02T08:02:24.888Z</time></trkpt><trkpt lat="45.8605829" lon="12.1662096"><ele>108.0</ele><time>2026-05-02T08:02:25.888Z</time></trkpt><trkpt lat="45.8605543" lon="12.1660071"><ele>108.0</ele><time>2026-05-02T08:02:26.887Z</time></trkpt><trkpt lat="45.8605256" lon="12.1658069"><ele>107.5</ele><time>2026-05-02T08:02:27.887Z</time></trkpt><trkpt lat="45.8605047" lon="12.1656056"><ele>107.0</ele><time>2026-05-02T08:02:28.887Z</time></trkpt><trkpt lat="45.8604908" lon="12.1654053"><ele>106.5</ele><time>2026-05-02T08:02:29.888Z</time></trkpt><trkpt lat="45.8604805" lon="12.1652071"><ele>106.0</ele><time>2026-05-02T08:02:30.888Z</time></trkpt><trkpt lat="45.8604764" lon="12.1650052"><ele>107.0</ele><time>2026-05-02T08:02:31.888Z</time></trkpt><trkpt lat="45.8604719" lon="12.1648021"><ele>108.0</ele><time>2026-05-02T08:02:32.888Z</time></trkpt><trkpt lat="45.860475" lon="12.1645865"><ele>109.0</ele><time>2026-05-02T08:02:33.888Z</time></trkpt><trkpt lat="45.8604808" lon="12.1643665"><ele>110.0</ele><time>2026-05-02T08:02:34.887Z</time></trkpt><trkpt lat="45.8604899" lon="12.1641444"><ele>110.0</ele><time>2026-05-02T08:02:35.887Z</time></trkpt><trkpt lat="45.8605061" lon="12.1639178"><ele>110.0</ele><time>2026-05-02T08:02:36.888Z</time></trkpt><trkpt lat="45.8605316" lon="12.1636845"><ele>110.0</ele><time>2026-05-02T08:02:37.887Z</time></trkpt><trkpt lat="45.8605657" lon="12.1634529"><ele>110.0</ele><time>2026-05-02T08:02:38.888Z</time></trkpt><trkpt lat="45.8606044" lon="12.1632313"><ele>110.0</ele><time>2026-05-02T08:02:39.887Z</time></trkpt><trkpt lat="45.8606451" lon="12.1630171"><ele>110.0</ele><time>2026-05-02T08:02:40.888Z</time></trkpt><trkpt lat="45.8606877" lon="12.1628043"><ele>110.33333333333333</ele><time>2026-05-02T08:02:41.888Z</time></trkpt><trkpt lat="45.860732" lon="12.1625892"><ele>110.66666666666666</ele><time>2026-05-02T08:02:42.888Z</time></trkpt><trkpt lat="45.8607788" lon="12.1623584"><ele>111.0</ele><time>2026-05-02T08:02:43.888Z</time></trkpt><trkpt lat="45.8608265" lon="12.1621234"><ele>111.0</ele><time>2026-05-02T08:02:44.888Z</time></trkpt><trkpt lat="45.860874" lon="12.1618911"><ele>111.0</ele><time>2026-05-02T08:02:45.887Z</time></trkpt><trkpt lat="45.8609231" lon="12.1616591"><ele>111.0</ele><time>2026-05-02T08:02:46.887Z</time></trkpt><trkpt lat="45.8609696" lon="12.1614372"><ele>111.25</ele><time>2026-05-02T08:02:47.887Z</time></trkpt><trkpt lat="45.8610118" lon="12.1612307"><ele>111.5</ele><time>2026-05-02T08:02:48.887Z</time></trkpt><trkpt lat="45.8610504" lon="12.1610397"><ele>111.75</ele><time>2026-05-02T08:02:49.888Z</time></trkpt><trkpt lat="45.8610864" lon="12.1608642"><ele>112.0</ele><time>2026-05-02T08:02:50.888Z</time></trkpt><trkpt lat="45.8611202" lon="12.1607017"><ele>112.25</ele><time>2026-05-02T08:02:51.888Z</time></trkpt><trkpt lat="45.8611542" lon="12.1605456"><ele>112.5</ele><time>2026-05-02T08:02:52.887Z</time></trkpt><trkpt lat="45.8611868" lon="12.1603911"><ele>112.75</ele><time>2026-05-02T08:02:53.887Z</time></trkpt><trkpt lat="45.8612194" lon="12.1602354"><ele>113.0</ele><time>2026-05-02T08:02:54.887Z</time></trkpt><trkpt lat="45.8612525" lon="12.1600799"><ele>113.0</ele><time>2026-05-02T08:02:55.887Z</time></trkpt><trkpt lat="45.8612847" lon="12.1599213"><ele>113.0</ele><time>2026-05-02T08:02:56.888Z</time></trkpt><trkpt lat="45.8613176" lon="12.1597585"><ele>113.0</ele><time>2026-05-02T08:02:57.888Z</time></trkpt><trkpt lat="45.8613519" lon="12.1595929"><ele>113.0</ele><time>2026-05-02T08:02:58.887Z</time></trkpt><trkpt lat="45.8613873" lon="12.1594261"><ele>113.4</ele><time>2026-05-02T08:02:59.888Z</time></trkpt><trkpt lat="45.8614213" lon="12.1592619"><ele>113.80000000000001</ele><time>2026-05-02T08:03:00.888Z</time></trkpt><trkpt lat="45.8614524" lon="12.1591142"><ele>114.2</ele><time>2026-05-02T08:03:01.888Z</time></trkpt><trkpt lat="45.8614807" lon="12.1589818"><ele>114.6</ele><time>2026-05-02T08:03:02.887Z</time></trkpt><trkpt lat="45.8615084" lon="12.1588483"><ele>115.0</ele><time>2026-05-02T08:03:03.887Z</time></trkpt><trkpt lat="45.8615367" lon="12.1587036"><ele>115.0</ele><time>2026-05-02T08:03:04.887Z</time></trkpt><trkpt lat="45.861569" lon="12.158547"><ele>115.0</ele><time>2026-05-02T08:03:05.888Z</time></trkpt><trkpt lat="45.8616046" lon="12.1583744"><ele>115.0</ele><time>2026-05-02T08:03:06.888Z</time></trkpt><trkpt lat="45.8616443" lon="12.1581859"><ele>115.0</ele><time>2026-05-02T08:03:07.888Z</time></trkpt><trkpt lat="45.8616857" lon="12.1579879"><ele>114.5</ele><time>2026-05-02T08:03:08.888Z</time></trkpt><trkpt lat="45.8617276" lon="12.1577901"><ele>114.0</ele><time>2026-05-02T08:03:09.887Z</time></trkpt><trkpt lat="45.8617668" lon="12.1576016"><ele>113.5</ele><time>2026-05-02T08:03:10.887Z</time></trkpt><trkpt lat="45.8618058" lon="12.1574118"><ele>113.0</ele><time>2026-05-02T08:03:11.889Z</time></trkpt><trkpt lat="45.8618463" lon="12.1572187"><ele>113.0</ele><time>2026-05-02T08:03:12.889Z</time></trkpt><trkpt lat="45.8618861" lon="12.1570249"><ele>113.0</ele><time>2026-05-02T08:03:13.887Z</time></trkpt><trkpt lat="45.8619249" lon="12.1568287"><ele>113.0</ele><time>2026-05-02T08:03:14.888Z</time></trkpt><trkpt lat="45.8619658" lon="12.1566308"><ele>113.0</ele><time>2026-05-02T08:03:15.887Z</time></trkpt><trkpt lat="45.8620083" lon="12.156432"><ele>113.0</ele><time>2026-05-02T08:03:16.888Z</time></trkpt><trkpt lat="45.8620502" lon="12.1562326"><ele>113.0</ele><time>2026-05-02T08:03:17.888Z</time></trkpt><trkpt lat="45.8620899" lon="12.1560329"><ele>113.0</ele><time>2026-05-02T08:03:18.887Z</time></trkpt><trkpt lat="45.8621274" lon="12.1558334"><ele>113.0</ele><time>2026-05-02T08:03:19.888Z</time></trkpt><trkpt lat="45.8621675" lon="12.1556329"><ele>113.0</ele><time>2026-05-02T08:03:20.888Z</time></trkpt><trkpt lat="45.8622113" lon="12.1554286"><ele>113.0</ele><time>2026-05-02T08:03:21.888Z</time></trkpt><trkpt lat="45.8622555" lon="12.1552101"><ele>113.0</ele><time>2026-05-02T08:03:22.889Z</time></trkpt><trkpt lat="45.8622998" lon="12.1549765"><ele>113.66666666666666</ele><time>2026-05-02T08:03:23.889Z</time></trkpt><trkpt lat="45.8623477" lon="12.1547516"><ele>114.33333333333334</ele><time>2026-05-02T08:03:24.889Z</time></trkpt><trkpt lat="45.8623948" lon="12.1545391"><ele>115.0</ele><time>2026-05-02T08:03:25.889Z</time></trkpt><trkpt lat="45.8624373" lon="12.1543391"><ele>115.0</ele><time>2026-05-02T08:03:26.889Z</time></trkpt><trkpt lat="45.8624798" lon="12.1541356"><ele>115.0</ele><time>2026-05-02T08:03:27.889Z</time></trkpt><trkpt lat="45.862522" lon="12.153932"><ele>115.0</ele><time>2026-05-02T08:03:28.888Z</time></trkpt><trkpt lat="45.8625644" lon="12.1537306"><ele>115.0</ele><time>2026-05-02T08:03:29.889Z</time></trkpt><trkpt lat="45.8626059" lon="12.1535322"><ele>115.25</ele><time>2026-05-02T08:03:30.889Z</time></trkpt><trkpt lat="45.8626463" lon="12.1533328"><ele>115.5</ele><time>2026-05-02T08:03:31.888Z</time></trkpt><trkpt lat="45.8626869" lon="12.153132"><ele>115.75</ele><time>2026-05-02T08:03:32.889Z</time></trkpt><trkpt lat="45.8627309" lon="12.1529251"><ele>116.0</ele><time>2026-05-02T08:03:33.889Z</time></trkpt><trkpt lat="45.8627756" lon="12.1527136"><ele>116.0</ele><time>2026-05-02T08:03:34.888Z</time></trkpt><trkpt lat="45.8628194" lon="12.1524999"><ele>116.0</ele><time>2026-05-02T08:03:35.889Z</time></trkpt><trkpt lat="45.8628637" lon="12.1522849"><ele>116.0</ele><time>2026-05-02T08:03:36.888Z</time></trkpt><trkpt lat="45.8629085" lon="12.1520707"><ele>116.0</ele><time>2026-05-02T08:03:37.888Z</time></trkpt><trkpt lat="45.8629543" lon="12.151858"><ele>116.0</ele><time>2026-05-02T08:03:38.889Z</time></trkpt><trkpt lat="45.8629978" lon="12.1516572"><ele>116.0</ele><time>2026-05-02T08:03:39.888Z</time></trkpt><trkpt lat="45.8630428" lon="12.1514642"><ele>116.0</ele><time>2026-05-02T08:03:40.889Z</time></trkpt><trkpt lat="45.8630942" lon="12.1512713"><ele>116.0</ele><time>2026-05-02T08:03:41.889Z</time></trkpt><trkpt lat="45.8631521" lon="12.1510835"><ele>116.0</ele><time>2026-05-02T08:03:42.888Z</time></trkpt><trkpt lat="45.8632099" lon="12.1509088"><ele>116.0</ele><time>2026-05-02T08:03:43.889Z</time></trkpt><trkpt lat="45.8632824" lon="12.1507575"><ele>116.0</ele><time>2026-05-02T08:03:44.889Z</time></trkpt><trkpt lat="45.8633577" lon="12.1506236"><ele>116.0</ele><time>2026-05-02T08:03:45.889Z</time></trkpt><trkpt lat="45.8634338" lon="12.1505074"><ele>116.0</ele><time>2026-05-02T08:03:46.888Z</time></trkpt><trkpt lat="45.8635077" lon="12.1503964"><ele>116.0</ele><time>2026-05-02T08:03:47.889Z</time></trkpt><trkpt lat="45.8635814" lon="12.1502919"><ele>116.0</ele><time>2026-05-02T08:03:48.889Z</time></trkpt><trkpt lat="45.8636569" lon="12.1501914"><ele>116.0</ele><time>2026-05-02T08:03:49.888Z</time></trkpt><trkpt lat="45.8637243" lon="12.1501009"><ele>115.99999999999999</ele><time>2026-05-02T08:03:50.888Z</time></trkpt><trkpt lat="45.8637863" lon="12.1500183"><ele>116.0</ele><time>2026-05-02T08:03:51.888Z</time></trkpt><trkpt lat="45.8638474" lon="12.1499377"><ele>116.0</ele><time>2026-05-02T08:03:52.889Z</time></trkpt><trkpt lat="45.8639092" lon="12.1498572"><ele>116.0</ele><time>2026-05-02T08:03:53.889Z</time></trkpt><trkpt lat="45.8639704" lon="12.1497892"><ele>115.99999999999999</ele><time>2026-05-02T08:03:54.888Z</time></trkpt><trkpt lat="45.8640218" lon="12.1497217"><ele>116.0</ele><time>2026-05-02T08:03:55.888Z</time></trkpt><trkpt lat="45.8640767" lon="12.1496699"><ele>116.16666666666666</ele><time>2026-05-02T08:03:56.888Z</time></trkpt><trkpt lat="45.864177" lon="12.1495788"><ele>116.33333333333333</ele><time>2026-05-02T08:03:58.889Z</time></trkpt><trkpt lat="45.8642392" lon="12.1495466"><ele>116.5</ele><time>2026-05-02T08:03:59.889Z</time></trkpt><trkpt lat="45.86431" lon="12.1495272"><ele>116.66666666666666</ele><time>2026-05-02T08:04:00.888Z</time></trkpt><trkpt lat="45.8643841" lon="12.1495069"><ele>116.83333333333333</ele><time>2026-05-02T08:04:01.888Z</time></trkpt><trkpt lat="45.8644531" lon="12.1494443"><ele>117.0</ele><time>2026-05-02T08:04:02.888Z</time></trkpt><trkpt lat="45.8644993" lon="12.1493531"><ele>117.0</ele><time>2026-05-02T08:04:03.888Z</time></trkpt><trkpt lat="45.8645158" lon="12.1492434"><ele>117.0</ele><time>2026-05-02T08:04:04.888Z</time></trkpt><trkpt lat="45.8644982" lon="12.1491311"><ele>117.0</ele><time>2026-05-02T08:04:05.889Z</time></trkpt><trkpt lat="45.864452" lon="12.1490314"><ele>117.0</ele><time>2026-05-02T08:04:06.888Z</time></trkpt><trkpt lat="45.8643934" lon="12.1489322"><ele>117.0</ele><time>2026-05-02T08:04:07.889Z</time></trkpt><trkpt lat="45.8643426" lon="12.1488114"><ele>117.0</ele><time>2026-05-02T08:04:08.889Z</time></trkpt><trkpt lat="45.8643025" lon="12.1486617"><ele>117.0</ele><time>2026-05-02T08:04:09.889Z</time></trkpt><trkpt lat="45.8642647" lon="12.1484894"><ele>117.0</ele><time>2026-05-02T08:04:10.889Z</time></trkpt><trkpt lat="45.8642266" lon="12.1483035"><ele>117.0</ele><time>2026-05-02T08:04:11.888Z</time></trkpt><trkpt lat="45.8641862" lon="12.148109"><ele>117.0</ele><time>2026-05-02T08:04:12.889Z</time></trkpt><trkpt lat="45.8641402" lon="12.1479084"><ele>116.33333333333334</ele><time>2026-05-02T08:04:13.889Z</time></trkpt><trkpt lat="45.8640951" lon="12.1476991"><ele>115.66666666666667</ele><time>2026-05-02T08:04:14.888Z</time></trkpt><trkpt lat="45.8640509" lon="12.147477"><ele>115.0</ele><time>2026-05-02T08:04:15.889Z</time></trkpt><trkpt lat="45.8640054" lon="12.1472454"><ele>114.33333333333334</ele><time>2026-05-02T08:04:16.889Z</time></trkpt><trkpt lat="45.8639595" lon="12.1470099"><ele>113.66666666666666</ele><time>2026-05-02T08:04:17.888Z</time></trkpt><trkpt lat="45.8639137" lon="12.1467718"><ele>113.0</ele><time>2026-05-02T08:04:18.888Z</time></trkpt><trkpt lat="45.863867" lon="12.1465327"><ele>113.0</ele><time>2026-05-02T08:04:19.889Z</time></trkpt><trkpt lat="45.8638242" lon="12.1462932"><ele>113.0</ele><time>2026-05-02T08:04:20.889Z</time></trkpt><trkpt lat="45.8637869" lon="12.1460494"><ele>113.0</ele><time>2026-05-02T08:04:21.89Z</time></trkpt><trkpt lat="45.8637566" lon="12.1457939"><ele>113.0</ele><time>2026-05-02T08:04:22.89Z</time></trkpt><trkpt lat="45.8637371" lon="12.1455283"><ele>113.0</ele><time>2026-05-02T08:04:23.89Z</time></trkpt><trkpt lat="45.8637279" lon="12.145258"><ele>113.0</ele><time>2026-05-02T08:04:24.89Z</time></trkpt><trkpt lat="45.8637229" lon="12.1449943"><ele>113.0</ele><time>2026-05-02T08:04:25.89Z</time></trkpt><trkpt lat="45.863732" lon="12.1447393"><ele>113.0</ele><time>2026-05-02T08:04:26.89Z</time></trkpt><trkpt lat="45.8637439" lon="12.1444884"><ele>113.0</ele><time>2026-05-02T08:04:27.89Z</time></trkpt><trkpt lat="45.8637566" lon="12.1442431"><ele>112.66666666666666</ele><time>2026-05-02T08:04:28.89Z</time></trkpt><trkpt lat="45.8637719" lon="12.1439969"><ele>112.33333333333334</ele><time>2026-05-02T08:04:29.889Z</time></trkpt><trkpt lat="45.8637856" lon="12.1437433"><ele>112.0</ele><time>2026-05-02T08:04:30.89Z</time></trkpt><trkpt lat="45.8637977" lon="12.1434956"><ele>112.0</ele><time>2026-05-02T08:04:31.89Z</time></trkpt><trkpt lat="45.8638091" lon="12.1432454"><ele>112.0</ele><time>2026-05-02T08:04:32.889Z</time></trkpt><trkpt lat="45.8638182" lon="12.1429823"><ele>112.0</ele><time>2026-05-02T08:04:33.89Z</time></trkpt><trkpt lat="45.8638302" lon="12.142719"><ele>111.33333333333334</ele><time>2026-05-02T08:04:34.889Z</time></trkpt><trkpt lat="45.8638429" lon="12.1424465"><ele>110.66666666666666</ele><time>2026-05-02T08:04:35.889Z</time></trkpt><trkpt lat="45.8638576" lon="12.1421775"><ele>110.0</ele><time>2026-05-02T08:04:36.89Z</time></trkpt><trkpt lat="45.8638657" lon="12.141905"><ele>108.0</ele><time>2026-05-02T08:04:37.889Z</time></trkpt><trkpt lat="45.8638696" lon="12.1416271"><ele>106.0</ele><time>2026-05-02T08:04:38.889Z</time></trkpt><trkpt lat="45.8638721" lon="12.1413526"><ele>104.0</ele><time>2026-05-02T08:04:39.89Z</time></trkpt><trkpt lat="45.8638602" lon="12.1410787"><ele>104.0</ele><time>2026-05-02T08:04:40.89Z</time></trkpt><trkpt lat="45.8638406" lon="12.140812"><ele>104.0</ele><time>2026-05-02T08:04:41.89Z</time></trkpt><trkpt lat="45.8638139" lon="12.1405476"><ele>104.0</ele><time>2026-05-02T08:04:42.889Z</time></trkpt><trkpt lat="45.863773" lon="12.1402786"><ele>104.66666666666666</ele><time>2026-05-02T08:04:43.889Z</time></trkpt><trkpt lat="45.8637223" lon="12.140013"><ele>105.33333333333334</ele><time>2026-05-02T08:04:44.89Z</time></trkpt><trkpt lat="45.8636621" lon="12.1397459"><ele>106.0</ele><time>2026-05-02T08:04:45.889Z</time></trkpt><trkpt lat="45.8636021" lon="12.1394889"><ele>106.0</ele><time>2026-05-02T08:04:46.89Z</time></trkpt><trkpt lat="45.8635346" lon="12.139238"><ele>106.0</ele><time>2026-05-02T08:04:47.89Z</time></trkpt><trkpt lat="45.8634714" lon="12.1389925"><ele>106.0</ele><time>2026-05-02T08:04:48.89Z</time></trkpt><trkpt lat="45.8634058" lon="12.1387427"><ele>105.66666666666667</ele><time>2026-05-02T08:04:49.89Z</time></trkpt><trkpt lat="45.8633371" lon="12.1384982"><ele>105.33333333333334</ele><time>2026-05-02T08:04:50.89Z</time></trkpt><trkpt lat="45.863267" lon="12.1382535"><ele>105.0</ele><time>2026-05-02T08:04:51.89Z</time></trkpt><trkpt lat="45.8631989" lon="12.1380079"><ele>105.0</ele><time>2026-05-02T08:04:52.889Z</time></trkpt><trkpt lat="45.8631294" lon="12.1377653"><ele>105.0</ele><time>2026-05-02T08:04:53.89Z</time></trkpt><trkpt lat="45.8630627" lon="12.137518"><ele>105.0</ele><time>2026-05-02T08:04:54.89Z</time></trkpt><trkpt lat="45.8629956" lon="12.1372698"><ele>105.0</ele><time>2026-05-02T08:04:55.889Z</time></trkpt><trkpt lat="45.8629285" lon="12.1370236"><ele>105.0</ele><time>2026-05-02T08:04:56.889Z</time></trkpt><trkpt lat="45.8628651" lon="12.1367814"><ele>105.0</ele><time>2026-05-02T08:04:57.89Z</time></trkpt><trkpt lat="45.8628074" lon="12.1365386"><ele>105.33333333333334</ele><time>2026-05-02T08:04:58.89Z</time></trkpt><trkpt lat="45.8627573" lon="12.1362926"><ele>105.66666666666667</ele><time>2026-05-02T08:04:59.889Z</time></trkpt><trkpt lat="45.8627157" lon="12.1360379"><ele>106.0</ele><time>2026-05-02T08:05:00.889Z</time></trkpt><trkpt lat="45.8626818" lon="12.1357784"><ele>106.0</ele><time>2026-05-02T08:05:01.89Z</time></trkpt><trkpt lat="45.8626599" lon="12.1355172"><ele>106.0</ele><time>2026-05-02T08:05:02.89Z</time></trkpt><trkpt lat="45.8626405" lon="12.1352646"><ele>106.0</ele><time>2026-05-02T08:05:03.89Z</time></trkpt><trkpt lat="45.8626213" lon="12.1350077"><ele>106.0</ele><time>2026-05-02T08:05:04.889Z</time></trkpt><trkpt lat="45.8625997" lon="12.1347467"><ele>106.0</ele><time>2026-05-02T08:05:05.889Z</time></trkpt><trkpt lat="45.8625734" lon="12.1344837"><ele>106.0</ele><time>2026-05-02T08:05:06.889Z</time></trkpt><trkpt lat="45.8625515" lon="12.1342071"><ele>106.0</ele><time>2026-05-02T08:05:07.89Z</time></trkpt><trkpt lat="45.8625312" lon="12.1339402"><ele>106.0</ele><time>2026-05-02T08:05:08.89Z</time></trkpt><trkpt lat="45.8625124" lon="12.1336839"><ele>106.0</ele><time>2026-05-02T08:05:09.889Z</time></trkpt><trkpt lat="45.8624939" lon="12.1334283"><ele>105.66666666666667</ele><time>2026-05-02T08:05:10.89Z</time></trkpt><trkpt lat="45.8624691" lon="12.133165"><ele>105.33333333333334</ele><time>2026-05-02T08:05:11.89Z</time></trkpt><trkpt lat="45.8624503" lon="12.1329006"><ele>105.0</ele><time>2026-05-02T08:05:12.889Z</time></trkpt><trkpt lat="45.8624331" lon="12.1326424"><ele>105.0</ele><time>2026-05-02T08:05:13.89Z</time></trkpt><trkpt lat="45.8624156" lon="12.1323912"><ele>105.0</ele><time>2026-05-02T08:05:14.889Z</time></trkpt><trkpt lat="45.8624023" lon="12.1321461"><ele>105.0</ele><time>2026-05-02T08:05:15.889Z</time></trkpt><trkpt lat="45.8623992" lon="12.1319169"><ele>106.66666666666666</ele><time>2026-05-02T08:05:16.889Z</time></trkpt><trkpt lat="45.862405" lon="12.1316873"><ele>108.33333333333333</ele><time>2026-05-02T08:05:17.89Z</time></trkpt><trkpt lat="45.862419" lon="12.1314563"><ele>110.0</ele><time>2026-05-02T08:05:18.889Z</time></trkpt><trkpt lat="45.8624368" lon="12.1312222"><ele>109.66666666666666</ele><time>2026-05-02T08:05:19.89Z</time></trkpt><trkpt lat="45.8624631" lon="12.1309926"><ele>109.33333333333334</ele><time>2026-05-02T08:05:20.889Z</time></trkpt><trkpt lat="45.8624977" lon="12.130763"><ele>109.0</ele><time>2026-05-02T08:05:21.89Z</time></trkpt><trkpt lat="45.8625385" lon="12.1305311"><ele>109.0</ele><time>2026-05-02T08:05:22.89Z</time></trkpt><trkpt lat="45.8625883" lon="12.1303054"><ele>109.0</ele><time>2026-05-02T08:05:23.89Z</time></trkpt><trkpt lat="45.8626461" lon="12.1300654"><ele>109.0</ele><time>2026-05-02T08:05:24.89Z</time></trkpt><trkpt lat="45.8627196" lon="12.1298289"><ele>108.66666666666667</ele><time>2026-05-02T08:05:25.89Z</time></trkpt><trkpt lat="45.8628057" lon="12.1295992"><ele>108.33333333333334</ele><time>2026-05-02T08:05:26.891Z</time></trkpt><trkpt lat="45.8628897" lon="12.1293754"><ele>108.0</ele><time>2026-05-02T08:05:27.891Z</time></trkpt><trkpt lat="45.8629757" lon="12.1291582"><ele>108.0</ele><time>2026-05-02T08:05:28.891Z</time></trkpt><trkpt lat="45.863064" lon="12.1289505"><ele>108.0</ele><time>2026-05-02T08:05:29.89Z</time></trkpt><trkpt lat="45.8631491" lon="12.1287404"><ele>108.0</ele><time>2026-05-02T08:05:30.891Z</time></trkpt><trkpt lat="45.8632321" lon="12.1285326"><ele>108.0</ele><time>2026-05-02T08:05:31.89Z</time></trkpt><trkpt lat="45.8633134" lon="12.1283223"><ele>108.0</ele><time>2026-05-02T08:05:32.891Z</time></trkpt><trkpt lat="45.8633946" lon="12.1281141"><ele>108.0</ele><time>2026-05-02T08:05:33.891Z</time></trkpt><trkpt lat="45.863476" lon="12.1278997"><ele>109.33333333333334</ele><time>2026-05-02T08:05:34.891Z</time></trkpt><trkpt lat="45.8635504" lon="12.1276759"><ele>110.66666666666667</ele><time>2026-05-02T08:05:35.89Z</time></trkpt><trkpt lat="45.8636155" lon="12.127458"><ele>112.0</ele><time>2026-05-02T08:05:36.891Z</time></trkpt><trkpt lat="45.8636731" lon="12.1272308"><ele>112.0</ele><time>2026-05-02T08:05:37.891Z</time></trkpt><trkpt lat="45.863727" lon="12.1270024"><ele>112.0</ele><time>2026-05-02T08:05:38.891Z</time></trkpt><trkpt lat="45.8637712" lon="12.1267663"><ele>112.0</ele><time>2026-05-02T08:05:39.891Z</time></trkpt><trkpt lat="45.863811" lon="12.1265347"><ele>111.33333333333334</ele><time>2026-05-02T08:05:40.89Z</time></trkpt><trkpt lat="45.8638459" lon="12.1263081"><ele>110.66666666666666</ele><time>2026-05-02T08:05:41.89Z</time></trkpt><trkpt lat="45.8638768" lon="12.1260841"><ele>110.0</ele><time>2026-05-02T08:05:42.89Z</time></trkpt><trkpt lat="45.8639101" lon="12.1258622"><ele>110.0</ele><time>2026-05-02T08:05:43.891Z</time></trkpt><trkpt lat="45.8639431" lon="12.1256425"><ele>110.0</ele><time>2026-05-02T08:05:44.89Z</time></trkpt><trkpt lat="45.8639791" lon="12.1254276"><ele>110.0</ele><time>2026-05-02T08:05:45.891Z</time></trkpt><trkpt lat="45.8640143" lon="12.1252124"><ele>110.0</ele><time>2026-05-02T08:05:46.891Z</time></trkpt><trkpt lat="45.8640459" lon="12.1250106"><ele>110.0</ele><time>2026-05-02T08:05:47.89Z</time></trkpt><trkpt lat="45.8640762" lon="12.1248289"><ele>110.0</ele><time>2026-05-02T08:05:48.89Z</time></trkpt><trkpt lat="45.8640999" lon="12.1246683"><ele>110.0</ele><time>2026-05-02T08:05:49.89Z</time></trkpt><trkpt lat="45.8641231" lon="12.1245184"><ele>110.49999999999999</ele><time>2026-05-02T08:05:50.891Z</time></trkpt><trkpt lat="45.8641452" lon="12.1243802"><ele>111.0</ele><time>2026-05-02T08:05:51.89Z</time></trkpt><trkpt lat="45.8641674" lon="12.124233"><ele>111.5</ele><time>2026-05-02T08:05:52.891Z</time></trkpt><trkpt lat="45.8641881" lon="12.1241098"><ele>112.0</ele><time>2026-05-02T08:05:53.891Z</time></trkpt><trkpt lat="45.8642085" lon="12.123999"><ele>112.49999999999999</ele><time>2026-05-02T08:05:54.891Z</time></trkpt><trkpt lat="45.8642315" lon="12.1238993"><ele>113.0</ele><time>2026-05-02T08:05:55.89Z</time></trkpt><trkpt lat="45.8642662" lon="12.123761"><ele>112.71428571428572</ele><time>2026-05-02T08:05:57.891Z</time></trkpt><trkpt lat="45.8642951" lon="12.1236725"><ele>112.42857142857142</ele><time>2026-05-02T08:05:59.89Z</time></trkpt><trkpt lat="45.8643365" lon="12.1235845"><ele>112.14285714285714</ele><time>2026-05-02T08:06:07.891Z</time></trkpt><trkpt lat="45.8643935" lon="12.1234852"><ele>111.85714285714286</ele><time>2026-05-02T08:06:09.891Z</time></trkpt><trkpt lat="45.8644407" lon="12.1234253"><ele>111.57142857142858</ele><time>2026-05-02T08:06:10.891Z</time></trkpt><trkpt lat="45.8644956" lon="12.1233533"><ele>111.28571428571428</ele><time>2026-05-02T08:06:11.89Z</time></trkpt><trkpt lat="45.8645275" lon="12.1232511"><ele>111.0</ele><time>2026-05-02T08:06:12.891Z</time></trkpt><trkpt lat="45.8645217" lon="12.1231258"><ele>111.0</ele><time>2026-05-02T08:06:13.891Z</time></trkpt><trkpt lat="45.8644924" lon="12.1230044"><ele>111.0</ele><time>2026-05-02T08:06:14.891Z</time></trkpt><trkpt lat="45.8644534" lon="12.1228676"><ele>111.0</ele><time>2026-05-02T08:06:15.891Z</time></trkpt><trkpt lat="45.8644217" lon="12.122714"><ele>111.0</ele><time>2026-05-02T08:06:16.89Z</time></trkpt><trkpt lat="45.8644008" lon="12.1225464"><ele>111.0</ele><time>2026-05-02T08:06:17.891Z</time></trkpt><trkpt lat="45.864393" lon="12.1223637"><ele>111.0</ele><time>2026-05-02T08:06:18.891Z</time></trkpt><trkpt lat="45.8643882" lon="12.1221768"><ele>111.0</ele><time>2026-05-02T08:06:19.891Z</time></trkpt><trkpt lat="45.8644012" lon="12.1219777"><ele>111.0</ele><time>2026-05-02T08:06:20.892Z</time></trkpt><trkpt lat="45.8644126" lon="12.1217753"><ele>111.0</ele><time>2026-05-02T08:06:21.89Z</time></trkpt><trkpt lat="45.864426" lon="12.1215683"><ele>110.25</ele><time>2026-05-02T08:06:22.89Z</time></trkpt><trkpt lat="45.8644397" lon="12.1213588"><ele>109.5</ele><time>2026-05-02T08:06:23.891Z</time></trkpt><trkpt lat="45.8644523" lon="12.121152"><ele>108.75</ele><time>2026-05-02T08:06:24.891Z</time></trkpt><trkpt lat="45.8644629" lon="12.1209479"><ele>108.0</ele><time>2026-05-02T08:06:25.89Z</time></trkpt><trkpt lat="45.8644746" lon="12.1207453"><ele>108.75</ele><time>2026-05-02T08:06:26.89Z</time></trkpt><trkpt lat="45.8644878" lon="12.1205402"><ele>109.5</ele><time>2026-05-02T08:06:27.89Z</time></trkpt><trkpt lat="45.864503" lon="12.1203303"><ele>110.25</ele><time>2026-05-02T08:06:28.891Z</time></trkpt><trkpt lat="45.8645211" lon="12.1201154"><ele>111.0</ele><time>2026-05-02T08:06:29.892Z</time></trkpt><trkpt lat="45.864544" lon="12.1198955"><ele>111.0</ele><time>2026-05-02T08:06:30.892Z</time></trkpt><trkpt lat="45.8645734" lon="12.1196708"><ele>111.0</ele><time>2026-05-02T08:06:31.891Z</time></trkpt><trkpt lat="45.864609" lon="12.1194427"><ele>111.0</ele><time>2026-05-02T08:06:32.891Z</time></trkpt><trkpt lat="45.8646478" lon="12.119214"><ele>112.0</ele><time>2026-05-02T08:06:33.891Z</time></trkpt><trkpt lat="45.8646949" lon="12.1189689"><ele>113.0</ele><time>2026-05-02T08:06:34.892Z</time></trkpt><trkpt lat="45.8647439" lon="12.1187215"><ele>114.0</ele><time>2026-05-02T08:06:35.892Z</time></trkpt><trkpt lat="45.8647941" lon="12.1184727"><ele>113.66666666666666</ele><time>2026-05-02T08:06:36.891Z</time></trkpt><trkpt lat="45.864845" lon="12.1182225"><ele>113.33333333333333</ele><time>2026-05-02T08:06:37.892Z</time></trkpt><trkpt lat="45.8648966" lon="12.1179728"><ele>113.0</ele><time>2026-05-02T08:06:38.892Z</time></trkpt><trkpt lat="45.8649481" lon="12.1177246"><ele>113.0</ele><time>2026-05-02T08:06:39.891Z</time></trkpt><trkpt lat="45.8649982" lon="12.1174812"><ele>113.0</ele><time>2026-05-02T08:06:40.892Z</time></trkpt><trkpt lat="45.8650467" lon="12.1172387"><ele>113.0</ele><time>2026-05-02T08:06:41.891Z</time></trkpt><trkpt lat="45.8650939" lon="12.1169989"><ele>112.33333333333333</ele><time>2026-05-02T08:06:42.891Z</time></trkpt><trkpt lat="45.8651411" lon="12.1167626"><ele>111.66666666666666</ele><time>2026-05-02T08:06:43.892Z</time></trkpt><trkpt lat="45.8651891" lon="12.1165302"><ele>111.0</ele><time>2026-05-02T08:06:44.892Z</time></trkpt><trkpt lat="45.8652354" lon="12.1163009"><ele>112.0</ele><time>2026-05-02T08:06:45.891Z</time></trkpt><trkpt lat="45.8652785" lon="12.1160824"><ele>113.0</ele><time>2026-05-02T08:06:46.892Z</time></trkpt><trkpt lat="45.8653216" lon="12.1158867"><ele>114.0</ele><time>2026-05-02T08:06:47.892Z</time></trkpt><trkpt lat="45.8653585" lon="12.1157025"><ele>115.0</ele><time>2026-05-02T08:06:48.892Z</time></trkpt><trkpt lat="45.8653906" lon="12.1155238"><ele>115.2</ele><time>2026-05-02T08:06:49.892Z</time></trkpt><trkpt lat="45.8654202" lon="12.1153584"><ele>115.4</ele><time>2026-05-02T08:06:50.891Z</time></trkpt><trkpt lat="45.8654473" lon="12.1152196"><ele>115.6</ele><time>2026-05-02T08:06:51.892Z</time></trkpt><trkpt lat="45.8654736" lon="12.1150904"><ele>115.8</ele><time>2026-05-02T08:06:52.892Z</time></trkpt><trkpt lat="45.865499" lon="12.114955"><ele>116.0</ele><time>2026-05-02T08:06:53.892Z</time></trkpt><trkpt lat="45.8655205" lon="12.1148142"><ele>115.99999999999999</ele><time>2026-05-02T08:06:54.891Z</time></trkpt><trkpt lat="45.8655466" lon="12.1146791"><ele>116.0</ele><time>2026-05-02T08:06:55.891Z</time></trkpt><trkpt lat="45.8655726" lon="12.1145609"><ele>116.0</ele><time>2026-05-02T08:06:56.892Z</time></trkpt><trkpt lat="45.8656111" lon="12.1144595"><ele>116.0</ele><time>2026-05-02T08:06:57.892Z</time></trkpt><trkpt lat="45.865625" lon="12.1143476"><ele>115.99999999999999</ele><time>2026-05-02T08:06:58.892Z</time></trkpt><trkpt lat="45.8655968" lon="12.1142274"><ele>116.0</ele><time>2026-05-02T08:06:59.892Z</time></trkpt><trkpt lat="45.8655394" lon="12.1141189"><ele>116.0</ele><time>2026-05-02T08:07:00.891Z</time></trkpt><trkpt lat="45.8654928" lon="12.1139953"><ele>116.0</ele><time>2026-05-02T08:07:01.892Z</time></trkpt><trkpt lat="45.8654717" lon="12.1138509"><ele>116.0</ele><time>2026-05-02T08:07:02.892Z</time></trkpt><trkpt lat="45.8654946" lon="12.1136815"><ele>116.0</ele><time>2026-05-02T08:07:03.891Z</time></trkpt><trkpt lat="45.8655375" lon="12.1134803"><ele>116.0</ele><time>2026-05-02T08:07:04.891Z</time></trkpt><trkpt lat="45.8655747" lon="12.1132624"><ele>116.0</ele><time>2026-05-02T08:07:05.891Z</time></trkpt><trkpt lat="45.8655854" lon="12.1130384"><ele>116.0</ele><time>2026-05-02T08:07:06.891Z</time></trkpt><trkpt lat="45.8655763" lon="12.112807"><ele>116.0</ele><time>2026-05-02T08:07:07.891Z</time></trkpt><trkpt lat="45.8655542" lon="12.1125434"><ele>116.0</ele><time>2026-05-02T08:07:08.892Z</time></trkpt><trkpt lat="45.8655287" lon="12.1122772"><ele>116.0</ele><time>2026-05-02T08:07:09.891Z</time></trkpt><trkpt lat="45.8655048" lon="12.1120033"><ele>116.66666666666666</ele><time>2026-05-02T08:07:10.891Z</time></trkpt><trkpt lat="45.8654747" lon="12.1117268"><ele>117.33333333333334</ele><time>2026-05-02T08:07:11.892Z</time></trkpt><trkpt lat="45.8654422" lon="12.1114555"><ele>118.0</ele><time>2026-05-02T08:07:12.891Z</time></trkpt><trkpt lat="45.8654083" lon="12.1111751"><ele>118.0</ele><time>2026-05-02T08:07:13.893Z</time></trkpt><trkpt lat="45.8653756" lon="12.1108939"><ele>118.0</ele><time>2026-05-02T08:07:14.892Z</time></trkpt><trkpt lat="45.8653439" lon="12.1106177"><ele>118.0</ele><time>2026-05-02T08:07:15.891Z</time></trkpt><trkpt lat="45.8653115" lon="12.1103385"><ele>117.66666666666667</ele><time>2026-05-02T08:07:16.891Z</time></trkpt><trkpt lat="45.8652809" lon="12.1100608"><ele>117.33333333333334</ele><time>2026-05-02T08:07:17.892Z</time></trkpt><trkpt lat="45.865251" lon="12.109785"><ele>117.0</ele><time>2026-05-02T08:07:18.892Z</time></trkpt><trkpt lat="45.8652214" lon="12.1095145"><ele>117.0</ele><time>2026-05-02T08:07:19.892Z</time></trkpt><trkpt lat="45.8651905" lon="12.1092477"><ele>117.0</ele><time>2026-05-02T08:07:20.892Z</time></trkpt><trkpt lat="45.865161" lon="12.1089909"><ele>117.0</ele><time>2026-05-02T08:07:21.892Z</time></trkpt><trkpt lat="45.8651264" lon="12.1087409"><ele>117.0</ele><time>2026-05-02T08:07:22.891Z</time></trkpt><trkpt lat="45.8650944" lon="12.1085038"><ele>117.0</ele><time>2026-05-02T08:07:23.892Z</time></trkpt><trkpt lat="45.8650699" lon="12.1082832"><ele>117.0</ele><time>2026-05-02T08:07:24.892Z</time></trkpt><trkpt lat="45.8650486" lon="12.1080771"><ele>117.0</ele><time>2026-05-02T08:07:25.892Z</time></trkpt><trkpt lat="45.8650272" lon="12.107891"><ele>117.0</ele><time>2026-05-02T08:07:26.892Z</time></trkpt><trkpt lat="45.8650046" lon="12.1076932"><ele>117.0</ele><time>2026-05-02T08:07:27.891Z</time></trkpt><trkpt lat="45.8649845" lon="12.1074965"><ele>117.0</ele><time>2026-05-02T08:07:28.892Z</time></trkpt><trkpt lat="45.8649682" lon="12.1073174"><ele>117.39999999999999</ele><time>2026-05-02T08:07:29.892Z</time></trkpt><trkpt lat="45.8649543" lon="12.1071565"><ele>117.79999999999998</ele><time>2026-05-02T08:07:30.891Z</time></trkpt><trkpt lat="45.8649533" lon="12.1070105"><ele>118.2</ele><time>2026-05-02T08:07:31.891Z</time></trkpt><trkpt lat="45.8649704" lon="12.1068735"><ele>118.6</ele><time>2026-05-02T08:07:32.893Z</time></trkpt><trkpt lat="45.8649802" lon="12.1067356"><ele>119.0</ele><time>2026-05-02T08:07:33.893Z</time></trkpt><trkpt lat="45.8649615" lon="12.1066"><ele>119.5</ele><time>2026-05-02T08:07:34.892Z</time></trkpt><trkpt lat="45.8649051" lon="12.1064708"><ele>120.0</ele><time>2026-05-02T08:07:35.892Z</time></trkpt><trkpt lat="45.8648483" lon="12.1063198"><ele>120.5</ele><time>2026-05-02T08:07:36.893Z</time></trkpt><trkpt lat="45.8648097" lon="12.1061395"><ele>121.0</ele><time>2026-05-02T08:07:37.893Z</time></trkpt><trkpt lat="45.8647949" lon="12.1059318"><ele>120.75</ele><time>2026-05-02T08:07:38.892Z</time></trkpt><trkpt lat="45.8647757" lon="12.1057324"><ele>120.5</ele><time>2026-05-02T08:07:39.893Z</time></trkpt><trkpt lat="45.8647576" lon="12.1055525"><ele>120.25</ele><time>2026-05-02T08:07:40.892Z</time></trkpt><trkpt lat="45.8647377" lon="12.1053974"><ele>120.0</ele><time>2026-05-02T08:07:41.893Z</time></trkpt><trkpt lat="45.8647188" lon="12.1052322"><ele>120.0</ele><time>2026-05-02T08:07:42.893Z</time></trkpt><trkpt lat="45.8647004" lon="12.1050554"><ele>120.0</ele><time>2026-05-02T08:07:43.892Z</time></trkpt><trkpt lat="45.8646741" lon="12.1048714"><ele>120.0</ele><time>2026-05-02T08:07:44.893Z</time></trkpt><trkpt lat="45.8646482" lon="12.1046673"><ele>120.0</ele><time>2026-05-02T08:07:45.893Z</time></trkpt><trkpt lat="45.8646257" lon="12.1044561"><ele>120.33333333333334</ele><time>2026-05-02T08:07:46.893Z</time></trkpt><trkpt lat="45.8646028" lon="12.1042419"><ele>120.66666666666667</ele><time>2026-05-02T08:07:47.892Z</time></trkpt><trkpt lat="45.8645782" lon="12.1040314"><ele>121.0</ele><time>2026-05-02T08:07:48.893Z</time></trkpt><trkpt lat="45.8645556" lon="12.1038123"><ele>121.0</ele><time>2026-05-02T08:07:49.893Z</time></trkpt><trkpt lat="45.8645293" lon="12.1035916"><ele>121.0</ele><time>2026-05-02T08:07:50.893Z</time></trkpt><trkpt lat="45.8645032" lon="12.1033795"><ele>121.0</ele><time>2026-05-02T08:07:51.892Z</time></trkpt><trkpt lat="45.8644782" lon="12.1031569"><ele>121.66666666666667</ele><time>2026-05-02T08:07:52.893Z</time></trkpt><trkpt lat="45.8644543" lon="12.1029354"><ele>122.33333333333334</ele><time>2026-05-02T08:07:53.893Z</time></trkpt><trkpt lat="45.8644279" lon="12.1027184"><ele>123.0</ele><time>2026-05-02T08:07:54.893Z</time></trkpt><trkpt lat="45.8644007" lon="12.1024973"><ele>123.0</ele><time>2026-05-02T08:07:55.892Z</time></trkpt><trkpt lat="45.8643746" lon="12.102274"><ele>123.0</ele><time>2026-05-02T08:07:56.892Z</time></trkpt><trkpt lat="45.8643491" lon="12.1020534"><ele>123.0</ele><time>2026-05-02T08:07:57.892Z</time></trkpt><trkpt lat="45.8643229" lon="12.1018353"><ele>123.0</ele><time>2026-05-02T08:07:58.893Z</time></trkpt><trkpt lat="45.8642958" lon="12.1016177"><ele>123.0</ele><time>2026-05-02T08:07:59.892Z</time></trkpt><trkpt lat="45.8642703" lon="12.1013991"><ele>123.0</ele><time>2026-05-02T08:08:00.893Z</time></trkpt><trkpt lat="45.8642459" lon="12.1011796"><ele>123.0</ele><time>2026-05-02T08:08:01.893Z</time></trkpt><trkpt lat="45.8642227" lon="12.1009626"><ele>123.0</ele><time>2026-05-02T08:08:02.893Z</time></trkpt><trkpt lat="45.8641987" lon="12.100746"><ele>123.0</ele><time>2026-05-02T08:08:03.893Z</time></trkpt><trkpt lat="45.8641732" lon="12.1005306"><ele>122.66666666666666</ele><time>2026-05-02T08:08:04.892Z</time></trkpt><trkpt lat="45.8641469" lon="12.1003174"><ele>122.33333333333333</ele><time>2026-05-02T08:08:05.893Z</time></trkpt><trkpt lat="45.8641209" lon="12.1001034"><ele>122.0</ele><time>2026-05-02T08:08:06.893Z</time></trkpt><trkpt lat="45.8640964" lon="12.0998848"><ele>122.66666666666666</ele><time>2026-05-02T08:08:07.892Z</time></trkpt><trkpt lat="45.8640714" lon="12.0996589"><ele>123.33333333333334</ele><time>2026-05-02T08:08:08.893Z</time></trkpt><trkpt lat="45.8640448" lon="12.0994264"><ele>124.0</ele><time>2026-05-02T08:08:09.893Z</time></trkpt><trkpt lat="45.8640167" lon="12.0991893"><ele>124.0</ele><time>2026-05-02T08:08:10.893Z</time></trkpt><trkpt lat="45.8639885" lon="12.0989515"><ele>124.0</ele><time>2026-05-02T08:08:11.892Z</time></trkpt><trkpt lat="45.8639624" lon="12.098723"><ele>124.0</ele><time>2026-05-02T08:08:12.893Z</time></trkpt><trkpt lat="45.8639392" lon="12.0985074"><ele>124.0</ele><time>2026-05-02T08:08:13.892Z</time></trkpt><trkpt lat="45.8639173" lon="12.0982909"><ele>124.0</ele><time>2026-05-02T08:08:14.893Z</time></trkpt><trkpt lat="45.8638963" lon="12.0980704"><ele>124.0</ele><time>2026-05-02T08:08:15.892Z</time></trkpt><trkpt lat="45.8638773" lon="12.0978453"><ele>124.33333333333334</ele><time>2026-05-02T08:08:16.893Z</time></trkpt><trkpt lat="45.8638626" lon="12.0976152"><ele>124.66666666666666</ele><time>2026-05-02T08:08:17.892Z</time></trkpt><trkpt lat="45.8638524" lon="12.0973801"><ele>125.0</ele><time>2026-05-02T08:08:18.893Z</time></trkpt><trkpt lat="45.863845" lon="12.0971402"><ele>125.33333333333333</ele><time>2026-05-02T08:08:19.893Z</time></trkpt><trkpt lat="45.8638402" lon="12.0968958"><ele>125.66666666666666</ele><time>2026-05-02T08:08:20.892Z</time></trkpt><trkpt lat="45.8638392" lon="12.0966489"><ele>126.0</ele><time>2026-05-02T08:08:21.893Z</time></trkpt><trkpt lat="45.8638436" lon="12.0964009"><ele>126.0</ele><time>2026-05-02T08:08:22.893Z</time></trkpt><trkpt lat="45.8638521" lon="12.0961523"><ele>126.0</ele><time>2026-05-02T08:08:23.892Z</time></trkpt><trkpt lat="45.863864" lon="12.0958993"><ele>126.0</ele><time>2026-05-02T08:08:24.893Z</time></trkpt><trkpt lat="45.8638804" lon="12.0956453"><ele>125.66666666666666</ele><time>2026-05-02T08:08:25.893Z</time></trkpt><trkpt lat="45.8639002" lon="12.0953951"><ele>125.33333333333333</ele><time>2026-05-02T08:08:26.892Z</time></trkpt><trkpt lat="45.8639203" lon="12.0951541"><ele>125.0</ele><time>2026-05-02T08:08:27.892Z</time></trkpt><trkpt lat="45.8639405" lon="12.0949256"><ele>125.5</ele><time>2026-05-02T08:08:28.893Z</time></trkpt><trkpt lat="45.8639603" lon="12.0947122"><ele>126.0</ele><time>2026-05-02T08:08:29.893Z</time></trkpt><trkpt lat="45.8639803" lon="12.0945117"><ele>126.5</ele><time>2026-05-02T08:08:30.893Z</time></trkpt><trkpt lat="45.8640002" lon="12.0943202"><ele>127.0</ele><time>2026-05-02T08:08:31.892Z</time></trkpt><trkpt lat="45.8640228" lon="12.0941219"><ele>126.66666666666667</ele><time>2026-05-02T08:08:32.892Z</time></trkpt><trkpt lat="45.8640498" lon="12.0939157"><ele>126.33333333333334</ele><time>2026-05-02T08:08:33.892Z</time></trkpt><trkpt lat="45.8640814" lon="12.0936972"><ele>126.0</ele><time>2026-05-02T08:08:34.892Z</time></trkpt><trkpt lat="45.8641142" lon="12.093465"><ele>125.33333333333334</ele><time>2026-05-02T08:08:35.892Z</time></trkpt><trkpt lat="45.8641479" lon="12.0932219"><ele>124.66666666666667</ele><time>2026-05-02T08:08:36.894Z</time></trkpt><trkpt lat="45.8641817" lon="12.0929711"><ele>124.0</ele><time>2026-05-02T08:08:37.894Z</time></trkpt><trkpt lat="45.8642142" lon="12.0927137"><ele>124.0</ele><time>2026-05-02T08:08:38.894Z</time></trkpt><trkpt lat="45.8642459" lon="12.092465"><ele>124.0</ele><time>2026-05-02T08:08:39.893Z</time></trkpt><trkpt lat="45.8642735" lon="12.0922017"><ele>124.0</ele><time>2026-05-02T08:08:40.894Z</time></trkpt><trkpt lat="45.864293" lon="12.0919259"><ele>124.33333333333334</ele><time>2026-05-02T08:08:41.894Z</time></trkpt><trkpt lat="45.8642986" lon="12.091627"><ele>124.66666666666666</ele><time>2026-05-02T08:08:42.894Z</time></trkpt><trkpt lat="45.8642996" lon="12.0913245"><ele>125.0</ele><time>2026-05-02T08:08:43.894Z</time></trkpt><trkpt lat="45.8642833" lon="12.0909984"><ele>125.33333333333333</ele><time>2026-05-02T08:08:44.893Z</time></trkpt><trkpt lat="45.8642665" lon="12.0906764"><ele>125.66666666666666</ele><time>2026-05-02T08:08:45.893Z</time></trkpt><trkpt lat="45.8642515" lon="12.0903692"><ele>126.0</ele><time>2026-05-02T08:08:46.894Z</time></trkpt><trkpt lat="45.8642326" lon="12.0900832"><ele>126.0</ele><time>2026-05-02T08:08:47.893Z</time></trkpt><trkpt lat="45.8642156" lon="12.0898189"><ele>126.0</ele><time>2026-05-02T08:08:48.894Z</time></trkpt><trkpt lat="45.8641971" lon="12.0895452"><ele>126.0</ele><time>2026-05-02T08:08:49.893Z</time></trkpt><trkpt lat="45.8641772" lon="12.0892718"><ele>126.33333333333334</ele><time>2026-05-02T08:08:50.893Z</time></trkpt><trkpt lat="45.8641507" lon="12.0889873"><ele>126.66666666666667</ele><time>2026-05-02T08:08:51.893Z</time></trkpt><trkpt lat="45.8641105" lon="12.0887129"><ele>127.0</ele><time>2026-05-02T08:08:52.894Z</time></trkpt><trkpt lat="45.864067" lon="12.0884506"><ele>127.0</ele><time>2026-05-02T08:08:53.894Z</time></trkpt><trkpt lat="45.8640213" lon="12.0882119"><ele>127.0</ele><time>2026-05-02T08:08:54.894Z</time></trkpt><trkpt lat="45.863968" lon="12.0879713"><ele>127.0</ele><time>2026-05-02T08:08:55.893Z</time></trkpt><trkpt lat="45.863909" lon="12.087727"><ele>127.0</ele><time>2026-05-02T08:08:56.893Z</time></trkpt><trkpt lat="45.8638454" lon="12.0874795"><ele>127.0</ele><time>2026-05-02T08:08:57.894Z</time></trkpt><trkpt lat="45.863782" lon="12.0872258"><ele>127.0</ele><time>2026-05-02T08:08:58.893Z</time></trkpt><trkpt lat="45.8637152" lon="12.0869749"><ele>127.0</ele><time>2026-05-02T08:08:59.894Z</time></trkpt><trkpt lat="45.8636535" lon="12.0867198"><ele>127.0</ele><time>2026-05-02T08:09:00.894Z</time></trkpt><trkpt lat="45.8635958" lon="12.0864743"><ele>127.0</ele><time>2026-05-02T08:09:01.893Z</time></trkpt><trkpt lat="45.8635368" lon="12.0862328"><ele>127.33333333333334</ele><time>2026-05-02T08:09:02.894Z</time></trkpt><trkpt lat="45.8634809" lon="12.0859909"><ele>127.66666666666666</ele><time>2026-05-02T08:09:03.893Z</time></trkpt><trkpt lat="45.8634242" lon="12.0857483"><ele>128.0</ele><time>2026-05-02T08:09:04.894Z</time></trkpt><trkpt lat="45.863365" lon="12.0855195"><ele>128.0</ele><time>2026-05-02T08:09:05.894Z</time></trkpt><trkpt lat="45.8633086" lon="12.08529"><ele>128.0</ele><time>2026-05-02T08:09:06.893Z</time></trkpt><trkpt lat="45.8632471" lon="12.0850546"><ele>128.0</ele><time>2026-05-02T08:09:07.894Z</time></trkpt><trkpt lat="45.8631888" lon="12.0848215"><ele>128.0</ele><time>2026-05-02T08:09:08.893Z</time></trkpt><trkpt lat="45.8631301" lon="12.084588"><ele>128.0</ele><time>2026-05-02T08:09:09.894Z</time></trkpt><trkpt lat="45.863071" lon="12.0843476"><ele>128.0</ele><time>2026-05-02T08:09:10.893Z</time></trkpt><trkpt lat="45.8630177" lon="12.0841119"><ele>128.66666666666666</ele><time>2026-05-02T08:09:11.894Z</time></trkpt><trkpt lat="45.8629576" lon="12.0838791"><ele>129.33333333333334</ele><time>2026-05-02T08:09:12.893Z</time></trkpt><trkpt lat="45.8628964" lon="12.0836512"><ele>130.0</ele><time>2026-05-02T08:09:13.894Z</time></trkpt><trkpt lat="45.8628362" lon="12.0834123"><ele>131.0</ele><time>2026-05-02T08:09:14.894Z</time></trkpt><trkpt lat="45.8627827" lon="12.0831809"><ele>132.0</ele><time>2026-05-02T08:09:15.894Z</time></trkpt><trkpt lat="45.8627266" lon="12.0829538"><ele>133.0</ele><time>2026-05-02T08:09:16.894Z</time></trkpt><trkpt lat="45.8626714" lon="12.0827316"><ele>132.66666666666669</ele><time>2026-05-02T08:09:17.894Z</time></trkpt><trkpt lat="45.8626132" lon="12.0825095"><ele>132.33333333333334</ele><time>2026-05-02T08:09:18.894Z</time></trkpt><trkpt lat="45.8625561" lon="12.0822941"><ele>132.0</ele><time>2026-05-02T08:09:19.894Z</time></trkpt><trkpt lat="45.8624951" lon="12.0820774"><ele>132.0</ele><time>2026-05-02T08:09:20.893Z</time></trkpt><trkpt lat="45.8624348" lon="12.0818654"><ele>132.0</ele><time>2026-05-02T08:09:21.894Z</time></trkpt><trkpt lat="45.8623756" lon="12.0816592"><ele>132.0</ele><time>2026-05-02T08:09:22.894Z</time></trkpt><trkpt lat="45.8623201" lon="12.0814436"><ele>131.33333333333334</ele><time>2026-05-02T08:09:23.893Z</time></trkpt><trkpt lat="45.8622597" lon="12.0812234"><ele>130.66666666666669</ele><time>2026-05-02T08:09:24.894Z</time></trkpt><trkpt lat="45.8621994" lon="12.0810028"><ele>130.0</ele><time>2026-05-02T08:09:25.893Z</time></trkpt><trkpt lat="45.8621362" lon="12.0807862"><ele>130.0</ele><time>2026-05-02T08:09:26.893Z</time></trkpt><trkpt lat="45.8620717" lon="12.0805584"><ele>130.0</ele><time>2026-05-02T08:09:27.893Z</time></trkpt><trkpt lat="45.8620041" lon="12.0803214"><ele>130.0</ele><time>2026-05-02T08:09:28.893Z</time></trkpt><trkpt lat="45.8619344" lon="12.0800845"><ele>130.33333333333334</ele><time>2026-05-02T08:09:29.894Z</time></trkpt><trkpt lat="45.8618684" lon="12.0798447"><ele>130.66666666666666</ele><time>2026-05-02T08:09:30.893Z</time></trkpt><trkpt lat="45.8618024" lon="12.079609"><ele>131.0</ele><time>2026-05-02T08:09:31.893Z</time></trkpt><trkpt lat="45.8617436" lon="12.0793966"><ele>131.33333333333331</ele><time>2026-05-02T08:09:32.894Z</time></trkpt><trkpt lat="45.8616859" lon="12.0791913"><ele>131.66666666666666</ele><time>2026-05-02T08:09:33.894Z</time></trkpt><trkpt lat="45.8616261" lon="12.07899"><ele>132.0</ele><time>2026-05-02T08:09:34.893Z</time></trkpt><trkpt lat="45.8615668" lon="12.0787809"><ele>132.33333333333334</ele><time>2026-05-02T08:09:35.894Z</time></trkpt><trkpt lat="45.8615051" lon="12.0785758"><ele>132.66666666666669</ele><time>2026-05-02T08:09:36.894Z</time></trkpt><trkpt lat="45.8614453" lon="12.0783689"><ele>133.0</ele><time>2026-05-02T08:09:37.895Z</time></trkpt><trkpt lat="45.861393" lon="12.0781691"><ele>133.0</ele><time>2026-05-02T08:09:38.894Z</time></trkpt><trkpt lat="45.8613409" lon="12.0779841"><ele>133.0</ele><time>2026-05-02T08:09:39.895Z</time></trkpt><trkpt lat="45.8612941" lon="12.077811"><ele>133.0</ele><time>2026-05-02T08:09:40.894Z</time></trkpt><trkpt lat="45.8612487" lon="12.0776567"><ele>133.0</ele><time>2026-05-02T08:09:41.895Z</time></trkpt><trkpt lat="45.861197" lon="12.0775048"><ele>133.20000000000002</ele><time>2026-05-02T08:09:42.895Z</time></trkpt><trkpt lat="45.8611338" lon="12.0773638"><ele>133.4</ele><time>2026-05-02T08:09:43.894Z</time></trkpt><trkpt lat="45.8610667" lon="12.0772376"><ele>133.60000000000002</ele><time>2026-05-02T08:09:44.895Z</time></trkpt><trkpt lat="45.8610045" lon="12.0771254"><ele>133.8</ele><time>2026-05-02T08:09:45.895Z</time></trkpt><trkpt lat="45.860945" lon="12.0770346"><ele>134.0</ele><time>2026-05-02T08:09:46.895Z</time></trkpt><trkpt lat="45.8608922" lon="12.0769518"><ele>134.0</ele><time>2026-05-02T08:09:47.895Z</time></trkpt><trkpt lat="45.860842" lon="12.076852"><ele>134.0</ele><time>2026-05-02T08:09:48.895Z</time></trkpt><trkpt lat="45.8608107" lon="12.0767434"><ele>134.0</ele><time>2026-05-02T08:09:49.895Z</time></trkpt><trkpt lat="45.8607938" lon="12.0766157"><ele>134.0</ele><time>2026-05-02T08:09:50.894Z</time></trkpt><trkpt lat="45.8607913" lon="12.076475"><ele>134.0</ele><time>2026-05-02T08:09:51.894Z</time></trkpt><trkpt lat="45.8608043" lon="12.07633"><ele>134.25</ele><time>2026-05-02T08:09:52.894Z</time></trkpt><trkpt lat="45.8608015" lon="12.0761796"><ele>134.5</ele><time>2026-05-02T08:09:53.894Z</time></trkpt><trkpt lat="45.860771" lon="12.0760195"><ele>134.75</ele><time>2026-05-02T08:09:54.895Z</time></trkpt><trkpt lat="45.8607254" lon="12.075846"><ele>135.0</ele><time>2026-05-02T08:09:55.895Z</time></trkpt><trkpt lat="45.8606953" lon="12.0756601"><ele>135.0</ele><time>2026-05-02T08:09:56.894Z</time></trkpt><trkpt lat="45.8606828" lon="12.0754494"><ele>135.0</ele><time>2026-05-02T08:09:57.895Z</time></trkpt><trkpt lat="45.8606834" lon="12.0752352"><ele>135.0</ele><time>2026-05-02T08:09:58.895Z</time></trkpt><trkpt lat="45.8606853" lon="12.0750209"><ele>135.0</ele><time>2026-05-02T08:09:59.895Z</time></trkpt><trkpt lat="45.8606756" lon="12.0748106"><ele>134.66666666666666</ele><time>2026-05-02T08:10:00.895Z</time></trkpt><trkpt lat="45.860647" lon="12.074594"><ele>134.33333333333331</ele><time>2026-05-02T08:10:01.894Z</time></trkpt><trkpt lat="45.8606179" lon="12.0743689"><ele>134.0</ele><time>2026-05-02T08:10:02.895Z</time></trkpt><trkpt lat="45.8605896" lon="12.074129"><ele>134.0</ele><time>2026-05-02T08:10:03.895Z</time></trkpt><trkpt lat="45.8605568" lon="12.0738762"><ele>134.0</ele><time>2026-05-02T08:10:04.895Z</time></trkpt><trkpt lat="45.8605239" lon="12.0736253"><ele>134.0</ele><time>2026-05-02T08:10:05.894Z</time></trkpt><trkpt lat="45.8604896" lon="12.0733787"><ele>134.0</ele><time>2026-05-02T08:10:06.894Z</time></trkpt><trkpt lat="45.8604574" lon="12.0731438"><ele>134.0</ele><time>2026-05-02T08:10:07.895Z</time></trkpt><trkpt lat="45.8604277" lon="12.0729135"><ele>134.0</ele><time>2026-05-02T08:10:08.894Z</time></trkpt><trkpt lat="45.8603967" lon="12.0726954"><ele>134.0</ele><time>2026-05-02T08:10:09.895Z</time></trkpt><trkpt lat="45.8603652" lon="12.0724668"><ele>134.0</ele><time>2026-05-02T08:10:10.894Z</time></trkpt><trkpt lat="45.8603353" lon="12.0722427"><ele>134.0</ele><time>2026-05-02T08:10:11.894Z</time></trkpt><trkpt lat="45.8602973" lon="12.0720111"><ele>134.0</ele><time>2026-05-02T08:10:12.894Z</time></trkpt><trkpt lat="45.8602598" lon="12.0717889"><ele>134.0</ele><time>2026-05-02T08:10:13.894Z</time></trkpt><trkpt lat="45.8602162" lon="12.0715697"><ele>134.0</ele><time>2026-05-02T08:10:14.895Z</time></trkpt><trkpt lat="45.8601738" lon="12.0713556"><ele>134.0</ele><time>2026-05-02T08:10:15.895Z</time></trkpt><trkpt lat="45.8601253" lon="12.071143"><ele>134.0</ele><time>2026-05-02T08:10:16.895Z</time></trkpt><trkpt lat="45.8600742" lon="12.0709343"><ele>134.0</ele><time>2026-05-02T08:10:17.894Z</time></trkpt><trkpt lat="45.8600221" lon="12.0707268"><ele>134.66666666666666</ele><time>2026-05-02T08:10:18.894Z</time></trkpt><trkpt lat="45.8599651" lon="12.0705021"><ele>135.33333333333334</ele><time>2026-05-02T08:10:19.895Z</time></trkpt><trkpt lat="45.8599105" lon="12.0702735"><ele>136.0</ele><time>2026-05-02T08:10:20.894Z</time></trkpt><trkpt lat="45.8598572" lon="12.0700397"><ele>136.33333333333334</ele><time>2026-05-02T08:10:21.894Z</time></trkpt><trkpt lat="45.8598013" lon="12.0698088"><ele>136.66666666666666</ele><time>2026-05-02T08:10:22.895Z</time></trkpt><trkpt lat="45.8597461" lon="12.0695958"><ele>137.0</ele><time>2026-05-02T08:10:23.895Z</time></trkpt><trkpt lat="45.8596993" lon="12.0693966"><ele>137.0</ele><time>2026-05-02T08:10:24.895Z</time></trkpt><trkpt lat="45.8596581" lon="12.0692015"><ele>137.0</ele><time>2026-05-02T08:10:25.895Z</time></trkpt><trkpt lat="45.8596157" lon="12.0690122"><ele>137.0</ele><time>2026-05-02T08:10:26.895Z</time></trkpt><trkpt lat="45.859576" lon="12.0688399"><ele>137.0</ele><time>2026-05-02T08:10:27.895Z</time></trkpt><trkpt lat="45.8595394" lon="12.0686826"><ele>137.0</ele><time>2026-05-02T08:10:28.894Z</time></trkpt><trkpt lat="45.8595015" lon="12.0685324"><ele>137.0</ele><time>2026-05-02T08:10:29.894Z</time></trkpt><trkpt lat="45.8594723" lon="12.0683828"><ele>137.0</ele><time>2026-05-02T08:10:30.895Z</time></trkpt><trkpt lat="45.8594491" lon="12.068227"><ele>137.0</ele><time>2026-05-02T08:10:31.895Z</time></trkpt><trkpt lat="45.8594341" lon="12.0680572"><ele>137.0</ele><time>2026-05-02T08:10:32.894Z</time></trkpt><trkpt lat="45.8594392" lon="12.0678932"><ele>137.0</ele><time>2026-05-02T08:10:33.895Z</time></trkpt><trkpt lat="45.8594602" lon="12.0677444"><ele>137.0</ele><time>2026-05-02T08:10:34.895Z</time></trkpt><trkpt lat="45.8594927" lon="12.0676113"><ele>137.0</ele><time>2026-05-02T08:10:35.895Z</time></trkpt><trkpt lat="45.8595217" lon="12.0674757"><ele>137.0</ele><time>2026-05-02T08:10:36.895Z</time></trkpt><trkpt lat="45.8595363" lon="12.0673286"><ele>137.2</ele><time>2026-05-02T08:10:37.895Z</time></trkpt><trkpt lat="45.8595265" lon="12.0671778"><ele>137.39999999999998</ele><time>2026-05-02T08:10:38.894Z</time></trkpt><trkpt lat="45.8594896" lon="12.0670442"><ele>137.60000000000002</ele><time>2026-05-02T08:10:39.895Z</time></trkpt><trkpt lat="45.859429" lon="12.0669228"><ele>137.8</ele><time>2026-05-02T08:10:40.896Z</time></trkpt><trkpt lat="45.859339" lon="12.0668148"><ele>138.0</ele><time>2026-05-02T08:10:41.895Z</time></trkpt><trkpt lat="45.8592412" lon="12.0667207"><ele>138.0</ele><time>2026-05-02T08:10:42.895Z</time></trkpt><trkpt lat="45.8591465" lon="12.0666208"><ele>138.0</ele><time>2026-05-02T08:10:43.896Z</time></trkpt><trkpt lat="45.8590639" lon="12.0664935"><ele>138.0</ele><time>2026-05-02T08:10:44.896Z</time></trkpt><trkpt lat="45.8589986" lon="12.0663476"><ele>138.0</ele><time>2026-05-02T08:10:45.895Z</time></trkpt><trkpt lat="45.8589537" lon="12.0661825"><ele>138.25</ele><time>2026-05-02T08:10:46.896Z</time></trkpt><trkpt lat="45.8589083" lon="12.0660137"><ele>138.5</ele><time>2026-05-02T08:10:47.895Z</time></trkpt><trkpt lat="45.8588679" lon="12.065859"><ele>138.75</ele><time>2026-05-02T08:10:48.895Z</time></trkpt><trkpt lat="45.8588281" lon="12.0657031"><ele>139.0</ele><time>2026-05-02T08:10:49.895Z</time></trkpt><trkpt lat="45.8587871" lon="12.0655342"><ele>139.0</ele><time>2026-05-02T08:10:50.896Z</time></trkpt><trkpt lat="45.8587443" lon="12.0653483"><ele>139.0</ele><time>2026-05-02T08:10:51.895Z</time></trkpt><trkpt lat="45.8587001" lon="12.0651641"><ele>139.0</ele><time>2026-05-02T08:10:52.896Z</time></trkpt><trkpt lat="45.858656" lon="12.064974"><ele>139.0</ele><time>2026-05-02T08:10:53.896Z</time></trkpt><trkpt lat="45.858609" lon="12.0647737"><ele>139.0</ele><time>2026-05-02T08:10:54.895Z</time></trkpt><trkpt lat="45.8585583" lon="12.0645685"><ele>139.0</ele><time>2026-05-02T08:10:55.896Z</time></trkpt><trkpt lat="45.8585078" lon="12.0643572"><ele>139.0</ele><time>2026-05-02T08:10:56.896Z</time></trkpt><trkpt lat="45.8584565" lon="12.0641401"><ele>139.66666666666669</ele><time>2026-05-02T08:10:57.895Z</time></trkpt><trkpt lat="45.8584039" lon="12.0639169"><ele>140.33333333333334</ele><time>2026-05-02T08:10:58.896Z</time></trkpt><trkpt lat="45.8583514" lon="12.0636896"><ele>141.0</ele><time>2026-05-02T08:10:59.895Z</time></trkpt><trkpt lat="45.8582982" lon="12.0634613"><ele>141.0</ele><time>2026-05-02T08:11:00.895Z</time></trkpt><trkpt lat="45.8582437" lon="12.0632314"><ele>141.0</ele><time>2026-05-02T08:11:01.895Z</time></trkpt><trkpt lat="45.8581903" lon="12.063002"><ele>141.0</ele><time>2026-05-02T08:11:02.895Z</time></trkpt><trkpt lat="45.8581376" lon="12.0627777"><ele>141.0</ele><time>2026-05-02T08:11:03.896Z</time></trkpt><trkpt lat="45.858089" lon="12.0625698"><ele>141.0</ele><time>2026-05-02T08:11:04.895Z</time></trkpt><trkpt lat="45.858044" lon="12.0623784"><ele>141.0</ele><time>2026-05-02T08:11:05.896Z</time></trkpt><trkpt lat="45.8580019" lon="12.0621969"><ele>141.0</ele><time>2026-05-02T08:11:06.896Z</time></trkpt><trkpt lat="45.857961" lon="12.0620141"><ele>141.25</ele><time>2026-05-02T08:11:07.895Z</time></trkpt><trkpt lat="45.8579238" lon="12.0618243"><ele>141.5</ele><time>2026-05-02T08:11:08.896Z</time></trkpt><trkpt lat="45.8578965" lon="12.0616262"><ele>141.75</ele><time>2026-05-02T08:11:09.896Z</time></trkpt><trkpt lat="45.8578837" lon="12.0614257"><ele>142.0</ele><time>2026-05-02T08:11:10.895Z</time></trkpt><trkpt lat="45.8578878" lon="12.0612262"><ele>142.0</ele><time>2026-05-02T08:11:11.896Z</time></trkpt><trkpt lat="45.8579058" lon="12.0610311"><ele>142.0</ele><time>2026-05-02T08:11:12.896Z</time></trkpt><trkpt lat="45.8579256" lon="12.0608421"><ele>142.0</ele><time>2026-05-02T08:11:13.895Z</time></trkpt><trkpt lat="45.857959" lon="12.0606553"><ele>142.0</ele><time>2026-05-02T08:11:14.895Z</time></trkpt><trkpt lat="45.8579957" lon="12.0604824"><ele>142.0</ele><time>2026-05-02T08:11:15.895Z</time></trkpt><trkpt lat="45.8580328" lon="12.0603185"><ele>142.0</ele><time>2026-05-02T08:11:16.895Z</time></trkpt><trkpt lat="45.8580686" lon="12.0601505"><ele>142.0</ele><time>2026-05-02T08:11:17.896Z</time></trkpt><trkpt lat="45.8581024" lon="12.0599727"><ele>142.0</ele><time>2026-05-02T08:11:18.895Z</time></trkpt><trkpt lat="45.8581337" lon="12.0597915"><ele>141.75</ele><time>2026-05-02T08:11:19.896Z</time></trkpt><trkpt lat="45.8581644" lon="12.0596082"><ele>141.5</ele><time>2026-05-02T08:11:20.895Z</time></trkpt><trkpt lat="45.858194" lon="12.0594185"><ele>141.25</ele><time>2026-05-02T08:11:21.895Z</time></trkpt><trkpt lat="45.8582207" lon="12.059222"><ele>141.0</ele><time>2026-05-02T08:11:22.896Z</time></trkpt><trkpt lat="45.8582459" lon="12.0590214"><ele>141.5</ele><time>2026-05-02T08:11:23.896Z</time></trkpt><trkpt lat="45.8582691" lon="12.0588193"><ele>142.0</ele><time>2026-05-02T08:11:24.895Z</time></trkpt><trkpt lat="45.85829" lon="12.0586269"><ele>142.5</ele><time>2026-05-02T08:11:25.896Z</time></trkpt><trkpt lat="45.8583083" lon="12.0584492"><ele>143.0</ele><time>2026-05-02T08:11:26.896Z</time></trkpt><trkpt lat="45.8583258" lon="12.0582799"><ele>143.0</ele><time>2026-05-02T08:11:27.895Z</time></trkpt><trkpt lat="45.8583425" lon="12.0581093"><ele>143.0</ele><time>2026-05-02T08:11:28.896Z</time></trkpt><trkpt lat="45.8583578" lon="12.0579414"><ele>143.0</ele><time>2026-05-02T08:11:29.895Z</time></trkpt><trkpt lat="45.8583718" lon="12.0577874"><ele>143.0</ele><time>2026-05-02T08:11:30.896Z</time></trkpt><trkpt lat="45.8583844" lon="12.0576479"><ele>143.0</ele><time>2026-05-02T08:11:31.896Z</time></trkpt><trkpt lat="45.8583956" lon="12.0575183"><ele>142.8</ele><time>2026-05-02T08:11:32.896Z</time></trkpt><trkpt lat="45.8584071" lon="12.0573871"><ele>142.60000000000002</ele><time>2026-05-02T08:11:33.896Z</time></trkpt><trkpt lat="45.8584194" lon="12.0572506"><ele>142.39999999999998</ele><time>2026-05-02T08:11:34.896Z</time></trkpt><trkpt lat="45.8584321" lon="12.0571077"><ele>142.2</ele><time>2026-05-02T08:11:35.895Z</time></trkpt><trkpt lat="45.8584456" lon="12.0569593"><ele>142.0</ele><time>2026-05-02T08:11:36.896Z</time></trkpt><trkpt lat="45.8584584" lon="12.0568128"><ele>142.0</ele><time>2026-05-02T08:11:37.895Z</time></trkpt><trkpt lat="45.858469" lon="12.0566551"><ele>142.0</ele><time>2026-05-02T08:11:38.895Z</time></trkpt><trkpt lat="45.8584739" lon="12.0565011"><ele>142.0</ele><time>2026-05-02T08:11:39.895Z</time></trkpt><trkpt lat="45.8584782" lon="12.0563441"><ele>142.0</ele><time>2026-05-02T08:11:40.895Z</time></trkpt><trkpt lat="45.8584771" lon="12.0561809"><ele>142.0</ele><time>2026-05-02T08:11:41.895Z</time></trkpt><trkpt lat="45.8584748" lon="12.0560191"><ele>142.25</ele><time>2026-05-02T08:11:42.896Z</time></trkpt><trkpt lat="45.85847" lon="12.055858"><ele>142.5</ele><time>2026-05-02T08:11:43.895Z</time></trkpt><trkpt lat="45.8584626" lon="12.0556963"><ele>142.75</ele><time>2026-05-02T08:11:44.897Z</time></trkpt><trkpt lat="45.858455" lon="12.0555353"><ele>143.0</ele><time>2026-05-02T08:11:45.895Z</time></trkpt><trkpt lat="45.8584473" lon="12.0553736"><ele>143.25</ele><time>2026-05-02T08:11:46.896Z</time></trkpt><trkpt lat="45.8584391" lon="12.0552119"><ele>143.5</ele><time>2026-05-02T08:11:47.896Z</time></trkpt><trkpt lat="45.8584302" lon="12.0550477"><ele>143.75</ele><time>2026-05-02T08:11:48.896Z</time></trkpt><trkpt lat="45.8584223" lon="12.0548761"><ele>144.0</ele><time>2026-05-02T08:11:49.897Z</time></trkpt><trkpt lat="45.8584134" lon="12.0546931"><ele>144.5</ele><time>2026-05-02T08:11:50.897Z</time></trkpt><trkpt lat="45.8584028" lon="12.054502"><ele>145.0</ele><time>2026-05-02T08:11:51.897Z</time></trkpt><trkpt lat="45.8583931" lon="12.0543108"><ele>145.5</ele><time>2026-05-02T08:11:52.897Z</time></trkpt><trkpt lat="45.858382" lon="12.0541124"><ele>146.0</ele><time>2026-05-02T08:11:53.896Z</time></trkpt><trkpt lat="45.8583705" lon="12.0539137"><ele>146.0</ele><time>2026-05-02T08:11:54.897Z</time></trkpt><trkpt lat="45.8583595" lon="12.0537152"><ele>146.0</ele><time>2026-05-02T08:11:55.896Z</time></trkpt><trkpt lat="45.8583484" lon="12.0535187"><ele>146.0</ele><time>2026-05-02T08:11:56.897Z</time></trkpt><trkpt lat="45.8583358" lon="12.0533218"><ele>146.0</ele><time>2026-05-02T08:11:57.897Z</time></trkpt><trkpt lat="45.8583198" lon="12.053125"><ele>146.0</ele><time>2026-05-02T08:11:58.896Z</time></trkpt><trkpt lat="45.8583012" lon="12.052929"><ele>146.0</ele><time>2026-05-02T08:11:59.897Z</time></trkpt><trkpt lat="45.85828" lon="12.0527362"><ele>146.0</ele><time>2026-05-02T08:12:00.896Z</time></trkpt><trkpt lat="45.8582583" lon="12.0525432"><ele>146.0</ele><time>2026-05-02T08:12:01.897Z</time></trkpt><trkpt lat="45.8582358" lon="12.052353"><ele>146.0</ele><time>2026-05-02T08:12:02.896Z</time></trkpt><trkpt lat="45.8582148" lon="12.0521702"><ele>146.0</ele><time>2026-05-02T08:12:03.896Z</time></trkpt><trkpt lat="45.8581927" lon="12.0519937"><ele>146.0</ele><time>2026-05-02T08:12:04.896Z</time></trkpt><trkpt lat="45.858172" lon="12.0518302"><ele>146.0</ele><time>2026-05-02T08:12:05.897Z</time></trkpt><trkpt lat="45.8581496" lon="12.0516675"><ele>146.25</ele><time>2026-05-02T08:12:06.897Z</time></trkpt><trkpt lat="45.8581263" lon="12.0514964"><ele>146.5</ele><time>2026-05-02T08:12:07.897Z</time></trkpt><trkpt lat="45.8581022" lon="12.0513184"><ele>146.75</ele><time>2026-05-02T08:12:08.896Z</time></trkpt><trkpt lat="45.8580778" lon="12.0511354"><ele>147.0</ele><time>2026-05-02T08:12:09.896Z</time></trkpt><trkpt lat="45.858053" lon="12.0509473"><ele>147.0</ele><time>2026-05-02T08:12:10.897Z</time></trkpt><trkpt lat="45.8580269" lon="12.0507471"><ele>147.0</ele><time>2026-05-02T08:12:11.896Z</time></trkpt><trkpt lat="45.857998" lon="12.0505265"><ele>147.0</ele><time>2026-05-02T08:12:12.897Z</time></trkpt><trkpt lat="45.8579675" lon="12.0502886"><ele>147.0</ele><time>2026-05-02T08:12:13.897Z</time></trkpt><trkpt lat="45.8579363" lon="12.0500406"><ele>147.0</ele><time>2026-05-02T08:12:14.897Z</time></trkpt><trkpt lat="45.8579078" lon="12.0498003"><ele>147.0</ele><time>2026-05-02T08:12:15.897Z</time></trkpt><trkpt lat="45.8578853" lon="12.0495776"><ele>147.0</ele><time>2026-05-02T08:12:16.897Z</time></trkpt><trkpt lat="45.8578682" lon="12.0493709"><ele>147.0</ele><time>2026-05-02T08:12:17.896Z</time></trkpt><trkpt lat="45.8578562" lon="12.0491723"><ele>147.0</ele><time>2026-05-02T08:12:18.896Z</time></trkpt><trkpt lat="45.8578497" lon="12.0489749"><ele>147.0</ele><time>2026-05-02T08:12:19.896Z</time></trkpt><trkpt lat="45.8578496" lon="12.0487847"><ele>147.0</ele><time>2026-05-02T08:12:20.896Z</time></trkpt><trkpt lat="45.8578541" lon="12.0486082"><ele>147.0</ele><time>2026-05-02T08:12:21.896Z</time></trkpt><trkpt lat="45.8578623" lon="12.0484337"><ele>147.0</ele><time>2026-05-02T08:12:22.896Z</time></trkpt><trkpt lat="45.8578753" lon="12.0482561"><ele>147.0</ele><time>2026-05-02T08:12:23.896Z</time></trkpt><trkpt lat="45.8578961" lon="12.0480766"><ele>147.25</ele><time>2026-05-02T08:12:24.897Z</time></trkpt><trkpt lat="45.857924" lon="12.0478986"><ele>147.5</ele><time>2026-05-02T08:12:25.897Z</time></trkpt><trkpt lat="45.8579579" lon="12.0477254"><ele>147.75</ele><time>2026-05-02T08:12:26.897Z</time></trkpt><trkpt lat="45.8579954" lon="12.0475608"><ele>148.0</ele><time>2026-05-02T08:12:27.896Z</time></trkpt><trkpt lat="45.8580344" lon="12.0474013"><ele>148.25</ele><time>2026-05-02T08:12:28.897Z</time></trkpt><trkpt lat="45.8580748" lon="12.0472463"><ele>148.5</ele><time>2026-05-02T08:12:29.896Z</time></trkpt><trkpt lat="45.8581233" lon="12.047088"><ele>148.75</ele><time>2026-05-02T08:12:30.896Z</time></trkpt><trkpt lat="45.858177" lon="12.0469277"><ele>149.0</ele><time>2026-05-02T08:12:31.897Z</time></trkpt><trkpt lat="45.8582382" lon="12.0467697"><ele>149.25</ele><time>2026-05-02T08:12:32.896Z</time></trkpt><trkpt lat="45.8583012" lon="12.0466133"><ele>149.5</ele><time>2026-05-02T08:12:33.897Z</time></trkpt><trkpt lat="45.8583704" lon="12.0464569"><ele>149.75</ele><time>2026-05-02T08:12:34.897Z</time></trkpt><trkpt lat="45.8584389" lon="12.0463108"><ele>150.0</ele><time>2026-05-02T08:12:35.897Z</time></trkpt><trkpt lat="45.8585037" lon="12.0461789"><ele>150.0</ele><time>2026-05-02T08:12:36.897Z</time></trkpt><trkpt lat="45.8585685" lon="12.0460534"><ele>150.0</ele><time>2026-05-02T08:12:37.897Z</time></trkpt><trkpt lat="45.8586351" lon="12.0459287"><ele>150.0</ele><time>2026-05-02T08:12:38.896Z</time></trkpt><trkpt lat="45.8587042" lon="12.0457984"><ele>150.0</ele><time>2026-05-02T08:12:39.896Z</time></trkpt><trkpt lat="45.8587733" lon="12.0456696"><ele>150.0</ele><time>2026-05-02T08:12:40.897Z</time></trkpt><trkpt lat="45.8588355" lon="12.0455533"><ele>150.0</ele><time>2026-05-02T08:12:41.896Z</time></trkpt><trkpt lat="45.8588927" lon="12.0454463"><ele>150.0</ele><time>2026-05-02T08:12:42.897Z</time></trkpt><trkpt lat="45.8589463" lon="12.0453448"><ele>150.0</ele><time>2026-05-02T08:12:43.897Z</time></trkpt><trkpt lat="45.8589932" lon="12.0452537"><ele>150.0</ele><time>2026-05-02T08:12:44.897Z</time></trkpt><trkpt lat="45.8590342" lon="12.0451748"><ele>150.0</ele><time>2026-05-02T08:12:45.897Z</time></trkpt><trkpt lat="45.8591042" lon="12.0450423"><ele>150.0</ele><time>2026-05-02T08:12:47.896Z</time></trkpt><trkpt lat="45.859165" lon="12.0449416"><ele>150.0</ele><time>2026-05-02T08:12:49.897Z</time></trkpt><trkpt lat="45.8592138" lon="12.044867"><ele>150.0</ele><time>2026-05-02T08:12:51.898Z</time></trkpt><trkpt lat="45.8592913" lon="12.0447858"><ele>150.0</ele><time>2026-05-02T08:12:54.897Z</time></trkpt><trkpt lat="45.8593653" lon="12.0447016"><ele>150.0</ele><time>2026-05-02T08:12:56.898Z</time></trkpt><trkpt lat="45.8594226" lon="12.0445261"><ele>150.0</ele><time>2026-05-02T08:12:58.897Z</time></trkpt><trkpt lat="45.8594548" lon="12.0444136"><ele>149.75</ele><time>2026-05-02T08:12:59.898Z</time></trkpt><trkpt lat="45.8595062" lon="12.0442987"><ele>149.5</ele><time>2026-05-02T08:13:00.898Z</time></trkpt><trkpt lat="45.8595754" lon="12.0441734"><ele>149.25</ele><time>2026-05-02T08:13:01.898Z</time></trkpt><trkpt lat="45.8596552" lon="12.0440322"><ele>149.0</ele><time>2026-05-02T08:13:02.898Z</time></trkpt><trkpt lat="45.8597365" lon="12.0438888"><ele>149.0</ele><time>2026-05-02T08:13:03.898Z</time></trkpt><trkpt lat="45.859823" lon="12.0437356"><ele>149.0</ele><time>2026-05-02T08:13:04.897Z</time></trkpt><trkpt lat="45.8599077" lon="12.0435892"><ele>149.0</ele><time>2026-05-02T08:13:05.898Z</time></trkpt><trkpt lat="45.8599889" lon="12.0434483"><ele>149.0</ele><time>2026-05-02T08:13:06.898Z</time></trkpt><trkpt lat="45.8600644" lon="12.0433144"><ele>149.0</ele><time>2026-05-02T08:13:07.897Z</time></trkpt><trkpt lat="45.8601331" lon="12.043193"><ele>149.0</ele><time>2026-05-02T08:13:08.898Z</time></trkpt><trkpt lat="45.8601966" lon="12.0430805"><ele>149.0</ele><time>2026-05-02T08:13:09.898Z</time></trkpt><trkpt lat="45.8602562" lon="12.0429711"><ele>149.0</ele><time>2026-05-02T08:13:10.898Z</time></trkpt><trkpt lat="45.8603145" lon="12.0428622"><ele>149.0</ele><time>2026-05-02T08:13:11.898Z</time></trkpt><trkpt lat="45.860375" lon="12.0427511"><ele>149.0</ele><time>2026-05-02T08:13:12.898Z</time></trkpt><trkpt lat="45.8604368" lon="12.0426382"><ele>149.0</ele><time>2026-05-02T08:13:13.898Z</time></trkpt><trkpt lat="45.8604991" lon="12.0425259"><ele>149.0</ele><time>2026-05-02T08:13:14.898Z</time></trkpt><trkpt lat="45.86056" lon="12.0424117"><ele>149.0</ele><time>2026-05-02T08:13:15.898Z</time></trkpt><trkpt lat="45.8606199" lon="12.0422969"><ele>149.0</ele><time>2026-05-02T08:13:16.898Z</time></trkpt><trkpt lat="45.8606813" lon="12.0421833"><ele>149.2</ele><time>2026-05-02T08:13:17.897Z</time></trkpt><trkpt lat="45.8607465" lon="12.0420691"><ele>149.4</ele><time>2026-05-02T08:13:18.898Z</time></trkpt><trkpt lat="45.8608136" lon="12.0419521"><ele>149.6</ele><time>2026-05-02T08:13:19.897Z</time></trkpt><trkpt lat="45.8608828" lon="12.0418279"><ele>149.8</ele><time>2026-05-02T08:13:20.897Z</time></trkpt><trkpt lat="45.8609579" lon="12.0416901"><ele>150.0</ele><time>2026-05-02T08:13:21.898Z</time></trkpt><trkpt lat="45.8610362" lon="12.0415436"><ele>150.0</ele><time>2026-05-02T08:13:22.897Z</time></trkpt><trkpt lat="45.8611112" lon="12.0413913"><ele>150.0</ele><time>2026-05-02T08:13:23.897Z</time></trkpt><trkpt lat="45.8611746" lon="12.0412306"><ele>150.0</ele><time>2026-05-02T08:13:24.898Z</time></trkpt><trkpt lat="45.8612333" lon="12.0410706"><ele>150.0</ele><time>2026-05-02T08:13:25.898Z</time></trkpt><trkpt lat="45.8612581" lon="12.040914"><ele>150.4</ele><time>2026-05-02T08:13:26.898Z</time></trkpt><trkpt lat="45.8612696" lon="12.0407708"><ele>150.8</ele><time>2026-05-02T08:13:27.897Z</time></trkpt><trkpt lat="45.8612692" lon="12.0406381"><ele>151.2</ele><time>2026-05-02T08:13:28.898Z</time></trkpt><trkpt lat="45.861263" lon="12.0405099"><ele>151.6</ele><time>2026-05-02T08:13:29.898Z</time></trkpt><trkpt lat="45.8612572" lon="12.0403818"><ele>152.0</ele><time>2026-05-02T08:13:30.897Z</time></trkpt><trkpt lat="45.8612507" lon="12.04026"><ele>152.0</ele><time>2026-05-02T08:13:31.898Z</time></trkpt><trkpt lat="45.8612445" lon="12.0401463"><ele>152.0</ele><time>2026-05-02T08:13:32.898Z</time></trkpt><trkpt lat="45.8612392" lon="12.0400327"><ele>152.0</ele><time>2026-05-02T08:13:33.898Z</time></trkpt><trkpt lat="45.8612402" lon="12.0399126"><ele>152.0</ele><time>2026-05-02T08:13:34.897Z</time></trkpt><trkpt lat="45.8612537" lon="12.0397881"><ele>152.0</ele><time>2026-05-02T08:13:35.898Z</time></trkpt><trkpt lat="45.8612715" lon="12.0396619"><ele>152.0</ele><time>2026-05-02T08:13:36.897Z</time></trkpt><trkpt lat="45.861304" lon="12.0395327"><ele>152.33333333333331</ele><time>2026-05-02T08:13:37.897Z</time></trkpt><trkpt lat="45.8613388" lon="12.0394067"><ele>152.66666666666666</ele><time>2026-05-02T08:13:38.898Z</time></trkpt><trkpt lat="45.8613719" lon="12.0392905"><ele>153.0</ele><time>2026-05-02T08:13:39.898Z</time></trkpt><trkpt lat="45.8614044" lon="12.0391791"><ele>153.33333333333334</ele><time>2026-05-02T08:13:40.897Z</time></trkpt><trkpt lat="45.8614358" lon="12.039066"><ele>153.66666666666669</ele><time>2026-05-02T08:13:41.897Z</time></trkpt><trkpt lat="45.8614703" lon="12.0389534"><ele>154.0</ele><time>2026-05-02T08:13:42.897Z</time></trkpt><trkpt lat="45.8615053" lon="12.0388391"><ele>154.8</ele><time>2026-05-02T08:13:43.898Z</time></trkpt><trkpt lat="45.8615288" lon="12.0387179"><ele>155.60000000000002</ele><time>2026-05-02T08:13:44.898Z</time></trkpt><trkpt lat="45.8615415" lon="12.0385874"><ele>156.4</ele><time>2026-05-02T08:13:45.897Z</time></trkpt><trkpt lat="45.8615383" lon="12.0384413"><ele>157.20000000000002</ele><time>2026-05-02T08:13:46.897Z</time></trkpt><trkpt lat="45.8615192" lon="12.0382827"><ele>158.0</ele><time>2026-05-02T08:13:47.897Z</time></trkpt><trkpt lat="45.8614871" lon="12.0381258"><ele>159.8</ele><time>2026-05-02T08:13:48.897Z</time></trkpt><trkpt lat="45.861446" lon="12.037978"><ele>161.60000000000002</ele><time>2026-05-02T08:13:49.899Z</time></trkpt><trkpt lat="45.8614104" lon="12.0378344"><ele>163.39999999999998</ele><time>2026-05-02T08:13:50.899Z</time></trkpt><trkpt lat="45.8613817" lon="12.0376877"><ele>165.2</ele><time>2026-05-02T08:13:51.898Z</time></trkpt><trkpt lat="45.8613597" lon="12.0375286"><ele>167.0</ele><time>2026-05-02T08:13:52.899Z</time></trkpt><trkpt lat="45.8613449" lon="12.0373625"><ele>167.0</ele><time>2026-05-02T08:13:53.899Z</time></trkpt><trkpt lat="45.8613314" lon="12.0371916"><ele>167.0</ele><time>2026-05-02T08:13:54.899Z</time></trkpt><trkpt lat="45.8613175" lon="12.0370247"><ele>167.0</ele><time>2026-05-02T08:13:55.899Z</time></trkpt><trkpt lat="45.8613118" lon="12.036867"><ele>167.0</ele><time>2026-05-02T08:13:56.898Z</time></trkpt><trkpt lat="45.8613202" lon="12.0367083"><ele>164.25</ele><time>2026-05-02T08:13:57.899Z</time></trkpt><trkpt lat="45.8613493" lon="12.0365493"><ele>161.5</ele><time>2026-05-02T08:13:58.899Z</time></trkpt><trkpt lat="45.8613982" lon="12.0363973"><ele>158.75</ele><time>2026-05-02T08:13:59.898Z</time></trkpt><trkpt lat="45.8614678" lon="12.0362608"><ele>156.0</ele><time>2026-05-02T08:14:00.898Z</time></trkpt><trkpt lat="45.8615503" lon="12.0361339"><ele>156.0</ele><time>2026-05-02T08:14:01.899Z</time></trkpt><trkpt lat="45.8616385" lon="12.0360088"><ele>156.0</ele><time>2026-05-02T08:14:02.898Z</time></trkpt><trkpt lat="45.8617288" lon="12.0358833"><ele>156.0</ele><time>2026-05-02T08:14:03.898Z</time></trkpt><trkpt lat="45.8618273" lon="12.0357629"><ele>156.0</ele><time>2026-05-02T08:14:04.899Z</time></trkpt><trkpt lat="45.8619368" lon="12.0356466"><ele>154.0</ele><time>2026-05-02T08:14:05.898Z</time></trkpt><trkpt lat="45.8620451" lon="12.0355303"><ele>152.0</ele><time>2026-05-02T08:14:06.899Z</time></trkpt><trkpt lat="45.8621505" lon="12.0353789"><ele>150.0</ele><time>2026-05-02T08:14:07.898Z</time></trkpt><trkpt lat="45.862249" lon="12.0352037"><ele>148.0</ele><time>2026-05-02T08:14:08.899Z</time></trkpt><trkpt lat="45.862351" lon="12.0350169"><ele>148.33333333333334</ele><time>2026-05-02T08:14:09.899Z</time></trkpt><trkpt lat="45.8624478" lon="12.0348236"><ele>148.66666666666666</ele><time>2026-05-02T08:14:10.899Z</time></trkpt><trkpt lat="45.8625368" lon="12.0346456"><ele>149.0</ele><time>2026-05-02T08:14:11.898Z</time></trkpt><trkpt lat="45.8626193" lon="12.0344804"><ele>149.0</ele><time>2026-05-02T08:14:12.899Z</time></trkpt><trkpt lat="45.8627022" lon="12.0343181"><ele>149.0</ele><time>2026-05-02T08:14:13.899Z</time></trkpt><trkpt lat="45.8627821" lon="12.0341561"><ele>149.0</ele><time>2026-05-02T08:14:14.898Z</time></trkpt><trkpt lat="45.8628589" lon="12.0339854"><ele>149.0</ele><time>2026-05-02T08:14:15.898Z</time></trkpt><trkpt lat="45.8629301" lon="12.0337914"><ele>151.66666666666666</ele><time>2026-05-02T08:14:16.898Z</time></trkpt><trkpt lat="45.8629912" lon="12.0335785"><ele>154.33333333333334</ele><time>2026-05-02T08:14:17.899Z</time></trkpt><trkpt lat="45.8630364" lon="12.0333531"><ele>157.0</ele><time>2026-05-02T08:14:18.899Z</time></trkpt><trkpt lat="45.8630668" lon="12.0331252"><ele>157.0</ele><time>2026-05-02T08:14:19.898Z</time></trkpt><trkpt lat="45.86308" lon="12.0328965"><ele>157.0</ele><time>2026-05-02T08:14:20.899Z</time></trkpt><trkpt lat="45.8630724" lon="12.0326697"><ele>157.0</ele><time>2026-05-02T08:14:21.899Z</time></trkpt><trkpt lat="45.863048" lon="12.0324427"><ele>157.66666666666669</ele><time>2026-05-02T08:14:22.898Z</time></trkpt><trkpt lat="45.8630087" lon="12.0322174"><ele>158.33333333333334</ele><time>2026-05-02T08:14:23.898Z</time></trkpt><trkpt lat="45.8629636" lon="12.0319952"><ele>159.0</ele><time>2026-05-02T08:14:24.898Z</time></trkpt><trkpt lat="45.8628996" lon="12.0317835"><ele>160.0</ele><time>2026-05-02T08:14:25.899Z</time></trkpt><trkpt lat="45.8628249" lon="12.03158"><ele>161.0</ele><time>2026-05-02T08:14:26.898Z</time></trkpt><trkpt lat="45.8627385" lon="12.03139"><ele>162.0</ele><time>2026-05-02T08:14:27.898Z</time></trkpt><trkpt lat="45.8626466" lon="12.0312113"><ele>160.5</ele><time>2026-05-02T08:14:28.899Z</time></trkpt><trkpt lat="45.8625596" lon="12.0310447"><ele>159.0</ele><time>2026-05-02T08:14:29.898Z</time></trkpt><trkpt lat="45.8624791" lon="12.0308873"><ele>157.5</ele><time>2026-05-02T08:14:30.898Z</time></trkpt><trkpt lat="45.8623962" lon="12.0307262"><ele>156.0</ele><time>2026-05-02T08:14:31.899Z</time></trkpt><trkpt lat="45.8623076" lon="12.0305553"><ele>156.0</ele><time>2026-05-02T08:14:32.899Z</time></trkpt><trkpt lat="45.8622158" lon="12.0303784"><ele>156.0</ele><time>2026-05-02T08:14:33.898Z</time></trkpt><trkpt lat="45.8621228" lon="12.0301963"><ele>156.0</ele><time>2026-05-02T08:14:34.899Z</time></trkpt><trkpt lat="45.8620278" lon="12.0300117"><ele>157.66666666666666</ele><time>2026-05-02T08:14:35.898Z</time></trkpt><trkpt lat="45.8619322" lon="12.0298235"><ele>159.33333333333331</ele><time>2026-05-02T08:14:36.898Z</time></trkpt><trkpt lat="45.8618368" lon="12.0296346"><ele>161.0</ele><time>2026-05-02T08:14:37.898Z</time></trkpt><trkpt lat="45.861739" lon="12.0294438"><ele>158.66666666666666</ele><time>2026-05-02T08:14:38.899Z</time></trkpt><trkpt lat="45.8616352" lon="12.0292446"><ele>156.33333333333334</ele><time>2026-05-02T08:14:39.899Z</time></trkpt><trkpt lat="45.861527" lon="12.0290297"><ele>154.0</ele><time>2026-05-02T08:14:40.898Z</time></trkpt><trkpt lat="45.8614255" lon="12.0288191"><ele>154.0</ele><time>2026-05-02T08:14:41.898Z</time></trkpt><trkpt lat="45.8613363" lon="12.0286202"><ele>154.0</ele><time>2026-05-02T08:14:42.899Z</time></trkpt><trkpt lat="45.8612534" lon="12.0284333"><ele>154.0</ele><time>2026-05-02T08:14:43.899Z</time></trkpt><trkpt lat="45.861187" lon="12.0282731"><ele>154.0</ele><time>2026-05-02T08:14:44.899Z</time></trkpt><trkpt lat="45.8611242" lon="12.02813"><ele>153.6</ele><time>2026-05-02T08:14:45.899Z</time></trkpt><trkpt lat="45.8610689" lon="12.0279986"><ele>153.2</ele><time>2026-05-02T08:14:46.898Z</time></trkpt><trkpt lat="45.8610217" lon="12.0278809"><ele>152.79999999999998</ele><time>2026-05-02T08:14:47.898Z</time></trkpt><trkpt lat="45.860982" lon="12.0277734"><ele>152.4</ele><time>2026-05-02T08:14:48.899Z</time></trkpt><trkpt lat="45.8609594" lon="12.0276603"><ele>152.0</ele><time>2026-05-02T08:14:49.899Z</time></trkpt><trkpt lat="45.8609613" lon="12.0275298"><ele>152.5</ele><time>2026-05-02T08:14:50.898Z</time></trkpt><trkpt lat="45.8609894" lon="12.0273906"><ele>153.0</ele><time>2026-05-02T08:14:51.898Z</time></trkpt><trkpt lat="45.8610328" lon="12.0272456"><ele>153.5</ele><time>2026-05-02T08:14:52.899Z</time></trkpt><trkpt lat="45.8610897" lon="12.0270951"><ele>154.0</ele><time>2026-05-02T08:14:53.898Z</time></trkpt><trkpt lat="45.8611641" lon="12.0269392"><ele>154.0</ele><time>2026-05-02T08:14:54.898Z</time></trkpt><trkpt lat="45.8612532" lon="12.0267814"><ele>154.0</ele><time>2026-05-02T08:14:55.9Z</time></trkpt><trkpt lat="45.8613507" lon="12.0266251"><ele>154.0</ele><time>2026-05-02T08:14:56.899Z</time></trkpt><trkpt lat="45.8614496" lon="12.0264673"><ele>154.0</ele><time>2026-05-02T08:14:57.899Z</time></trkpt><trkpt lat="45.8615356" lon="12.0263268"><ele>154.0</ele><time>2026-05-02T08:14:58.9Z</time></trkpt><trkpt lat="45.8616127" lon="12.0261991"><ele>154.0</ele><time>2026-05-02T08:14:59.899Z</time></trkpt><trkpt lat="45.8616897" lon="12.0260732"><ele>154.0</ele><time>2026-05-02T08:15:00.9Z</time></trkpt><trkpt lat="45.8617718" lon="12.0259466"><ele>154.0</ele><time>2026-05-02T08:15:01.899Z</time></trkpt><trkpt lat="45.8618591" lon="12.0258178"><ele>155.5</ele><time>2026-05-02T08:15:02.9Z</time></trkpt><trkpt lat="45.8619448" lon="12.0256851"><ele>157.0</ele><time>2026-05-02T08:15:03.9Z</time></trkpt><trkpt lat="45.862025" lon="12.025549"><ele>158.5</ele><time>2026-05-02T08:15:04.899Z</time></trkpt><trkpt lat="45.8621024" lon="12.0254204"><ele>160.0</ele><time>2026-05-02T08:15:05.899Z</time></trkpt><trkpt lat="45.8621796" lon="12.0252991"><ele>160.0</ele><time>2026-05-02T08:15:06.9Z</time></trkpt><trkpt lat="45.8622564" lon="12.0251813"><ele>160.0</ele><time>2026-05-02T08:15:07.9Z</time></trkpt><trkpt lat="45.8623341" lon="12.0250629"><ele>160.0</ele><time>2026-05-02T08:15:08.9Z</time></trkpt><trkpt lat="45.8624157" lon="12.0249419"><ele>160.0</ele><time>2026-05-02T08:15:09.9Z</time></trkpt><trkpt lat="45.8624998" lon="12.0248152"><ele>160.25</ele><time>2026-05-02T08:15:10.9Z</time></trkpt><trkpt lat="45.8625852" lon="12.0246817"><ele>160.5</ele><time>2026-05-02T08:15:11.899Z</time></trkpt><trkpt lat="45.8626739" lon="12.024545"><ele>160.75</ele><time>2026-05-02T08:15:12.9Z</time></trkpt><trkpt lat="45.8627649" lon="12.0244063"><ele>161.0</ele><time>2026-05-02T08:15:13.899Z</time></trkpt><trkpt lat="45.8628561" lon="12.0242634"><ele>161.75</ele><time>2026-05-02T08:15:14.899Z</time></trkpt><trkpt lat="45.8629428" lon="12.0241165"><ele>162.5</ele><time>2026-05-02T08:15:15.9Z</time></trkpt><trkpt lat="45.8630246" lon="12.0239679"><ele>163.25</ele><time>2026-05-02T08:15:16.9Z</time></trkpt><trkpt lat="45.8631034" lon="12.0238197"><ele>164.0</ele><time>2026-05-02T08:15:17.899Z</time></trkpt><trkpt lat="45.8631837" lon="12.0236776"><ele>164.0</ele><time>2026-05-02T08:15:18.9Z</time></trkpt><trkpt lat="45.8632636" lon="12.0235431"><ele>164.0</ele><time>2026-05-02T08:15:19.899Z</time></trkpt><trkpt lat="45.8633309" lon="12.0234168"><ele>164.0</ele><time>2026-05-02T08:15:20.9Z</time></trkpt><trkpt lat="45.8633898" lon="12.0232996"><ele>164.0</ele><time>2026-05-02T08:15:21.899Z</time></trkpt><trkpt lat="45.8634439" lon="12.02319"><ele>164.0</ele><time>2026-05-02T08:15:22.9Z</time></trkpt><trkpt lat="45.863497" lon="12.0230796"><ele>164.39999999999998</ele><time>2026-05-02T08:15:23.9Z</time></trkpt><trkpt lat="45.8635518" lon="12.0229619"><ele>164.8</ele><time>2026-05-02T08:15:24.899Z</time></trkpt><trkpt lat="45.86361" lon="12.0228351"><ele>165.2</ele><time>2026-05-02T08:15:25.899Z</time></trkpt><trkpt lat="45.8636708" lon="12.0226999"><ele>165.60000000000002</ele><time>2026-05-02T08:15:26.899Z</time></trkpt><trkpt lat="45.863736" lon="12.0225563"><ele>166.0</ele><time>2026-05-02T08:15:27.9Z</time></trkpt><trkpt lat="45.8638061" lon="12.0224031"><ele>166.75</ele><time>2026-05-02T08:15:28.899Z</time></trkpt><trkpt lat="45.8638787" lon="12.0222429"><ele>167.5</ele><time>2026-05-02T08:15:29.899Z</time></trkpt><trkpt lat="45.8639534" lon="12.0220835"><ele>168.25</ele><time>2026-05-02T08:15:30.9Z</time></trkpt><trkpt lat="45.8640287" lon="12.0219211"><ele>169.0</ele><time>2026-05-02T08:15:31.899Z</time></trkpt><trkpt lat="45.864105" lon="12.0217536"><ele>169.0</ele><time>2026-05-02T08:15:32.899Z</time></trkpt><trkpt lat="45.8641856" lon="12.0215788"><ele>169.0</ele><time>2026-05-02T08:15:33.899Z</time></trkpt><trkpt lat="45.8642704" lon="12.0213956"><ele>169.0</ele><time>2026-05-02T08:15:34.9Z</time></trkpt><trkpt lat="45.8643578" lon="12.0212058"><ele>168.66666666666669</ele><time>2026-05-02T08:15:35.9Z</time></trkpt><trkpt lat="45.8644469" lon="12.0210126"><ele>168.33333333333334</ele><time>2026-05-02T08:15:36.9Z</time></trkpt><trkpt lat="45.8645334" lon="12.0208251"><ele>168.0</ele><time>2026-05-02T08:15:37.9Z</time></trkpt><trkpt lat="45.8646136" lon="12.0206508"><ele>168.75</ele><time>2026-05-02T08:15:38.9Z</time></trkpt><trkpt lat="45.8646906" lon="12.0204816"><ele>169.5</ele><time>2026-05-02T08:15:39.9Z</time></trkpt><trkpt lat="45.8647672" lon="12.0203144"><ele>170.25</ele><time>2026-05-02T08:15:40.9Z</time></trkpt><trkpt lat="45.8648438" lon="12.0201496"><ele>171.0</ele><time>2026-05-02T08:15:41.9Z</time></trkpt><trkpt lat="45.8649202" lon="12.0199859"><ele>171.0</ele><time>2026-05-02T08:15:42.9Z</time></trkpt><trkpt lat="45.8649957" lon="12.019823"><ele>171.0</ele><time>2026-05-02T08:15:43.9Z</time></trkpt><trkpt lat="45.8650716" lon="12.0196581"><ele>171.0</ele><time>2026-05-02T08:15:44.899Z</time></trkpt><trkpt lat="45.8651483" lon="12.0194904"><ele>171.0</ele><time>2026-05-02T08:15:45.9Z</time></trkpt><trkpt lat="45.8652262" lon="12.019321"><ele>171.5</ele><time>2026-05-02T08:15:46.899Z</time></trkpt><trkpt lat="45.8653038" lon="12.0191512"><ele>172.0</ele><time>2026-05-02T08:15:47.9Z</time></trkpt><trkpt lat="45.8653824" lon="12.0189829"><ele>172.5</ele><time>2026-05-02T08:15:48.899Z</time></trkpt><trkpt lat="45.8654601" lon="12.0188163"><ele>173.0</ele><time>2026-05-02T08:15:49.9Z</time></trkpt><trkpt lat="45.865538" lon="12.0186517"><ele>173.25</ele><time>2026-05-02T08:15:50.899Z</time></trkpt><trkpt lat="45.8656184" lon="12.0184899"><ele>173.5</ele><time>2026-05-02T08:15:51.899Z</time></trkpt><trkpt lat="45.8657039" lon="12.0183312"><ele>173.75</ele><time>2026-05-02T08:15:52.9Z</time></trkpt><trkpt lat="45.8657934" lon="12.0181744"><ele>174.0</ele><time>2026-05-02T08:15:53.9Z</time></trkpt><trkpt lat="45.8658866" lon="12.0180161"><ele>174.0</ele><time>2026-05-02T08:15:54.9Z</time></trkpt><trkpt lat="45.8659825" lon="12.0178556"><ele>174.0</ele><time>2026-05-02T08:15:55.901Z</time></trkpt><trkpt lat="45.8660777" lon="12.0176997"><ele>174.0</ele><time>2026-05-02T08:15:56.899Z</time></trkpt><trkpt lat="45.8661674" lon="12.0175558"><ele>174.0</ele><time>2026-05-02T08:15:57.901Z</time></trkpt><trkpt lat="45.8662496" lon="12.0174214"><ele>174.0</ele><time>2026-05-02T08:15:58.9Z</time></trkpt><trkpt lat="45.8663324" lon="12.0172853"><ele>174.0</ele><time>2026-05-02T08:15:59.9Z</time></trkpt><trkpt lat="45.8664204" lon="12.0171388"><ele>174.0</ele><time>2026-05-02T08:16:00.901Z</time></trkpt><trkpt lat="45.8665128" lon="12.0169892"><ele>174.0</ele><time>2026-05-02T08:16:01.901Z</time></trkpt><trkpt lat="45.8666067" lon="12.0168387"><ele>174.0</ele><time>2026-05-02T08:16:02.9Z</time></trkpt><trkpt lat="45.8667004" lon="12.0166855"><ele>174.0</ele><time>2026-05-02T08:16:03.901Z</time></trkpt><trkpt lat="45.8667941" lon="12.0165315"><ele>174.0</ele><time>2026-05-02T08:16:04.901Z</time></trkpt><trkpt lat="45.8668852" lon="12.0163825"><ele>174.0</ele><time>2026-05-02T08:16:05.9Z</time></trkpt><trkpt lat="45.8669706" lon="12.0162453"><ele>174.25</ele><time>2026-05-02T08:16:06.9Z</time></trkpt><trkpt lat="45.8670518" lon="12.0161143"><ele>174.5</ele><time>2026-05-02T08:16:07.9Z</time></trkpt><trkpt lat="45.8671288" lon="12.0159858"><ele>174.75</ele><time>2026-05-02T08:16:08.901Z</time></trkpt><trkpt lat="45.8672036" lon="12.0158599"><ele>175.0</ele><time>2026-05-02T08:16:09.9Z</time></trkpt><trkpt lat="45.8672762" lon="12.0157437"><ele>175.0</ele><time>2026-05-02T08:16:10.901Z</time></trkpt><trkpt lat="45.867341" lon="12.0156388"><ele>175.0</ele><time>2026-05-02T08:16:11.9Z</time></trkpt><trkpt lat="45.8674001" lon="12.0155408"><ele>175.0</ele><time>2026-05-02T08:16:12.9Z</time></trkpt><trkpt lat="45.8674577" lon="12.0154429"><ele>175.0</ele><time>2026-05-02T08:16:13.901Z</time></trkpt><trkpt lat="45.8675176" lon="12.0153421"><ele>175.0</ele><time>2026-05-02T08:16:14.9Z</time></trkpt><trkpt lat="45.867577" lon="12.0152424"><ele>175.16666666666669</ele><time>2026-05-02T08:16:15.901Z</time></trkpt><trkpt lat="45.867627" lon="12.0151589"><ele>175.33333333333334</ele><time>2026-05-02T08:16:16.9Z</time></trkpt><trkpt lat="45.8676899" lon="12.0150563"><ele>175.5</ele><time>2026-05-02T08:16:18.9Z</time></trkpt><trkpt lat="45.8677288" lon="12.0149809"><ele>175.66666666666666</ele><time>2026-05-02T08:16:23.9Z</time></trkpt><trkpt lat="45.8677635" lon="12.01486"><ele>175.83333333333331</ele><time>2026-05-02T08:16:26.9Z</time></trkpt><trkpt lat="45.8677947" lon="12.0147813"><ele>176.0</ele><time>2026-05-02T08:16:27.901Z</time></trkpt><trkpt lat="45.8678288" lon="12.0146946"><ele>176.0</ele><time>2026-05-02T08:16:28.901Z</time></trkpt><trkpt lat="45.8678683" lon="12.0145814"><ele>176.0</ele><time>2026-05-02T08:16:29.901Z</time></trkpt><trkpt lat="45.8679065" lon="12.0144657"><ele>176.0</ele><time>2026-05-02T08:16:30.901Z</time></trkpt><trkpt lat="45.8679441" lon="12.0143407"><ele>176.0</ele><time>2026-05-02T08:16:31.9Z</time></trkpt><trkpt lat="45.8679795" lon="12.0142083"><ele>176.0</ele><time>2026-05-02T08:16:32.901Z</time></trkpt><trkpt lat="45.8680115" lon="12.0140885"><ele>176.0</ele><time>2026-05-02T08:16:33.9Z</time></trkpt><trkpt lat="45.8680389" lon="12.0139861"><ele>176.0</ele><time>2026-05-02T08:16:34.9Z</time></trkpt><trkpt lat="45.8680639" lon="12.0139018"><ele>176.0</ele><time>2026-05-02T08:16:35.9Z</time></trkpt><trkpt lat="45.868088" lon="12.0138177"><ele>176.0</ele><time>2026-05-02T08:16:36.901Z</time></trkpt><trkpt lat="45.8681129" lon="12.013731"><ele>176.0</ele><time>2026-05-02T08:16:37.901Z</time></trkpt><trkpt lat="45.8681502" lon="12.0135847"><ele>176.0</ele><time>2026-05-02T08:16:39.901Z</time></trkpt><trkpt lat="45.8681766" lon="12.0134874"><ele>176.0</ele><time>2026-05-02T08:16:41.9Z</time></trkpt><trkpt lat="45.8682104" lon="12.0133783"><ele>176.0</ele><time>2026-05-02T08:16:43.901Z</time></trkpt><trkpt lat="45.8682448" lon="12.0132727"><ele>176.0</ele><time>2026-05-02T08:16:45.901Z</time></trkpt><trkpt lat="45.8682824" lon="12.0131447"><ele>176.0</ele><time>2026-05-02T08:16:47.901Z</time></trkpt><trkpt lat="45.8683242" lon="12.0129872"><ele>176.0</ele><time>2026-05-02T08:16:49.901Z</time></trkpt><trkpt lat="45.8683505" lon="12.0128947"><ele>176.0</ele><time>2026-05-02T08:16:50.901Z</time></trkpt><trkpt lat="45.8683769" lon="12.0128034"><ele>176.33333333333331</ele><time>2026-05-02T08:16:51.9Z</time></trkpt><trkpt lat="45.8684203" lon="12.0126357"><ele>176.66666666666666</ele><time>2026-05-02T08:16:53.9Z</time></trkpt><trkpt lat="45.8684447" lon="12.0125476"><ele>177.0</ele><time>2026-05-02T08:16:54.9Z</time></trkpt><trkpt lat="45.8684726" lon="12.012452"><ele>177.33333333333334</ele><time>2026-05-02T08:16:55.901Z</time></trkpt><trkpt lat="45.8685039" lon="12.0123512"><ele>177.66666666666669</ele><time>2026-05-02T08:16:56.901Z</time></trkpt><trkpt lat="45.8685362" lon="12.0122516"><ele>178.0</ele><time>2026-05-02T08:16:57.9Z</time></trkpt><trkpt lat="45.8685787" lon="12.0121435"><ele>178.4</ele><time>2026-05-02T08:16:58.901Z</time></trkpt><trkpt lat="45.8686225" lon="12.012035"><ele>178.8</ele><time>2026-05-02T08:16:59.901Z</time></trkpt><trkpt lat="45.8686724" lon="12.011922"><ele>179.2</ele><time>2026-05-02T08:17:00.901Z</time></trkpt><trkpt lat="45.8687276" lon="12.0118095"><ele>179.6</ele><time>2026-05-02T08:17:01.901Z</time></trkpt><trkpt lat="45.8687843" lon="12.0116869"><ele>180.0</ele><time>2026-05-02T08:17:02.901Z</time></trkpt><trkpt lat="45.8688409" lon="12.0115694"><ele>180.0</ele><time>2026-05-02T08:17:03.902Z</time></trkpt><trkpt lat="45.8688955" lon="12.0114634"><ele>180.0</ele><time>2026-05-02T08:17:04.901Z</time></trkpt><trkpt lat="45.8689503" lon="12.0113558"><ele>180.0</ele><time>2026-05-02T08:17:05.901Z</time></trkpt><trkpt lat="45.8690049" lon="12.0112507"><ele>180.0</ele><time>2026-05-02T08:17:06.901Z</time></trkpt><trkpt lat="45.869052" lon="12.0111559"><ele>180.0</ele><time>2026-05-02T08:17:07.901Z</time></trkpt><trkpt lat="45.8690943" lon="12.0110773"><ele>180.0</ele><time>2026-05-02T08:17:08.902Z</time></trkpt><trkpt lat="45.8691658" lon="12.0109371"><ele>180.0</ele><time>2026-05-02T08:17:10.902Z</time></trkpt><trkpt lat="45.8692251" lon="12.0108192"><ele>180.0</ele><time>2026-05-02T08:17:12.902Z</time></trkpt><trkpt lat="45.8692716" lon="12.0107202"><ele>180.0</ele><time>2026-05-02T08:17:14.902Z</time></trkpt><trkpt lat="45.8693274" lon="12.0106149"><ele>180.0</ele><time>2026-05-02T08:17:16.901Z</time></trkpt><trkpt lat="45.8694017" lon="12.0104766"><ele>180.0</ele><time>2026-05-02T08:17:18.901Z</time></trkpt><trkpt lat="45.8694446" lon="12.0103983"><ele>180.0</ele><time>2026-05-02T08:17:19.902Z</time></trkpt><trkpt lat="45.8694897" lon="12.0103024"><ele>180.0</ele><time>2026-05-02T08:17:20.902Z</time></trkpt><trkpt lat="45.8695394" lon="12.0102009"><ele>180.0</ele><time>2026-05-02T08:17:21.901Z</time></trkpt><trkpt lat="45.869586" lon="12.0101089"><ele>180.0</ele><time>2026-05-02T08:17:22.901Z</time></trkpt><trkpt lat="45.8696328" lon="12.0100167"><ele>180.0</ele><time>2026-05-02T08:17:23.901Z</time></trkpt><trkpt lat="45.8696829" lon="12.0099193"><ele>180.0</ele><time>2026-05-02T08:17:24.901Z</time></trkpt><trkpt lat="45.8697358" lon="12.0098142"><ele>180.2</ele><time>2026-05-02T08:17:25.902Z</time></trkpt><trkpt lat="45.8697904" lon="12.0097056"><ele>180.4</ele><time>2026-05-02T08:17:26.902Z</time></trkpt><trkpt lat="45.8698462" lon="12.0095948"><ele>180.60000000000002</ele><time>2026-05-02T08:17:27.902Z</time></trkpt><trkpt lat="45.8699042" lon="12.0094836"><ele>180.8</ele><time>2026-05-02T08:17:28.902Z</time></trkpt><trkpt lat="45.8699637" lon="12.009374"><ele>181.0</ele><time>2026-05-02T08:17:29.901Z</time></trkpt><trkpt lat="45.8700213" lon="12.0092636"><ele>181.0</ele><time>2026-05-02T08:17:30.901Z</time></trkpt><trkpt lat="45.8700764" lon="12.0091518"><ele>181.0</ele><time>2026-05-02T08:17:31.902Z</time></trkpt><trkpt lat="45.8701268" lon="12.0090388"><ele>181.0</ele><time>2026-05-02T08:17:32.902Z</time></trkpt><trkpt lat="45.8701719" lon="12.008929"><ele>181.0</ele><time>2026-05-02T08:17:33.902Z</time></trkpt><trkpt lat="45.8702121" lon="12.0088232"><ele>181.0</ele><time>2026-05-02T08:17:34.902Z</time></trkpt><trkpt lat="45.8702525" lon="12.0087097"><ele>181.20000000000002</ele><time>2026-05-02T08:17:35.902Z</time></trkpt><trkpt lat="45.8702913" lon="12.0085881"><ele>181.4</ele><time>2026-05-02T08:17:36.902Z</time></trkpt><trkpt lat="45.8703311" lon="12.0084606"><ele>181.6</ele><time>2026-05-02T08:17:37.902Z</time></trkpt><trkpt lat="45.8703721" lon="12.0083284"><ele>181.8</ele><time>2026-05-02T08:17:38.901Z</time></trkpt><trkpt lat="45.8704135" lon="12.0081924"><ele>182.0</ele><time>2026-05-02T08:17:39.901Z</time></trkpt><trkpt lat="45.870456" lon="12.0080505"><ele>182.0</ele><time>2026-05-02T08:17:40.902Z</time></trkpt><trkpt lat="45.870504" lon="12.0079016"><ele>182.0</ele><time>2026-05-02T08:17:41.901Z</time></trkpt><trkpt lat="45.8705608" lon="12.0077403"><ele>182.0</ele><time>2026-05-02T08:17:42.901Z</time></trkpt><trkpt lat="45.8706349" lon="12.0075623"><ele>182.0</ele><time>2026-05-02T08:17:43.902Z</time></trkpt><trkpt lat="45.8707342" lon="12.0073839"><ele>182.0</ele><time>2026-05-02T08:17:44.901Z</time></trkpt><trkpt lat="45.8708513" lon="12.0072105"><ele>182.0</ele><time>2026-05-02T08:17:45.902Z</time></trkpt><trkpt lat="45.8709661" lon="12.0070602"><ele>182.0</ele><time>2026-05-02T08:17:46.902Z</time></trkpt><trkpt lat="45.8710749" lon="12.0069337"><ele>182.0</ele><time>2026-05-02T08:17:47.902Z</time></trkpt><trkpt lat="45.8711828" lon="12.006817"><ele>182.0</ele><time>2026-05-02T08:17:48.902Z</time></trkpt><trkpt lat="45.8712924" lon="12.0067008"><ele>182.0</ele><time>2026-05-02T08:17:49.902Z</time></trkpt><trkpt lat="45.8714067" lon="12.006581"><ele>182.0</ele><time>2026-05-02T08:17:50.901Z</time></trkpt><trkpt lat="45.8715269" lon="12.0064566"><ele>182.0</ele><time>2026-05-02T08:17:51.901Z</time></trkpt><trkpt lat="45.8716549" lon="12.0063228"><ele>182.0</ele><time>2026-05-02T08:17:52.901Z</time></trkpt><trkpt lat="45.8717903" lon="12.0061777"><ele>182.0</ele><time>2026-05-02T08:17:53.902Z</time></trkpt><trkpt lat="45.8719327" lon="12.0060272"><ele>182.0</ele><time>2026-05-02T08:17:54.901Z</time></trkpt><trkpt lat="45.8720808" lon="12.0058731"><ele>182.0</ele><time>2026-05-02T08:17:55.901Z</time></trkpt><trkpt lat="45.8722311" lon="12.0057179"><ele>182.0</ele><time>2026-05-02T08:17:56.902Z</time></trkpt><trkpt lat="45.8723794" lon="12.0055626"><ele>182.0</ele><time>2026-05-02T08:17:57.902Z</time></trkpt><trkpt lat="45.8725182" lon="12.0054167"><ele>182.0</ele><time>2026-05-02T08:17:58.901Z</time></trkpt><trkpt lat="45.872648" lon="12.0052817"><ele>182.0</ele><time>2026-05-02T08:17:59.902Z</time></trkpt><trkpt lat="45.8727726" lon="12.0051506"><ele>182.33333333333331</ele><time>2026-05-02T08:18:00.902Z</time></trkpt><trkpt lat="45.8728959" lon="12.0050206"><ele>182.66666666666666</ele><time>2026-05-02T08:18:01.901Z</time></trkpt><trkpt lat="45.8730228" lon="12.004892"><ele>183.0</ele><time>2026-05-02T08:18:02.901Z</time></trkpt><trkpt lat="45.8731524" lon="12.0047568"><ele>183.0</ele><time>2026-05-02T08:18:03.902Z</time></trkpt><trkpt lat="45.8732826" lon="12.0046146"><ele>183.0</ele><time>2026-05-02T08:18:04.903Z</time></trkpt><trkpt lat="45.8734132" lon="12.0044769"><ele>183.0</ele><time>2026-05-02T08:18:05.903Z</time></trkpt><trkpt lat="45.8735486" lon="12.0043498"><ele>183.0</ele><time>2026-05-02T08:18:06.903Z</time></trkpt><trkpt lat="45.8736925" lon="12.004239"><ele>183.0</ele><time>2026-05-02T08:18:07.903Z</time></trkpt><trkpt lat="45.8738449" lon="12.0041462"><ele>183.0</ele><time>2026-05-02T08:18:08.902Z</time></trkpt><trkpt lat="45.8740044" lon="12.0040703"><ele>183.0</ele><time>2026-05-02T08:18:09.902Z</time></trkpt><trkpt lat="45.8741682" lon="12.0040112"><ele>183.0</ele><time>2026-05-02T08:18:10.902Z</time></trkpt><trkpt lat="45.8743356" lon="12.0039631"><ele>183.0</ele><time>2026-05-02T08:18:11.902Z</time></trkpt><trkpt lat="45.8745049" lon="12.0039179"><ele>183.0</ele><time>2026-05-02T08:18:12.903Z</time></trkpt><trkpt lat="45.8746751" lon="12.00387"><ele>183.0</ele><time>2026-05-02T08:18:13.903Z</time></trkpt><trkpt lat="45.8748447" lon="12.00382"><ele>183.0</ele><time>2026-05-02T08:18:14.903Z</time></trkpt><trkpt lat="45.8750175" lon="12.0037731"><ele>183.0</ele><time>2026-05-02T08:18:15.903Z</time></trkpt><trkpt lat="45.8752004" lon="12.003736"><ele>183.0</ele><time>2026-05-02T08:18:16.903Z</time></trkpt><trkpt lat="45.8753861" lon="12.0036878"><ele>183.0</ele><time>2026-05-02T08:18:17.903Z</time></trkpt><trkpt lat="45.8755699" lon="12.0036392"><ele>183.0</ele><time>2026-05-02T08:18:18.902Z</time></trkpt><trkpt lat="45.8757507" lon="12.0035882"><ele>183.0</ele><time>2026-05-02T08:18:19.903Z</time></trkpt><trkpt lat="45.8759294" lon="12.0035367"><ele>183.0</ele><time>2026-05-02T08:18:20.902Z</time></trkpt><trkpt lat="45.8761089" lon="12.0034879"><ele>183.66666666666666</ele><time>2026-05-02T08:18:21.903Z</time></trkpt><trkpt lat="45.8762825" lon="12.0034479"><ele>184.33333333333331</ele><time>2026-05-02T08:18:22.903Z</time></trkpt><trkpt lat="45.8764566" lon="12.0034006"><ele>185.0</ele><time>2026-05-02T08:18:23.902Z</time></trkpt><trkpt lat="45.8766347" lon="12.0033557"><ele>185.0</ele><time>2026-05-02T08:18:24.902Z</time></trkpt><trkpt lat="45.8768119" lon="12.0033067"><ele>185.0</ele><time>2026-05-02T08:18:25.903Z</time></trkpt><trkpt lat="45.8769864" lon="12.00326"><ele>185.0</ele><time>2026-05-02T08:18:26.902Z</time></trkpt><trkpt lat="45.877162" lon="12.0032183"><ele>185.0</ele><time>2026-05-02T08:18:27.903Z</time></trkpt><trkpt lat="45.8773342" lon="12.0031762"><ele>185.0</ele><time>2026-05-02T08:18:28.903Z</time></trkpt><trkpt lat="45.8774966" lon="12.003138"><ele>185.0</ele><time>2026-05-02T08:18:29.902Z</time></trkpt><trkpt lat="45.8776479" lon="12.0031106"><ele>185.0</ele><time>2026-05-02T08:18:30.903Z</time></trkpt><trkpt lat="45.877801" lon="12.0030863"><ele>185.0</ele><time>2026-05-02T08:18:31.903Z</time></trkpt><trkpt lat="45.8779414" lon="12.0030606"><ele>185.0</ele><time>2026-05-02T08:18:32.902Z</time></trkpt><trkpt lat="45.8780765" lon="12.0030369"><ele>185.0</ele><time>2026-05-02T08:18:33.903Z</time></trkpt><trkpt lat="45.8782015" lon="12.003014"><ele>185.0</ele><time>2026-05-02T08:18:34.902Z</time></trkpt><trkpt lat="45.878328" lon="12.0030041"><ele>185.0</ele><time>2026-05-02T08:18:35.903Z</time></trkpt><trkpt lat="45.8784543" lon="12.0029874"><ele>185.0</ele><time>2026-05-02T08:18:36.902Z</time></trkpt><trkpt lat="45.8785678" lon="12.002975"><ele>185.0</ele><time>2026-05-02T08:18:37.903Z</time></trkpt><trkpt lat="45.8786725" lon="12.0029469"><ele>185.2</ele><time>2026-05-02T08:18:38.902Z</time></trkpt><trkpt lat="45.878781" lon="12.0029391"><ele>185.4</ele><time>2026-05-02T08:18:39.903Z</time></trkpt><trkpt lat="45.8788843" lon="12.002923"><ele>185.60000000000002</ele><time>2026-05-02T08:18:40.903Z</time></trkpt><trkpt lat="45.8789932" lon="12.0029086"><ele>185.8</ele><time>2026-05-02T08:18:41.903Z</time></trkpt><trkpt lat="45.8790988" lon="12.0028898"><ele>186.0</ele><time>2026-05-02T08:18:42.902Z</time></trkpt><trkpt lat="45.8792055" lon="12.0028753"><ele>186.4</ele><time>2026-05-02T08:18:43.903Z</time></trkpt><trkpt lat="45.8793011" lon="12.0028558"><ele>186.8</ele><time>2026-05-02T08:18:44.902Z</time></trkpt><trkpt lat="45.8793867" lon="12.0028481"><ele>187.20000000000002</ele><time>2026-05-02T08:18:45.903Z</time></trkpt><trkpt lat="45.879473" lon="12.002854"><ele>187.60000000000002</ele><time>2026-05-02T08:18:46.903Z</time></trkpt><trkpt lat="45.8795576" lon="12.0028948"><ele>188.0</ele><time>2026-05-02T08:18:47.902Z</time></trkpt><trkpt lat="45.8796441" lon="12.0029511"><ele>188.0</ele><time>2026-05-02T08:18:48.903Z</time></trkpt><trkpt lat="45.8797318" lon="12.0029681"><ele>188.0</ele><time>2026-05-02T08:18:49.902Z</time></trkpt><trkpt lat="45.8798112" lon="12.0029218"><ele>188.0</ele><time>2026-05-02T08:18:50.903Z</time></trkpt><trkpt lat="45.8798799" lon="12.0028395"><ele>188.0</ele><time>2026-05-02T08:18:51.902Z</time></trkpt><trkpt lat="45.8799615" lon="12.0027465"><ele>188.0</ele><time>2026-05-02T08:18:52.903Z</time></trkpt><trkpt lat="45.8800814" lon="12.0026961"><ele>188.0</ele><time>2026-05-02T08:18:53.904Z</time></trkpt><trkpt lat="45.880231" lon="12.0026655"><ele>188.0</ele><time>2026-05-02T08:18:54.903Z</time></trkpt><trkpt lat="45.8803989" lon="12.0026305"><ele>188.0</ele><time>2026-05-02T08:18:55.903Z</time></trkpt><trkpt lat="45.8805708" lon="12.0025708"><ele>187.66666666666666</ele><time>2026-05-02T08:18:56.903Z</time></trkpt><trkpt lat="45.8807604" lon="12.0024956"><ele>187.33333333333334</ele><time>2026-05-02T08:18:57.903Z</time></trkpt><trkpt lat="45.8809457" lon="12.0023696"><ele>187.0</ele><time>2026-05-02T08:18:58.903Z</time></trkpt><trkpt lat="45.8811263" lon="12.0022105"><ele>186.0</ele><time>2026-05-02T08:18:59.903Z</time></trkpt><trkpt lat="45.8813108" lon="12.0020435"><ele>185.0</ele><time>2026-05-02T08:19:00.903Z</time></trkpt><trkpt lat="45.8814896" lon="12.0018672"><ele>184.0</ele><time>2026-05-02T08:19:01.903Z</time></trkpt><trkpt lat="45.8816706" lon="12.0016955"><ele>184.66666666666669</ele><time>2026-05-02T08:19:02.903Z</time></trkpt><trkpt lat="45.8818479" lon="12.0015361"><ele>185.33333333333334</ele><time>2026-05-02T08:19:03.902Z</time></trkpt><trkpt lat="45.8820196" lon="12.0013781"><ele>186.0</ele><time>2026-05-02T08:19:04.903Z</time></trkpt><trkpt lat="45.882192" lon="12.0012224"><ele>186.0</ele><time>2026-05-02T08:19:05.903Z</time></trkpt><trkpt lat="45.8823734" lon="12.0010453"><ele>186.0</ele><time>2026-05-02T08:19:06.902Z</time></trkpt><trkpt lat="45.882571" lon="12.0008496"><ele>185.5</ele><time>2026-05-02T08:19:07.903Z</time></trkpt><trkpt lat="45.8827786" lon="12.0006648"><ele>185.0</ele><time>2026-05-02T08:19:08.904Z</time></trkpt><trkpt lat="45.8829869" lon="12.0004769"><ele>185.0</ele><time>2026-05-02T08:19:09.904Z</time></trkpt><trkpt lat="45.8831997" lon="12.000289"><ele>185.0</ele><time>2026-05-02T08:19:10.903Z</time></trkpt><trkpt lat="45.8834036" lon="12.0001021"><ele>187.5</ele><time>2026-05-02T08:19:11.904Z</time></trkpt><trkpt lat="45.8836011" lon="11.9999165"><ele>190.0</ele><time>2026-05-02T08:19:12.904Z</time></trkpt><trkpt lat="45.8837898" lon="11.9997466"><ele>190.0</ele><time>2026-05-02T08:19:13.903Z</time></trkpt><trkpt lat="45.8839655" lon="11.9995904"><ele>190.0</ele><time>2026-05-02T08:19:14.903Z</time></trkpt><trkpt lat="45.884131" lon="11.9994404"><ele>190.0</ele><time>2026-05-02T08:19:15.904Z</time></trkpt><trkpt lat="45.8842855" lon="11.9992955"><ele>191.33333333333334</ele><time>2026-05-02T08:19:16.903Z</time></trkpt><trkpt lat="45.8844335" lon="11.9991416"><ele>192.66666666666669</ele><time>2026-05-02T08:19:17.904Z</time></trkpt><trkpt lat="45.8845694" lon="11.9989779"><ele>194.0</ele><time>2026-05-02T08:19:18.904Z</time></trkpt><trkpt lat="45.8847017" lon="11.9988118"><ele>194.0</ele><time>2026-05-02T08:19:19.904Z</time></trkpt><trkpt lat="45.8848335" lon="11.9986464"><ele>194.0</ele><time>2026-05-02T08:19:20.904Z</time></trkpt><trkpt lat="45.8849579" lon="11.9984937"><ele>194.0</ele><time>2026-05-02T08:19:21.903Z</time></trkpt><trkpt lat="45.8850708" lon="11.9983395"><ele>194.0</ele><time>2026-05-02T08:19:22.903Z</time></trkpt><trkpt lat="45.8851708" lon="11.9981665"><ele>194.0</ele><time>2026-05-02T08:19:23.904Z</time></trkpt><trkpt lat="45.8852492" lon="11.9979588"><ele>194.0</ele><time>2026-05-02T08:19:24.904Z</time></trkpt><trkpt lat="45.8852993" lon="11.9977251"><ele>193.0</ele><time>2026-05-02T08:19:25.904Z</time></trkpt><trkpt lat="45.8853364" lon="11.9974762"><ele>192.0</ele><time>2026-05-02T08:19:26.904Z</time></trkpt><trkpt lat="45.8853746" lon="11.9972095"><ele>191.0</ele><time>2026-05-02T08:19:27.904Z</time></trkpt><trkpt lat="45.88542" lon="11.9969397"><ele>191.0</ele><time>2026-05-02T08:19:28.903Z</time></trkpt><trkpt lat="45.8854695" lon="11.9966973"><ele>191.0</ele><time>2026-05-02T08:19:29.903Z</time></trkpt><trkpt lat="45.8855214" lon="11.99647"><ele>191.0</ele><time>2026-05-02T08:19:30.904Z</time></trkpt><trkpt lat="45.8855748" lon="11.9962297"><ele>190.0</ele><time>2026-05-02T08:19:31.904Z</time></trkpt><trkpt lat="45.8856356" lon="11.9960057"><ele>189.0</ele><time>2026-05-02T08:19:32.903Z</time></trkpt><trkpt lat="45.8856961" lon="11.9957991"><ele>188.0</ele><time>2026-05-02T08:19:33.903Z</time></trkpt><trkpt lat="45.8857521" lon="11.9956108"><ele>188.0</ele><time>2026-05-02T08:19:34.904Z</time></trkpt><trkpt lat="45.8858155" lon="11.9954343"><ele>188.0</ele><time>2026-05-02T08:19:35.904Z</time></trkpt><trkpt lat="45.8858754" lon="11.9952517"><ele>188.0</ele><time>2026-05-02T08:19:36.903Z</time></trkpt><trkpt lat="45.8859403" lon="11.9950709"><ele>188.0</ele><time>2026-05-02T08:19:37.904Z</time></trkpt><trkpt lat="45.8860066" lon="11.9948795"><ele>189.66666666666666</ele><time>2026-05-02T08:19:38.904Z</time></trkpt><trkpt lat="45.8860796" lon="11.9946752"><ele>191.33333333333331</ele><time>2026-05-02T08:19:39.904Z</time></trkpt><trkpt lat="45.886166" lon="11.9944582"><ele>193.0</ele><time>2026-05-02T08:19:40.903Z</time></trkpt><trkpt lat="45.8862557" lon="11.9942323"><ele>193.33333333333331</ele><time>2026-05-02T08:19:41.903Z</time></trkpt><trkpt lat="45.8863548" lon="11.993981"><ele>193.66666666666669</ele><time>2026-05-02T08:19:42.904Z</time></trkpt><trkpt lat="45.886464" lon="11.9937057"><ele>194.0</ele><time>2026-05-02T08:19:43.904Z</time></trkpt><trkpt lat="45.8865754" lon="11.9934152"><ele>194.0</ele><time>2026-05-02T08:19:44.903Z</time></trkpt><trkpt lat="45.8866976" lon="11.9931406"><ele>194.0</ele><time>2026-05-02T08:19:45.903Z</time></trkpt><trkpt lat="45.8868265" lon="11.9928643"><ele>194.0</ele><time>2026-05-02T08:19:46.903Z</time></trkpt><trkpt lat="45.8869546" lon="11.9925815"><ele>194.0</ele><time>2026-05-02T08:19:47.904Z</time></trkpt><trkpt lat="45.8870742" lon="11.9922868"><ele>194.0</ele><time>2026-05-02T08:19:48.904Z</time></trkpt><trkpt lat="45.8871928" lon="11.9919853"><ele>194.0</ele><time>2026-05-02T08:19:49.904Z</time></trkpt><trkpt lat="45.8873055" lon="11.9917085"><ele>194.33333333333334</ele><time>2026-05-02T08:19:50.904Z</time></trkpt><trkpt lat="45.8874155" lon="11.9914495"><ele>194.66666666666669</ele><time>2026-05-02T08:19:51.904Z</time></trkpt><trkpt lat="45.8875189" lon="11.9911939"><ele>195.0</ele><time>2026-05-02T08:19:52.904Z</time></trkpt><trkpt lat="45.8876171" lon="11.9909401"><ele>196.0</ele><time>2026-05-02T08:19:53.905Z</time></trkpt><trkpt lat="45.8877122" lon="11.9906989"><ele>197.0</ele><time>2026-05-02T08:19:54.904Z</time></trkpt><trkpt lat="45.8878043" lon="11.990477"><ele>198.0</ele><time>2026-05-02T08:19:55.903Z</time></trkpt><trkpt lat="45.8878939" lon="11.9902635"><ele>198.0</ele><time>2026-05-02T08:19:56.904Z</time></trkpt><trkpt lat="45.8879868" lon="11.9900332"><ele>198.0</ele><time>2026-05-02T08:19:57.904Z</time></trkpt><trkpt lat="45.8880838" lon="11.989786"><ele>198.0</ele><time>2026-05-02T08:19:58.903Z</time></trkpt><trkpt lat="45.8881842" lon="11.9895318"><ele>198.0</ele><time>2026-05-02T08:19:59.904Z</time></trkpt><trkpt lat="45.8882854" lon="11.9892609"><ele>198.0</ele><time>2026-05-02T08:20:00.903Z</time></trkpt><trkpt lat="45.8883931" lon="11.988984"><ele>198.0</ele><time>2026-05-02T08:20:01.903Z</time></trkpt><trkpt lat="45.8885069" lon="11.9887052"><ele>197.5</ele><time>2026-05-02T08:20:02.904Z</time></trkpt><trkpt lat="45.8886195" lon="11.9884223"><ele>197.0</ele><time>2026-05-02T08:20:03.904Z</time></trkpt><trkpt lat="45.8887327" lon="11.9881329"><ele>197.0</ele><time>2026-05-02T08:20:04.903Z</time></trkpt><trkpt lat="45.8888512" lon="11.9878304"><ele>197.0</ele><time>2026-05-02T08:20:05.903Z</time></trkpt><trkpt lat="45.8889734" lon="11.9875159"><ele>197.5</ele><time>2026-05-02T08:20:06.904Z</time></trkpt><trkpt lat="45.8891013" lon="11.9872041"><ele>198.0</ele><time>2026-05-02T08:20:07.904Z</time></trkpt><trkpt lat="45.889235" lon="11.9868878"><ele>199.5</ele><time>2026-05-02T08:20:08.904Z</time></trkpt><trkpt lat="45.8893668" lon="11.9865771"><ele>201.0</ele><time>2026-05-02T08:20:09.905Z</time></trkpt><trkpt lat="45.8894925" lon="11.9862719"><ele>201.0</ele><time>2026-05-02T08:20:10.904Z</time></trkpt><trkpt lat="45.8896047" lon="11.985956"><ele>201.0</ele><time>2026-05-02T08:20:11.905Z</time></trkpt><trkpt lat="45.8897142" lon="11.9856417"><ele>202.5</ele><time>2026-05-02T08:20:12.904Z</time></trkpt><trkpt lat="45.8898134" lon="11.9853337"><ele>204.0</ele><time>2026-05-02T08:20:13.905Z</time></trkpt><trkpt lat="45.8899053" lon="11.9850416"><ele>204.0</ele><time>2026-05-02T08:20:14.905Z</time></trkpt><trkpt lat="45.8899841" lon="11.9847665"><ele>204.0</ele><time>2026-05-02T08:20:15.905Z</time></trkpt><trkpt lat="45.8900554" lon="11.984506"><ele>204.0</ele><time>2026-05-02T08:20:16.904Z</time></trkpt><trkpt lat="45.8901153" lon="11.9842711"><ele>204.66666666666669</ele><time>2026-05-02T08:20:17.904Z</time></trkpt><trkpt lat="45.8901743" lon="11.9840478"><ele>205.33333333333334</ele><time>2026-05-02T08:20:18.905Z</time></trkpt><trkpt lat="45.8902249" lon="11.9838306"><ele>206.0</ele><time>2026-05-02T08:20:19.904Z</time></trkpt><trkpt lat="45.8902755" lon="11.9836018"><ele>206.0</ele><time>2026-05-02T08:20:20.905Z</time></trkpt><trkpt lat="45.8903259" lon="11.9833722"><ele>206.0</ele><time>2026-05-02T08:20:21.905Z</time></trkpt><trkpt lat="45.8903761" lon="11.983139"><ele>206.0</ele><time>2026-05-02T08:20:22.905Z</time></trkpt><trkpt lat="45.8904184" lon="11.9829071"><ele>206.33333333333334</ele><time>2026-05-02T08:20:23.904Z</time></trkpt><trkpt lat="45.8904598" lon="11.9826818"><ele>206.66666666666669</ele><time>2026-05-02T08:20:24.905Z</time></trkpt><trkpt lat="45.8904974" lon="11.9824495"><ele>207.0</ele><time>2026-05-02T08:20:25.905Z</time></trkpt><trkpt lat="45.8905362" lon="11.9822289"><ele>207.0</ele><time>2026-05-02T08:20:26.904Z</time></trkpt><trkpt lat="45.8905664" lon="11.981996"><ele>207.0</ele><time>2026-05-02T08:20:27.904Z</time></trkpt><trkpt lat="45.8905933" lon="11.9817631"><ele>207.0</ele><time>2026-05-02T08:20:28.904Z</time></trkpt><trkpt lat="45.8906201" lon="11.9815323"><ele>205.33333333333331</ele><time>2026-05-02T08:20:29.905Z</time></trkpt><trkpt lat="45.8906399" lon="11.9812884"><ele>203.66666666666666</ele><time>2026-05-02T08:20:30.905Z</time></trkpt><trkpt lat="45.8906609" lon="11.9810396"><ele>202.0</ele><time>2026-05-02T08:20:31.905Z</time></trkpt><trkpt lat="45.8906752" lon="11.9807975"><ele>201.33333333333331</ele><time>2026-05-02T08:20:32.905Z</time></trkpt><trkpt lat="45.8906883" lon="11.9805666"><ele>200.66666666666669</ele><time>2026-05-02T08:20:33.904Z</time></trkpt><trkpt lat="45.8906869" lon="11.9803575"><ele>200.0</ele><time>2026-05-02T08:20:34.905Z</time></trkpt><trkpt lat="45.8906858" lon="11.9801416"><ele>201.0</ele><time>2026-05-02T08:20:35.904Z</time></trkpt><trkpt lat="45.8906806" lon="11.9799258"><ele>202.0</ele><time>2026-05-02T08:20:36.904Z</time></trkpt><trkpt lat="45.8906776" lon="11.9797074"><ele>203.0</ele><time>2026-05-02T08:20:37.904Z</time></trkpt><trkpt lat="45.8906679" lon="11.9794905"><ele>203.0</ele><time>2026-05-02T08:20:38.905Z</time></trkpt><trkpt lat="45.8906521" lon="11.9792786"><ele>203.0</ele><time>2026-05-02T08:20:39.904Z</time></trkpt><trkpt lat="45.8906354" lon="11.9790667"><ele>203.0</ele><time>2026-05-02T08:20:40.905Z</time></trkpt><trkpt lat="45.8906154" lon="11.9788776"><ele>203.0</ele><time>2026-05-02T08:20:41.905Z</time></trkpt><trkpt lat="45.8905939" lon="11.9787043"><ele>203.2</ele><time>2026-05-02T08:20:42.905Z</time></trkpt><trkpt lat="45.8905704" lon="11.9785501"><ele>203.4</ele><time>2026-05-02T08:20:43.905Z</time></trkpt><trkpt lat="45.8905503" lon="11.9784159"><ele>203.6</ele><time>2026-05-02T08:20:44.904Z</time></trkpt><trkpt lat="45.8905353" lon="11.9782796"><ele>203.79999999999998</ele><time>2026-05-02T08:20:45.905Z</time></trkpt><trkpt lat="45.8905188" lon="11.9781442"><ele>204.0</ele><time>2026-05-02T08:20:46.905Z</time></trkpt><trkpt lat="45.8905037" lon="11.9780328"><ele>204.33333333333334</ele><time>2026-05-02T08:20:47.904Z</time></trkpt><trkpt lat="45.8904905" lon="11.977929"><ele>204.66666666666669</ele><time>2026-05-02T08:20:48.905Z</time></trkpt><trkpt lat="45.8904761" lon="11.9778292"><ele>205.0</ele><time>2026-05-02T08:20:49.904Z</time></trkpt><trkpt lat="45.8904594" lon="11.9777238"><ele>205.33333333333334</ele><time>2026-05-02T08:20:50.905Z</time></trkpt><trkpt lat="45.8904459" lon="11.9776016"><ele>205.66666666666669</ele><time>2026-05-02T08:20:51.905Z</time></trkpt><trkpt lat="45.8904232" lon="11.9774552"><ele>206.0</ele><time>2026-05-02T08:20:52.905Z</time></trkpt><trkpt lat="45.8904024" lon="11.9772794"><ele>206.0</ele><time>2026-05-02T08:20:53.905Z</time></trkpt><trkpt lat="45.8903728" lon="11.9770848"><ele>206.0</ele><time>2026-05-02T08:20:54.904Z</time></trkpt><trkpt lat="45.8903453" lon="11.9768915"><ele>206.0</ele><time>2026-05-02T08:20:55.905Z</time></trkpt><trkpt lat="45.8903204" lon="11.9767167"><ele>206.0</ele><time>2026-05-02T08:20:56.905Z</time></trkpt><trkpt lat="45.8903005" lon="11.9765644"><ele>205.75</ele><time>2026-05-02T08:20:57.904Z</time></trkpt><trkpt lat="45.8902789" lon="11.9763934"><ele>205.5</ele><time>2026-05-02T08:20:58.905Z</time></trkpt><trkpt lat="45.8902532" lon="11.9762213"><ele>205.25</ele><time>2026-05-02T08:20:59.905Z</time></trkpt><trkpt lat="45.8902283" lon="11.9760354"><ele>205.0</ele><time>2026-05-02T08:21:00.905Z</time></trkpt><trkpt lat="45.8902091" lon="11.975858"><ele>205.25</ele><time>2026-05-02T08:21:01.904Z</time></trkpt><trkpt lat="45.890184" lon="11.97566"><ele>205.5</ele><time>2026-05-02T08:21:02.904Z</time></trkpt><trkpt lat="45.890166" lon="11.9754594"><ele>205.75</ele><time>2026-05-02T08:21:03.905Z</time></trkpt><trkpt lat="45.8901591" lon="11.9752474"><ele>206.0</ele><time>2026-05-02T08:21:04.904Z</time></trkpt><trkpt lat="45.8901527" lon="11.9750071"><ele>206.0</ele><time>2026-05-02T08:21:05.904Z</time></trkpt><trkpt lat="45.8901572" lon="11.9747465"><ele>206.0</ele><time>2026-05-02T08:21:06.905Z</time></trkpt><trkpt lat="45.8901729" lon="11.9744785"><ele>206.0</ele><time>2026-05-02T08:21:07.905Z</time></trkpt><trkpt lat="45.8902024" lon="11.9742115"><ele>207.0</ele><time>2026-05-02T08:21:08.905Z</time></trkpt><trkpt lat="45.890239" lon="11.9739432"><ele>208.0</ele><time>2026-05-02T08:21:09.905Z</time></trkpt><trkpt lat="45.8902986" lon="11.9736622"><ele>209.0</ele><time>2026-05-02T08:21:10.905Z</time></trkpt><trkpt lat="45.8903679" lon="11.9733864"><ele>208.66666666666669</ele><time>2026-05-02T08:21:11.905Z</time></trkpt><trkpt lat="45.8904492" lon="11.9731156"><ele>208.33333333333331</ele><time>2026-05-02T08:21:12.905Z</time></trkpt><trkpt lat="45.8905413" lon="11.972846"><ele>208.0</ele><time>2026-05-02T08:21:13.906Z</time></trkpt><trkpt lat="45.8906395" lon="11.9725765"><ele>206.33333333333331</ele><time>2026-05-02T08:21:14.905Z</time></trkpt><trkpt lat="45.8907363" lon="11.972311"><ele>204.66666666666669</ele><time>2026-05-02T08:21:15.905Z</time></trkpt><trkpt lat="45.8908231" lon="11.972057"><ele>203.0</ele><time>2026-05-02T08:21:16.906Z</time></trkpt><trkpt lat="45.890907" lon="11.9718012"><ele>206.0</ele><time>2026-05-02T08:21:17.906Z</time></trkpt><trkpt lat="45.8909819" lon="11.9715463"><ele>209.0</ele><time>2026-05-02T08:21:18.906Z</time></trkpt><trkpt lat="45.8910518" lon="11.9713038"><ele>212.0</ele><time>2026-05-02T08:21:19.906Z</time></trkpt><trkpt lat="45.8911197" lon="11.9710546"><ele>210.0</ele><time>2026-05-02T08:21:20.906Z</time></trkpt><trkpt lat="45.8911907" lon="11.9708004"><ele>208.0</ele><time>2026-05-02T08:21:21.906Z</time></trkpt><trkpt lat="45.8912709" lon="11.9705355"><ele>206.0</ele><time>2026-05-02T08:21:22.905Z</time></trkpt><trkpt lat="45.8913594" lon="11.9702635"><ele>202.66666666666669</ele><time>2026-05-02T08:21:23.906Z</time></trkpt><trkpt lat="45.891455" lon="11.9699947"><ele>199.33333333333331</ele><time>2026-05-02T08:21:24.905Z</time></trkpt><trkpt lat="45.8915624" lon="11.9697246"><ele>196.0</ele><time>2026-05-02T08:21:25.905Z</time></trkpt><trkpt lat="45.8916766" lon="11.9694644"><ele>199.66666666666666</ele><time>2026-05-02T08:21:26.905Z</time></trkpt><trkpt lat="45.8917956" lon="11.9692107"><ele>203.33333333333331</ele><time>2026-05-02T08:21:27.905Z</time></trkpt><trkpt lat="45.891906" lon="11.9689502"><ele>207.0</ele><time>2026-05-02T08:21:28.905Z</time></trkpt><trkpt lat="45.892001" lon="11.9686887"><ele>207.0</ele><time>2026-05-02T08:21:29.906Z</time></trkpt><trkpt lat="45.8920769" lon="11.9684268"><ele>207.0</ele><time>2026-05-02T08:21:30.906Z</time></trkpt><trkpt lat="45.8921415" lon="11.9681509"><ele>207.0</ele><time>2026-05-02T08:21:31.905Z</time></trkpt><trkpt lat="45.8921935" lon="11.9678691"><ele>205.33333333333331</ele><time>2026-05-02T08:21:32.906Z</time></trkpt><trkpt lat="45.8922363" lon="11.9675761"><ele>203.66666666666666</ele><time>2026-05-02T08:21:33.906Z</time></trkpt><trkpt lat="45.8922594" lon="11.9672673"><ele>202.0</ele><time>2026-05-02T08:21:34.905Z</time></trkpt><trkpt lat="45.892266" lon="11.9669419"><ele>197.0</ele><time>2026-05-02T08:21:35.906Z</time></trkpt><trkpt lat="45.8922475" lon="11.9666054"><ele>192.0</ele><time>2026-05-02T08:21:36.906Z</time></trkpt><trkpt lat="45.8922173" lon="11.9662729"><ele>192.0</ele><time>2026-05-02T08:21:37.906Z</time></trkpt><trkpt lat="45.892192" lon="11.9659407"><ele>192.0</ele><time>2026-05-02T08:21:38.906Z</time></trkpt><trkpt lat="45.8921676" lon="11.9656015"><ele>189.66666666666666</ele><time>2026-05-02T08:21:39.906Z</time></trkpt><trkpt lat="45.8921596" lon="11.9652777"><ele>187.33333333333331</ele><time>2026-05-02T08:21:40.906Z</time></trkpt><trkpt lat="45.8921686" lon="11.9649572"><ele>185.0</ele><time>2026-05-02T08:21:41.906Z</time></trkpt><trkpt lat="45.8921892" lon="11.9646578"><ele>184.33333333333331</ele><time>2026-05-02T08:21:42.906Z</time></trkpt><trkpt lat="45.8922232" lon="11.9643784"><ele>183.66666666666666</ele><time>2026-05-02T08:21:43.905Z</time></trkpt><trkpt lat="45.8922707" lon="11.9641181"><ele>183.0</ele><time>2026-05-02T08:21:44.905Z</time></trkpt><trkpt lat="45.8923209" lon="11.9638493"><ele>181.33333333333334</ele><time>2026-05-02T08:21:45.906Z</time></trkpt><trkpt lat="45.8923799" lon="11.9635731"><ele>179.66666666666669</ele><time>2026-05-02T08:21:46.906Z</time></trkpt><trkpt lat="45.8924485" lon="11.9632952"><ele>178.0</ele><time>2026-05-02T08:21:47.905Z</time></trkpt><trkpt lat="45.8925261" lon="11.9630169"><ele>181.66666666666669</ele><time>2026-05-02T08:21:48.905Z</time></trkpt><trkpt lat="45.8926063" lon="11.9627349"><ele>185.33333333333334</ele><time>2026-05-02T08:21:49.905Z</time></trkpt><trkpt lat="45.8926904" lon="11.9624507"><ele>189.0</ele><time>2026-05-02T08:21:50.905Z</time></trkpt><trkpt lat="45.8927688" lon="11.9621685"><ele>189.0</ele><time>2026-05-02T08:21:51.906Z</time></trkpt><trkpt lat="45.8928524" lon="11.9618771"><ele>189.0</ele><time>2026-05-02T08:21:52.906Z</time></trkpt><trkpt lat="45.8929485" lon="11.961591"><ele>189.0</ele><time>2026-05-02T08:21:53.906Z</time></trkpt><trkpt lat="45.8930566" lon="11.9613076"><ele>186.5</ele><time>2026-05-02T08:21:54.905Z</time></trkpt><trkpt lat="45.8931821" lon="11.9610312"><ele>184.0</ele><time>2026-05-02T08:21:55.905Z</time></trkpt><trkpt lat="45.8933107" lon="11.9607691"><ele>186.0</ele><time>2026-05-02T08:21:56.905Z</time></trkpt><trkpt lat="45.8934382" lon="11.9605212"><ele>188.0</ele><time>2026-05-02T08:21:57.906Z</time></trkpt><trkpt lat="45.8935515" lon="11.9602921"><ele>190.0</ele><time>2026-05-02T08:21:58.906Z</time></trkpt><trkpt lat="45.893665" lon="11.9600601"><ele>187.33333333333334</ele><time>2026-05-02T08:21:59.905Z</time></trkpt><trkpt lat="45.8937787" lon="11.9598273"><ele>184.66666666666666</ele><time>2026-05-02T08:22:00.906Z</time></trkpt><trkpt lat="45.8938886" lon="11.9595985"><ele>182.0</ele><time>2026-05-02T08:22:01.906Z</time></trkpt><trkpt lat="45.8940036" lon="11.9593642"><ele>181.66666666666666</ele><time>2026-05-02T08:22:02.905Z</time></trkpt><trkpt lat="45.8941224" lon="11.9591239"><ele>181.33333333333334</ele><time>2026-05-02T08:22:03.906Z</time></trkpt><trkpt lat="45.8942434" lon="11.9588941"><ele>181.0</ele><time>2026-05-02T08:22:04.906Z</time></trkpt><trkpt lat="45.8943614" lon="11.9586502"><ele>182.33333333333334</ele><time>2026-05-02T08:22:05.905Z</time></trkpt><trkpt lat="45.8944801" lon="11.9584016"><ele>183.66666666666666</ele><time>2026-05-02T08:22:06.906Z</time></trkpt><trkpt lat="45.8946077" lon="11.9581562"><ele>185.0</ele><time>2026-05-02T08:22:07.905Z</time></trkpt><trkpt lat="45.8947272" lon="11.9579026"><ele>185.0</ele><time>2026-05-02T08:22:08.905Z</time></trkpt><trkpt lat="45.8948534" lon="11.957646"><ele>185.0</ele><time>2026-05-02T08:22:09.906Z</time></trkpt><trkpt lat="45.8949815" lon="11.9573881"><ele>185.0</ele><time>2026-05-02T08:22:10.906Z</time></trkpt><trkpt lat="45.8951041" lon="11.9571311"><ele>185.66666666666666</ele><time>2026-05-02T08:22:11.905Z</time></trkpt><trkpt lat="45.895232" lon="11.9568725"><ele>186.33333333333334</ele><time>2026-05-02T08:22:12.905Z</time></trkpt><trkpt lat="45.8953616" lon="11.9566132"><ele>187.0</ele><time>2026-05-02T08:22:13.905Z</time></trkpt><trkpt lat="45.8954848" lon="11.9563559"><ele>187.0</ele><time>2026-05-02T08:22:14.905Z</time></trkpt><trkpt lat="45.8956113" lon="11.9560983"><ele>187.0</ele><time>2026-05-02T08:22:15.906Z</time></trkpt><trkpt lat="45.8957342" lon="11.9558416"><ele>187.0</ele><time>2026-05-02T08:22:16.906Z</time></trkpt><trkpt lat="45.8958586" lon="11.9555939"><ele>190.33333333333334</ele><time>2026-05-02T08:22:17.906Z</time></trkpt><trkpt lat="45.8959781" lon="11.9553482"><ele>193.66666666666669</ele><time>2026-05-02T08:22:18.906Z</time></trkpt><trkpt lat="45.8961036" lon="11.9551048"><ele>197.0</ele><time>2026-05-02T08:22:19.907Z</time></trkpt><trkpt lat="45.896226" lon="11.9548638"><ele>197.0</ele><time>2026-05-02T08:22:20.907Z</time></trkpt><trkpt lat="45.8963534" lon="11.9546156"><ele>197.0</ele><time>2026-05-02T08:22:21.906Z</time></trkpt><trkpt lat="45.8964873" lon="11.9543797"><ele>197.0</ele><time>2026-05-02T08:22:22.906Z</time></trkpt><trkpt lat="45.8966269" lon="11.9541605"><ele>195.0</ele><time>2026-05-02T08:22:23.906Z</time></trkpt><trkpt lat="45.896776" lon="11.9539497"><ele>193.0</ele><time>2026-05-02T08:22:24.907Z</time></trkpt><trkpt lat="45.8969301" lon="11.9537442"><ele>191.0</ele><time>2026-05-02T08:22:25.907Z</time></trkpt><trkpt lat="45.8970858" lon="11.9535471"><ele>187.66666666666666</ele><time>2026-05-02T08:22:26.906Z</time></trkpt><trkpt lat="45.8972424" lon="11.9533683"><ele>184.33333333333334</ele><time>2026-05-02T08:22:27.906Z</time></trkpt><trkpt lat="45.8974062" lon="11.953197"><ele>181.0</ele><time>2026-05-02T08:22:28.906Z</time></trkpt><trkpt lat="45.8975771" lon="11.9530388"><ele>186.33333333333334</ele><time>2026-05-02T08:22:29.906Z</time></trkpt><trkpt lat="45.897753" lon="11.9528905"><ele>191.66666666666669</ele><time>2026-05-02T08:22:30.907Z</time></trkpt><trkpt lat="45.8979346" lon="11.9527546"><ele>197.0</ele><time>2026-05-02T08:22:31.907Z</time></trkpt><trkpt lat="45.8981282" lon="11.9526476"><ele>197.0</ele><time>2026-05-02T08:22:32.906Z</time></trkpt><trkpt lat="45.898327" lon="11.952558"><ele>197.0</ele><time>2026-05-02T08:22:33.907Z</time></trkpt><trkpt lat="45.898526" lon="11.9524625"><ele>197.0</ele><time>2026-05-02T08:22:34.907Z</time></trkpt><trkpt lat="45.8987259" lon="11.9523659"><ele>195.33333333333334</ele><time>2026-05-02T08:22:35.907Z</time></trkpt><trkpt lat="45.8989132" lon="11.952272"><ele>193.66666666666669</ele><time>2026-05-02T08:22:36.907Z</time></trkpt><trkpt lat="45.8990872" lon="11.9521788"><ele>192.0</ele><time>2026-05-02T08:22:37.906Z</time></trkpt><trkpt lat="45.8992512" lon="11.9521012"><ele>200.0</ele><time>2026-05-02T08:22:38.907Z</time></trkpt><trkpt lat="45.8993995" lon="11.9520318"><ele>208.0</ele><time>2026-05-02T08:22:39.907Z</time></trkpt><trkpt lat="45.8995376" lon="11.9519609"><ele>216.0</ele><time>2026-05-02T08:22:40.907Z</time></trkpt><trkpt lat="45.8996578" lon="11.9519036"><ele>224.0</ele><time>2026-05-02T08:22:41.907Z</time></trkpt><trkpt lat="45.8997676" lon="11.9518542"><ele>224.00000000000003</ele><time>2026-05-02T08:22:42.906Z</time></trkpt><trkpt lat="45.8998651" lon="11.9518103"><ele>224.0</ele><time>2026-05-02T08:22:43.907Z</time></trkpt><trkpt lat="45.8999518" lon="11.9517743"><ele>224.0</ele><time>2026-05-02T08:22:44.906Z</time></trkpt><trkpt lat="45.9000293" lon="11.9517497"><ele>224.0</ele><time>2026-05-02T08:22:45.907Z</time></trkpt><trkpt lat="45.9001148" lon="11.9517337"><ele>224.00000000000003</ele><time>2026-05-02T08:22:46.907Z</time></trkpt><trkpt lat="45.9001906" lon="11.9517156"><ele>224.0</ele><time>2026-05-02T08:22:47.906Z</time></trkpt><trkpt lat="45.9002876" lon="11.9516193"><ele>216.75</ele><time>2026-05-02T08:22:49.907Z</time></trkpt><trkpt lat="45.9002886" lon="11.9515147"><ele>209.5</ele><time>2026-05-02T08:22:50.906Z</time></trkpt><trkpt lat="45.9002645" lon="11.9513701"><ele>202.25</ele><time>2026-05-02T08:22:51.907Z</time></trkpt><trkpt lat="45.9002383" lon="11.9511834"><ele>195.0</ele><time>2026-05-02T08:22:52.907Z</time></trkpt><trkpt lat="45.9002242" lon="11.9509602"><ele>187.33333333333334</ele><time>2026-05-02T08:22:53.906Z</time></trkpt><trkpt lat="45.9002069" lon="11.9507095"><ele>179.66666666666669</ele><time>2026-05-02T08:22:54.907Z</time></trkpt><trkpt lat="45.9001878" lon="11.9504379"><ele>172.0</ele><time>2026-05-02T08:22:55.907Z</time></trkpt><trkpt lat="45.9001706" lon="11.9501698"><ele>173.0</ele><time>2026-05-02T08:22:56.907Z</time></trkpt><trkpt lat="45.900146" lon="11.9499281"><ele>174.0</ele><time>2026-05-02T08:22:57.907Z</time></trkpt><trkpt lat="45.9001285" lon="11.9496967"><ele>175.0</ele><time>2026-05-02T08:22:58.906Z</time></trkpt><trkpt lat="45.9001125" lon="11.9494629"><ele>175.0</ele><time>2026-05-02T08:22:59.907Z</time></trkpt><trkpt lat="45.900094" lon="11.9492106"><ele>175.0</ele><time>2026-05-02T08:23:00.907Z</time></trkpt><trkpt lat="45.9000779" lon="11.9489689"><ele>175.0</ele><time>2026-05-02T08:23:01.906Z</time></trkpt><trkpt lat="45.9000651" lon="11.9487176"><ele>174.0</ele><time>2026-05-02T08:23:02.906Z</time></trkpt><trkpt lat="45.9000492" lon="11.9484502"><ele>173.0</ele><time>2026-05-02T08:23:03.907Z</time></trkpt><trkpt lat="45.9000321" lon="11.9481854"><ele>172.0</ele><time>2026-05-02T08:23:04.906Z</time></trkpt><trkpt lat="45.9000154" lon="11.9479124"><ele>172.0</ele><time>2026-05-02T08:23:05.907Z</time></trkpt><trkpt lat="45.9000023" lon="11.9476393"><ele>172.0</ele><time>2026-05-02T08:23:06.907Z</time></trkpt><trkpt lat="45.8999867" lon="11.9473726"><ele>172.0</ele><time>2026-05-02T08:23:07.906Z</time></trkpt><trkpt lat="45.8999657" lon="11.9471376"><ele>171.66666666666669</ele><time>2026-05-02T08:23:08.906Z</time></trkpt><trkpt lat="45.899953" lon="11.946906"><ele>171.33333333333334</ele><time>2026-05-02T08:23:09.906Z</time></trkpt><trkpt lat="45.8999344" lon="11.94669"><ele>171.0</ele><time>2026-05-02T08:23:10.907Z</time></trkpt><trkpt lat="45.8999194" lon="11.9464651"><ele>172.66666666666666</ele><time>2026-05-02T08:23:11.906Z</time></trkpt><trkpt lat="45.8999016" lon="11.9462332"><ele>174.33333333333331</ele><time>2026-05-02T08:23:12.907Z</time></trkpt><trkpt lat="45.8998822" lon="11.9459888"><ele>176.0</ele><time>2026-05-02T08:23:13.907Z</time></trkpt><trkpt lat="45.8998703" lon="11.9457472"><ele>177.0</ele><time>2026-05-02T08:23:14.906Z</time></trkpt><trkpt lat="45.8998583" lon="11.9454992"><ele>178.0</ele><time>2026-05-02T08:23:15.907Z</time></trkpt><trkpt lat="45.8998409" lon="11.9452556"><ele>179.0</ele><time>2026-05-02T08:23:16.906Z</time></trkpt><trkpt lat="45.8998287" lon="11.9450344"><ele>179.0</ele><time>2026-05-02T08:23:17.908Z</time></trkpt><trkpt lat="45.8998176" lon="11.9448274"><ele>179.0</ele><time>2026-05-02T08:23:18.907Z</time></trkpt><trkpt lat="45.8998023" lon="11.9446276"><ele>179.0</ele><time>2026-05-02T08:23:19.906Z</time></trkpt><trkpt lat="45.8997946" lon="11.9444428"><ele>179.0</ele><time>2026-05-02T08:23:20.907Z</time></trkpt><trkpt lat="45.8997895" lon="11.9442608"><ele>178.39999999999998</ele><time>2026-05-02T08:23:21.908Z</time></trkpt><trkpt lat="45.899776" lon="11.9440847"><ele>177.8</ele><time>2026-05-02T08:23:22.908Z</time></trkpt><trkpt lat="45.8997619" lon="11.9439202"><ele>177.2</ele><time>2026-05-02T08:23:23.907Z</time></trkpt><trkpt lat="45.8997585" lon="11.9437766"><ele>176.60000000000002</ele><time>2026-05-02T08:23:24.908Z</time></trkpt><trkpt lat="45.899754" lon="11.9436605"><ele>176.0</ele><time>2026-05-02T08:23:25.908Z</time></trkpt><trkpt lat="45.8997491" lon="11.9435595"><ele>176.0</ele><time>2026-05-02T08:23:26.907Z</time></trkpt><trkpt lat="45.8997425" lon="11.9434641"><ele>176.0</ele><time>2026-05-02T08:23:27.908Z</time></trkpt><trkpt lat="45.8997428" lon="11.9433586"><ele>176.0</ele><time>2026-05-02T08:23:28.907Z</time></trkpt><trkpt lat="45.8997732" lon="11.9432442"><ele>176.0</ele><time>2026-05-02T08:23:29.907Z</time></trkpt><trkpt lat="45.8998318" lon="11.9431342"><ele>176.0</ele><time>2026-05-02T08:23:30.908Z</time></trkpt><trkpt lat="45.8999098" lon="11.943052"><ele>176.0</ele><time>2026-05-02T08:23:31.908Z</time></trkpt><trkpt lat="45.9000054" lon="11.9430141"><ele>178.5</ele><time>2026-05-02T08:23:32.908Z</time></trkpt><trkpt lat="45.9001197" lon="11.9430157"><ele>181.0</ele><time>2026-05-02T08:23:33.907Z</time></trkpt><trkpt lat="45.9002502" lon="11.943016"><ele>183.5</ele><time>2026-05-02T08:23:34.907Z</time></trkpt><trkpt lat="45.9004068" lon="11.9429984"><ele>186.0</ele><time>2026-05-02T08:23:35.908Z</time></trkpt><trkpt lat="45.9005741" lon="11.9429701"><ele>186.0</ele><time>2026-05-02T08:23:36.908Z</time></trkpt><trkpt lat="45.9007476" lon="11.9429338"><ele>186.0</ele><time>2026-05-02T08:23:37.907Z</time></trkpt><trkpt lat="45.9009301" lon="11.9429"><ele>186.0</ele><time>2026-05-02T08:23:38.907Z</time></trkpt><trkpt lat="45.9011162" lon="11.9428654"><ele>185.66666666666666</ele><time>2026-05-02T08:23:39.907Z</time></trkpt><trkpt lat="45.9013091" lon="11.9428292"><ele>185.33333333333331</ele><time>2026-05-02T08:23:40.907Z</time></trkpt><trkpt lat="45.9014934" lon="11.9427902"><ele>185.0</ele><time>2026-05-02T08:23:41.907Z</time></trkpt><trkpt lat="45.9016694" lon="11.9427486"><ele>186.0</ele><time>2026-05-02T08:23:42.907Z</time></trkpt><trkpt lat="45.9018302" lon="11.9427056"><ele>187.0</ele><time>2026-05-02T08:23:43.907Z</time></trkpt><trkpt lat="45.9019926" lon="11.9426611"><ele>188.0</ele><time>2026-05-02T08:23:44.908Z</time></trkpt><trkpt lat="45.9021486" lon="11.9426186"><ele>188.0</ele><time>2026-05-02T08:23:45.907Z</time></trkpt><trkpt lat="45.9023019" lon="11.9425754"><ele>188.0</ele><time>2026-05-02T08:23:46.908Z</time></trkpt><trkpt lat="45.9024535" lon="11.9425302"><ele>188.0</ele><time>2026-05-02T08:23:47.908Z</time></trkpt><trkpt lat="45.9026077" lon="11.942483"><ele>188.5</ele><time>2026-05-02T08:23:48.907Z</time></trkpt><trkpt lat="45.902751" lon="11.9424432"><ele>189.0</ele><time>2026-05-02T08:23:49.908Z</time></trkpt><trkpt lat="45.9028841" lon="11.9424047"><ele>189.5</ele><time>2026-05-02T08:23:50.908Z</time></trkpt><trkpt lat="45.9030124" lon="11.9423587"><ele>190.0</ele><time>2026-05-02T08:23:51.907Z</time></trkpt><trkpt lat="45.9031155" lon="11.9423133"><ele>190.0</ele><time>2026-05-02T08:23:52.908Z</time></trkpt><trkpt lat="45.9032293" lon="11.9422706"><ele>190.0</ele><time>2026-05-02T08:23:53.908Z</time></trkpt><trkpt lat="45.9033441" lon="11.9422322"><ele>190.0</ele><time>2026-05-02T08:23:54.908Z</time></trkpt><trkpt lat="45.9034402" lon="11.9421913"><ele>190.0</ele><time>2026-05-02T08:23:55.907Z</time></trkpt><trkpt lat="45.903528" lon="11.9421557"><ele>190.0</ele><time>2026-05-02T08:23:56.907Z</time></trkpt><trkpt lat="45.9036189" lon="11.9421137"><ele>189.8</ele><time>2026-05-02T08:23:57.907Z</time></trkpt><trkpt lat="45.903716" lon="11.942072"><ele>189.6</ele><time>2026-05-02T08:23:58.908Z</time></trkpt><trkpt lat="45.9038015" lon="11.9420363"><ele>189.39999999999998</ele><time>2026-05-02T08:23:59.907Z</time></trkpt><trkpt lat="45.9038891" lon="11.9420007"><ele>189.2</ele><time>2026-05-02T08:24:00.908Z</time></trkpt><trkpt lat="45.9039737" lon="11.9419643"><ele>189.0</ele><time>2026-05-02T08:24:01.907Z</time></trkpt><trkpt lat="45.9040585" lon="11.9419365"><ele>189.0</ele><time>2026-05-02T08:24:02.907Z</time></trkpt><trkpt lat="45.9041331" lon="11.9419027"><ele>189.0</ele><time>2026-05-02T08:24:03.907Z</time></trkpt><trkpt lat="45.904207" lon="11.9418704"><ele>189.0</ele><time>2026-05-02T08:24:04.908Z</time></trkpt><trkpt lat="45.9042768" lon="11.9418411"><ele>189.0</ele><time>2026-05-02T08:24:05.908Z</time></trkpt><trkpt lat="45.9043372" lon="11.94181"><ele>189.0</ele><time>2026-05-02T08:24:06.908Z</time></trkpt><trkpt lat="45.9044222" lon="11.9417728"><ele>189.0</ele><time>2026-05-02T08:24:08.907Z</time></trkpt><trkpt lat="45.9044996" lon="11.9417466"><ele>189.2</ele><time>2026-05-02T08:24:11.907Z</time></trkpt><trkpt lat="45.9045987" lon="11.9417016"><ele>189.39999999999998</ele><time>2026-05-02T08:24:14.908Z</time></trkpt><trkpt lat="45.9047161" lon="11.9416498"><ele>189.6</ele><time>2026-05-02T08:24:16.908Z</time></trkpt><trkpt lat="45.9047855" lon="11.9416125"><ele>189.8</ele><time>2026-05-02T08:24:17.907Z</time></trkpt><trkpt lat="45.9048611" lon="11.9415704"><ele>190.0</ele><time>2026-05-02T08:24:18.907Z</time></trkpt><trkpt lat="45.9049376" lon="11.9415203"><ele>190.0</ele><time>2026-05-02T08:24:19.907Z</time></trkpt><trkpt lat="45.9050168" lon="11.941476"><ele>190.0</ele><time>2026-05-02T08:24:20.907Z</time></trkpt><trkpt lat="45.9050995" lon="11.9414462"><ele>190.0</ele><time>2026-05-02T08:24:21.908Z</time></trkpt><trkpt lat="45.9051838" lon="11.9414263"><ele>190.0</ele><time>2026-05-02T08:24:22.908Z</time></trkpt><trkpt lat="45.9052695" lon="11.9414125"><ele>190.0</ele><time>2026-05-02T08:24:23.909Z</time></trkpt><trkpt lat="45.9053583" lon="11.941412"><ele>190.0</ele><time>2026-05-02T08:24:24.909Z</time></trkpt><trkpt lat="45.9054514" lon="11.9414254"><ele>188.25</ele><time>2026-05-02T08:24:25.909Z</time></trkpt><trkpt lat="45.9055574" lon="11.9414495"><ele>186.5</ele><time>2026-05-02T08:24:26.909Z</time></trkpt><trkpt lat="45.9056712" lon="11.9414801"><ele>184.75</ele><time>2026-05-02T08:24:27.909Z</time></trkpt><trkpt lat="45.9057935" lon="11.9415189"><ele>183.0</ele><time>2026-05-02T08:24:28.909Z</time></trkpt><trkpt lat="45.9059308" lon="11.9415695"><ele>181.66666666666666</ele><time>2026-05-02T08:24:29.908Z</time></trkpt><trkpt lat="45.9060872" lon="11.9416306"><ele>180.33333333333331</ele><time>2026-05-02T08:24:30.909Z</time></trkpt><trkpt lat="45.9062516" lon="11.9416999"><ele>179.0</ele><time>2026-05-02T08:24:31.909Z</time></trkpt><trkpt lat="45.9064262" lon="11.9417772"><ele>178.66666666666666</ele><time>2026-05-02T08:24:32.908Z</time></trkpt><trkpt lat="45.9065894" lon="11.9418554"><ele>178.33333333333334</ele><time>2026-05-02T08:24:33.908Z</time></trkpt><trkpt lat="45.9067563" lon="11.9419341"><ele>178.0</ele><time>2026-05-02T08:24:34.909Z</time></trkpt><trkpt lat="45.9069271" lon="11.9420127"><ele>178.0</ele><time>2026-05-02T08:24:35.909Z</time></trkpt><trkpt lat="45.9070989" lon="11.9420915"><ele>178.0</ele><time>2026-05-02T08:24:36.909Z</time></trkpt><trkpt lat="45.907269" lon="11.9421689"><ele>178.0</ele><time>2026-05-02T08:24:37.909Z</time></trkpt><trkpt lat="45.9074368" lon="11.9422444"><ele>179.0</ele><time>2026-05-02T08:24:38.909Z</time></trkpt><trkpt lat="45.9076045" lon="11.9423206"><ele>180.0</ele><time>2026-05-02T08:24:39.909Z</time></trkpt><trkpt lat="45.9077737" lon="11.9423922"><ele>181.0</ele><time>2026-05-02T08:24:40.909Z</time></trkpt><trkpt lat="45.9079484" lon="11.942446"><ele>181.0</ele><time>2026-05-02T08:24:41.909Z</time></trkpt><trkpt lat="45.9081256" lon="11.9424702"><ele>181.0</ele><time>2026-05-02T08:24:42.908Z</time></trkpt><trkpt lat="45.9083106" lon="11.9424629"><ele>181.0</ele><time>2026-05-02T08:24:43.909Z</time></trkpt><trkpt lat="45.9085034" lon="11.942421"><ele>183.0</ele><time>2026-05-02T08:24:44.909Z</time></trkpt><trkpt lat="45.9087134" lon="11.942342"><ele>185.0</ele><time>2026-05-02T08:24:45.908Z</time></trkpt><trkpt lat="45.9089516" lon="11.9422466"><ele>185.0</ele><time>2026-05-02T08:24:46.909Z</time></trkpt><trkpt lat="45.9092112" lon="11.9421488"><ele>185.0</ele><time>2026-05-02T08:24:47.908Z</time></trkpt><trkpt lat="45.9094589" lon="11.9420713"><ele>183.66666666666666</ele><time>2026-05-02T08:24:48.908Z</time></trkpt><trkpt lat="45.9096801" lon="11.9419976"><ele>182.33333333333334</ele><time>2026-05-02T08:24:49.908Z</time></trkpt><trkpt lat="45.9098822" lon="11.9419352"><ele>181.0</ele><time>2026-05-02T08:24:50.908Z</time></trkpt><trkpt lat="45.9100662" lon="11.9418753"><ele>180.0</ele><time>2026-05-02T08:24:51.908Z</time></trkpt><trkpt lat="45.9102354" lon="11.941812"><ele>179.0</ele><time>2026-05-02T08:24:52.909Z</time></trkpt><trkpt lat="45.9103892" lon="11.9417572"><ele>178.0</ele><time>2026-05-02T08:24:53.909Z</time></trkpt><trkpt lat="45.9105544" lon="11.9417125"><ele>182.66666666666669</ele><time>2026-05-02T08:24:54.908Z</time></trkpt><trkpt lat="45.9107332" lon="11.9416712"><ele>187.33333333333334</ele><time>2026-05-02T08:24:55.908Z</time></trkpt><trkpt lat="45.9109178" lon="11.941626"><ele>192.0</ele><time>2026-05-02T08:24:56.909Z</time></trkpt><trkpt lat="45.9111104" lon="11.9415813"><ele>192.0</ele><time>2026-05-02T08:24:57.908Z</time></trkpt><trkpt lat="45.9113393" lon="11.9415476"><ele>192.0</ele><time>2026-05-02T08:24:58.909Z</time></trkpt><trkpt lat="45.9115888" lon="11.9415032"><ele>191.0</ele><time>2026-05-02T08:24:59.909Z</time></trkpt><trkpt lat="45.911852" lon="11.9414543"><ele>190.0</ele><time>2026-05-02T08:25:00.909Z</time></trkpt><trkpt lat="45.912091" lon="11.9413996"><ele>190.0</ele><time>2026-05-02T08:25:01.909Z</time></trkpt><trkpt lat="45.9123151" lon="11.9413481"><ele>190.0</ele><time>2026-05-02T08:25:02.909Z</time></trkpt><trkpt lat="45.9125325" lon="11.9413137"><ele>190.0</ele><time>2026-05-02T08:25:03.908Z</time></trkpt><trkpt lat="45.9127525" lon="11.9413027"><ele>192.5</ele><time>2026-05-02T08:25:04.908Z</time></trkpt><trkpt lat="45.912978" lon="11.9413118"><ele>195.0</ele><time>2026-05-02T08:25:05.909Z</time></trkpt><trkpt lat="45.9132048" lon="11.9413376"><ele>196.0</ele><time>2026-05-02T08:25:06.909Z</time></trkpt><trkpt lat="45.9134262" lon="11.9413774"><ele>197.0</ele><time>2026-05-02T08:25:07.909Z</time></trkpt><trkpt lat="45.9136446" lon="11.9414057"><ele>198.0</ele><time>2026-05-02T08:25:08.908Z</time></trkpt><trkpt lat="45.9138648" lon="11.9414405"><ele>198.0</ele><time>2026-05-02T08:25:09.908Z</time></trkpt><trkpt lat="45.9140731" lon="11.9414757"><ele>198.0</ele><time>2026-05-02T08:25:10.909Z</time></trkpt><trkpt lat="45.9142757" lon="11.9415124"><ele>198.0</ele><time>2026-05-02T08:25:11.909Z</time></trkpt><trkpt lat="45.9144685" lon="11.9415411"><ele>201.33333333333331</ele><time>2026-05-02T08:25:12.908Z</time></trkpt><trkpt lat="45.9146576" lon="11.9415676"><ele>204.66666666666666</ele><time>2026-05-02T08:25:13.909Z</time></trkpt><trkpt lat="45.9148549" lon="11.9415945"><ele>208.0</ele><time>2026-05-02T08:25:14.909Z</time></trkpt><trkpt lat="45.91505" lon="11.941629"><ele>207.0</ele><time>2026-05-02T08:25:15.908Z</time></trkpt><trkpt lat="45.9152455" lon="11.9416625"><ele>206.0</ele><time>2026-05-02T08:25:16.909Z</time></trkpt><trkpt lat="45.9154417" lon="11.941698"><ele>205.0</ele><time>2026-05-02T08:25:17.908Z</time></trkpt><trkpt lat="45.9156394" lon="11.9417308"><ele>205.0</ele><time>2026-05-02T08:25:18.91Z</time></trkpt><trkpt lat="45.9158399" lon="11.9417598"><ele>205.0</ele><time>2026-05-02T08:25:19.909Z</time></trkpt><trkpt lat="45.916042" lon="11.9417897"><ele>205.0</ele><time>2026-05-02T08:25:20.908Z</time></trkpt><trkpt lat="45.9162415" lon="11.9418228"><ele>206.66666666666666</ele><time>2026-05-02T08:25:21.909Z</time></trkpt><trkpt lat="45.9164495" lon="11.9418519"><ele>208.33333333333331</ele><time>2026-05-02T08:25:22.908Z</time></trkpt><trkpt lat="45.9166469" lon="11.9418828"><ele>210.0</ele><time>2026-05-02T08:25:23.908Z</time></trkpt><trkpt lat="45.9168483" lon="11.9419117"><ele>213.0</ele><time>2026-05-02T08:25:24.909Z</time></trkpt><trkpt lat="45.917041" lon="11.9419462"><ele>216.0</ele><time>2026-05-02T08:25:25.909Z</time></trkpt><trkpt lat="45.9172336" lon="11.9419783"><ele>219.0</ele><time>2026-05-02T08:25:26.909Z</time></trkpt><trkpt lat="45.9174147" lon="11.9420132"><ele>220.0</ele><time>2026-05-02T08:25:27.91Z</time></trkpt><trkpt lat="45.9175904" lon="11.9420506"><ele>221.0</ele><time>2026-05-02T08:25:28.91Z</time></trkpt><trkpt lat="45.917768" lon="11.9421107"><ele>222.0</ele><time>2026-05-02T08:25:29.909Z</time></trkpt><trkpt lat="45.9179399" lon="11.9421999"><ele>222.0</ele><time>2026-05-02T08:25:30.91Z</time></trkpt><trkpt lat="45.9181059" lon="11.942312"><ele>222.0</ele><time>2026-05-02T08:25:31.91Z</time></trkpt><trkpt lat="45.9182651" lon="11.942436"><ele>222.0</ele><time>2026-05-02T08:25:32.91Z</time></trkpt><trkpt lat="45.9184161" lon="11.9425593"><ele>221.33333333333331</ele><time>2026-05-02T08:25:33.909Z</time></trkpt><trkpt lat="45.9185631" lon="11.9426938"><ele>220.66666666666666</ele><time>2026-05-02T08:25:34.91Z</time></trkpt><trkpt lat="45.9187156" lon="11.9428363"><ele>220.0</ele><time>2026-05-02T08:25:35.909Z</time></trkpt><trkpt lat="45.9188697" lon="11.9429911"><ele>220.0</ele><time>2026-05-02T08:25:36.909Z</time></trkpt><trkpt lat="45.9190233" lon="11.9431444"><ele>220.0</ele><time>2026-05-02T08:25:37.909Z</time></trkpt><trkpt lat="45.9191735" lon="11.9432952"><ele>220.0</ele><time>2026-05-02T08:25:38.909Z</time></trkpt><trkpt lat="45.9193276" lon="11.9434502"><ele>221.66666666666666</ele><time>2026-05-02T08:25:39.91Z</time></trkpt><trkpt lat="45.9194795" lon="11.9436004"><ele>223.33333333333331</ele><time>2026-05-02T08:25:40.91Z</time></trkpt><trkpt lat="45.9196344" lon="11.9437449"><ele>225.0</ele><time>2026-05-02T08:25:41.91Z</time></trkpt><trkpt lat="45.9197912" lon="11.9438908"><ele>225.0</ele><time>2026-05-02T08:25:42.91Z</time></trkpt><trkpt lat="45.9199521" lon="11.9440363"><ele>225.0</ele><time>2026-05-02T08:25:43.91Z</time></trkpt><trkpt lat="45.9201084" lon="11.944188"><ele>225.0</ele><time>2026-05-02T08:25:44.91Z</time></trkpt><trkpt lat="45.9202622" lon="11.9443427"><ele>225.33333333333331</ele><time>2026-05-02T08:25:45.909Z</time></trkpt><trkpt lat="45.9204048" lon="11.9444897"><ele>225.66666666666666</ele><time>2026-05-02T08:25:46.909Z</time></trkpt><trkpt lat="45.9205419" lon="11.9446291"><ele>226.0</ele><time>2026-05-02T08:25:47.91Z</time></trkpt><trkpt lat="45.9206843" lon="11.9447745"><ele>226.0</ele><time>2026-05-02T08:25:48.91Z</time></trkpt><trkpt lat="45.9208276" lon="11.9449287"><ele>226.0</ele><time>2026-05-02T08:25:49.91Z</time></trkpt><trkpt lat="45.9209765" lon="11.9450695"><ele>226.0</ele><time>2026-05-02T08:25:50.91Z</time></trkpt><trkpt lat="45.9211336" lon="11.9451939"><ele>226.0</ele><time>2026-05-02T08:25:51.91Z</time></trkpt><trkpt lat="45.9212982" lon="11.9452955"><ele>226.0</ele><time>2026-05-02T08:25:52.909Z</time></trkpt><trkpt lat="45.9214736" lon="11.945381"><ele>226.0</ele><time>2026-05-02T08:25:53.909Z</time></trkpt><trkpt lat="45.9216489" lon="11.9454457"><ele>226.33333333333331</ele><time>2026-05-02T08:25:54.91Z</time></trkpt><trkpt lat="45.9218308" lon="11.9454989"><ele>226.66666666666669</ele><time>2026-05-02T08:25:55.909Z</time></trkpt><trkpt lat="45.922008" lon="11.9455158"><ele>227.0</ele><time>2026-05-02T08:25:56.909Z</time></trkpt><trkpt lat="45.9221879" lon="11.9455271"><ele>227.0</ele><time>2026-05-02T08:25:57.91Z</time></trkpt><trkpt lat="45.9223735" lon="11.9455083"><ele>227.0</ele><time>2026-05-02T08:25:58.909Z</time></trkpt><trkpt lat="45.9225512" lon="11.9454722"><ele>227.0</ele><time>2026-05-02T08:25:59.909Z</time></trkpt><trkpt lat="45.922725" lon="11.9454064"><ele>225.33333333333334</ele><time>2026-05-02T08:26:00.91Z</time></trkpt><trkpt lat="45.922899" lon="11.9453271"><ele>223.66666666666669</ele><time>2026-05-02T08:26:01.91Z</time></trkpt><trkpt lat="45.9230652" lon="11.9452285"><ele>222.0</ele><time>2026-05-02T08:26:02.91Z</time></trkpt><trkpt lat="45.9232243" lon="11.9451049"><ele>223.0</ele><time>2026-05-02T08:26:03.91Z</time></trkpt><trkpt lat="45.9233736" lon="11.944962"><ele>224.0</ele><time>2026-05-02T08:26:04.909Z</time></trkpt><trkpt lat="45.9235174" lon="11.9448145"><ele>225.0</ele><time>2026-05-02T08:26:05.909Z</time></trkpt><trkpt lat="45.9236554" lon="11.9446659"><ele>225.0</ele><time>2026-05-02T08:26:06.91Z</time></trkpt><trkpt lat="45.9237926" lon="11.9445087"><ele>225.0</ele><time>2026-05-02T08:26:07.909Z</time></trkpt><trkpt lat="45.9239291" lon="11.9443576"><ele>225.0</ele><time>2026-05-02T08:26:08.909Z</time></trkpt><trkpt lat="45.9240685" lon="11.9442048"><ele>225.33333333333331</ele><time>2026-05-02T08:26:09.91Z</time></trkpt><trkpt lat="45.9242079" lon="11.9440521"><ele>225.66666666666666</ele><time>2026-05-02T08:26:10.909Z</time></trkpt><trkpt lat="45.9243429" lon="11.9439071"><ele>226.0</ele><time>2026-05-02T08:26:11.91Z</time></trkpt><trkpt lat="45.9244869" lon="11.9437495"><ele>226.0</ele><time>2026-05-02T08:26:12.91Z</time></trkpt><trkpt lat="45.9246293" lon="11.9435863"><ele>226.0</ele><time>2026-05-02T08:26:13.91Z</time></trkpt><trkpt lat="45.9247799" lon="11.9434171"><ele>226.0</ele><time>2026-05-02T08:26:14.91Z</time></trkpt><trkpt lat="45.92493" lon="11.9432472"><ele>225.0</ele><time>2026-05-02T08:26:15.91Z</time></trkpt><trkpt lat="45.9250798" lon="11.9430843"><ele>224.0</ele><time>2026-05-02T08:26:16.91Z</time></trkpt><trkpt lat="45.9252271" lon="11.9429206"><ele>223.0</ele><time>2026-05-02T08:26:17.909Z</time></trkpt><trkpt lat="45.9253719" lon="11.9427581"><ele>223.0</ele><time>2026-05-02T08:26:18.91Z</time></trkpt><trkpt lat="45.9255073" lon="11.942605"><ele>223.0</ele><time>2026-05-02T08:26:19.91Z</time></trkpt><trkpt lat="45.925648" lon="11.9424492"><ele>223.0</ele><time>2026-05-02T08:26:20.91Z</time></trkpt><trkpt lat="45.92579" lon="11.9422792"><ele>221.33333333333331</ele><time>2026-05-02T08:26:21.91Z</time></trkpt><trkpt lat="45.9259402" lon="11.9420795"><ele>219.66666666666669</ele><time>2026-05-02T08:26:22.91Z</time></trkpt><trkpt lat="45.9261037" lon="11.9418426"><ele>218.0</ele><time>2026-05-02T08:26:23.909Z</time></trkpt><trkpt lat="45.9262746" lon="11.9415625"><ele>218.0</ele><time>2026-05-02T08:26:24.91Z</time></trkpt><trkpt lat="45.9264437" lon="11.9412351"><ele>218.0</ele><time>2026-05-02T08:26:25.909Z</time></trkpt><trkpt lat="45.926613" lon="11.9408798"><ele>213.0</ele><time>2026-05-02T08:26:26.91Z</time></trkpt><trkpt lat="45.9267686" lon="11.940494"><ele>208.0</ele><time>2026-05-02T08:26:27.91Z</time></trkpt><trkpt lat="45.9269195" lon="11.9400918"><ele>210.5</ele><time>2026-05-02T08:26:28.911Z</time></trkpt><trkpt lat="45.9270597" lon="11.9397042"><ele>213.0</ele><time>2026-05-02T08:26:29.91Z</time></trkpt><trkpt lat="45.9271959" lon="11.9393494"><ele>214.5</ele><time>2026-05-02T08:26:30.911Z</time></trkpt><trkpt lat="45.9273275" lon="11.9390119"><ele>216.0</ele><time>2026-05-02T08:26:31.91Z</time></trkpt><trkpt lat="45.9274527" lon="11.9386857"><ele>212.5</ele><time>2026-05-02T08:26:32.91Z</time></trkpt><trkpt lat="45.9275711" lon="11.9383778"><ele>209.0</ele><time>2026-05-02T08:26:33.911Z</time></trkpt><trkpt lat="45.9276905" lon="11.9380826"><ele>209.0</ele><time>2026-05-02T08:26:34.91Z</time></trkpt><trkpt lat="45.9278183" lon="11.9378153"><ele>209.0</ele><time>2026-05-02T08:26:35.911Z</time></trkpt><trkpt lat="45.927953" lon="11.9375689"><ele>209.0</ele><time>2026-05-02T08:26:36.911Z</time></trkpt><trkpt lat="45.9281024" lon="11.9373383"><ele>210.33333333333334</ele><time>2026-05-02T08:26:37.911Z</time></trkpt><trkpt lat="45.9282624" lon="11.9371227"><ele>211.66666666666669</ele><time>2026-05-02T08:26:38.911Z</time></trkpt><trkpt lat="45.9284325" lon="11.9369333"><ele>213.0</ele><time>2026-05-02T08:26:39.91Z</time></trkpt><trkpt lat="45.928607" lon="11.9367602"><ele>214.0</ele><time>2026-05-02T08:26:40.911Z</time></trkpt><trkpt lat="45.9287841" lon="11.9366044"><ele>215.0</ele><time>2026-05-02T08:26:41.911Z</time></trkpt><trkpt lat="45.9289655" lon="11.9364603"><ele>216.0</ele><time>2026-05-02T08:26:42.91Z</time></trkpt><trkpt lat="45.9291438" lon="11.9363245"><ele>213.66666666666669</ele><time>2026-05-02T08:26:43.91Z</time></trkpt><trkpt lat="45.9293266" lon="11.9361907"><ele>211.33333333333334</ele><time>2026-05-02T08:26:44.911Z</time></trkpt><trkpt lat="45.9295064" lon="11.9360525"><ele>209.0</ele><time>2026-05-02T08:26:45.91Z</time></trkpt><trkpt lat="45.9296817" lon="11.9359223"><ele>211.0</ele><time>2026-05-02T08:26:46.911Z</time></trkpt><trkpt lat="45.9298538" lon="11.9357863"><ele>213.0</ele><time>2026-05-02T08:26:47.91Z</time></trkpt><trkpt lat="45.9300243" lon="11.935623"><ele>215.0</ele><time>2026-05-02T08:26:48.91Z</time></trkpt><trkpt lat="45.9301878" lon="11.9354493"><ele>215.0</ele><time>2026-05-02T08:26:49.911Z</time></trkpt><trkpt lat="45.9303439" lon="11.9352533"><ele>215.0</ele><time>2026-05-02T08:26:50.911Z</time></trkpt><trkpt lat="45.9304851" lon="11.9350445"><ele>215.0</ele><time>2026-05-02T08:26:51.91Z</time></trkpt><trkpt lat="45.9306117" lon="11.9348396"><ele>215.66666666666669</ele><time>2026-05-02T08:26:52.911Z</time></trkpt><trkpt lat="45.9307185" lon="11.9346403"><ele>216.33333333333331</ele><time>2026-05-02T08:26:53.911Z</time></trkpt><trkpt lat="45.9308073" lon="11.9344508"><ele>217.0</ele><time>2026-05-02T08:26:54.91Z</time></trkpt><trkpt lat="45.9308901" lon="11.934278"><ele>216.6</ele><time>2026-05-02T08:26:55.911Z</time></trkpt><trkpt lat="45.9309681" lon="11.9341384"><ele>216.2</ele><time>2026-05-02T08:26:56.911Z</time></trkpt><trkpt lat="45.9310379" lon="11.9340053"><ele>215.8</ele><time>2026-05-02T08:26:57.91Z</time></trkpt><trkpt lat="45.9310868" lon="11.9339007"><ele>215.4</ele><time>2026-05-02T08:26:58.91Z</time></trkpt><trkpt lat="45.9311356" lon="11.9337873"><ele>215.0</ele><time>2026-05-02T08:27:00.911Z</time></trkpt><trkpt lat="45.9311667" lon="11.9337073"><ele>215.00000000000003</ele><time>2026-05-02T08:32:15.915Z</time></trkpt><trkpt lat="45.9310864" lon="11.9336944"><ele>215.0</ele><time>2026-05-02T08:32:19.915Z</time></trkpt><trkpt lat="45.9310508" lon="11.9337742"><ele>215.0</ele><time>2026-05-02T08:32:20.915Z</time></trkpt><trkpt lat="45.9310087" lon="11.9338829"><ele>215.0</ele><time>2026-05-02T08:32:21.916Z</time></trkpt><trkpt lat="45.9309624" lon="11.9340038"><ele>215.00000000000003</ele><time>2026-05-02T08:32:22.916Z</time></trkpt><trkpt lat="45.9309104" lon="11.9341375"><ele>215.0</ele><time>2026-05-02T08:32:23.915Z</time></trkpt><trkpt lat="45.9308531" lon="11.9342789"><ele>215.5</ele><time>2026-05-02T08:32:24.916Z</time></trkpt><trkpt lat="45.9307893" lon="11.9344265"><ele>216.0</ele><time>2026-05-02T08:32:25.916Z</time></trkpt><trkpt lat="45.9307193" lon="11.9345745"><ele>216.5</ele><time>2026-05-02T08:32:26.916Z</time></trkpt><trkpt lat="45.9306459" lon="11.9347167"><ele>217.0</ele><time>2026-05-02T08:32:27.916Z</time></trkpt><trkpt lat="45.9305677" lon="11.9348535"><ele>217.0</ele><time>2026-05-02T08:32:28.917Z</time></trkpt><trkpt lat="45.9304867" lon="11.9349847"><ele>217.0</ele><time>2026-05-02T08:32:29.916Z</time></trkpt><trkpt lat="45.9304026" lon="11.9351095"><ele>217.0</ele><time>2026-05-02T08:32:30.916Z</time></trkpt><trkpt lat="45.9303156" lon="11.9352304"><ele>217.0</ele><time>2026-05-02T08:32:31.917Z</time></trkpt><trkpt lat="45.9302246" lon="11.9353443"><ele>217.0</ele><time>2026-05-02T08:32:32.916Z</time></trkpt><trkpt lat="45.9301302" lon="11.9354528"><ele>217.0</ele><time>2026-05-02T08:32:33.917Z</time></trkpt><trkpt lat="45.930033" lon="11.9355568"><ele>217.0</ele><time>2026-05-02T08:32:34.917Z</time></trkpt><trkpt lat="45.9299332" lon="11.9356565"><ele>217.0</ele><time>2026-05-02T08:32:35.917Z</time></trkpt><trkpt lat="45.9298309" lon="11.9357501"><ele>217.0</ele><time>2026-05-02T08:32:36.917Z</time></trkpt><trkpt lat="45.9297259" lon="11.9358374"><ele>217.0</ele><time>2026-05-02T08:32:37.917Z</time></trkpt><trkpt lat="45.9296196" lon="11.93592"><ele>217.0</ele><time>2026-05-02T08:32:38.916Z</time></trkpt><trkpt lat="45.929512" lon="11.9360009"><ele>217.0</ele><time>2026-05-02T08:32:39.916Z</time></trkpt><trkpt lat="45.9294037" lon="11.9360818"><ele>216.75</ele><time>2026-05-02T08:32:40.916Z</time></trkpt><trkpt lat="45.9292925" lon="11.9361647"><ele>216.5</ele><time>2026-05-02T08:32:41.917Z</time></trkpt><trkpt lat="45.9291801" lon="11.9362499"><ele>216.25</ele><time>2026-05-02T08:32:42.916Z</time></trkpt><trkpt lat="45.929066" lon="11.9363383"><ele>216.0</ele><time>2026-05-02T08:32:43.916Z</time></trkpt><trkpt lat="45.9289501" lon="11.9364289"><ele>216.0</ele><time>2026-05-02T08:32:44.916Z</time></trkpt><trkpt lat="45.9288328" lon="11.9365203"><ele>216.0</ele><time>2026-05-02T08:32:45.917Z</time></trkpt><trkpt lat="45.9287155" lon="11.9366134"><ele>216.0</ele><time>2026-05-02T08:32:46.917Z</time></trkpt><trkpt lat="45.9285993" lon="11.9367095"><ele>216.0</ele><time>2026-05-02T08:32:47.916Z</time></trkpt><trkpt lat="45.9284865" lon="11.9368099"><ele>215.75</ele><time>2026-05-02T08:32:48.917Z</time></trkpt><trkpt lat="45.9283778" lon="11.9369179"><ele>215.5</ele><time>2026-05-02T08:32:49.917Z</time></trkpt><trkpt lat="45.9282737" lon="11.9370353"><ele>215.25</ele><time>2026-05-02T08:32:50.916Z</time></trkpt><trkpt lat="45.9281737" lon="11.9371626"><ele>215.0</ele><time>2026-05-02T08:32:51.916Z</time></trkpt><trkpt lat="45.9280773" lon="11.9372999"><ele>215.0</ele><time>2026-05-02T08:32:52.916Z</time></trkpt><trkpt lat="45.9279826" lon="11.9374452"><ele>215.0</ele><time>2026-05-02T08:32:53.917Z</time></trkpt><trkpt lat="45.9278908" lon="11.9375977"><ele>215.0</ele><time>2026-05-02T08:32:54.916Z</time></trkpt><trkpt lat="45.9278035" lon="11.937756"><ele>215.0</ele><time>2026-05-02T08:32:55.917Z</time></trkpt><trkpt lat="45.9277204" lon="11.9379228"><ele>215.25</ele><time>2026-05-02T08:32:56.916Z</time></trkpt><trkpt lat="45.9276414" lon="11.9380988"><ele>215.5</ele><time>2026-05-02T08:32:57.916Z</time></trkpt><trkpt lat="45.9275656" lon="11.9382829"><ele>215.75</ele><time>2026-05-02T08:32:58.917Z</time></trkpt><trkpt lat="45.9274924" lon="11.9384732"><ele>216.0</ele><time>2026-05-02T08:32:59.916Z</time></trkpt><trkpt lat="45.9274192" lon="11.9386673"><ele>216.0</ele><time>2026-05-02T08:33:00.916Z</time></trkpt><trkpt lat="45.9273447" lon="11.938864"><ele>216.0</ele><time>2026-05-02T08:33:01.917Z</time></trkpt><trkpt lat="45.927269" lon="11.9390618"><ele>216.0</ele><time>2026-05-02T08:33:02.917Z</time></trkpt><trkpt lat="45.9271923" lon="11.9392619"><ele>215.0</ele><time>2026-05-02T08:33:03.916Z</time></trkpt><trkpt lat="45.9271169" lon="11.9394643"><ele>214.0</ele><time>2026-05-02T08:33:04.916Z</time></trkpt><trkpt lat="45.9270414" lon="11.9396677"><ele>213.0</ele><time>2026-05-02T08:33:05.917Z</time></trkpt><trkpt lat="45.9269647" lon="11.9398718"><ele>211.33333333333331</ele><time>2026-05-02T08:33:06.916Z</time></trkpt><trkpt lat="45.9268874" lon="11.9400769"><ele>209.66666666666666</ele><time>2026-05-02T08:33:07.917Z</time></trkpt><trkpt lat="45.9268106" lon="11.9402822"><ele>208.0</ele><time>2026-05-02T08:33:08.916Z</time></trkpt><trkpt lat="45.9267329" lon="11.940487"><ele>211.33333333333331</ele><time>2026-05-02T08:33:09.916Z</time></trkpt><trkpt lat="45.9266537" lon="11.9406912"><ele>214.66666666666669</ele><time>2026-05-02T08:33:10.917Z</time></trkpt><trkpt lat="45.9265712" lon="11.9408925"><ele>218.0</ele><time>2026-05-02T08:33:11.917Z</time></trkpt><trkpt lat="45.9264841" lon="11.9410897"><ele>218.0</ele><time>2026-05-02T08:33:12.916Z</time></trkpt><trkpt lat="45.9263901" lon="11.9412779"><ele>218.0</ele><time>2026-05-02T08:33:13.916Z</time></trkpt><trkpt lat="45.9262921" lon="11.9414586"><ele>218.0</ele><time>2026-05-02T08:33:14.916Z</time></trkpt><trkpt lat="45.9261926" lon="11.9416343"><ele>218.0</ele><time>2026-05-02T08:33:15.917Z</time></trkpt><trkpt lat="45.9260905" lon="11.9418042"><ele>218.0</ele><time>2026-05-02T08:33:16.916Z</time></trkpt><trkpt lat="45.9259832" lon="11.9419675"><ele>218.0</ele><time>2026-05-02T08:33:17.916Z</time></trkpt><trkpt lat="45.9258704" lon="11.9421234"><ele>219.66666666666669</ele><time>2026-05-02T08:33:18.917Z</time></trkpt><trkpt lat="45.925754" lon="11.9422734"><ele>221.33333333333331</ele><time>2026-05-02T08:33:19.917Z</time></trkpt><trkpt lat="45.9256352" lon="11.9424182"><ele>223.0</ele><time>2026-05-02T08:33:20.917Z</time></trkpt><trkpt lat="45.9255135" lon="11.9425579"><ele>223.0</ele><time>2026-05-02T08:33:21.916Z</time></trkpt><trkpt lat="45.9253906" lon="11.9426956"><ele>223.0</ele><time>2026-05-02T08:33:22.918Z</time></trkpt><trkpt lat="45.9252663" lon="11.9428345"><ele>223.0</ele><time>2026-05-02T08:33:23.917Z</time></trkpt><trkpt lat="45.92514" lon="11.9429743"><ele>224.0</ele><time>2026-05-02T08:33:24.916Z</time></trkpt><trkpt lat="45.9250118" lon="11.9431148"><ele>225.0</ele><time>2026-05-02T08:33:25.917Z</time></trkpt><trkpt lat="45.9248816" lon="11.9432562"><ele>226.0</ele><time>2026-05-02T08:33:26.918Z</time></trkpt><trkpt lat="45.9247496" lon="11.9433967"><ele>226.0</ele><time>2026-05-02T08:33:27.918Z</time></trkpt><trkpt lat="45.9246132" lon="11.9435357"><ele>226.0</ele><time>2026-05-02T08:33:28.916Z</time></trkpt><trkpt lat="45.9244765" lon="11.9436693"><ele>226.0</ele><time>2026-05-02T08:33:29.918Z</time></trkpt><trkpt lat="45.924336" lon="11.9438173"><ele>226.0</ele><time>2026-05-02T08:33:30.918Z</time></trkpt><trkpt lat="45.9241935" lon="11.9439712"><ele>226.0</ele><time>2026-05-02T08:33:31.917Z</time></trkpt><trkpt lat="45.9240502" lon="11.944132"><ele>226.0</ele><time>2026-05-02T08:33:32.918Z</time></trkpt><trkpt lat="45.9239035" lon="11.9442986"><ele>225.66666666666666</ele><time>2026-05-02T08:33:33.917Z</time></trkpt><trkpt lat="45.9237549" lon="11.9444696"><ele>225.33333333333331</ele><time>2026-05-02T08:33:34.918Z</time></trkpt><trkpt lat="45.9236037" lon="11.9446494"><ele>225.0</ele><time>2026-05-02T08:33:35.917Z</time></trkpt><trkpt lat="45.923444" lon="11.9448336"><ele>226.0</ele><time>2026-05-02T08:33:36.918Z</time></trkpt><trkpt lat="45.9232675" lon="11.9450131"><ele>227.0</ele><time>2026-05-02T08:33:37.917Z</time></trkpt><trkpt lat="45.9230787" lon="11.9451601"><ele>228.0</ele><time>2026-05-02T08:33:38.918Z</time></trkpt><trkpt lat="45.9228791" lon="11.9452799"><ele>227.66666666666669</ele><time>2026-05-02T08:33:39.917Z</time></trkpt><trkpt lat="45.9226741" lon="11.9453788"><ele>227.33333333333334</ele><time>2026-05-02T08:33:40.918Z</time></trkpt><trkpt lat="45.9224561" lon="11.9454466"><ele>227.0</ele><time>2026-05-02T08:33:41.917Z</time></trkpt><trkpt lat="45.9222317" lon="11.9454803"><ele>227.0</ele><time>2026-05-02T08:33:42.918Z</time></trkpt><trkpt lat="45.9220083" lon="11.9454737"><ele>227.0</ele><time>2026-05-02T08:33:43.917Z</time></trkpt><trkpt lat="45.9217917" lon="11.9454389"><ele>227.0</ele><time>2026-05-02T08:33:44.918Z</time></trkpt><trkpt lat="45.9215807" lon="11.9453818"><ele>226.66666666666669</ele><time>2026-05-02T08:33:45.918Z</time></trkpt><trkpt lat="45.9213788" lon="11.9452928"><ele>226.33333333333331</ele><time>2026-05-02T08:33:46.918Z</time></trkpt><trkpt lat="45.921191" lon="11.9451701"><ele>226.0</ele><time>2026-05-02T08:33:47.917Z</time></trkpt><trkpt lat="45.9210142" lon="11.9450441"><ele>226.0</ele><time>2026-05-02T08:33:48.918Z</time></trkpt><trkpt lat="45.9208398" lon="11.9448902"><ele>226.0</ele><time>2026-05-02T08:33:49.918Z</time></trkpt><trkpt lat="45.920679" lon="11.9447329"><ele>226.0</ele><time>2026-05-02T08:33:50.918Z</time></trkpt><trkpt lat="45.9205212" lon="11.9445679"><ele>226.0</ele><time>2026-05-02T08:33:51.918Z</time></trkpt><trkpt lat="45.9203635" lon="11.9443991"><ele>226.0</ele><time>2026-05-02T08:33:52.917Z</time></trkpt><trkpt lat="45.9201995" lon="11.9442417"><ele>226.0</ele><time>2026-05-02T08:33:53.917Z</time></trkpt><trkpt lat="45.9200393" lon="11.9440711"><ele>225.66666666666666</ele><time>2026-05-02T08:33:54.918Z</time></trkpt><trkpt lat="45.9198807" lon="11.9439094"><ele>225.33333333333331</ele><time>2026-05-02T08:33:55.918Z</time></trkpt><trkpt lat="45.9197263" lon="11.9437452"><ele>225.0</ele><time>2026-05-02T08:33:56.917Z</time></trkpt><trkpt lat="45.9195679" lon="11.9435782"><ele>225.0</ele><time>2026-05-02T08:33:57.917Z</time></trkpt><trkpt lat="45.9194051" lon="11.9434145"><ele>225.0</ele><time>2026-05-02T08:33:58.917Z</time></trkpt><trkpt lat="45.9192441" lon="11.9432635"><ele>225.0</ele><time>2026-05-02T08:33:59.917Z</time></trkpt><trkpt lat="45.9190835" lon="11.9430999"><ele>223.33333333333331</ele><time>2026-05-02T08:34:00.917Z</time></trkpt><trkpt lat="45.9189185" lon="11.9429354"><ele>221.66666666666666</ele><time>2026-05-02T08:34:01.918Z</time></trkpt><trkpt lat="45.9187544" lon="11.9427712"><ele>220.0</ele><time>2026-05-02T08:34:02.918Z</time></trkpt><trkpt lat="45.918589" lon="11.9426099"><ele>220.66666666666666</ele><time>2026-05-02T08:34:03.918Z</time></trkpt><trkpt lat="45.9184115" lon="11.9424525"><ele>221.33333333333331</ele><time>2026-05-02T08:34:04.918Z</time></trkpt><trkpt lat="45.9182284" lon="11.942309"><ele>222.0</ele><time>2026-05-02T08:34:05.918Z</time></trkpt><trkpt lat="45.9180393" lon="11.9421849"><ele>222.0</ele><time>2026-05-02T08:34:06.917Z</time></trkpt><trkpt lat="45.917838" lon="11.9420901"><ele>222.0</ele><time>2026-05-02T08:34:07.918Z</time></trkpt><trkpt lat="45.9176261" lon="11.9420185"><ele>222.0</ele><time>2026-05-02T08:34:08.918Z</time></trkpt><trkpt lat="45.9174058" lon="11.9419692"><ele>221.0</ele><time>2026-05-02T08:34:09.919Z</time></trkpt><trkpt lat="45.9171845" lon="11.9419326"><ele>220.0</ele><time>2026-05-02T08:34:10.917Z</time></trkpt><trkpt lat="45.9169613" lon="11.9418932"><ele>219.0</ele><time>2026-05-02T08:34:11.918Z</time></trkpt><trkpt lat="45.9167338" lon="11.9418531"><ele>214.5</ele><time>2026-05-02T08:34:12.917Z</time></trkpt><trkpt lat="45.9165051" lon="11.9418145"><ele>210.0</ele><time>2026-05-02T08:34:13.917Z</time></trkpt><trkpt lat="45.916277" lon="11.9417712"><ele>210.0</ele><time>2026-05-02T08:34:14.918Z</time></trkpt><trkpt lat="45.9160452" lon="11.9417374"><ele>210.0</ele><time>2026-05-02T08:34:15.917Z</time></trkpt><trkpt lat="45.9158088" lon="11.9416999"><ele>212.0</ele><time>2026-05-02T08:34:16.918Z</time></trkpt><trkpt lat="45.9155684" lon="11.9416685"><ele>214.0</ele><time>2026-05-02T08:34:17.918Z</time></trkpt><trkpt lat="45.9153284" lon="11.9416227"><ele>214.0</ele><time>2026-05-02T08:34:18.917Z</time></trkpt><trkpt lat="45.9150897" lon="11.9415814"><ele>214.0</ele><time>2026-05-02T08:34:19.918Z</time></trkpt><trkpt lat="45.9148483" lon="11.9415489"><ele>211.0</ele><time>2026-05-02T08:34:20.918Z</time></trkpt><trkpt lat="45.9146049" lon="11.9415093"><ele>208.0</ele><time>2026-05-02T08:34:21.919Z</time></trkpt><trkpt lat="45.9143631" lon="11.9414682"><ele>203.0</ele><time>2026-05-02T08:34:22.918Z</time></trkpt><trkpt lat="45.914126" lon="11.9414265"><ele>198.0</ele><time>2026-05-02T08:34:23.918Z</time></trkpt><trkpt lat="45.9138913" lon="11.9413895"><ele>198.0</ele><time>2026-05-02T08:34:24.918Z</time></trkpt><trkpt lat="45.9136501" lon="11.9413618"><ele>198.0</ele><time>2026-05-02T08:34:25.918Z</time></trkpt><trkpt lat="45.9134178" lon="11.9413281"><ele>196.5</ele><time>2026-05-02T08:34:26.919Z</time></trkpt><trkpt lat="45.9131875" lon="11.9412781"><ele>195.0</ele><time>2026-05-02T08:34:27.918Z</time></trkpt><trkpt lat="45.9129598" lon="11.9412563"><ele>195.0</ele><time>2026-05-02T08:34:28.919Z</time></trkpt><trkpt lat="45.9127349" lon="11.9412568"><ele>195.0</ele><time>2026-05-02T08:34:29.919Z</time></trkpt><trkpt lat="45.9125109" lon="11.9412768"><ele>195.0</ele><time>2026-05-02T08:34:30.919Z</time></trkpt><trkpt lat="45.9122866" lon="11.94131"><ele>192.5</ele><time>2026-05-02T08:34:31.919Z</time></trkpt><trkpt lat="45.912058" lon="11.9413559"><ele>190.0</ele><time>2026-05-02T08:34:32.919Z</time></trkpt><trkpt lat="45.9118282" lon="11.9414066"><ele>191.0</ele><time>2026-05-02T08:34:33.918Z</time></trkpt><trkpt lat="45.9115952" lon="11.9414554"><ele>192.0</ele><time>2026-05-02T08:34:34.918Z</time></trkpt><trkpt lat="45.9113619" lon="11.9415049"><ele>192.0</ele><time>2026-05-02T08:34:35.919Z</time></trkpt><trkpt lat="45.9111191" lon="11.9415381"><ele>192.0</ele><time>2026-05-02T08:34:36.918Z</time></trkpt><trkpt lat="45.9108828" lon="11.94159"><ele>193.5</ele><time>2026-05-02T08:34:37.919Z</time></trkpt><trkpt lat="45.9106434" lon="11.9416455"><ele>195.0</ele><time>2026-05-02T08:34:38.919Z</time></trkpt><trkpt lat="45.9104049" lon="11.9417134"><ele>188.0</ele><time>2026-05-02T08:34:39.918Z</time></trkpt><trkpt lat="45.9101656" lon="11.9417886"><ele>181.0</ele><time>2026-05-02T08:34:40.919Z</time></trkpt><trkpt lat="45.9099354" lon="11.941873"><ele>181.0</ele><time>2026-05-02T08:34:41.919Z</time></trkpt><trkpt lat="45.9096961" lon="11.9419567"><ele>181.0</ele><time>2026-05-02T08:34:42.919Z</time></trkpt><trkpt lat="45.9094548" lon="11.9420419"><ele>183.0</ele><time>2026-05-02T08:34:43.918Z</time></trkpt><trkpt lat="45.9092211" lon="11.9421253"><ele>185.0</ele><time>2026-05-02T08:34:44.918Z</time></trkpt><trkpt lat="45.9089857" lon="11.9422091"><ele>185.0</ele><time>2026-05-02T08:34:45.919Z</time></trkpt><trkpt lat="45.908754" lon="11.9422941"><ele>185.0</ele><time>2026-05-02T08:34:46.919Z</time></trkpt><trkpt lat="45.908529" lon="11.9423666"><ele>183.0</ele><time>2026-05-02T08:34:47.918Z</time></trkpt><trkpt lat="45.9082974" lon="11.9424091"><ele>181.0</ele><time>2026-05-02T08:34:48.918Z</time></trkpt><trkpt lat="45.9080658" lon="11.9424078"><ele>181.0</ele><time>2026-05-02T08:34:49.918Z</time></trkpt><trkpt lat="45.9078354" lon="11.9423548"><ele>181.0</ele><time>2026-05-02T08:34:50.918Z</time></trkpt><trkpt lat="45.9076087" lon="11.9422647"><ele>179.5</ele><time>2026-05-02T08:34:51.919Z</time></trkpt><trkpt lat="45.9073787" lon="11.9421639"><ele>178.0</ele><time>2026-05-02T08:34:52.918Z</time></trkpt><trkpt lat="45.907161" lon="11.9420682"><ele>178.0</ele><time>2026-05-02T08:34:53.918Z</time></trkpt><trkpt lat="45.9069406" lon="11.9419705"><ele>178.0</ele><time>2026-05-02T08:34:54.918Z</time></trkpt><trkpt lat="45.9067212" lon="11.9418701"><ele>178.0</ele><time>2026-05-02T08:34:55.918Z</time></trkpt><trkpt lat="45.9065199" lon="11.9417782"><ele>178.0</ele><time>2026-05-02T08:34:56.918Z</time></trkpt><trkpt lat="45.9063247" lon="11.9416842"><ele>178.0</ele><time>2026-05-02T08:34:57.918Z</time></trkpt><trkpt lat="45.906135" lon="11.9416249"><ele>178.33333333333334</ele><time>2026-05-02T08:34:58.919Z</time></trkpt><trkpt lat="45.9059713" lon="11.9415451"><ele>178.66666666666666</ele><time>2026-05-02T08:34:59.919Z</time></trkpt><trkpt lat="45.9058206" lon="11.941489"><ele>179.0</ele><time>2026-05-02T08:35:00.918Z</time></trkpt><trkpt lat="45.9056841" lon="11.9414399"><ele>179.79999999999998</ele><time>2026-05-02T08:35:01.918Z</time></trkpt><trkpt lat="45.9055839" lon="11.9413683"><ele>180.6</ele><time>2026-05-02T08:35:02.918Z</time></trkpt><trkpt lat="45.9055088" lon="11.9412806"><ele>181.4</ele><time>2026-05-02T08:35:03.918Z</time></trkpt><trkpt lat="45.9054476" lon="11.9411827"><ele>182.2</ele><time>2026-05-02T08:35:04.918Z</time></trkpt><trkpt lat="45.9054014" lon="11.9410728"><ele>183.0</ele><time>2026-05-02T08:35:05.919Z</time></trkpt><trkpt lat="45.9053502" lon="11.9409912"><ele>183.0</ele><time>2026-05-02T08:35:06.918Z</time></trkpt><trkpt lat="45.9052816" lon="11.9409518"><ele>183.0</ele><time>2026-05-02T08:35:07.919Z</time></trkpt><trkpt lat="45.9052127" lon="11.94096"><ele>183.0</ele><time>2026-05-02T08:35:08.918Z</time></trkpt><trkpt lat="45.9051443" lon="11.9410098"><ele>183.0</ele><time>2026-05-02T08:35:09.919Z</time></trkpt><trkpt lat="45.9050898" lon="11.9411069"><ele>183.0</ele><time>2026-05-02T08:35:10.919Z</time></trkpt><trkpt lat="45.9050456" lon="11.9412263"><ele>183.0</ele><time>2026-05-02T08:35:11.919Z</time></trkpt><trkpt lat="45.904994" lon="11.9413392"><ele>183.66666666666666</ele><time>2026-05-02T08:35:12.919Z</time></trkpt><trkpt lat="45.9049286" lon="11.9414318"><ele>184.33333333333334</ele><time>2026-05-02T08:35:13.918Z</time></trkpt><trkpt lat="45.9048539" lon="11.9414968"><ele>185.0</ele><time>2026-05-02T08:35:14.919Z</time></trkpt><trkpt lat="45.904784" lon="11.9415432"><ele>185.66666666666669</ele><time>2026-05-02T08:35:15.919Z</time></trkpt><trkpt lat="45.9046833" lon="11.9415992"><ele>186.33333333333334</ele><time>2026-05-02T08:35:17.919Z</time></trkpt><trkpt lat="45.9046415" lon="11.9416739"><ele>187.0</ele><time>2026-05-02T08:35:28.919Z</time></trkpt><trkpt lat="45.9046325" lon="11.9417652"><ele>187.0</ele><time>2026-05-02T08:35:30.919Z</time></trkpt><trkpt lat="45.9046102" lon="11.941651"><ele>187.0</ele><time>2026-05-02T08:44:19.929Z</time></trkpt><trkpt lat="45.9044858" lon="11.9416803"><ele>187.0</ele><time>2026-05-02T08:44:21.929Z</time></trkpt><trkpt lat="45.9044112" lon="11.9417083"><ele>187.0</ele><time>2026-05-02T08:44:22.928Z</time></trkpt><trkpt lat="45.9043312" lon="11.9417421"><ele>187.0</ele><time>2026-05-02T08:44:23.929Z</time></trkpt><trkpt lat="45.904246" lon="11.9417775"><ele>187.39999999999998</ele><time>2026-05-02T08:44:24.928Z</time></trkpt><trkpt lat="45.9041591" lon="11.9418158"><ele>187.79999999999998</ele><time>2026-05-02T08:44:25.929Z</time></trkpt><trkpt lat="45.9040678" lon="11.9418535"><ele>188.2</ele><time>2026-05-02T08:44:26.929Z</time></trkpt><trkpt lat="45.903972" lon="11.9418915"><ele>188.6</ele><time>2026-05-02T08:44:27.929Z</time></trkpt><trkpt lat="45.9038717" lon="11.941933"><ele>189.0</ele><time>2026-05-02T08:44:28.928Z</time></trkpt><trkpt lat="45.9037676" lon="11.9419789"><ele>189.0</ele><time>2026-05-02T08:44:29.929Z</time></trkpt><trkpt lat="45.9036571" lon="11.9420273"><ele>189.0</ele><time>2026-05-02T08:44:30.928Z</time></trkpt><trkpt lat="45.9035452" lon="11.9420765"><ele>189.0</ele><time>2026-05-02T08:44:31.929Z</time></trkpt><trkpt lat="45.9034276" lon="11.9421278"><ele>189.0</ele><time>2026-05-02T08:44:32.929Z</time></trkpt><trkpt lat="45.903304" lon="11.942182"><ele>189.25</ele><time>2026-05-02T08:44:33.928Z</time></trkpt><trkpt lat="45.9031747" lon="11.9422359"><ele>189.5</ele><time>2026-05-02T08:44:34.929Z</time></trkpt><trkpt lat="45.9030405" lon="11.9422877"><ele>189.75</ele><time>2026-05-02T08:44:35.929Z</time></trkpt><trkpt lat="45.9029016" lon="11.9423361"><ele>190.0</ele><time>2026-05-02T08:44:36.929Z</time></trkpt><trkpt lat="45.9027596" lon="11.9423818"><ele>190.0</ele><time>2026-05-02T08:44:37.928Z</time></trkpt><trkpt lat="45.9026141" lon="11.9424243"><ele>190.0</ele><time>2026-05-02T08:44:38.929Z</time></trkpt><trkpt lat="45.9024655" lon="11.942465"><ele>190.0</ele><time>2026-05-02T08:44:39.929Z</time></trkpt><trkpt lat="45.9023139" lon="11.9425058"><ele>189.33333333333334</ele><time>2026-05-02T08:44:40.928Z</time></trkpt><trkpt lat="45.9021588" lon="11.9425468"><ele>188.66666666666666</ele><time>2026-05-02T08:44:41.928Z</time></trkpt><trkpt lat="45.9020008" lon="11.9425907"><ele>188.0</ele><time>2026-05-02T08:44:42.928Z</time></trkpt><trkpt lat="45.9018407" lon="11.9426354"><ele>187.0</ele><time>2026-05-02T08:44:43.929Z</time></trkpt><trkpt lat="45.9016798" lon="11.9426776"><ele>186.0</ele><time>2026-05-02T08:44:44.929Z</time></trkpt><trkpt lat="45.901523" lon="11.9427144"><ele>185.0</ele><time>2026-05-02T08:44:45.93Z</time></trkpt><trkpt lat="45.9013763" lon="11.942744"><ele>185.0</ele><time>2026-05-02T08:44:46.93Z</time></trkpt><trkpt lat="45.9012394" lon="11.9427701"><ele>185.0</ele><time>2026-05-02T08:44:47.929Z</time></trkpt><trkpt lat="45.9011092" lon="11.942797"><ele>185.0</ele><time>2026-05-02T08:44:48.929Z</time></trkpt><trkpt lat="45.9009821" lon="11.9428247"><ele>185.0</ele><time>2026-05-02T08:44:49.93Z</time></trkpt><trkpt lat="45.9008614" lon="11.9428498"><ele>185.2</ele><time>2026-05-02T08:44:50.93Z</time></trkpt><trkpt lat="45.9007505" lon="11.942871"><ele>185.4</ele><time>2026-05-02T08:44:51.93Z</time></trkpt><trkpt lat="45.9006498" lon="11.9428909"><ele>185.60000000000002</ele><time>2026-05-02T08:44:52.93Z</time></trkpt><trkpt lat="45.9005589" lon="11.9429087"><ele>185.8</ele><time>2026-05-02T08:44:53.929Z</time></trkpt><trkpt lat="45.9004706" lon="11.9429256"><ele>186.0</ele><time>2026-05-02T08:44:54.93Z</time></trkpt><trkpt lat="45.9003936" lon="11.9429338"><ele>186.0</ele><time>2026-05-02T08:44:55.93Z</time></trkpt><trkpt lat="45.900319" lon="11.9429405"><ele>186.0</ele><time>2026-05-02T08:44:56.93Z</time></trkpt><trkpt lat="45.9002455" lon="11.9429465"><ele>186.0</ele><time>2026-05-02T08:44:57.929Z</time></trkpt><trkpt lat="45.900179" lon="11.942949"><ele>186.0</ele><time>2026-05-02T08:44:58.929Z</time></trkpt><trkpt lat="45.9000554" lon="11.942947"><ele>186.0</ele><time>2026-05-02T08:45:00.93Z</time></trkpt><trkpt lat="45.8999328" lon="11.942939"><ele>185.66666666666666</ele><time>2026-05-02T08:45:02.929Z</time></trkpt><trkpt lat="45.8998626" lon="11.9429233"><ele>185.33333333333334</ele><time>2026-05-02T08:45:03.929Z</time></trkpt><trkpt lat="45.8997833" lon="11.9428933"><ele>185.0</ele><time>2026-05-02T08:45:04.93Z</time></trkpt><trkpt lat="45.8996949" lon="11.9428613"><ele>184.66666666666669</ele><time>2026-05-02T08:45:05.929Z</time></trkpt><trkpt lat="45.8996037" lon="11.9428337"><ele>184.33333333333334</ele><time>2026-05-02T08:45:06.929Z</time></trkpt><trkpt lat="45.8994922" lon="11.9428212"><ele>184.0</ele><time>2026-05-02T08:45:07.93Z</time></trkpt><trkpt lat="45.8993788" lon="11.9427843"><ele>184.0</ele><time>2026-05-02T08:45:08.93Z</time></trkpt><trkpt lat="45.8992627" lon="11.9427368"><ele>184.0</ele><time>2026-05-02T08:45:09.929Z</time></trkpt><trkpt lat="45.8991437" lon="11.9426968"><ele>184.0</ele><time>2026-05-02T08:45:10.929Z</time></trkpt><trkpt lat="45.8990208" lon="11.9426652"><ele>184.0</ele><time>2026-05-02T08:45:11.929Z</time></trkpt><trkpt lat="45.8988943" lon="11.9426351"><ele>183.0</ele><time>2026-05-02T08:45:12.929Z</time></trkpt><trkpt lat="45.8987646" lon="11.942608"><ele>182.0</ele><time>2026-05-02T08:45:13.93Z</time></trkpt><trkpt lat="45.8986327" lon="11.9425899"><ele>181.0</ele><time>2026-05-02T08:45:14.929Z</time></trkpt><trkpt lat="45.8984988" lon="11.9425805"><ele>180.0</ele><time>2026-05-02T08:45:15.93Z</time></trkpt><trkpt lat="45.8983631" lon="11.9425811"><ele>178.5</ele><time>2026-05-02T08:45:16.93Z</time></trkpt><trkpt lat="45.8982266" lon="11.9425881"><ele>177.0</ele><time>2026-05-02T08:45:17.93Z</time></trkpt><trkpt lat="45.89809" lon="11.9426002"><ele>175.5</ele><time>2026-05-02T08:45:18.93Z</time></trkpt><trkpt lat="45.8979525" lon="11.9426134"><ele>174.0</ele><time>2026-05-02T08:45:19.93Z</time></trkpt><trkpt lat="45.8978142" lon="11.9426252"><ele>174.0</ele><time>2026-05-02T08:45:20.93Z</time></trkpt><trkpt lat="45.8976712" lon="11.9426366"><ele>174.0</ele><time>2026-05-02T08:45:21.93Z</time></trkpt><trkpt lat="45.8975227" lon="11.9426446"><ele>174.0</ele><time>2026-05-02T08:45:22.929Z</time></trkpt><trkpt lat="45.8973672" lon="11.9426509"><ele>174.0</ele><time>2026-05-02T08:45:23.929Z</time></trkpt><trkpt lat="45.8972051" lon="11.9426506"><ele>174.0</ele><time>2026-05-02T08:45:24.93Z</time></trkpt><trkpt lat="45.8970366" lon="11.942644"><ele>174.0</ele><time>2026-05-02T08:45:25.93Z</time></trkpt><trkpt lat="45.896864" lon="11.9426345"><ele>174.0</ele><time>2026-05-02T08:45:26.929Z</time></trkpt><trkpt lat="45.8966874" lon="11.9426198"><ele>174.66666666666666</ele><time>2026-05-02T08:45:27.93Z</time></trkpt><trkpt lat="45.8965087" lon="11.9425993"><ele>175.33333333333331</ele><time>2026-05-02T08:45:28.929Z</time></trkpt><trkpt lat="45.8963299" lon="11.9425761"><ele>176.0</ele><time>2026-05-02T08:45:29.929Z</time></trkpt><trkpt lat="45.8961525" lon="11.9425495"><ele>178.33333333333331</ele><time>2026-05-02T08:45:30.93Z</time></trkpt><trkpt lat="45.8959771" lon="11.942519"><ele>180.66666666666666</ele><time>2026-05-02T08:45:31.929Z</time></trkpt><trkpt lat="45.8958033" lon="11.9424883"><ele>183.0</ele><time>2026-05-02T08:45:32.93Z</time></trkpt><trkpt lat="45.8956305" lon="11.942462"><ele>183.0</ele><time>2026-05-02T08:45:33.929Z</time></trkpt><trkpt lat="45.8954598" lon="11.9424382"><ele>183.0</ele><time>2026-05-02T08:45:34.93Z</time></trkpt><trkpt lat="45.8952907" lon="11.9424171"><ele>183.0</ele><time>2026-05-02T08:45:35.929Z</time></trkpt><trkpt lat="45.8951255" lon="11.9424018"><ele>181.33333333333334</ele><time>2026-05-02T08:45:36.929Z</time></trkpt><trkpt lat="45.8949558" lon="11.9423848"><ele>179.66666666666669</ele><time>2026-05-02T08:45:37.93Z</time></trkpt><trkpt lat="45.8947882" lon="11.9423632"><ele>178.0</ele><time>2026-05-02T08:45:38.93Z</time></trkpt><trkpt lat="45.894625" lon="11.9423468"><ele>178.0</ele><time>2026-05-02T08:45:39.929Z</time></trkpt><trkpt lat="45.8944632" lon="11.9423494"><ele>178.0</ele><time>2026-05-02T08:45:40.93Z</time></trkpt><trkpt lat="45.8942944" lon="11.9423723"><ele>178.0</ele><time>2026-05-02T08:45:41.929Z</time></trkpt><trkpt lat="45.8941346" lon="11.942426"><ele>179.33333333333334</ele><time>2026-05-02T08:45:42.93Z</time></trkpt><trkpt lat="45.8939736" lon="11.9425003"><ele>180.66666666666666</ele><time>2026-05-02T08:45:43.93Z</time></trkpt><trkpt lat="45.8938173" lon="11.9425973"><ele>182.0</ele><time>2026-05-02T08:45:44.931Z</time></trkpt><trkpt lat="45.8936593" lon="11.9426953"><ele>180.66666666666666</ele><time>2026-05-02T08:45:45.931Z</time></trkpt><trkpt lat="45.893506" lon="11.942806"><ele>179.33333333333334</ele><time>2026-05-02T08:45:46.93Z</time></trkpt><trkpt lat="45.8933497" lon="11.9429107"><ele>178.0</ele><time>2026-05-02T08:45:47.931Z</time></trkpt><trkpt lat="45.8931976" lon="11.9430111"><ele>178.0</ele><time>2026-05-02T08:45:48.931Z</time></trkpt><trkpt lat="45.8930679" lon="11.9431093"><ele>178.0</ele><time>2026-05-02T08:45:49.93Z</time></trkpt><trkpt lat="45.8929336" lon="11.9432093"><ele>178.0</ele><time>2026-05-02T08:45:50.93Z</time></trkpt><trkpt lat="45.8928043" lon="11.9432914"><ele>178.0</ele><time>2026-05-02T08:45:51.931Z</time></trkpt><trkpt lat="45.8926669" lon="11.9433716"><ele>177.5</ele><time>2026-05-02T08:45:52.93Z</time></trkpt><trkpt lat="45.8925306" lon="11.9434406"><ele>177.0</ele><time>2026-05-02T08:45:53.931Z</time></trkpt><trkpt lat="45.8923952" lon="11.9434966"><ele>176.5</ele><time>2026-05-02T08:45:54.931Z</time></trkpt><trkpt lat="45.8922635" lon="11.9435527"><ele>176.0</ele><time>2026-05-02T08:45:55.93Z</time></trkpt><trkpt lat="45.8921281" lon="11.9436038"><ele>176.0</ele><time>2026-05-02T08:45:56.931Z</time></trkpt><trkpt lat="45.8919851" lon="11.9436435"><ele>176.0</ele><time>2026-05-02T08:45:57.929Z</time></trkpt><trkpt lat="45.8918385" lon="11.9436773"><ele>176.0</ele><time>2026-05-02T08:45:58.931Z</time></trkpt><trkpt lat="45.8916881" lon="11.9437136"><ele>176.0</ele><time>2026-05-02T08:45:59.93Z</time></trkpt><trkpt lat="45.8915347" lon="11.9437444"><ele>175.75</ele><time>2026-05-02T08:46:00.93Z</time></trkpt><trkpt lat="45.8913912" lon="11.9437688"><ele>175.5</ele><time>2026-05-02T08:46:01.931Z</time></trkpt><trkpt lat="45.8912589" lon="11.9437909"><ele>175.25</ele><time>2026-05-02T08:46:02.931Z</time></trkpt><trkpt lat="45.8911345" lon="11.943813"><ele>175.0</ele><time>2026-05-02T08:46:03.931Z</time></trkpt><trkpt lat="45.8910023" lon="11.9438418"><ele>175.25</ele><time>2026-05-02T08:46:04.93Z</time></trkpt><trkpt lat="45.8908621" lon="11.943873"><ele>175.5</ele><time>2026-05-02T08:46:05.931Z</time></trkpt><trkpt lat="45.8907187" lon="11.9439004"><ele>175.75</ele><time>2026-05-02T08:46:06.93Z</time></trkpt><trkpt lat="45.8905745" lon="11.9439245"><ele>176.0</ele><time>2026-05-02T08:46:07.93Z</time></trkpt><trkpt lat="45.8904319" lon="11.9439636"><ele>176.0</ele><time>2026-05-02T08:46:08.931Z</time></trkpt><trkpt lat="45.8902924" lon="11.9440246"><ele>176.0</ele><time>2026-05-02T08:46:09.931Z</time></trkpt><trkpt lat="45.8901553" lon="11.9441081"><ele>176.0</ele><time>2026-05-02T08:46:10.931Z</time></trkpt><trkpt lat="45.8900182" lon="11.9442037"><ele>176.0</ele><time>2026-05-02T08:46:11.931Z</time></trkpt><trkpt lat="45.8898812" lon="11.9443333"><ele>175.33333333333331</ele><time>2026-05-02T08:46:12.931Z</time></trkpt><trkpt lat="45.8897227" lon="11.944483"><ele>174.66666666666666</ele><time>2026-05-02T08:46:13.931Z</time></trkpt><trkpt lat="45.8895512" lon="11.9446387"><ele>174.0</ele><time>2026-05-02T08:46:14.931Z</time></trkpt><trkpt lat="45.8893623" lon="11.9447891"><ele>172.33333333333334</ele><time>2026-05-02T08:46:15.931Z</time></trkpt><trkpt lat="45.8891796" lon="11.9449326"><ele>170.66666666666669</ele><time>2026-05-02T08:46:16.931Z</time></trkpt><trkpt lat="45.8890154" lon="11.9450791"><ele>169.0</ele><time>2026-05-02T08:46:17.93Z</time></trkpt><trkpt lat="45.8888578" lon="11.9452143"><ele>169.0</ele><time>2026-05-02T08:46:18.931Z</time></trkpt><trkpt lat="45.8887115" lon="11.9453387"><ele>169.0</ele><time>2026-05-02T08:46:19.931Z</time></trkpt><trkpt lat="45.8885648" lon="11.9454551"><ele>169.0</ele><time>2026-05-02T08:46:20.93Z</time></trkpt><trkpt lat="45.888427" lon="11.9455803"><ele>169.33333333333334</ele><time>2026-05-02T08:46:21.93Z</time></trkpt><trkpt lat="45.8882809" lon="11.9457037"><ele>169.66666666666666</ele><time>2026-05-02T08:46:22.931Z</time></trkpt><trkpt lat="45.8881403" lon="11.945836"><ele>170.0</ele><time>2026-05-02T08:46:23.93Z</time></trkpt><trkpt lat="45.8879949" lon="11.9459675"><ele>170.0</ele><time>2026-05-02T08:46:24.931Z</time></trkpt><trkpt lat="45.8878498" lon="11.9460932"><ele>170.0</ele><time>2026-05-02T08:46:25.93Z</time></trkpt><trkpt lat="45.887706" lon="11.946227"><ele>170.0</ele><time>2026-05-02T08:46:26.931Z</time></trkpt><trkpt lat="45.8875653" lon="11.9463584"><ele>170.0</ele><time>2026-05-02T08:46:27.93Z</time></trkpt><trkpt lat="45.8874253" lon="11.9464857"><ele>170.0</ele><time>2026-05-02T08:46:28.93Z</time></trkpt><trkpt lat="45.8872857" lon="11.9466128"><ele>170.0</ele><time>2026-05-02T08:46:29.931Z</time></trkpt><trkpt lat="45.8871469" lon="11.9467303"><ele>170.0</ele><time>2026-05-02T08:46:30.931Z</time></trkpt><trkpt lat="45.8870162" lon="11.9468533"><ele>170.0</ele><time>2026-05-02T08:46:31.931Z</time></trkpt><trkpt lat="45.8868882" lon="11.9469769"><ele>170.0</ele><time>2026-05-02T08:46:32.93Z</time></trkpt><trkpt lat="45.8867599" lon="11.9471063"><ele>169.66666666666666</ele><time>2026-05-02T08:46:33.931Z</time></trkpt><trkpt lat="45.8866328" lon="11.9472494"><ele>169.33333333333334</ele><time>2026-05-02T08:46:34.93Z</time></trkpt><trkpt lat="45.886513" lon="11.9474074"><ele>169.0</ele><time>2026-05-02T08:46:35.93Z</time></trkpt><trkpt lat="45.8864075" lon="11.9475826"><ele>169.0</ele><time>2026-05-02T08:46:36.931Z</time></trkpt><trkpt lat="45.8863092" lon="11.9477688"><ele>169.0</ele><time>2026-05-02T08:46:37.931Z</time></trkpt><trkpt lat="45.8862186" lon="11.9479516"><ele>169.0</ele><time>2026-05-02T08:46:38.931Z</time></trkpt><trkpt lat="45.8861238" lon="11.9481276"><ele>169.0</ele><time>2026-05-02T08:46:39.93Z</time></trkpt><trkpt lat="45.8860372" lon="11.9483089"><ele>169.0</ele><time>2026-05-02T08:46:40.931Z</time></trkpt><trkpt lat="45.8859554" lon="11.9484989"><ele>169.0</ele><time>2026-05-02T08:46:41.931Z</time></trkpt><trkpt lat="45.8858738" lon="11.9486994"><ele>169.33333333333334</ele><time>2026-05-02T08:46:42.931Z</time></trkpt><trkpt lat="45.8857923" lon="11.9488973"><ele>169.66666666666666</ele><time>2026-05-02T08:46:43.932Z</time></trkpt><trkpt lat="45.8857171" lon="11.9490934"><ele>170.0</ele><time>2026-05-02T08:46:44.932Z</time></trkpt><trkpt lat="45.8856435" lon="11.9492994"><ele>170.0</ele><time>2026-05-02T08:46:45.931Z</time></trkpt><trkpt lat="45.885575" lon="11.9495124"><ele>170.0</ele><time>2026-05-02T08:46:46.932Z</time></trkpt><trkpt lat="45.8855034" lon="11.9497403"><ele>170.0</ele><time>2026-05-02T08:46:47.931Z</time></trkpt><trkpt lat="45.8854422" lon="11.9500109"><ele>166.0</ele><time>2026-05-02T08:46:48.931Z</time></trkpt><trkpt lat="45.8853783" lon="11.9503122"><ele>162.0</ele><time>2026-05-02T08:46:49.931Z</time></trkpt><trkpt lat="45.8853121" lon="11.9506333"><ele>164.0</ele><time>2026-05-02T08:46:50.931Z</time></trkpt><trkpt lat="45.88524" lon="11.9509713"><ele>166.0</ele><time>2026-05-02T08:46:51.932Z</time></trkpt><trkpt lat="45.885164" lon="11.9513279"><ele>175.0</ele><time>2026-05-02T08:46:52.932Z</time></trkpt><trkpt lat="45.885085" lon="11.9516627"><ele>184.0</ele><time>2026-05-02T08:46:53.932Z</time></trkpt><trkpt lat="45.8850097" lon="11.9519791"><ele>184.0</ele><time>2026-05-02T08:46:54.932Z</time></trkpt><trkpt lat="45.8849551" lon="11.9522711"><ele>184.0</ele><time>2026-05-02T08:46:55.932Z</time></trkpt><trkpt lat="45.8849109" lon="11.9525389"><ele>184.0</ele><time>2026-05-02T08:46:56.931Z</time></trkpt><trkpt lat="45.8848715" lon="11.9527899"><ele>181.66666666666669</ele><time>2026-05-02T08:46:57.932Z</time></trkpt><trkpt lat="45.884834" lon="11.9530154"><ele>179.33333333333334</ele><time>2026-05-02T08:46:58.931Z</time></trkpt><trkpt lat="45.8847986" lon="11.953226"><ele>177.0</ele><time>2026-05-02T08:46:59.931Z</time></trkpt><trkpt lat="45.8847623" lon="11.9534246"><ele>175.75</ele><time>2026-05-02T08:47:00.931Z</time></trkpt><trkpt lat="45.8847267" lon="11.9536129"><ele>174.5</ele><time>2026-05-02T08:47:01.932Z</time></trkpt><trkpt lat="45.8846866" lon="11.9538006"><ele>173.25</ele><time>2026-05-02T08:47:02.932Z</time></trkpt><trkpt lat="45.8846375" lon="11.9539868"><ele>172.0</ele><time>2026-05-02T08:47:03.932Z</time></trkpt><trkpt lat="45.884573" lon="11.9541622"><ele>172.0</ele><time>2026-05-02T08:47:04.931Z</time></trkpt><trkpt lat="45.8844948" lon="11.9543309"><ele>172.0</ele><time>2026-05-02T08:47:05.932Z</time></trkpt><trkpt lat="45.8843995" lon="11.9544802"><ele>172.0</ele><time>2026-05-02T08:47:06.931Z</time></trkpt><trkpt lat="45.8843082" lon="11.954645"><ele>172.0</ele><time>2026-05-02T08:47:07.931Z</time></trkpt><trkpt lat="45.8842174" lon="11.9548112"><ele>171.25</ele><time>2026-05-02T08:47:08.932Z</time></trkpt><trkpt lat="45.8841271" lon="11.9549745"><ele>170.5</ele><time>2026-05-02T08:47:09.931Z</time></trkpt><trkpt lat="45.8840334" lon="11.9551355"><ele>169.75</ele><time>2026-05-02T08:47:10.932Z</time></trkpt><trkpt lat="45.8839342" lon="11.9552921"><ele>169.0</ele><time>2026-05-02T08:47:11.932Z</time></trkpt><trkpt lat="45.8838417" lon="11.9554461"><ele>169.0</ele><time>2026-05-02T08:47:12.932Z</time></trkpt><trkpt lat="45.8837501" lon="11.9556011"><ele>169.0</ele><time>2026-05-02T08:47:13.932Z</time></trkpt><trkpt lat="45.883662" lon="11.9557528"><ele>169.0</ele><time>2026-05-02T08:47:14.932Z</time></trkpt><trkpt lat="45.883572" lon="11.9559074"><ele>169.0</ele><time>2026-05-02T08:47:15.931Z</time></trkpt><trkpt lat="45.883477" lon="11.9560615"><ele>171.0</ele><time>2026-05-02T08:47:16.931Z</time></trkpt><trkpt lat="45.8833782" lon="11.9562258"><ele>173.0</ele><time>2026-05-02T08:47:17.931Z</time></trkpt><trkpt lat="45.8832774" lon="11.9563847"><ele>175.0</ele><time>2026-05-02T08:47:18.931Z</time></trkpt><trkpt lat="45.8831732" lon="11.9565601"><ele>172.66666666666669</ele><time>2026-05-02T08:47:19.932Z</time></trkpt><trkpt lat="45.8830726" lon="11.9567247"><ele>170.33333333333334</ele><time>2026-05-02T08:47:20.932Z</time></trkpt><trkpt lat="45.8829695" lon="11.9568936"><ele>168.0</ele><time>2026-05-02T08:47:21.932Z</time></trkpt><trkpt lat="45.8828711" lon="11.9570502"><ele>168.0</ele><time>2026-05-02T08:47:22.932Z</time></trkpt><trkpt lat="45.8827723" lon="11.9572143"><ele>168.0</ele><time>2026-05-02T08:47:23.932Z</time></trkpt><trkpt lat="45.8826812" lon="11.9573675"><ele>168.0</ele><time>2026-05-02T08:47:24.932Z</time></trkpt><trkpt lat="45.8825908" lon="11.9575159"><ele>168.0</ele><time>2026-05-02T08:47:25.932Z</time></trkpt><trkpt lat="45.882503" lon="11.9576529"><ele>168.25</ele><time>2026-05-02T08:47:26.932Z</time></trkpt><trkpt lat="45.8824114" lon="11.9577902"><ele>168.5</ele><time>2026-05-02T08:47:27.931Z</time></trkpt><trkpt lat="45.8823226" lon="11.9579245"><ele>168.75</ele><time>2026-05-02T08:47:28.931Z</time></trkpt><trkpt lat="45.8822338" lon="11.9580585"><ele>169.0</ele><time>2026-05-02T08:47:29.931Z</time></trkpt><trkpt lat="45.8821444" lon="11.958196"><ele>169.0</ele><time>2026-05-02T08:47:30.932Z</time></trkpt><trkpt lat="45.8820552" lon="11.9583349"><ele>169.0</ele><time>2026-05-02T08:47:31.933Z</time></trkpt><trkpt lat="45.8819728" lon="11.9584711"><ele>169.0</ele><time>2026-05-02T08:47:32.931Z</time></trkpt><trkpt lat="45.8818955" lon="11.9586047"><ele>169.0</ele><time>2026-05-02T08:47:33.932Z</time></trkpt><trkpt lat="45.881826" lon="11.9587299"><ele>168.79999999999998</ele><time>2026-05-02T08:47:34.932Z</time></trkpt><trkpt lat="45.8817621" lon="11.9588517"><ele>168.6</ele><time>2026-05-02T08:47:35.932Z</time></trkpt><trkpt lat="45.8816973" lon="11.9589766"><ele>168.4</ele><time>2026-05-02T08:47:36.932Z</time></trkpt><trkpt lat="45.8816297" lon="11.9591099"><ele>168.2</ele><time>2026-05-02T08:47:37.932Z</time></trkpt><trkpt lat="45.8815616" lon="11.9592487"><ele>168.0</ele><time>2026-05-02T08:47:38.932Z</time></trkpt><trkpt lat="45.8814924" lon="11.9593908"><ele>168.0</ele><time>2026-05-02T08:47:39.933Z</time></trkpt><trkpt lat="45.8814225" lon="11.9595364"><ele>168.0</ele><time>2026-05-02T08:47:40.933Z</time></trkpt><trkpt lat="45.88135" lon="11.9596908"><ele>168.0</ele><time>2026-05-02T08:47:41.932Z</time></trkpt><trkpt lat="45.8812751" lon="11.9598537"><ele>168.0</ele><time>2026-05-02T08:47:42.933Z</time></trkpt><trkpt lat="45.8811989" lon="11.9600219"><ele>168.0</ele><time>2026-05-02T08:47:43.933Z</time></trkpt><trkpt lat="45.8811186" lon="11.9601938"><ele>168.0</ele><time>2026-05-02T08:47:44.932Z</time></trkpt><trkpt lat="45.8810331" lon="11.960372"><ele>168.0</ele><time>2026-05-02T08:47:45.932Z</time></trkpt><trkpt lat="45.8809425" lon="11.9605528"><ele>169.33333333333334</ele><time>2026-05-02T08:47:46.933Z</time></trkpt><trkpt lat="45.8808471" lon="11.9607341"><ele>170.66666666666669</ele><time>2026-05-02T08:47:47.933Z</time></trkpt><trkpt lat="45.8807445" lon="11.9609117"><ele>172.0</ele><time>2026-05-02T08:47:48.932Z</time></trkpt><trkpt lat="45.8806348" lon="11.9610825"><ele>172.0</ele><time>2026-05-02T08:47:49.932Z</time></trkpt><trkpt lat="45.8805227" lon="11.9612439"><ele>172.0</ele><time>2026-05-02T08:47:50.932Z</time></trkpt><trkpt lat="45.8804152" lon="11.9613912"><ele>172.0</ele><time>2026-05-02T08:47:51.932Z</time></trkpt><trkpt lat="45.8803119" lon="11.9615289"><ele>172.0</ele><time>2026-05-02T08:47:52.933Z</time></trkpt><trkpt lat="45.8802084" lon="11.9616639"><ele>171.75</ele><time>2026-05-02T08:47:53.933Z</time></trkpt><trkpt lat="45.8801024" lon="11.9618003"><ele>171.5</ele><time>2026-05-02T08:47:54.932Z</time></trkpt><trkpt lat="45.8799933" lon="11.9619381"><ele>171.25</ele><time>2026-05-02T08:47:55.933Z</time></trkpt><trkpt lat="45.8798816" lon="11.962078"><ele>171.0</ele><time>2026-05-02T08:47:56.933Z</time></trkpt><trkpt lat="45.8797684" lon="11.9622188"><ele>171.0</ele><time>2026-05-02T08:47:57.932Z</time></trkpt><trkpt lat="45.8796527" lon="11.9623584"><ele>171.0</ele><time>2026-05-02T08:47:58.933Z</time></trkpt><trkpt lat="45.8795346" lon="11.962494"><ele>171.0</ele><time>2026-05-02T08:47:59.932Z</time></trkpt><trkpt lat="45.879415" lon="11.962613"><ele>171.0</ele><time>2026-05-02T08:48:00.932Z</time></trkpt><trkpt lat="45.8792956" lon="11.9627129"><ele>170.25</ele><time>2026-05-02T08:48:01.933Z</time></trkpt><trkpt lat="45.8791636" lon="11.9627631"><ele>169.5</ele><time>2026-05-02T08:48:02.932Z</time></trkpt><trkpt lat="45.8790286" lon="11.962806"><ele>168.75</ele><time>2026-05-02T08:48:03.933Z</time></trkpt><trkpt lat="45.8788912" lon="11.9628514"><ele>168.0</ele><time>2026-05-02T08:48:04.933Z</time></trkpt><trkpt lat="45.8787519" lon="11.9628905"><ele>168.0</ele><time>2026-05-02T08:48:05.933Z</time></trkpt><trkpt lat="45.8786073" lon="11.9629305"><ele>168.0</ele><time>2026-05-02T08:48:06.932Z</time></trkpt><trkpt lat="45.8784588" lon="11.9629672"><ele>168.0</ele><time>2026-05-02T08:48:07.933Z</time></trkpt><trkpt lat="45.8783092" lon="11.9629991"><ele>168.0</ele><time>2026-05-02T08:48:08.932Z</time></trkpt><trkpt lat="45.8781587" lon="11.9630318"><ele>170.5</ele><time>2026-05-02T08:48:09.932Z</time></trkpt><trkpt lat="45.8780097" lon="11.9630623"><ele>173.0</ele><time>2026-05-02T08:48:10.933Z</time></trkpt><trkpt lat="45.8778629" lon="11.9630897"><ele>175.5</ele><time>2026-05-02T08:48:11.933Z</time></trkpt><trkpt lat="45.8777138" lon="11.9631175"><ele>178.0</ele><time>2026-05-02T08:48:12.932Z</time></trkpt><trkpt lat="45.8775623" lon="11.9631415"><ele>178.33333333333334</ele><time>2026-05-02T08:48:13.932Z</time></trkpt><trkpt lat="45.8774046" lon="11.9631684"><ele>178.66666666666666</ele><time>2026-05-02T08:48:14.933Z</time></trkpt><trkpt lat="45.8772564" lon="11.963197"><ele>179.0</ele><time>2026-05-02T08:48:15.933Z</time></trkpt><trkpt lat="45.8771079" lon="11.9632235"><ele>179.0</ele><time>2026-05-02T08:48:16.933Z</time></trkpt><trkpt lat="45.8769583" lon="11.9632498"><ele>179.0</ele><time>2026-05-02T08:48:17.933Z</time></trkpt><trkpt lat="45.8768041" lon="11.9632773"><ele>179.0</ele><time>2026-05-02T08:48:18.932Z</time></trkpt><trkpt lat="45.8766481" lon="11.9633094"><ele>179.66666666666666</ele><time>2026-05-02T08:48:19.932Z</time></trkpt><trkpt lat="45.8764906" lon="11.9633447"><ele>180.33333333333334</ele><time>2026-05-02T08:48:20.932Z</time></trkpt><trkpt lat="45.8763344" lon="11.963389"><ele>181.0</ele><time>2026-05-02T08:48:21.933Z</time></trkpt><trkpt lat="45.8761812" lon="11.9634433"><ele>180.75</ele><time>2026-05-02T08:48:22.933Z</time></trkpt><trkpt lat="45.8760312" lon="11.9635044"><ele>180.5</ele><time>2026-05-02T08:48:23.932Z</time></trkpt><trkpt lat="45.8758931" lon="11.9635683"><ele>180.25</ele><time>2026-05-02T08:48:24.933Z</time></trkpt><trkpt lat="45.8757687" lon="11.9636343"><ele>180.0</ele><time>2026-05-02T08:48:25.932Z</time></trkpt><trkpt lat="45.8756532" lon="11.9637026"><ele>180.0</ele><time>2026-05-02T08:48:26.933Z</time></trkpt><trkpt lat="45.875539" lon="11.9637739"><ele>180.0</ele><time>2026-05-02T08:48:27.933Z</time></trkpt><trkpt lat="45.8754234" lon="11.9638478"><ele>180.0</ele><time>2026-05-02T08:48:28.933Z</time></trkpt><trkpt lat="45.8753069" lon="11.9639237"><ele>180.0</ele><time>2026-05-02T08:48:29.932Z</time></trkpt><trkpt lat="45.875188" lon="11.9640014"><ele>180.75</ele><time>2026-05-02T08:48:30.932Z</time></trkpt><trkpt lat="45.8750638" lon="11.9640815"><ele>181.5</ele><time>2026-05-02T08:48:31.933Z</time></trkpt><trkpt lat="45.8749339" lon="11.9641654"><ele>182.25</ele><time>2026-05-02T08:48:32.932Z</time></trkpt><trkpt lat="45.8748004" lon="11.9642525"><ele>183.0</ele><time>2026-05-02T08:48:33.932Z</time></trkpt><trkpt lat="45.8746647" lon="11.96434"><ele>182.25</ele><time>2026-05-02T08:48:34.934Z</time></trkpt><trkpt lat="45.8745307" lon="11.9644252"><ele>181.5</ele><time>2026-05-02T08:48:35.934Z</time></trkpt><trkpt lat="45.8744038" lon="11.9645046"><ele>180.75</ele><time>2026-05-02T08:48:36.934Z</time></trkpt><trkpt lat="45.8742847" lon="11.964573"><ele>180.0</ele><time>2026-05-02T08:48:37.934Z</time></trkpt><trkpt lat="45.8741717" lon="11.9646308"><ele>180.0</ele><time>2026-05-02T08:48:38.934Z</time></trkpt><trkpt lat="45.8740629" lon="11.9646848"><ele>180.0</ele><time>2026-05-02T08:48:39.933Z</time></trkpt><trkpt lat="45.8739541" lon="11.9647364"><ele>180.0</ele><time>2026-05-02T08:48:40.933Z</time></trkpt><trkpt lat="45.8738462" lon="11.9647764"><ele>180.0</ele><time>2026-05-02T08:48:41.933Z</time></trkpt><trkpt lat="45.8737382" lon="11.9647995"><ele>180.0</ele><time>2026-05-02T08:48:42.933Z</time></trkpt><trkpt lat="45.8736262" lon="11.9648061"><ele>180.0</ele><time>2026-05-02T08:48:43.933Z</time></trkpt><trkpt lat="45.8735106" lon="11.9647966"><ele>180.0</ele><time>2026-05-02T08:48:44.934Z</time></trkpt><trkpt lat="45.8733954" lon="11.9647665"><ele>180.0</ele><time>2026-05-02T08:48:45.933Z</time></trkpt><trkpt lat="45.8732826" lon="11.9647156"><ele>181.0</ele><time>2026-05-02T08:48:46.933Z</time></trkpt><trkpt lat="45.87317" lon="11.9646463"><ele>182.0</ele><time>2026-05-02T08:48:47.933Z</time></trkpt><trkpt lat="45.8730564" lon="11.9645612"><ele>183.0</ele><time>2026-05-02T08:48:48.934Z</time></trkpt><trkpt lat="45.8729419" lon="11.9644637"><ele>184.0</ele><time>2026-05-02T08:48:49.933Z</time></trkpt><trkpt lat="45.8728285" lon="11.9643584"><ele>184.0</ele><time>2026-05-02T08:48:50.934Z</time></trkpt><trkpt lat="45.8727162" lon="11.9642547"><ele>184.0</ele><time>2026-05-02T08:48:51.933Z</time></trkpt><trkpt lat="45.8726051" lon="11.9641549"><ele>184.0</ele><time>2026-05-02T08:48:52.934Z</time></trkpt><trkpt lat="45.8725027" lon="11.9640544"><ele>184.0</ele><time>2026-05-02T08:48:53.934Z</time></trkpt><trkpt lat="45.8724164" lon="11.9639576"><ele>184.16666666666669</ele><time>2026-05-02T08:48:54.933Z</time></trkpt><trkpt lat="45.8723485" lon="11.9638716"><ele>184.33333333333334</ele><time>2026-05-02T08:48:55.934Z</time></trkpt><trkpt lat="45.8722985" lon="11.9638007"><ele>184.5</ele><time>2026-05-02T08:48:56.934Z</time></trkpt><trkpt lat="45.8722452" lon="11.9637132"><ele>184.66666666666666</ele><time>2026-05-02T08:48:58.933Z</time></trkpt><trkpt lat="45.8722045" lon="11.9636415"><ele>184.83333333333331</ele><time>2026-05-02T08:49:01.934Z</time></trkpt><trkpt lat="45.8721556" lon="11.9635811"><ele>185.0</ele><time>2026-05-02T08:49:03.934Z</time></trkpt><trkpt lat="45.8720719" lon="11.9634254"><ele>186.0</ele><time>2026-05-02T08:49:05.933Z</time></trkpt><trkpt lat="45.8720293" lon="11.9633111"><ele>187.0</ele><time>2026-05-02T08:49:06.934Z</time></trkpt><trkpt lat="45.87198" lon="11.9631736"><ele>188.0</ele><time>2026-05-02T08:49:07.934Z</time></trkpt><trkpt lat="45.8719219" lon="11.9630128"><ele>189.0</ele><time>2026-05-02T08:49:08.934Z</time></trkpt><trkpt lat="45.8718539" lon="11.9628314"><ele>189.0</ele><time>2026-05-02T08:49:09.934Z</time></trkpt><trkpt lat="45.8717811" lon="11.9626347"><ele>189.0</ele><time>2026-05-02T08:49:10.934Z</time></trkpt><trkpt lat="45.871704" lon="11.9624274"><ele>189.0</ele><time>2026-05-02T08:49:11.933Z</time></trkpt><trkpt lat="45.8716271" lon="11.9622206"><ele>188.66666666666666</ele><time>2026-05-02T08:49:12.934Z</time></trkpt><trkpt lat="45.8715544" lon="11.962022"><ele>188.33333333333331</ele><time>2026-05-02T08:49:13.933Z</time></trkpt><trkpt lat="45.8714853" lon="11.9618327"><ele>188.0</ele><time>2026-05-02T08:49:14.933Z</time></trkpt><trkpt lat="45.8714187" lon="11.9616483"><ele>189.25</ele><time>2026-05-02T08:49:15.934Z</time></trkpt><trkpt lat="45.8713523" lon="11.9614647"><ele>190.5</ele><time>2026-05-02T08:49:16.934Z</time></trkpt><trkpt lat="45.871283" lon="11.9612759"><ele>191.75</ele><time>2026-05-02T08:49:17.934Z</time></trkpt><trkpt lat="45.8712121" lon="11.961081"><ele>193.0</ele><time>2026-05-02T08:49:18.933Z</time></trkpt><trkpt lat="45.8711368" lon="11.9608762"><ele>194.66666666666666</ele><time>2026-05-02T08:49:19.934Z</time></trkpt><trkpt lat="45.8710558" lon="11.9606592"><ele>196.33333333333331</ele><time>2026-05-02T08:49:20.934Z</time></trkpt><trkpt lat="45.8709719" lon="11.9604373"><ele>198.0</ele><time>2026-05-02T08:49:21.933Z</time></trkpt><trkpt lat="45.8708864" lon="11.9602079"><ele>197.33333333333331</ele><time>2026-05-02T08:49:22.933Z</time></trkpt><trkpt lat="45.8707998" lon="11.9599753"><ele>196.66666666666666</ele><time>2026-05-02T08:49:23.933Z</time></trkpt><trkpt lat="45.870711" lon="11.9597395"><ele>196.0</ele><time>2026-05-02T08:49:24.934Z</time></trkpt><trkpt lat="45.8706209" lon="11.9594982"><ele>196.0</ele><time>2026-05-02T08:49:25.933Z</time></trkpt><trkpt lat="45.8705294" lon="11.9592535"><ele>196.0</ele><time>2026-05-02T08:49:26.933Z</time></trkpt><trkpt lat="45.8704376" lon="11.9590097"><ele>196.0</ele><time>2026-05-02T08:49:27.934Z</time></trkpt><trkpt lat="45.8703449" lon="11.9587641"><ele>196.0</ele><time>2026-05-02T08:49:28.934Z</time></trkpt><trkpt lat="45.8702468" lon="11.9585178"><ele>196.0</ele><time>2026-05-02T08:49:29.933Z</time></trkpt><trkpt lat="45.8701421" lon="11.9582709"><ele>196.0</ele><time>2026-05-02T08:49:30.935Z</time></trkpt><trkpt lat="45.8700306" lon="11.9580264"><ele>197.0</ele><time>2026-05-02T08:49:31.934Z</time></trkpt><trkpt lat="45.8699012" lon="11.9577662"><ele>198.0</ele><time>2026-05-02T08:49:32.935Z</time></trkpt><trkpt lat="45.8697504" lon="11.9574836"><ele>198.0</ele><time>2026-05-02T08:49:33.935Z</time></trkpt><trkpt lat="45.8695869" lon="11.957173"><ele>198.0</ele><time>2026-05-02T08:49:34.935Z</time></trkpt><trkpt lat="45.8694069" lon="11.9568534"><ele>197.0</ele><time>2026-05-02T08:49:35.934Z</time></trkpt><trkpt lat="45.8692118" lon="11.9565183"><ele>196.0</ele><time>2026-05-02T08:49:36.935Z</time></trkpt><trkpt lat="45.8690028" lon="11.9561718"><ele>195.0</ele><time>2026-05-02T08:49:37.934Z</time></trkpt><trkpt lat="45.8688119" lon="11.9558319"><ele>194.0</ele><time>2026-05-02T08:49:38.934Z</time></trkpt><trkpt lat="45.8686329" lon="11.9555187"><ele>194.0</ele><time>2026-05-02T08:49:39.934Z</time></trkpt><trkpt lat="45.8684566" lon="11.9552239"><ele>194.0</ele><time>2026-05-02T08:49:40.934Z</time></trkpt><trkpt lat="45.8682927" lon="11.9549606"><ele>193.33333333333334</ele><time>2026-05-02T08:49:41.935Z</time></trkpt><trkpt lat="45.8681478" lon="11.9547175"><ele>192.66666666666669</ele><time>2026-05-02T08:49:42.935Z</time></trkpt><trkpt lat="45.8680163" lon="11.9544987"><ele>192.0</ele><time>2026-05-02T08:49:43.935Z</time></trkpt><trkpt lat="45.8678958" lon="11.9542973"><ele>192.33333333333331</ele><time>2026-05-02T08:49:44.934Z</time></trkpt><trkpt lat="45.8677848" lon="11.9541082"><ele>192.66666666666666</ele><time>2026-05-02T08:49:45.935Z</time></trkpt><trkpt lat="45.8676842" lon="11.9539396"><ele>193.0</ele><time>2026-05-02T08:49:46.934Z</time></trkpt><trkpt lat="45.8675955" lon="11.9537928"><ele>193.0</ele><time>2026-05-02T08:49:47.935Z</time></trkpt><trkpt lat="45.8675231" lon="11.9536638"><ele>193.0</ele><time>2026-05-02T08:49:48.934Z</time></trkpt><trkpt lat="45.8674584" lon="11.9535508"><ele>193.0</ele><time>2026-05-02T08:49:49.935Z</time></trkpt><trkpt lat="45.8674129" lon="11.953457"><ele>193.0</ele><time>2026-05-02T08:49:50.935Z</time></trkpt><trkpt lat="45.8673765" lon="11.9533746"><ele>193.0</ele><time>2026-05-02T08:49:51.934Z</time></trkpt><trkpt lat="45.8673276" lon="11.9531952"><ele>193.0</ele><time>2026-05-02T08:49:53.934Z</time></trkpt><trkpt lat="45.8673076" lon="11.95306"><ele>193.0</ele><time>2026-05-02T08:49:54.934Z</time></trkpt><trkpt lat="45.8672781" lon="11.9529255"><ele>193.0</ele><time>2026-05-02T08:49:55.935Z</time></trkpt><trkpt lat="45.8672233" lon="11.9528081"><ele>193.0</ele><time>2026-05-02T08:49:56.935Z</time></trkpt><trkpt lat="45.8671471" lon="11.9527327"><ele>193.0</ele><time>2026-05-02T08:49:57.934Z</time></trkpt><trkpt lat="45.8670536" lon="11.9526806"><ele>193.0</ele><time>2026-05-02T08:49:58.934Z</time></trkpt><trkpt lat="45.8669583" lon="11.9526052"><ele>193.0</ele><time>2026-05-02T08:49:59.935Z</time></trkpt><trkpt lat="45.8668594" lon="11.9525038"><ele>193.0</ele><time>2026-05-02T08:50:00.935Z</time></trkpt><trkpt lat="45.8667565" lon="11.9523839"><ele>193.0</ele><time>2026-05-02T08:50:01.934Z</time></trkpt><trkpt lat="45.8666513" lon="11.9522514"><ele>192.66666666666666</ele><time>2026-05-02T08:50:02.935Z</time></trkpt><trkpt lat="45.8665477" lon="11.9520945"><ele>192.33333333333331</ele><time>2026-05-02T08:50:03.934Z</time></trkpt><trkpt lat="45.8664306" lon="11.9519176"><ele>192.0</ele><time>2026-05-02T08:50:04.935Z</time></trkpt><trkpt lat="45.8663017" lon="11.9517219"><ele>192.0</ele><time>2026-05-02T08:50:05.935Z</time></trkpt><trkpt lat="45.8661591" lon="11.9515207"><ele>192.0</ele><time>2026-05-02T08:50:06.934Z</time></trkpt><trkpt lat="45.8660036" lon="11.9512862"><ele>192.0</ele><time>2026-05-02T08:50:07.934Z</time></trkpt><trkpt lat="45.8658493" lon="11.9510292"><ele>192.0</ele><time>2026-05-02T08:50:08.935Z</time></trkpt><trkpt lat="45.865696" lon="11.9507463"><ele>192.0</ele><time>2026-05-02T08:50:09.934Z</time></trkpt><trkpt lat="45.8655397" lon="11.950466"><ele>192.0</ele><time>2026-05-02T08:50:10.934Z</time></trkpt><trkpt lat="45.8653749" lon="11.9502028"><ele>192.0</ele><time>2026-05-02T08:50:11.935Z</time></trkpt><trkpt lat="45.8652163" lon="11.949941"><ele>191.5</ele><time>2026-05-02T08:50:12.935Z</time></trkpt><trkpt lat="45.8650578" lon="11.949682"><ele>191.0</ele><time>2026-05-02T08:50:13.935Z</time></trkpt><trkpt lat="45.8648992" lon="11.9494234"><ele>190.5</ele><time>2026-05-02T08:50:14.934Z</time></trkpt><trkpt lat="45.8647406" lon="11.9491716"><ele>190.0</ele><time>2026-05-02T08:50:15.935Z</time></trkpt><trkpt lat="45.8645876" lon="11.9489168"><ele>190.0</ele><time>2026-05-02T08:50:16.934Z</time></trkpt><trkpt lat="45.8644343" lon="11.9486635"><ele>190.0</ele><time>2026-05-02T08:50:17.935Z</time></trkpt><trkpt lat="45.8642823" lon="11.9484155"><ele>189.5</ele><time>2026-05-02T08:50:18.935Z</time></trkpt><trkpt lat="45.8641334" lon="11.9481749"><ele>189.0</ele><time>2026-05-02T08:50:19.935Z</time></trkpt><trkpt lat="45.8639843" lon="11.9479311"><ele>189.0</ele><time>2026-05-02T08:50:20.934Z</time></trkpt><trkpt lat="45.8638333" lon="11.9476918"><ele>189.0</ele><time>2026-05-02T08:50:21.934Z</time></trkpt><trkpt lat="45.8636927" lon="11.9474479"><ele>189.0</ele><time>2026-05-02T08:50:22.935Z</time></trkpt><trkpt lat="45.863548" lon="11.9472183"><ele>189.0</ele><time>2026-05-02T08:50:23.935Z</time></trkpt><trkpt lat="45.8634026" lon="11.9469821"><ele>189.0</ele><time>2026-05-02T08:50:24.935Z</time></trkpt><trkpt lat="45.8632589" lon="11.9467569"><ele>189.0</ele><time>2026-05-02T08:50:25.935Z</time></trkpt><trkpt lat="45.8631255" lon="11.9465354"><ele>189.0</ele><time>2026-05-02T08:50:26.934Z</time></trkpt><trkpt lat="45.8629933" lon="11.9463153"><ele>189.0</ele><time>2026-05-02T08:50:27.934Z</time></trkpt><trkpt lat="45.8628616" lon="11.9461014"><ele>189.0</ele><time>2026-05-02T08:50:28.936Z</time></trkpt><trkpt lat="45.8627295" lon="11.9458928"><ele>189.0</ele><time>2026-05-02T08:50:29.935Z</time></trkpt><trkpt lat="45.8626028" lon="11.9456804"><ele>189.0</ele><time>2026-05-02T08:50:30.936Z</time></trkpt><trkpt lat="45.8624754" lon="11.9454748"><ele>189.0</ele><time>2026-05-02T08:50:31.935Z</time></trkpt><trkpt lat="45.8623494" lon="11.9452668"><ele>189.0</ele><time>2026-05-02T08:50:32.935Z</time></trkpt><trkpt lat="45.8622231" lon="11.9450552"><ele>189.0</ele><time>2026-05-02T08:50:33.936Z</time></trkpt><trkpt lat="45.8620963" lon="11.9448503"><ele>189.0</ele><time>2026-05-02T08:50:34.935Z</time></trkpt><trkpt lat="45.8619754" lon="11.9446481"><ele>188.66666666666666</ele><time>2026-05-02T08:50:35.936Z</time></trkpt><trkpt lat="45.8618573" lon="11.9444371"><ele>188.33333333333331</ele><time>2026-05-02T08:50:36.935Z</time></trkpt><trkpt lat="45.8617413" lon="11.9442192"><ele>188.0</ele><time>2026-05-02T08:50:37.935Z</time></trkpt><trkpt lat="45.8616283" lon="11.9439993"><ele>187.66666666666666</ele><time>2026-05-02T08:50:38.935Z</time></trkpt><trkpt lat="45.8615168" lon="11.9437764"><ele>187.33333333333334</ele><time>2026-05-02T08:50:39.936Z</time></trkpt><trkpt lat="45.8614125" lon="11.9435454"><ele>187.0</ele><time>2026-05-02T08:50:40.935Z</time></trkpt><trkpt lat="45.8612984" lon="11.9433106"><ele>187.0</ele><time>2026-05-02T08:50:41.935Z</time></trkpt><trkpt lat="45.8611946" lon="11.9430654"><ele>187.0</ele><time>2026-05-02T08:50:42.935Z</time></trkpt><trkpt lat="45.8610913" lon="11.9428219"><ele>187.0</ele><time>2026-05-02T08:50:43.935Z</time></trkpt><trkpt lat="45.8609911" lon="11.9425751"><ele>186.66666666666669</ele><time>2026-05-02T08:50:44.936Z</time></trkpt><trkpt lat="45.8608964" lon="11.9423289"><ele>186.33333333333334</ele><time>2026-05-02T08:50:45.936Z</time></trkpt><trkpt lat="45.8608073" lon="11.9420805"><ele>186.0</ele><time>2026-05-02T08:50:46.935Z</time></trkpt><trkpt lat="45.8607226" lon="11.9418291"><ele>185.66666666666666</ele><time>2026-05-02T08:50:47.935Z</time></trkpt><trkpt lat="45.8606426" lon="11.9415815"><ele>185.33333333333331</ele><time>2026-05-02T08:50:48.936Z</time></trkpt><trkpt lat="45.8605657" lon="11.9413322"><ele>185.0</ele><time>2026-05-02T08:50:49.935Z</time></trkpt><trkpt lat="45.8604891" lon="11.9410771"><ele>185.66666666666666</ele><time>2026-05-02T08:50:50.935Z</time></trkpt><trkpt lat="45.8604159" lon="11.9408135"><ele>186.33333333333334</ele><time>2026-05-02T08:50:51.936Z</time></trkpt><trkpt lat="45.8603448" lon="11.9405522"><ele>187.0</ele><time>2026-05-02T08:50:52.936Z</time></trkpt><trkpt lat="45.8602752" lon="11.9402768"><ele>187.0</ele><time>2026-05-02T08:50:53.935Z</time></trkpt><trkpt lat="45.8602026" lon="11.9400066"><ele>187.0</ele><time>2026-05-02T08:50:54.935Z</time></trkpt><trkpt lat="45.8601385" lon="11.9397304"><ele>187.0</ele><time>2026-05-02T08:50:55.935Z</time></trkpt><trkpt lat="45.8600713" lon="11.9394569"><ele>186.33333333333334</ele><time>2026-05-02T08:50:56.936Z</time></trkpt><trkpt lat="45.8599946" lon="11.9391825"><ele>185.66666666666666</ele><time>2026-05-02T08:50:57.936Z</time></trkpt><trkpt lat="45.8599301" lon="11.9389071"><ele>185.0</ele><time>2026-05-02T08:50:58.935Z</time></trkpt><trkpt lat="45.8598507" lon="11.9386122"><ele>185.5</ele><time>2026-05-02T08:50:59.936Z</time></trkpt><trkpt lat="45.8597631" lon="11.9382906"><ele>186.0</ele><time>2026-05-02T08:51:00.936Z</time></trkpt><trkpt lat="45.8596693" lon="11.9379418"><ele>186.0</ele><time>2026-05-02T08:51:01.935Z</time></trkpt><trkpt lat="45.8595737" lon="11.9375715"><ele>186.0</ele><time>2026-05-02T08:51:02.935Z</time></trkpt><trkpt lat="45.859485" lon="11.9371766"><ele>188.5</ele><time>2026-05-02T08:51:03.935Z</time></trkpt><trkpt lat="45.8593829" lon="11.9367666"><ele>191.0</ele><time>2026-05-02T08:51:04.936Z</time></trkpt><trkpt lat="45.8592892" lon="11.9363458"><ele>188.5</ele><time>2026-05-02T08:51:05.935Z</time></trkpt><trkpt lat="45.8591923" lon="11.935926"><ele>186.0</ele><time>2026-05-02T08:51:06.935Z</time></trkpt><trkpt lat="45.8590984" lon="11.9355182"><ele>186.0</ele><time>2026-05-02T08:51:07.936Z</time></trkpt><trkpt lat="45.8589986" lon="11.9351252"><ele>186.0</ele><time>2026-05-02T08:51:08.935Z</time></trkpt><trkpt lat="45.8589025" lon="11.9347387"><ele>186.5</ele><time>2026-05-02T08:51:09.936Z</time></trkpt><trkpt lat="45.8588096" lon="11.9343576"><ele>187.0</ele><time>2026-05-02T08:51:10.935Z</time></trkpt><trkpt lat="45.8587193" lon="11.9339861"><ele>187.0</ele><time>2026-05-02T08:51:11.936Z</time></trkpt><trkpt lat="45.8586352" lon="11.9336187"><ele>187.0</ele><time>2026-05-02T08:51:12.936Z</time></trkpt><trkpt lat="45.8585531" lon="11.9332502"><ele>187.5</ele><time>2026-05-02T08:51:13.935Z</time></trkpt><trkpt lat="45.8584727" lon="11.9329086"><ele>188.0</ele><time>2026-05-02T08:51:14.935Z</time></trkpt><trkpt lat="45.8583977" lon="11.9326072"><ele>188.66666666666666</ele><time>2026-05-02T08:51:15.936Z</time></trkpt><trkpt lat="45.8583264" lon="11.9323159"><ele>189.33333333333334</ele><time>2026-05-02T08:51:16.935Z</time></trkpt><trkpt lat="45.8582559" lon="11.9320321"><ele>190.0</ele><time>2026-05-02T08:51:17.935Z</time></trkpt><trkpt lat="45.8581853" lon="11.9317435"><ele>190.0</ele><time>2026-05-02T08:51:18.936Z</time></trkpt><trkpt lat="45.8581121" lon="11.9314539"><ele>190.0</ele><time>2026-05-02T08:51:19.936Z</time></trkpt><trkpt lat="45.8580332" lon="11.9311645"><ele>190.0</ele><time>2026-05-02T08:51:20.935Z</time></trkpt><trkpt lat="45.8579546" lon="11.930873"><ele>190.0</ele><time>2026-05-02T08:51:21.936Z</time></trkpt><trkpt lat="45.8578755" lon="11.9305719"><ele>190.0</ele><time>2026-05-02T08:51:22.936Z</time></trkpt><trkpt lat="45.8578044" lon="11.9302768"><ele>190.0</ele><time>2026-05-02T08:51:23.936Z</time></trkpt><trkpt lat="45.857727" lon="11.9299756"><ele>190.0</ele><time>2026-05-02T08:51:24.936Z</time></trkpt><trkpt lat="45.8576518" lon="11.9296713"><ele>190.0</ele><time>2026-05-02T08:51:25.935Z</time></trkpt><trkpt lat="45.8575754" lon="11.9293658"><ele>191.5</ele><time>2026-05-02T08:51:26.936Z</time></trkpt><trkpt lat="45.8575032" lon="11.9290614"><ele>193.0</ele><time>2026-05-02T08:51:27.936Z</time></trkpt><trkpt lat="45.857425" lon="11.9287526"><ele>193.0</ele><time>2026-05-02T08:51:28.936Z</time></trkpt><trkpt lat="45.8573513" lon="11.9284486"><ele>193.0</ele><time>2026-05-02T08:51:29.937Z</time></trkpt><trkpt lat="45.857281" lon="11.9281452"><ele>193.0</ele><time>2026-05-02T08:51:30.937Z</time></trkpt><trkpt lat="45.8572066" lon="11.9278411"><ele>193.33333333333331</ele><time>2026-05-02T08:51:31.937Z</time></trkpt><trkpt lat="45.85713" lon="11.9275532"><ele>193.66666666666669</ele><time>2026-05-02T08:51:32.936Z</time></trkpt><trkpt lat="45.8570575" lon="11.9272649"><ele>194.0</ele><time>2026-05-02T08:51:33.936Z</time></trkpt><trkpt lat="45.8569856" lon="11.9269845"><ele>193.66666666666669</ele><time>2026-05-02T08:51:34.937Z</time></trkpt><trkpt lat="45.856914" lon="11.9267026"><ele>193.33333333333331</ele><time>2026-05-02T08:51:35.937Z</time></trkpt><trkpt lat="45.8568479" lon="11.9264338"><ele>193.0</ele><time>2026-05-02T08:51:36.937Z</time></trkpt><trkpt lat="45.8567776" lon="11.9261678"><ele>192.33333333333331</ele><time>2026-05-02T08:51:37.937Z</time></trkpt><trkpt lat="45.8567093" lon="11.9258998"><ele>191.66666666666666</ele><time>2026-05-02T08:51:38.937Z</time></trkpt><trkpt lat="45.8566347" lon="11.9256331"><ele>191.0</ele><time>2026-05-02T08:51:39.937Z</time></trkpt><trkpt lat="45.8565606" lon="11.9253646"><ele>191.0</ele><time>2026-05-02T08:51:40.937Z</time></trkpt><trkpt lat="45.8564786" lon="11.9250902"><ele>191.0</ele><time>2026-05-02T08:51:41.937Z</time></trkpt><trkpt lat="45.8564038" lon="11.9248104"><ele>191.0</ele><time>2026-05-02T08:51:42.937Z</time></trkpt><trkpt lat="45.8563201" lon="11.9245276"><ele>192.0</ele><time>2026-05-02T08:51:43.936Z</time></trkpt><trkpt lat="45.8562393" lon="11.9242368"><ele>193.0</ele><time>2026-05-02T08:51:44.937Z</time></trkpt><trkpt lat="45.8561516" lon="11.9239448"><ele>194.0</ele><time>2026-05-02T08:51:45.936Z</time></trkpt><trkpt lat="45.8560672" lon="11.923652"><ele>193.5</ele><time>2026-05-02T08:51:46.936Z</time></trkpt><trkpt lat="45.855985" lon="11.9233552"><ele>193.0</ele><time>2026-05-02T08:51:47.936Z</time></trkpt><trkpt lat="45.855895" lon="11.9230494"><ele>193.0</ele><time>2026-05-02T08:51:48.936Z</time></trkpt><trkpt lat="45.8558126" lon="11.9227446"><ele>193.0</ele><time>2026-05-02T08:51:49.936Z</time></trkpt><trkpt lat="45.8557216" lon="11.9224316"><ele>194.5</ele><time>2026-05-02T08:51:50.936Z</time></trkpt><trkpt lat="45.8556332" lon="11.9221256"><ele>196.0</ele><time>2026-05-02T08:51:51.937Z</time></trkpt><trkpt lat="45.8555472" lon="11.9218194"><ele>197.0</ele><time>2026-05-02T08:51:52.937Z</time></trkpt><trkpt lat="45.8554609" lon="11.9215107"><ele>198.0</ele><time>2026-05-02T08:51:53.936Z</time></trkpt><trkpt lat="45.8553765" lon="11.921206"><ele>198.0</ele><time>2026-05-02T08:51:54.937Z</time></trkpt><trkpt lat="45.8552894" lon="11.9208994"><ele>198.0</ele><time>2026-05-02T08:51:55.937Z</time></trkpt><trkpt lat="45.8552037" lon="11.9205881"><ele>197.5</ele><time>2026-05-02T08:51:56.937Z</time></trkpt><trkpt lat="45.8551171" lon="11.920286"><ele>197.0</ele><time>2026-05-02T08:51:57.937Z</time></trkpt><trkpt lat="45.8550256" lon="11.9199782"><ele>198.0</ele><time>2026-05-02T08:51:58.936Z</time></trkpt><trkpt lat="45.8549376" lon="11.919661"><ele>199.0</ele><time>2026-05-02T08:51:59.936Z</time></trkpt><trkpt lat="45.8548511" lon="11.9193506"><ele>199.5</ele><time>2026-05-02T08:52:00.936Z</time></trkpt><trkpt lat="45.8547584" lon="11.9190369"><ele>200.0</ele><time>2026-05-02T08:52:01.936Z</time></trkpt><trkpt lat="45.8546673" lon="11.9187152"><ele>200.0</ele><time>2026-05-02T08:52:02.936Z</time></trkpt><trkpt lat="45.8545763" lon="11.9184026"><ele>200.0</ele><time>2026-05-02T08:52:03.936Z</time></trkpt><trkpt lat="45.8544855" lon="11.918089"><ele>199.5</ele><time>2026-05-02T08:52:04.936Z</time></trkpt><trkpt lat="45.8543963" lon="11.9177721"><ele>199.0</ele><time>2026-05-02T08:52:05.937Z</time></trkpt><trkpt lat="45.8543021" lon="11.9174525"><ele>198.5</ele><time>2026-05-02T08:52:06.936Z</time></trkpt><trkpt lat="45.854211" lon="11.9171415"><ele>198.0</ele><time>2026-05-02T08:52:07.937Z</time></trkpt><trkpt lat="45.8541208" lon="11.9168254"><ele>199.0</ele><time>2026-05-02T08:52:08.937Z</time></trkpt><trkpt lat="45.8540303" lon="11.9165134"><ele>200.0</ele><time>2026-05-02T08:52:09.937Z</time></trkpt><trkpt lat="45.8539474" lon="11.9161993"><ele>200.0</ele><time>2026-05-02T08:52:10.937Z</time></trkpt><trkpt lat="45.8538575" lon="11.9158966"><ele>200.0</ele><time>2026-05-02T08:52:11.936Z</time></trkpt><trkpt lat="45.8537676" lon="11.9155835"><ele>200.0</ele><time>2026-05-02T08:52:12.937Z</time></trkpt><trkpt lat="45.8536929" lon="11.9152698"><ele>200.0</ele><time>2026-05-02T08:52:13.936Z</time></trkpt><trkpt lat="45.8536382" lon="11.9149418"><ele>201.0</ele><time>2026-05-02T08:52:14.937Z</time></trkpt><trkpt lat="45.8535977" lon="11.914622"><ele>202.0</ele><time>2026-05-02T08:52:15.937Z</time></trkpt><trkpt lat="45.8535659" lon="11.9142948"><ele>202.0</ele><time>2026-05-02T08:52:16.937Z</time></trkpt><trkpt lat="45.8535495" lon="11.9139718"><ele>202.0</ele><time>2026-05-02T08:52:17.936Z</time></trkpt><trkpt lat="45.8535483" lon="11.9136545"><ele>202.0</ele><time>2026-05-02T08:52:18.937Z</time></trkpt><trkpt lat="45.8535624" lon="11.9133415"><ele>201.66666666666666</ele><time>2026-05-02T08:52:19.936Z</time></trkpt><trkpt lat="45.8535844" lon="11.9130399"><ele>201.33333333333331</ele><time>2026-05-02T08:52:20.937Z</time></trkpt><trkpt lat="45.8536105" lon="11.912747"><ele>201.0</ele><time>2026-05-02T08:52:21.937Z</time></trkpt><trkpt lat="45.85364" lon="11.9124654"><ele>201.66666666666669</ele><time>2026-05-02T08:52:22.937Z</time></trkpt><trkpt lat="45.8536698" lon="11.9121998"><ele>202.33333333333334</ele><time>2026-05-02T08:52:23.937Z</time></trkpt><trkpt lat="45.8537044" lon="11.9119427"><ele>203.0</ele><time>2026-05-02T08:52:24.937Z</time></trkpt><trkpt lat="45.8537337" lon="11.911689"><ele>203.0</ele><time>2026-05-02T08:52:25.938Z</time></trkpt><trkpt lat="45.8537618" lon="11.9114467"><ele>203.0</ele><time>2026-05-02T08:52:26.938Z</time></trkpt><trkpt lat="45.853788" lon="11.9112237"><ele>203.0</ele><time>2026-05-02T08:52:27.937Z</time></trkpt><trkpt lat="45.8538125" lon="11.9110032"><ele>203.33333333333334</ele><time>2026-05-02T08:52:28.938Z</time></trkpt><trkpt lat="45.853836" lon="11.9107885"><ele>203.66666666666669</ele><time>2026-05-02T08:52:29.938Z</time></trkpt><trkpt lat="45.8538589" lon="11.9105761"><ele>204.0</ele><time>2026-05-02T08:52:30.938Z</time></trkpt><trkpt lat="45.8538851" lon="11.9103658"><ele>204.0</ele><time>2026-05-02T08:52:31.938Z</time></trkpt><trkpt lat="45.8539105" lon="11.9101631"><ele>204.0</ele><time>2026-05-02T08:52:32.938Z</time></trkpt><trkpt lat="45.8539352" lon="11.9099445"><ele>204.0</ele><time>2026-05-02T08:52:33.937Z</time></trkpt><trkpt lat="45.8539558" lon="11.9097344"><ele>204.0</ele><time>2026-05-02T08:52:34.938Z</time></trkpt><trkpt lat="45.8539735" lon="11.9095208"><ele>204.0</ele><time>2026-05-02T08:52:35.937Z</time></trkpt><trkpt lat="45.8539947" lon="11.9093102"><ele>204.0</ele><time>2026-05-02T08:52:36.937Z</time></trkpt><trkpt lat="45.8540091" lon="11.9090985"><ele>204.0</ele><time>2026-05-02T08:52:37.937Z</time></trkpt><trkpt lat="45.8540203" lon="11.9088876"><ele>204.0</ele><time>2026-05-02T08:52:38.938Z</time></trkpt><trkpt lat="45.8540287" lon="11.9086777"><ele>204.66666666666669</ele><time>2026-05-02T08:52:39.938Z</time></trkpt><trkpt lat="45.8540267" lon="11.9084595"><ele>205.33333333333334</ele><time>2026-05-02T08:52:40.938Z</time></trkpt><trkpt lat="45.8540204" lon="11.9082438"><ele>206.0</ele><time>2026-05-02T08:52:41.937Z</time></trkpt><trkpt lat="45.8540042" lon="11.9080238"><ele>206.33333333333334</ele><time>2026-05-02T08:52:42.937Z</time></trkpt><trkpt lat="45.8539894" lon="11.9078074"><ele>206.66666666666669</ele><time>2026-05-02T08:52:43.938Z</time></trkpt><trkpt lat="45.8539704" lon="11.9075889"><ele>207.0</ele><time>2026-05-02T08:52:44.938Z</time></trkpt><trkpt lat="45.8539469" lon="11.9073808"><ele>207.25</ele><time>2026-05-02T08:52:45.937Z</time></trkpt><trkpt lat="45.85392" lon="11.907171"><ele>207.5</ele><time>2026-05-02T08:52:46.938Z</time></trkpt><trkpt lat="45.8538895" lon="11.9069592"><ele>207.75</ele><time>2026-05-02T08:52:47.938Z</time></trkpt><trkpt lat="45.8538637" lon="11.9067497"><ele>208.0</ele><time>2026-05-02T08:52:48.938Z</time></trkpt><trkpt lat="45.8538332" lon="11.9065457"><ele>208.0</ele><time>2026-05-02T08:52:49.938Z</time></trkpt><trkpt lat="45.853809" lon="11.9063418"><ele>208.0</ele><time>2026-05-02T08:52:50.937Z</time></trkpt><trkpt lat="45.8537843" lon="11.9061438"><ele>208.0</ele><time>2026-05-02T08:52:51.937Z</time></trkpt><trkpt lat="45.8537603" lon="11.9059513"><ele>208.0</ele><time>2026-05-02T08:52:52.938Z</time></trkpt><trkpt lat="45.8537317" lon="11.9057657"><ele>208.25</ele><time>2026-05-02T08:52:53.938Z</time></trkpt><trkpt lat="45.8537072" lon="11.9055831"><ele>208.5</ele><time>2026-05-02T08:52:54.937Z</time></trkpt><trkpt lat="45.853685" lon="11.9053984"><ele>208.75</ele><time>2026-05-02T08:52:55.938Z</time></trkpt><trkpt lat="45.8536598" lon="11.9052264"><ele>209.0</ele><time>2026-05-02T08:52:56.938Z</time></trkpt><trkpt lat="45.8536352" lon="11.9050555"><ele>209.0</ele><time>2026-05-02T08:52:57.938Z</time></trkpt><trkpt lat="45.8536107" lon="11.9048738"><ele>209.0</ele><time>2026-05-02T08:52:58.937Z</time></trkpt><trkpt lat="45.8535815" lon="11.9046871"><ele>209.0</ele><time>2026-05-02T08:52:59.937Z</time></trkpt><trkpt lat="45.853558" lon="11.904493"><ele>209.0</ele><time>2026-05-02T08:53:00.937Z</time></trkpt><trkpt lat="45.8535391" lon="11.9042929"><ele>209.5</ele><time>2026-05-02T08:53:01.938Z</time></trkpt><trkpt lat="45.8535238" lon="11.9040866"><ele>210.0</ele><time>2026-05-02T08:53:02.938Z</time></trkpt><trkpt lat="45.8535124" lon="11.9038768"><ele>210.5</ele><time>2026-05-02T08:53:03.938Z</time></trkpt><trkpt lat="45.8535076" lon="11.903664"><ele>211.0</ele><time>2026-05-02T08:53:04.937Z</time></trkpt><trkpt lat="45.8535057" lon="11.9034502"><ele>211.5</ele><time>2026-05-02T08:53:05.937Z</time></trkpt><trkpt lat="45.8535106" lon="11.9032352"><ele>212.0</ele><time>2026-05-02T08:53:06.937Z</time></trkpt><trkpt lat="45.8535239" lon="11.9030226"><ele>212.5</ele><time>2026-05-02T08:53:07.938Z</time></trkpt><trkpt lat="45.8535417" lon="11.902812"><ele>213.0</ele><time>2026-05-02T08:53:08.938Z</time></trkpt><trkpt lat="45.8535623" lon="11.9026015"><ele>213.0</ele><time>2026-05-02T08:53:09.938Z</time></trkpt><trkpt lat="45.8535838" lon="11.90239"><ele>213.0</ele><time>2026-05-02T08:53:10.937Z</time></trkpt><trkpt lat="45.8536062" lon="11.902175"><ele>213.0</ele><time>2026-05-02T08:53:11.937Z</time></trkpt><trkpt lat="45.8536279" lon="11.901958"><ele>213.25</ele><time>2026-05-02T08:53:12.938Z</time></trkpt><trkpt lat="45.853649" lon="11.9017438"><ele>213.5</ele><time>2026-05-02T08:53:13.938Z</time></trkpt><trkpt lat="45.8536676" lon="11.9015364"><ele>213.75</ele><time>2026-05-02T08:53:14.937Z</time></trkpt><trkpt lat="45.8536834" lon="11.9013374"><ele>214.0</ele><time>2026-05-02T08:53:15.939Z</time></trkpt><trkpt lat="45.8536935" lon="11.9011421"><ele>214.0</ele><time>2026-05-02T08:53:16.939Z</time></trkpt><trkpt lat="45.8536964" lon="11.9009454"><ele>214.0</ele><time>2026-05-02T08:53:17.939Z</time></trkpt><trkpt lat="45.8536948" lon="11.9007448"><ele>214.0</ele><time>2026-05-02T08:53:18.937Z</time></trkpt><trkpt lat="45.8536882" lon="11.9005424"><ele>214.0</ele><time>2026-05-02T08:53:19.938Z</time></trkpt><trkpt lat="45.8536776" lon="11.9003388"><ele>214.5</ele><time>2026-05-02T08:53:20.938Z</time></trkpt><trkpt lat="45.853663" lon="11.9001341"><ele>215.0</ele><time>2026-05-02T08:53:21.939Z</time></trkpt><trkpt lat="45.8536438" lon="11.8999286"><ele>215.5</ele><time>2026-05-02T08:53:22.939Z</time></trkpt><trkpt lat="45.8536148" lon="11.8997116"><ele>216.0</ele><time>2026-05-02T08:53:23.939Z</time></trkpt><trkpt lat="45.853569" lon="11.8994749"><ele>215.66666666666669</ele><time>2026-05-02T08:53:24.938Z</time></trkpt><trkpt lat="45.8535094" lon="11.8992143"><ele>215.33333333333334</ele><time>2026-05-02T08:53:25.938Z</time></trkpt><trkpt lat="45.8534479" lon="11.8989306"><ele>215.0</ele><time>2026-05-02T08:53:26.939Z</time></trkpt><trkpt lat="45.8533895" lon="11.8986294"><ele>215.0</ele><time>2026-05-02T08:53:27.938Z</time></trkpt><trkpt lat="45.8533328" lon="11.8983317"><ele>215.0</ele><time>2026-05-02T08:53:28.938Z</time></trkpt><trkpt lat="45.8532717" lon="11.8980351"><ele>215.0</ele><time>2026-05-02T08:53:29.939Z</time></trkpt><trkpt lat="45.8532084" lon="11.8977427"><ele>216.0</ele><time>2026-05-02T08:53:30.938Z</time></trkpt><trkpt lat="45.853145" lon="11.8974568"><ele>217.0</ele><time>2026-05-02T08:53:31.939Z</time></trkpt><trkpt lat="45.8530806" lon="11.8971724"><ele>218.0</ele><time>2026-05-02T08:53:32.939Z</time></trkpt><trkpt lat="45.8530161" lon="11.8968903"><ele>218.0</ele><time>2026-05-02T08:53:33.939Z</time></trkpt><trkpt lat="45.8529532" lon="11.8966113"><ele>218.0</ele><time>2026-05-02T08:53:34.939Z</time></trkpt><trkpt lat="45.8528927" lon="11.8963334"><ele>218.0</ele><time>2026-05-02T08:53:35.939Z</time></trkpt><trkpt lat="45.8528307" lon="11.8960642"><ele>218.0</ele><time>2026-05-02T08:53:36.938Z</time></trkpt><trkpt lat="45.8527666" lon="11.895797"><ele>218.0</ele><time>2026-05-02T08:53:37.939Z</time></trkpt><trkpt lat="45.8527045" lon="11.8955309"><ele>218.0</ele><time>2026-05-02T08:53:38.939Z</time></trkpt><trkpt lat="45.8526469" lon="11.8952519"><ele>218.33333333333334</ele><time>2026-05-02T08:53:39.939Z</time></trkpt><trkpt lat="45.852588" lon="11.8949782"><ele>218.66666666666669</ele><time>2026-05-02T08:53:40.938Z</time></trkpt><trkpt lat="45.8525293" lon="11.8946968"><ele>219.0</ele><time>2026-05-02T08:53:41.939Z</time></trkpt><trkpt lat="45.8524654" lon="11.8944232"><ele>219.0</ele><time>2026-05-02T08:53:42.939Z</time></trkpt><trkpt lat="45.8524023" lon="11.8941448"><ele>219.0</ele><time>2026-05-02T08:53:43.938Z</time></trkpt><trkpt lat="45.8523375" lon="11.8938547"><ele>219.0</ele><time>2026-05-02T08:53:44.938Z</time></trkpt><trkpt lat="45.8522733" lon="11.8935604"><ele>218.66666666666669</ele><time>2026-05-02T08:53:45.939Z</time></trkpt><trkpt lat="45.8522042" lon="11.8932648"><ele>218.33333333333334</ele><time>2026-05-02T08:53:46.938Z</time></trkpt><trkpt lat="45.8521318" lon="11.892966"><ele>218.0</ele><time>2026-05-02T08:53:47.938Z</time></trkpt><trkpt lat="45.852046" lon="11.8926696"><ele>217.66666666666669</ele><time>2026-05-02T08:53:48.939Z</time></trkpt><trkpt lat="45.8519488" lon="11.8923827"><ele>217.33333333333331</ele><time>2026-05-02T08:53:49.939Z</time></trkpt><trkpt lat="45.8518356" lon="11.8921128"><ele>217.0</ele><time>2026-05-02T08:53:50.939Z</time></trkpt><trkpt lat="45.8517121" lon="11.8918464"><ele>218.0</ele><time>2026-05-02T08:53:51.938Z</time></trkpt><trkpt lat="45.8515791" lon="11.8915886"><ele>219.0</ele><time>2026-05-02T08:53:52.938Z</time></trkpt><trkpt lat="45.8514448" lon="11.8913364"><ele>220.0</ele><time>2026-05-02T08:53:53.938Z</time></trkpt><trkpt lat="45.8513139" lon="11.8910808"><ele>220.0</ele><time>2026-05-02T08:53:54.938Z</time></trkpt><trkpt lat="45.8511801" lon="11.8908284"><ele>220.0</ele><time>2026-05-02T08:53:55.938Z</time></trkpt><trkpt lat="45.8510447" lon="11.8905738"><ele>220.0</ele><time>2026-05-02T08:53:56.939Z</time></trkpt><trkpt lat="45.8509029" lon="11.8903351"><ele>221.66666666666666</ele><time>2026-05-02T08:53:57.939Z</time></trkpt><trkpt lat="45.850775" lon="11.8900849"><ele>223.33333333333331</ele><time>2026-05-02T08:53:58.938Z</time></trkpt><trkpt lat="45.850649" lon="11.8898452"><ele>225.0</ele><time>2026-05-02T08:53:59.939Z</time></trkpt><trkpt lat="45.8505245" lon="11.889614"><ele>225.0</ele><time>2026-05-02T08:54:00.938Z</time></trkpt><trkpt lat="45.8504206" lon="11.8893962"><ele>225.0</ele><time>2026-05-02T08:54:01.938Z</time></trkpt><trkpt lat="45.8503183" lon="11.8891899"><ele>225.0</ele><time>2026-05-02T08:54:02.938Z</time></trkpt><trkpt lat="45.8502244" lon="11.8890068"><ele>225.66666666666669</ele><time>2026-05-02T08:54:03.939Z</time></trkpt><trkpt lat="45.8501314" lon="11.8888381"><ele>226.33333333333334</ele><time>2026-05-02T08:54:04.938Z</time></trkpt><trkpt lat="45.8500407" lon="11.8886669"><ele>227.0</ele><time>2026-05-02T08:54:05.938Z</time></trkpt><trkpt lat="45.8499556" lon="11.8884791"><ele>227.33333333333334</ele><time>2026-05-02T08:54:06.938Z</time></trkpt><trkpt lat="45.8498826" lon="11.8882798"><ele>227.66666666666669</ele><time>2026-05-02T08:54:07.939Z</time></trkpt><trkpt lat="45.8498085" lon="11.888068"><ele>228.0</ele><time>2026-05-02T08:54:08.939Z</time></trkpt><trkpt lat="45.8497301" lon="11.8878558"><ele>228.0</ele><time>2026-05-02T08:54:09.939Z</time></trkpt><trkpt lat="45.8496542" lon="11.887626"><ele>228.0</ele><time>2026-05-02T08:54:10.938Z</time></trkpt><trkpt lat="45.8495868" lon="11.8873783"><ele>228.0</ele><time>2026-05-02T08:54:11.938Z</time></trkpt><trkpt lat="45.8495216" lon="11.8871222"><ele>228.66666666666669</ele><time>2026-05-02T08:54:12.939Z</time></trkpt><trkpt lat="45.849456" lon="11.8868584"><ele>229.33333333333334</ele><time>2026-05-02T08:54:13.939Z</time></trkpt><trkpt lat="45.8493921" lon="11.8865879"><ele>230.0</ele><time>2026-05-02T08:54:14.94Z</time></trkpt><trkpt lat="45.849325" lon="11.8863279"><ele>231.0</ele><time>2026-05-02T08:54:15.94Z</time></trkpt><trkpt lat="45.8492636" lon="11.8860448"><ele>232.0</ele><time>2026-05-02T08:54:16.939Z</time></trkpt><trkpt lat="45.8492021" lon="11.8857657"><ele>233.0</ele><time>2026-05-02T08:54:17.94Z</time></trkpt><trkpt lat="45.8491359" lon="11.8854803"><ele>233.33333333333334</ele><time>2026-05-02T08:54:18.94Z</time></trkpt><trkpt lat="45.849071" lon="11.8851999"><ele>233.66666666666669</ele><time>2026-05-02T08:54:19.939Z</time></trkpt><trkpt lat="45.8490084" lon="11.8849214"><ele>234.0</ele><time>2026-05-02T08:54:20.94Z</time></trkpt><trkpt lat="45.8489469" lon="11.8846411"><ele>234.0</ele><time>2026-05-02T08:54:21.94Z</time></trkpt><trkpt lat="45.8488876" lon="11.8843674"><ele>234.0</ele><time>2026-05-02T08:54:22.939Z</time></trkpt><trkpt lat="45.8488364" lon="11.8840942"><ele>234.0</ele><time>2026-05-02T08:54:23.94Z</time></trkpt><trkpt lat="45.8487951" lon="11.8838144"><ele>234.33333333333331</ele><time>2026-05-02T08:54:24.94Z</time></trkpt><trkpt lat="45.8487611" lon="11.8835379"><ele>234.66666666666666</ele><time>2026-05-02T08:54:25.939Z</time></trkpt><trkpt lat="45.8487273" lon="11.8832664"><ele>235.0</ele><time>2026-05-02T08:54:26.94Z</time></trkpt><trkpt lat="45.8487007" lon="11.8829938"><ele>236.0</ele><time>2026-05-02T08:54:27.939Z</time></trkpt><trkpt lat="45.8486754" lon="11.8827235"><ele>237.0</ele><time>2026-05-02T08:54:28.939Z</time></trkpt><trkpt lat="45.8486506" lon="11.8824516"><ele>238.0</ele><time>2026-05-02T08:54:29.94Z</time></trkpt><trkpt lat="45.8486199" lon="11.8821898"><ele>238.0</ele><time>2026-05-02T08:54:30.94Z</time></trkpt><trkpt lat="45.8485911" lon="11.8819583"><ele>238.0</ele><time>2026-05-02T08:54:31.939Z</time></trkpt><trkpt lat="45.8485685" lon="11.8817407"><ele>238.0</ele><time>2026-05-02T08:54:32.94Z</time></trkpt><trkpt lat="45.8485506" lon="11.8815268"><ele>238.5</ele><time>2026-05-02T08:54:33.94Z</time></trkpt><trkpt lat="45.8485329" lon="11.8813225"><ele>239.0</ele><time>2026-05-02T08:54:34.939Z</time></trkpt><trkpt lat="45.8485083" lon="11.881112"><ele>239.5</ele><time>2026-05-02T08:54:35.94Z</time></trkpt><trkpt lat="45.8484839" lon="11.880894"><ele>240.0</ele><time>2026-05-02T08:54:36.94Z</time></trkpt><trkpt lat="45.8484593" lon="11.8806579"><ele>240.33333333333331</ele><time>2026-05-02T08:54:37.939Z</time></trkpt><trkpt lat="45.8484418" lon="11.8804313"><ele>240.66666666666666</ele><time>2026-05-02T08:54:38.94Z</time></trkpt><trkpt lat="45.8484221" lon="11.8802101"><ele>241.0</ele><time>2026-05-02T08:54:39.939Z</time></trkpt><trkpt lat="45.8484008" lon="11.880001"><ele>241.60000000000002</ele><time>2026-05-02T08:54:40.94Z</time></trkpt><trkpt lat="45.8483842" lon="11.8798152"><ele>242.20000000000002</ele><time>2026-05-02T08:54:41.939Z</time></trkpt><trkpt lat="45.8483706" lon="11.8796535"><ele>242.79999999999998</ele><time>2026-05-02T08:54:42.94Z</time></trkpt><trkpt lat="45.8483605" lon="11.8795208"><ele>243.39999999999998</ele><time>2026-05-02T08:54:43.94Z</time></trkpt><trkpt lat="45.8483466" lon="11.8794135"><ele>244.0</ele><time>2026-05-02T08:54:44.94Z</time></trkpt><trkpt lat="45.8483327" lon="11.8792481"><ele>244.39999999999998</ele><time>2026-05-02T08:54:46.94Z</time></trkpt><trkpt lat="45.8483256" lon="11.8791314"><ele>244.79999999999998</ele><time>2026-05-02T08:54:47.939Z</time></trkpt><trkpt lat="45.8483069" lon="11.8789842"><ele>245.20000000000002</ele><time>2026-05-02T08:54:48.939Z</time></trkpt><trkpt lat="45.8482894" lon="11.8788189"><ele>245.60000000000002</ele><time>2026-05-02T08:54:49.939Z</time></trkpt><trkpt lat="45.8482674" lon="11.8786262"><ele>246.0</ele><time>2026-05-02T08:54:50.94Z</time></trkpt><trkpt lat="45.8482358" lon="11.8784213"><ele>247.0</ele><time>2026-05-02T08:54:51.939Z</time></trkpt><trkpt lat="45.848211" lon="11.8781933"><ele>248.0</ele><time>2026-05-02T08:54:52.94Z</time></trkpt><trkpt lat="45.848186" lon="11.8779605"><ele>249.0</ele><time>2026-05-02T08:54:53.94Z</time></trkpt><trkpt lat="45.8481746" lon="11.8777299"><ele>249.66666666666669</ele><time>2026-05-02T08:54:54.94Z</time></trkpt><trkpt lat="45.8482008" lon="11.877503"><ele>250.33333333333334</ele><time>2026-05-02T08:54:55.94Z</time></trkpt><trkpt lat="45.8482634" lon="11.8773062"><ele>251.0</ele><time>2026-05-02T08:54:56.94Z</time></trkpt><trkpt lat="45.8483619" lon="11.8771381"><ele>251.0</ele><time>2026-05-02T08:54:57.939Z</time></trkpt><trkpt lat="45.8484784" lon="11.8769805"><ele>251.0</ele><time>2026-05-02T08:54:58.94Z</time></trkpt><trkpt lat="45.848609" lon="11.8768389"><ele>251.0</ele><time>2026-05-02T08:54:59.939Z</time></trkpt><trkpt lat="45.8487508" lon="11.876715"><ele>251.0</ele><time>2026-05-02T08:55:00.94Z</time></trkpt><trkpt lat="45.848899" lon="11.8765897"><ele>251.0</ele><time>2026-05-02T08:55:01.939Z</time></trkpt><trkpt lat="45.849046" lon="11.8764637"><ele>251.0</ele><time>2026-05-02T08:55:02.94Z</time></trkpt><trkpt lat="45.8491995" lon="11.8763397"><ele>252.66666666666669</ele><time>2026-05-02T08:55:03.939Z</time></trkpt><trkpt lat="45.8493568" lon="11.8762104"><ele>254.33333333333331</ele><time>2026-05-02T08:55:04.939Z</time></trkpt><trkpt lat="45.8495134" lon="11.8760875"><ele>256.0</ele><time>2026-05-02T08:55:05.939Z</time></trkpt><trkpt lat="45.849666" lon="11.8759605"><ele>256.66666666666663</ele><time>2026-05-02T08:55:06.94Z</time></trkpt><trkpt lat="45.8498152" lon="11.8758385"><ele>257.3333333333333</ele><time>2026-05-02T08:55:07.939Z</time></trkpt><trkpt lat="45.8499671" lon="11.8757161"><ele>258.0</ele><time>2026-05-02T08:55:08.94Z</time></trkpt><trkpt lat="45.850112" lon="11.8755926"><ele>259.0</ele><time>2026-05-02T08:55:09.939Z</time></trkpt><trkpt lat="45.8502495" lon="11.8754762"><ele>260.0</ele><time>2026-05-02T08:55:10.94Z</time></trkpt><trkpt lat="45.85038" lon="11.8753463"><ele>261.0</ele><time>2026-05-02T08:55:11.94Z</time></trkpt><trkpt lat="45.8505017" lon="11.8752164"><ele>261.6666666666667</ele><time>2026-05-02T08:55:12.94Z</time></trkpt><trkpt lat="45.8506149" lon="11.8750628"><ele>262.33333333333337</ele><time>2026-05-02T08:55:13.941Z</time></trkpt><trkpt lat="45.8507233" lon="11.8748944"><ele>263.0</ele><time>2026-05-02T08:55:14.94Z</time></trkpt><trkpt lat="45.8508228" lon="11.8747216"><ele>263.0</ele><time>2026-05-02T08:55:15.941Z</time></trkpt><trkpt lat="45.8509191" lon="11.8745554"><ele>263.0</ele><time>2026-05-02T08:55:16.941Z</time></trkpt><trkpt lat="45.8510109" lon="11.8743947"><ele>263.0</ele><time>2026-05-02T08:55:17.94Z</time></trkpt><trkpt lat="45.8510964" lon="11.8742608"><ele>263.0</ele><time>2026-05-02T08:55:18.941Z</time></trkpt><trkpt lat="45.8511709" lon="11.8741208"><ele>264.75</ele><time>2026-05-02T08:55:19.94Z</time></trkpt><trkpt lat="45.8512313" lon="11.8739736"><ele>266.5</ele><time>2026-05-02T08:55:20.94Z</time></trkpt><trkpt lat="45.8512667" lon="11.8738126"><ele>268.25</ele><time>2026-05-02T08:55:21.941Z</time></trkpt><trkpt lat="45.8512686" lon="11.8736373"><ele>270.0</ele><time>2026-05-02T08:55:22.94Z</time></trkpt><trkpt lat="45.8512267" lon="11.8734565"><ele>270.0</ele><time>2026-05-02T08:55:23.941Z</time></trkpt><trkpt lat="45.8511612" lon="11.8732672"><ele>270.0</ele><time>2026-05-02T08:55:24.941Z</time></trkpt><trkpt lat="45.851084" lon="11.8730738"><ele>270.0</ele><time>2026-05-02T08:55:25.941Z</time></trkpt><trkpt lat="45.8510038" lon="11.8728726"><ele>268.6666666666667</ele><time>2026-05-02T08:55:26.94Z</time></trkpt><trkpt lat="45.8509123" lon="11.8726677"><ele>267.33333333333337</ele><time>2026-05-02T08:55:27.941Z</time></trkpt><trkpt lat="45.8508178" lon="11.8724591"><ele>266.0</ele><time>2026-05-02T08:55:28.941Z</time></trkpt><trkpt lat="45.8507164" lon="11.8722567"><ele>266.0</ele><time>2026-05-02T08:55:29.941Z</time></trkpt><trkpt lat="45.8506063" lon="11.8720749"><ele>266.0</ele><time>2026-05-02T08:55:30.94Z</time></trkpt><trkpt lat="45.8504844" lon="11.8719077"><ele>266.0</ele><time>2026-05-02T08:55:31.941Z</time></trkpt><trkpt lat="45.8503502" lon="11.8717588"><ele>266.0</ele><time>2026-05-02T08:55:32.941Z</time></trkpt><trkpt lat="45.8502102" lon="11.8716231"><ele>266.0</ele><time>2026-05-02T08:55:33.94Z</time></trkpt><trkpt lat="45.8500641" lon="11.8715064"><ele>266.0</ele><time>2026-05-02T08:55:34.941Z</time></trkpt><trkpt lat="45.849924" lon="11.871371"><ele>266.0</ele><time>2026-05-02T08:55:35.941Z</time></trkpt><trkpt lat="45.8497858" lon="11.8712345"><ele>266.0</ele><time>2026-05-02T08:55:36.94Z</time></trkpt><trkpt lat="45.8496468" lon="11.8711154"><ele>266.0</ele><time>2026-05-02T08:55:37.94Z</time></trkpt><trkpt lat="45.8495069" lon="11.870993"><ele>265.6666666666667</ele><time>2026-05-02T08:55:38.941Z</time></trkpt><trkpt lat="45.8493678" lon="11.870879"><ele>265.3333333333333</ele><time>2026-05-02T08:55:39.94Z</time></trkpt><trkpt lat="45.8492302" lon="11.8707459"><ele>265.0</ele><time>2026-05-02T08:55:40.941Z</time></trkpt><trkpt lat="45.84909" lon="11.8706327"><ele>264.3333333333333</ele><time>2026-05-02T08:55:41.941Z</time></trkpt><trkpt lat="45.8489519" lon="11.8705137"><ele>263.6666666666667</ele><time>2026-05-02T08:55:42.94Z</time></trkpt><trkpt lat="45.8488164" lon="11.8703839"><ele>263.0</ele><time>2026-05-02T08:55:43.94Z</time></trkpt><trkpt lat="45.8486775" lon="11.8702613"><ele>263.0</ele><time>2026-05-02T08:55:44.941Z</time></trkpt><trkpt lat="45.8485477" lon="11.870158"><ele>263.0</ele><time>2026-05-02T08:55:45.94Z</time></trkpt><trkpt lat="45.8484216" lon="11.8700374"><ele>263.0</ele><time>2026-05-02T08:55:46.941Z</time></trkpt><trkpt lat="45.8482873" lon="11.8699202"><ele>261.33333333333337</ele><time>2026-05-02T08:55:47.941Z</time></trkpt><trkpt lat="45.8481486" lon="11.8698036"><ele>259.6666666666667</ele><time>2026-05-02T08:55:48.941Z</time></trkpt><trkpt lat="45.8480095" lon="11.8696833"><ele>258.0</ele><time>2026-05-02T08:55:49.94Z</time></trkpt><trkpt lat="45.8478639" lon="11.8695536"><ele>258.0</ele><time>2026-05-02T08:55:50.941Z</time></trkpt><trkpt lat="45.8477211" lon="11.8694255"><ele>258.0</ele><time>2026-05-02T08:55:51.94Z</time></trkpt><trkpt lat="45.847574" lon="11.8693033"><ele>258.0</ele><time>2026-05-02T08:55:52.94Z</time></trkpt><trkpt lat="45.8474271" lon="11.8691694"><ele>259.6666666666667</ele><time>2026-05-02T08:55:53.941Z</time></trkpt><trkpt lat="45.8472759" lon="11.8690346"><ele>261.33333333333337</ele><time>2026-05-02T08:55:54.941Z</time></trkpt><trkpt lat="45.8471332" lon="11.8688978"><ele>263.0</ele><time>2026-05-02T08:55:55.94Z</time></trkpt><trkpt lat="45.8469868" lon="11.8687657"><ele>263.0</ele><time>2026-05-02T08:55:56.94Z</time></trkpt><trkpt lat="45.8468384" lon="11.868632"><ele>263.0</ele><time>2026-05-02T08:55:57.94Z</time></trkpt><trkpt lat="45.8466922" lon="11.868503"><ele>263.0</ele><time>2026-05-02T08:55:58.94Z</time></trkpt><trkpt lat="45.8465429" lon="11.868374"><ele>263.6666666666667</ele><time>2026-05-02T08:55:59.941Z</time></trkpt><trkpt lat="45.8463937" lon="11.8682383"><ele>264.3333333333333</ele><time>2026-05-02T08:56:00.94Z</time></trkpt><trkpt lat="45.8462411" lon="11.8681041"><ele>265.0</ele><time>2026-05-02T08:56:01.94Z</time></trkpt><trkpt lat="45.8460932" lon="11.8679663"><ele>265.0</ele><time>2026-05-02T08:56:02.941Z</time></trkpt><trkpt lat="45.8459517" lon="11.8678142"><ele>265.0</ele><time>2026-05-02T08:56:03.941Z</time></trkpt><trkpt lat="45.8458177" lon="11.8676497"><ele>265.0</ele><time>2026-05-02T08:56:04.941Z</time></trkpt><trkpt lat="45.8457012" lon="11.8674651"><ele>265.3333333333333</ele><time>2026-05-02T08:56:05.941Z</time></trkpt><trkpt lat="45.8455956" lon="11.8672655"><ele>265.6666666666667</ele><time>2026-05-02T08:56:06.941Z</time></trkpt><trkpt lat="45.845505" lon="11.8670432"><ele>266.0</ele><time>2026-05-02T08:56:07.941Z</time></trkpt><trkpt lat="45.8454338" lon="11.8668149"><ele>267.33333333333337</ele><time>2026-05-02T08:56:08.941Z</time></trkpt><trkpt lat="45.8453749" lon="11.8665754"><ele>268.6666666666667</ele><time>2026-05-02T08:56:09.942Z</time></trkpt><trkpt lat="45.8453327" lon="11.8663202"><ele>270.0</ele><time>2026-05-02T08:56:10.941Z</time></trkpt><trkpt lat="45.8453079" lon="11.8660467"><ele>269.6666666666667</ele><time>2026-05-02T08:56:11.942Z</time></trkpt><trkpt lat="45.8452855" lon="11.8657718"><ele>269.33333333333337</ele><time>2026-05-02T08:56:12.941Z</time></trkpt><trkpt lat="45.8452587" lon="11.8654933"><ele>269.0</ele><time>2026-05-02T08:56:13.941Z</time></trkpt><trkpt lat="45.845227" lon="11.8651977"><ele>269.6666666666667</ele><time>2026-05-02T08:56:14.941Z</time></trkpt><trkpt lat="45.8451995" lon="11.864917"><ele>270.3333333333333</ele><time>2026-05-02T08:56:15.942Z</time></trkpt><trkpt lat="45.8451705" lon="11.8646319"><ele>271.0</ele><time>2026-05-02T08:56:16.942Z</time></trkpt><trkpt lat="45.8451449" lon="11.8643413"><ele>276.0</ele><time>2026-05-02T08:56:17.941Z</time></trkpt><trkpt lat="45.8451189" lon="11.8640503"><ele>281.0</ele><time>2026-05-02T08:56:18.942Z</time></trkpt><trkpt lat="45.8450946" lon="11.8637609"><ele>286.0</ele><time>2026-05-02T08:56:19.942Z</time></trkpt><trkpt lat="45.8450632" lon="11.8634675"><ele>288.3333333333333</ele><time>2026-05-02T08:56:20.942Z</time></trkpt><trkpt lat="45.845032" lon="11.8631978"><ele>290.6666666666667</ele><time>2026-05-02T08:56:21.941Z</time></trkpt><trkpt lat="45.8449953" lon="11.8629248"><ele>293.0</ele><time>2026-05-02T08:56:22.941Z</time></trkpt><trkpt lat="45.8449579" lon="11.8626619"><ele>296.6666666666667</ele><time>2026-05-02T08:56:23.941Z</time></trkpt><trkpt lat="45.8449403" lon="11.8623951"><ele>300.3333333333333</ele><time>2026-05-02T08:56:24.942Z</time></trkpt><trkpt lat="45.8449397" lon="11.8621406"><ele>304.0</ele><time>2026-05-02T08:56:25.941Z</time></trkpt><trkpt lat="45.8449465" lon="11.8618884"><ele>304.5</ele><time>2026-05-02T08:56:26.942Z</time></trkpt><trkpt lat="45.8449534" lon="11.8616571"><ele>305.0</ele><time>2026-05-02T08:56:27.941Z</time></trkpt><trkpt lat="45.8449705" lon="11.8614496"><ele>305.5</ele><time>2026-05-02T08:56:28.941Z</time></trkpt><trkpt lat="45.8450027" lon="11.8612712"><ele>306.0</ele><time>2026-05-02T08:56:29.942Z</time></trkpt><trkpt lat="45.8450571" lon="11.8610992"><ele>307.0</ele><time>2026-05-02T08:56:30.942Z</time></trkpt><trkpt lat="45.845126" lon="11.8609328"><ele>308.0</ele><time>2026-05-02T08:56:31.942Z</time></trkpt><trkpt lat="45.8452022" lon="11.8607847"><ele>309.0</ele><time>2026-05-02T08:56:32.942Z</time></trkpt><trkpt lat="45.8452699" lon="11.8606562"><ele>310.0</ele><time>2026-05-02T08:56:33.941Z</time></trkpt><trkpt lat="45.8453291" lon="11.8605423"><ele>314.0</ele><time>2026-05-02T08:56:34.941Z</time></trkpt><trkpt lat="45.8453776" lon="11.8604411"><ele>318.0</ele><time>2026-05-02T08:56:35.941Z</time></trkpt><trkpt lat="45.845426" lon="11.8603413"><ele>322.0</ele><time>2026-05-02T08:56:36.942Z</time></trkpt><trkpt lat="45.8454577" lon="11.860216"><ele>326.0</ele><time>2026-05-02T08:56:37.942Z</time></trkpt><trkpt lat="45.8454638" lon="11.8600826"><ele>330.0</ele><time>2026-05-02T08:56:38.942Z</time></trkpt><trkpt lat="45.8454347" lon="11.8599543"><ele>330.2</ele><time>2026-05-02T08:56:39.942Z</time></trkpt><trkpt lat="45.8453737" lon="11.8598444"><ele>330.4</ele><time>2026-05-02T08:56:40.941Z</time></trkpt><trkpt lat="45.8452851" lon="11.8597551"><ele>330.6</ele><time>2026-05-02T08:56:41.943Z</time></trkpt><trkpt lat="45.8451896" lon="11.8596667"><ele>330.8</ele><time>2026-05-02T08:56:42.941Z</time></trkpt><trkpt lat="45.8450969" lon="11.8595849"><ele>331.0</ele><time>2026-05-02T08:56:43.941Z</time></trkpt><trkpt lat="45.8450155" lon="11.8595195"><ele>330.6</ele><time>2026-05-02T08:56:44.941Z</time></trkpt><trkpt lat="45.8449297" lon="11.8594526"><ele>330.20000000000005</ele><time>2026-05-02T08:56:45.941Z</time></trkpt><trkpt lat="45.8448319" lon="11.8593769"><ele>329.79999999999995</ele><time>2026-05-02T08:56:46.942Z</time></trkpt><trkpt lat="45.8447305" lon="11.8592927"><ele>329.4</ele><time>2026-05-02T08:56:47.941Z</time></trkpt><trkpt lat="45.8446274" lon="11.8592138"><ele>329.0</ele><time>2026-05-02T08:56:48.942Z</time></trkpt><trkpt lat="45.8445471" lon="11.8591534"><ele>329.0</ele><time>2026-05-02T08:56:49.941Z</time></trkpt><trkpt lat="45.8444634" lon="11.8591414"><ele>329.0</ele><time>2026-05-02T08:56:50.942Z</time></trkpt><trkpt lat="45.8443703" lon="11.8591689"><ele>329.0</ele><time>2026-05-02T08:56:51.941Z</time></trkpt><trkpt lat="45.8442779" lon="11.8592455"><ele>329.0</ele><time>2026-05-02T08:56:52.941Z</time></trkpt><trkpt lat="45.8442052" lon="11.859351"><ele>329.0</ele><time>2026-05-02T08:56:53.941Z</time></trkpt><trkpt lat="45.8441475" lon="11.8594651"><ele>327.79999999999995</ele><time>2026-05-02T08:56:54.941Z</time></trkpt><trkpt lat="45.8441026" lon="11.8595866"><ele>326.59999999999997</ele><time>2026-05-02T08:56:55.941Z</time></trkpt><trkpt lat="45.8440591" lon="11.8597097"><ele>325.4</ele><time>2026-05-02T08:56:56.943Z</time></trkpt><trkpt lat="45.8440296" lon="11.8598501"><ele>324.2</ele><time>2026-05-02T08:56:57.943Z</time></trkpt><trkpt lat="45.8440243" lon="11.859991"><ele>323.0</ele><time>2026-05-02T08:56:58.942Z</time></trkpt><trkpt lat="45.8440371" lon="11.8601398"><ele>322.59999999999997</ele><time>2026-05-02T08:56:59.941Z</time></trkpt><trkpt lat="45.8440616" lon="11.8602895"><ele>322.2</ele><time>2026-05-02T08:57:00.942Z</time></trkpt><trkpt lat="45.8440828" lon="11.860437"><ele>321.8</ele><time>2026-05-02T08:57:01.941Z</time></trkpt><trkpt lat="45.8440963" lon="11.860579"><ele>321.4</ele><time>2026-05-02T08:57:02.942Z</time></trkpt><trkpt lat="45.8440958" lon="11.8607178"><ele>321.0</ele><time>2026-05-02T08:57:03.942Z</time></trkpt><trkpt lat="45.8440767" lon="11.8608505"><ele>319.6</ele><time>2026-05-02T08:57:04.942Z</time></trkpt><trkpt lat="45.8440379" lon="11.8609707"><ele>318.20000000000005</ele><time>2026-05-02T08:57:05.942Z</time></trkpt><trkpt lat="45.8439763" lon="11.8610758"><ele>316.79999999999995</ele><time>2026-05-02T08:57:06.942Z</time></trkpt><trkpt lat="45.8438983" lon="11.8611579"><ele>315.4</ele><time>2026-05-02T08:57:07.941Z</time></trkpt><trkpt lat="45.8438083" lon="11.861212"><ele>314.0</ele><time>2026-05-02T08:57:08.942Z</time></trkpt><trkpt lat="45.8437079" lon="11.8612396"><ele>314.0</ele><time>2026-05-02T08:57:09.942Z</time></trkpt><trkpt lat="45.8436002" lon="11.861239"><ele>314.0</ele><time>2026-05-02T08:57:10.943Z</time></trkpt><trkpt lat="45.8434956" lon="11.8612054"><ele>314.0</ele><time>2026-05-02T08:57:11.943Z</time></trkpt><trkpt lat="45.843401" lon="11.8611365"><ele>314.0</ele><time>2026-05-02T08:57:12.943Z</time></trkpt><trkpt lat="45.8433187" lon="11.8610346"><ele>314.0</ele><time>2026-05-02T08:57:13.942Z</time></trkpt><trkpt lat="45.8432427" lon="11.8608994"><ele>317.5</ele><time>2026-05-02T08:57:14.942Z</time></trkpt><trkpt lat="45.8431673" lon="11.8607396"><ele>321.0</ele><time>2026-05-02T08:57:15.942Z</time></trkpt><trkpt lat="45.8430998" lon="11.8605857"><ele>324.5</ele><time>2026-05-02T08:57:16.942Z</time></trkpt><trkpt lat="45.8430427" lon="11.8604465"><ele>328.0</ele><time>2026-05-02T08:57:17.943Z</time></trkpt><trkpt lat="45.8429853" lon="11.8603094"><ele>328.0</ele><time>2026-05-02T08:57:18.942Z</time></trkpt><trkpt lat="45.8429254" lon="11.8601636"><ele>328.0</ele><time>2026-05-02T08:57:19.942Z</time></trkpt><trkpt lat="45.8428636" lon="11.8600167"><ele>328.0</ele><time>2026-05-02T08:57:20.943Z</time></trkpt><trkpt lat="45.8428015" lon="11.8598727"><ele>328.0</ele><time>2026-05-02T08:57:21.943Z</time></trkpt><trkpt lat="45.8427393" lon="11.8597227"><ele>328.79999999999995</ele><time>2026-05-02T08:57:22.942Z</time></trkpt><trkpt lat="45.842676" lon="11.8595748"><ele>329.6</ele><time>2026-05-02T08:57:23.943Z</time></trkpt><trkpt lat="45.8426155" lon="11.8594313"><ele>330.4</ele><time>2026-05-02T08:57:24.942Z</time></trkpt><trkpt lat="45.8425597" lon="11.8592973"><ele>331.20000000000005</ele><time>2026-05-02T08:57:25.942Z</time></trkpt><trkpt lat="45.8425094" lon="11.8591812"><ele>332.0</ele><time>2026-05-02T08:57:26.942Z</time></trkpt><trkpt lat="45.8424616" lon="11.8590734"><ele>332.20000000000005</ele><time>2026-05-02T08:57:27.943Z</time></trkpt><trkpt lat="45.8424075" lon="11.8589702"><ele>332.4</ele><time>2026-05-02T08:57:28.943Z</time></trkpt><trkpt lat="45.8423338" lon="11.8588924"><ele>332.6</ele><time>2026-05-02T08:57:29.942Z</time></trkpt><trkpt lat="45.842242" lon="11.8588682"><ele>332.79999999999995</ele><time>2026-05-02T08:57:30.942Z</time></trkpt><trkpt lat="45.8421434" lon="11.8588952"><ele>333.0</ele><time>2026-05-02T08:57:31.943Z</time></trkpt><trkpt lat="45.8420421" lon="11.8589461"><ele>333.0</ele><time>2026-05-02T08:57:32.943Z</time></trkpt><trkpt lat="45.8419397" lon="11.8590016"><ele>333.0</ele><time>2026-05-02T08:57:33.942Z</time></trkpt><trkpt lat="45.8418343" lon="11.8590595"><ele>333.0</ele><time>2026-05-02T08:57:34.943Z</time></trkpt><trkpt lat="45.841729" lon="11.8591153"><ele>333.0</ele><time>2026-05-02T08:57:35.943Z</time></trkpt><trkpt lat="45.8416179" lon="11.8591505"><ele>333.0</ele><time>2026-05-02T08:57:36.943Z</time></trkpt><trkpt lat="45.8415061" lon="11.8591651"><ele>334.0</ele><time>2026-05-02T08:57:37.943Z</time></trkpt><trkpt lat="45.8413904" lon="11.8591592"><ele>335.0</ele><time>2026-05-02T08:57:38.943Z</time></trkpt><trkpt lat="45.8412728" lon="11.8591365"><ele>336.0</ele><time>2026-05-02T08:57:39.943Z</time></trkpt><trkpt lat="45.8411507" lon="11.8590953"><ele>337.0</ele><time>2026-05-02T08:57:40.942Z</time></trkpt><trkpt lat="45.8410232" lon="11.8590365"><ele>337.0</ele><time>2026-05-02T08:57:41.942Z</time></trkpt><trkpt lat="45.840894" lon="11.8589662"><ele>337.0</ele><time>2026-05-02T08:57:42.943Z</time></trkpt><trkpt lat="45.8407647" lon="11.8588906"><ele>337.0</ele><time>2026-05-02T08:57:43.943Z</time></trkpt><trkpt lat="45.8406359" lon="11.858815"><ele>337.0</ele><time>2026-05-02T08:57:44.942Z</time></trkpt><trkpt lat="45.8405051" lon="11.8587373"><ele>337.0</ele><time>2026-05-02T08:57:45.943Z</time></trkpt><trkpt lat="45.8403693" lon="11.858655"><ele>337.0</ele><time>2026-05-02T08:57:46.942Z</time></trkpt><trkpt lat="45.8402264" lon="11.8585699"><ele>337.0</ele><time>2026-05-02T08:57:47.943Z</time></trkpt><trkpt lat="45.8400757" lon="11.8584836"><ele>337.0</ele><time>2026-05-02T08:57:48.943Z</time></trkpt><trkpt lat="45.8399202" lon="11.8583949"><ele>337.0</ele><time>2026-05-02T08:57:49.942Z</time></trkpt><trkpt lat="45.8397642" lon="11.8583041"><ele>337.0</ele><time>2026-05-02T08:57:50.942Z</time></trkpt><trkpt lat="45.8396064" lon="11.8582133"><ele>337.0</ele><time>2026-05-02T08:57:51.944Z</time></trkpt><trkpt lat="45.8394511" lon="11.8581235"><ele>337.0</ele><time>2026-05-02T08:57:52.943Z</time></trkpt><trkpt lat="45.8392985" lon="11.8580344"><ele>337.0</ele><time>2026-05-02T08:57:53.943Z</time></trkpt><trkpt lat="45.8391475" lon="11.8579459"><ele>336.66666666666663</ele><time>2026-05-02T08:57:54.943Z</time></trkpt><trkpt lat="45.8389973" lon="11.8578577"><ele>336.3333333333333</ele><time>2026-05-02T08:57:55.942Z</time></trkpt><trkpt lat="45.8388478" lon="11.8577702"><ele>336.0</ele><time>2026-05-02T08:57:56.943Z</time></trkpt><trkpt lat="45.8386987" lon="11.8576834"><ele>335.6666666666667</ele><time>2026-05-02T08:57:57.942Z</time></trkpt><trkpt lat="45.8385504" lon="11.8575971"><ele>335.33333333333337</ele><time>2026-05-02T08:57:58.943Z</time></trkpt><trkpt lat="45.8384027" lon="11.8575122"><ele>335.0</ele><time>2026-05-02T08:57:59.943Z</time></trkpt><trkpt lat="45.8382576" lon="11.8574297"><ele>335.0</ele><time>2026-05-02T08:58:00.943Z</time></trkpt><trkpt lat="45.838122" lon="11.8573504"><ele>335.0</ele><time>2026-05-02T08:58:01.943Z</time></trkpt><trkpt lat="45.8379889" lon="11.857265"><ele>335.0</ele><time>2026-05-02T08:58:02.942Z</time></trkpt><trkpt lat="45.8378577" lon="11.8571656"><ele>335.0</ele><time>2026-05-02T08:58:03.943Z</time></trkpt><trkpt lat="45.8377339" lon="11.8570511"><ele>335.0</ele><time>2026-05-02T08:58:04.944Z</time></trkpt><trkpt lat="45.8376173" lon="11.8569226"><ele>335.0</ele><time>2026-05-02T08:58:05.944Z</time></trkpt><trkpt lat="45.8375087" lon="11.8567845"><ele>335.0</ele><time>2026-05-02T08:58:06.944Z</time></trkpt><trkpt lat="45.8374078" lon="11.8566372"><ele>335.0</ele><time>2026-05-02T08:58:07.943Z</time></trkpt><trkpt lat="45.8373168" lon="11.8564823"><ele>335.0</ele><time>2026-05-02T08:58:08.943Z</time></trkpt><trkpt lat="45.8372351" lon="11.8563199"><ele>335.0</ele><time>2026-05-02T08:58:09.944Z</time></trkpt><trkpt lat="45.8371654" lon="11.8561527"><ele>335.0</ele><time>2026-05-02T08:58:10.944Z</time></trkpt><trkpt lat="45.837104" lon="11.8559816"><ele>335.0</ele><time>2026-05-02T08:58:11.944Z</time></trkpt><trkpt lat="45.837047" lon="11.8558052"><ele>335.75</ele><time>2026-05-02T08:58:12.943Z</time></trkpt><trkpt lat="45.8369902" lon="11.8556263"><ele>336.5</ele><time>2026-05-02T08:58:13.943Z</time></trkpt><trkpt lat="45.8369357" lon="11.8554551"><ele>337.25</ele><time>2026-05-02T08:58:14.944Z</time></trkpt><trkpt lat="45.8368866" lon="11.8552973"><ele>338.0</ele><time>2026-05-02T08:58:15.943Z</time></trkpt><trkpt lat="45.8368397" lon="11.8551445"><ele>337.4</ele><time>2026-05-02T08:58:16.944Z</time></trkpt><trkpt lat="45.8367912" lon="11.8549896"><ele>336.79999999999995</ele><time>2026-05-02T08:58:17.944Z</time></trkpt><trkpt lat="45.8367478" lon="11.8548527"><ele>336.2</ele><time>2026-05-02T08:58:18.944Z</time></trkpt><trkpt lat="45.8367151" lon="11.8547518"><ele>335.6</ele><time>2026-05-02T08:58:19.943Z</time></trkpt><trkpt lat="45.8366569" lon="11.8545649"><ele>335.0</ele><time>2026-05-02T08:58:21.943Z</time></trkpt><trkpt lat="45.8366201" lon="11.8544382"><ele>336.6666666666667</ele><time>2026-05-02T08:58:22.944Z</time></trkpt><trkpt lat="45.8365595" lon="11.8542431"><ele>338.3333333333333</ele><time>2026-05-02T08:58:23.944Z</time></trkpt><trkpt lat="45.8364906" lon="11.8540236"><ele>340.0</ele><time>2026-05-02T08:58:24.944Z</time></trkpt><trkpt lat="45.8364159" lon="11.8537841"><ele>340.0</ele><time>2026-05-02T08:58:25.944Z</time></trkpt><trkpt lat="45.8363323" lon="11.8535273"><ele>340.0</ele><time>2026-05-02T08:58:26.944Z</time></trkpt><trkpt lat="45.8362455" lon="11.8532594"><ele>340.0</ele><time>2026-05-02T08:58:27.943Z</time></trkpt><trkpt lat="45.8361585" lon="11.8529878"><ele>340.3333333333333</ele><time>2026-05-02T08:58:28.943Z</time></trkpt><trkpt lat="45.8360726" lon="11.8527186"><ele>340.6666666666667</ele><time>2026-05-02T08:58:29.944Z</time></trkpt><trkpt lat="45.8359909" lon="11.8524504"><ele>341.0</ele><time>2026-05-02T08:58:30.944Z</time></trkpt><trkpt lat="45.8359162" lon="11.8521827"><ele>339.6666666666667</ele><time>2026-05-02T08:58:31.944Z</time></trkpt><trkpt lat="45.8358516" lon="11.8519096"><ele>338.3333333333333</ele><time>2026-05-02T08:58:32.943Z</time></trkpt><trkpt lat="45.835798" lon="11.8516313"><ele>337.0</ele><time>2026-05-02T08:58:33.944Z</time></trkpt><trkpt lat="45.83575" lon="11.8513488"><ele>337.0</ele><time>2026-05-02T08:58:34.943Z</time></trkpt><trkpt lat="45.8357029" lon="11.8510659"><ele>337.0</ele><time>2026-05-02T08:58:35.944Z</time></trkpt><trkpt lat="45.8356536" lon="11.8507846"><ele>337.0</ele><time>2026-05-02T08:58:36.944Z</time></trkpt><trkpt lat="45.8356072" lon="11.8505064"><ele>337.3333333333333</ele><time>2026-05-02T08:58:37.944Z</time></trkpt><trkpt lat="45.8355616" lon="11.8502287"><ele>337.6666666666667</ele><time>2026-05-02T08:58:38.944Z</time></trkpt><trkpt lat="45.8355161" lon="11.8499545"><ele>338.0</ele><time>2026-05-02T08:58:39.944Z</time></trkpt><trkpt lat="45.8354729" lon="11.8496826"><ele>338.33333333333337</ele><time>2026-05-02T08:58:40.944Z</time></trkpt><trkpt lat="45.8354256" lon="11.8494175"><ele>338.6666666666667</ele><time>2026-05-02T08:58:41.943Z</time></trkpt><trkpt lat="45.8353682" lon="11.8491503"><ele>339.0</ele><time>2026-05-02T08:58:42.943Z</time></trkpt><trkpt lat="45.8352929" lon="11.8489042"><ele>339.0</ele><time>2026-05-02T08:58:43.944Z</time></trkpt><trkpt lat="45.8351924" lon="11.8486768"><ele>339.0</ele><time>2026-05-02T08:58:44.943Z</time></trkpt><trkpt lat="45.8350789" lon="11.8484697"><ele>339.0</ele><time>2026-05-02T08:58:45.944Z</time></trkpt><trkpt lat="45.8349398" lon="11.8482821"><ele>337.3333333333333</ele><time>2026-05-02T08:58:46.943Z</time></trkpt><trkpt lat="45.8347864" lon="11.848125"><ele>335.66666666666663</ele><time>2026-05-02T08:58:47.944Z</time></trkpt><trkpt lat="45.834615" lon="11.8479921"><ele>334.0</ele><time>2026-05-02T08:58:48.944Z</time></trkpt><trkpt lat="45.8344399" lon="11.8478628"><ele>333.3333333333333</ele><time>2026-05-02T08:58:49.944Z</time></trkpt><trkpt lat="45.8342614" lon="11.847738"><ele>332.6666666666667</ele><time>2026-05-02T08:58:50.943Z</time></trkpt><trkpt lat="45.8340881" lon="11.8476082"><ele>332.0</ele><time>2026-05-02T08:58:51.944Z</time></trkpt><trkpt lat="45.8339204" lon="11.8474729"><ele>332.0</ele><time>2026-05-02T08:58:52.944Z</time></trkpt><trkpt lat="45.8337532" lon="11.8473143"><ele>332.0</ele><time>2026-05-02T08:58:53.943Z</time></trkpt><trkpt lat="45.8336045" lon="11.8471405"><ele>332.0</ele><time>2026-05-02T08:58:54.943Z</time></trkpt><trkpt lat="45.8334611" lon="11.8469615"><ele>329.6666666666667</ele><time>2026-05-02T08:58:55.943Z</time></trkpt><trkpt lat="45.8333226" lon="11.8467768"><ele>327.3333333333333</ele><time>2026-05-02T08:58:56.945Z</time></trkpt><trkpt lat="45.8331903" lon="11.8466056"><ele>325.0</ele><time>2026-05-02T08:58:57.944Z</time></trkpt><trkpt lat="45.8330661" lon="11.8464345"><ele>325.0</ele><time>2026-05-02T08:58:58.944Z</time></trkpt><trkpt lat="45.832951" lon="11.8462753"><ele>325.0</ele><time>2026-05-02T08:58:59.944Z</time></trkpt><trkpt lat="45.8328534" lon="11.846098"><ele>325.0</ele><time>2026-05-02T08:59:00.943Z</time></trkpt><trkpt lat="45.8327695" lon="11.8458999"><ele>324.0</ele><time>2026-05-02T08:59:01.945Z</time></trkpt><trkpt lat="45.8327219" lon="11.8456749"><ele>323.0</ele><time>2026-05-02T08:59:02.945Z</time></trkpt><trkpt lat="45.8327147" lon="11.8454424"><ele>322.0</ele><time>2026-05-02T08:59:03.945Z</time></trkpt><trkpt lat="45.8327533" lon="11.8452162"><ele>321.3333333333333</ele><time>2026-05-02T08:59:04.945Z</time></trkpt><trkpt lat="45.8328257" lon="11.8449879"><ele>320.6666666666667</ele><time>2026-05-02T08:59:05.945Z</time></trkpt><trkpt lat="45.8329113" lon="11.8447718"><ele>320.0</ele><time>2026-05-02T08:59:06.944Z</time></trkpt><trkpt lat="45.8330049" lon="11.8445481"><ele>320.0</ele><time>2026-05-02T08:59:07.945Z</time></trkpt><trkpt lat="45.8330952" lon="11.8443263"><ele>320.0</ele><time>2026-05-02T08:59:08.945Z</time></trkpt><trkpt lat="45.8331946" lon="11.8441094"><ele>320.0</ele><time>2026-05-02T08:59:09.944Z</time></trkpt><trkpt lat="45.8332931" lon="11.8438907"><ele>319.6666666666667</ele><time>2026-05-02T08:59:10.944Z</time></trkpt><trkpt lat="45.8333868" lon="11.843671"><ele>319.3333333333333</ele><time>2026-05-02T08:59:11.945Z</time></trkpt><trkpt lat="45.8334725" lon="11.8434687"><ele>319.0</ele><time>2026-05-02T08:59:12.945Z</time></trkpt><trkpt lat="45.8335474" lon="11.8432853"><ele>320.0</ele><time>2026-05-02T08:59:13.944Z</time></trkpt><trkpt lat="45.8336159" lon="11.8431198"><ele>321.0</ele><time>2026-05-02T08:59:14.945Z</time></trkpt><trkpt lat="45.8336819" lon="11.8429781"><ele>322.0</ele><time>2026-05-02T08:59:15.945Z</time></trkpt><trkpt lat="45.8337316" lon="11.8428453"><ele>323.0</ele><time>2026-05-02T08:59:16.944Z</time></trkpt><trkpt lat="45.8337468" lon="11.8427213"><ele>324.0</ele><time>2026-05-02T08:59:17.944Z</time></trkpt><trkpt lat="45.8337128" lon="11.8426042"><ele>322.75</ele><time>2026-05-02T08:59:18.945Z</time></trkpt><trkpt lat="45.8336305" lon="11.8424993"><ele>321.5</ele><time>2026-05-02T08:59:19.945Z</time></trkpt><trkpt lat="45.8335212" lon="11.8424165"><ele>320.25</ele><time>2026-05-02T08:59:20.945Z</time></trkpt><trkpt lat="45.833377" lon="11.8423524"><ele>319.0</ele><time>2026-05-02T08:59:21.944Z</time></trkpt><trkpt lat="45.833213" lon="11.842288"><ele>319.0</ele><time>2026-05-02T08:59:22.944Z</time></trkpt><trkpt lat="45.8330436" lon="11.8422212"><ele>319.0</ele><time>2026-05-02T08:59:23.945Z</time></trkpt><trkpt lat="45.8328743" lon="11.8421481"><ele>319.0</ele><time>2026-05-02T08:59:24.944Z</time></trkpt><trkpt lat="45.832715" lon="11.8420807"><ele>318.75</ele><time>2026-05-02T08:59:25.944Z</time></trkpt><trkpt lat="45.8325656" lon="11.8420218"><ele>318.5</ele><time>2026-05-02T08:59:26.944Z</time></trkpt><trkpt lat="45.8324261" lon="11.841964"><ele>318.25</ele><time>2026-05-02T08:59:27.944Z</time></trkpt><trkpt lat="45.8322966" lon="11.8418967"><ele>318.0</ele><time>2026-05-02T08:59:28.945Z</time></trkpt><trkpt lat="45.8321862" lon="11.8417962"><ele>318.0</ele><time>2026-05-02T08:59:29.945Z</time></trkpt><trkpt lat="45.8321081" lon="11.8416737"><ele>318.0</ele><time>2026-05-02T08:59:30.945Z</time></trkpt><trkpt lat="45.8320501" lon="11.8415177"><ele>318.0</ele><time>2026-05-02T08:59:31.945Z</time></trkpt><trkpt lat="45.8319942" lon="11.8413507"><ele>318.0</ele><time>2026-05-02T08:59:32.944Z</time></trkpt><trkpt lat="45.8319468" lon="11.8411948"><ele>318.0</ele><time>2026-05-02T08:59:33.944Z</time></trkpt><trkpt lat="45.8319008" lon="11.8410514"><ele>318.0</ele><time>2026-05-02T08:59:34.944Z</time></trkpt><trkpt lat="45.8318632" lon="11.8409079"><ele>318.0</ele><time>2026-05-02T08:59:35.944Z</time></trkpt><trkpt lat="45.8318197" lon="11.8407575"><ele>318.0</ele><time>2026-05-02T08:59:36.945Z</time></trkpt><trkpt lat="45.8317658" lon="11.8406024"><ele>315.75</ele><time>2026-05-02T08:59:37.944Z</time></trkpt><trkpt lat="45.8317143" lon="11.8404374"><ele>313.5</ele><time>2026-05-02T08:59:38.945Z</time></trkpt><trkpt lat="45.8316577" lon="11.8402703"><ele>311.25</ele><time>2026-05-02T08:59:39.945Z</time></trkpt><trkpt lat="45.8316037" lon="11.8400968"><ele>309.0</ele><time>2026-05-02T08:59:40.945Z</time></trkpt><trkpt lat="45.8315385" lon="11.8399233"><ele>309.0</ele><time>2026-05-02T08:59:41.945Z</time></trkpt><trkpt lat="45.8314638" lon="11.8397627"><ele>309.0</ele><time>2026-05-02T08:59:42.945Z</time></trkpt><trkpt lat="45.8313862" lon="11.8396189"><ele>309.0</ele><time>2026-05-02T08:59:43.945Z</time></trkpt><trkpt lat="45.8312974" lon="11.8394642"><ele>309.0</ele><time>2026-05-02T08:59:44.944Z</time></trkpt><trkpt lat="45.8312195" lon="11.8393085"><ele>309.75</ele><time>2026-05-02T08:59:45.944Z</time></trkpt><trkpt lat="45.8311374" lon="11.8391674"><ele>310.5</ele><time>2026-05-02T08:59:46.945Z</time></trkpt><trkpt lat="45.8310558" lon="11.8390249"><ele>311.25</ele><time>2026-05-02T08:59:47.945Z</time></trkpt><trkpt lat="45.8309779" lon="11.8388891"><ele>312.0</ele><time>2026-05-02T08:59:48.945Z</time></trkpt><trkpt lat="45.83091" lon="11.8387535"><ele>310.8</ele><time>2026-05-02T08:59:49.945Z</time></trkpt><trkpt lat="45.8308473" lon="11.8386315"><ele>309.6</ele><time>2026-05-02T08:59:50.944Z</time></trkpt><trkpt lat="45.8307812" lon="11.8385197"><ele>308.40000000000003</ele><time>2026-05-02T08:59:51.945Z</time></trkpt><trkpt lat="45.8307126" lon="11.8384048"><ele>307.2</ele><time>2026-05-02T08:59:52.944Z</time></trkpt><trkpt lat="45.8306463" lon="11.8383102"><ele>306.0</ele><time>2026-05-02T08:59:53.945Z</time></trkpt><trkpt lat="45.8305743" lon="11.83824"><ele>306.0</ele><time>2026-05-02T08:59:54.945Z</time></trkpt><trkpt lat="45.8305034" lon="11.8381923"><ele>306.0</ele><time>2026-05-02T08:59:55.946Z</time></trkpt><trkpt lat="45.8304308" lon="11.8381759"><ele>306.0</ele><time>2026-05-02T08:59:56.945Z</time></trkpt><trkpt lat="45.8303595" lon="11.8381786"><ele>306.0</ele><time>2026-05-02T08:59:57.946Z</time></trkpt><trkpt lat="45.8302949" lon="11.8381932"><ele>306.0</ele><time>2026-05-02T08:59:58.945Z</time></trkpt><trkpt lat="45.8302354" lon="11.8382407"><ele>306.0</ele><time>2026-05-02T08:59:59.946Z</time></trkpt><trkpt lat="45.8301752" lon="11.8383127"><ele>306.0</ele><time>2026-05-02T09:00:00.946Z</time></trkpt><trkpt lat="45.8301183" lon="11.8384185"><ele>304.25</ele><time>2026-05-02T09:00:01.945Z</time></trkpt><trkpt lat="45.8300683" lon="11.8385544"><ele>302.5</ele><time>2026-05-02T09:00:02.946Z</time></trkpt><trkpt lat="45.8300283" lon="11.8387137"><ele>300.75</ele><time>2026-05-02T09:00:03.946Z</time></trkpt><trkpt lat="45.8299913" lon="11.838893"><ele>299.0</ele><time>2026-05-02T09:00:04.946Z</time></trkpt><trkpt lat="45.8299533" lon="11.8390817"><ele>299.0</ele><time>2026-05-02T09:00:05.946Z</time></trkpt><trkpt lat="45.8299155" lon="11.8392704"><ele>299.0</ele><time>2026-05-02T09:00:06.945Z</time></trkpt><trkpt lat="45.8298794" lon="11.839454"><ele>299.0</ele><time>2026-05-02T09:00:07.945Z</time></trkpt><trkpt lat="45.8298456" lon="11.8396334"><ele>299.0</ele><time>2026-05-02T09:00:08.945Z</time></trkpt><trkpt lat="45.829811" lon="11.8398107"><ele>298.75</ele><time>2026-05-02T09:00:09.946Z</time></trkpt><trkpt lat="45.829786" lon="11.8399895"><ele>298.5</ele><time>2026-05-02T09:00:10.946Z</time></trkpt><trkpt lat="45.8297709" lon="11.8401686"><ele>298.25</ele><time>2026-05-02T09:00:11.945Z</time></trkpt><trkpt lat="45.8297581" lon="11.8403485"><ele>298.0</ele><time>2026-05-02T09:00:12.945Z</time></trkpt><trkpt lat="45.8297507" lon="11.8405211"><ele>298.0</ele><time>2026-05-02T09:00:13.946Z</time></trkpt><trkpt lat="45.8297428" lon="11.8406898"><ele>298.0</ele><time>2026-05-02T09:00:14.945Z</time></trkpt><trkpt lat="45.8297371" lon="11.8408381"><ele>298.0</ele><time>2026-05-02T09:00:15.946Z</time></trkpt><trkpt lat="45.8297273" lon="11.8409787"><ele>298.0</ele><time>2026-05-02T09:00:16.945Z</time></trkpt><trkpt lat="45.8297141" lon="11.8411118"><ele>298.0</ele><time>2026-05-02T09:00:17.946Z</time></trkpt><trkpt lat="45.8297021" lon="11.84123"><ele>297.7142857142857</ele><time>2026-05-02T09:00:18.945Z</time></trkpt><trkpt lat="45.8296898" lon="11.8413348"><ele>297.4285714285714</ele><time>2026-05-02T09:00:19.946Z</time></trkpt><trkpt lat="45.829673" lon="11.8414306"><ele>297.1428571428571</ele><time>2026-05-02T09:00:20.945Z</time></trkpt><trkpt lat="45.829642" lon="11.841516"><ele>296.85714285714283</ele><time>2026-05-02T09:00:21.945Z</time></trkpt><trkpt lat="45.8295928" lon="11.8415856"><ele>296.57142857142856</ele><time>2026-05-02T09:00:22.945Z</time></trkpt><trkpt lat="45.8295308" lon="11.8416315"><ele>296.2857142857143</ele><time>2026-05-02T09:00:23.946Z</time></trkpt><trkpt lat="45.8294656" lon="11.8416538"><ele>296.0</ele><time>2026-05-02T09:00:24.946Z</time></trkpt><trkpt lat="45.8293981" lon="11.8416609"><ele>296.0</ele><time>2026-05-02T09:00:25.945Z</time></trkpt><trkpt lat="45.829335" lon="11.8416476"><ele>296.0</ele><time>2026-05-02T09:00:26.945Z</time></trkpt><trkpt lat="45.829234" lon="11.8415455"><ele>296.0</ele><time>2026-05-02T09:00:28.946Z</time></trkpt><trkpt lat="45.8291935" lon="11.8414594"><ele>296.0</ele><time>2026-05-02T09:00:29.946Z</time></trkpt><trkpt lat="45.8291574" lon="11.8413533"><ele>296.0</ele><time>2026-05-02T09:00:30.946Z</time></trkpt><trkpt lat="45.8291239" lon="11.8412382"><ele>296.0</ele><time>2026-05-02T09:00:31.946Z</time></trkpt><trkpt lat="45.8290967" lon="11.8411248"><ele>296.6666666666667</ele><time>2026-05-02T09:00:32.945Z</time></trkpt><trkpt lat="45.8290709" lon="11.841008"><ele>297.33333333333337</ele><time>2026-05-02T09:00:33.945Z</time></trkpt><trkpt lat="45.829044" lon="11.8408887"><ele>298.0</ele><time>2026-05-02T09:00:34.945Z</time></trkpt><trkpt lat="45.829018" lon="11.8407758"><ele>298.6666666666667</ele><time>2026-05-02T09:00:35.945Z</time></trkpt><trkpt lat="45.8289963" lon="11.840673"><ele>299.3333333333333</ele><time>2026-05-02T09:00:36.946Z</time></trkpt><trkpt lat="45.8289749" lon="11.8405704"><ele>300.0</ele><time>2026-05-02T09:00:37.946Z</time></trkpt><trkpt lat="45.8289513" lon="11.8404653"><ele>300.0</ele><time>2026-05-02T09:00:38.945Z</time></trkpt><trkpt lat="45.8289212" lon="11.8403572"><ele>300.0</ele><time>2026-05-02T09:00:39.946Z</time></trkpt><trkpt lat="45.82888" lon="11.8402375"><ele>300.0</ele><time>2026-05-02T09:00:40.945Z</time></trkpt><trkpt lat="45.8288199" lon="11.8401173"><ele>300.0</ele><time>2026-05-02T09:00:41.945Z</time></trkpt><trkpt lat="45.828732" lon="11.8400277"><ele>300.0</ele><time>2026-05-02T09:00:42.946Z</time></trkpt><trkpt lat="45.8286192" lon="11.8399843"><ele>299.75</ele><time>2026-05-02T09:00:43.946Z</time></trkpt><trkpt lat="45.8284919" lon="11.8399854"><ele>299.5</ele><time>2026-05-02T09:00:44.945Z</time></trkpt><trkpt lat="45.8283522" lon="11.8400108"><ele>299.25</ele><time>2026-05-02T09:00:45.945Z</time></trkpt><trkpt lat="45.8282037" lon="11.8400441"><ele>299.0</ele><time>2026-05-02T09:00:46.946Z</time></trkpt><trkpt lat="45.8280534" lon="11.8400782"><ele>298.75</ele><time>2026-05-02T09:00:47.945Z</time></trkpt><trkpt lat="45.8279061" lon="11.8401116"><ele>298.5</ele><time>2026-05-02T09:00:48.945Z</time></trkpt><trkpt lat="45.8277659" lon="11.8401382"><ele>298.25</ele><time>2026-05-02T09:00:49.946Z</time></trkpt><trkpt lat="45.8276492" lon="11.8401271"><ele>298.0</ele><time>2026-05-02T09:00:50.946Z</time></trkpt><trkpt lat="45.8275327" lon="11.8401045"><ele>296.8</ele><time>2026-05-02T09:00:51.946Z</time></trkpt><trkpt lat="45.8274401" lon="11.8400277"><ele>295.6</ele><time>2026-05-02T09:00:52.945Z</time></trkpt><trkpt lat="45.8273653" lon="11.8399125"><ele>294.4</ele><time>2026-05-02T09:00:53.945Z</time></trkpt><trkpt lat="45.827319" lon="11.8397589"><ele>293.2</ele><time>2026-05-02T09:00:54.946Z</time></trkpt><trkpt lat="45.827279" lon="11.8396104"><ele>292.0</ele><time>2026-05-02T09:00:55.946Z</time></trkpt><trkpt lat="45.8272487" lon="11.8394781"><ele>292.0</ele><time>2026-05-02T09:00:56.947Z</time></trkpt><trkpt lat="45.8272231" lon="11.8393585"><ele>292.0</ele><time>2026-05-02T09:00:57.946Z</time></trkpt><trkpt lat="45.827203" lon="11.8392633"><ele>292.0</ele><time>2026-05-02T09:00:58.947Z</time></trkpt><trkpt lat="45.8271745" lon="11.839134"><ele>292.0</ele><time>2026-05-02T09:01:00.947Z</time></trkpt><trkpt lat="45.8271473" lon="11.8390257"><ele>292.0</ele><time>2026-05-02T09:01:03.947Z</time></trkpt><trkpt lat="45.8271238" lon="11.83894"><ele>292.0</ele><time>2026-05-02T09:01:07.947Z</time></trkpt><trkpt lat="45.8270993" lon="11.8388078"><ele>292.2</ele><time>2026-05-02T09:01:37.946Z</time></trkpt><trkpt lat="45.8270703" lon="11.8386647"><ele>292.4</ele><time>2026-05-02T09:01:39.946Z</time></trkpt><trkpt lat="45.8270406" lon="11.8385249"><ele>292.6</ele><time>2026-05-02T09:01:41.947Z</time></trkpt><trkpt lat="45.8270022" lon="11.8383471"><ele>292.8</ele><time>2026-05-02T09:01:43.946Z</time></trkpt><trkpt lat="45.8269796" lon="11.8382407"><ele>293.0</ele><time>2026-05-02T09:01:44.947Z</time></trkpt><trkpt lat="45.8269543" lon="11.8381324"><ele>292.83333333333337</ele><time>2026-05-02T09:01:45.947Z</time></trkpt><trkpt lat="45.8269298" lon="11.838028"><ele>292.6666666666667</ele><time>2026-05-02T09:01:46.946Z</time></trkpt><trkpt lat="45.8269077" lon="11.8379285"><ele>292.5</ele><time>2026-05-02T09:01:47.948Z</time></trkpt><trkpt lat="45.8268888" lon="11.8378255"><ele>292.3333333333333</ele><time>2026-05-02T09:01:48.947Z</time></trkpt><trkpt lat="45.8268694" lon="11.8377203"><ele>292.16666666666663</ele><time>2026-05-02T09:01:49.946Z</time></trkpt><trkpt lat="45.8268495" lon="11.8376163"><ele>292.0</ele><time>2026-05-02T09:01:50.947Z</time></trkpt><trkpt lat="45.8268293" lon="11.8375112"><ele>290.8333333333333</ele><time>2026-05-02T09:01:51.948Z</time></trkpt><trkpt lat="45.826807" lon="11.8374022"><ele>289.66666666666663</ele><time>2026-05-02T09:01:52.947Z</time></trkpt><trkpt lat="45.8267838" lon="11.8372907"><ele>288.5</ele><time>2026-05-02T09:01:53.947Z</time></trkpt><trkpt lat="45.8267591" lon="11.8371734"><ele>287.3333333333333</ele><time>2026-05-02T09:01:54.947Z</time></trkpt><trkpt lat="45.8267323" lon="11.8370503"><ele>286.1666666666667</ele><time>2026-05-02T09:01:55.947Z</time></trkpt><trkpt lat="45.8267046" lon="11.8369232"><ele>285.0</ele><time>2026-05-02T09:01:56.947Z</time></trkpt><trkpt lat="45.8266774" lon="11.8367902"><ele>285.0</ele><time>2026-05-02T09:01:57.948Z</time></trkpt><trkpt lat="45.8266484" lon="11.8366579"><ele>285.0</ele><time>2026-05-02T09:01:58.948Z</time></trkpt><trkpt lat="45.826621" lon="11.8365257"><ele>285.0</ele><time>2026-05-02T09:01:59.947Z</time></trkpt><trkpt lat="45.8265926" lon="11.8363901"><ele>285.0</ele><time>2026-05-02T09:02:00.947Z</time></trkpt><trkpt lat="45.8265661" lon="11.8362651"><ele>285.0</ele><time>2026-05-02T09:02:01.948Z</time></trkpt><trkpt lat="45.8265378" lon="11.8361522"><ele>285.0</ele><time>2026-05-02T09:02:02.947Z</time></trkpt><trkpt lat="45.8265075" lon="11.8360303"><ele>285.0</ele><time>2026-05-02T09:02:03.947Z</time></trkpt><trkpt lat="45.8264694" lon="11.8358968"><ele>285.0</ele><time>2026-05-02T09:02:04.948Z</time></trkpt><trkpt lat="45.8264187" lon="11.8357645"><ele>285.0</ele><time>2026-05-02T09:02:05.947Z</time></trkpt><trkpt lat="45.8263589" lon="11.8356526"><ele>285.0</ele><time>2026-05-02T09:02:06.947Z</time></trkpt><trkpt lat="45.8262904" lon="11.8355565"><ele>285.2</ele><time>2026-05-02T09:02:07.948Z</time></trkpt><trkpt lat="45.8262137" lon="11.8354656"><ele>285.4</ele><time>2026-05-02T09:02:08.948Z</time></trkpt><trkpt lat="45.8261313" lon="11.8353739"><ele>285.6</ele><time>2026-05-02T09:02:09.948Z</time></trkpt><trkpt lat="45.8260448" lon="11.8352794"><ele>285.8</ele><time>2026-05-02T09:02:10.947Z</time></trkpt><trkpt lat="45.8259548" lon="11.8351822"><ele>286.0</ele><time>2026-05-02T09:02:11.948Z</time></trkpt><trkpt lat="45.8258621" lon="11.8350838"><ele>285.25</ele><time>2026-05-02T09:02:12.948Z</time></trkpt><trkpt lat="45.8257666" lon="11.834984"><ele>284.5</ele><time>2026-05-02T09:02:13.947Z</time></trkpt><trkpt lat="45.8256706" lon="11.8348816"><ele>283.75</ele><time>2026-05-02T09:02:14.948Z</time></trkpt><trkpt lat="45.8255762" lon="11.8347851"><ele>283.0</ele><time>2026-05-02T09:02:15.948Z</time></trkpt><trkpt lat="45.8254914" lon="11.8346952"><ele>283.0</ele><time>2026-05-02T09:02:16.948Z</time></trkpt><trkpt lat="45.8254092" lon="11.8346062"><ele>283.0</ele><time>2026-05-02T09:02:17.948Z</time></trkpt><trkpt lat="45.825323" lon="11.8345133"><ele>283.0</ele><time>2026-05-02T09:02:18.947Z</time></trkpt><trkpt lat="45.825236" lon="11.8344197"><ele>283.0</ele><time>2026-05-02T09:02:19.948Z</time></trkpt><trkpt lat="45.8251399" lon="11.8343166"><ele>283.0</ele><time>2026-05-02T09:02:20.948Z</time></trkpt><trkpt lat="45.825045" lon="11.8342112"><ele>281.75</ele><time>2026-05-02T09:02:21.947Z</time></trkpt><trkpt lat="45.8249483" lon="11.8341048"><ele>280.5</ele><time>2026-05-02T09:02:22.948Z</time></trkpt><trkpt lat="45.8248498" lon="11.8340009"><ele>279.25</ele><time>2026-05-02T09:02:23.948Z</time></trkpt><trkpt lat="45.82475" lon="11.8338933"><ele>278.0</ele><time>2026-05-02T09:02:24.947Z</time></trkpt><trkpt lat="45.8246501" lon="11.8337828"><ele>278.0</ele><time>2026-05-02T09:02:25.947Z</time></trkpt><trkpt lat="45.824549" lon="11.8336729"><ele>278.0</ele><time>2026-05-02T09:02:26.947Z</time></trkpt><trkpt lat="45.8244481" lon="11.8335639"><ele>278.0</ele><time>2026-05-02T09:02:27.948Z</time></trkpt><trkpt lat="45.8243471" lon="11.8334574"><ele>278.0</ele><time>2026-05-02T09:02:28.948Z</time></trkpt><trkpt lat="45.8242534" lon="11.8333585"><ele>277.0</ele><time>2026-05-02T09:02:29.947Z</time></trkpt><trkpt lat="45.8241623" lon="11.8332663"><ele>276.0</ele><time>2026-05-02T09:02:30.947Z</time></trkpt><trkpt lat="45.8240768" lon="11.8331739"><ele>275.0</ele><time>2026-05-02T09:02:31.947Z</time></trkpt><trkpt lat="45.8239982" lon="11.8330895"><ele>274.0</ele><time>2026-05-02T09:02:32.948Z</time></trkpt><trkpt lat="45.8239201" lon="11.8330048"><ele>273.0</ele><time>2026-05-02T09:02:33.948Z</time></trkpt><trkpt lat="45.8238388" lon="11.8329143"><ele>273.0</ele><time>2026-05-02T09:02:34.948Z</time></trkpt><trkpt lat="45.8237547" lon="11.8328099"><ele>273.0</ele><time>2026-05-02T09:02:35.947Z</time></trkpt><trkpt lat="45.8236692" lon="11.8326955"><ele>273.0</ele><time>2026-05-02T09:02:36.947Z</time></trkpt><trkpt lat="45.8235847" lon="11.8325714"><ele>273.0</ele><time>2026-05-02T09:02:37.948Z</time></trkpt><trkpt lat="45.8235031" lon="11.8324388"><ele>272.25</ele><time>2026-05-02T09:02:38.948Z</time></trkpt><trkpt lat="45.8234246" lon="11.832302"><ele>271.5</ele><time>2026-05-02T09:02:39.948Z</time></trkpt><trkpt lat="45.8233475" lon="11.8321619"><ele>270.75</ele><time>2026-05-02T09:02:40.948Z</time></trkpt><trkpt lat="45.8232706" lon="11.8320224"><ele>270.0</ele><time>2026-05-02T09:02:41.947Z</time></trkpt><trkpt lat="45.823196" lon="11.8318843"><ele>270.0</ele><time>2026-05-02T09:02:42.948Z</time></trkpt><trkpt lat="45.8231234" lon="11.831747"><ele>270.0</ele><time>2026-05-02T09:02:43.947Z</time></trkpt><trkpt lat="45.8230516" lon="11.8316117"><ele>270.0</ele><time>2026-05-02T09:02:44.948Z</time></trkpt><trkpt lat="45.82298" lon="11.8314799"><ele>270.0</ele><time>2026-05-02T09:02:45.948Z</time></trkpt><trkpt lat="45.8229099" lon="11.8313501"><ele>270.0</ele><time>2026-05-02T09:02:46.949Z</time></trkpt><trkpt lat="45.822842" lon="11.8312218"><ele>270.0</ele><time>2026-05-02T09:02:47.948Z</time></trkpt><trkpt lat="45.8227754" lon="11.8310957"><ele>270.0</ele><time>2026-05-02T09:02:48.948Z</time></trkpt><trkpt lat="45.8227065" lon="11.8309676"><ele>270.0</ele><time>2026-05-02T09:02:49.948Z</time></trkpt><trkpt lat="45.8226376" lon="11.8308397"><ele>270.0</ele><time>2026-05-02T09:02:50.948Z</time></trkpt><trkpt lat="45.8225693" lon="11.8307129"><ele>269.0</ele><time>2026-05-02T09:02:51.949Z</time></trkpt><trkpt lat="45.8225044" lon="11.8305907"><ele>268.0</ele><time>2026-05-02T09:02:52.949Z</time></trkpt><trkpt lat="45.8224421" lon="11.8304771"><ele>267.0</ele><time>2026-05-02T09:02:53.949Z</time></trkpt><trkpt lat="45.822382" lon="11.830365"><ele>266.0</ele><time>2026-05-02T09:02:54.948Z</time></trkpt><trkpt lat="45.8223228" lon="11.8302526"><ele>265.0</ele><time>2026-05-02T09:02:55.948Z</time></trkpt><trkpt lat="45.8222659" lon="11.8301487"><ele>264.8333333333333</ele><time>2026-05-02T09:02:56.948Z</time></trkpt><trkpt lat="45.8222135" lon="11.8300545"><ele>264.66666666666663</ele><time>2026-05-02T09:02:57.948Z</time></trkpt><trkpt lat="45.8221681" lon="11.8299694"><ele>264.5</ele><time>2026-05-02T09:02:58.948Z</time></trkpt><trkpt lat="45.8221276" lon="11.8298935"><ele>264.3333333333333</ele><time>2026-05-02T09:02:59.949Z</time></trkpt><trkpt lat="45.8220571" lon="11.8297805"><ele>264.1666666666667</ele><time>2026-05-02T09:03:01.949Z</time></trkpt><trkpt lat="45.8219894" lon="11.8296863"><ele>264.0</ele><time>2026-05-02T09:03:03.948Z</time></trkpt><trkpt lat="45.8219175" lon="11.829524"><ele>264.0</ele><time>2026-05-02T09:03:05.948Z</time></trkpt><trkpt lat="45.8218938" lon="11.8294042"><ele>264.0</ele><time>2026-05-02T09:03:06.949Z</time></trkpt><trkpt lat="45.8218702" lon="11.8292766"><ele>264.0</ele><time>2026-05-02T09:03:07.949Z</time></trkpt><trkpt lat="45.8218391" lon="11.8291382"><ele>264.0</ele><time>2026-05-02T09:03:08.948Z</time></trkpt><trkpt lat="45.8218048" lon="11.8289901"><ele>264.0</ele><time>2026-05-02T09:03:09.948Z</time></trkpt><trkpt lat="45.8217666" lon="11.8288347"><ele>263.0</ele><time>2026-05-02T09:03:10.949Z</time></trkpt><trkpt lat="45.8217259" lon="11.8286741"><ele>262.0</ele><time>2026-05-02T09:03:11.948Z</time></trkpt><trkpt lat="45.8216844" lon="11.8285109"><ele>261.0</ele><time>2026-05-02T09:03:12.949Z</time></trkpt><trkpt lat="45.8216414" lon="11.828345"><ele>260.0</ele><time>2026-05-02T09:03:13.949Z</time></trkpt><trkpt lat="45.8215978" lon="11.8281769"><ele>260.0</ele><time>2026-05-02T09:03:14.948Z</time></trkpt><trkpt lat="45.8215549" lon="11.8280061"><ele>260.0</ele><time>2026-05-02T09:03:15.949Z</time></trkpt><trkpt lat="45.821511" lon="11.827831"><ele>260.0</ele><time>2026-05-02T09:03:16.948Z</time></trkpt><trkpt lat="45.8214651" lon="11.8276508"><ele>260.0</ele><time>2026-05-02T09:03:17.949Z</time></trkpt><trkpt lat="45.8214179" lon="11.8274689"><ele>259.75</ele><time>2026-05-02T09:03:18.948Z</time></trkpt><trkpt lat="45.8213728" lon="11.8272931"><ele>259.5</ele><time>2026-05-02T09:03:19.948Z</time></trkpt><trkpt lat="45.8213287" lon="11.8271285"><ele>259.25</ele><time>2026-05-02T09:03:20.948Z</time></trkpt><trkpt lat="45.8212868" lon="11.8269732"><ele>259.0</ele><time>2026-05-02T09:03:21.949Z</time></trkpt><trkpt lat="45.8212494" lon="11.8268274"><ele>258.5</ele><time>2026-05-02T09:03:22.949Z</time></trkpt><trkpt lat="45.8212155" lon="11.8266839"><ele>258.0</ele><time>2026-05-02T09:03:23.948Z</time></trkpt><trkpt lat="45.8211801" lon="11.8265355"><ele>257.5</ele><time>2026-05-02T09:03:24.949Z</time></trkpt><trkpt lat="45.8211398" lon="11.8263799"><ele>257.0</ele><time>2026-05-02T09:03:25.949Z</time></trkpt><trkpt lat="45.821097" lon="11.8262159"><ele>257.0</ele><time>2026-05-02T09:03:26.949Z</time></trkpt><trkpt lat="45.8210543" lon="11.8260449"><ele>257.0</ele><time>2026-05-02T09:03:27.948Z</time></trkpt><trkpt lat="45.8210131" lon="11.8258706"><ele>257.0</ele><time>2026-05-02T09:03:28.949Z</time></trkpt><trkpt lat="45.8209731" lon="11.8256946"><ele>257.0</ele><time>2026-05-02T09:03:29.948Z</time></trkpt><trkpt lat="45.8209342" lon="11.8255188"><ele>255.75</ele><time>2026-05-02T09:03:30.949Z</time></trkpt><trkpt lat="45.8208964" lon="11.8253417"><ele>254.5</ele><time>2026-05-02T09:03:31.949Z</time></trkpt><trkpt lat="45.8208589" lon="11.825162"><ele>253.25</ele><time>2026-05-02T09:03:32.949Z</time></trkpt><trkpt lat="45.8208203" lon="11.8249812"><ele>252.0</ele><time>2026-05-02T09:03:33.948Z</time></trkpt><trkpt lat="45.8207809" lon="11.8248007"><ele>251.5</ele><time>2026-05-02T09:03:34.948Z</time></trkpt><trkpt lat="45.8207412" lon="11.8246194"><ele>251.0</ele><time>2026-05-02T09:03:35.949Z</time></trkpt><trkpt lat="45.820703" lon="11.8244462"><ele>250.5</ele><time>2026-05-02T09:03:36.949Z</time></trkpt><trkpt lat="45.8206675" lon="11.8242828"><ele>250.0</ele><time>2026-05-02T09:03:37.948Z</time></trkpt><trkpt lat="45.8206334" lon="11.8241293"><ele>250.0</ele><time>2026-05-02T09:03:38.949Z</time></trkpt><trkpt lat="45.8205997" lon="11.823979"><ele>250.0</ele><time>2026-05-02T09:03:39.948Z</time></trkpt><trkpt lat="45.8205657" lon="11.8238235"><ele>250.0</ele><time>2026-05-02T09:03:40.948Z</time></trkpt><trkpt lat="45.8205313" lon="11.8236604"><ele>250.0</ele><time>2026-05-02T09:03:41.949Z</time></trkpt><trkpt lat="45.8204947" lon="11.8234928"><ele>250.0</ele><time>2026-05-02T09:03:42.949Z</time></trkpt><trkpt lat="45.8204569" lon="11.8233211"><ele>250.0</ele><time>2026-05-02T09:03:43.949Z</time></trkpt><trkpt lat="45.8204198" lon="11.8231465"><ele>250.0</ele><time>2026-05-02T09:03:44.949Z</time></trkpt><trkpt lat="45.820384" lon="11.8229719"><ele>250.0</ele><time>2026-05-02T09:03:45.949Z</time></trkpt><trkpt lat="45.820349" lon="11.822807"><ele>250.0</ele><time>2026-05-02T09:03:46.95Z</time></trkpt><trkpt lat="45.820313" lon="11.822656"><ele>250.0</ele><time>2026-05-02T09:03:47.95Z</time></trkpt><trkpt lat="45.8202793" lon="11.822514"><ele>250.0</ele><time>2026-05-02T09:03:48.95Z</time></trkpt><trkpt lat="45.8202466" lon="11.8223697"><ele>250.0</ele><time>2026-05-02T09:03:49.95Z</time></trkpt><trkpt lat="45.8202117" lon="11.8222207"><ele>250.0</ele><time>2026-05-02T09:03:50.95Z</time></trkpt><trkpt lat="45.8201782" lon="11.8220638"><ele>248.75</ele><time>2026-05-02T09:03:51.949Z</time></trkpt><trkpt lat="45.820143" lon="11.8219034"><ele>247.5</ele><time>2026-05-02T09:03:52.95Z</time></trkpt><trkpt lat="45.8201081" lon="11.8217373"><ele>246.25</ele><time>2026-05-02T09:03:53.95Z</time></trkpt><trkpt lat="45.8200763" lon="11.821576"><ele>245.0</ele><time>2026-05-02T09:03:54.95Z</time></trkpt><trkpt lat="45.8200463" lon="11.8214026"><ele>245.0</ele><time>2026-05-02T09:03:55.949Z</time></trkpt><trkpt lat="45.8200148" lon="11.8212225"><ele>245.0</ele><time>2026-05-02T09:03:56.949Z</time></trkpt><trkpt lat="45.8199832" lon="11.8210398"><ele>245.0</ele><time>2026-05-02T09:03:57.949Z</time></trkpt><trkpt lat="45.8199524" lon="11.8208615"><ele>245.0</ele><time>2026-05-02T09:03:58.95Z</time></trkpt><trkpt lat="45.8199203" lon="11.8206827"><ele>244.5</ele><time>2026-05-02T09:03:59.949Z</time></trkpt><trkpt lat="45.8198883" lon="11.8205028"><ele>244.0</ele><time>2026-05-02T09:04:00.95Z</time></trkpt><trkpt lat="45.8198587" lon="11.8203263"><ele>243.5</ele><time>2026-05-02T09:04:01.95Z</time></trkpt><trkpt lat="45.8198345" lon="11.8201459"><ele>243.0</ele><time>2026-05-02T09:04:02.949Z</time></trkpt><trkpt lat="45.8198099" lon="11.8199619"><ele>242.25</ele><time>2026-05-02T09:04:03.95Z</time></trkpt><trkpt lat="45.8197773" lon="11.8197701"><ele>241.5</ele><time>2026-05-02T09:04:04.949Z</time></trkpt><trkpt lat="45.8197316" lon="11.8195843"><ele>240.75</ele><time>2026-05-02T09:04:05.949Z</time></trkpt><trkpt lat="45.8196709" lon="11.8194036"><ele>240.0</ele><time>2026-05-02T09:04:06.95Z</time></trkpt><trkpt lat="45.8196059" lon="11.819223"><ele>239.25</ele><time>2026-05-02T09:04:07.949Z</time></trkpt><trkpt lat="45.819528" lon="11.8190477"><ele>238.5</ele><time>2026-05-02T09:04:08.949Z</time></trkpt><trkpt lat="45.8194531" lon="11.8188831"><ele>237.75</ele><time>2026-05-02T09:04:09.95Z</time></trkpt><trkpt lat="45.8193851" lon="11.8187293"><ele>237.0</ele><time>2026-05-02T09:04:10.95Z</time></trkpt><trkpt lat="45.8193228" lon="11.818581"><ele>235.75</ele><time>2026-05-02T09:04:11.95Z</time></trkpt><trkpt lat="45.8192637" lon="11.8184365"><ele>234.5</ele><time>2026-05-02T09:04:12.95Z</time></trkpt><trkpt lat="45.8192053" lon="11.8182913"><ele>233.25</ele><time>2026-05-02T09:04:13.949Z</time></trkpt><trkpt lat="45.8191443" lon="11.818143"><ele>232.0</ele><time>2026-05-02T09:04:14.949Z</time></trkpt><trkpt lat="45.8190847" lon="11.8179983"><ele>232.0</ele><time>2026-05-02T09:04:15.949Z</time></trkpt><trkpt lat="45.8190276" lon="11.8178581"><ele>232.0</ele><time>2026-05-02T09:04:16.949Z</time></trkpt><trkpt lat="45.8189722" lon="11.8177234"><ele>232.0</ele><time>2026-05-02T09:04:17.95Z</time></trkpt><trkpt lat="45.818922" lon="11.8176038"><ele>232.0</ele><time>2026-05-02T09:04:18.95Z</time></trkpt><trkpt lat="45.8188761" lon="11.8174914"><ele>232.0</ele><time>2026-05-02T09:04:19.949Z</time></trkpt><trkpt lat="45.8188309" lon="11.8173788"><ele>231.6</ele><time>2026-05-02T09:04:20.95Z</time></trkpt><trkpt lat="45.8187848" lon="11.8172604"><ele>231.2</ele><time>2026-05-02T09:04:21.95Z</time></trkpt><trkpt lat="45.818735" lon="11.8171331"><ele>230.8</ele><time>2026-05-02T09:04:22.949Z</time></trkpt><trkpt lat="45.8186795" lon="11.8169975"><ele>230.4</ele><time>2026-05-02T09:04:23.949Z</time></trkpt><trkpt lat="45.8186212" lon="11.8168541"><ele>230.0</ele><time>2026-05-02T09:04:24.949Z</time></trkpt><trkpt lat="45.8185618" lon="11.8167073"><ele>229.25</ele><time>2026-05-02T09:04:25.95Z</time></trkpt><trkpt lat="45.8185003" lon="11.8165565"><ele>228.5</ele><time>2026-05-02T09:04:26.95Z</time></trkpt><trkpt lat="45.8184368" lon="11.8164031"><ele>227.75</ele><time>2026-05-02T09:04:27.95Z</time></trkpt><trkpt lat="45.8183734" lon="11.8162469"><ele>227.0</ele><time>2026-05-02T09:04:28.95Z</time></trkpt><trkpt lat="45.818311" lon="11.8160861"><ele>225.5</ele><time>2026-05-02T09:04:29.95Z</time></trkpt><trkpt lat="45.8182528" lon="11.8159228"><ele>224.0</ele><time>2026-05-02T09:04:30.95Z</time></trkpt><trkpt lat="45.8182014" lon="11.8157571"><ele>222.5</ele><time>2026-05-02T09:04:31.95Z</time></trkpt><trkpt lat="45.8181576" lon="11.8155863"><ele>221.0</ele><time>2026-05-02T09:04:32.95Z</time></trkpt><trkpt lat="45.8181186" lon="11.8154118"><ele>221.0</ele><time>2026-05-02T09:04:33.949Z</time></trkpt><trkpt lat="45.8180798" lon="11.8152366"><ele>221.0</ele><time>2026-05-02T09:04:34.949Z</time></trkpt><trkpt lat="45.8180377" lon="11.8150597"><ele>221.0</ele><time>2026-05-02T09:04:35.95Z</time></trkpt><trkpt lat="45.8179953" lon="11.8148808"><ele>221.0</ele><time>2026-05-02T09:04:36.95Z</time></trkpt><trkpt lat="45.8179517" lon="11.814695"><ele>221.0</ele><time>2026-05-02T09:04:37.949Z</time></trkpt><trkpt lat="45.8179059" lon="11.8144997"><ele>221.0</ele><time>2026-05-02T09:04:38.949Z</time></trkpt><trkpt lat="45.8178589" lon="11.8142994"><ele>221.0</ele><time>2026-05-02T09:04:39.949Z</time></trkpt><trkpt lat="45.8178111" lon="11.8140956"><ele>221.0</ele><time>2026-05-02T09:04:40.949Z</time></trkpt><trkpt lat="45.8177632" lon="11.8138879"><ele>221.33333333333334</ele><time>2026-05-02T09:04:41.949Z</time></trkpt><trkpt lat="45.8177146" lon="11.8136765"><ele>221.66666666666669</ele><time>2026-05-02T09:04:42.95Z</time></trkpt><trkpt lat="45.8176659" lon="11.8134647"><ele>222.0</ele><time>2026-05-02T09:04:43.951Z</time></trkpt><trkpt lat="45.8176173" lon="11.813255"><ele>219.33333333333331</ele><time>2026-05-02T09:04:44.951Z</time></trkpt><trkpt lat="45.8175693" lon="11.8130462"><ele>216.66666666666666</ele><time>2026-05-02T09:04:45.95Z</time></trkpt><trkpt lat="45.8175219" lon="11.8128384"><ele>214.0</ele><time>2026-05-02T09:04:46.95Z</time></trkpt><trkpt lat="45.8174749" lon="11.8126326"><ele>214.0</ele><time>2026-05-02T09:04:47.95Z</time></trkpt><trkpt lat="45.8174261" lon="11.8124286"><ele>214.0</ele><time>2026-05-02T09:04:48.951Z</time></trkpt><trkpt lat="45.8173791" lon="11.8122255"><ele>214.0</ele><time>2026-05-02T09:04:49.95Z</time></trkpt><trkpt lat="45.8173325" lon="11.8120247"><ele>214.0</ele><time>2026-05-02T09:04:50.951Z</time></trkpt><trkpt lat="45.8172871" lon="11.8118265"><ele>214.25</ele><time>2026-05-02T09:04:51.95Z</time></trkpt><trkpt lat="45.8172442" lon="11.811638"><ele>214.5</ele><time>2026-05-02T09:04:52.951Z</time></trkpt><trkpt lat="45.8172033" lon="11.8114582"><ele>214.75</ele><time>2026-05-02T09:04:53.95Z</time></trkpt><trkpt lat="45.817163" lon="11.8112781"><ele>215.0</ele><time>2026-05-02T09:04:54.951Z</time></trkpt><trkpt lat="45.8171204" lon="11.8110935"><ele>215.0</ele><time>2026-05-02T09:04:55.95Z</time></trkpt><trkpt lat="45.8170759" lon="11.8109045"><ele>215.0</ele><time>2026-05-02T09:04:56.951Z</time></trkpt><trkpt lat="45.8170313" lon="11.810713"><ele>215.0</ele><time>2026-05-02T09:04:57.951Z</time></trkpt><trkpt lat="45.8169874" lon="11.8105219"><ele>215.0</ele><time>2026-05-02T09:04:58.951Z</time></trkpt><trkpt lat="45.8169432" lon="11.8103326"><ele>215.5</ele><time>2026-05-02T09:04:59.951Z</time></trkpt><trkpt lat="45.8168992" lon="11.8101464"><ele>216.0</ele><time>2026-05-02T09:05:00.95Z</time></trkpt><trkpt lat="45.8168556" lon="11.8099601"><ele>216.5</ele><time>2026-05-02T09:05:01.951Z</time></trkpt><trkpt lat="45.8168123" lon="11.8097724"><ele>217.0</ele><time>2026-05-02T09:05:02.951Z</time></trkpt><trkpt lat="45.8167726" lon="11.8095807"><ele>215.25</ele><time>2026-05-02T09:05:03.95Z</time></trkpt><trkpt lat="45.8167298" lon="11.8093918"><ele>213.5</ele><time>2026-05-02T09:05:04.95Z</time></trkpt><trkpt lat="45.8166869" lon="11.8092033"><ele>211.75</ele><time>2026-05-02T09:05:05.951Z</time></trkpt><trkpt lat="45.8166435" lon="11.8090145"><ele>210.0</ele><time>2026-05-02T09:05:06.95Z</time></trkpt><trkpt lat="45.8165997" lon="11.808826"><ele>210.0</ele><time>2026-05-02T09:05:07.951Z</time></trkpt><trkpt lat="45.8165564" lon="11.8086367"><ele>210.0</ele><time>2026-05-02T09:05:08.95Z</time></trkpt><trkpt lat="45.8165161" lon="11.8084532"><ele>210.0</ele><time>2026-05-02T09:05:09.95Z</time></trkpt><trkpt lat="45.8164772" lon="11.8082802"><ele>210.0</ele><time>2026-05-02T09:05:10.95Z</time></trkpt><trkpt lat="45.8164399" lon="11.8081169"><ele>209.8</ele><time>2026-05-02T09:05:11.95Z</time></trkpt><trkpt lat="45.8164044" lon="11.8079578"><ele>209.6</ele><time>2026-05-02T09:05:12.951Z</time></trkpt><trkpt lat="45.8163699" lon="11.8077988"><ele>209.39999999999998</ele><time>2026-05-02T09:05:13.951Z</time></trkpt><trkpt lat="45.8163366" lon="11.8076493"><ele>209.2</ele><time>2026-05-02T09:05:14.95Z</time></trkpt><trkpt lat="45.8163057" lon="11.8075124"><ele>209.0</ele><time>2026-05-02T09:05:15.95Z</time></trkpt><trkpt lat="45.8162769" lon="11.8073863"><ele>209.00000000000003</ele><time>2026-05-02T09:05:16.951Z</time></trkpt><trkpt lat="45.8162479" lon="11.807266"><ele>209.0</ele><time>2026-05-02T09:05:17.95Z</time></trkpt><trkpt lat="45.8162177" lon="11.8071468"><ele>209.0</ele><time>2026-05-02T09:05:18.951Z</time></trkpt><trkpt lat="45.8161878" lon="11.8070351"><ele>209.0</ele><time>2026-05-02T09:05:19.951Z</time></trkpt><trkpt lat="45.8161594" lon="11.806935"><ele>209.00000000000003</ele><time>2026-05-02T09:05:20.951Z</time></trkpt><trkpt lat="45.816134" lon="11.8068387"><ele>209.0</ele><time>2026-05-02T09:05:21.951Z</time></trkpt><trkpt lat="45.8161157" lon="11.8067342"><ele>208.79999999999998</ele><time>2026-05-02T09:05:22.951Z</time></trkpt><trkpt lat="45.8161044" lon="11.8066187"><ele>208.6</ele><time>2026-05-02T09:05:23.951Z</time></trkpt><trkpt lat="45.8160874" lon="11.8064982"><ele>208.4</ele><time>2026-05-02T09:05:24.95Z</time></trkpt><trkpt lat="45.8160571" lon="11.8063739"><ele>208.2</ele><time>2026-05-02T09:05:25.951Z</time></trkpt><trkpt lat="45.8160254" lon="11.8062398"><ele>208.0</ele><time>2026-05-02T09:05:26.95Z</time></trkpt><trkpt lat="45.8160018" lon="11.8060888"><ele>206.0</ele><time>2026-05-02T09:05:27.951Z</time></trkpt><trkpt lat="45.8159852" lon="11.8059263"><ele>204.0</ele><time>2026-05-02T09:05:28.95Z</time></trkpt><trkpt lat="45.8159698" lon="11.805761"><ele>202.0</ele><time>2026-05-02T09:05:29.951Z</time></trkpt><trkpt lat="45.815952" lon="11.8055872"><ele>200.0</ele><time>2026-05-02T09:05:30.951Z</time></trkpt><trkpt lat="45.8159337" lon="11.80542"><ele>200.0</ele><time>2026-05-02T09:05:31.951Z</time></trkpt><trkpt lat="45.8159162" lon="11.805234"><ele>200.0</ele><time>2026-05-02T09:05:32.95Z</time></trkpt><trkpt lat="45.8158982" lon="11.8050425"><ele>200.0</ele><time>2026-05-02T09:05:33.951Z</time></trkpt><trkpt lat="45.8158799" lon="11.8048492"><ele>200.0</ele><time>2026-05-02T09:05:34.95Z</time></trkpt><trkpt lat="45.8158623" lon="11.8046534"><ele>199.5</ele><time>2026-05-02T09:05:35.95Z</time></trkpt><trkpt lat="45.815844" lon="11.8044527"><ele>199.0</ele><time>2026-05-02T09:05:36.95Z</time></trkpt><trkpt lat="45.8158255" lon="11.8042477"><ele>198.5</ele><time>2026-05-02T09:05:37.95Z</time></trkpt><trkpt lat="45.8158049" lon="11.8040396"><ele>198.0</ele><time>2026-05-02T09:05:38.952Z</time></trkpt><trkpt lat="45.815783" lon="11.8038269"><ele>198.0</ele><time>2026-05-02T09:05:39.95Z</time></trkpt><trkpt lat="45.8157608" lon="11.8036137"><ele>198.0</ele><time>2026-05-02T09:05:40.95Z</time></trkpt><trkpt lat="45.8157393" lon="11.8034004"><ele>198.0</ele><time>2026-05-02T09:05:41.952Z</time></trkpt><trkpt lat="45.8157182" lon="11.8031927"><ele>198.0</ele><time>2026-05-02T09:05:42.951Z</time></trkpt><trkpt lat="45.8156984" lon="11.8029978"><ele>198.5</ele><time>2026-05-02T09:05:43.951Z</time></trkpt><trkpt lat="45.8156802" lon="11.8028132"><ele>199.0</ele><time>2026-05-02T09:05:44.951Z</time></trkpt><trkpt lat="45.8156627" lon="11.8026294"><ele>199.5</ele><time>2026-05-02T09:05:45.951Z</time></trkpt><trkpt lat="45.8156457" lon="11.8024414"><ele>200.0</ele><time>2026-05-02T09:05:46.952Z</time></trkpt><trkpt lat="45.8156288" lon="11.8022503"><ele>200.0</ele><time>2026-05-02T09:05:47.952Z</time></trkpt><trkpt lat="45.8156109" lon="11.802057"><ele>200.0</ele><time>2026-05-02T09:05:48.951Z</time></trkpt><trkpt lat="45.8155927" lon="11.8018608"><ele>200.0</ele><time>2026-05-02T09:05:49.952Z</time></trkpt><trkpt lat="45.815574" lon="11.8016615"><ele>200.0</ele><time>2026-05-02T09:05:50.952Z</time></trkpt><trkpt lat="45.8155539" lon="11.8014603"><ele>199.5</ele><time>2026-05-02T09:05:51.952Z</time></trkpt><trkpt lat="45.8155334" lon="11.8012577"><ele>199.0</ele><time>2026-05-02T09:05:52.951Z</time></trkpt><trkpt lat="45.8155133" lon="11.8010523"><ele>198.5</ele><time>2026-05-02T09:05:53.951Z</time></trkpt><trkpt lat="45.8154941" lon="11.8008438"><ele>198.0</ele><time>2026-05-02T09:05:54.952Z</time></trkpt><trkpt lat="45.8154756" lon="11.8006376"><ele>197.75</ele><time>2026-05-02T09:05:55.951Z</time></trkpt><trkpt lat="45.8154597" lon="11.8004398"><ele>197.5</ele><time>2026-05-02T09:05:56.951Z</time></trkpt><trkpt lat="45.8154481" lon="11.8002425"><ele>197.25</ele><time>2026-05-02T09:05:57.951Z</time></trkpt><trkpt lat="45.8154405" lon="11.8000385"><ele>197.0</ele><time>2026-05-02T09:05:58.951Z</time></trkpt><trkpt lat="45.8154366" lon="11.7998293"><ele>196.25</ele><time>2026-05-02T09:05:59.952Z</time></trkpt><trkpt lat="45.8154357" lon="11.7996172"><ele>195.5</ele><time>2026-05-02T09:06:00.951Z</time></trkpt><trkpt lat="45.8154353" lon="11.7994118"><ele>194.75</ele><time>2026-05-02T09:06:01.951Z</time></trkpt><trkpt lat="45.8154368" lon="11.7992166"><ele>194.0</ele><time>2026-05-02T09:06:02.951Z</time></trkpt><trkpt lat="45.8154392" lon="11.7990318"><ele>193.75</ele><time>2026-05-02T09:06:03.951Z</time></trkpt><trkpt lat="45.8154401" lon="11.7988521"><ele>193.5</ele><time>2026-05-02T09:06:04.951Z</time></trkpt><trkpt lat="45.81544" lon="11.7986713"><ele>193.25</ele><time>2026-05-02T09:06:05.951Z</time></trkpt><trkpt lat="45.8154404" lon="11.7984858"><ele>193.0</ele><time>2026-05-02T09:06:06.952Z</time></trkpt><trkpt lat="45.8154418" lon="11.7982965"><ele>192.25</ele><time>2026-05-02T09:06:07.952Z</time></trkpt><trkpt lat="45.8154449" lon="11.7981055"><ele>191.5</ele><time>2026-05-02T09:06:08.951Z</time></trkpt><trkpt lat="45.8154476" lon="11.7979107"><ele>190.75</ele><time>2026-05-02T09:06:09.952Z</time></trkpt><trkpt lat="45.8154495" lon="11.7977137"><ele>190.0</ele><time>2026-05-02T09:06:10.952Z</time></trkpt><trkpt lat="45.8154513" lon="11.7975213"><ele>189.0</ele><time>2026-05-02T09:06:11.951Z</time></trkpt><trkpt lat="45.8154522" lon="11.7973383"><ele>188.0</ele><time>2026-05-02T09:06:12.952Z</time></trkpt><trkpt lat="45.8154492" lon="11.7971594"><ele>187.0</ele><time>2026-05-02T09:06:13.952Z</time></trkpt><trkpt lat="45.8154498" lon="11.7969791"><ele>186.0</ele><time>2026-05-02T09:06:14.952Z</time></trkpt><trkpt lat="45.8154506" lon="11.7967984"><ele>185.0</ele><time>2026-05-02T09:06:15.952Z</time></trkpt><trkpt lat="45.8154524" lon="11.7966266"><ele>184.0</ele><time>2026-05-02T09:06:16.951Z</time></trkpt><trkpt lat="45.8154543" lon="11.7964599"><ele>183.0</ele><time>2026-05-02T09:06:17.952Z</time></trkpt><trkpt lat="45.8154561" lon="11.7962915"><ele>182.0</ele><time>2026-05-02T09:06:18.952Z</time></trkpt><trkpt lat="45.8154575" lon="11.7961197"><ele>182.5</ele><time>2026-05-02T09:06:19.951Z</time></trkpt><trkpt lat="45.8154594" lon="11.7959445"><ele>183.0</ele><time>2026-05-02T09:06:20.952Z</time></trkpt><trkpt lat="45.815461" lon="11.7957659"><ele>183.5</ele><time>2026-05-02T09:06:21.952Z</time></trkpt><trkpt lat="45.8154617" lon="11.7955852"><ele>184.0</ele><time>2026-05-02T09:06:22.952Z</time></trkpt><trkpt lat="45.8154613" lon="11.7954147"><ele>184.0</ele><time>2026-05-02T09:06:23.952Z</time></trkpt><trkpt lat="45.8154609" lon="11.7952578"><ele>184.0</ele><time>2026-05-02T09:06:24.952Z</time></trkpt><trkpt lat="45.8154616" lon="11.7951024"><ele>184.0</ele><time>2026-05-02T09:06:25.952Z</time></trkpt><trkpt lat="45.8154624" lon="11.7949383"><ele>184.0</ele><time>2026-05-02T09:06:26.951Z</time></trkpt><trkpt lat="45.8154627" lon="11.7947666"><ele>184.5</ele><time>2026-05-02T09:06:27.952Z</time></trkpt><trkpt lat="45.8154629" lon="11.7945898"><ele>185.0</ele><time>2026-05-02T09:06:28.952Z</time></trkpt><trkpt lat="45.8154634" lon="11.7944107"><ele>185.5</ele><time>2026-05-02T09:06:29.952Z</time></trkpt><trkpt lat="45.8154615" lon="11.7942314"><ele>186.0</ele><time>2026-05-02T09:06:30.951Z</time></trkpt><trkpt lat="45.8154554" lon="11.7940495"><ele>186.0</ele><time>2026-05-02T09:06:31.952Z</time></trkpt><trkpt lat="45.8154414" lon="11.7938718"><ele>186.0</ele><time>2026-05-02T09:06:32.952Z</time></trkpt><trkpt lat="45.8154175" lon="11.7937054"><ele>186.0</ele><time>2026-05-02T09:06:33.952Z</time></trkpt><trkpt lat="45.8153837" lon="11.7935417"><ele>186.0</ele><time>2026-05-02T09:06:34.951Z</time></trkpt><trkpt lat="45.8153419" lon="11.79338"><ele>185.60000000000002</ele><time>2026-05-02T09:06:35.951Z</time></trkpt><trkpt lat="45.815294" lon="11.7932286"><ele>185.2</ele><time>2026-05-02T09:06:36.951Z</time></trkpt><trkpt lat="45.8152398" lon="11.7930839"><ele>184.8</ele><time>2026-05-02T09:06:37.952Z</time></trkpt><trkpt lat="45.81518" lon="11.7929559"><ele>184.39999999999998</ele><time>2026-05-02T09:06:38.951Z</time></trkpt><trkpt lat="45.8151212" lon="11.7928416"><ele>184.0</ele><time>2026-05-02T09:06:39.952Z</time></trkpt><trkpt lat="45.8150432" lon="11.7927334"><ele>186.0</ele><time>2026-05-02T09:06:40.952Z</time></trkpt><trkpt lat="45.8149499" lon="11.7926356"><ele>188.0</ele><time>2026-05-02T09:06:41.952Z</time></trkpt><trkpt lat="45.8148491" lon="11.7925421"><ele>190.0</ele><time>2026-05-02T09:06:42.952Z</time></trkpt><trkpt lat="45.8147459" lon="11.7924596"><ele>192.0</ele><time>2026-05-02T09:06:43.953Z</time></trkpt><trkpt lat="45.8146416" lon="11.7923865"><ele>192.0</ele><time>2026-05-02T09:06:44.952Z</time></trkpt><trkpt lat="45.8145394" lon="11.7923115"><ele>192.0</ele><time>2026-05-02T09:06:45.953Z</time></trkpt><trkpt lat="45.8144367" lon="11.7922333"><ele>192.0</ele><time>2026-05-02T09:06:46.953Z</time></trkpt><trkpt lat="45.8143345" lon="11.7921515"><ele>192.0</ele><time>2026-05-02T09:06:47.953Z</time></trkpt><trkpt lat="45.8142331" lon="11.7920636"><ele>191.75</ele><time>2026-05-02T09:06:48.952Z</time></trkpt><trkpt lat="45.8141335" lon="11.7919666"><ele>191.5</ele><time>2026-05-02T09:06:49.952Z</time></trkpt><trkpt lat="45.8140365" lon="11.7918585"><ele>191.25</ele><time>2026-05-02T09:06:50.952Z</time></trkpt><trkpt lat="45.8139396" lon="11.7917462"><ele>191.0</ele><time>2026-05-02T09:06:51.953Z</time></trkpt><trkpt lat="45.8138414" lon="11.7916326"><ele>191.0</ele><time>2026-05-02T09:06:52.952Z</time></trkpt><trkpt lat="45.8137442" lon="11.7915186"><ele>191.0</ele><time>2026-05-02T09:06:53.953Z</time></trkpt><trkpt lat="45.8136471" lon="11.7914072"><ele>191.0</ele><time>2026-05-02T09:06:54.952Z</time></trkpt><trkpt lat="45.8135505" lon="11.7912958"><ele>191.0</ele><time>2026-05-02T09:06:55.953Z</time></trkpt><trkpt lat="45.8134526" lon="11.7911835"><ele>190.75</ele><time>2026-05-02T09:06:56.952Z</time></trkpt><trkpt lat="45.8133515" lon="11.7910667"><ele>190.5</ele><time>2026-05-02T09:06:57.953Z</time></trkpt><trkpt lat="45.813247" lon="11.7909451"><ele>190.25</ele><time>2026-05-02T09:06:58.952Z</time></trkpt><trkpt lat="45.8131391" lon="11.7908213"><ele>190.0</ele><time>2026-05-02T09:06:59.952Z</time></trkpt><trkpt lat="45.813031" lon="11.7906955"><ele>190.0</ele><time>2026-05-02T09:07:00.952Z</time></trkpt><trkpt lat="45.8129259" lon="11.7905717"><ele>190.0</ele><time>2026-05-02T09:07:01.952Z</time></trkpt><trkpt lat="45.8128294" lon="11.7904569"><ele>190.0</ele><time>2026-05-02T09:07:02.953Z</time></trkpt><trkpt lat="45.8127371" lon="11.7903493"><ele>190.0</ele><time>2026-05-02T09:07:03.952Z</time></trkpt><trkpt lat="45.8126484" lon="11.7902458"><ele>189.75</ele><time>2026-05-02T09:07:04.952Z</time></trkpt><trkpt lat="45.8125576" lon="11.790141"><ele>189.5</ele><time>2026-05-02T09:07:05.953Z</time></trkpt><trkpt lat="45.8124635" lon="11.7900324"><ele>189.25</ele><time>2026-05-02T09:07:06.952Z</time></trkpt><trkpt lat="45.8123655" lon="11.7899185"><ele>189.0</ele><time>2026-05-02T09:07:07.952Z</time></trkpt><trkpt lat="45.8122647" lon="11.7898005"><ele>189.0</ele><time>2026-05-02T09:07:08.953Z</time></trkpt><trkpt lat="45.8121609" lon="11.7896795"><ele>189.0</ele><time>2026-05-02T09:07:09.952Z</time></trkpt><trkpt lat="45.8120554" lon="11.7895556"><ele>189.0</ele><time>2026-05-02T09:07:10.953Z</time></trkpt><trkpt lat="45.811954" lon="11.7894372"><ele>189.0</ele><time>2026-05-02T09:07:11.952Z</time></trkpt><trkpt lat="45.8118586" lon="11.7893268"><ele>187.75</ele><time>2026-05-02T09:07:12.952Z</time></trkpt><trkpt lat="45.8117683" lon="11.7892217"><ele>186.5</ele><time>2026-05-02T09:07:13.952Z</time></trkpt><trkpt lat="45.8116795" lon="11.7891161"><ele>185.25</ele><time>2026-05-02T09:07:14.953Z</time></trkpt><trkpt lat="45.8115905" lon="11.7890109"><ele>184.0</ele><time>2026-05-02T09:07:15.953Z</time></trkpt><trkpt lat="45.8115065" lon="11.7889112"><ele>184.0</ele><time>2026-05-02T09:07:16.953Z</time></trkpt><trkpt lat="45.811429" lon="11.7888207"><ele>184.0</ele><time>2026-05-02T09:07:17.953Z</time></trkpt><trkpt lat="45.8113586" lon="11.7887384"><ele>184.0</ele><time>2026-05-02T09:07:18.953Z</time></trkpt><trkpt lat="45.8112963" lon="11.7886649"><ele>184.0</ele><time>2026-05-02T09:07:19.953Z</time></trkpt><trkpt lat="45.8112406" lon="11.7885994"><ele>184.0</ele><time>2026-05-02T09:07:20.952Z</time></trkpt><trkpt lat="45.8111901" lon="11.78854"><ele>184.0</ele><time>2026-05-02T09:07:21.952Z</time></trkpt><trkpt lat="45.8111188" lon="11.7884559"><ele>184.5</ele><time>2026-05-02T09:07:23.952Z</time></trkpt><trkpt lat="45.811064" lon="11.7883886"><ele>185.0</ele><time>2026-05-02T09:07:26.953Z</time></trkpt><trkpt lat="45.8110089" lon="11.7883255"><ele>185.5</ele><time>2026-05-02T09:07:40.954Z</time></trkpt><trkpt lat="45.81093" lon="11.7882367"><ele>186.0</ele><time>2026-05-02T09:07:43.953Z</time></trkpt><trkpt lat="45.8108811" lon="11.7881751"><ele>186.5</ele><time>2026-05-02T09:07:44.953Z</time></trkpt><trkpt lat="45.8108272" lon="11.7881109"><ele>187.0</ele><time>2026-05-02T09:07:45.954Z</time></trkpt><trkpt lat="45.8107706" lon="11.7880432"><ele>186.0</ele><time>2026-05-02T09:07:46.954Z</time></trkpt><trkpt lat="45.8107108" lon="11.7879708"><ele>185.0</ele><time>2026-05-02T09:07:47.954Z</time></trkpt><trkpt lat="45.8106464" lon="11.7878946"><ele>184.0</ele><time>2026-05-02T09:07:48.953Z</time></trkpt><trkpt lat="45.8105686" lon="11.7878029"><ele>183.0</ele><time>2026-05-02T09:07:49.954Z</time></trkpt><trkpt lat="45.8104799" lon="11.7876972"><ele>182.0</ele><time>2026-05-02T09:07:50.954Z</time></trkpt><trkpt lat="45.810385" lon="11.7875829"><ele>182.0</ele><time>2026-05-02T09:07:51.953Z</time></trkpt><trkpt lat="45.810286" lon="11.7874627"><ele>182.0</ele><time>2026-05-02T09:07:52.954Z</time></trkpt><trkpt lat="45.8101874" lon="11.7873363"><ele>182.0</ele><time>2026-05-02T09:07:53.953Z</time></trkpt><trkpt lat="45.8100919" lon="11.7871975"><ele>182.0</ele><time>2026-05-02T09:07:54.954Z</time></trkpt><trkpt lat="45.8100046" lon="11.7870444"><ele>181.75</ele><time>2026-05-02T09:07:55.954Z</time></trkpt><trkpt lat="45.8099251" lon="11.7868807"><ele>181.5</ele><time>2026-05-02T09:07:56.953Z</time></trkpt><trkpt lat="45.8098522" lon="11.7867094"><ele>181.25</ele><time>2026-05-02T09:07:57.953Z</time></trkpt><trkpt lat="45.8097845" lon="11.7865322"><ele>181.0</ele><time>2026-05-02T09:07:58.953Z</time></trkpt><trkpt lat="45.8097232" lon="11.7863491"><ele>181.0</ele><time>2026-05-02T09:07:59.954Z</time></trkpt><trkpt lat="45.8096654" lon="11.7861623"><ele>181.0</ele><time>2026-05-02T09:08:00.953Z</time></trkpt><trkpt lat="45.8096053" lon="11.7859688"><ele>181.0</ele><time>2026-05-02T09:08:01.954Z</time></trkpt><trkpt lat="45.8095389" lon="11.7857605"><ele>182.0</ele><time>2026-05-02T09:08:02.953Z</time></trkpt><trkpt lat="45.8094654" lon="11.7855354"><ele>183.0</ele><time>2026-05-02T09:08:03.954Z</time></trkpt><trkpt lat="45.8093873" lon="11.7852946"><ele>184.0</ele><time>2026-05-02T09:08:04.954Z</time></trkpt><trkpt lat="45.8093073" lon="11.7850456"><ele>182.66666666666669</ele><time>2026-05-02T09:08:05.953Z</time></trkpt><trkpt lat="45.8092287" lon="11.784797"><ele>181.33333333333334</ele><time>2026-05-02T09:08:06.954Z</time></trkpt><trkpt lat="45.8091526" lon="11.7845516"><ele>180.0</ele><time>2026-05-02T09:08:07.954Z</time></trkpt><trkpt lat="45.8090779" lon="11.7843091"><ele>180.0</ele><time>2026-05-02T09:08:08.954Z</time></trkpt><trkpt lat="45.8090023" lon="11.7840704"><ele>180.0</ele><time>2026-05-02T09:08:09.954Z</time></trkpt><trkpt lat="45.8089272" lon="11.7838373"><ele>180.0</ele><time>2026-05-02T09:08:10.954Z</time></trkpt><trkpt lat="45.8088541" lon="11.783609"><ele>181.33333333333334</ele><time>2026-05-02T09:08:11.953Z</time></trkpt><trkpt lat="45.8087833" lon="11.783385"><ele>182.66666666666669</ele><time>2026-05-02T09:08:12.953Z</time></trkpt><trkpt lat="45.8087142" lon="11.7831644"><ele>184.0</ele><time>2026-05-02T09:08:13.954Z</time></trkpt><trkpt lat="45.808645" lon="11.7829521"><ele>184.0</ele><time>2026-05-02T09:08:14.954Z</time></trkpt><trkpt lat="45.8085761" lon="11.7827358"><ele>184.0</ele><time>2026-05-02T09:08:15.954Z</time></trkpt><trkpt lat="45.8085054" lon="11.7825216"><ele>184.0</ele><time>2026-05-02T09:08:16.954Z</time></trkpt><trkpt lat="45.8084367" lon="11.7823034"><ele>181.66666666666669</ele><time>2026-05-02T09:08:17.953Z</time></trkpt><trkpt lat="45.8083716" lon="11.7820956"><ele>179.33333333333334</ele><time>2026-05-02T09:08:18.954Z</time></trkpt><trkpt lat="45.808308" lon="11.7818952"><ele>177.0</ele><time>2026-05-02T09:08:19.954Z</time></trkpt><trkpt lat="45.8082485" lon="11.7817029"><ele>177.0</ele><time>2026-05-02T09:08:20.954Z</time></trkpt><trkpt lat="45.8081896" lon="11.781532"><ele>177.0</ele><time>2026-05-02T09:08:21.953Z</time></trkpt><trkpt lat="45.8081317" lon="11.7813475"><ele>177.0</ele><time>2026-05-02T09:08:22.954Z</time></trkpt><trkpt lat="45.8080722" lon="11.7811624"><ele>177.0</ele><time>2026-05-02T09:08:23.953Z</time></trkpt><trkpt lat="45.8080062" lon="11.7809697"><ele>177.0</ele><time>2026-05-02T09:08:24.954Z</time></trkpt><trkpt lat="45.8079431" lon="11.7807745"><ele>177.0</ele><time>2026-05-02T09:08:25.953Z</time></trkpt><trkpt lat="45.8078819" lon="11.7805812"><ele>177.0</ele><time>2026-05-02T09:08:26.953Z</time></trkpt><trkpt lat="45.8078243" lon="11.7803891"><ele>177.0</ele><time>2026-05-02T09:08:27.953Z</time></trkpt><trkpt lat="45.8077622" lon="11.7801936"><ele>176.66666666666666</ele><time>2026-05-02T09:08:28.953Z</time></trkpt><trkpt lat="45.8076994" lon="11.7799942"><ele>176.33333333333331</ele><time>2026-05-02T09:08:29.953Z</time></trkpt><trkpt lat="45.8076347" lon="11.7797973"><ele>176.0</ele><time>2026-05-02T09:08:30.953Z</time></trkpt><trkpt lat="45.8075632" lon="11.7795968"><ele>174.33333333333331</ele><time>2026-05-02T09:08:31.954Z</time></trkpt><trkpt lat="45.8075003" lon="11.7794011"><ele>172.66666666666666</ele><time>2026-05-02T09:08:32.953Z</time></trkpt><trkpt lat="45.8074358" lon="11.7792003"><ele>171.0</ele><time>2026-05-02T09:08:33.953Z</time></trkpt><trkpt lat="45.8073752" lon="11.7790036"><ele>171.0</ele><time>2026-05-02T09:08:34.953Z</time></trkpt><trkpt lat="45.8073109" lon="11.7788169"><ele>171.0</ele><time>2026-05-02T09:08:35.954Z</time></trkpt><trkpt lat="45.8072565" lon="11.7786437"><ele>171.0</ele><time>2026-05-02T09:08:36.954Z</time></trkpt><trkpt lat="45.8072024" lon="11.7784789"><ele>171.0</ele><time>2026-05-02T09:08:37.953Z</time></trkpt><trkpt lat="45.8071461" lon="11.7783087"><ele>171.5</ele><time>2026-05-02T09:08:38.953Z</time></trkpt><trkpt lat="45.8070924" lon="11.7781407"><ele>172.0</ele><time>2026-05-02T09:08:39.955Z</time></trkpt><trkpt lat="45.8070334" lon="11.7779668"><ele>172.5</ele><time>2026-05-02T09:08:40.955Z</time></trkpt><trkpt lat="45.8069778" lon="11.7777907"><ele>173.0</ele><time>2026-05-02T09:08:41.955Z</time></trkpt><trkpt lat="45.8069242" lon="11.777617"><ele>173.0</ele><time>2026-05-02T09:08:42.954Z</time></trkpt><trkpt lat="45.8068668" lon="11.7774415"><ele>173.0</ele><time>2026-05-02T09:08:43.955Z</time></trkpt><trkpt lat="45.8068038" lon="11.7772691"><ele>173.0</ele><time>2026-05-02T09:08:44.955Z</time></trkpt><trkpt lat="45.8067566" lon="11.7771102"><ele>173.0</ele><time>2026-05-02T09:08:45.955Z</time></trkpt><trkpt lat="45.8067131" lon="11.7769578"><ele>173.25</ele><time>2026-05-02T09:08:46.955Z</time></trkpt><trkpt lat="45.8066676" lon="11.7768158"><ele>173.5</ele><time>2026-05-02T09:08:47.955Z</time></trkpt><trkpt lat="45.8066208" lon="11.7766646"><ele>173.75</ele><time>2026-05-02T09:08:48.954Z</time></trkpt><trkpt lat="45.8065696" lon="11.77652"><ele>174.0</ele><time>2026-05-02T09:08:49.955Z</time></trkpt><trkpt lat="45.8065218" lon="11.776363"><ele>174.0</ele><time>2026-05-02T09:08:50.955Z</time></trkpt><trkpt lat="45.8064751" lon="11.7762155"><ele>174.0</ele><time>2026-05-02T09:08:51.955Z</time></trkpt><trkpt lat="45.8064322" lon="11.7760811"><ele>174.0</ele><time>2026-05-02T09:08:52.955Z</time></trkpt><trkpt lat="45.8063895" lon="11.775955"><ele>174.0</ele><time>2026-05-02T09:08:53.955Z</time></trkpt><trkpt lat="45.8063464" lon="11.775824"><ele>174.0</ele><time>2026-05-02T09:08:54.955Z</time></trkpt><trkpt lat="45.8063049" lon="11.7756906"><ele>174.16666666666666</ele><time>2026-05-02T09:08:55.955Z</time></trkpt><trkpt lat="45.806264" lon="11.7755692"><ele>174.33333333333334</ele><time>2026-05-02T09:08:56.954Z</time></trkpt><trkpt lat="45.8062279" lon="11.7754627"><ele>174.5</ele><time>2026-05-02T09:08:57.954Z</time></trkpt><trkpt lat="45.8061957" lon="11.7753631"><ele>174.66666666666669</ele><time>2026-05-02T09:08:58.955Z</time></trkpt><trkpt lat="45.8061626" lon="11.7752641"><ele>174.83333333333334</ele><time>2026-05-02T09:08:59.954Z</time></trkpt><trkpt lat="45.8061291" lon="11.7751611"><ele>175.0</ele><time>2026-05-02T09:09:00.955Z</time></trkpt><trkpt lat="45.8060958" lon="11.7750562"><ele>175.16666666666669</ele><time>2026-05-02T09:09:01.955Z</time></trkpt><trkpt lat="45.8060606" lon="11.7749525"><ele>175.33333333333334</ele><time>2026-05-02T09:09:02.955Z</time></trkpt><trkpt lat="45.8060258" lon="11.7748498"><ele>175.5</ele><time>2026-05-02T09:09:03.955Z</time></trkpt><trkpt lat="45.8059903" lon="11.7747452"><ele>175.66666666666666</ele><time>2026-05-02T09:09:04.954Z</time></trkpt><trkpt lat="45.8059533" lon="11.7746347"><ele>175.83333333333331</ele><time>2026-05-02T09:09:05.955Z</time></trkpt><trkpt lat="45.8059146" lon="11.7745181"><ele>176.0</ele><time>2026-05-02T09:09:06.954Z</time></trkpt><trkpt lat="45.8058729" lon="11.7743946"><ele>176.0</ele><time>2026-05-02T09:09:07.954Z</time></trkpt><trkpt lat="45.8058274" lon="11.7742659"><ele>176.0</ele><time>2026-05-02T09:09:08.955Z</time></trkpt><trkpt lat="45.8057771" lon="11.7741271"><ele>176.0</ele><time>2026-05-02T09:09:09.954Z</time></trkpt><trkpt lat="45.8057227" lon="11.7739751"><ele>176.0</ele><time>2026-05-02T09:09:10.955Z</time></trkpt><trkpt lat="45.8056634" lon="11.773809"><ele>176.0</ele><time>2026-05-02T09:09:11.955Z</time></trkpt><trkpt lat="45.8055996" lon="11.7736313"><ele>176.0</ele><time>2026-05-02T09:09:12.955Z</time></trkpt><trkpt lat="45.8055336" lon="11.7734442"><ele>176.0</ele><time>2026-05-02T09:09:13.954Z</time></trkpt><trkpt lat="45.8054645" lon="11.7732493"><ele>176.0</ele><time>2026-05-02T09:09:14.954Z</time></trkpt><trkpt lat="45.8053927" lon="11.7730478"><ele>176.0</ele><time>2026-05-02T09:09:15.954Z</time></trkpt><trkpt lat="45.8053196" lon="11.7728412"><ele>176.0</ele><time>2026-05-02T09:09:16.955Z</time></trkpt><trkpt lat="45.8052453" lon="11.7726334"><ele>176.0</ele><time>2026-05-02T09:09:17.954Z</time></trkpt><trkpt lat="45.8051705" lon="11.7724259"><ele>176.66666666666666</ele><time>2026-05-02T09:09:18.955Z</time></trkpt><trkpt lat="45.8050964" lon="11.7722176"><ele>177.33333333333334</ele><time>2026-05-02T09:09:19.955Z</time></trkpt><trkpt lat="45.8050203" lon="11.7720049"><ele>178.0</ele><time>2026-05-02T09:09:20.954Z</time></trkpt><trkpt lat="45.8049451" lon="11.7717906"><ele>179.0</ele><time>2026-05-02T09:09:21.954Z</time></trkpt><trkpt lat="45.804869" lon="11.7715816"><ele>180.0</ele><time>2026-05-02T09:09:22.955Z</time></trkpt><trkpt lat="45.8047945" lon="11.7713759"><ele>181.0</ele><time>2026-05-02T09:09:23.955Z</time></trkpt><trkpt lat="45.8047218" lon="11.771175"><ele>181.5</ele><time>2026-05-02T09:09:24.955Z</time></trkpt><trkpt lat="45.8046542" lon="11.7709869"><ele>182.0</ele><time>2026-05-02T09:09:25.955Z</time></trkpt><trkpt lat="45.8045914" lon="11.7708137"><ele>182.5</ele><time>2026-05-02T09:09:26.955Z</time></trkpt><trkpt lat="45.8045325" lon="11.7706525"><ele>183.0</ele><time>2026-05-02T09:09:27.954Z</time></trkpt><trkpt lat="45.8044744" lon="11.7704948"><ele>183.0</ele><time>2026-05-02T09:09:28.954Z</time></trkpt><trkpt lat="45.8044167" lon="11.7703363"><ele>183.0</ele><time>2026-05-02T09:09:29.955Z</time></trkpt><trkpt lat="45.8043631" lon="11.7701882"><ele>183.0</ele><time>2026-05-02T09:09:30.956Z</time></trkpt><trkpt lat="45.8043115" lon="11.7700498"><ele>183.0</ele><time>2026-05-02T09:09:31.955Z</time></trkpt><trkpt lat="45.8042583" lon="11.7699114"><ele>183.25</ele><time>2026-05-02T09:09:32.955Z</time></trkpt><trkpt lat="45.8042035" lon="11.7697678"><ele>183.5</ele><time>2026-05-02T09:09:33.954Z</time></trkpt><trkpt lat="45.8041451" lon="11.7696241"><ele>183.75</ele><time>2026-05-02T09:09:34.955Z</time></trkpt><trkpt lat="45.8040837" lon="11.7694774"><ele>184.0</ele><time>2026-05-02T09:09:35.955Z</time></trkpt><trkpt lat="45.8040265" lon="11.7693257"><ele>184.33333333333334</ele><time>2026-05-02T09:09:36.955Z</time></trkpt><trkpt lat="45.8039738" lon="11.7691784"><ele>184.66666666666669</ele><time>2026-05-02T09:09:37.954Z</time></trkpt><trkpt lat="45.8039261" lon="11.7690488"><ele>185.0</ele><time>2026-05-02T09:09:38.956Z</time></trkpt><trkpt lat="45.8038865" lon="11.7689479"><ele>185.33333333333334</ele><time>2026-05-02T09:09:39.955Z</time></trkpt><trkpt lat="45.8038513" lon="11.7688582"><ele>185.66666666666666</ele><time>2026-05-02T09:09:40.956Z</time></trkpt><trkpt lat="45.8038143" lon="11.7687623"><ele>186.0</ele><time>2026-05-02T09:09:41.956Z</time></trkpt><trkpt lat="45.8037719" lon="11.7686551"><ele>186.0</ele><time>2026-05-02T09:09:42.955Z</time></trkpt><trkpt lat="45.8037198" lon="11.7685336"><ele>186.0</ele><time>2026-05-02T09:09:43.955Z</time></trkpt><trkpt lat="45.8036578" lon="11.7683988"><ele>186.0</ele><time>2026-05-02T09:09:44.955Z</time></trkpt><trkpt lat="45.8035871" lon="11.768256"><ele>186.0</ele><time>2026-05-02T09:09:45.955Z</time></trkpt><trkpt lat="45.8035171" lon="11.7681183"><ele>186.0</ele><time>2026-05-02T09:09:46.955Z</time></trkpt><trkpt lat="45.803453" lon="11.7679928"><ele>186.0</ele><time>2026-05-02T09:09:47.955Z</time></trkpt><trkpt lat="45.803388" lon="11.7678643"><ele>186.0</ele><time>2026-05-02T09:09:48.956Z</time></trkpt><trkpt lat="45.8033198" lon="11.7677291"><ele>186.0</ele><time>2026-05-02T09:09:49.955Z</time></trkpt><trkpt lat="45.8032513" lon="11.76759"><ele>187.0</ele><time>2026-05-02T09:09:50.956Z</time></trkpt><trkpt lat="45.803184" lon="11.7674374"><ele>188.0</ele><time>2026-05-02T09:09:51.956Z</time></trkpt><trkpt lat="45.8031227" lon="11.7672702"><ele>189.0</ele><time>2026-05-02T09:09:52.956Z</time></trkpt><trkpt lat="45.8030715" lon="11.7670905"><ele>190.0</ele><time>2026-05-02T09:09:53.956Z</time></trkpt><trkpt lat="45.8030321" lon="11.7669022"><ele>190.25</ele><time>2026-05-02T09:09:54.956Z</time></trkpt><trkpt lat="45.8030045" lon="11.7667029"><ele>190.5</ele><time>2026-05-02T09:09:55.955Z</time></trkpt><trkpt lat="45.8029828" lon="11.7664977"><ele>190.75</ele><time>2026-05-02T09:09:56.955Z</time></trkpt><trkpt lat="45.8029606" lon="11.766294"><ele>191.0</ele><time>2026-05-02T09:09:57.956Z</time></trkpt><trkpt lat="45.8029293" lon="11.766096"><ele>191.5</ele><time>2026-05-02T09:09:58.956Z</time></trkpt><trkpt lat="45.8028823" lon="11.7659051"><ele>192.0</ele><time>2026-05-02T09:09:59.956Z</time></trkpt><trkpt lat="45.8028201" lon="11.765724"><ele>192.5</ele><time>2026-05-02T09:10:00.956Z</time></trkpt><trkpt lat="45.8027458" lon="11.7655515"><ele>193.0</ele><time>2026-05-02T09:10:01.956Z</time></trkpt><trkpt lat="45.8026606" lon="11.7653903"><ele>195.0</ele><time>2026-05-02T09:10:02.956Z</time></trkpt><trkpt lat="45.8025664" lon="11.765235"><ele>197.0</ele><time>2026-05-02T09:10:03.956Z</time></trkpt><trkpt lat="45.8024692" lon="11.7650805"><ele>199.0</ele><time>2026-05-02T09:10:04.955Z</time></trkpt><trkpt lat="45.8023727" lon="11.7649213"><ele>201.0</ele><time>2026-05-02T09:10:05.955Z</time></trkpt><trkpt lat="45.8022758" lon="11.7647619"><ele>201.0</ele><time>2026-05-02T09:10:06.955Z</time></trkpt><trkpt lat="45.8021773" lon="11.7646035"><ele>201.0</ele><time>2026-05-02T09:10:07.955Z</time></trkpt><trkpt lat="45.8020774" lon="11.7644455"><ele>201.0</ele><time>2026-05-02T09:10:08.955Z</time></trkpt><trkpt lat="45.8019743" lon="11.7642908"><ele>201.0</ele><time>2026-05-02T09:10:09.955Z</time></trkpt><trkpt lat="45.8018637" lon="11.7641547"><ele>200.0</ele><time>2026-05-02T09:10:10.955Z</time></trkpt><trkpt lat="45.8017423" lon="11.7640445"><ele>199.0</ele><time>2026-05-02T09:10:11.955Z</time></trkpt><trkpt lat="45.8016124" lon="11.7639587"><ele>198.0</ele><time>2026-05-02T09:10:12.956Z</time></trkpt><trkpt lat="45.8014784" lon="11.7638887"><ele>197.0</ele><time>2026-05-02T09:10:13.956Z</time></trkpt><trkpt lat="45.8013425" lon="11.7638221"><ele>197.0</ele><time>2026-05-02T09:10:14.955Z</time></trkpt><trkpt lat="45.8012068" lon="11.7637545"><ele>197.0</ele><time>2026-05-02T09:10:15.955Z</time></trkpt><trkpt lat="45.8010712" lon="11.7636872"><ele>197.0</ele><time>2026-05-02T09:10:16.955Z</time></trkpt><trkpt lat="45.8009358" lon="11.7636213"><ele>197.0</ele><time>2026-05-02T09:10:17.956Z</time></trkpt><trkpt lat="45.8008075" lon="11.7635603"><ele>195.2</ele><time>2026-05-02T09:10:18.956Z</time></trkpt><trkpt lat="45.8006927" lon="11.7635051"><ele>193.39999999999998</ele><time>2026-05-02T09:10:19.956Z</time></trkpt><trkpt lat="45.8005956" lon="11.7634594"><ele>191.60000000000002</ele><time>2026-05-02T09:10:20.955Z</time></trkpt><trkpt lat="45.8005215" lon="11.7634239"><ele>189.8</ele><time>2026-05-02T09:10:21.956Z</time></trkpt><trkpt lat="45.800479" lon="11.763321"><ele>188.0</ele><time>2026-05-02T09:10:23.956Z</time></trkpt><trkpt lat="45.8005794" lon="11.7632363"><ele>188.0</ele><time>2026-05-02T09:10:25.956Z</time></trkpt><trkpt lat="45.8006674" lon="11.7631895"><ele>188.0</ele><time>2026-05-02T09:10:26.956Z</time></trkpt><trkpt lat="45.8007606" lon="11.7631299"><ele>188.0</ele><time>2026-05-02T09:10:27.956Z</time></trkpt><trkpt lat="45.80084" lon="11.763049"><ele>188.0</ele><time>2026-05-02T09:10:28.956Z</time></trkpt><trkpt lat="45.8008941" lon="11.7629422"><ele>188.0</ele><time>2026-05-02T09:10:29.956Z</time></trkpt><trkpt lat="45.8009175" lon="11.762813"><ele>187.0</ele><time>2026-05-02T09:10:30.956Z</time></trkpt><trkpt lat="45.8009182" lon="11.7626651"><ele>186.0</ele><time>2026-05-02T09:10:31.956Z</time></trkpt><trkpt lat="45.8009063" lon="11.762505"><ele>185.0</ele><time>2026-05-02T09:10:32.955Z</time></trkpt><trkpt lat="45.800891" lon="11.7623449"><ele>184.0</ele><time>2026-05-02T09:10:33.955Z</time></trkpt><trkpt lat="45.8008626" lon="11.7621649"><ele>184.0</ele><time>2026-05-02T09:10:34.955Z</time></trkpt><trkpt lat="45.800829" lon="11.7619783"><ele>184.0</ele><time>2026-05-02T09:10:35.955Z</time></trkpt><trkpt lat="45.8007981" lon="11.761779"><ele>184.0</ele><time>2026-05-02T09:10:36.955Z</time></trkpt><trkpt lat="45.8007729" lon="11.7615763"><ele>184.0</ele><time>2026-05-02T09:10:37.957Z</time></trkpt><trkpt lat="45.800758" lon="11.7613839"><ele>183.75</ele><time>2026-05-02T09:10:38.957Z</time></trkpt><trkpt lat="45.8007604" lon="11.7612083"><ele>183.5</ele><time>2026-05-02T09:10:39.956Z</time></trkpt><trkpt lat="45.8007689" lon="11.7610418"><ele>183.25</ele><time>2026-05-02T09:10:40.956Z</time></trkpt><trkpt lat="45.8008122" lon="11.760884"><ele>183.0</ele><time>2026-05-02T09:10:41.956Z</time></trkpt><trkpt lat="45.8008735" lon="11.7607432"><ele>183.0</ele><time>2026-05-02T09:10:42.957Z</time></trkpt><trkpt lat="45.800944" lon="11.7606133"><ele>183.0</ele><time>2026-05-02T09:10:43.956Z</time></trkpt><trkpt lat="45.8010182" lon="11.7604845"><ele>183.0</ele><time>2026-05-02T09:10:44.957Z</time></trkpt><trkpt lat="45.8010997" lon="11.7603572"><ele>183.0</ele><time>2026-05-02T09:10:45.957Z</time></trkpt><trkpt lat="45.8011903" lon="11.7602322"><ele>183.5</ele><time>2026-05-02T09:10:46.957Z</time></trkpt><trkpt lat="45.8012863" lon="11.7601076"><ele>184.0</ele><time>2026-05-02T09:10:47.956Z</time></trkpt><trkpt lat="45.8013847" lon="11.7599804"><ele>184.5</ele><time>2026-05-02T09:10:48.956Z</time></trkpt><trkpt lat="45.8014862" lon="11.7598509"><ele>185.0</ele><time>2026-05-02T09:10:49.956Z</time></trkpt><trkpt lat="45.8015871" lon="11.7597176"><ele>185.0</ele><time>2026-05-02T09:10:50.957Z</time></trkpt><trkpt lat="45.8016782" lon="11.759575"><ele>185.0</ele><time>2026-05-02T09:10:51.956Z</time></trkpt><trkpt lat="45.8017509" lon="11.7594186"><ele>185.0</ele><time>2026-05-02T09:10:52.957Z</time></trkpt><trkpt lat="45.8017899" lon="11.7592518"><ele>185.0</ele><time>2026-05-02T09:10:53.957Z</time></trkpt><trkpt lat="45.8018021" lon="11.7590777"><ele>185.25</ele><time>2026-05-02T09:10:54.956Z</time></trkpt><trkpt lat="45.801821" lon="11.7589046"><ele>185.5</ele><time>2026-05-02T09:10:55.957Z</time></trkpt><trkpt lat="45.801859" lon="11.7587379"><ele>185.75</ele><time>2026-05-02T09:10:56.957Z</time></trkpt><trkpt lat="45.8019048" lon="11.758575"><ele>186.0</ele><time>2026-05-02T09:10:57.957Z</time></trkpt><trkpt lat="45.8019489" lon="11.7584161"><ele>186.60000000000002</ele><time>2026-05-02T09:10:58.957Z</time></trkpt><trkpt lat="45.8019867" lon="11.7582746"><ele>187.2</ele><time>2026-05-02T09:10:59.956Z</time></trkpt><trkpt lat="45.8020194" lon="11.758156"><ele>187.8</ele><time>2026-05-02T09:11:00.956Z</time></trkpt><trkpt lat="45.8020431" lon="11.7580647"><ele>188.39999999999998</ele><time>2026-05-02T09:11:01.957Z</time></trkpt><trkpt lat="45.8020963" lon="11.757977"><ele>189.0</ele><time>2026-05-02T09:11:03.957Z</time></trkpt><trkpt lat="45.8022149" lon="11.7579423"><ele>189.0</ele><time>2026-05-02T09:11:05.957Z</time></trkpt><trkpt lat="45.8022985" lon="11.7579159"><ele>189.0</ele><time>2026-05-02T09:11:06.956Z</time></trkpt><trkpt lat="45.8023941" lon="11.7578686"><ele>189.0</ele><time>2026-05-02T09:11:07.956Z</time></trkpt><trkpt lat="45.8024991" lon="11.7578086"><ele>189.0</ele><time>2026-05-02T09:11:08.956Z</time></trkpt><trkpt lat="45.802609" lon="11.7577421"><ele>189.0</ele><time>2026-05-02T09:11:09.957Z</time></trkpt><trkpt lat="45.8027214" lon="11.7576678"><ele>189.79999999999998</ele><time>2026-05-02T09:11:10.956Z</time></trkpt><trkpt lat="45.8028337" lon="11.7575904"><ele>190.6</ele><time>2026-05-02T09:11:11.957Z</time></trkpt><trkpt lat="45.8029404" lon="11.7575173"><ele>191.4</ele><time>2026-05-02T09:11:12.957Z</time></trkpt><trkpt lat="45.8030358" lon="11.7574566"><ele>192.2</ele><time>2026-05-02T09:11:13.956Z</time></trkpt><trkpt lat="45.8031156" lon="11.7574061"><ele>193.0</ele><time>2026-05-02T09:11:14.957Z</time></trkpt><trkpt lat="45.8031802" lon="11.7573647"><ele>192.99999999999997</ele><time>2026-05-02T09:11:15.956Z</time></trkpt><trkpt lat="45.8032694" lon="11.7573718"><ele>193.0</ele><time>2026-05-02T09:11:17.957Z</time></trkpt><trkpt lat="45.8033077" lon="11.7574452"><ele>193.0</ele><time>2026-05-02T09:11:19.956Z</time></trkpt><trkpt lat="45.8033451" lon="11.7575223"><ele>193.0</ele><time>2026-05-02T09:11:22.957Z</time></trkpt><trkpt lat="45.8033236" lon="11.7574169"><ele>192.99999999999997</ele><time>2026-05-02T09:17:52.963Z</time></trkpt><trkpt lat="45.8033084" lon="11.757317"><ele>193.0</ele><time>2026-05-02T09:17:55.963Z</time></trkpt><trkpt lat="45.8033962" lon="11.7572315"><ele>193.2</ele><time>2026-05-02T09:18:03.964Z</time></trkpt><trkpt lat="45.8035043" lon="11.7571715"><ele>193.4</ele><time>2026-05-02T09:18:05.963Z</time></trkpt><trkpt lat="45.8035936" lon="11.7571152"><ele>193.6</ele><time>2026-05-02T09:18:07.963Z</time></trkpt><trkpt lat="45.803689" lon="11.7570548"><ele>193.79999999999998</ele><time>2026-05-02T09:18:09.963Z</time></trkpt><trkpt lat="45.8037465" lon="11.757015"><ele>194.0</ele><time>2026-05-02T09:18:10.963Z</time></trkpt><trkpt lat="45.8038104" lon="11.7569796"><ele>194.0</ele><time>2026-05-02T09:18:11.963Z</time></trkpt><trkpt lat="45.8038767" lon="11.7569412"><ele>194.0</ele><time>2026-05-02T09:18:12.963Z</time></trkpt><trkpt lat="45.8039436" lon="11.7568994"><ele>194.0</ele><time>2026-05-02T09:18:13.964Z</time></trkpt><trkpt lat="45.8040107" lon="11.7568571"><ele>194.0</ele><time>2026-05-02T09:18:14.963Z</time></trkpt><trkpt lat="45.8040777" lon="11.7568139"><ele>194.0</ele><time>2026-05-02T09:18:15.964Z</time></trkpt><trkpt lat="45.8041443" lon="11.7567696"><ele>194.0</ele><time>2026-05-02T09:18:16.964Z</time></trkpt><trkpt lat="45.8042077" lon="11.7567161"><ele>194.0</ele><time>2026-05-02T09:18:17.964Z</time></trkpt><trkpt lat="45.8042679" lon="11.7566537"><ele>195.39999999999998</ele><time>2026-05-02T09:18:18.963Z</time></trkpt><trkpt lat="45.804328" lon="11.7565712"><ele>196.8</ele><time>2026-05-02T09:18:19.963Z</time></trkpt><trkpt lat="45.8043975" lon="11.7564731"><ele>198.2</ele><time>2026-05-02T09:18:20.964Z</time></trkpt><trkpt lat="45.8044855" lon="11.7563915"><ele>199.60000000000002</ele><time>2026-05-02T09:18:21.963Z</time></trkpt><trkpt lat="45.8045878" lon="11.756337"><ele>201.0</ele><time>2026-05-02T09:18:22.964Z</time></trkpt><trkpt lat="45.8047036" lon="11.7563106"><ele>203.0</ele><time>2026-05-02T09:18:23.963Z</time></trkpt><trkpt lat="45.8048341" lon="11.7563246"><ele>205.0</ele><time>2026-05-02T09:18:24.964Z</time></trkpt><trkpt lat="45.8049725" lon="11.75637"><ele>207.0</ele><time>2026-05-02T09:18:25.964Z</time></trkpt><trkpt lat="45.8051017" lon="11.7564211"><ele>209.0</ele><time>2026-05-02T09:18:26.963Z</time></trkpt><trkpt lat="45.8052181" lon="11.7564676"><ele>212.75</ele><time>2026-05-02T09:18:27.964Z</time></trkpt><trkpt lat="45.8053398" lon="11.7565133"><ele>216.5</ele><time>2026-05-02T09:18:28.964Z</time></trkpt><trkpt lat="45.8054646" lon="11.7565606"><ele>220.25</ele><time>2026-05-02T09:18:29.963Z</time></trkpt><trkpt lat="45.8055919" lon="11.7566058"><ele>224.0</ele><time>2026-05-02T09:18:30.963Z</time></trkpt><trkpt lat="45.8057135" lon="11.7566417"><ele>224.0</ele><time>2026-05-02T09:18:31.964Z</time></trkpt><trkpt lat="45.8058478" lon="11.7566714"><ele>224.0</ele><time>2026-05-02T09:18:32.964Z</time></trkpt><trkpt lat="45.805995" lon="11.7566978"><ele>224.0</ele><time>2026-05-02T09:18:33.963Z</time></trkpt><trkpt lat="45.8061492" lon="11.7567213"><ele>224.0</ele><time>2026-05-02T09:18:34.963Z</time></trkpt><trkpt lat="45.8063065" lon="11.7567393"><ele>227.5</ele><time>2026-05-02T09:18:35.964Z</time></trkpt><trkpt lat="45.8064558" lon="11.7567566"><ele>231.0</ele><time>2026-05-02T09:18:36.964Z</time></trkpt><trkpt lat="45.8065877" lon="11.756772"><ele>234.5</ele><time>2026-05-02T09:18:37.964Z</time></trkpt><trkpt lat="45.8067008" lon="11.7567818"><ele>238.0</ele><time>2026-05-02T09:18:38.963Z</time></trkpt><trkpt lat="45.806798" lon="11.7567886"><ele>239.0</ele><time>2026-05-02T09:18:39.964Z</time></trkpt><trkpt lat="45.8068938" lon="11.7567948"><ele>240.0</ele><time>2026-05-02T09:18:40.963Z</time></trkpt><trkpt lat="45.8069927" lon="11.7567985"><ele>241.0</ele><time>2026-05-02T09:18:41.963Z</time></trkpt><trkpt lat="45.8070951" lon="11.7567934"><ele>242.0</ele><time>2026-05-02T09:18:42.964Z</time></trkpt><trkpt lat="45.8072001" lon="11.7567896"><ele>243.0</ele><time>2026-05-02T09:18:43.964Z</time></trkpt><trkpt lat="45.8073063" lon="11.7567955"><ele>243.0</ele><time>2026-05-02T09:18:44.963Z</time></trkpt><trkpt lat="45.8074061" lon="11.7568055"><ele>243.0</ele><time>2026-05-02T09:18:45.964Z</time></trkpt><trkpt lat="45.8074883" lon="11.7568209"><ele>243.0</ele><time>2026-05-02T09:18:46.963Z</time></trkpt><trkpt lat="45.8075566" lon="11.7568494"><ele>243.0</ele><time>2026-05-02T09:18:47.963Z</time></trkpt><trkpt lat="45.8076142" lon="11.7568916"><ele>243.0</ele><time>2026-05-02T09:18:48.963Z</time></trkpt><trkpt lat="45.8077264" lon="11.756898"><ele>243.0</ele><time>2026-05-02T09:18:50.963Z</time></trkpt><trkpt lat="45.8077897" lon="11.75675"><ele>243.0</ele><time>2026-05-02T09:18:52.964Z</time></trkpt><trkpt lat="45.8077566" lon="11.7566633"><ele>243.0</ele><time>2026-05-02T09:18:53.964Z</time></trkpt><trkpt lat="45.8076838" lon="11.7566139"><ele>243.0</ele><time>2026-05-02T09:18:54.964Z</time></trkpt><trkpt lat="45.8076002" lon="11.7565686"><ele>243.0</ele><time>2026-05-02T09:18:55.965Z</time></trkpt><trkpt lat="45.8074835" lon="11.756552"><ele>243.0</ele><time>2026-05-02T09:18:56.964Z</time></trkpt><trkpt lat="45.8073586" lon="11.7565306"><ele>243.0</ele><time>2026-05-02T09:18:57.965Z</time></trkpt><trkpt lat="45.8072398" lon="11.7565063"><ele>243.0</ele><time>2026-05-02T09:18:58.964Z</time></trkpt><trkpt lat="45.8071411" lon="11.7564813"><ele>243.0</ele><time>2026-05-02T09:18:59.965Z</time></trkpt><trkpt lat="45.8070592" lon="11.7564565"><ele>243.0</ele><time>2026-05-02T09:19:00.964Z</time></trkpt><trkpt lat="45.8069858" lon="11.7564307"><ele>243.0</ele><time>2026-05-02T09:19:01.965Z</time></trkpt><trkpt lat="45.8069069" lon="11.7564072"><ele>242.16666666666666</ele><time>2026-05-02T09:19:02.964Z</time></trkpt><trkpt lat="45.8068233" lon="11.7563817"><ele>241.33333333333331</ele><time>2026-05-02T09:19:03.965Z</time></trkpt><trkpt lat="45.8067405" lon="11.7563521"><ele>240.5</ele><time>2026-05-02T09:19:04.964Z</time></trkpt><trkpt lat="45.806659" lon="11.7563173"><ele>239.66666666666666</ele><time>2026-05-02T09:19:05.965Z</time></trkpt><trkpt lat="45.8065753" lon="11.7562772"><ele>238.83333333333331</ele><time>2026-05-02T09:19:06.965Z</time></trkpt><trkpt lat="45.8064904" lon="11.7562332"><ele>238.0</ele><time>2026-05-02T09:19:07.965Z</time></trkpt><trkpt lat="45.8064026" lon="11.756182"><ele>237.99999999999997</ele><time>2026-05-02T09:19:08.965Z</time></trkpt><trkpt lat="45.8063117" lon="11.7561265"><ele>238.0</ele><time>2026-05-02T09:19:09.965Z</time></trkpt><trkpt lat="45.8062309" lon="11.7560759"><ele>238.0</ele><time>2026-05-02T09:19:10.964Z</time></trkpt><trkpt lat="45.806166" lon="11.7560341"><ele>238.0</ele><time>2026-05-02T09:19:11.965Z</time></trkpt><trkpt lat="45.8061084" lon="11.7559953"><ele>237.99999999999997</ele><time>2026-05-02T09:19:12.964Z</time></trkpt><trkpt lat="45.8060477" lon="11.7559562"><ele>238.0</ele><time>2026-05-02T09:19:13.964Z</time></trkpt><trkpt lat="45.8059824" lon="11.7559097"><ele>243.2</ele><time>2026-05-02T09:19:14.965Z</time></trkpt><trkpt lat="45.8059127" lon="11.7558609"><ele>248.4</ele><time>2026-05-02T09:19:15.965Z</time></trkpt><trkpt lat="45.8058285" lon="11.7558051"><ele>253.59999999999997</ele><time>2026-05-02T09:19:16.964Z</time></trkpt><trkpt lat="45.8057397" lon="11.7557443"><ele>258.8</ele><time>2026-05-02T09:19:17.964Z</time></trkpt><trkpt lat="45.8056508" lon="11.7556752"><ele>264.0</ele><time>2026-05-02T09:19:18.965Z</time></trkpt><trkpt lat="45.8055622" lon="11.7556038"><ele>264.0</ele><time>2026-05-02T09:19:19.965Z</time></trkpt><trkpt lat="45.8054743" lon="11.7555266"><ele>264.0</ele><time>2026-05-02T09:19:20.965Z</time></trkpt><trkpt lat="45.8053851" lon="11.7554405"><ele>264.0</ele><time>2026-05-02T09:19:21.964Z</time></trkpt><trkpt lat="45.8052953" lon="11.7553393"><ele>264.0</ele><time>2026-05-02T09:19:22.965Z</time></trkpt><trkpt lat="45.8052038" lon="11.7552319"><ele>264.0</ele><time>2026-05-02T09:19:23.965Z</time></trkpt><trkpt lat="45.8051044" lon="11.7551053"><ele>266.75</ele><time>2026-05-02T09:19:24.965Z</time></trkpt><trkpt lat="45.805005" lon="11.7549694"><ele>269.5</ele><time>2026-05-02T09:19:25.964Z</time></trkpt><trkpt lat="45.8049053" lon="11.7548321"><ele>272.25</ele><time>2026-05-02T09:19:26.965Z</time></trkpt><trkpt lat="45.8048068" lon="11.7546992"><ele>275.0</ele><time>2026-05-02T09:19:27.964Z</time></trkpt><trkpt lat="45.8047107" lon="11.7545713"><ele>275.0</ele><time>2026-05-02T09:19:28.964Z</time></trkpt><trkpt lat="45.8046086" lon="11.7544456"><ele>275.0</ele><time>2026-05-02T09:19:29.964Z</time></trkpt><trkpt lat="45.8044976" lon="11.754308"><ele>275.0</ele><time>2026-05-02T09:19:30.965Z</time></trkpt><trkpt lat="45.8043837" lon="11.7541537"><ele>275.0</ele><time>2026-05-02T09:19:31.965Z</time></trkpt><trkpt lat="45.8042625" lon="11.7539762"><ele>273.6666666666667</ele><time>2026-05-02T09:19:32.964Z</time></trkpt><trkpt lat="45.804135" lon="11.7537772"><ele>272.3333333333333</ele><time>2026-05-02T09:19:33.965Z</time></trkpt><trkpt lat="45.804009" lon="11.7535594"><ele>271.0</ele><time>2026-05-02T09:19:34.965Z</time></trkpt><trkpt lat="45.8038852" lon="11.7533383"><ele>281.0</ele><time>2026-05-02T09:19:35.965Z</time></trkpt><trkpt lat="45.8037656" lon="11.7531266"><ele>291.0</ele><time>2026-05-02T09:19:36.965Z</time></trkpt><trkpt lat="45.8036503" lon="11.7529267"><ele>301.0</ele><time>2026-05-02T09:19:37.965Z</time></trkpt><trkpt lat="45.8035456" lon="11.7527361"><ele>296.0</ele><time>2026-05-02T09:19:38.965Z</time></trkpt><trkpt lat="45.8034512" lon="11.7525453"><ele>291.0</ele><time>2026-05-02T09:19:39.965Z</time></trkpt><trkpt lat="45.8033666" lon="11.7523459"><ele>286.0</ele><time>2026-05-02T09:19:40.965Z</time></trkpt><trkpt lat="45.8032883" lon="11.7521404"><ele>286.0</ele><time>2026-05-02T09:19:41.965Z</time></trkpt><trkpt lat="45.8032128" lon="11.751932"><ele>286.0</ele><time>2026-05-02T09:19:42.965Z</time></trkpt><trkpt lat="45.8031383" lon="11.7517228"><ele>286.0</ele><time>2026-05-02T09:19:43.965Z</time></trkpt><trkpt lat="45.8030648" lon="11.7515213"><ele>298.0</ele><time>2026-05-02T09:19:44.965Z</time></trkpt><trkpt lat="45.8029931" lon="11.7513106"><ele>310.0</ele><time>2026-05-02T09:19:45.965Z</time></trkpt><trkpt lat="45.8029257" lon="11.7510898"><ele>322.0</ele><time>2026-05-02T09:19:46.965Z</time></trkpt><trkpt lat="45.8028582" lon="11.7508791"><ele>329.0</ele><time>2026-05-02T09:19:47.964Z</time></trkpt><trkpt lat="45.8027877" lon="11.7506682"><ele>336.0</ele><time>2026-05-02T09:19:48.965Z</time></trkpt><trkpt lat="45.8027205" lon="11.750443"><ele>343.0</ele><time>2026-05-02T09:19:49.965Z</time></trkpt><trkpt lat="45.8026623" lon="11.7502396"><ele>337.0</ele><time>2026-05-02T09:19:50.965Z</time></trkpt><trkpt lat="45.8026003" lon="11.7500583"><ele>331.0</ele><time>2026-05-02T09:19:51.964Z</time></trkpt><trkpt lat="45.8025313" lon="11.7499055"><ele>325.0</ele><time>2026-05-02T09:19:52.965Z</time></trkpt><trkpt lat="45.8024332" lon="11.7497772"><ele>319.0</ele><time>2026-05-02T09:19:53.964Z</time></trkpt><trkpt lat="45.8023113" lon="11.7496703"><ele>319.0</ele><time>2026-05-02T09:19:54.965Z</time></trkpt><trkpt lat="45.8021613" lon="11.7495626"><ele>319.0</ele><time>2026-05-02T09:19:55.966Z</time></trkpt><trkpt lat="45.8020039" lon="11.7494624"><ele>319.0</ele><time>2026-05-02T09:19:56.966Z</time></trkpt><trkpt lat="45.8018566" lon="11.749358"><ele>320.75</ele><time>2026-05-02T09:19:57.965Z</time></trkpt><trkpt lat="45.8017258" lon="11.749239"><ele>322.5</ele><time>2026-05-02T09:19:58.966Z</time></trkpt><trkpt lat="45.8016158" lon="11.7490968"><ele>324.25</ele><time>2026-05-02T09:19:59.965Z</time></trkpt><trkpt lat="45.8015113" lon="11.748951"><ele>326.0</ele><time>2026-05-02T09:20:00.966Z</time></trkpt><trkpt lat="45.8014187" lon="11.7487834"><ele>326.0</ele><time>2026-05-02T09:20:01.966Z</time></trkpt><trkpt lat="45.8013269" lon="11.748613"><ele>326.0</ele><time>2026-05-02T09:20:02.966Z</time></trkpt><trkpt lat="45.8012382" lon="11.7484428"><ele>326.0</ele><time>2026-05-02T09:20:03.966Z</time></trkpt><trkpt lat="45.8011567" lon="11.7482752"><ele>326.0</ele><time>2026-05-02T09:20:04.966Z</time></trkpt><trkpt lat="45.801073" lon="11.7481069"><ele>325.25</ele><time>2026-05-02T09:20:05.966Z</time></trkpt><trkpt lat="45.8009891" lon="11.7479345"><ele>324.5</ele><time>2026-05-02T09:20:06.966Z</time></trkpt><trkpt lat="45.8009108" lon="11.747757"><ele>323.75</ele><time>2026-05-02T09:20:07.966Z</time></trkpt><trkpt lat="45.8008323" lon="11.7475976"><ele>323.0</ele><time>2026-05-02T09:20:08.965Z</time></trkpt><trkpt lat="45.8007674" lon="11.7474649"><ele>328.0</ele><time>2026-05-02T09:20:09.966Z</time></trkpt><trkpt lat="45.8007062" lon="11.7473667"><ele>333.0</ele><time>2026-05-02T09:20:10.965Z</time></trkpt><trkpt lat="45.800651" lon="11.7472879"><ele>338.0</ele><time>2026-05-02T09:20:11.966Z</time></trkpt><trkpt lat="45.8005805" lon="11.7471896"><ele>343.0</ele><time>2026-05-02T09:20:13.965Z</time></trkpt><trkpt lat="45.8005381" lon="11.7470805"><ele>348.0</ele><time>2026-05-02T09:20:15.965Z</time></trkpt><trkpt lat="45.8006084" lon="11.7469846"><ele>348.0</ele><time>2026-05-02T09:20:17.966Z</time></trkpt><trkpt lat="45.8006665" lon="11.7470266"><ele>348.0</ele><time>2026-05-02T09:20:18.966Z</time></trkpt><trkpt lat="45.8007152" lon="11.7471281"><ele>348.0</ele><time>2026-05-02T09:20:19.966Z</time></trkpt><trkpt lat="45.8007636" lon="11.7472559"><ele>348.0</ele><time>2026-05-02T09:20:20.966Z</time></trkpt><trkpt lat="45.8008228" lon="11.7473802"><ele>348.0</ele><time>2026-05-02T09:20:21.966Z</time></trkpt><trkpt lat="45.8009283" lon="11.7475025"><ele>353.3333333333333</ele><time>2026-05-02T09:20:22.965Z</time></trkpt><trkpt lat="45.8010423" lon="11.747642"><ele>358.66666666666663</ele><time>2026-05-02T09:20:23.966Z</time></trkpt><trkpt lat="45.8011829" lon="11.7478031"><ele>364.0</ele><time>2026-05-02T09:20:24.966Z</time></trkpt><trkpt lat="45.8013221" lon="11.7479673"><ele>364.0</ele><time>2026-05-02T09:20:25.966Z</time></trkpt><trkpt lat="45.8014467" lon="11.7481117"><ele>364.0</ele><time>2026-05-02T09:20:26.965Z</time></trkpt><trkpt lat="45.8015597" lon="11.7482453"><ele>364.0</ele><time>2026-05-02T09:20:27.966Z</time></trkpt><trkpt lat="45.8016586" lon="11.7483632"><ele>364.0</ele><time>2026-05-02T09:20:28.965Z</time></trkpt><trkpt lat="45.8017543" lon="11.748462"><ele>361.75</ele><time>2026-05-02T09:20:29.965Z</time></trkpt><trkpt lat="45.80185" lon="11.7485539"><ele>359.5</ele><time>2026-05-02T09:20:30.965Z</time></trkpt><trkpt lat="45.8019525" lon="11.7486381"><ele>357.25</ele><time>2026-05-02T09:20:31.965Z</time></trkpt><trkpt lat="45.8020644" lon="11.7487001"><ele>355.0</ele><time>2026-05-02T09:20:32.966Z</time></trkpt><trkpt lat="45.8021785" lon="11.7487487"><ele>355.0</ele><time>2026-05-02T09:20:33.966Z</time></trkpt><trkpt lat="45.8022985" lon="11.7487943"><ele>355.0</ele><time>2026-05-02T09:20:34.965Z</time></trkpt><trkpt lat="45.8024205" lon="11.7488028"><ele>355.0</ele><time>2026-05-02T09:20:35.965Z</time></trkpt><trkpt lat="45.8025493" lon="11.7488123"><ele>355.0</ele><time>2026-05-02T09:20:36.966Z</time></trkpt><trkpt lat="45.8026716" lon="11.7488218"><ele>364.0</ele><time>2026-05-02T09:20:37.966Z</time></trkpt><trkpt lat="45.8027921" lon="11.7488178"><ele>373.0</ele><time>2026-05-02T09:20:38.966Z</time></trkpt><trkpt lat="45.8029079" lon="11.7488405"><ele>382.0</ele><time>2026-05-02T09:20:39.965Z</time></trkpt><trkpt lat="45.8030105" lon="11.7489071"><ele>391.0</ele><time>2026-05-02T09:20:40.966Z</time></trkpt><trkpt lat="45.8031044" lon="11.7490303"><ele>391.0</ele><time>2026-05-02T09:20:41.966Z</time></trkpt><trkpt lat="45.8032002" lon="11.7491718"><ele>391.0</ele><time>2026-05-02T09:20:42.965Z</time></trkpt><trkpt lat="45.8033023" lon="11.7493328"><ele>391.0</ele><time>2026-05-02T09:20:43.966Z</time></trkpt><trkpt lat="45.8033995" lon="11.7494713"><ele>391.0</ele><time>2026-05-02T09:20:44.966Z</time></trkpt><trkpt lat="45.8034826" lon="11.7496018"><ele>392.5</ele><time>2026-05-02T09:20:45.966Z</time></trkpt><trkpt lat="45.8035658" lon="11.749742"><ele>394.0</ele><time>2026-05-02T09:20:46.965Z</time></trkpt><trkpt lat="45.8036459" lon="11.7499043"><ele>395.5</ele><time>2026-05-02T09:20:47.965Z</time></trkpt><trkpt lat="45.8037279" lon="11.7500739"><ele>397.0</ele><time>2026-05-02T09:20:48.965Z</time></trkpt><trkpt lat="45.803812" lon="11.7502396"><ele>397.0</ele><time>2026-05-02T09:20:49.966Z</time></trkpt><trkpt lat="45.803901" lon="11.7504162"><ele>397.0</ele><time>2026-05-02T09:20:50.966Z</time></trkpt><trkpt lat="45.8039894" lon="11.7506016"><ele>397.0</ele><time>2026-05-02T09:20:51.966Z</time></trkpt><trkpt lat="45.8040756" lon="11.7507863"><ele>397.0</ele><time>2026-05-02T09:20:52.965Z</time></trkpt><trkpt lat="45.8041584" lon="11.75098"><ele>397.0</ele><time>2026-05-02T09:20:53.965Z</time></trkpt><trkpt lat="45.8042334" lon="11.7511765"><ele>397.0</ele><time>2026-05-02T09:20:54.966Z</time></trkpt><trkpt lat="45.8043097" lon="11.7513445"><ele>403.0</ele><time>2026-05-02T09:20:55.967Z</time></trkpt><trkpt lat="45.804406" lon="11.7514925"><ele>409.0</ele><time>2026-05-02T09:20:56.966Z</time></trkpt><trkpt lat="45.8045356" lon="11.7516243"><ele>415.0</ele><time>2026-05-02T09:20:57.966Z</time></trkpt><trkpt lat="45.8046698" lon="11.7517553"><ele>404.33333333333337</ele><time>2026-05-02T09:20:58.967Z</time></trkpt><trkpt lat="45.8048134" lon="11.7518769"><ele>393.6666666666667</ele><time>2026-05-02T09:20:59.966Z</time></trkpt><trkpt lat="45.8049596" lon="11.7519933"><ele>383.0</ele><time>2026-05-02T09:21:00.967Z</time></trkpt><trkpt lat="45.8051016" lon="11.7521034"><ele>395.33333333333337</ele><time>2026-05-02T09:21:01.967Z</time></trkpt><trkpt lat="45.805239" lon="11.7522133"><ele>407.6666666666667</ele><time>2026-05-02T09:21:02.967Z</time></trkpt><trkpt lat="45.8053768" lon="11.7523228"><ele>420.0</ele><time>2026-05-02T09:21:03.966Z</time></trkpt><trkpt lat="45.80551" lon="11.7524331"><ele>420.0</ele><time>2026-05-02T09:21:04.967Z</time></trkpt><trkpt lat="45.80564" lon="11.7525442"><ele>420.0</ele><time>2026-05-02T09:21:05.967Z</time></trkpt><trkpt lat="45.8057747" lon="11.7526555"><ele>420.0</ele><time>2026-05-02T09:21:06.966Z</time></trkpt><trkpt lat="45.8059147" lon="11.7527709"><ele>416.66666666666663</ele><time>2026-05-02T09:21:07.966Z</time></trkpt><trkpt lat="45.8060591" lon="11.7528918"><ele>413.3333333333333</ele><time>2026-05-02T09:21:08.966Z</time></trkpt><trkpt lat="45.8062054" lon="11.7530132"><ele>410.0</ele><time>2026-05-02T09:21:09.966Z</time></trkpt><trkpt lat="45.8063511" lon="11.7531306"><ele>410.0</ele><time>2026-05-02T09:21:10.967Z</time></trkpt><trkpt lat="45.8064976" lon="11.7532289"><ele>410.0</ele><time>2026-05-02T09:21:11.966Z</time></trkpt><trkpt lat="45.8066462" lon="11.7533066"><ele>410.0</ele><time>2026-05-02T09:21:12.966Z</time></trkpt><trkpt lat="45.8067978" lon="11.7533647"><ele>415.0</ele><time>2026-05-02T09:21:13.966Z</time></trkpt><trkpt lat="45.8069429" lon="11.7533937"><ele>420.0</ele><time>2026-05-02T09:21:14.967Z</time></trkpt><trkpt lat="45.8070836" lon="11.753412"><ele>425.0</ele><time>2026-05-02T09:21:15.967Z</time></trkpt><trkpt lat="45.8072188" lon="11.7533761"><ele>430.0</ele><time>2026-05-02T09:21:16.966Z</time></trkpt><trkpt lat="45.8073577" lon="11.753328"><ele>430.0</ele><time>2026-05-02T09:21:17.966Z</time></trkpt><trkpt lat="45.8075018" lon="11.7532909"><ele>430.0</ele><time>2026-05-02T09:21:18.967Z</time></trkpt><trkpt lat="45.8076497" lon="11.7532626"><ele>430.0</ele><time>2026-05-02T09:21:19.966Z</time></trkpt><trkpt lat="45.8078036" lon="11.7532464"><ele>427.0</ele><time>2026-05-02T09:21:20.966Z</time></trkpt><trkpt lat="45.8079597" lon="11.7532073"><ele>424.0</ele><time>2026-05-02T09:21:21.967Z</time></trkpt><trkpt lat="45.8081143" lon="11.7531648"><ele>421.0</ele><time>2026-05-02T09:21:22.967Z</time></trkpt><trkpt lat="45.8082675" lon="11.7531237"><ele>421.0</ele><time>2026-05-02T09:21:23.967Z</time></trkpt><trkpt lat="45.8084171" lon="11.7530801"><ele>421.0</ele><time>2026-05-02T09:21:24.966Z</time></trkpt><trkpt lat="45.8085679" lon="11.7530221"><ele>421.0</ele><time>2026-05-02T09:21:25.967Z</time></trkpt><trkpt lat="45.8087209" lon="11.7529475"><ele>419.5</ele><time>2026-05-02T09:21:26.966Z</time></trkpt><trkpt lat="45.8088762" lon="11.752867"><ele>418.0</ele><time>2026-05-02T09:21:27.967Z</time></trkpt><trkpt lat="45.8090206" lon="11.7528033"><ele>416.5</ele><time>2026-05-02T09:21:28.966Z</time></trkpt><trkpt lat="45.8091494" lon="11.7527551"><ele>415.0</ele><time>2026-05-02T09:21:29.966Z</time></trkpt><trkpt lat="45.8092752" lon="11.7527045"><ele>420.75</ele><time>2026-05-02T09:21:30.966Z</time></trkpt><trkpt lat="45.8093963" lon="11.7526597"><ele>426.5</ele><time>2026-05-02T09:21:31.967Z</time></trkpt><trkpt lat="45.8095126" lon="11.7526074"><ele>432.25</ele><time>2026-05-02T09:21:32.967Z</time></trkpt><trkpt lat="45.8096217" lon="11.7525171"><ele>438.0</ele><time>2026-05-02T09:21:33.967Z</time></trkpt><trkpt lat="45.8097237" lon="11.752403"><ele>438.0</ele><time>2026-05-02T09:21:34.967Z</time></trkpt><trkpt lat="45.80982" lon="11.752279"><ele>438.0</ele><time>2026-05-02T09:21:35.967Z</time></trkpt><trkpt lat="45.8099162" lon="11.7521558"><ele>438.0</ele><time>2026-05-02T09:21:36.966Z</time></trkpt><trkpt lat="45.8100191" lon="11.7520452"><ele>438.0</ele><time>2026-05-02T09:21:37.966Z</time></trkpt><trkpt lat="45.8101402" lon="11.7520172"><ele>433.4</ele><time>2026-05-02T09:21:38.967Z</time></trkpt><trkpt lat="45.810263" lon="11.7519889"><ele>428.79999999999995</ele><time>2026-05-02T09:21:39.966Z</time></trkpt><trkpt lat="45.8103764" lon="11.7519681"><ele>424.2</ele><time>2026-05-02T09:21:40.966Z</time></trkpt><trkpt lat="45.8104661" lon="11.751958"><ele>419.6</ele><time>2026-05-02T09:21:41.966Z</time></trkpt><trkpt lat="45.8105367" lon="11.7519476"><ele>415.0</ele><time>2026-05-02T09:21:42.967Z</time></trkpt><trkpt lat="45.8106063" lon="11.7519421"><ele>415.0</ele><time>2026-05-02T09:21:43.967Z</time></trkpt><trkpt lat="45.8107214" lon="11.7519011"><ele>415.0</ele><time>2026-05-02T09:21:45.966Z</time></trkpt><trkpt lat="45.8107265" lon="11.7517293"><ele>415.0</ele><time>2026-05-02T09:21:47.966Z</time></trkpt><trkpt lat="45.8106598" lon="11.7517053"><ele>415.0</ele><time>2026-05-02T09:21:48.966Z</time></trkpt><trkpt lat="45.8105815" lon="11.7517032"><ele>415.0</ele><time>2026-05-02T09:21:49.967Z</time></trkpt><trkpt lat="45.8104657" lon="11.751753"><ele>425.0</ele><time>2026-05-02T09:21:50.966Z</time></trkpt><trkpt lat="45.8103314" lon="11.7517928"><ele>435.0</ele><time>2026-05-02T09:21:51.966Z</time></trkpt><trkpt lat="45.8101832" lon="11.751827"><ele>445.0</ele><time>2026-05-02T09:21:52.967Z</time></trkpt><trkpt lat="45.8100361" lon="11.7518462"><ele>455.0</ele><time>2026-05-02T09:21:53.967Z</time></trkpt><trkpt lat="45.8099004" lon="11.7518679"><ele>450.75</ele><time>2026-05-02T09:21:54.966Z</time></trkpt><trkpt lat="45.8097882" lon="11.7519336"><ele>446.5</ele><time>2026-05-02T09:21:55.967Z</time></trkpt><trkpt lat="45.8096826" lon="11.7520304"><ele>442.25</ele><time>2026-05-02T09:21:56.967Z</time></trkpt><trkpt lat="45.8095774" lon="11.7521115"><ele>438.0</ele><time>2026-05-02T09:21:57.967Z</time></trkpt><trkpt lat="45.8094739" lon="11.7521645"><ele>438.0</ele><time>2026-05-02T09:21:58.966Z</time></trkpt><trkpt lat="45.8093644" lon="11.7522064"><ele>438.0</ele><time>2026-05-02T09:21:59.966Z</time></trkpt><trkpt lat="45.8092531" lon="11.7522345"><ele>438.0</ele><time>2026-05-02T09:22:00.968Z</time></trkpt><trkpt lat="45.8091403" lon="11.752261"><ele>438.0</ele><time>2026-05-02T09:22:01.968Z</time></trkpt><trkpt lat="45.8090263" lon="11.7522901"><ele>442.75</ele><time>2026-05-02T09:22:02.967Z</time></trkpt><trkpt lat="45.8089111" lon="11.7523137"><ele>447.5</ele><time>2026-05-02T09:22:03.968Z</time></trkpt><trkpt lat="45.8087959" lon="11.7523307"><ele>452.25</ele><time>2026-05-02T09:22:04.967Z</time></trkpt><trkpt lat="45.8086814" lon="11.7523446"><ele>457.0</ele><time>2026-05-02T09:22:05.967Z</time></trkpt><trkpt lat="45.8085614" lon="11.7523625"><ele>459.75</ele><time>2026-05-02T09:22:06.968Z</time></trkpt><trkpt lat="45.8084402" lon="11.7523753"><ele>462.5</ele><time>2026-05-02T09:22:07.967Z</time></trkpt><trkpt lat="45.8083169" lon="11.7523781"><ele>465.25</ele><time>2026-05-02T09:22:08.968Z</time></trkpt><trkpt lat="45.808189" lon="11.7523728"><ele>468.0</ele><time>2026-05-02T09:22:09.968Z</time></trkpt><trkpt lat="45.8080608" lon="11.7523605"><ele>468.0</ele><time>2026-05-02T09:22:10.967Z</time></trkpt><trkpt lat="45.8079328" lon="11.752346"><ele>468.0</ele><time>2026-05-02T09:22:11.968Z</time></trkpt><trkpt lat="45.8078074" lon="11.7523325"><ele>468.0</ele><time>2026-05-02T09:22:12.968Z</time></trkpt><trkpt lat="45.807682" lon="11.752318"><ele>468.0</ele><time>2026-05-02T09:22:13.967Z</time></trkpt><trkpt lat="45.8075581" lon="11.7523019"><ele>467.79999999999995</ele><time>2026-05-02T09:22:14.968Z</time></trkpt><trkpt lat="45.8074431" lon="11.7522855"><ele>467.59999999999997</ele><time>2026-05-02T09:22:15.968Z</time></trkpt><trkpt lat="45.807348" lon="11.7522694"><ele>467.40000000000003</ele><time>2026-05-02T09:22:16.967Z</time></trkpt><trkpt lat="45.8072516" lon="11.7522416"><ele>467.20000000000005</ele><time>2026-05-02T09:22:17.968Z</time></trkpt><trkpt lat="45.8071512" lon="11.7521899"><ele>467.0</ele><time>2026-05-02T09:22:18.967Z</time></trkpt><trkpt lat="45.8070458" lon="11.7521083"><ele>467.0</ele><time>2026-05-02T09:22:19.968Z</time></trkpt><trkpt lat="45.8069344" lon="11.7520117"><ele>467.0</ele><time>2026-05-02T09:22:20.968Z</time></trkpt><trkpt lat="45.806823" lon="11.7519135"><ele>467.0</ele><time>2026-05-02T09:22:21.967Z</time></trkpt><trkpt lat="45.8067225" lon="11.7518121"><ele>467.0</ele><time>2026-05-02T09:22:22.968Z</time></trkpt><trkpt lat="45.8066361" lon="11.7516945"><ele>473.75</ele><time>2026-05-02T09:22:23.967Z</time></trkpt><trkpt lat="45.806562" lon="11.7515527"><ele>480.5</ele><time>2026-05-02T09:22:24.968Z</time></trkpt><trkpt lat="45.8064914" lon="11.7513991"><ele>487.25</ele><time>2026-05-02T09:22:25.968Z</time></trkpt><trkpt lat="45.8064104" lon="11.7512375"><ele>494.0</ele><time>2026-05-02T09:22:26.968Z</time></trkpt><trkpt lat="45.8063233" lon="11.7510726"><ele>492.75</ele><time>2026-05-02T09:22:27.968Z</time></trkpt><trkpt lat="45.806234" lon="11.7509124"><ele>491.5</ele><time>2026-05-02T09:22:28.968Z</time></trkpt><trkpt lat="45.8061406" lon="11.7507628"><ele>490.25</ele><time>2026-05-02T09:22:29.967Z</time></trkpt><trkpt lat="45.8060491" lon="11.7506242"><ele>489.0</ele><time>2026-05-02T09:22:30.968Z</time></trkpt><trkpt lat="45.8059532" lon="11.7505256"><ele>489.0</ele><time>2026-05-02T09:22:31.968Z</time></trkpt><trkpt lat="45.8058529" lon="11.7504373"><ele>489.0</ele><time>2026-05-02T09:22:32.968Z</time></trkpt><trkpt lat="45.8057521" lon="11.7503494"><ele>489.0</ele><time>2026-05-02T09:22:33.967Z</time></trkpt><trkpt lat="45.8056575" lon="11.7502743"><ele>489.0</ele><time>2026-05-02T09:22:34.967Z</time></trkpt><trkpt lat="45.80558" lon="11.7502043"><ele>489.0</ele><time>2026-05-02T09:22:35.967Z</time></trkpt><trkpt lat="45.8055138" lon="11.7501156"><ele>497.25</ele><time>2026-05-02T09:22:36.967Z</time></trkpt><trkpt lat="45.8054512" lon="11.7500137"><ele>505.5</ele><time>2026-05-02T09:22:37.967Z</time></trkpt><trkpt lat="45.8054124" lon="11.7498742"><ele>513.75</ele><time>2026-05-02T09:22:38.968Z</time></trkpt><trkpt lat="45.8053798" lon="11.7496977"><ele>522.0</ele><time>2026-05-02T09:22:39.967Z</time></trkpt><trkpt lat="45.8053321" lon="11.7494955"><ele>514.0</ele><time>2026-05-02T09:22:40.968Z</time></trkpt><trkpt lat="45.8052729" lon="11.7492746"><ele>506.0</ele><time>2026-05-02T09:22:41.967Z</time></trkpt><trkpt lat="45.8052072" lon="11.7490386"><ele>498.0</ele><time>2026-05-02T09:22:42.968Z</time></trkpt><trkpt lat="45.8051413" lon="11.748795"><ele>498.0</ele><time>2026-05-02T09:22:43.967Z</time></trkpt><trkpt lat="45.8050752" lon="11.7485656"><ele>498.0</ele><time>2026-05-02T09:22:44.967Z</time></trkpt><trkpt lat="45.8050139" lon="11.7483582"><ele>498.0</ele><time>2026-05-02T09:22:45.967Z</time></trkpt><trkpt lat="45.8049566" lon="11.7481581"><ele>506.0</ele><time>2026-05-02T09:22:46.967Z</time></trkpt><trkpt lat="45.804897" lon="11.7479603"><ele>514.0</ele><time>2026-05-02T09:22:47.968Z</time></trkpt><trkpt lat="45.8048304" lon="11.7477626"><ele>522.0</ele><time>2026-05-02T09:22:48.967Z</time></trkpt><trkpt lat="45.804747" lon="11.7475562"><ele>530.3333333333334</ele><time>2026-05-02T09:22:49.968Z</time></trkpt><trkpt lat="45.8046556" lon="11.7473433"><ele>538.6666666666667</ele><time>2026-05-02T09:22:50.968Z</time></trkpt><trkpt lat="45.8045285" lon="11.7471135"><ele>547.0</ele><time>2026-05-02T09:22:51.968Z</time></trkpt><trkpt lat="45.804371" lon="11.7468824"><ele>540.0</ele><time>2026-05-02T09:22:52.967Z</time></trkpt><trkpt lat="45.8042262" lon="11.7466548"><ele>533.0</ele><time>2026-05-02T09:22:53.968Z</time></trkpt><trkpt lat="45.8040971" lon="11.746449"><ele>526.0</ele><time>2026-05-02T09:22:54.967Z</time></trkpt><trkpt lat="45.8039755" lon="11.7462612"><ele>526.0</ele><time>2026-05-02T09:22:55.968Z</time></trkpt><trkpt lat="45.8038863" lon="11.746077"><ele>526.0</ele><time>2026-05-02T09:22:56.968Z</time></trkpt><trkpt lat="45.8038227" lon="11.7458846"><ele>526.0</ele><time>2026-05-02T09:22:57.968Z</time></trkpt><trkpt lat="45.8037892" lon="11.7456898"><ele>526.0</ele><time>2026-05-02T09:22:58.968Z</time></trkpt><trkpt lat="45.8037933" lon="11.7455081"><ele>531.5</ele><time>2026-05-02T09:22:59.968Z</time></trkpt><trkpt lat="45.8038296" lon="11.74534"><ele>537.0</ele><time>2026-05-02T09:23:00.968Z</time></trkpt><trkpt lat="45.8038761" lon="11.7451849"><ele>542.5</ele><time>2026-05-02T09:23:01.969Z</time></trkpt><trkpt lat="45.8039187" lon="11.7450327"><ele>548.0</ele><time>2026-05-02T09:23:02.969Z</time></trkpt><trkpt lat="45.8039442" lon="11.7448792"><ele>549.6666666666666</ele><time>2026-05-02T09:23:03.968Z</time></trkpt><trkpt lat="45.8039524" lon="11.7447441"><ele>551.3333333333333</ele><time>2026-05-02T09:23:04.968Z</time></trkpt><trkpt lat="45.803952" lon="11.7446288"><ele>553.0</ele><time>2026-05-02T09:23:05.968Z</time></trkpt><trkpt lat="45.8039358" lon="11.7445265"><ele>554.6666666666666</ele><time>2026-05-02T09:23:06.969Z</time></trkpt><trkpt lat="45.8038919" lon="11.7444444"><ele>556.3333333333334</ele><time>2026-05-02T09:23:07.969Z</time></trkpt><trkpt lat="45.8038398" lon="11.7443801"><ele>558.0</ele><time>2026-05-02T09:23:08.968Z</time></trkpt><trkpt lat="45.8037624" lon="11.7443663"><ele>558.0</ele><time>2026-05-02T09:23:09.968Z</time></trkpt><trkpt lat="45.8036703" lon="11.7444055"><ele>558.0</ele><time>2026-05-02T09:23:10.969Z</time></trkpt><trkpt lat="45.8035616" lon="11.7444579"><ele>558.0</ele><time>2026-05-02T09:23:11.969Z</time></trkpt><trkpt lat="45.8034602" lon="11.7444947"><ele>558.0</ele><time>2026-05-02T09:23:12.969Z</time></trkpt><trkpt lat="45.8033433" lon="11.7444694"><ele>558.0</ele><time>2026-05-02T09:23:13.969Z</time></trkpt><trkpt lat="45.8032259" lon="11.7443702"><ele>557.1999999999999</ele><time>2026-05-02T09:23:14.968Z</time></trkpt><trkpt lat="45.8031163" lon="11.744259"><ele>556.4</ele><time>2026-05-02T09:23:15.968Z</time></trkpt><trkpt lat="45.8030162" lon="11.7441675"><ele>555.5999999999999</ele><time>2026-05-02T09:23:16.969Z</time></trkpt><trkpt lat="45.802925" lon="11.7441145"><ele>554.8</ele><time>2026-05-02T09:23:17.969Z</time></trkpt><trkpt lat="45.8028449" lon="11.7440849"><ele>554.0</ele><time>2026-05-02T09:23:18.969Z</time></trkpt><trkpt lat="45.8027807" lon="11.7440426"><ele>554.0</ele><time>2026-05-02T09:23:19.969Z</time></trkpt><trkpt lat="45.8027399" lon="11.7439669"><ele>554.0</ele><time>2026-05-02T09:23:20.969Z</time></trkpt><trkpt lat="45.8027962" lon="11.7438227"><ele>554.0</ele><time>2026-05-02T09:23:22.968Z</time></trkpt><trkpt lat="45.8028754" lon="11.7438218"><ele>554.0</ele><time>2026-05-02T09:23:23.969Z</time></trkpt><trkpt lat="45.8029722" lon="11.7438668"><ele>554.0</ele><time>2026-05-02T09:23:24.968Z</time></trkpt><trkpt lat="45.8030592" lon="11.7439185"><ele>554.0</ele><time>2026-05-02T09:23:25.969Z</time></trkpt><trkpt lat="45.8031524" lon="11.7439671"><ele>554.0</ele><time>2026-05-02T09:23:26.969Z</time></trkpt><trkpt lat="45.8032545" lon="11.7440173"><ele>554.0</ele><time>2026-05-02T09:23:27.968Z</time></trkpt><trkpt lat="45.8033787" lon="11.7440428"><ele>554.0</ele><time>2026-05-02T09:23:28.969Z</time></trkpt><trkpt lat="45.803515" lon="11.7440275"><ele>557.3333333333333</ele><time>2026-05-02T09:23:29.969Z</time></trkpt><trkpt lat="45.8036596" lon="11.7439792"><ele>560.6666666666666</ele><time>2026-05-02T09:23:30.969Z</time></trkpt><trkpt lat="45.8038087" lon="11.7439137"><ele>564.0</ele><time>2026-05-02T09:23:31.968Z</time></trkpt><trkpt lat="45.8039546" lon="11.7438326"><ele>564.0</ele><time>2026-05-02T09:23:32.968Z</time></trkpt><trkpt lat="45.8040797" lon="11.7437576"><ele>564.0</ele><time>2026-05-02T09:23:33.968Z</time></trkpt><trkpt lat="45.804185" lon="11.743702"><ele>564.0</ele><time>2026-05-02T09:23:34.968Z</time></trkpt><trkpt lat="45.8042766" lon="11.7436933"><ele>564.0</ele><time>2026-05-02T09:23:35.968Z</time></trkpt><trkpt lat="45.8043492" lon="11.7437475"><ele>564.0</ele><time>2026-05-02T09:23:36.969Z</time></trkpt><trkpt lat="45.8043905" lon="11.7438615"><ele>571.25</ele><time>2026-05-02T09:23:37.968Z</time></trkpt><trkpt lat="45.80441" lon="11.7440199"><ele>578.5</ele><time>2026-05-02T09:23:38.968Z</time></trkpt><trkpt lat="45.8044252" lon="11.7441987"><ele>585.75</ele><time>2026-05-02T09:23:39.968Z</time></trkpt><trkpt lat="45.8044499" lon="11.7443912"><ele>593.0</ele><time>2026-05-02T09:23:40.968Z</time></trkpt><trkpt lat="45.8044892" lon="11.744593"><ele>593.0</ele><time>2026-05-02T09:23:41.969Z</time></trkpt><trkpt lat="45.8045451" lon="11.7447918"><ele>593.0</ele><time>2026-05-02T09:23:42.968Z</time></trkpt><trkpt lat="45.8046223" lon="11.7449757"><ele>593.0</ele><time>2026-05-02T09:23:43.969Z</time></trkpt><trkpt lat="45.8047174" lon="11.7451535"><ele>590.6666666666666</ele><time>2026-05-02T09:23:44.968Z</time></trkpt><trkpt lat="45.8048098" lon="11.7453432"><ele>588.3333333333334</ele><time>2026-05-02T09:23:45.968Z</time></trkpt><trkpt lat="45.8048855" lon="11.7455722"><ele>586.0</ele><time>2026-05-02T09:23:46.969Z</time></trkpt><trkpt lat="45.804945" lon="11.745803"><ele>586.0</ele><time>2026-05-02T09:23:47.969Z</time></trkpt><trkpt lat="45.804995" lon="11.7460071"><ele>586.0</ele><time>2026-05-02T09:23:48.968Z</time></trkpt><trkpt lat="45.8050399" lon="11.7461866"><ele>586.0</ele><time>2026-05-02T09:23:49.968Z</time></trkpt><trkpt lat="45.8050871" lon="11.7463584"><ele>586.0</ele><time>2026-05-02T09:23:50.968Z</time></trkpt><trkpt lat="45.8051471" lon="11.7465288"><ele>588.5</ele><time>2026-05-02T09:23:51.968Z</time></trkpt><trkpt lat="45.8052228" lon="11.7466927"><ele>591.0</ele><time>2026-05-02T09:23:52.968Z</time></trkpt><trkpt lat="45.8053061" lon="11.7468593"><ele>593.5</ele><time>2026-05-02T09:23:53.969Z</time></trkpt><trkpt lat="45.8053848" lon="11.7470401"><ele>596.0</ele><time>2026-05-02T09:23:54.968Z</time></trkpt><trkpt lat="45.805459" lon="11.7472345"><ele>596.0</ele><time>2026-05-02T09:23:55.969Z</time></trkpt><trkpt lat="45.8055342" lon="11.7474289"><ele>596.0</ele><time>2026-05-02T09:23:56.969Z</time></trkpt><trkpt lat="45.8056109" lon="11.7476047"><ele>596.0</ele><time>2026-05-02T09:23:57.969Z</time></trkpt><trkpt lat="45.8057019" lon="11.7477626"><ele>596.0</ele><time>2026-05-02T09:23:58.969Z</time></trkpt><trkpt lat="45.8058078" lon="11.7479034"><ele>596.75</ele><time>2026-05-02T09:23:59.969Z</time></trkpt><trkpt lat="45.8059227" lon="11.7480383"><ele>597.5</ele><time>2026-05-02T09:24:00.968Z</time></trkpt><trkpt lat="45.8060282" lon="11.7481623"><ele>598.25</ele><time>2026-05-02T09:24:01.969Z</time></trkpt><trkpt lat="45.80612" lon="11.7482716"><ele>599.0</ele><time>2026-05-02T09:24:02.969Z</time></trkpt><trkpt lat="45.8062025" lon="11.7483581"><ele>599.0</ele><time>2026-05-02T09:24:03.97Z</time></trkpt><trkpt lat="45.8062822" lon="11.748414"><ele>599.0</ele><time>2026-05-02T09:24:04.969Z</time></trkpt><trkpt lat="45.8063617" lon="11.7484193"><ele>599.0</ele><time>2026-05-02T09:24:05.97Z</time></trkpt><trkpt lat="45.8064298" lon="11.7483651"><ele>599.0</ele><time>2026-05-02T09:24:06.97Z</time></trkpt><trkpt lat="45.8064563" lon="11.7482658"><ele>599.0</ele><time>2026-05-02T09:24:07.97Z</time></trkpt><trkpt lat="45.8064261" lon="11.7481498"><ele>599.0</ele><time>2026-05-02T09:24:08.97Z</time></trkpt><trkpt lat="45.8063499" lon="11.7480468"><ele>599.0</ele><time>2026-05-02T09:24:09.97Z</time></trkpt><trkpt lat="45.8062488" lon="11.747953"><ele>599.0</ele><time>2026-05-02T09:24:10.969Z</time></trkpt><trkpt lat="45.8061467" lon="11.7478415"><ele>599.0</ele><time>2026-05-02T09:24:11.969Z</time></trkpt><trkpt lat="45.8060555" lon="11.74769"><ele>599.0</ele><time>2026-05-02T09:24:12.97Z</time></trkpt><trkpt lat="45.8059732" lon="11.747503"><ele>598.0</ele><time>2026-05-02T09:24:13.969Z</time></trkpt><trkpt lat="45.8058968" lon="11.7472998"><ele>597.0</ele><time>2026-05-02T09:24:14.97Z</time></trkpt><trkpt lat="45.805829" lon="11.7471004"><ele>596.0</ele><time>2026-05-02T09:24:15.97Z</time></trkpt><trkpt lat="45.8057833" lon="11.7468897"><ele>602.0</ele><time>2026-05-02T09:24:16.969Z</time></trkpt><trkpt lat="45.8057511" lon="11.7466691"><ele>608.0</ele><time>2026-05-02T09:24:17.97Z</time></trkpt><trkpt lat="45.8057365" lon="11.7464327"><ele>614.0</ele><time>2026-05-02T09:24:18.97Z</time></trkpt><trkpt lat="45.8057352" lon="11.7461905"><ele>615.25</ele><time>2026-05-02T09:24:19.97Z</time></trkpt><trkpt lat="45.8057485" lon="11.745967"><ele>616.5</ele><time>2026-05-02T09:24:20.969Z</time></trkpt><trkpt lat="45.8057748" lon="11.7457642"><ele>617.75</ele><time>2026-05-02T09:24:21.97Z</time></trkpt><trkpt lat="45.8058081" lon="11.7455694"><ele>619.0</ele><time>2026-05-02T09:24:22.97Z</time></trkpt><trkpt lat="45.8058288" lon="11.7453681"><ele>620.5</ele><time>2026-05-02T09:24:23.969Z</time></trkpt><trkpt lat="45.8058155" lon="11.7451624"><ele>622.0</ele><time>2026-05-02T09:24:24.97Z</time></trkpt><trkpt lat="45.8057704" lon="11.7449572"><ele>623.5</ele><time>2026-05-02T09:24:25.97Z</time></trkpt><trkpt lat="45.8057215" lon="11.7447471"><ele>625.0</ele><time>2026-05-02T09:24:26.97Z</time></trkpt><trkpt lat="45.8056908" lon="11.7445288"><ele>628.0</ele><time>2026-05-02T09:24:27.969Z</time></trkpt><trkpt lat="45.8056677" lon="11.7443139"><ele>631.0</ele><time>2026-05-02T09:24:28.969Z</time></trkpt><trkpt lat="45.8056848" lon="11.7440882"><ele>634.0</ele><time>2026-05-02T09:24:29.97Z</time></trkpt><trkpt lat="45.8057139" lon="11.7438576"><ele>634.0</ele><time>2026-05-02T09:24:30.97Z</time></trkpt><trkpt lat="45.8057632" lon="11.7436263"><ele>634.0</ele><time>2026-05-02T09:24:31.969Z</time></trkpt><trkpt lat="45.8058315" lon="11.7434079"><ele>634.0</ele><time>2026-05-02T09:24:32.97Z</time></trkpt><trkpt lat="45.8058997" lon="11.743218"><ele>633.6</ele><time>2026-05-02T09:24:33.97Z</time></trkpt><trkpt lat="45.8059589" lon="11.7430412"><ele>633.2</ele><time>2026-05-02T09:24:34.969Z</time></trkpt><trkpt lat="45.8060067" lon="11.742876"><ele>632.8000000000001</ele><time>2026-05-02T09:24:35.969Z</time></trkpt><trkpt lat="45.8060374" lon="11.7427347"><ele>632.4</ele><time>2026-05-02T09:24:36.969Z</time></trkpt><trkpt lat="45.8060568" lon="11.7426162"><ele>632.0</ele><time>2026-05-02T09:24:37.969Z</time></trkpt><trkpt lat="45.8060727" lon="11.7425109"><ele>638.4000000000001</ele><time>2026-05-02T09:24:38.97Z</time></trkpt><trkpt lat="45.8061001" lon="11.7424266"><ele>644.8000000000001</ele><time>2026-05-02T09:24:39.969Z</time></trkpt><trkpt lat="45.806206" lon="11.7424046"><ele>651.2</ele><time>2026-05-02T09:24:41.97Z</time></trkpt><trkpt lat="45.8062142" lon="11.7425886"><ele>657.6</ele><time>2026-05-02T09:24:43.969Z</time></trkpt><trkpt lat="45.8061829" lon="11.7427208"><ele>664.0</ele><time>2026-05-02T09:24:44.97Z</time></trkpt><trkpt lat="45.8061513" lon="11.7428637"><ele>664.0</ele><time>2026-05-02T09:24:45.969Z</time></trkpt><trkpt lat="45.8061199" lon="11.74304"><ele>664.0</ele><time>2026-05-02T09:24:46.97Z</time></trkpt><trkpt lat="45.8060911" lon="11.743225"><ele>664.0</ele><time>2026-05-02T09:24:47.97Z</time></trkpt><trkpt lat="45.8061057" lon="11.7434277"><ele>664.0</ele><time>2026-05-02T09:24:48.969Z</time></trkpt><trkpt lat="45.8061541" lon="11.7436331"><ele>662.0</ele><time>2026-05-02T09:24:49.969Z</time></trkpt><trkpt lat="45.8062246" lon="11.743841"><ele>660.0</ele><time>2026-05-02T09:24:50.97Z</time></trkpt><trkpt lat="45.8063047" lon="11.7440491"><ele>658.0</ele><time>2026-05-02T09:24:51.97Z</time></trkpt><trkpt lat="45.8063985" lon="11.7442439"><ele>656.0</ele><time>2026-05-02T09:24:52.969Z</time></trkpt><trkpt lat="45.8064965" lon="11.7444054"><ele>654.0</ele><time>2026-05-02T09:24:53.969Z</time></trkpt><trkpt lat="45.8065954" lon="11.7445338"><ele>652.0</ele><time>2026-05-02T09:24:54.969Z</time></trkpt><trkpt lat="45.8066972" lon="11.7446354"><ele>650.0</ele><time>2026-05-02T09:24:55.969Z</time></trkpt><trkpt lat="45.8068059" lon="11.7447131"><ele>652.75</ele><time>2026-05-02T09:24:56.969Z</time></trkpt><trkpt lat="45.8069198" lon="11.7447664"><ele>655.5</ele><time>2026-05-02T09:24:57.969Z</time></trkpt><trkpt lat="45.807038" lon="11.7447969"><ele>658.25</ele><time>2026-05-02T09:24:58.969Z</time></trkpt><trkpt lat="45.8071608" lon="11.7448062"><ele>661.0</ele><time>2026-05-02T09:24:59.969Z</time></trkpt><trkpt lat="45.8072839" lon="11.7447885"><ele>661.0</ele><time>2026-05-02T09:25:00.969Z</time></trkpt><trkpt lat="45.807405" lon="11.7447387"><ele>661.0</ele><time>2026-05-02T09:25:01.97Z</time></trkpt><trkpt lat="45.8075231" lon="11.744659"><ele>661.0</ele><time>2026-05-02T09:25:02.971Z</time></trkpt><trkpt lat="45.8076372" lon="11.7445527"><ele>661.0</ele><time>2026-05-02T09:25:03.97Z</time></trkpt><trkpt lat="45.8077521" lon="11.7444225"><ele>663.0</ele><time>2026-05-02T09:25:04.97Z</time></trkpt><trkpt lat="45.8078682" lon="11.744284"><ele>665.0</ele><time>2026-05-02T09:25:05.971Z</time></trkpt><trkpt lat="45.8079838" lon="11.7441499"><ele>667.0</ele><time>2026-05-02T09:25:06.971Z</time></trkpt><trkpt lat="45.8080949" lon="11.7440217"><ele>669.0</ele><time>2026-05-02T09:25:07.97Z</time></trkpt><trkpt lat="45.8082033" lon="11.7438956"><ele>669.0</ele><time>2026-05-02T09:25:08.97Z</time></trkpt><trkpt lat="45.8083098" lon="11.743772"><ele>669.0</ele><time>2026-05-02T09:25:09.971Z</time></trkpt><trkpt lat="45.8084159" lon="11.7436559"><ele>669.0</ele><time>2026-05-02T09:25:10.971Z</time></trkpt><trkpt lat="45.808533" lon="11.7435572"><ele>669.0</ele><time>2026-05-02T09:25:11.97Z</time></trkpt><trkpt lat="45.8086489" lon="11.7434743"><ele>673.6</ele><time>2026-05-02T09:25:12.971Z</time></trkpt><trkpt lat="45.8087701" lon="11.7434251"><ele>678.2</ele><time>2026-05-02T09:25:13.97Z</time></trkpt><trkpt lat="45.8088672" lon="11.7433818"><ele>682.8000000000001</ele><time>2026-05-02T09:25:14.971Z</time></trkpt><trkpt lat="45.8089549" lon="11.743347"><ele>687.4000000000001</ele><time>2026-05-02T09:25:15.97Z</time></trkpt><trkpt lat="45.8090307" lon="11.74332"><ele>692.0</ele><time>2026-05-02T09:25:16.97Z</time></trkpt><trkpt lat="45.809106" lon="11.7432987"><ele>692.0</ele><time>2026-05-02T09:25:17.97Z</time></trkpt><trkpt lat="45.8091794" lon="11.7432858"><ele>692.0</ele><time>2026-05-02T09:25:18.97Z</time></trkpt><trkpt lat="45.8092499" lon="11.7432742"><ele>692.0</ele><time>2026-05-02T09:25:19.97Z</time></trkpt><trkpt lat="45.8093172" lon="11.7432599"><ele>692.0</ele><time>2026-05-02T09:25:20.971Z</time></trkpt><trkpt lat="45.8093854" lon="11.7432489"><ele>692.0</ele><time>2026-05-02T09:25:21.97Z</time></trkpt><trkpt lat="45.8094585" lon="11.7432607"><ele>692.0</ele><time>2026-05-02T09:25:22.971Z</time></trkpt><trkpt lat="45.8095281" lon="11.7433186"><ele>692.0</ele><time>2026-05-02T09:25:23.97Z</time></trkpt><trkpt lat="45.80958" lon="11.7434254"><ele>693.6666666666666</ele><time>2026-05-02T09:25:24.971Z</time></trkpt><trkpt lat="45.8096114" lon="11.7435326"><ele>695.3333333333333</ele><time>2026-05-02T09:25:25.971Z</time></trkpt><trkpt lat="45.8096242" lon="11.7436613"><ele>697.0</ele><time>2026-05-02T09:25:27.971Z</time></trkpt><trkpt lat="45.8096268" lon="11.7437658"><ele>698.6666666666666</ele><time>2026-05-02T09:25:29.97Z</time></trkpt><trkpt lat="45.8096434" lon="11.7438991"><ele>700.3333333333334</ele><time>2026-05-02T09:25:31.97Z</time></trkpt><trkpt lat="45.8096831" lon="11.7439938"><ele>702.0</ele><time>2026-05-02T09:25:32.971Z</time></trkpt><trkpt lat="45.8097406" lon="11.7440995"><ele>702.0</ele><time>2026-05-02T09:25:33.971Z</time></trkpt><trkpt lat="45.8098139" lon="11.7442101"><ele>702.0</ele><time>2026-05-02T09:25:34.97Z</time></trkpt><trkpt lat="45.8099003" lon="11.7443137"><ele>702.0</ele><time>2026-05-02T09:25:35.97Z</time></trkpt><trkpt lat="45.8099843" lon="11.7444169"><ele>702.0</ele><time>2026-05-02T09:25:36.971Z</time></trkpt><trkpt lat="45.8100427" lon="11.7445361"><ele>702.0</ele><time>2026-05-02T09:25:37.971Z</time></trkpt><trkpt lat="45.8100716" lon="11.7446738"><ele>701.0</ele><time>2026-05-02T09:25:38.97Z</time></trkpt><trkpt lat="45.8100708" lon="11.744825"><ele>700.0</ele><time>2026-05-02T09:25:39.971Z</time></trkpt><trkpt lat="45.8100552" lon="11.7449864"><ele>699.0</ele><time>2026-05-02T09:25:40.971Z</time></trkpt><trkpt lat="45.810046" lon="11.7451355"><ele>698.0</ele><time>2026-05-02T09:25:41.97Z</time></trkpt><trkpt lat="45.8100491" lon="11.7452786"><ele>697.0</ele><time>2026-05-02T09:25:42.971Z</time></trkpt><trkpt lat="45.8100678" lon="11.7454171"><ele>696.8333333333334</ele><time>2026-05-02T09:25:43.971Z</time></trkpt><trkpt lat="45.8101015" lon="11.7455397"><ele>696.6666666666667</ele><time>2026-05-02T09:25:44.97Z</time></trkpt><trkpt lat="45.8101401" lon="11.7456348"><ele>696.5</ele><time>2026-05-02T09:25:45.971Z</time></trkpt><trkpt lat="45.8101769" lon="11.7457138"><ele>696.3333333333334</ele><time>2026-05-02T09:25:46.97Z</time></trkpt><trkpt lat="45.8102622" lon="11.7458451"><ele>696.1666666666666</ele><time>2026-05-02T09:25:48.97Z</time></trkpt><trkpt lat="45.8103275" lon="11.7458973"><ele>696.0</ele><time>2026-05-02T09:25:49.971Z</time></trkpt><trkpt lat="45.8104122" lon="11.7459303"><ele>699.5</ele><time>2026-05-02T09:25:50.971Z</time></trkpt><trkpt lat="45.8105104" lon="11.7459508"><ele>703.0</ele><time>2026-05-02T09:25:51.971Z</time></trkpt><trkpt lat="45.8106255" lon="11.7459664"><ele>706.5</ele><time>2026-05-02T09:25:52.971Z</time></trkpt><trkpt lat="45.8107585" lon="11.7459719"><ele>710.0</ele><time>2026-05-02T09:25:53.971Z</time></trkpt><trkpt lat="45.8109088" lon="11.7459616"><ele>712.6666666666666</ele><time>2026-05-02T09:25:54.97Z</time></trkpt><trkpt lat="45.8110754" lon="11.7459354"><ele>715.3333333333334</ele><time>2026-05-02T09:25:55.971Z</time></trkpt><trkpt lat="45.8112593" lon="11.7459051"><ele>718.0</ele><time>2026-05-02T09:25:56.971Z</time></trkpt><trkpt lat="45.8114524" lon="11.7458757"><ele>718.0</ele><time>2026-05-02T09:25:57.97Z</time></trkpt><trkpt lat="45.81167" lon="11.7458574"><ele>718.0</ele><time>2026-05-02T09:25:58.971Z</time></trkpt><trkpt lat="45.8118913" lon="11.7458528"><ele>718.0</ele><time>2026-05-02T09:25:59.971Z</time></trkpt><trkpt lat="45.8121066" lon="11.7458643"><ele>721.0</ele><time>2026-05-02T09:26:00.971Z</time></trkpt><trkpt lat="45.8123019" lon="11.7458805"><ele>724.0</ele><time>2026-05-02T09:26:01.97Z</time></trkpt><trkpt lat="45.8124774" lon="11.7459009"><ele>727.0</ele><time>2026-05-02T09:26:02.971Z</time></trkpt><trkpt lat="45.812643" lon="11.7459298"><ele>728.6666666666667</ele><time>2026-05-02T09:26:03.97Z</time></trkpt><trkpt lat="45.8128035" lon="11.745949"><ele>730.3333333333334</ele><time>2026-05-02T09:26:04.971Z</time></trkpt><trkpt lat="45.8129573" lon="11.7459361"><ele>732.0</ele><time>2026-05-02T09:26:05.97Z</time></trkpt><trkpt lat="45.8131009" lon="11.745882"><ele>732.0</ele><time>2026-05-02T09:26:06.97Z</time></trkpt><trkpt lat="45.8132379" lon="11.7458089"><ele>732.0</ele><time>2026-05-02T09:26:07.971Z</time></trkpt><trkpt lat="45.8133789" lon="11.7457601"><ele>732.0</ele><time>2026-05-02T09:26:08.971Z</time></trkpt><trkpt lat="45.8135237" lon="11.745757"><ele>732.0</ele><time>2026-05-02T09:26:09.972Z</time></trkpt><trkpt lat="45.8136652" lon="11.7457872"><ele>730.4000000000001</ele><time>2026-05-02T09:26:10.972Z</time></trkpt><trkpt lat="45.8137886" lon="11.7458251"><ele>728.8000000000001</ele><time>2026-05-02T09:26:11.972Z</time></trkpt><trkpt lat="45.813891" lon="11.7458584"><ele>727.2</ele><time>2026-05-02T09:26:12.972Z</time></trkpt><trkpt lat="45.813975" lon="11.7458912"><ele>725.6</ele><time>2026-05-02T09:26:13.972Z</time></trkpt><trkpt lat="45.8140504" lon="11.7459335"><ele>724.0</ele><time>2026-05-02T09:26:14.972Z</time></trkpt><trkpt lat="45.814118" lon="11.7459784"><ele>724.0</ele><time>2026-05-02T09:26:15.972Z</time></trkpt><trkpt lat="45.8141838" lon="11.7459818"><ele>724.0</ele><time>2026-05-02T09:26:16.972Z</time></trkpt><trkpt lat="45.8142438" lon="11.745864"><ele>724.0</ele><time>2026-05-02T09:26:18.972Z</time></trkpt><trkpt lat="45.8142034" lon="11.7457846"><ele>724.0</ele><time>2026-05-02T09:26:19.972Z</time></trkpt><trkpt lat="45.8141218" lon="11.7457454"><ele>724.0</ele><time>2026-05-02T09:26:20.971Z</time></trkpt><trkpt lat="45.8140057" lon="11.7457283"><ele>724.0</ele><time>2026-05-02T09:26:21.971Z</time></trkpt><trkpt lat="45.8138658" lon="11.7456959"><ele>724.0</ele><time>2026-05-02T09:26:22.972Z</time></trkpt><trkpt lat="45.8137063" lon="11.7456346"><ele>724.0</ele><time>2026-05-02T09:26:23.972Z</time></trkpt><trkpt lat="45.8135299" lon="11.7455774"><ele>724.0</ele><time>2026-05-02T09:26:24.971Z</time></trkpt><trkpt lat="45.8133459" lon="11.7455367"><ele>726.6666666666667</ele><time>2026-05-02T09:26:25.972Z</time></trkpt><trkpt lat="45.8131708" lon="11.7454955"><ele>729.3333333333334</ele><time>2026-05-02T09:26:26.971Z</time></trkpt><trkpt lat="45.8130091" lon="11.7454312"><ele>732.0</ele><time>2026-05-02T09:26:27.972Z</time></trkpt><trkpt lat="45.8128612" lon="11.7453396"><ele>732.0</ele><time>2026-05-02T09:26:28.971Z</time></trkpt><trkpt lat="45.8127238" lon="11.7452432"><ele>732.0</ele><time>2026-05-02T09:26:29.971Z</time></trkpt><trkpt lat="45.8125926" lon="11.7451539"><ele>732.0</ele><time>2026-05-02T09:26:30.971Z</time></trkpt><trkpt lat="45.8124678" lon="11.7450669"><ele>732.0</ele><time>2026-05-02T09:26:31.971Z</time></trkpt><trkpt lat="45.8123477" lon="11.7449805"><ele>736.2</ele><time>2026-05-02T09:26:32.972Z</time></trkpt><trkpt lat="45.8122332" lon="11.7448971"><ele>740.4000000000001</ele><time>2026-05-02T09:26:33.972Z</time></trkpt><trkpt lat="45.8121294" lon="11.7448194"><ele>744.5999999999999</ele><time>2026-05-02T09:26:34.972Z</time></trkpt><trkpt lat="45.81204" lon="11.7447489"><ele>748.8</ele><time>2026-05-02T09:26:35.971Z</time></trkpt><trkpt lat="45.811956" lon="11.7446734"><ele>753.0</ele><time>2026-05-02T09:26:36.972Z</time></trkpt><trkpt lat="45.8118767" lon="11.7445788"><ele>753.5999999999999</ele><time>2026-05-02T09:26:37.971Z</time></trkpt><trkpt lat="45.8118087" lon="11.7444635"><ele>754.1999999999999</ele><time>2026-05-02T09:26:38.972Z</time></trkpt><trkpt lat="45.8117562" lon="11.7443258"><ele>754.8</ele><time>2026-05-02T09:26:39.971Z</time></trkpt><trkpt lat="45.8117279" lon="11.7441673"><ele>755.4</ele><time>2026-05-02T09:26:40.972Z</time></trkpt><trkpt lat="45.8117153" lon="11.7439954"><ele>756.0</ele><time>2026-05-02T09:26:41.972Z</time></trkpt><trkpt lat="45.8117104" lon="11.7438143"><ele>756.0</ele><time>2026-05-02T09:26:42.972Z</time></trkpt><trkpt lat="45.8117113" lon="11.74363"><ele>756.0</ele><time>2026-05-02T09:26:43.971Z</time></trkpt><trkpt lat="45.8117547" lon="11.7434382"><ele>756.0</ele><time>2026-05-02T09:26:44.971Z</time></trkpt><trkpt lat="45.811801" lon="11.7432604"><ele>756.0</ele><time>2026-05-02T09:26:45.971Z</time></trkpt><trkpt lat="45.8118302" lon="11.7430937"><ele>758.25</ele><time>2026-05-02T09:26:46.972Z</time></trkpt><trkpt lat="45.811835" lon="11.7429287"><ele>760.5</ele><time>2026-05-02T09:26:47.972Z</time></trkpt><trkpt lat="45.8118086" lon="11.7427688"><ele>762.75</ele><time>2026-05-02T09:26:48.971Z</time></trkpt><trkpt lat="45.8117583" lon="11.7426174"><ele>765.0</ele><time>2026-05-02T09:26:49.971Z</time></trkpt><trkpt lat="45.8116956" lon="11.7424721"><ele>766.25</ele><time>2026-05-02T09:26:50.972Z</time></trkpt><trkpt lat="45.8116338" lon="11.7423281"><ele>767.5</ele><time>2026-05-02T09:26:51.972Z</time></trkpt><trkpt lat="45.8115741" lon="11.7421876"><ele>768.75</ele><time>2026-05-02T09:26:52.972Z</time></trkpt><trkpt lat="45.811519" lon="11.7420453"><ele>770.0</ele><time>2026-05-02T09:26:53.972Z</time></trkpt><trkpt lat="45.811471" lon="11.7419065"><ele>771.2</ele><time>2026-05-02T09:26:54.972Z</time></trkpt><trkpt lat="45.8114528" lon="11.7417532"><ele>772.4</ele><time>2026-05-02T09:26:55.971Z</time></trkpt><trkpt lat="45.8114555" lon="11.7416015"><ele>773.5999999999999</ele><time>2026-05-02T09:26:56.972Z</time></trkpt><trkpt lat="45.8114664" lon="11.7414496"><ele>774.8</ele><time>2026-05-02T09:26:57.971Z</time></trkpt><trkpt lat="45.8115028" lon="11.7413007"><ele>776.0</ele><time>2026-05-02T09:26:58.971Z</time></trkpt><trkpt lat="45.8115653" lon="11.741179"><ele>776.0</ele><time>2026-05-02T09:26:59.971Z</time></trkpt><trkpt lat="45.8116347" lon="11.7410689"><ele>776.0</ele><time>2026-05-02T09:27:00.972Z</time></trkpt><trkpt lat="45.8117073" lon="11.7409581"><ele>776.0</ele><time>2026-05-02T09:27:01.971Z</time></trkpt><trkpt lat="45.8117766" lon="11.7408415"><ele>776.0</ele><time>2026-05-02T09:27:02.971Z</time></trkpt><trkpt lat="45.8118472" lon="11.7407257"><ele>776.0</ele><time>2026-05-02T09:27:03.971Z</time></trkpt><trkpt lat="45.8119321" lon="11.7406318"><ele>780.25</ele><time>2026-05-02T09:27:04.972Z</time></trkpt><trkpt lat="45.8120319" lon="11.7405711"><ele>784.5</ele><time>2026-05-02T09:27:05.971Z</time></trkpt><trkpt lat="45.812146" lon="11.7405451"><ele>788.75</ele><time>2026-05-02T09:27:06.973Z</time></trkpt><trkpt lat="45.8122703" lon="11.7405478"><ele>793.0</ele><time>2026-05-02T09:27:07.972Z</time></trkpt><trkpt lat="45.8124037" lon="11.7405835"><ele>793.0</ele><time>2026-05-02T09:27:08.971Z</time></trkpt><trkpt lat="45.812544" lon="11.7406439"><ele>793.0</ele><time>2026-05-02T09:27:09.972Z</time></trkpt><trkpt lat="45.8126739" lon="11.7407167"><ele>793.0</ele><time>2026-05-02T09:27:10.972Z</time></trkpt><trkpt lat="45.8127979" lon="11.7407959"><ele>793.0</ele><time>2026-05-02T09:27:11.972Z</time></trkpt><trkpt lat="45.8129266" lon="11.7408842"><ele>792.75</ele><time>2026-05-02T09:27:12.972Z</time></trkpt><trkpt lat="45.8130555" lon="11.7409807"><ele>792.5</ele><time>2026-05-02T09:27:13.972Z</time></trkpt><trkpt lat="45.8131867" lon="11.7410739"><ele>792.25</ele><time>2026-05-02T09:27:14.972Z</time></trkpt><trkpt lat="45.8133193" lon="11.7411602"><ele>792.0</ele><time>2026-05-02T09:27:15.973Z</time></trkpt><trkpt lat="45.8134588" lon="11.741219"><ele>786.75</ele><time>2026-05-02T09:27:16.973Z</time></trkpt><trkpt lat="45.8135986" lon="11.7412513"><ele>781.5</ele><time>2026-05-02T09:27:17.972Z</time></trkpt><trkpt lat="45.8137408" lon="11.7412735"><ele>776.25</ele><time>2026-05-02T09:27:18.972Z</time></trkpt><trkpt lat="45.8138872" lon="11.7412524"><ele>771.0</ele><time>2026-05-02T09:27:19.972Z</time></trkpt><trkpt lat="45.814032" lon="11.7412076"><ele>771.0</ele><time>2026-05-02T09:27:20.973Z</time></trkpt><trkpt lat="45.8141764" lon="11.741155"><ele>771.0</ele><time>2026-05-02T09:27:21.973Z</time></trkpt><trkpt lat="45.8143029" lon="11.7410823"><ele>771.0</ele><time>2026-05-02T09:27:22.973Z</time></trkpt><trkpt lat="45.8144147" lon="11.7409976"><ele>771.0</ele><time>2026-05-02T09:27:23.973Z</time></trkpt><trkpt lat="45.8145085" lon="11.7408842"><ele>773.0</ele><time>2026-05-02T09:27:24.973Z</time></trkpt><trkpt lat="45.814589" lon="11.740749"><ele>775.0</ele><time>2026-05-02T09:27:25.972Z</time></trkpt><trkpt lat="45.8146617" lon="11.7406059"><ele>777.0</ele><time>2026-05-02T09:27:26.972Z</time></trkpt><trkpt lat="45.8147309" lon="11.7404727"><ele>779.0</ele><time>2026-05-02T09:27:27.972Z</time></trkpt><trkpt lat="45.814791" lon="11.740359"><ele>779.0</ele><time>2026-05-02T09:27:28.972Z</time></trkpt><trkpt lat="45.8148492" lon="11.7402533"><ele>779.0</ele><time>2026-05-02T09:27:29.973Z</time></trkpt><trkpt lat="45.814901" lon="11.7401505"><ele>779.0</ele><time>2026-05-02T09:27:30.973Z</time></trkpt><trkpt lat="45.8149608" lon="11.7400508"><ele>779.0</ele><time>2026-05-02T09:27:31.972Z</time></trkpt><trkpt lat="45.8150267" lon="11.7399587"><ele>779.0</ele><time>2026-05-02T09:27:32.973Z</time></trkpt><trkpt lat="45.8151105" lon="11.739887"><ele>782.5000000000001</ele><time>2026-05-02T09:27:33.973Z</time></trkpt><trkpt lat="45.8152101" lon="11.7398479"><ele>786.0</ele><time>2026-05-02T09:27:34.972Z</time></trkpt><trkpt lat="45.8153" lon="11.7398273"><ele>789.5</ele><time>2026-05-02T09:27:35.972Z</time></trkpt><trkpt lat="45.8153769" lon="11.7398241"><ele>793.0</ele><time>2026-05-02T09:27:36.972Z</time></trkpt><trkpt lat="45.8154534" lon="11.7398404"><ele>796.5000000000001</ele><time>2026-05-02T09:27:37.972Z</time></trkpt><trkpt lat="45.8155301" lon="11.7398866"><ele>800.0</ele><time>2026-05-02T09:27:38.972Z</time></trkpt><trkpt lat="45.8155968" lon="11.7399685"><ele>800.0</ele><time>2026-05-02T09:27:39.973Z</time></trkpt><trkpt lat="45.8156436" lon="11.7400864"><ele>800.0</ele><time>2026-05-02T09:27:40.973Z</time></trkpt><trkpt lat="45.8156686" lon="11.7402326"><ele>800.0</ele><time>2026-05-02T09:27:41.973Z</time></trkpt><trkpt lat="45.8156882" lon="11.7404155"><ele>800.0</ele><time>2026-05-02T09:27:42.973Z</time></trkpt><trkpt lat="45.8157129" lon="11.7406206"><ele>800.0</ele><time>2026-05-02T09:27:43.972Z</time></trkpt><trkpt lat="45.8157352" lon="11.7408165"><ele>800.0</ele><time>2026-05-02T09:27:44.973Z</time></trkpt><trkpt lat="45.8157386" lon="11.7409882"><ele>800.0</ele><time>2026-05-02T09:27:45.973Z</time></trkpt><trkpt lat="45.8157364" lon="11.741144"><ele>800.0</ele><time>2026-05-02T09:27:46.973Z</time></trkpt><trkpt lat="45.8157236" lon="11.7412876"><ele>800.0000000000001</ele><time>2026-05-02T09:27:47.973Z</time></trkpt><trkpt lat="45.8157374" lon="11.7414189"><ele>800.0</ele><time>2026-05-02T09:27:48.972Z</time></trkpt><trkpt lat="45.8157671" lon="11.741524"><ele>800.0</ele><time>2026-05-02T09:27:49.973Z</time></trkpt><trkpt lat="45.8157954" lon="11.7416066"><ele>800.0</ele><time>2026-05-02T09:27:50.972Z</time></trkpt><trkpt lat="45.8158368" lon="11.7417258"><ele>800.0000000000001</ele><time>2026-05-02T09:27:52.972Z</time></trkpt><trkpt lat="45.8158917" lon="11.7418553"><ele>800.0</ele><time>2026-05-02T09:27:54.973Z</time></trkpt><trkpt lat="45.8159719" lon="11.7419917"><ele>798.1666666666667</ele><time>2026-05-02T09:27:56.973Z</time></trkpt><trkpt lat="45.8160271" lon="11.7420404"><ele>796.3333333333334</ele><time>2026-05-02T09:27:57.973Z</time></trkpt><trkpt lat="45.8160933" lon="11.7420705"><ele>794.5</ele><time>2026-05-02T09:27:58.972Z</time></trkpt><trkpt lat="45.8161626" lon="11.7420846"><ele>792.6666666666667</ele><time>2026-05-02T09:27:59.973Z</time></trkpt><trkpt lat="45.8162299" lon="11.742092"><ele>790.8333333333334</ele><time>2026-05-02T09:28:00.973Z</time></trkpt><trkpt lat="45.8163636" lon="11.742108"><ele>789.0</ele><time>2026-05-02T09:28:02.973Z</time></trkpt><trkpt lat="45.8164377" lon="11.742115"><ele>789.0</ele><time>2026-05-02T09:28:03.973Z</time></trkpt><trkpt lat="45.8165565" lon="11.7421292"><ele>789.0</ele><time>2026-05-02T09:28:05.973Z</time></trkpt><trkpt lat="45.8166538" lon="11.7421429"><ele>789.0</ele><time>2026-05-02T09:28:07.972Z</time></trkpt><trkpt lat="45.8167541" lon="11.7421566"><ele>789.0</ele><time>2026-05-02T09:28:09.973Z</time></trkpt><trkpt lat="45.8168621" lon="11.7421314"><ele>789.0</ele><time>2026-05-02T09:28:11.972Z</time></trkpt><trkpt lat="45.8169726" lon="11.7420333"><ele>786.8333333333334</ele><time>2026-05-02T09:28:13.972Z</time></trkpt><trkpt lat="45.8170197" lon="11.7419545"><ele>784.6666666666667</ele><time>2026-05-02T09:28:14.973Z</time></trkpt><trkpt lat="45.8170624" lon="11.7418618"><ele>782.5</ele><time>2026-05-02T09:28:15.974Z</time></trkpt><trkpt lat="45.8171072" lon="11.7417631"><ele>780.3333333333334</ele><time>2026-05-02T09:28:16.974Z</time></trkpt><trkpt lat="45.817154" lon="11.7416573"><ele>778.1666666666667</ele><time>2026-05-02T09:28:17.973Z</time></trkpt><trkpt lat="45.8172001" lon="11.7415426"><ele>776.0</ele><time>2026-05-02T09:28:18.974Z</time></trkpt><trkpt lat="45.8172482" lon="11.7414254"><ele>782.5000000000001</ele><time>2026-05-02T09:28:19.973Z</time></trkpt><trkpt lat="45.8173046" lon="11.7413244"><ele>789.0</ele><time>2026-05-02T09:28:20.974Z</time></trkpt><trkpt lat="45.8173691" lon="11.741255"><ele>795.5</ele><time>2026-05-02T09:28:21.973Z</time></trkpt><trkpt lat="45.8174435" lon="11.7412217"><ele>802.0</ele><time>2026-05-02T09:28:22.974Z</time></trkpt><trkpt lat="45.8175218" lon="11.7412282"><ele>808.5000000000001</ele><time>2026-05-02T09:28:23.973Z</time></trkpt><trkpt lat="45.8176012" lon="11.7412556"><ele>815.0</ele><time>2026-05-02T09:28:24.974Z</time></trkpt><trkpt lat="45.817682" lon="11.7412933"><ele>816.0000000000001</ele><time>2026-05-02T09:28:25.973Z</time></trkpt><trkpt lat="45.8177643" lon="11.7413367"><ele>817.0</ele><time>2026-05-02T09:28:26.973Z</time></trkpt><trkpt lat="45.8178354" lon="11.7413921"><ele>818.0</ele><time>2026-05-02T09:28:27.973Z</time></trkpt><trkpt lat="45.8178852" lon="11.7414533"><ele>819.0</ele><time>2026-05-02T09:28:28.973Z</time></trkpt><trkpt lat="45.8179549" lon="11.7415461"><ele>820.0000000000001</ele><time>2026-05-02T09:28:30.973Z</time></trkpt><trkpt lat="45.818001" lon="11.7416162"><ele>821.0</ele><time>2026-05-02T09:28:38.974Z</time></trkpt><trkpt lat="45.8180563" lon="11.7416845"><ele>821.0</ele><time>2026-05-02T09:28:40.974Z</time></trkpt><trkpt lat="45.8181348" lon="11.7417634"><ele>821.0</ele><time>2026-05-02T09:28:41.974Z</time></trkpt><trkpt lat="45.8182192" lon="11.7417732"><ele>821.0</ele><time>2026-05-02T09:28:42.973Z</time></trkpt><trkpt lat="45.8182989" lon="11.7417268"><ele>821.0</ele><time>2026-05-02T09:28:43.974Z</time></trkpt><trkpt lat="45.8183845" lon="11.7416448"><ele>821.0</ele><time>2026-05-02T09:28:44.974Z</time></trkpt><trkpt lat="45.8184731" lon="11.7415542"><ele>819.75</ele><time>2026-05-02T09:28:45.974Z</time></trkpt><trkpt lat="45.8185867" lon="11.7414154"><ele>818.5</ele><time>2026-05-02T09:28:46.973Z</time></trkpt><trkpt lat="45.8186975" lon="11.7412743"><ele>817.25</ele><time>2026-05-02T09:28:47.974Z</time></trkpt><trkpt lat="45.8187899" lon="11.7411477"><ele>816.0</ele><time>2026-05-02T09:28:48.973Z</time></trkpt><trkpt lat="45.8188822" lon="11.7410489"><ele>818.5999999999999</ele><time>2026-05-02T09:28:49.974Z</time></trkpt><trkpt lat="45.8189831" lon="11.740994"><ele>821.2</ele><time>2026-05-02T09:28:50.974Z</time></trkpt><trkpt lat="45.8190876" lon="11.7409886"><ele>823.8</ele><time>2026-05-02T09:28:51.974Z</time></trkpt><trkpt lat="45.81919" lon="11.7409981"><ele>826.4000000000001</ele><time>2026-05-02T09:28:52.973Z</time></trkpt><trkpt lat="45.8192925" lon="11.7410137"><ele>829.0</ele><time>2026-05-02T09:28:53.974Z</time></trkpt><trkpt lat="45.8193947" lon="11.7410372"><ele>830.4000000000001</ele><time>2026-05-02T09:28:54.974Z</time></trkpt><trkpt lat="45.8194965" lon="11.7410699"><ele>831.8</ele><time>2026-05-02T09:28:55.974Z</time></trkpt><trkpt lat="45.819597" lon="11.7411207"><ele>833.2</ele><time>2026-05-02T09:28:56.974Z</time></trkpt><trkpt lat="45.8196904" lon="11.7412021"><ele>834.5999999999999</ele><time>2026-05-02T09:28:57.974Z</time></trkpt><trkpt lat="45.8197698" lon="11.7413096"><ele>836.0</ele><time>2026-05-02T09:28:58.973Z</time></trkpt><trkpt lat="45.8198387" lon="11.7414286"><ele>836.0</ele><time>2026-05-02T09:28:59.974Z</time></trkpt><trkpt lat="45.8198983" lon="11.7415379"><ele>836.0</ele><time>2026-05-02T09:29:00.974Z</time></trkpt><trkpt lat="45.819955" lon="11.741639"><ele>836.0</ele><time>2026-05-02T09:29:01.973Z</time></trkpt><trkpt lat="45.8200167" lon="11.7417323"><ele>836.0</ele><time>2026-05-02T09:29:02.974Z</time></trkpt><trkpt lat="45.8200816" lon="11.7418095"><ele>836.0</ele><time>2026-05-02T09:29:03.974Z</time></trkpt><trkpt lat="45.820169" lon="11.7418377"><ele>834.1999999999999</ele><time>2026-05-02T09:29:04.973Z</time></trkpt><trkpt lat="45.8202622" lon="11.7418456"><ele>832.4</ele><time>2026-05-02T09:29:05.973Z</time></trkpt><trkpt lat="45.8203637" lon="11.7418542"><ele>830.6</ele><time>2026-05-02T09:29:06.973Z</time></trkpt><trkpt lat="45.8204792" lon="11.7418878"><ele>828.8</ele><time>2026-05-02T09:29:07.974Z</time></trkpt><trkpt lat="45.8205963" lon="11.7419522"><ele>827.0</ele><time>2026-05-02T09:29:08.973Z</time></trkpt><trkpt lat="45.8206925" lon="11.7420237"><ele>827.0</ele><time>2026-05-02T09:29:09.974Z</time></trkpt><trkpt lat="45.8207783" lon="11.7420874"><ele>827.0</ele><time>2026-05-02T09:29:10.974Z</time></trkpt><trkpt lat="45.8208699" lon="11.7421369"><ele>827.0</ele><time>2026-05-02T09:29:11.974Z</time></trkpt><trkpt lat="45.8209681" lon="11.742161"><ele>827.0</ele><time>2026-05-02T09:29:12.974Z</time></trkpt><trkpt lat="45.8210691" lon="11.7421461"><ele>827.0</ele><time>2026-05-02T09:29:13.974Z</time></trkpt><trkpt lat="45.821162" lon="11.7420908"><ele>830.5000000000001</ele><time>2026-05-02T09:29:14.973Z</time></trkpt><trkpt lat="45.8212339" lon="11.7420252"><ele>834.0</ele><time>2026-05-02T09:29:15.973Z</time></trkpt><trkpt lat="45.8213026" lon="11.7419926"><ele>837.5</ele><time>2026-05-02T09:29:16.973Z</time></trkpt><trkpt lat="45.8213788" lon="11.7419968"><ele>841.0</ele><time>2026-05-02T09:29:17.975Z</time></trkpt><trkpt lat="45.8214618" lon="11.7420453"><ele>844.5000000000001</ele><time>2026-05-02T09:29:18.975Z</time></trkpt><trkpt lat="45.8215454" lon="11.7420998"><ele>848.0</ele><time>2026-05-02T09:29:19.974Z</time></trkpt><trkpt lat="45.8216122" lon="11.7421607"><ele>848.0</ele><time>2026-05-02T09:29:20.975Z</time></trkpt><trkpt lat="45.8216799" lon="11.7422229"><ele>848.0</ele><time>2026-05-02T09:29:21.974Z</time></trkpt><trkpt lat="45.8217629" lon="11.7422661"><ele>848.0</ele><time>2026-05-02T09:29:22.974Z</time></trkpt><trkpt lat="45.8218609" lon="11.7422713"><ele>848.0</ele><time>2026-05-02T09:29:23.975Z</time></trkpt><trkpt lat="45.8219626" lon="11.7422615"><ele>848.0</ele><time>2026-05-02T09:29:24.975Z</time></trkpt><trkpt lat="45.8220624" lon="11.7422648"><ele>849.5999999999999</ele><time>2026-05-02T09:29:25.975Z</time></trkpt><trkpt lat="45.8221588" lon="11.7422738"><ele>851.1999999999999</ele><time>2026-05-02T09:29:26.974Z</time></trkpt><trkpt lat="45.822255" lon="11.7423333"><ele>852.8</ele><time>2026-05-02T09:29:27.974Z</time></trkpt><trkpt lat="45.8223481" lon="11.7423997"><ele>854.4</ele><time>2026-05-02T09:29:28.975Z</time></trkpt><trkpt lat="45.8224328" lon="11.7424663"><ele>856.0</ele><time>2026-05-02T09:29:29.974Z</time></trkpt><trkpt lat="45.8225151" lon="11.7425228"><ele>855.9999999999999</ele><time>2026-05-02T09:29:30.974Z</time></trkpt><trkpt lat="45.8226004" lon="11.742582"><ele>856.0</ele><time>2026-05-02T09:29:31.975Z</time></trkpt><trkpt lat="45.822687" lon="11.7426413"><ele>856.0</ele><time>2026-05-02T09:29:32.975Z</time></trkpt><trkpt lat="45.822776" lon="11.7426857"><ele>856.0</ele><time>2026-05-02T09:29:33.975Z</time></trkpt><trkpt lat="45.8228593" lon="11.7427056"><ele>855.9999999999999</ele><time>2026-05-02T09:29:34.975Z</time></trkpt><trkpt lat="45.8229379" lon="11.7427058"><ele>856.0</ele><time>2026-05-02T09:29:35.974Z</time></trkpt><trkpt lat="45.8230145" lon="11.7427007"><ele>857.0</ele><time>2026-05-02T09:29:36.974Z</time></trkpt><trkpt lat="45.8230979" lon="11.7426939"><ele>857.9999999999999</ele><time>2026-05-02T09:29:37.975Z</time></trkpt><trkpt lat="45.82319" lon="11.7426818"><ele>858.9999999999999</ele><time>2026-05-02T09:29:38.975Z</time></trkpt><trkpt lat="45.8232851" lon="11.7426535"><ele>860.0</ele><time>2026-05-02T09:29:39.974Z</time></trkpt><trkpt lat="45.8233766" lon="11.7425888"><ele>861.0</ele><time>2026-05-02T09:29:40.975Z</time></trkpt><trkpt lat="45.8234544" lon="11.7424884"><ele>857.0</ele><time>2026-05-02T09:29:41.975Z</time></trkpt><trkpt lat="45.8235199" lon="11.7423613"><ele>852.9999999999999</ele><time>2026-05-02T09:29:42.974Z</time></trkpt><trkpt lat="45.8235724" lon="11.7422334"><ele>849.0</ele><time>2026-05-02T09:29:43.975Z</time></trkpt><trkpt lat="45.8236206" lon="11.7421132"><ele>845.0</ele><time>2026-05-02T09:29:44.974Z</time></trkpt><trkpt lat="45.82367" lon="11.7420013"><ele>841.0</ele><time>2026-05-02T09:29:45.974Z</time></trkpt><trkpt lat="45.823726" lon="11.7418948"><ele>842.1999999999999</ele><time>2026-05-02T09:29:46.975Z</time></trkpt><trkpt lat="45.8237883" lon="11.7417945"><ele>843.4</ele><time>2026-05-02T09:29:47.974Z</time></trkpt><trkpt lat="45.8238492" lon="11.7416971"><ele>844.6</ele><time>2026-05-02T09:29:48.975Z</time></trkpt><trkpt lat="45.8239109" lon="11.7415913"><ele>845.8</ele><time>2026-05-02T09:29:49.974Z</time></trkpt><trkpt lat="45.8239491" lon="11.7414493"><ele>847.0</ele><time>2026-05-02T09:29:50.975Z</time></trkpt><trkpt lat="45.8239803" lon="11.741294"><ele>847.0</ele><time>2026-05-02T09:29:51.975Z</time></trkpt><trkpt lat="45.824001" lon="11.7411262"><ele>847.0</ele><time>2026-05-02T09:29:52.975Z</time></trkpt><trkpt lat="45.8240105" lon="11.7409498"><ele>847.0</ele><time>2026-05-02T09:29:53.974Z</time></trkpt><trkpt lat="45.8240187" lon="11.7407661"><ele>847.0</ele><time>2026-05-02T09:29:54.974Z</time></trkpt><trkpt lat="45.8240305" lon="11.7405797"><ele>847.5</ele><time>2026-05-02T09:29:55.975Z</time></trkpt><trkpt lat="45.8240611" lon="11.7403929"><ele>848.0</ele><time>2026-05-02T09:29:56.974Z</time></trkpt><trkpt lat="45.8240945" lon="11.7402068"><ele>848.5</ele><time>2026-05-02T09:29:57.974Z</time></trkpt><trkpt lat="45.824133" lon="11.7400225"><ele>849.0</ele><time>2026-05-02T09:29:58.974Z</time></trkpt><trkpt lat="45.8241713" lon="11.7398243"><ele>851.25</ele><time>2026-05-02T09:29:59.975Z</time></trkpt><trkpt lat="45.8242068" lon="11.7396144"><ele>853.5</ele><time>2026-05-02T09:30:00.975Z</time></trkpt><trkpt lat="45.8242175" lon="11.7394219"><ele>855.75</ele><time>2026-05-02T09:30:01.975Z</time></trkpt><trkpt lat="45.824235" lon="11.7392519"><ele>858.0</ele><time>2026-05-02T09:30:02.975Z</time></trkpt><trkpt lat="45.8242523" lon="11.739092"><ele>858.75</ele><time>2026-05-02T09:30:03.974Z</time></trkpt><trkpt lat="45.8242819" lon="11.738941"><ele>859.5</ele><time>2026-05-02T09:30:04.974Z</time></trkpt><trkpt lat="45.8243183" lon="11.7387865"><ele>860.25</ele><time>2026-05-02T09:30:05.974Z</time></trkpt><trkpt lat="45.824357" lon="11.7386231"><ele>861.0</ele><time>2026-05-02T09:30:06.974Z</time></trkpt><trkpt lat="45.824382" lon="11.7384541"><ele>861.0</ele><time>2026-05-02T09:30:07.974Z</time></trkpt><trkpt lat="45.8243753" lon="11.7382816"><ele>860.9999999999999</ele><time>2026-05-02T09:30:08.975Z</time></trkpt><trkpt lat="45.8243361" lon="11.7381329"><ele>860.9999999999999</ele><time>2026-05-02T09:30:09.974Z</time></trkpt><trkpt lat="45.8242735" lon="11.7380026"><ele>861.0</ele><time>2026-05-02T09:30:10.974Z</time></trkpt><trkpt lat="45.8242076" lon="11.7378902"><ele>861.0</ele><time>2026-05-02T09:30:11.975Z</time></trkpt><trkpt lat="45.8241496" lon="11.7377999"><ele>861.0</ele><time>2026-05-02T09:30:12.975Z</time></trkpt><trkpt lat="45.8240969" lon="11.7377265"><ele>861.0</ele><time>2026-05-02T09:30:13.975Z</time></trkpt><trkpt lat="45.8240464" lon="11.7376617"><ele>861.0</ele><time>2026-05-02T09:30:14.975Z</time></trkpt><trkpt lat="45.8239944" lon="11.7376016"><ele>861.0</ele><time>2026-05-02T09:30:15.974Z</time></trkpt><trkpt lat="45.8239432" lon="11.7375435"><ele>861.0</ele><time>2026-05-02T09:30:16.974Z</time></trkpt><trkpt lat="45.8238929" lon="11.7374786"><ele>861.0</ele><time>2026-05-02T09:30:17.974Z</time></trkpt><trkpt lat="45.8238516" lon="11.7373967"><ele>861.0</ele><time>2026-05-02T09:30:18.976Z</time></trkpt><trkpt lat="45.8238336" lon="11.7372963"><ele>860.2857142857143</ele><time>2026-05-02T09:30:19.975Z</time></trkpt><trkpt lat="45.8238289" lon="11.7372049"><ele>859.5714285714286</ele><time>2026-05-02T09:30:20.974Z</time></trkpt><trkpt lat="45.8238662" lon="11.7371224"><ele>858.8571428571429</ele><time>2026-05-02T09:30:21.976Z</time></trkpt><trkpt lat="45.8239415" lon="11.7370658"><ele>858.1428571428571</ele><time>2026-05-02T09:30:22.975Z</time></trkpt><trkpt lat="45.8240185" lon="11.7370173"><ele>857.4285714285714</ele><time>2026-05-02T09:30:23.976Z</time></trkpt><trkpt lat="45.824088" lon="11.7369728"><ele>856.7142857142858</ele><time>2026-05-02T09:30:24.976Z</time></trkpt><trkpt lat="45.8241516" lon="11.736937"><ele>856.0</ele><time>2026-05-02T09:30:25.975Z</time></trkpt><trkpt lat="45.8242194" lon="11.7369218"><ele>856.0</ele><time>2026-05-02T09:30:26.976Z</time></trkpt><trkpt lat="45.8242948" lon="11.7369195"><ele>855.9999999999999</ele><time>2026-05-02T09:30:27.976Z</time></trkpt><trkpt lat="45.8243796" lon="11.7369659"><ele>855.9999999999999</ele><time>2026-05-02T09:30:28.976Z</time></trkpt><trkpt lat="45.8244702" lon="11.7370301"><ele>856.0</ele><time>2026-05-02T09:30:29.976Z</time></trkpt><trkpt lat="45.8245636" lon="11.7371031"><ele>856.0</ele><time>2026-05-02T09:30:30.975Z</time></trkpt><trkpt lat="45.8246595" lon="11.7371809"><ele>856.4</ele><time>2026-05-02T09:30:31.975Z</time></trkpt><trkpt lat="45.8247575" lon="11.737262"><ele>856.8</ele><time>2026-05-02T09:30:32.975Z</time></trkpt><trkpt lat="45.8248555" lon="11.7373443"><ele>857.1999999999999</ele><time>2026-05-02T09:30:33.976Z</time></trkpt><trkpt lat="45.8249456" lon="11.7374345"><ele>857.5999999999999</ele><time>2026-05-02T09:30:34.975Z</time></trkpt><trkpt lat="45.8250175" lon="11.7375384"><ele>858.0</ele><time>2026-05-02T09:30:35.976Z</time></trkpt><trkpt lat="45.8250708" lon="11.7376409"><ele>857.0</ele><time>2026-05-02T09:30:36.975Z</time></trkpt><trkpt lat="45.8251201" lon="11.7377421"><ele>856.0</ele><time>2026-05-02T09:30:37.976Z</time></trkpt><trkpt lat="45.8251617" lon="11.7378565"><ele>855.0</ele><time>2026-05-02T09:30:38.975Z</time></trkpt><trkpt lat="45.8252062" lon="11.7379717"><ele>854.0</ele><time>2026-05-02T09:30:39.975Z</time></trkpt><trkpt lat="45.8252628" lon="11.7380695"><ele>853.0</ele><time>2026-05-02T09:30:40.975Z</time></trkpt><trkpt lat="45.8253327" lon="11.7381485"><ele>852.0</ele><time>2026-05-02T09:30:41.976Z</time></trkpt><trkpt lat="45.8254162" lon="11.7382126"><ele>856.0</ele><time>2026-05-02T09:30:42.975Z</time></trkpt><trkpt lat="45.8255071" lon="11.7382698"><ele>860.0</ele><time>2026-05-02T09:30:43.975Z</time></trkpt><trkpt lat="45.8255879" lon="11.738336"><ele>864.0</ele><time>2026-05-02T09:30:44.975Z</time></trkpt><trkpt lat="45.8256547" lon="11.7384272"><ele>868.0</ele><time>2026-05-02T09:30:45.976Z</time></trkpt><trkpt lat="45.8257066" lon="11.738542"><ele>872.0</ele><time>2026-05-02T09:30:46.975Z</time></trkpt><trkpt lat="45.8257499" lon="11.7386629"><ele>872.0</ele><time>2026-05-02T09:30:47.975Z</time></trkpt><trkpt lat="45.8257897" lon="11.7387763"><ele>872.0</ele><time>2026-05-02T09:30:48.976Z</time></trkpt><trkpt lat="45.8258345" lon="11.7388847"><ele>872.0</ele><time>2026-05-02T09:30:49.975Z</time></trkpt><trkpt lat="45.8258901" lon="11.7389857"><ele>872.0</ele><time>2026-05-02T09:30:50.976Z</time></trkpt><trkpt lat="45.8259513" lon="11.739082"><ele>872.0</ele><time>2026-05-02T09:30:51.976Z</time></trkpt><trkpt lat="45.8260111" lon="11.739184"><ele>878.8</ele><time>2026-05-02T09:30:52.975Z</time></trkpt><trkpt lat="45.8260557" lon="11.7393027"><ele>885.6</ele><time>2026-05-02T09:30:53.975Z</time></trkpt><trkpt lat="45.8260806" lon="11.739434"><ele>892.3999999999999</ele><time>2026-05-02T09:30:54.976Z</time></trkpt><trkpt lat="45.8260952" lon="11.7395743"><ele>899.1999999999999</ele><time>2026-05-02T09:30:55.976Z</time></trkpt><trkpt lat="45.8261048" lon="11.7397158"><ele>906.0</ele><time>2026-05-02T09:30:56.975Z</time></trkpt><trkpt lat="45.8261122" lon="11.7398516"><ele>906.5999999999999</ele><time>2026-05-02T09:30:57.975Z</time></trkpt><trkpt lat="45.826118" lon="11.7399812"><ele>907.1999999999999</ele><time>2026-05-02T09:30:58.976Z</time></trkpt><trkpt lat="45.826125" lon="11.7401121"><ele>907.8000000000001</ele><time>2026-05-02T09:30:59.975Z</time></trkpt><trkpt lat="45.8261352" lon="11.740248"><ele>908.4000000000001</ele><time>2026-05-02T09:31:00.976Z</time></trkpt><trkpt lat="45.8261501" lon="11.7403881"><ele>909.0</ele><time>2026-05-02T09:31:01.976Z</time></trkpt><trkpt lat="45.8261684" lon="11.7405301"><ele>909.6</ele><time>2026-05-02T09:31:02.975Z</time></trkpt><trkpt lat="45.8261853" lon="11.7406734"><ele>910.2</ele><time>2026-05-02T09:31:03.976Z</time></trkpt><trkpt lat="45.8262027" lon="11.740816"><ele>910.8000000000001</ele><time>2026-05-02T09:31:04.975Z</time></trkpt><trkpt lat="45.8262243" lon="11.740965"><ele>911.4000000000001</ele><time>2026-05-02T09:31:05.975Z</time></trkpt><trkpt lat="45.8262533" lon="11.7411163"><ele>912.0</ele><time>2026-05-02T09:31:06.976Z</time></trkpt><trkpt lat="45.8262954" lon="11.7412698"><ele>910.6</ele><time>2026-05-02T09:31:07.976Z</time></trkpt><trkpt lat="45.8263464" lon="11.7414207"><ele>909.2</ele><time>2026-05-02T09:31:08.976Z</time></trkpt><trkpt lat="45.8263926" lon="11.741549"><ele>907.8</ele><time>2026-05-02T09:31:09.976Z</time></trkpt><trkpt lat="45.8264355" lon="11.7416658"><ele>906.4</ele><time>2026-05-02T09:31:10.976Z</time></trkpt><trkpt lat="45.8264817" lon="11.7417874"><ele>905.0</ele><time>2026-05-02T09:31:11.975Z</time></trkpt><trkpt lat="45.8265298" lon="11.7419127"><ele>906.0</ele><time>2026-05-02T09:31:12.976Z</time></trkpt><trkpt lat="45.8265783" lon="11.7420373"><ele>907.0</ele><time>2026-05-02T09:31:13.976Z</time></trkpt><trkpt lat="45.8266345" lon="11.7421541"><ele>908.0</ele><time>2026-05-02T09:31:14.975Z</time></trkpt><trkpt lat="45.8266982" lon="11.7422582"><ele>909.0</ele><time>2026-05-02T09:31:15.975Z</time></trkpt><trkpt lat="45.826773" lon="11.7423487"><ele>910.0</ele><time>2026-05-02T09:31:16.975Z</time></trkpt><trkpt lat="45.8268509" lon="11.7424274"><ele>909.9999999999999</ele><time>2026-05-02T09:31:17.976Z</time></trkpt><trkpt lat="45.826925" lon="11.7424998"><ele>910.0</ele><time>2026-05-02T09:31:18.976Z</time></trkpt><trkpt lat="45.8270042" lon="11.7425509"><ele>910.0</ele><time>2026-05-02T09:31:19.976Z</time></trkpt><trkpt lat="45.8270857" lon="11.7425895"><ele>910.0</ele><time>2026-05-02T09:31:20.976Z</time></trkpt><trkpt lat="45.8271663" lon="11.7426147"><ele>909.9999999999999</ele><time>2026-05-02T09:31:21.976Z</time></trkpt><trkpt lat="45.8272441" lon="11.7426385"><ele>910.0</ele><time>2026-05-02T09:31:22.976Z</time></trkpt><trkpt lat="45.8273282" lon="11.7426461"><ele>910.0</ele><time>2026-05-02T09:31:23.976Z</time></trkpt><trkpt lat="45.8274157" lon="11.7426569"><ele>910.0</ele><time>2026-05-02T09:31:24.977Z</time></trkpt><trkpt lat="45.8275081" lon="11.7426528"><ele>910.0</ele><time>2026-05-02T09:31:25.977Z</time></trkpt><trkpt lat="45.8276061" lon="11.7426452"><ele>910.0</ele><time>2026-05-02T09:31:26.976Z</time></trkpt><trkpt lat="45.8277102" lon="11.7426204"><ele>910.0</ele><time>2026-05-02T09:31:27.976Z</time></trkpt><trkpt lat="45.8278196" lon="11.7425875"><ele>913.2</ele><time>2026-05-02T09:31:28.977Z</time></trkpt><trkpt lat="45.8279319" lon="11.7425494"><ele>916.4</ele><time>2026-05-02T09:31:29.977Z</time></trkpt><trkpt lat="45.8280418" lon="11.7425109"><ele>919.5999999999999</ele><time>2026-05-02T09:31:30.977Z</time></trkpt><trkpt lat="45.8281454" lon="11.7425094"><ele>922.8</ele><time>2026-05-02T09:31:31.977Z</time></trkpt><trkpt lat="45.828237" lon="11.742548"><ele>926.0</ele><time>2026-05-02T09:31:32.976Z</time></trkpt><trkpt lat="45.8283093" lon="11.7426176"><ele>926.0</ele><time>2026-05-02T09:31:33.976Z</time></trkpt><trkpt lat="45.8283605" lon="11.7427139"><ele>925.9999999999999</ele><time>2026-05-02T09:31:34.976Z</time></trkpt><trkpt lat="45.8283933" lon="11.7428326"><ele>925.9999999999999</ele><time>2026-05-02T09:31:35.977Z</time></trkpt><trkpt lat="45.828415" lon="11.742963"><ele>926.0</ele><time>2026-05-02T09:31:36.976Z</time></trkpt><trkpt lat="45.8284307" lon="11.7430968"><ele>926.0</ele><time>2026-05-02T09:31:37.976Z</time></trkpt><trkpt lat="45.828443" lon="11.7432248"><ele>925.5000000000001</ele><time>2026-05-02T09:31:38.977Z</time></trkpt><trkpt lat="45.828448" lon="11.7433463"><ele>925.0</ele><time>2026-05-02T09:31:39.976Z</time></trkpt><trkpt lat="45.828448" lon="11.7434614"><ele>924.5</ele><time>2026-05-02T09:31:40.976Z</time></trkpt><trkpt lat="45.8284462" lon="11.7435729"><ele>924.0</ele><time>2026-05-02T09:31:41.977Z</time></trkpt><trkpt lat="45.8284434" lon="11.7436837"><ele>923.5000000000001</ele><time>2026-05-02T09:31:42.976Z</time></trkpt><trkpt lat="45.8284375" lon="11.7438018"><ele>923.0</ele><time>2026-05-02T09:31:43.977Z</time></trkpt><trkpt lat="45.8284383" lon="11.743931"><ele>922.8333333333334</ele><time>2026-05-02T09:31:44.976Z</time></trkpt><trkpt lat="45.8284507" lon="11.7440625"><ele>922.6666666666667</ele><time>2026-05-02T09:31:45.977Z</time></trkpt><trkpt lat="45.8284705" lon="11.7441957"><ele>922.5</ele><time>2026-05-02T09:31:46.977Z</time></trkpt><trkpt lat="45.8284905" lon="11.7443206"><ele>922.3333333333333</ele><time>2026-05-02T09:31:47.976Z</time></trkpt><trkpt lat="45.8285167" lon="11.744438"><ele>922.1666666666666</ele><time>2026-05-02T09:31:48.977Z</time></trkpt><trkpt lat="45.8285455" lon="11.7445511"><ele>922.0</ele><time>2026-05-02T09:31:49.976Z</time></trkpt><trkpt lat="45.8285814" lon="11.7446655"><ele>926.4000000000001</ele><time>2026-05-02T09:31:50.976Z</time></trkpt><trkpt lat="45.8286264" lon="11.7447792"><ele>930.8000000000001</ele><time>2026-05-02T09:31:51.976Z</time></trkpt><trkpt lat="45.8286803" lon="11.7448884"><ele>935.2</ele><time>2026-05-02T09:31:52.976Z</time></trkpt><trkpt lat="45.8287476" lon="11.7449867"><ele>939.6</ele><time>2026-05-02T09:31:53.977Z</time></trkpt><trkpt lat="45.8288237" lon="11.7450735"><ele>944.0</ele><time>2026-05-02T09:31:54.977Z</time></trkpt><trkpt lat="45.8289024" lon="11.7451513"><ele>942.0000000000001</ele><time>2026-05-02T09:31:55.976Z</time></trkpt><trkpt lat="45.8289879" lon="11.7452131"><ele>940.0</ele><time>2026-05-02T09:31:56.976Z</time></trkpt><trkpt lat="45.8290715" lon="11.7452606"><ele>938.0</ele><time>2026-05-02T09:31:57.976Z</time></trkpt><trkpt lat="45.8291413" lon="11.745289"><ele>936.0</ele><time>2026-05-02T09:31:58.976Z</time></trkpt><trkpt lat="45.8292431" lon="11.7453083"><ele>934.0000000000001</ele><time>2026-05-02T09:32:00.977Z</time></trkpt><trkpt lat="45.8293273" lon="11.7453234"><ele>932.0</ele><time>2026-05-02T09:32:02.976Z</time></trkpt><trkpt lat="45.8294029" lon="11.7453224"><ele>932.0000000000001</ele><time>2026-05-02T09:32:05.976Z</time></trkpt><trkpt lat="45.8294753" lon="11.7453067"><ele>932.0</ele><time>2026-05-02T09:32:08.976Z</time></trkpt><trkpt lat="45.8295527" lon="11.7453057"><ele>932.0</ele><time>2026-05-02T09:32:10.976Z</time></trkpt><trkpt lat="45.829659" lon="11.7453221"><ele>932.0</ele><time>2026-05-02T09:32:12.976Z</time></trkpt><trkpt lat="45.8297771" lon="11.7453843"><ele>932.0000000000001</ele><time>2026-05-02T09:32:14.976Z</time></trkpt><trkpt lat="45.8298383" lon="11.7454122"><ele>932.0</ele><time>2026-05-02T09:32:15.977Z</time></trkpt><trkpt lat="45.8299015" lon="11.7454046"><ele>932.0</ele><time>2026-05-02T09:32:16.976Z</time></trkpt><trkpt lat="45.8299709" lon="11.7452776"><ele>932.0</ele><time>2026-05-02T09:32:18.977Z</time></trkpt><trkpt lat="45.8298916" lon="11.745173"><ele>932.0</ele><time>2026-05-02T09:32:20.977Z</time></trkpt><trkpt lat="45.8298118" lon="11.7451634"><ele>932.0</ele><time>2026-05-02T09:32:21.976Z</time></trkpt><trkpt lat="45.8297097" lon="11.7451539"><ele>932.0</ele><time>2026-05-02T09:32:22.977Z</time></trkpt><trkpt lat="45.8296052" lon="11.7451249"><ele>935.0</ele><time>2026-05-02T09:32:23.977Z</time></trkpt><trkpt lat="45.829493" lon="11.7450757"><ele>938.0</ele><time>2026-05-02T09:32:24.976Z</time></trkpt><trkpt lat="45.8293718" lon="11.7450107"><ele>941.0</ele><time>2026-05-02T09:32:25.977Z</time></trkpt><trkpt lat="45.8292617" lon="11.7449294"><ele>944.0</ele><time>2026-05-02T09:32:26.977Z</time></trkpt><trkpt lat="45.8291646" lon="11.7448395"><ele>944.0</ele><time>2026-05-02T09:32:27.977Z</time></trkpt><trkpt lat="45.829082" lon="11.7447391"><ele>944.0000000000001</ele><time>2026-05-02T09:32:28.978Z</time></trkpt><trkpt lat="45.8290281" lon="11.7446303"><ele>944.0000000000001</ele><time>2026-05-02T09:32:29.977Z</time></trkpt><trkpt lat="45.8289993" lon="11.744513"><ele>944.0</ele><time>2026-05-02T09:32:30.978Z</time></trkpt><trkpt lat="45.8289925" lon="11.7443803"><ele>944.0</ele><time>2026-05-02T09:32:31.978Z</time></trkpt><trkpt lat="45.8289969" lon="11.7442378"><ele>947.6</ele><time>2026-05-02T09:32:32.978Z</time></trkpt><trkpt lat="45.8290017" lon="11.7440951"><ele>951.2</ele><time>2026-05-02T09:32:33.977Z</time></trkpt><trkpt lat="45.8290094" lon="11.7439401"><ele>954.8000000000001</ele><time>2026-05-02T09:32:34.977Z</time></trkpt><trkpt lat="45.8290177" lon="11.7437728"><ele>958.4000000000001</ele><time>2026-05-02T09:32:35.978Z</time></trkpt><trkpt lat="45.8290287" lon="11.7435997"><ele>962.0</ele><time>2026-05-02T09:32:36.978Z</time></trkpt><trkpt lat="45.8290547" lon="11.7434287"><ele>962.5</ele><time>2026-05-02T09:32:37.977Z</time></trkpt><trkpt lat="45.829084" lon="11.7432646"><ele>963.0</ele><time>2026-05-02T09:32:38.977Z</time></trkpt><trkpt lat="45.8291123" lon="11.7431041"><ele>963.5</ele><time>2026-05-02T09:32:39.977Z</time></trkpt><trkpt lat="45.8291475" lon="11.7429456"><ele>964.0</ele><time>2026-05-02T09:32:40.977Z</time></trkpt><trkpt lat="45.8291951" lon="11.7427833"><ele>963.0</ele><time>2026-05-02T09:32:41.977Z</time></trkpt><trkpt lat="45.8292536" lon="11.7426171"><ele>962.0</ele><time>2026-05-02T09:32:42.978Z</time></trkpt><trkpt lat="45.8293133" lon="11.7424426"><ele>961.0</ele><time>2026-05-02T09:32:43.977Z</time></trkpt><trkpt lat="45.8293664" lon="11.7422674"><ele>960.0</ele><time>2026-05-02T09:32:44.978Z</time></trkpt><trkpt lat="45.8294073" lon="11.7421103"><ele>966.4</ele><time>2026-05-02T09:32:45.977Z</time></trkpt><trkpt lat="45.8294418" lon="11.7419687"><ele>972.8</ele><time>2026-05-02T09:32:46.977Z</time></trkpt><trkpt lat="45.829477" lon="11.741829"><ele>979.2</ele><time>2026-05-02T09:32:47.978Z</time></trkpt><trkpt lat="45.8295194" lon="11.741689"><ele>985.6</ele><time>2026-05-02T09:32:48.977Z</time></trkpt><trkpt lat="45.8295692" lon="11.7415533"><ele>992.0</ele><time>2026-05-02T09:32:49.978Z</time></trkpt><trkpt lat="45.8296261" lon="11.7414256"><ele>992.0000000000001</ele><time>2026-05-02T09:32:50.977Z</time></trkpt><trkpt lat="45.8296786" lon="11.7413158"><ele>992.0</ele><time>2026-05-02T09:32:51.977Z</time></trkpt><trkpt lat="45.8297264" lon="11.7412155"><ele>992.0</ele><time>2026-05-02T09:32:52.977Z</time></trkpt><trkpt lat="45.8297681" lon="11.7411148"><ele>992.0</ele><time>2026-05-02T09:32:53.978Z</time></trkpt><trkpt lat="45.8297899" lon="11.7410072"><ele>992.0000000000001</ele><time>2026-05-02T09:32:54.978Z</time></trkpt><trkpt lat="45.8297762" lon="11.7409021"><ele>992.0</ele><time>2026-05-02T09:32:55.979Z</time></trkpt><trkpt lat="45.8297334" lon="11.7408167"><ele>991.4000000000001</ele><time>2026-05-02T09:32:56.977Z</time></trkpt><trkpt lat="45.8296707" lon="11.7407634"><ele>990.8000000000001</ele><time>2026-05-02T09:32:57.978Z</time></trkpt><trkpt lat="45.8295902" lon="11.7407414"><ele>990.2</ele><time>2026-05-02T09:32:58.977Z</time></trkpt><trkpt lat="45.829494" lon="11.740745"><ele>989.6</ele><time>2026-05-02T09:32:59.977Z</time></trkpt><trkpt lat="45.8293945" lon="11.7407513"><ele>989.0</ele><time>2026-05-02T09:33:00.978Z</time></trkpt><trkpt lat="45.8292678" lon="11.740755"><ele>984.0</ele><time>2026-05-02T09:33:01.977Z</time></trkpt><trkpt lat="45.8291238" lon="11.7407316"><ele>979.0</ele><time>2026-05-02T09:33:02.978Z</time></trkpt><trkpt lat="45.8289274" lon="11.7406933"><ele>974.0</ele><time>2026-05-02T09:33:03.978Z</time></trkpt><trkpt lat="45.8287696" lon="11.7406758"><ele>974.0</ele><time>2026-05-02T09:33:04.978Z</time></trkpt><trkpt lat="45.8286356" lon="11.7406673"><ele>974.0000000000001</ele><time>2026-05-02T09:33:05.977Z</time></trkpt><trkpt lat="45.8285105" lon="11.7406524"><ele>974.0000000000001</ele><time>2026-05-02T09:33:06.977Z</time></trkpt><trkpt lat="45.8284156" lon="11.7406286"><ele>974.0</ele><time>2026-05-02T09:33:07.978Z</time></trkpt><trkpt lat="45.828326" lon="11.7406045"><ele>974.0</ele><time>2026-05-02T09:33:08.977Z</time></trkpt><trkpt lat="45.8282589" lon="11.740548"><ele>973.8333333333334</ele><time>2026-05-02T09:33:09.978Z</time></trkpt><trkpt lat="45.828198" lon="11.7404632"><ele>973.6666666666667</ele><time>2026-05-02T09:33:10.978Z</time></trkpt><trkpt lat="45.8281542" lon="11.7403552"><ele>973.5</ele><time>2026-05-02T09:33:11.978Z</time></trkpt><trkpt lat="45.8281315" lon="11.7402452"><ele>973.3333333333333</ele><time>2026-05-02T09:33:12.978Z</time></trkpt><trkpt lat="45.82812" lon="11.7401344"><ele>973.1666666666666</ele><time>2026-05-02T09:33:13.978Z</time></trkpt><trkpt lat="45.828119" lon="11.7400359"><ele>973.0</ele><time>2026-05-02T09:33:14.977Z</time></trkpt><trkpt lat="45.8281553" lon="11.7398767"><ele>974.4999999999999</ele><time>2026-05-02T09:33:16.978Z</time></trkpt><trkpt lat="45.828192" lon="11.7397959"><ele>976.0</ele><time>2026-05-02T09:33:17.978Z</time></trkpt><trkpt lat="45.8282382" lon="11.7397183"><ele>977.5</ele><time>2026-05-02T09:33:18.977Z</time></trkpt><trkpt lat="45.8282905" lon="11.7396297"><ele>979.0</ele><time>2026-05-02T09:33:19.978Z</time></trkpt><trkpt lat="45.828343" lon="11.7395201"><ele>980.4999999999999</ele><time>2026-05-02T09:33:20.978Z</time></trkpt><trkpt lat="45.8283861" lon="11.7393863"><ele>982.0</ele><time>2026-05-02T09:33:21.978Z</time></trkpt><trkpt lat="45.8284038" lon="11.7392392"><ele>983.4000000000001</ele><time>2026-05-02T09:33:22.977Z</time></trkpt><trkpt lat="45.8283947" lon="11.7390888"><ele>984.8000000000001</ele><time>2026-05-02T09:33:23.977Z</time></trkpt><trkpt lat="45.8283662" lon="11.7389352"><ele>986.2</ele><time>2026-05-02T09:33:24.977Z</time></trkpt><trkpt lat="45.828327" lon="11.738779"><ele>987.6</ele><time>2026-05-02T09:33:25.978Z</time></trkpt><trkpt lat="45.8282827" lon="11.7386244"><ele>989.0</ele><time>2026-05-02T09:33:26.977Z</time></trkpt><trkpt lat="45.8282394" lon="11.7384787"><ele>990.6666666666667</ele><time>2026-05-02T09:33:27.979Z</time></trkpt><trkpt lat="45.8282087" lon="11.7383474"><ele>992.3333333333334</ele><time>2026-05-02T09:33:28.978Z</time></trkpt><trkpt lat="45.8281873" lon="11.7382178"><ele>994.0</ele><time>2026-05-02T09:33:29.978Z</time></trkpt><trkpt lat="45.8281709" lon="11.7380845"><ele>995.6666666666667</ele><time>2026-05-02T09:33:30.979Z</time></trkpt><trkpt lat="45.8281604" lon="11.7379617"><ele>997.3333333333334</ele><time>2026-05-02T09:33:31.978Z</time></trkpt><trkpt lat="45.8281574" lon="11.7378594"><ele>999.0</ele><time>2026-05-02T09:33:32.979Z</time></trkpt><trkpt lat="45.8281542" lon="11.7376822"><ele>999.6</ele><time>2026-05-02T09:33:34.978Z</time></trkpt><trkpt lat="45.8281565" lon="11.7375667"><ele>1000.2</ele><time>2026-05-02T09:33:35.979Z</time></trkpt><trkpt lat="45.828171" lon="11.7374307"><ele>1000.8000000000001</ele><time>2026-05-02T09:33:36.979Z</time></trkpt><trkpt lat="45.828205" lon="11.7372931"><ele>1001.4000000000001</ele><time>2026-05-02T09:33:37.978Z</time></trkpt><trkpt lat="45.8282532" lon="11.7371577"><ele>1002.0</ele><time>2026-05-02T09:33:38.978Z</time></trkpt><trkpt lat="45.8283082" lon="11.7370226"><ele>1002.0</ele><time>2026-05-02T09:33:39.978Z</time></trkpt><trkpt lat="45.8283836" lon="11.736909"><ele>1002.0</ele><time>2026-05-02T09:33:40.979Z</time></trkpt><trkpt lat="45.8284781" lon="11.7368253"><ele>1002.0</ele><time>2026-05-02T09:33:41.978Z</time></trkpt><trkpt lat="45.8285921" lon="11.7367721"><ele>1002.0</ele><time>2026-05-02T09:33:42.979Z</time></trkpt><trkpt lat="45.8287194" lon="11.7367495"><ele>1001.75</ele><time>2026-05-02T09:33:43.979Z</time></trkpt><trkpt lat="45.8288452" lon="11.7367395"><ele>1001.5</ele><time>2026-05-02T09:33:44.978Z</time></trkpt><trkpt lat="45.828972" lon="11.7367345"><ele>1001.25</ele><time>2026-05-02T09:33:45.978Z</time></trkpt><trkpt lat="45.8291058" lon="11.7367419"><ele>1001.0</ele><time>2026-05-02T09:33:46.978Z</time></trkpt><trkpt lat="45.8292408" lon="11.7367628"><ele>999.5</ele><time>2026-05-02T09:33:47.978Z</time></trkpt><trkpt lat="45.8293712" lon="11.7367869"><ele>998.0</ele><time>2026-05-02T09:33:48.978Z</time></trkpt><trkpt lat="45.8295085" lon="11.7368326"><ele>996.5</ele><time>2026-05-02T09:33:49.978Z</time></trkpt><trkpt lat="45.8296555" lon="11.7368668"><ele>995.0</ele><time>2026-05-02T09:33:50.979Z</time></trkpt><trkpt lat="45.8297951" lon="11.7368913"><ele>1002.25</ele><time>2026-05-02T09:33:51.979Z</time></trkpt><trkpt lat="45.8299205" lon="11.7369107"><ele>1009.5</ele><time>2026-05-02T09:33:52.978Z</time></trkpt><trkpt lat="45.8300415" lon="11.73693"><ele>1016.75</ele><time>2026-05-02T09:33:53.979Z</time></trkpt><trkpt lat="45.8301639" lon="11.7369578"><ele>1024.0</ele><time>2026-05-02T09:33:54.978Z</time></trkpt><trkpt lat="45.830283" lon="11.7369893"><ele>1025.4</ele><time>2026-05-02T09:33:55.979Z</time></trkpt><trkpt lat="45.8303911" lon="11.7370138"><ele>1026.8000000000002</ele><time>2026-05-02T09:33:56.978Z</time></trkpt><trkpt lat="45.8304934" lon="11.7370243"><ele>1028.1999999999998</ele><time>2026-05-02T09:33:57.978Z</time></trkpt><trkpt lat="45.8305978" lon="11.7370156"><ele>1029.6</ele><time>2026-05-02T09:33:58.979Z</time></trkpt><trkpt lat="45.8307028" lon="11.7369888"><ele>1031.0</ele><time>2026-05-02T09:33:59.979Z</time></trkpt><trkpt lat="45.8308093" lon="11.7369567"><ele>1031.0</ele><time>2026-05-02T09:34:00.979Z</time></trkpt><trkpt lat="45.8309205" lon="11.7369276"><ele>1031.0</ele><time>2026-05-02T09:34:01.978Z</time></trkpt><trkpt lat="45.8310399" lon="11.7369179"><ele>1031.0</ele><time>2026-05-02T09:34:02.978Z</time></trkpt><trkpt lat="45.8311622" lon="11.7369274"><ele>1031.0</ele><time>2026-05-02T09:34:03.978Z</time></trkpt><trkpt lat="45.8312804" lon="11.7369299"><ele>1028.6</ele><time>2026-05-02T09:34:04.978Z</time></trkpt><trkpt lat="45.8313924" lon="11.7368996"><ele>1026.1999999999998</ele><time>2026-05-02T09:34:05.978Z</time></trkpt><trkpt lat="45.8314892" lon="11.7368197"><ele>1023.8000000000001</ele><time>2026-05-02T09:34:06.979Z</time></trkpt><trkpt lat="45.8315623" lon="11.7367028"><ele>1021.4000000000001</ele><time>2026-05-02T09:34:07.978Z</time></trkpt><trkpt lat="45.8316113" lon="11.7365635"><ele>1019.0</ele><time>2026-05-02T09:34:08.979Z</time></trkpt><trkpt lat="45.8316486" lon="11.7364146"><ele>1019.0</ele><time>2026-05-02T09:34:09.979Z</time></trkpt><trkpt lat="45.8316822" lon="11.7362749"><ele>1019.0000000000001</ele><time>2026-05-02T09:34:10.979Z</time></trkpt><trkpt lat="45.8317181" lon="11.7361404"><ele>1019.0000000000001</ele><time>2026-05-02T09:34:11.978Z</time></trkpt><trkpt lat="45.8317803" lon="11.7360304"><ele>1019.0</ele><time>2026-05-02T09:34:12.979Z</time></trkpt><trkpt lat="45.8318567" lon="11.7359712"><ele>1019.0</ele><time>2026-05-02T09:34:13.979Z</time></trkpt><trkpt lat="45.831933" lon="11.7359284"><ele>1019.6</ele><time>2026-05-02T09:34:14.979Z</time></trkpt><trkpt lat="45.8320286" lon="11.735943"><ele>1020.2</ele><time>2026-05-02T09:34:15.979Z</time></trkpt><trkpt lat="45.8321365" lon="11.7359452"><ele>1020.8000000000001</ele><time>2026-05-02T09:34:16.979Z</time></trkpt><trkpt lat="45.8322437" lon="11.7359326"><ele>1021.4000000000001</ele><time>2026-05-02T09:34:17.979Z</time></trkpt><trkpt lat="45.8323415" lon="11.7359164"><ele>1022.0</ele><time>2026-05-02T09:34:18.979Z</time></trkpt><trkpt lat="45.8324269" lon="11.7358967"><ele>1022.0000000000001</ele><time>2026-05-02T09:34:19.978Z</time></trkpt><trkpt lat="45.8325036" lon="11.7358629"><ele>1022.0</ele><time>2026-05-02T09:34:20.978Z</time></trkpt><trkpt lat="45.8325737" lon="11.7358018"><ele>1022.0</ele><time>2026-05-02T09:34:21.978Z</time></trkpt><trkpt lat="45.8326387" lon="11.7357124"><ele>1022.0</ele><time>2026-05-02T09:34:22.979Z</time></trkpt><trkpt lat="45.8326969" lon="11.735604"><ele>1022.0000000000001</ele><time>2026-05-02T09:34:23.978Z</time></trkpt><trkpt lat="45.8327466" lon="11.7354879"><ele>1022.0</ele><time>2026-05-02T09:34:24.978Z</time></trkpt><trkpt lat="45.8327898" lon="11.7353757"><ele>1021.4000000000001</ele><time>2026-05-02T09:34:25.978Z</time></trkpt><trkpt lat="45.8328403" lon="11.7352838"><ele>1020.8000000000001</ele><time>2026-05-02T09:34:26.978Z</time></trkpt><trkpt lat="45.8329098" lon="11.7352164"><ele>1020.2</ele><time>2026-05-02T09:34:27.979Z</time></trkpt><trkpt lat="45.8329999" lon="11.7351802"><ele>1019.6</ele><time>2026-05-02T09:34:28.979Z</time></trkpt><trkpt lat="45.8331019" lon="11.7351613"><ele>1019.0</ele><time>2026-05-02T09:34:29.979Z</time></trkpt><trkpt lat="45.8332036" lon="11.7351389"><ele>1019.0</ele><time>2026-05-02T09:34:30.978Z</time></trkpt><trkpt lat="45.8332992" lon="11.7351074"><ele>1019.0000000000001</ele><time>2026-05-02T09:34:31.978Z</time></trkpt><trkpt lat="45.83339" lon="11.7350777"><ele>1019.0000000000001</ele><time>2026-05-02T09:34:32.98Z</time></trkpt><trkpt lat="45.8334797" lon="11.735053"><ele>1019.0</ele><time>2026-05-02T09:34:33.98Z</time></trkpt><trkpt lat="45.8335661" lon="11.7350232"><ele>1019.0</ele><time>2026-05-02T09:34:34.979Z</time></trkpt><trkpt lat="45.8336404" lon="11.7349886"><ele>1019.4285714285716</ele><time>2026-05-02T09:34:35.979Z</time></trkpt><trkpt lat="45.8337031" lon="11.7349504"><ele>1019.8571428571429</ele><time>2026-05-02T09:34:36.98Z</time></trkpt><trkpt lat="45.8337615" lon="11.7349083"><ele>1020.2857142857143</ele><time>2026-05-02T09:34:37.98Z</time></trkpt><trkpt lat="45.8338192" lon="11.7348607"><ele>1020.7142857142858</ele><time>2026-05-02T09:34:38.979Z</time></trkpt><trkpt lat="45.8338777" lon="11.7348062"><ele>1021.1428571428571</ele><time>2026-05-02T09:34:39.98Z</time></trkpt><trkpt lat="45.8339357" lon="11.7347426"><ele>1021.5714285714286</ele><time>2026-05-02T09:34:40.98Z</time></trkpt><trkpt lat="45.8339928" lon="11.7346706"><ele>1022.0</ele><time>2026-05-02T09:34:41.98Z</time></trkpt><trkpt lat="45.8340501" lon="11.734592"><ele>1022.0</ele><time>2026-05-02T09:34:42.98Z</time></trkpt><trkpt lat="45.8341074" lon="11.7345103"><ele>1022.0</ele><time>2026-05-02T09:34:43.98Z</time></trkpt><trkpt lat="45.8341593" lon="11.7344329"><ele>1022.0</ele><time>2026-05-02T09:34:44.98Z</time></trkpt><trkpt lat="45.834206" lon="11.7343662"><ele>1022.0</ele><time>2026-05-02T09:34:45.979Z</time></trkpt><trkpt lat="45.8342527" lon="11.7343021"><ele>1022.0</ele><time>2026-05-02T09:34:46.979Z</time></trkpt><trkpt lat="45.8343026" lon="11.734234"><ele>1022.0</ele><time>2026-05-02T09:34:47.98Z</time></trkpt><trkpt lat="45.8343588" lon="11.7341636"><ele>1022.0</ele><time>2026-05-02T09:34:48.979Z</time></trkpt><trkpt lat="45.8344182" lon="11.7341007"><ele>1022.0</ele><time>2026-05-02T09:34:49.979Z</time></trkpt><trkpt lat="45.8344945" lon="11.7340549"><ele>1022.0</ele><time>2026-05-02T09:34:50.979Z</time></trkpt><trkpt lat="45.8345696" lon="11.7340244"><ele>1022.0</ele><time>2026-05-02T09:34:51.979Z</time></trkpt><trkpt lat="45.8346386" lon="11.7340031"><ele>1022.0</ele><time>2026-05-02T09:34:52.98Z</time></trkpt><trkpt lat="45.8347023" lon="11.7339872"><ele>1022.0</ele><time>2026-05-02T09:34:53.979Z</time></trkpt><trkpt lat="45.8347669" lon="11.7339775"><ele>1022.0</ele><time>2026-05-02T09:34:54.98Z</time></trkpt><trkpt lat="45.8348333" lon="11.7339825"><ele>1022.0</ele><time>2026-05-02T09:34:55.979Z</time></trkpt><trkpt lat="45.8348952" lon="11.734005"><ele>1022.0000000000001</ele><time>2026-05-02T09:34:56.98Z</time></trkpt><trkpt lat="45.8349466" lon="11.7340608"><ele>1022.0</ele><time>2026-05-02T09:34:57.98Z</time></trkpt><trkpt lat="45.8349819" lon="11.7341424"><ele>1022.0</ele><time>2026-05-02T09:34:58.98Z</time></trkpt><trkpt lat="45.8350045" lon="11.7342374"><ele>1022.0</ele><time>2026-05-02T09:34:59.979Z</time></trkpt><trkpt lat="45.8350252" lon="11.7343458"><ele>1022.0000000000001</ele><time>2026-05-02T09:35:00.979Z</time></trkpt><trkpt lat="45.8350533" lon="11.7344636"><ele>1022.0</ele><time>2026-05-02T09:35:01.98Z</time></trkpt><trkpt lat="45.8350958" lon="11.7345791"><ele>1019.2</ele><time>2026-05-02T09:35:02.98Z</time></trkpt><trkpt lat="45.835155" lon="11.7346789"><ele>1016.4000000000001</ele><time>2026-05-02T09:35:03.979Z</time></trkpt><trkpt lat="45.8352278" lon="11.7347661"><ele>1013.5999999999999</ele><time>2026-05-02T09:35:04.98Z</time></trkpt><trkpt lat="45.8353062" lon="11.7348443"><ele>1010.8</ele><time>2026-05-02T09:35:05.979Z</time></trkpt><trkpt lat="45.8353836" lon="11.7349155"><ele>1008.0</ele><time>2026-05-02T09:35:06.98Z</time></trkpt><trkpt lat="45.8354583" lon="11.7349825"><ele>1008.0</ele><time>2026-05-02T09:35:07.979Z</time></trkpt><trkpt lat="45.8355337" lon="11.7350525"><ele>1008.0</ele><time>2026-05-02T09:35:08.98Z</time></trkpt><trkpt lat="45.8356123" lon="11.7351313"><ele>1008.0</ele><time>2026-05-02T09:35:09.98Z</time></trkpt><trkpt lat="45.835696" lon="11.7352188"><ele>1008.0</ele><time>2026-05-02T09:35:10.98Z</time></trkpt><trkpt lat="45.8357794" lon="11.7353248"><ele>1008.0</ele><time>2026-05-02T09:35:11.98Z</time></trkpt><trkpt lat="45.8358564" lon="11.7354335"><ele>1007.2</ele><time>2026-05-02T09:35:12.98Z</time></trkpt><trkpt lat="45.8359279" lon="11.7355363"><ele>1006.4</ele><time>2026-05-02T09:35:13.98Z</time></trkpt><trkpt lat="45.8360006" lon="11.7356321"><ele>1005.6000000000001</ele><time>2026-05-02T09:35:14.979Z</time></trkpt><trkpt lat="45.8360817" lon="11.7357211"><ele>1004.8000000000001</ele><time>2026-05-02T09:35:15.98Z</time></trkpt><trkpt lat="45.8361748" lon="11.735802"><ele>1004.0</ele><time>2026-05-02T09:35:16.979Z</time></trkpt><trkpt lat="45.8362844" lon="11.7358698"><ele>1003.5</ele><time>2026-05-02T09:35:17.98Z</time></trkpt><trkpt lat="45.8364102" lon="11.7359181"><ele>1003.0</ele><time>2026-05-02T09:35:18.979Z</time></trkpt><trkpt lat="45.8365394" lon="11.7359566"><ele>1002.5</ele><time>2026-05-02T09:35:19.98Z</time></trkpt><trkpt lat="45.8366638" lon="11.7359935"><ele>1002.0</ele><time>2026-05-02T09:35:20.98Z</time></trkpt><trkpt lat="45.8367779" lon="11.7360399"><ele>1002.2</ele><time>2026-05-02T09:35:21.979Z</time></trkpt><trkpt lat="45.8368814" lon="11.7360982"><ele>1002.4000000000001</ele><time>2026-05-02T09:35:22.979Z</time></trkpt><trkpt lat="45.8369767" lon="11.7361571"><ele>1002.5999999999999</ele><time>2026-05-02T09:35:23.979Z</time></trkpt><trkpt lat="45.8370694" lon="11.7362113"><ele>1002.8</ele><time>2026-05-02T09:35:24.98Z</time></trkpt><trkpt lat="45.8371633" lon="11.7362585"><ele>1003.0</ele><time>2026-05-02T09:35:25.98Z</time></trkpt><trkpt lat="45.8372615" lon="11.7362967"><ele>1003.0</ele><time>2026-05-02T09:35:26.979Z</time></trkpt><trkpt lat="45.8373539" lon="11.7363288"><ele>1003.0</ele><time>2026-05-02T09:35:27.979Z</time></trkpt><trkpt lat="45.837436" lon="11.7363656"><ele>1003.0</ele><time>2026-05-02T09:35:28.981Z</time></trkpt><trkpt lat="45.8375137" lon="11.7364168"><ele>1003.0</ele><time>2026-05-02T09:35:29.981Z</time></trkpt><trkpt lat="45.8375944" lon="11.7364836"><ele>1003.0</ele><time>2026-05-02T09:35:30.981Z</time></trkpt><trkpt lat="45.8376736" lon="11.7365558"><ele>1002.4</ele><time>2026-05-02T09:35:31.98Z</time></trkpt><trkpt lat="45.8377486" lon="11.7366251"><ele>1001.8</ele><time>2026-05-02T09:35:32.981Z</time></trkpt><trkpt lat="45.8378246" lon="11.7366875"><ele>1001.2</ele><time>2026-05-02T09:35:33.98Z</time></trkpt><trkpt lat="45.837907" lon="11.7367322"><ele>1000.6</ele><time>2026-05-02T09:35:34.98Z</time></trkpt><trkpt lat="45.838008" lon="11.7367534"><ele>1000.0</ele><time>2026-05-02T09:35:35.98Z</time></trkpt><trkpt lat="45.8381142" lon="11.736771"><ele>1000.0</ele><time>2026-05-02T09:35:36.98Z</time></trkpt><trkpt lat="45.8382766" lon="11.7367615"><ele>1000.0</ele><time>2026-05-02T09:35:37.981Z</time></trkpt><trkpt lat="45.8384543" lon="11.7367575"><ele>1000.0</ele><time>2026-05-02T09:35:38.981Z</time></trkpt><trkpt lat="45.8386232" lon="11.7367638"><ele>999.4</ele><time>2026-05-02T09:35:39.98Z</time></trkpt><trkpt lat="45.8387692" lon="11.7367727"><ele>998.8</ele><time>2026-05-02T09:35:40.981Z</time></trkpt><trkpt lat="45.8388865" lon="11.7367815"><ele>998.2</ele><time>2026-05-02T09:35:41.981Z</time></trkpt><trkpt lat="45.838974" lon="11.7367836"><ele>997.6</ele><time>2026-05-02T09:35:42.98Z</time></trkpt><trkpt lat="45.8390492" lon="11.7367821"><ele>997.0</ele><time>2026-05-02T09:35:43.98Z</time></trkpt><trkpt lat="45.8391146" lon="11.7367916"><ele>997.0</ele><time>2026-05-02T09:35:44.981Z</time></trkpt><trkpt lat="45.8391897" lon="11.7368191"><ele>997.0</ele><time>2026-05-02T09:35:45.981Z</time></trkpt><trkpt lat="45.8392732" lon="11.7368738"><ele>997.0</ele><time>2026-05-02T09:35:46.981Z</time></trkpt><trkpt lat="45.8393583" lon="11.7369552"><ele>997.0</ele><time>2026-05-02T09:35:47.981Z</time></trkpt><trkpt lat="45.8394463" lon="11.7370474"><ele>997.0</ele><time>2026-05-02T09:35:48.98Z</time></trkpt><trkpt lat="45.8395356" lon="11.7371403"><ele>998.2</ele><time>2026-05-02T09:35:49.981Z</time></trkpt><trkpt lat="45.8396287" lon="11.7372329"><ele>999.4000000000001</ele><time>2026-05-02T09:35:50.981Z</time></trkpt><trkpt lat="45.839724" lon="11.7373187"><ele>1000.5999999999999</ele><time>2026-05-02T09:35:51.98Z</time></trkpt><trkpt lat="45.8398152" lon="11.7373892"><ele>1001.8</ele><time>2026-05-02T09:35:52.981Z</time></trkpt><trkpt lat="45.8399002" lon="11.7374474"><ele>1003.0</ele><time>2026-05-02T09:35:53.98Z</time></trkpt><trkpt lat="45.8399794" lon="11.7375029"><ele>1003.0</ele><time>2026-05-02T09:35:54.981Z</time></trkpt><trkpt lat="45.8400605" lon="11.7375715"><ele>1003.0</ele><time>2026-05-02T09:35:55.981Z</time></trkpt><trkpt lat="45.8401406" lon="11.7376587"><ele>1003.0</ele><time>2026-05-02T09:35:56.981Z</time></trkpt><trkpt lat="45.8402184" lon="11.7377637"><ele>1003.0</ele><time>2026-05-02T09:35:57.981Z</time></trkpt><trkpt lat="45.8402907" lon="11.7378815"><ele>1003.0</ele><time>2026-05-02T09:35:58.98Z</time></trkpt><trkpt lat="45.8403587" lon="11.738008"><ele>1001.8</ele><time>2026-05-02T09:35:59.981Z</time></trkpt><trkpt lat="45.8404228" lon="11.738141"><ele>1000.5999999999999</ele><time>2026-05-02T09:36:00.981Z</time></trkpt><trkpt lat="45.8404785" lon="11.7382742"><ele>999.4000000000001</ele><time>2026-05-02T09:36:01.98Z</time></trkpt><trkpt lat="45.8405249" lon="11.7383946"><ele>998.2</ele><time>2026-05-02T09:36:02.98Z</time></trkpt><trkpt lat="45.8405676" lon="11.7385049"><ele>997.0</ele><time>2026-05-02T09:36:03.98Z</time></trkpt><trkpt lat="45.8406156" lon="11.7386186"><ele>997.0</ele><time>2026-05-02T09:36:04.98Z</time></trkpt><trkpt lat="45.8406776" lon="11.7387348"><ele>997.0</ele><time>2026-05-02T09:36:05.981Z</time></trkpt><trkpt lat="45.8407487" lon="11.7388228"><ele>997.0</ele><time>2026-05-02T09:36:06.98Z</time></trkpt><trkpt lat="45.8408183" lon="11.7389041"><ele>997.0</ele><time>2026-05-02T09:36:07.981Z</time></trkpt><trkpt lat="45.8409182" lon="11.7389708"><ele>997.0</ele><time>2026-05-02T09:36:08.98Z</time></trkpt><trkpt lat="45.8410161" lon="11.7390429"><ele>999.0</ele><time>2026-05-02T09:36:09.981Z</time></trkpt><trkpt lat="45.8411035" lon="11.7391161"><ele>1001.0</ele><time>2026-05-02T09:36:10.98Z</time></trkpt><trkpt lat="45.8411786" lon="11.7392039"><ele>1003.0</ele><time>2026-05-02T09:36:11.98Z</time></trkpt><trkpt lat="45.8412352" lon="11.7393096"><ele>1005.0</ele><time>2026-05-02T09:36:12.981Z</time></trkpt><trkpt lat="45.8412842" lon="11.7394205"><ele>1007.0</ele><time>2026-05-02T09:36:13.98Z</time></trkpt><trkpt lat="45.841334" lon="11.7395331"><ele>1007.0</ele><time>2026-05-02T09:36:14.981Z</time></trkpt><trkpt lat="45.8413898" lon="11.7396574"><ele>1007.0</ele><time>2026-05-02T09:36:15.981Z</time></trkpt><trkpt lat="45.8414468" lon="11.739782"><ele>1007.0</ele><time>2026-05-02T09:36:16.98Z</time></trkpt><trkpt lat="45.8415106" lon="11.7399081"><ele>1007.0</ele><time>2026-05-02T09:36:17.98Z</time></trkpt><trkpt lat="45.8415783" lon="11.7400272"><ele>1007.0</ele><time>2026-05-02T09:36:18.98Z</time></trkpt><trkpt lat="45.8416583" lon="11.7401225"><ele>1007.0</ele><time>2026-05-02T09:36:19.981Z</time></trkpt><trkpt lat="45.8417389" lon="11.7402108"><ele>1007.0</ele><time>2026-05-02T09:36:20.981Z</time></trkpt><trkpt lat="45.8418206" lon="11.7402888"><ele>1007.0</ele><time>2026-05-02T09:36:21.981Z</time></trkpt><trkpt lat="45.8419019" lon="11.7403527"><ele>1007.0</ele><time>2026-05-02T09:36:22.98Z</time></trkpt><trkpt lat="45.8419782" lon="11.7404052"><ele>1007.0</ele><time>2026-05-02T09:36:23.98Z</time></trkpt><trkpt lat="45.8420519" lon="11.7404544"><ele>1006.5000000000001</ele><time>2026-05-02T09:36:24.981Z</time></trkpt><trkpt lat="45.8421274" lon="11.7405007"><ele>1006.0</ele><time>2026-05-02T09:36:25.981Z</time></trkpt><trkpt lat="45.8422058" lon="11.7405389"><ele>1005.5</ele><time>2026-05-02T09:36:26.981Z</time></trkpt><trkpt lat="45.8422831" lon="11.7405693"><ele>1005.0</ele><time>2026-05-02T09:36:27.98Z</time></trkpt><trkpt lat="45.8423685" lon="11.7405627"><ele>1004.5000000000001</ele><time>2026-05-02T09:36:28.98Z</time></trkpt><trkpt lat="45.8424469" lon="11.7405481"><ele>1004.0</ele><time>2026-05-02T09:36:29.98Z</time></trkpt><trkpt lat="45.8425212" lon="11.7405373"><ele>1004.0000000000001</ele><time>2026-05-02T09:36:30.981Z</time></trkpt><trkpt lat="45.8425907" lon="11.740537"><ele>1004.0</ele><time>2026-05-02T09:36:31.98Z</time></trkpt><trkpt lat="45.8427128" lon="11.7405981"><ele>1004.0</ele><time>2026-05-02T09:36:33.981Z</time></trkpt><trkpt lat="45.8427752" lon="11.7406451"><ele>1004.0</ele><time>2026-05-02T09:36:34.98Z</time></trkpt><trkpt lat="45.8428346" lon="11.740728"><ele>1004.0000000000001</ele><time>2026-05-02T09:36:35.98Z</time></trkpt><trkpt lat="45.8428819" lon="11.7408408"><ele>1004.0</ele><time>2026-05-02T09:36:36.98Z</time></trkpt><trkpt lat="45.8428942" lon="11.7410128"><ele>1009.2</ele><time>2026-05-02T09:36:37.982Z</time></trkpt><trkpt lat="45.8429043" lon="11.7411676"><ele>1014.4000000000001</ele><time>2026-05-02T09:36:38.982Z</time></trkpt><trkpt lat="45.8429166" lon="11.7413175"><ele>1019.6</ele><time>2026-05-02T09:36:39.982Z</time></trkpt><trkpt lat="45.8429394" lon="11.7414632"><ele>1024.8</ele><time>2026-05-02T09:36:40.981Z</time></trkpt><trkpt lat="45.842963" lon="11.741609"><ele>1030.0</ele><time>2026-05-02T09:36:41.981Z</time></trkpt><trkpt lat="45.8429877" lon="11.741745"><ele>1030.0</ele><time>2026-05-02T09:36:42.981Z</time></trkpt><trkpt lat="45.8430039" lon="11.7418583"><ele>1030.0</ele><time>2026-05-02T09:36:43.982Z</time></trkpt><trkpt lat="45.8430143" lon="11.7419612"><ele>1030.0</ele><time>2026-05-02T09:36:44.981Z</time></trkpt><trkpt lat="45.8430215" lon="11.7420739"><ele>1030.0</ele><time>2026-05-02T09:36:45.982Z</time></trkpt><trkpt lat="45.8430246" lon="11.7421943"><ele>1030.0</ele><time>2026-05-02T09:36:46.982Z</time></trkpt><trkpt lat="45.8430222" lon="11.7423072"><ele>1030.0</ele><time>2026-05-02T09:36:47.981Z</time></trkpt><trkpt lat="45.8430121" lon="11.7424129"><ele>1028.8333333333333</ele><time>2026-05-02T09:36:48.981Z</time></trkpt><trkpt lat="45.8429976" lon="11.7425177"><ele>1027.6666666666665</ele><time>2026-05-02T09:36:49.981Z</time></trkpt><trkpt lat="45.8429836" lon="11.7426229"><ele>1026.5</ele><time>2026-05-02T09:36:50.981Z</time></trkpt><trkpt lat="45.8429868" lon="11.7427275"><ele>1025.3333333333333</ele><time>2026-05-02T09:36:51.982Z</time></trkpt><trkpt lat="45.8430136" lon="11.7428286"><ele>1024.1666666666667</ele><time>2026-05-02T09:36:52.981Z</time></trkpt><trkpt lat="45.8430664" lon="11.7429273"><ele>1023.0</ele><time>2026-05-02T09:36:53.981Z</time></trkpt><trkpt lat="45.8431257" lon="11.7430307"><ele>1023.0</ele><time>2026-05-02T09:36:54.981Z</time></trkpt><trkpt lat="45.8431999" lon="11.7431469"><ele>1023.0</ele><time>2026-05-02T09:36:55.982Z</time></trkpt><trkpt lat="45.8432726" lon="11.7432612"><ele>1023.0</ele><time>2026-05-02T09:36:56.982Z</time></trkpt><trkpt lat="45.843344" lon="11.7433749"><ele>1023.0</ele><time>2026-05-02T09:36:57.982Z</time></trkpt><trkpt lat="45.8434146" lon="11.7434965"><ele>1023.0</ele><time>2026-05-02T09:36:58.982Z</time></trkpt><trkpt lat="45.8434838" lon="11.743627"><ele>1023.0</ele><time>2026-05-02T09:36:59.982Z</time></trkpt><trkpt lat="45.8435457" lon="11.7437641"><ele>1023.0</ele><time>2026-05-02T09:37:00.981Z</time></trkpt><trkpt lat="45.8436092" lon="11.7438996"><ele>1023.0</ele><time>2026-05-02T09:37:01.981Z</time></trkpt><trkpt lat="45.8436829" lon="11.7440238"><ele>1023.0</ele><time>2026-05-02T09:37:02.982Z</time></trkpt><trkpt lat="45.843765" lon="11.7441493"><ele>1023.0</ele><time>2026-05-02T09:37:03.982Z</time></trkpt><trkpt lat="45.843865" lon="11.7442796"><ele>1023.0</ele><time>2026-05-02T09:37:04.981Z</time></trkpt><trkpt lat="45.8439642" lon="11.7444142"><ele>1023.0</ele><time>2026-05-02T09:37:05.981Z</time></trkpt><trkpt lat="45.8440566" lon="11.7445307"><ele>1023.0</ele><time>2026-05-02T09:37:06.982Z</time></trkpt><trkpt lat="45.8441409" lon="11.7446263"><ele>1021.6666666666666</ele><time>2026-05-02T09:37:07.981Z</time></trkpt><trkpt lat="45.844215" lon="11.7447158"><ele>1020.3333333333333</ele><time>2026-05-02T09:37:08.981Z</time></trkpt><trkpt lat="45.844283" lon="11.7447989"><ele>1019.0</ele><time>2026-05-02T09:37:09.981Z</time></trkpt><trkpt lat="45.8443468" lon="11.7448769"><ele>1017.6666666666666</ele><time>2026-05-02T09:37:10.981Z</time></trkpt><trkpt lat="45.8444035" lon="11.7449452"><ele>1016.3333333333333</ele><time>2026-05-02T09:37:11.982Z</time></trkpt><trkpt lat="45.8444571" lon="11.7450067"><ele>1015.0</ele><time>2026-05-02T09:37:12.982Z</time></trkpt><trkpt lat="45.8445152" lon="11.7450625"><ele>1015.0</ele><time>2026-05-02T09:37:13.981Z</time></trkpt><trkpt lat="45.8445772" lon="11.7451118"><ele>1015.0</ele><time>2026-05-02T09:37:14.981Z</time></trkpt><trkpt lat="45.8446373" lon="11.7451514"><ele>1015.0</ele><time>2026-05-02T09:37:15.982Z</time></trkpt><trkpt lat="45.8446974" lon="11.7451839"><ele>1015.0</ele><time>2026-05-02T09:37:16.982Z</time></trkpt><trkpt lat="45.8447607" lon="11.7452121"><ele>1015.0</ele><time>2026-05-02T09:37:17.981Z</time></trkpt><trkpt lat="45.844829" lon="11.7452291"><ele>1015.0</ele><time>2026-05-02T09:37:18.981Z</time></trkpt><trkpt lat="45.8448939" lon="11.7452377"><ele>1015.0</ele><time>2026-05-02T09:37:19.982Z</time></trkpt><trkpt lat="45.8449639" lon="11.7452087"><ele>1014.9999999999999</ele><time>2026-05-02T09:37:20.982Z</time></trkpt><trkpt lat="45.8450285" lon="11.7451666"><ele>1015.0</ele><time>2026-05-02T09:37:21.982Z</time></trkpt><trkpt lat="45.8450822" lon="11.7451131"><ele>1015.0</ele><time>2026-05-02T09:37:22.982Z</time></trkpt><trkpt lat="45.845133" lon="11.7450565"><ele>1015.0</ele><time>2026-05-02T09:37:23.983Z</time></trkpt><trkpt lat="45.8451873" lon="11.7449903"><ele>1014.9999999999999</ele><time>2026-05-02T09:37:24.983Z</time></trkpt><trkpt lat="45.8452525" lon="11.7449175"><ele>1015.0</ele><time>2026-05-02T09:37:25.981Z</time></trkpt><trkpt lat="45.8453528" lon="11.7448519"><ele>1013.0</ele><time>2026-05-02T09:37:26.981Z</time></trkpt><trkpt lat="45.8454561" lon="11.7447906"><ele>1011.0</ele><time>2026-05-02T09:37:27.981Z</time></trkpt><trkpt lat="45.8455615" lon="11.7447326"><ele>1009.0</ele><time>2026-05-02T09:37:28.982Z</time></trkpt><trkpt lat="45.8456623" lon="11.7446668"><ele>1007.0</ele><time>2026-05-02T09:37:29.982Z</time></trkpt><trkpt lat="45.8457687" lon="11.744598"><ele>1007.0</ele><time>2026-05-02T09:37:30.982Z</time></trkpt><trkpt lat="45.8458675" lon="11.7445282"><ele>1007.0</ele><time>2026-05-02T09:37:31.981Z</time></trkpt><trkpt lat="45.8459658" lon="11.7444475"><ele>1007.0</ele><time>2026-05-02T09:37:32.982Z</time></trkpt><trkpt lat="45.8460535" lon="11.7443691"><ele>1007.0</ele><time>2026-05-02T09:37:33.982Z</time></trkpt><trkpt lat="45.8461252" lon="11.7442835"><ele>1007.0</ele><time>2026-05-02T09:37:34.981Z</time></trkpt><trkpt lat="45.8461947" lon="11.7441953"><ele>1006.6</ele><time>2026-05-02T09:37:35.982Z</time></trkpt><trkpt lat="45.846266" lon="11.7441027"><ele>1006.2</ele><time>2026-05-02T09:37:36.982Z</time></trkpt><trkpt lat="45.8463296" lon="11.7440032"><ele>1005.8</ele><time>2026-05-02T09:37:37.981Z</time></trkpt><trkpt lat="45.8463934" lon="11.7438866"><ele>1005.4</ele><time>2026-05-02T09:37:38.981Z</time></trkpt><trkpt lat="45.8464606" lon="11.7437641"><ele>1005.0</ele><time>2026-05-02T09:37:39.981Z</time></trkpt><trkpt lat="45.8465164" lon="11.7436344"><ele>1007.4</ele><time>2026-05-02T09:37:40.982Z</time></trkpt><trkpt lat="45.8465693" lon="11.7435116"><ele>1009.8</ele><time>2026-05-02T09:37:41.982Z</time></trkpt><trkpt lat="45.846622" lon="11.743404"><ele>1012.2</ele><time>2026-05-02T09:37:42.983Z</time></trkpt><trkpt lat="45.846681" lon="11.7432956"><ele>1014.6</ele><time>2026-05-02T09:37:43.983Z</time></trkpt><trkpt lat="45.8467778" lon="11.7432304"><ele>1017.0</ele><time>2026-05-02T09:37:44.982Z</time></trkpt><trkpt lat="45.8468745" lon="11.7432088"><ele>1015.4000000000001</ele><time>2026-05-02T09:37:45.983Z</time></trkpt><trkpt lat="45.8469647" lon="11.7432343"><ele>1013.8000000000001</ele><time>2026-05-02T09:37:46.982Z</time></trkpt><trkpt lat="45.8470491" lon="11.7432962"><ele>1012.2</ele><time>2026-05-02T09:37:47.982Z</time></trkpt><trkpt lat="45.84713" lon="11.7433811"><ele>1010.6</ele><time>2026-05-02T09:37:48.982Z</time></trkpt><trkpt lat="45.8472076" lon="11.7434683"><ele>1009.0</ele><time>2026-05-02T09:37:49.983Z</time></trkpt><trkpt lat="45.8472568" lon="11.7435727"><ele>1009.0</ele><time>2026-05-02T09:37:50.983Z</time></trkpt><trkpt lat="45.8472944" lon="11.7436722"><ele>1009.0</ele><time>2026-05-02T09:37:51.983Z</time></trkpt><trkpt lat="45.8473295" lon="11.7437674"><ele>1009.0</ele><time>2026-05-02T09:37:52.982Z</time></trkpt><trkpt lat="45.8473638" lon="11.7438606"><ele>1009.0</ele><time>2026-05-02T09:37:53.983Z</time></trkpt><trkpt lat="45.8474037" lon="11.7439386"><ele>1009.0</ele><time>2026-05-02T09:37:54.982Z</time></trkpt><trkpt lat="45.8474508" lon="11.7440014"><ele>1009.0</ele><time>2026-05-02T09:37:55.983Z</time></trkpt><trkpt lat="45.8475117" lon="11.744052"><ele>1009.0</ele><time>2026-05-02T09:37:56.982Z</time></trkpt><trkpt lat="45.847591" lon="11.7440722"><ele>1007.8000000000001</ele><time>2026-05-02T09:37:57.982Z</time></trkpt><trkpt lat="45.8476832" lon="11.7440489"><ele>1006.6000000000001</ele><time>2026-05-02T09:37:58.982Z</time></trkpt><trkpt lat="45.8477814" lon="11.7439942"><ele>1005.4</ele><time>2026-05-02T09:37:59.982Z</time></trkpt><trkpt lat="45.8478847" lon="11.7439259"><ele>1004.2</ele><time>2026-05-02T09:38:00.983Z</time></trkpt><trkpt lat="45.8479879" lon="11.7438545"><ele>1003.0</ele><time>2026-05-02T09:38:01.983Z</time></trkpt><trkpt lat="45.8480848" lon="11.7437967"><ele>1002.9999999999999</ele><time>2026-05-02T09:38:02.982Z</time></trkpt><trkpt lat="45.8481744" lon="11.7437543"><ele>1003.0</ele><time>2026-05-02T09:38:03.983Z</time></trkpt><trkpt lat="45.8482575" lon="11.7437134"><ele>1003.0</ele><time>2026-05-02T09:38:04.983Z</time></trkpt><trkpt lat="45.8483414" lon="11.7436591"><ele>1003.0</ele><time>2026-05-02T09:38:05.982Z</time></trkpt><trkpt lat="45.8484224" lon="11.7435942"><ele>1002.9999999999999</ele><time>2026-05-02T09:38:06.982Z</time></trkpt><trkpt lat="45.8484907" lon="11.7435293"><ele>1003.0</ele><time>2026-05-02T09:38:07.982Z</time></trkpt><trkpt lat="45.8485487" lon="11.7434689"><ele>1005.4</ele><time>2026-05-02T09:38:08.983Z</time></trkpt><trkpt lat="45.8486029" lon="11.7434154"><ele>1007.8</ele><time>2026-05-02T09:38:09.983Z</time></trkpt><trkpt lat="45.8486748" lon="11.7433335"><ele>1010.2</ele><time>2026-05-02T09:38:11.982Z</time></trkpt><trkpt lat="45.8487425" lon="11.7432595"><ele>1012.6</ele><time>2026-05-02T09:38:13.983Z</time></trkpt><trkpt lat="45.8488193" lon="11.7431747"><ele>1015.0</ele><time>2026-05-02T09:38:15.982Z</time></trkpt><trkpt lat="45.8489188" lon="11.74307"><ele>1015.0</ele><time>2026-05-02T09:38:17.983Z</time></trkpt><trkpt lat="45.8489865" lon="11.743016"><ele>1015.0</ele><time>2026-05-02T09:38:18.982Z</time></trkpt><trkpt lat="45.8490637" lon="11.7429692"><ele>1015.0</ele><time>2026-05-02T09:38:19.983Z</time></trkpt><trkpt lat="45.8491569" lon="11.7429313"><ele>1015.0</ele><time>2026-05-02T09:38:20.983Z</time></trkpt><trkpt lat="45.849261" lon="11.7428923"><ele>1015.0</ele><time>2026-05-02T09:38:21.983Z</time></trkpt><trkpt lat="45.8493966" lon="11.7428637"><ele>1012.25</ele><time>2026-05-02T09:38:22.983Z</time></trkpt><trkpt lat="45.8495252" lon="11.7428257"><ele>1009.5</ele><time>2026-05-02T09:38:23.983Z</time></trkpt><trkpt lat="45.8496387" lon="11.7427826"><ele>1006.75</ele><time>2026-05-02T09:38:24.983Z</time></trkpt><trkpt lat="45.8497427" lon="11.7427445"><ele>1004.0</ele><time>2026-05-02T09:38:25.983Z</time></trkpt><trkpt lat="45.8498475" lon="11.7427208"><ele>1004.0000000000001</ele><time>2026-05-02T09:38:26.982Z</time></trkpt><trkpt lat="45.8499487" lon="11.7427269"><ele>1004.0</ele><time>2026-05-02T09:38:27.983Z</time></trkpt><trkpt lat="45.8500363" lon="11.7427595"><ele>1004.0</ele><time>2026-05-02T09:38:28.982Z</time></trkpt><trkpt lat="45.8501152" lon="11.7428013"><ele>1004.0</ele><time>2026-05-02T09:38:29.982Z</time></trkpt><trkpt lat="45.8501925" lon="11.7428407"><ele>1004.0000000000001</ele><time>2026-05-02T09:38:30.983Z</time></trkpt><trkpt lat="45.8502706" lon="11.7428725"><ele>1004.0</ele><time>2026-05-02T09:38:31.983Z</time></trkpt><trkpt lat="45.850352" lon="11.7428851"><ele>1001.75</ele><time>2026-05-02T09:38:32.982Z</time></trkpt><trkpt lat="45.8504435" lon="11.7428662"><ele>999.5</ele><time>2026-05-02T09:38:33.983Z</time></trkpt><trkpt lat="45.8505481" lon="11.742814"><ele>997.25</ele><time>2026-05-02T09:38:34.982Z</time></trkpt><trkpt lat="45.8506636" lon="11.7427415"><ele>995.0</ele><time>2026-05-02T09:38:35.983Z</time></trkpt><trkpt lat="45.8507809" lon="11.7426604"><ele>996.0</ele><time>2026-05-02T09:38:36.982Z</time></trkpt><trkpt lat="45.8508909" lon="11.7425829"><ele>997.0</ele><time>2026-05-02T09:38:37.982Z</time></trkpt><trkpt lat="45.8509881" lon="11.7425168"><ele>998.0</ele><time>2026-05-02T09:38:38.983Z</time></trkpt><trkpt lat="45.8510815" lon="11.7424479"><ele>999.0</ele><time>2026-05-02T09:38:39.983Z</time></trkpt><trkpt lat="45.8511692" lon="11.7423598"><ele>1000.0</ele><time>2026-05-02T09:38:40.983Z</time></trkpt><trkpt lat="45.8512438" lon="11.7422271"><ele>1000.0</ele><time>2026-05-02T09:38:41.984Z</time></trkpt><trkpt lat="45.8513212" lon="11.7420868"><ele>1000.0</ele><time>2026-05-02T09:38:42.983Z</time></trkpt><trkpt lat="45.8513987" lon="11.7419357"><ele>1000.0</ele><time>2026-05-02T09:38:43.983Z</time></trkpt><trkpt lat="45.8514721" lon="11.7417842"><ele>1000.0</ele><time>2026-05-02T09:38:44.984Z</time></trkpt><trkpt lat="45.8515339" lon="11.7416194"><ele>1005.0</ele><time>2026-05-02T09:38:45.984Z</time></trkpt><trkpt lat="45.8515931" lon="11.7414525"><ele>1010.0</ele><time>2026-05-02T09:38:46.984Z</time></trkpt><trkpt lat="45.8516476" lon="11.7412885"><ele>1015.0</ele><time>2026-05-02T09:38:47.984Z</time></trkpt><trkpt lat="45.8517018" lon="11.7411421"><ele>1020.0</ele><time>2026-05-02T09:38:48.984Z</time></trkpt><trkpt lat="45.8517653" lon="11.7410253"><ele>1017.6</ele><time>2026-05-02T09:38:49.983Z</time></trkpt><trkpt lat="45.8518404" lon="11.7409224"><ele>1015.2</ele><time>2026-05-02T09:38:50.984Z</time></trkpt><trkpt lat="45.8519134" lon="11.7408248"><ele>1012.8</ele><time>2026-05-02T09:38:51.983Z</time></trkpt><trkpt lat="45.8519723" lon="11.7407428"><ele>1010.4</ele><time>2026-05-02T09:38:52.984Z</time></trkpt><trkpt lat="45.8520177" lon="11.7406728"><ele>1008.0</ele><time>2026-05-02T09:38:53.984Z</time></trkpt><trkpt lat="45.8520786" lon="11.7405363"><ele>1008.0</ele><time>2026-05-02T09:38:55.984Z</time></trkpt><trkpt lat="45.852123" lon="11.7404271"><ele>1008.0</ele><time>2026-05-02T09:38:57.983Z</time></trkpt><trkpt lat="45.8521556" lon="11.7403352"><ele>1008.0</ele><time>2026-05-02T09:38:59.984Z</time></trkpt><trkpt lat="45.8521889" lon="11.7402191"><ele>1008.0</ele><time>2026-05-02T09:39:01.983Z</time></trkpt><trkpt lat="45.8522227" lon="11.7400854"><ele>1008.0</ele><time>2026-05-02T09:39:03.984Z</time></trkpt><trkpt lat="45.8522474" lon="11.7399653"><ele>1008.0</ele><time>2026-05-02T09:39:05.983Z</time></trkpt><trkpt lat="45.8522634" lon="11.7398682"><ele>1010.0</ele><time>2026-05-02T09:39:06.983Z</time></trkpt><trkpt lat="45.8522661" lon="11.7397507"><ele>1012.0</ele><time>2026-05-02T09:39:07.983Z</time></trkpt><trkpt lat="45.8522457" lon="11.739634"><ele>1014.0</ele><time>2026-05-02T09:39:08.983Z</time></trkpt><trkpt lat="45.8522057" lon="11.7395086"><ele>1016.0</ele><time>2026-05-02T09:39:09.983Z</time></trkpt><trkpt lat="45.8521504" lon="11.739373"><ele>1018.0</ele><time>2026-05-02T09:39:10.984Z</time></trkpt><trkpt lat="45.8520855" lon="11.7392331"><ele>1019.0</ele><time>2026-05-02T09:39:11.984Z</time></trkpt><trkpt lat="45.8520139" lon="11.7391035"><ele>1020.0</ele><time>2026-05-02T09:39:12.984Z</time></trkpt><trkpt lat="45.8519434" lon="11.7389922"><ele>1021.0</ele><time>2026-05-02T09:39:13.983Z</time></trkpt><trkpt lat="45.8518838" lon="11.7388921"><ele>1022.0</ele><time>2026-05-02T09:39:14.984Z</time></trkpt><trkpt lat="45.8518384" lon="11.7387961"><ele>1023.0</ele><time>2026-05-02T09:39:15.983Z</time></trkpt><trkpt lat="45.8518092" lon="11.738688"><ele>1023.0</ele><time>2026-05-02T09:39:16.983Z</time></trkpt><trkpt lat="45.8517969" lon="11.7385669"><ele>1023.0</ele><time>2026-05-02T09:39:17.983Z</time></trkpt><trkpt lat="45.8518126" lon="11.7384442"><ele>1023.0</ele><time>2026-05-02T09:39:18.983Z</time></trkpt><trkpt lat="45.8518629" lon="11.7383421"><ele>1023.0</ele><time>2026-05-02T09:39:19.983Z</time></trkpt><trkpt lat="45.851935" lon="11.7382704"><ele>1023.0</ele><time>2026-05-02T09:39:20.984Z</time></trkpt><trkpt lat="45.8520198" lon="11.7382044"><ele>1023.0</ele><time>2026-05-02T09:39:21.984Z</time></trkpt><trkpt lat="45.8521072" lon="11.7381386"><ele>1023.8</ele><time>2026-05-02T09:39:22.983Z</time></trkpt><trkpt lat="45.8522054" lon="11.7380452"><ele>1024.6</ele><time>2026-05-02T09:39:23.983Z</time></trkpt><trkpt lat="45.852287" lon="11.737952"><ele>1025.4</ele><time>2026-05-02T09:39:24.984Z</time></trkpt><trkpt lat="45.8523614" lon="11.7378597"><ele>1026.2</ele><time>2026-05-02T09:39:25.983Z</time></trkpt><trkpt lat="45.8524156" lon="11.7377758"><ele>1027.0</ele><time>2026-05-02T09:39:26.984Z</time></trkpt><trkpt lat="45.85246" lon="11.7376992"><ele>1028.6666666666665</ele><time>2026-05-02T09:39:27.984Z</time></trkpt><trkpt lat="45.8524995" lon="11.7376193"><ele>1030.3333333333333</ele><time>2026-05-02T09:39:28.983Z</time></trkpt><trkpt lat="45.8525147" lon="11.7375126"><ele>1032.0</ele><time>2026-05-02T09:39:29.983Z</time></trkpt><trkpt lat="45.8525295" lon="11.7374014"><ele>1033.6666666666667</ele><time>2026-05-02T09:39:30.984Z</time></trkpt><trkpt lat="45.8525235" lon="11.737279"><ele>1035.3333333333335</ele><time>2026-05-02T09:39:31.984Z</time></trkpt><trkpt lat="45.852518" lon="11.737156"><ele>1037.0</ele><time>2026-05-02T09:39:32.984Z</time></trkpt><trkpt lat="45.8525084" lon="11.7370373"><ele>1037.0</ele><time>2026-05-02T09:39:33.984Z</time></trkpt><trkpt lat="45.8525003" lon="11.7369195"><ele>1037.0</ele><time>2026-05-02T09:39:34.984Z</time></trkpt><trkpt lat="45.8525029" lon="11.736803"><ele>1037.0</ele><time>2026-05-02T09:39:35.984Z</time></trkpt><trkpt lat="45.8525216" lon="11.736697"><ele>1037.0</ele><time>2026-05-02T09:39:36.983Z</time></trkpt><trkpt lat="45.8525604" lon="11.7365993"><ele>1037.0</ele><time>2026-05-02T09:39:37.984Z</time></trkpt><trkpt lat="45.8526231" lon="11.7365036"><ele>1037.0</ele><time>2026-05-02T09:39:38.984Z</time></trkpt><trkpt lat="45.8527054" lon="11.7364149"><ele>1034.0</ele><time>2026-05-02T09:39:39.984Z</time></trkpt><trkpt lat="45.8527971" lon="11.7363271"><ele>1031.0</ele><time>2026-05-02T09:39:40.983Z</time></trkpt><trkpt lat="45.8528923" lon="11.736231"><ele>1028.0</ele><time>2026-05-02T09:39:41.983Z</time></trkpt><trkpt lat="45.8529973" lon="11.7361272"><ele>1025.0</ele><time>2026-05-02T09:39:42.983Z</time></trkpt><trkpt lat="45.8531021" lon="11.7360262"><ele>1026.75</ele><time>2026-05-02T09:39:43.983Z</time></trkpt><trkpt lat="45.8532179" lon="11.7359193"><ele>1028.5</ele><time>2026-05-02T09:39:44.983Z</time></trkpt><trkpt lat="45.853324" lon="11.7358273"><ele>1030.25</ele><time>2026-05-02T09:39:45.983Z</time></trkpt><trkpt lat="45.8534263" lon="11.7357478"><ele>1032.0</ele><time>2026-05-02T09:39:46.984Z</time></trkpt><trkpt lat="45.8535276" lon="11.7356932"><ele>1032.0</ele><time>2026-05-02T09:39:47.985Z</time></trkpt><trkpt lat="45.8536234" lon="11.7356522"><ele>1032.0</ele><time>2026-05-02T09:39:48.984Z</time></trkpt><trkpt lat="45.8537092" lon="11.7356144"><ele>1032.0</ele><time>2026-05-02T09:39:49.985Z</time></trkpt><trkpt lat="45.8537771" lon="11.7355772"><ele>1032.0</ele><time>2026-05-02T09:39:50.985Z</time></trkpt><trkpt lat="45.8538401" lon="11.7355362"><ele>1032.0</ele><time>2026-05-02T09:39:51.985Z</time></trkpt><trkpt lat="45.8538978" lon="11.7354466"><ele>1032.0</ele><time>2026-05-02T09:39:52.985Z</time></trkpt><trkpt lat="45.8539492" lon="11.7353312"><ele>1035.0</ele><time>2026-05-02T09:39:53.985Z</time></trkpt><trkpt lat="45.8540029" lon="11.7352195"><ele>1038.0</ele><time>2026-05-02T09:39:54.984Z</time></trkpt><trkpt lat="45.8540756" lon="11.7351388"><ele>1041.0</ele><time>2026-05-02T09:39:55.985Z</time></trkpt><trkpt lat="45.8541598" lon="11.7350939"><ele>1044.0</ele><time>2026-05-02T09:39:56.985Z</time></trkpt><trkpt lat="45.8542483" lon="11.7350617"><ele>1047.0</ele><time>2026-05-02T09:39:57.984Z</time></trkpt><trkpt lat="45.8543301" lon="11.7350467"><ele>1047.0</ele><time>2026-05-02T09:39:58.984Z</time></trkpt><trkpt lat="45.8544071" lon="11.7350276"><ele>1047.0</ele><time>2026-05-02T09:39:59.984Z</time></trkpt><trkpt lat="45.8544831" lon="11.7349978"><ele>1047.0</ele><time>2026-05-02T09:40:00.984Z</time></trkpt><trkpt lat="45.8545614" lon="11.7349177"><ele>1047.0</ele><time>2026-05-02T09:40:01.985Z</time></trkpt><trkpt lat="45.8546325" lon="11.7348285"><ele>1047.0</ele><time>2026-05-02T09:40:02.984Z</time></trkpt><trkpt lat="45.8546896" lon="11.7347465"><ele>1047.0</ele><time>2026-05-02T09:40:03.984Z</time></trkpt><trkpt lat="45.8547447" lon="11.7346786"><ele>1047.0000000000002</ele><time>2026-05-02T09:40:04.985Z</time></trkpt><trkpt lat="45.8548124" lon="11.7346215"><ele>1047.0</ele><time>2026-05-02T09:40:05.985Z</time></trkpt><trkpt lat="45.8548883" lon="11.7345921"><ele>1047.0</ele><time>2026-05-02T09:40:06.984Z</time></trkpt><trkpt lat="45.8549603" lon="11.7345727"><ele>1047.0</ele><time>2026-05-02T09:40:07.984Z</time></trkpt><trkpt lat="45.8550247" lon="11.7346009"><ele>1047.0</ele><time>2026-05-02T09:40:08.985Z</time></trkpt><trkpt lat="45.8550924" lon="11.7346385"><ele>1047.0000000000002</ele><time>2026-05-02T09:40:09.984Z</time></trkpt><trkpt lat="45.8551607" lon="11.7346771"><ele>1047.0</ele><time>2026-05-02T09:40:10.984Z</time></trkpt><trkpt lat="45.8552324" lon="11.7347189"><ele>1048.3333333333333</ele><time>2026-05-02T09:40:11.985Z</time></trkpt><trkpt lat="45.8553042" lon="11.734768"><ele>1049.6666666666667</ele><time>2026-05-02T09:40:12.985Z</time></trkpt><trkpt lat="45.8553721" lon="11.7348276"><ele>1051.0</ele><time>2026-05-02T09:40:13.984Z</time></trkpt><trkpt lat="45.8554338" lon="11.7348867"><ele>1052.3333333333335</ele><time>2026-05-02T09:40:14.985Z</time></trkpt><trkpt lat="45.8554919" lon="11.73495"><ele>1053.6666666666667</ele><time>2026-05-02T09:40:15.985Z</time></trkpt><trkpt lat="45.855566" lon="11.7350078"><ele>1055.0</ele><time>2026-05-02T09:40:16.985Z</time></trkpt><trkpt lat="45.8556574" lon="11.7350483"><ele>1055.0</ele><time>2026-05-02T09:40:17.984Z</time></trkpt><trkpt lat="45.8557635" lon="11.735069"><ele>1055.0</ele><time>2026-05-02T09:40:18.985Z</time></trkpt><trkpt lat="45.8558666" lon="11.7350831"><ele>1055.0</ele><time>2026-05-02T09:40:19.985Z</time></trkpt><trkpt lat="45.8559602" lon="11.7350775"><ele>1055.0</ele><time>2026-05-02T09:40:20.985Z</time></trkpt><trkpt lat="45.8560475" lon="11.7350459"><ele>1055.0</ele><time>2026-05-02T09:40:21.985Z</time></trkpt><trkpt lat="45.8561258" lon="11.7349694"><ele>1054.4</ele><time>2026-05-02T09:40:22.984Z</time></trkpt><trkpt lat="45.8562006" lon="11.7348665"><ele>1053.8</ele><time>2026-05-02T09:40:23.985Z</time></trkpt><trkpt lat="45.8562732" lon="11.7347581"><ele>1053.2</ele><time>2026-05-02T09:40:24.984Z</time></trkpt><trkpt lat="45.8563403" lon="11.7346526"><ele>1052.6</ele><time>2026-05-02T09:40:25.985Z</time></trkpt><trkpt lat="45.856378" lon="11.7345388"><ele>1052.0</ele><time>2026-05-02T09:40:26.984Z</time></trkpt><trkpt lat="45.8564134" lon="11.7344193"><ele>1054.0</ele><time>2026-05-02T09:40:27.985Z</time></trkpt><trkpt lat="45.8564629" lon="11.7343112"><ele>1056.0</ele><time>2026-05-02T09:40:28.985Z</time></trkpt><trkpt lat="45.8565282" lon="11.7342213"><ele>1058.0</ele><time>2026-05-02T09:40:29.985Z</time></trkpt><trkpt lat="45.8566141" lon="11.7341577"><ele>1060.0</ele><time>2026-05-02T09:40:30.985Z</time></trkpt><trkpt lat="45.8566997" lon="11.7341177"><ele>1062.0</ele><time>2026-05-02T09:40:31.985Z</time></trkpt><trkpt lat="45.8567779" lon="11.7340638"><ele>1061.5</ele><time>2026-05-02T09:40:32.985Z</time></trkpt><trkpt lat="45.8568444" lon="11.733978"><ele>1061.0</ele><time>2026-05-02T09:40:33.985Z</time></trkpt><trkpt lat="45.8569008" lon="11.7338737"><ele>1060.5</ele><time>2026-05-02T09:40:34.985Z</time></trkpt><trkpt lat="45.8569544" lon="11.7337685"><ele>1060.0</ele><time>2026-05-02T09:40:35.984Z</time></trkpt><trkpt lat="45.8569976" lon="11.7336787"><ele>1059.5</ele><time>2026-05-02T09:40:36.985Z</time></trkpt><trkpt lat="45.8570433" lon="11.7336006"><ele>1059.0</ele><time>2026-05-02T09:40:37.984Z</time></trkpt><trkpt lat="45.857103" lon="11.7335399"><ele>1059.0</ele><time>2026-05-02T09:40:38.985Z</time></trkpt><trkpt lat="45.8571766" lon="11.7335174"><ele>1059.0</ele><time>2026-05-02T09:40:39.984Z</time></trkpt><trkpt lat="45.8572527" lon="11.7335415"><ele>1059.0</ele><time>2026-05-02T09:40:40.984Z</time></trkpt><trkpt lat="45.8573207" lon="11.7335895"><ele>1059.0</ele><time>2026-05-02T09:40:41.985Z</time></trkpt><trkpt lat="45.8574001" lon="11.7336414"><ele>1059.0</ele><time>2026-05-02T09:40:43.984Z</time></trkpt><trkpt lat="45.8574977" lon="11.7336646"><ele>1059.0</ele><time>2026-05-02T09:40:46.985Z</time></trkpt><trkpt lat="45.8576213" lon="11.7336455"><ele>1059.2</ele><time>2026-05-02T09:40:48.986Z</time></trkpt><trkpt lat="45.8577311" lon="11.7335746"><ele>1059.4</ele><time>2026-05-02T09:40:50.985Z</time></trkpt><trkpt lat="45.8577896" lon="11.7335205"><ele>1059.6</ele><time>2026-05-02T09:40:51.986Z</time></trkpt><trkpt lat="45.8578426" lon="11.733465"><ele>1059.8</ele><time>2026-05-02T09:40:52.986Z</time></trkpt><trkpt lat="45.8579295" lon="11.7333753"><ele>1060.0</ele><time>2026-05-02T09:40:54.986Z</time></trkpt><trkpt lat="45.8580267" lon="11.7332937"><ele>1060.0</ele><time>2026-05-02T09:40:56.985Z</time></trkpt><trkpt lat="45.858088" lon="11.7332556"><ele>1060.0</ele><time>2026-05-02T09:40:57.985Z</time></trkpt><trkpt lat="45.8581591" lon="11.7332155"><ele>1060.0</ele><time>2026-05-02T09:40:58.985Z</time></trkpt><trkpt lat="45.8582427" lon="11.7331618"><ele>1060.0</ele><time>2026-05-02T09:40:59.985Z</time></trkpt><trkpt lat="45.8583124" lon="11.7330889"><ele>1060.0</ele><time>2026-05-02T09:41:00.986Z</time></trkpt><trkpt lat="45.8583563" lon="11.7329975"><ele>1060.0</ele><time>2026-05-02T09:41:01.986Z</time></trkpt><trkpt lat="45.8583789" lon="11.7328826"><ele>1060.0</ele><time>2026-05-02T09:41:02.986Z</time></trkpt><trkpt lat="45.8583852" lon="11.7327409"><ele>1060.0</ele><time>2026-05-02T09:41:03.986Z</time></trkpt><trkpt lat="45.8583881" lon="11.7325962"><ele>1060.0</ele><time>2026-05-02T09:41:04.986Z</time></trkpt><trkpt lat="45.8584022" lon="11.73248"><ele>1060.0</ele><time>2026-05-02T09:41:05.985Z</time></trkpt><trkpt lat="45.858433" lon="11.7323989"><ele>1060.0</ele><time>2026-05-02T09:41:06.986Z</time></trkpt><trkpt lat="45.8584869" lon="11.7323446"><ele>1060.0</ele><time>2026-05-02T09:41:07.986Z</time></trkpt><trkpt lat="45.8585589" lon="11.7323203"><ele>1063.2</ele><time>2026-05-02T09:41:08.986Z</time></trkpt><trkpt lat="45.8586375" lon="11.7323279"><ele>1066.4</ele><time>2026-05-02T09:41:09.986Z</time></trkpt><trkpt lat="45.8587179" lon="11.7323709"><ele>1069.6</ele><time>2026-05-02T09:41:10.985Z</time></trkpt><trkpt lat="45.8588" lon="11.7324552"><ele>1072.8</ele><time>2026-05-02T09:41:11.986Z</time></trkpt><trkpt lat="45.8588858" lon="11.7325581"><ele>1076.0</ele><time>2026-05-02T09:41:12.986Z</time></trkpt><trkpt lat="45.8589705" lon="11.7327001"><ele>1076.2</ele><time>2026-05-02T09:41:13.985Z</time></trkpt><trkpt lat="45.8590535" lon="11.7328388"><ele>1076.3999999999999</ele><time>2026-05-02T09:41:14.985Z</time></trkpt><trkpt lat="45.8591286" lon="11.7329684"><ele>1076.6</ele><time>2026-05-02T09:41:15.986Z</time></trkpt><trkpt lat="45.8591632" lon="11.7330922"><ele>1076.8</ele><time>2026-05-02T09:41:16.986Z</time></trkpt><trkpt lat="45.8591621" lon="11.7332097"><ele>1077.0</ele><time>2026-05-02T09:41:17.985Z</time></trkpt><trkpt lat="45.8591217" lon="11.7333269"><ele>1077.0</ele><time>2026-05-02T09:41:18.985Z</time></trkpt><trkpt lat="45.8590696" lon="11.7334441"><ele>1077.0</ele><time>2026-05-02T09:41:19.986Z</time></trkpt><trkpt lat="45.8589881" lon="11.7335598"><ele>1077.0</ele><time>2026-05-02T09:41:20.986Z</time></trkpt><trkpt lat="45.8589343" lon="11.7336898"><ele>1077.0</ele><time>2026-05-02T09:41:21.986Z</time></trkpt><trkpt lat="45.8589037" lon="11.7338597"><ele>1077.0</ele><time>2026-05-02T09:41:22.985Z</time></trkpt><trkpt lat="45.8588745" lon="11.7340604"><ele>1080.6666666666667</ele><time>2026-05-02T09:41:23.986Z</time></trkpt><trkpt lat="45.8588424" lon="11.7342696"><ele>1084.3333333333335</ele><time>2026-05-02T09:41:24.985Z</time></trkpt><trkpt lat="45.8587901" lon="11.7344825"><ele>1088.0</ele><time>2026-05-02T09:41:25.986Z</time></trkpt><trkpt lat="45.8587177" lon="11.7347244"><ele>1092.6666666666667</ele><time>2026-05-02T09:41:26.985Z</time></trkpt><trkpt lat="45.8586534" lon="11.7349833"><ele>1097.3333333333333</ele><time>2026-05-02T09:41:27.986Z</time></trkpt><trkpt lat="45.8585921" lon="11.7352268"><ele>1102.0</ele><time>2026-05-02T09:41:28.985Z</time></trkpt><trkpt lat="45.8585413" lon="11.735439"><ele>1103.75</ele><time>2026-05-02T09:41:29.986Z</time></trkpt><trkpt lat="45.8584974" lon="11.7356136"><ele>1105.5</ele><time>2026-05-02T09:41:30.985Z</time></trkpt><trkpt lat="45.8584587" lon="11.7357763"><ele>1107.25</ele><time>2026-05-02T09:41:31.985Z</time></trkpt><trkpt lat="45.8584237" lon="11.7359375"><ele>1109.0</ele><time>2026-05-02T09:41:32.986Z</time></trkpt><trkpt lat="45.8584377" lon="11.7361208"><ele>1109.5</ele><time>2026-05-02T09:41:33.985Z</time></trkpt><trkpt lat="45.8584747" lon="11.7363092"><ele>1110.0</ele><time>2026-05-02T09:41:34.986Z</time></trkpt><trkpt lat="45.8585122" lon="11.7365078"><ele>1110.5</ele><time>2026-05-02T09:41:35.985Z</time></trkpt><trkpt lat="45.8585245" lon="11.7367171"><ele>1111.0</ele><time>2026-05-02T09:41:36.985Z</time></trkpt><trkpt lat="45.8585207" lon="11.7369025"><ele>1113.0</ele><time>2026-05-02T09:41:37.985Z</time></trkpt><trkpt lat="45.8584837" lon="11.737072"><ele>1115.0</ele><time>2026-05-02T09:41:38.985Z</time></trkpt><trkpt lat="45.8584054" lon="11.7372185"><ele>1117.0</ele><time>2026-05-02T09:41:39.986Z</time></trkpt><trkpt lat="45.8583063" lon="11.7373465"><ele>1119.0</ele><time>2026-05-02T09:41:40.986Z</time></trkpt><trkpt lat="45.8582143" lon="11.737471"><ele>1115.25</ele><time>2026-05-02T09:41:41.985Z</time></trkpt><trkpt lat="45.8581539" lon="11.7376184"><ele>1111.5</ele><time>2026-05-02T09:41:42.985Z</time></trkpt><trkpt lat="45.8581039" lon="11.7377776"><ele>1107.75</ele><time>2026-05-02T09:41:43.986Z</time></trkpt><trkpt lat="45.8580831" lon="11.7379774"><ele>1104.0</ele><time>2026-05-02T09:41:44.986Z</time></trkpt><trkpt lat="45.8580559" lon="11.7381598"><ele>1104.0</ele><time>2026-05-02T09:41:45.986Z</time></trkpt><trkpt lat="45.8580275" lon="11.7383219"><ele>1104.0</ele><time>2026-05-02T09:41:46.986Z</time></trkpt><trkpt lat="45.8580144" lon="11.7384783"><ele>1104.0</ele><time>2026-05-02T09:41:47.985Z</time></trkpt><trkpt lat="45.8580359" lon="11.7386446"><ele>1104.0</ele><time>2026-05-02T09:41:48.986Z</time></trkpt><trkpt lat="45.8580876" lon="11.738824"><ele>1104.25</ele><time>2026-05-02T09:41:49.985Z</time></trkpt><trkpt lat="45.8581458" lon="11.7390126"><ele>1104.5</ele><time>2026-05-02T09:41:50.985Z</time></trkpt><trkpt lat="45.8581899" lon="11.7391997"><ele>1104.75</ele><time>2026-05-02T09:41:51.986Z</time></trkpt><trkpt lat="45.8582106" lon="11.7393691"><ele>1105.0</ele><time>2026-05-02T09:41:52.985Z</time></trkpt><trkpt lat="45.8582375" lon="11.7395233"><ele>1103.0</ele><time>2026-05-02T09:41:53.987Z</time></trkpt><trkpt lat="45.8582735" lon="11.739677"><ele>1101.0</ele><time>2026-05-02T09:41:54.986Z</time></trkpt><trkpt lat="45.8583449" lon="11.7398285"><ele>1099.0</ele><time>2026-05-02T09:41:55.986Z</time></trkpt><trkpt lat="45.8584176" lon="11.7399753"><ele>1097.0</ele><time>2026-05-02T09:41:56.987Z</time></trkpt><trkpt lat="45.8584912" lon="11.7401174"><ele>1101.25</ele><time>2026-05-02T09:41:57.987Z</time></trkpt><trkpt lat="45.8585666" lon="11.7402563"><ele>1105.5</ele><time>2026-05-02T09:41:58.987Z</time></trkpt><trkpt lat="45.8586591" lon="11.7403835"><ele>1109.75</ele><time>2026-05-02T09:41:59.987Z</time></trkpt><trkpt lat="45.8587708" lon="11.7404925"><ele>1114.0</ele><time>2026-05-02T09:42:00.986Z</time></trkpt><trkpt lat="45.8588812" lon="11.7405855"><ele>1114.0</ele><time>2026-05-02T09:42:01.987Z</time></trkpt><trkpt lat="45.8589746" lon="11.7406699"><ele>1114.0</ele><time>2026-05-02T09:42:02.986Z</time></trkpt><trkpt lat="45.8590439" lon="11.7407724"><ele>1114.0</ele><time>2026-05-02T09:42:03.987Z</time></trkpt><trkpt lat="45.8590831" lon="11.7409101"><ele>1114.0</ele><time>2026-05-02T09:42:04.986Z</time></trkpt><trkpt lat="45.8590887" lon="11.7410636"><ele>1114.0</ele><time>2026-05-02T09:42:05.987Z</time></trkpt><trkpt lat="45.8590887" lon="11.7412116"><ele>1112.5</ele><time>2026-05-02T09:42:06.987Z</time></trkpt><trkpt lat="45.8591041" lon="11.7413354"><ele>1111.0</ele><time>2026-05-02T09:42:07.986Z</time></trkpt><trkpt lat="45.8591675" lon="11.741462"><ele>1109.5</ele><time>2026-05-02T09:42:08.987Z</time></trkpt><trkpt lat="45.8592559" lon="11.7416056"><ele>1108.0</ele><time>2026-05-02T09:42:09.986Z</time></trkpt><trkpt lat="45.8593297" lon="11.7417893"><ele>1113.75</ele><time>2026-05-02T09:42:10.987Z</time></trkpt><trkpt lat="45.8593858" lon="11.7419631"><ele>1119.5</ele><time>2026-05-02T09:42:11.986Z</time></trkpt><trkpt lat="45.8594409" lon="11.7421107"><ele>1125.25</ele><time>2026-05-02T09:42:12.986Z</time></trkpt><trkpt lat="45.8595062" lon="11.7422436"><ele>1131.0</ele><time>2026-05-02T09:42:13.986Z</time></trkpt><trkpt lat="45.8595827" lon="11.7423616"><ele>1131.0</ele><time>2026-05-02T09:42:14.987Z</time></trkpt><trkpt lat="45.8596644" lon="11.7424691"><ele>1131.0</ele><time>2026-05-02T09:42:15.987Z</time></trkpt><trkpt lat="45.859755" lon="11.7425775"><ele>1131.0</ele><time>2026-05-02T09:42:16.987Z</time></trkpt><trkpt lat="45.8598509" lon="11.7426919"><ele>1131.0</ele><time>2026-05-02T09:42:17.987Z</time></trkpt><trkpt lat="45.8599524" lon="11.7428436"><ele>1128.6666666666667</ele><time>2026-05-02T09:42:18.987Z</time></trkpt><trkpt lat="45.8600355" lon="11.7430145"><ele>1126.3333333333335</ele><time>2026-05-02T09:42:19.987Z</time></trkpt><trkpt lat="45.8601066" lon="11.7432067"><ele>1124.0</ele><time>2026-05-02T09:42:20.987Z</time></trkpt><trkpt lat="45.8601751" lon="11.7434088"><ele>1132.0</ele><time>2026-05-02T09:42:21.987Z</time></trkpt><trkpt lat="45.8602307" lon="11.7436145"><ele>1140.0</ele><time>2026-05-02T09:42:22.987Z</time></trkpt><trkpt lat="45.8602767" lon="11.7438091"><ele>1148.0</ele><time>2026-05-02T09:42:23.987Z</time></trkpt><trkpt lat="45.8603162" lon="11.743978"><ele>1156.0</ele><time>2026-05-02T09:42:24.986Z</time></trkpt><trkpt lat="45.8603484" lon="11.744123"><ele>1156.0</ele><time>2026-05-02T09:42:25.987Z</time></trkpt><trkpt lat="45.8603743" lon="11.744243"><ele>1156.0</ele><time>2026-05-02T09:42:26.987Z</time></trkpt><trkpt lat="45.8603964" lon="11.7443534"><ele>1156.0</ele><time>2026-05-02T09:42:27.987Z</time></trkpt><trkpt lat="45.8603804" lon="11.7444411"><ele>1156.0</ele><time>2026-05-02T09:42:28.986Z</time></trkpt><trkpt lat="45.8602684" lon="11.7444828"><ele>1156.0</ele><time>2026-05-02T09:42:30.986Z</time></trkpt><trkpt lat="45.8601965" lon="11.7444071"><ele>1156.0</ele><time>2026-05-02T09:42:31.986Z</time></trkpt><trkpt lat="45.8601172" lon="11.7442977"><ele>1150.0</ele><time>2026-05-02T09:42:32.986Z</time></trkpt><trkpt lat="45.8600378" lon="11.7441955"><ele>1144.0</ele><time>2026-05-02T09:42:33.987Z</time></trkpt><trkpt lat="45.8599222" lon="11.7441636"><ele>1138.0</ele><time>2026-05-02T09:42:34.987Z</time></trkpt><trkpt lat="45.8597895" lon="11.7441842"><ele>1132.0</ele><time>2026-05-02T09:42:35.986Z</time></trkpt><trkpt lat="45.8596473" lon="11.7442341"><ele>1132.0</ele><time>2026-05-02T09:42:36.987Z</time></trkpt><trkpt lat="45.8594935" lon="11.7443019"><ele>1132.0</ele><time>2026-05-02T09:42:37.987Z</time></trkpt><trkpt lat="45.8593349" lon="11.7443728"><ele>1132.0</ele><time>2026-05-02T09:42:38.987Z</time></trkpt><trkpt lat="45.8591851" lon="11.7444222"><ele>1136.5</ele><time>2026-05-02T09:42:39.986Z</time></trkpt><trkpt lat="45.8590506" lon="11.7444479"><ele>1141.0</ele><time>2026-05-02T09:42:40.986Z</time></trkpt><trkpt lat="45.8589326" lon="11.7444703"><ele>1145.5</ele><time>2026-05-02T09:42:41.987Z</time></trkpt><trkpt lat="45.8588264" lon="11.7444955"><ele>1150.0</ele><time>2026-05-02T09:42:42.986Z</time></trkpt><trkpt lat="45.8587282" lon="11.7445399"><ele>1150.0</ele><time>2026-05-02T09:42:43.986Z</time></trkpt><trkpt lat="45.8586445" lon="11.7446178"><ele>1150.0</ele><time>2026-05-02T09:42:44.987Z</time></trkpt><trkpt lat="45.8585884" lon="11.7447315"><ele>1150.0</ele><time>2026-05-02T09:42:45.986Z</time></trkpt><trkpt lat="45.8585612" lon="11.744878"><ele>1150.0</ele><time>2026-05-02T09:42:46.987Z</time></trkpt><trkpt lat="45.8585469" lon="11.7450554"><ele>1150.0</ele><time>2026-05-02T09:42:47.987Z</time></trkpt><trkpt lat="45.8585281" lon="11.7452607"><ele>1155.6666666666665</ele><time>2026-05-02T09:42:48.987Z</time></trkpt><trkpt lat="45.8585036" lon="11.7454852"><ele>1161.3333333333333</ele><time>2026-05-02T09:42:49.987Z</time></trkpt><trkpt lat="45.8584825" lon="11.7457226"><ele>1167.0</ele><time>2026-05-02T09:42:50.987Z</time></trkpt><trkpt lat="45.858474" lon="11.745967"><ele>1170.3333333333333</ele><time>2026-05-02T09:42:51.986Z</time></trkpt><trkpt lat="45.8584713" lon="11.7462106"><ele>1173.6666666666665</ele><time>2026-05-02T09:42:52.987Z</time></trkpt><trkpt lat="45.8584583" lon="11.746447"><ele>1177.0</ele><time>2026-05-02T09:42:53.986Z</time></trkpt><trkpt lat="45.8584395" lon="11.7466819"><ele>1169.0</ele><time>2026-05-02T09:42:54.988Z</time></trkpt><trkpt lat="45.8584242" lon="11.7469182"><ele>1161.0</ele><time>2026-05-02T09:42:55.986Z</time></trkpt><trkpt lat="45.8584135" lon="11.7471522"><ele>1153.0</ele><time>2026-05-02T09:42:56.987Z</time></trkpt><trkpt lat="45.8584028" lon="11.7473787"><ele>1153.0</ele><time>2026-05-02T09:42:57.988Z</time></trkpt><trkpt lat="45.8583804" lon="11.7475908"><ele>1153.0</ele><time>2026-05-02T09:42:58.987Z</time></trkpt><trkpt lat="45.8583562" lon="11.7477994"><ele>1153.0</ele><time>2026-05-02T09:42:59.987Z</time></trkpt><trkpt lat="45.8583457" lon="11.748006"><ele>1153.0</ele><time>2026-05-02T09:43:00.987Z</time></trkpt><trkpt lat="45.8583395" lon="11.7482147"><ele>1155.3333333333333</ele><time>2026-05-02T09:43:01.988Z</time></trkpt><trkpt lat="45.8583538" lon="11.7484383"><ele>1157.6666666666667</ele><time>2026-05-02T09:43:02.987Z</time></trkpt><trkpt lat="45.858375" lon="11.7486601"><ele>1160.0</ele><time>2026-05-02T09:43:03.988Z</time></trkpt><trkpt lat="45.8584036" lon="11.7488782"><ele>1160.75</ele><time>2026-05-02T09:43:04.988Z</time></trkpt><trkpt lat="45.8584482" lon="11.7490801"><ele>1161.5</ele><time>2026-05-02T09:43:05.987Z</time></trkpt><trkpt lat="45.8585128" lon="11.7492573"><ele>1162.25</ele><time>2026-05-02T09:43:06.987Z</time></trkpt><trkpt lat="45.8585876" lon="11.7494214"><ele>1163.0</ele><time>2026-05-02T09:43:07.987Z</time></trkpt><trkpt lat="45.8586426" lon="11.7495866"><ele>1171.25</ele><time>2026-05-02T09:43:08.987Z</time></trkpt><trkpt lat="45.858689" lon="11.7497475"><ele>1179.5</ele><time>2026-05-02T09:43:09.987Z</time></trkpt><trkpt lat="45.858693" lon="11.7499108"><ele>1187.75</ele><time>2026-05-02T09:43:10.987Z</time></trkpt><trkpt lat="45.858659" lon="11.7500973"><ele>1196.0</ele><time>2026-05-02T09:43:11.987Z</time></trkpt><trkpt lat="45.8586298" lon="11.7502817"><ele>1197.25</ele><time>2026-05-02T09:43:12.988Z</time></trkpt><trkpt lat="45.8586256" lon="11.7504847"><ele>1198.5</ele><time>2026-05-02T09:43:13.988Z</time></trkpt><trkpt lat="45.8586338" lon="11.7506939"><ele>1199.75</ele><time>2026-05-02T09:43:14.988Z</time></trkpt><trkpt lat="45.858645" lon="11.7508827"><ele>1201.0</ele><time>2026-05-02T09:43:15.988Z</time></trkpt><trkpt lat="45.8586523" lon="11.7510573"><ele>1202.0</ele><time>2026-05-02T09:43:16.988Z</time></trkpt><trkpt lat="45.8586307" lon="11.7512211"><ele>1203.0</ele><time>2026-05-02T09:43:17.988Z</time></trkpt><trkpt lat="45.8585965" lon="11.7513854"><ele>1204.0</ele><time>2026-05-02T09:43:18.988Z</time></trkpt><trkpt lat="45.8585362" lon="11.7515614"><ele>1205.0</ele><time>2026-05-02T09:43:19.988Z</time></trkpt><trkpt lat="45.8584817" lon="11.7517344"><ele>1199.25</ele><time>2026-05-02T09:43:20.988Z</time></trkpt><trkpt lat="45.8584354" lon="11.7518912"><ele>1193.5</ele><time>2026-05-02T09:43:21.988Z</time></trkpt><trkpt lat="45.8583983" lon="11.7520532"><ele>1187.75</ele><time>2026-05-02T09:43:22.988Z</time></trkpt><trkpt lat="45.8583797" lon="11.7522287"><ele>1182.0</ele><time>2026-05-02T09:43:23.987Z</time></trkpt><trkpt lat="45.8583752" lon="11.7524162"><ele>1182.0</ele><time>2026-05-02T09:43:24.988Z</time></trkpt><trkpt lat="45.8583709" lon="11.7526185"><ele>1182.0</ele><time>2026-05-02T09:43:25.987Z</time></trkpt><trkpt lat="45.8583691" lon="11.7528275"><ele>1182.0</ele><time>2026-05-02T09:43:26.988Z</time></trkpt><trkpt lat="45.8583736" lon="11.7530307"><ele>1182.0</ele><time>2026-05-02T09:43:27.988Z</time></trkpt><trkpt lat="45.8584048" lon="11.7532373"><ele>1183.6666666666667</ele><time>2026-05-02T09:43:28.988Z</time></trkpt><trkpt lat="45.8584377" lon="11.7534428"><ele>1185.3333333333335</ele><time>2026-05-02T09:43:29.988Z</time></trkpt><trkpt lat="45.8584709" lon="11.7536559"><ele>1187.0</ele><time>2026-05-02T09:43:30.987Z</time></trkpt><trkpt lat="45.8585042" lon="11.7538721"><ele>1201.6666666666667</ele><time>2026-05-02T09:43:31.987Z</time></trkpt><trkpt lat="45.85854" lon="11.7541002"><ele>1216.3333333333333</ele><time>2026-05-02T09:43:32.988Z</time></trkpt><trkpt lat="45.858578" lon="11.7543309"><ele>1231.0</ele><time>2026-05-02T09:43:33.987Z</time></trkpt><trkpt lat="45.8586155" lon="11.7545702"><ele>1231.3333333333333</ele><time>2026-05-02T09:43:34.988Z</time></trkpt><trkpt lat="45.8586524" lon="11.7548158"><ele>1231.6666666666667</ele><time>2026-05-02T09:43:35.988Z</time></trkpt><trkpt lat="45.8586951" lon="11.7550568"><ele>1232.0</ele><time>2026-05-02T09:43:36.987Z</time></trkpt><trkpt lat="45.8587368" lon="11.7552962"><ele>1232.0</ele><time>2026-05-02T09:43:37.988Z</time></trkpt><trkpt lat="45.8587821" lon="11.7555343"><ele>1232.0</ele><time>2026-05-02T09:43:38.988Z</time></trkpt><trkpt lat="45.8588236" lon="11.7557752"><ele>1232.0</ele><time>2026-05-02T09:43:39.988Z</time></trkpt><trkpt lat="45.85885" lon="11.7560233"><ele>1230.6666666666667</ele><time>2026-05-02T09:43:40.988Z</time></trkpt><trkpt lat="45.8588596" lon="11.7562558"><ele>1229.3333333333333</ele><time>2026-05-02T09:43:41.988Z</time></trkpt><trkpt lat="45.8588647" lon="11.7564796"><ele>1228.0</ele><time>2026-05-02T09:43:42.988Z</time></trkpt><trkpt lat="45.858872" lon="11.7567052"><ele>1226.3333333333333</ele><time>2026-05-02T09:43:43.987Z</time></trkpt><trkpt lat="45.8588995" lon="11.7569322"><ele>1224.6666666666667</ele><time>2026-05-02T09:43:44.988Z</time></trkpt><trkpt lat="45.858939" lon="11.75715"><ele>1223.0</ele><time>2026-05-02T09:43:45.987Z</time></trkpt><trkpt lat="45.8589784" lon="11.7573607"><ele>1223.0</ele><time>2026-05-02T09:43:46.988Z</time></trkpt><trkpt lat="45.8589965" lon="11.7575721"><ele>1223.0</ele><time>2026-05-02T09:43:47.987Z</time></trkpt><trkpt lat="45.8589963" lon="11.7577723"><ele>1223.0</ele><time>2026-05-02T09:43:48.988Z</time></trkpt><trkpt lat="45.8590162" lon="11.757957"><ele>1223.0</ele><time>2026-05-02T09:43:49.988Z</time></trkpt><trkpt lat="45.8590748" lon="11.758132"><ele>1222.3333333333335</ele><time>2026-05-02T09:43:50.988Z</time></trkpt><trkpt lat="45.8591515" lon="11.7583129"><ele>1221.6666666666667</ele><time>2026-05-02T09:43:51.988Z</time></trkpt><trkpt lat="45.8592387" lon="11.7584962"><ele>1221.0</ele><time>2026-05-02T09:43:52.988Z</time></trkpt><trkpt lat="45.8593357" lon="11.7586802"><ele>1228.6666666666667</ele><time>2026-05-02T09:43:53.988Z</time></trkpt><trkpt lat="45.8594426" lon="11.7588634"><ele>1236.3333333333335</ele><time>2026-05-02T09:43:54.987Z</time></trkpt><trkpt lat="45.8595479" lon="11.7590565"><ele>1244.0</ele><time>2026-05-02T09:43:55.987Z</time></trkpt><trkpt lat="45.859642" lon="11.7592544"><ele>1241.0</ele><time>2026-05-02T09:43:56.988Z</time></trkpt><trkpt lat="45.8597247" lon="11.7594499"><ele>1238.0</ele><time>2026-05-02T09:43:57.989Z</time></trkpt><trkpt lat="45.8598071" lon="11.7596203"><ele>1235.0</ele><time>2026-05-02T09:43:58.988Z</time></trkpt><trkpt lat="45.8598893" lon="11.7597721"><ele>1232.0</ele><time>2026-05-02T09:43:59.989Z</time></trkpt><trkpt lat="45.8599537" lon="11.7599372"><ele>1232.0</ele><time>2026-05-02T09:44:00.989Z</time></trkpt><trkpt lat="45.8600044" lon="11.7601097"><ele>1232.0</ele><time>2026-05-02T09:44:01.988Z</time></trkpt><trkpt lat="45.8600582" lon="11.7602758"><ele>1232.0</ele><time>2026-05-02T09:44:02.989Z</time></trkpt><trkpt lat="45.8601273" lon="11.760431"><ele>1232.0</ele><time>2026-05-02T09:44:03.988Z</time></trkpt><trkpt lat="45.860215" lon="11.76057"><ele>1235.5</ele><time>2026-05-02T09:44:04.988Z</time></trkpt><trkpt lat="45.8603146" lon="11.7607021"><ele>1239.0</ele><time>2026-05-02T09:44:05.988Z</time></trkpt><trkpt lat="45.8604154" lon="11.760836"><ele>1242.5</ele><time>2026-05-02T09:44:06.989Z</time></trkpt><trkpt lat="45.8605104" lon="11.7609525"><ele>1246.0</ele><time>2026-05-02T09:44:07.988Z</time></trkpt><trkpt lat="45.8606192" lon="11.7610283"><ele>1246.0</ele><time>2026-05-02T09:44:08.988Z</time></trkpt><trkpt lat="45.8607458" lon="11.7610482"><ele>1246.0</ele><time>2026-05-02T09:44:09.989Z</time></trkpt><trkpt lat="45.8608805" lon="11.7610268"><ele>1246.0</ele><time>2026-05-02T09:44:10.988Z</time></trkpt><trkpt lat="45.8610202" lon="11.7609929"><ele>1246.0</ele><time>2026-05-02T09:44:11.988Z</time></trkpt><trkpt lat="45.8611554" lon="11.7609815"><ele>1245.2</ele><time>2026-05-02T09:44:12.988Z</time></trkpt><trkpt lat="45.8612736" lon="11.7609945"><ele>1244.3999999999999</ele><time>2026-05-02T09:44:13.989Z</time></trkpt><trkpt lat="45.861383" lon="11.7610092"><ele>1243.6</ele><time>2026-05-02T09:44:14.989Z</time></trkpt><trkpt lat="45.8614729" lon="11.7610602"><ele>1242.8</ele><time>2026-05-02T09:44:15.989Z</time></trkpt><trkpt lat="45.8615445" lon="11.7611554"><ele>1242.0</ele><time>2026-05-02T09:44:16.989Z</time></trkpt><trkpt lat="45.8616089" lon="11.7612624"><ele>1242.0</ele><time>2026-05-02T09:44:17.989Z</time></trkpt><trkpt lat="45.8616543" lon="11.7613838"><ele>1242.0</ele><time>2026-05-02T09:44:18.988Z</time></trkpt><trkpt lat="45.8617284" lon="11.7614729"><ele>1242.0</ele><time>2026-05-02T09:44:19.988Z</time></trkpt><trkpt lat="45.8618069" lon="11.761539"><ele>1242.0</ele><time>2026-05-02T09:44:20.987Z</time></trkpt><trkpt lat="45.8619219" lon="11.7615466"><ele>1242.0</ele><time>2026-05-02T09:44:21.989Z</time></trkpt><trkpt lat="45.8620452" lon="11.7615204"><ele>1244.0</ele><time>2026-05-02T09:44:22.989Z</time></trkpt><trkpt lat="45.8621516" lon="11.7615029"><ele>1246.0</ele><time>2026-05-02T09:44:23.989Z</time></trkpt><trkpt lat="45.8622503" lon="11.7615033"><ele>1248.0</ele><time>2026-05-02T09:44:24.988Z</time></trkpt><trkpt lat="45.8623481" lon="11.761543"><ele>1250.0</ele><time>2026-05-02T09:44:25.988Z</time></trkpt><trkpt lat="45.8624373" lon="11.761632"><ele>1252.0</ele><time>2026-05-02T09:44:26.989Z</time></trkpt><trkpt lat="45.8625199" lon="11.7617508"><ele>1255.75</ele><time>2026-05-02T09:44:27.988Z</time></trkpt><trkpt lat="45.8626199" lon="11.7618551"><ele>1259.5</ele><time>2026-05-02T09:44:28.988Z</time></trkpt><trkpt lat="45.8627444" lon="11.7619409"><ele>1263.25</ele><time>2026-05-02T09:44:29.988Z</time></trkpt><trkpt lat="45.8628673" lon="11.7620129"><ele>1267.0</ele><time>2026-05-02T09:44:30.989Z</time></trkpt><trkpt lat="45.8629703" lon="11.7620825"><ele>1267.0</ele><time>2026-05-02T09:44:31.989Z</time></trkpt><trkpt lat="45.8630444" lon="11.7621746"><ele>1267.0</ele><time>2026-05-02T09:44:32.988Z</time></trkpt><trkpt lat="45.8630899" lon="11.7623077"><ele>1267.0</ele><time>2026-05-02T09:44:33.988Z</time></trkpt><trkpt lat="45.8631199" lon="11.7624677"><ele>1267.0</ele><time>2026-05-02T09:44:34.988Z</time></trkpt><trkpt lat="45.8631473" lon="11.7626414"><ele>1267.0</ele><time>2026-05-02T09:44:35.989Z</time></trkpt><trkpt lat="45.8631773" lon="11.7628069"><ele>1266.0</ele><time>2026-05-02T09:44:36.989Z</time></trkpt><trkpt lat="45.8632149" lon="11.7629549"><ele>1265.0</ele><time>2026-05-02T09:44:37.988Z</time></trkpt><trkpt lat="45.863266" lon="11.7630918"><ele>1264.0</ele><time>2026-05-02T09:44:38.988Z</time></trkpt><trkpt lat="45.8633235" lon="11.763217"><ele>1263.0</ele><time>2026-05-02T09:44:39.989Z</time></trkpt><trkpt lat="45.8633856" lon="11.763326"><ele>1262.0</ele><time>2026-05-02T09:44:40.989Z</time></trkpt><trkpt lat="45.8634588" lon="11.7634063"><ele>1266.0</ele><time>2026-05-02T09:44:41.988Z</time></trkpt><trkpt lat="45.8635429" lon="11.7634502"><ele>1270.0</ele><time>2026-05-02T09:44:42.989Z</time></trkpt><trkpt lat="45.863637" lon="11.763468"><ele>1274.0</ele><time>2026-05-02T09:44:43.988Z</time></trkpt><trkpt lat="45.8637417" lon="11.763481"><ele>1278.0</ele><time>2026-05-02T09:44:44.988Z</time></trkpt><trkpt lat="45.8638547" lon="11.7634904"><ele>1282.0</ele><time>2026-05-02T09:44:45.988Z</time></trkpt><trkpt lat="45.8639625" lon="11.7635139"><ele>1280.1999999999998</ele><time>2026-05-02T09:44:46.989Z</time></trkpt><trkpt lat="45.8640534" lon="11.7635809"><ele>1278.3999999999999</ele><time>2026-05-02T09:44:47.989Z</time></trkpt><trkpt lat="45.8641267" lon="11.7636897"><ele>1276.6</ele><time>2026-05-02T09:44:48.989Z</time></trkpt><trkpt lat="45.8641973" lon="11.7638201"><ele>1274.8</ele><time>2026-05-02T09:44:49.989Z</time></trkpt><trkpt lat="45.8642723" lon="11.7639566"><ele>1273.0</ele><time>2026-05-02T09:44:50.988Z</time></trkpt><trkpt lat="45.8643442" lon="11.764079"><ele>1274.8333333333333</ele><time>2026-05-02T09:44:51.989Z</time></trkpt><trkpt lat="45.8644068" lon="11.7641794"><ele>1276.6666666666665</ele><time>2026-05-02T09:44:52.989Z</time></trkpt><trkpt lat="45.8644445" lon="11.7642889"><ele>1278.5</ele><time>2026-05-02T09:44:53.989Z</time></trkpt><trkpt lat="45.8644417" lon="11.7644078"><ele>1280.3333333333333</ele><time>2026-05-02T09:44:54.988Z</time></trkpt><trkpt lat="45.8643971" lon="11.7645122"><ele>1282.1666666666667</ele><time>2026-05-02T09:44:55.988Z</time></trkpt><trkpt lat="45.8643347" lon="11.7646046"><ele>1284.0</ele><time>2026-05-02T09:44:56.989Z</time></trkpt><trkpt lat="45.864232" lon="11.7646596"><ele>1284.0</ele><time>2026-05-02T09:44:57.988Z</time></trkpt><trkpt lat="45.8641284" lon="11.7646442"><ele>1284.0</ele><time>2026-05-02T09:44:58.988Z</time></trkpt><trkpt lat="45.8640408" lon="11.7645784"><ele>1284.0</ele><time>2026-05-02T09:44:59.989Z</time></trkpt><trkpt lat="45.8639412" lon="11.7645259"><ele>1284.0</ele><time>2026-05-02T09:45:00.99Z</time></trkpt><trkpt lat="45.8638164" lon="11.7645244"><ele>1284.0</ele><time>2026-05-02T09:45:01.989Z</time></trkpt><trkpt lat="45.863669" lon="11.7645593"><ele>1284.0</ele><time>2026-05-02T09:45:02.989Z</time></trkpt><trkpt lat="45.8635196" lon="11.7646055"><ele>1284.0</ele><time>2026-05-02T09:45:03.99Z</time></trkpt><trkpt lat="45.863393" lon="11.7647004"><ele>1284.0</ele><time>2026-05-02T09:45:04.99Z</time></trkpt><trkpt lat="45.8632959" lon="11.7648065"><ele>1284.0</ele><time>2026-05-02T09:45:05.989Z</time></trkpt><trkpt lat="45.8632053" lon="11.7648942"><ele>1285.8000000000002</ele><time>2026-05-02T09:45:06.989Z</time></trkpt><trkpt lat="45.8631071" lon="11.7648966"><ele>1287.6000000000001</ele><time>2026-05-02T09:45:07.99Z</time></trkpt><trkpt lat="45.8630159" lon="11.7648712"><ele>1289.4</ele><time>2026-05-02T09:45:08.99Z</time></trkpt><trkpt lat="45.8629555" lon="11.7647401"><ele>1291.2</ele><time>2026-05-02T09:45:09.989Z</time></trkpt><trkpt lat="45.8628939" lon="11.7646028"><ele>1293.0</ele><time>2026-05-02T09:45:10.99Z</time></trkpt><trkpt lat="45.8628271" lon="11.7645277"><ele>1293.0</ele><time>2026-05-02T09:45:11.99Z</time></trkpt><trkpt lat="45.8627494" lon="11.7644944"><ele>1293.0</ele><time>2026-05-02T09:45:12.989Z</time></trkpt><trkpt lat="45.8626615" lon="11.7645048"><ele>1293.0</ele><time>2026-05-02T09:45:13.99Z</time></trkpt><trkpt lat="45.8625662" lon="11.7645528"><ele>1293.0</ele><time>2026-05-02T09:45:14.989Z</time></trkpt><trkpt lat="45.862473" lon="11.7646309"><ele>1293.0</ele><time>2026-05-02T09:45:15.99Z</time></trkpt><trkpt lat="45.8623872" lon="11.7647215"><ele>1293.2</ele><time>2026-05-02T09:45:16.989Z</time></trkpt><trkpt lat="45.862312" lon="11.7648126"><ele>1293.4</ele><time>2026-05-02T09:45:17.99Z</time></trkpt><trkpt lat="45.8622352" lon="11.7649064"><ele>1293.6000000000001</ele><time>2026-05-02T09:45:18.99Z</time></trkpt><trkpt lat="45.8621461" lon="11.765008"><ele>1293.8000000000002</ele><time>2026-05-02T09:45:19.989Z</time></trkpt><trkpt lat="45.8620514" lon="11.7651012"><ele>1294.0</ele><time>2026-05-02T09:45:20.99Z</time></trkpt><trkpt lat="45.8619558" lon="11.7651901"><ele>1295.2</ele><time>2026-05-02T09:45:21.99Z</time></trkpt><trkpt lat="45.8618655" lon="11.7652844"><ele>1296.4</ele><time>2026-05-02T09:45:22.99Z</time></trkpt><trkpt lat="45.8617893" lon="11.7653998"><ele>1297.6</ele><time>2026-05-02T09:45:23.989Z</time></trkpt><trkpt lat="45.8617325" lon="11.7655335"><ele>1298.8</ele><time>2026-05-02T09:45:24.99Z</time></trkpt><trkpt lat="45.8616915" lon="11.765671"><ele>1300.0</ele><time>2026-05-02T09:45:25.99Z</time></trkpt><trkpt lat="45.8616531" lon="11.7658041"><ele>1300.0</ele><time>2026-05-02T09:45:26.99Z</time></trkpt><trkpt lat="45.8616125" lon="11.765932"><ele>1300.0</ele><time>2026-05-02T09:45:27.989Z</time></trkpt><trkpt lat="45.8615743" lon="11.7660553"><ele>1300.0</ele><time>2026-05-02T09:45:28.989Z</time></trkpt><trkpt lat="45.8615339" lon="11.7661553"><ele>1300.0</ele><time>2026-05-02T09:45:29.99Z</time></trkpt><trkpt lat="45.861494" lon="11.766239"><ele>1300.0</ele><time>2026-05-02T09:45:30.99Z</time></trkpt><trkpt lat="45.8614544" lon="11.7663169"><ele>1300.0</ele><time>2026-05-02T09:45:31.99Z</time></trkpt><trkpt lat="45.8614146" lon="11.7663931"><ele>1301.1666666666665</ele><time>2026-05-02T09:45:32.989Z</time></trkpt><trkpt lat="45.8613765" lon="11.7664754"><ele>1302.3333333333333</ele><time>2026-05-02T09:45:33.99Z</time></trkpt><trkpt lat="45.8613451" lon="11.7665701"><ele>1303.5</ele><time>2026-05-02T09:45:34.989Z</time></trkpt><trkpt lat="45.8613242" lon="11.7666759"><ele>1304.6666666666667</ele><time>2026-05-02T09:45:35.989Z</time></trkpt><trkpt lat="45.8613141" lon="11.7667889"><ele>1305.8333333333335</ele><time>2026-05-02T09:45:36.99Z</time></trkpt><trkpt lat="45.8613176" lon="11.7669037"><ele>1307.0</ele><time>2026-05-02T09:45:37.989Z</time></trkpt><trkpt lat="45.8613449" lon="11.7670152"><ele>1307.0</ele><time>2026-05-02T09:45:38.99Z</time></trkpt><trkpt lat="45.8613992" lon="11.7671096"><ele>1307.0</ele><time>2026-05-02T09:45:39.989Z</time></trkpt><trkpt lat="45.861474" lon="11.767183"><ele>1307.0</ele><time>2026-05-02T09:45:40.989Z</time></trkpt><trkpt lat="45.8615489" lon="11.767243"><ele>1307.0</ele><time>2026-05-02T09:45:41.989Z</time></trkpt><trkpt lat="45.8616124" lon="11.767286"><ele>1307.0</ele><time>2026-05-02T09:45:42.989Z</time></trkpt><trkpt lat="45.8616741" lon="11.7673167"><ele>1307.0</ele><time>2026-05-02T09:45:43.99Z</time></trkpt><trkpt lat="45.8617381" lon="11.7673434"><ele>1311.1666666666667</ele><time>2026-05-02T09:45:44.989Z</time></trkpt><trkpt lat="45.8618061" lon="11.7673677"><ele>1315.3333333333335</ele><time>2026-05-02T09:45:45.99Z</time></trkpt><trkpt lat="45.8618728" lon="11.7673806"><ele>1319.5</ele><time>2026-05-02T09:45:46.99Z</time></trkpt><trkpt lat="45.8619793" lon="11.7674017"><ele>1323.6666666666667</ele><time>2026-05-02T09:45:48.99Z</time></trkpt><trkpt lat="45.8620844" lon="11.7674557"><ele>1327.8333333333333</ele><time>2026-05-02T09:45:50.989Z</time></trkpt><trkpt lat="45.8621237" lon="11.7675314"><ele>1332.0</ele><time>2026-05-02T09:45:51.989Z</time></trkpt><trkpt lat="45.8621312" lon="11.7676538"><ele>1331.8</ele><time>2026-05-02T09:45:52.989Z</time></trkpt><trkpt lat="45.8621161" lon="11.7677977"><ele>1331.6</ele><time>2026-05-02T09:45:53.989Z</time></trkpt><trkpt lat="45.8621076" lon="11.7679512"><ele>1331.3999999999999</ele><time>2026-05-02T09:45:54.989Z</time></trkpt><trkpt lat="45.8621254" lon="11.768099"><ele>1331.1999999999998</ele><time>2026-05-02T09:45:55.99Z</time></trkpt><trkpt lat="45.8621556" lon="11.7682426"><ele>1331.0</ele><time>2026-05-02T09:45:56.989Z</time></trkpt><trkpt lat="45.8622297" lon="11.7683385"><ele>1331.0</ele><time>2026-05-02T09:45:57.99Z</time></trkpt><trkpt lat="45.8622934" lon="11.7684133"><ele>1331.0</ele><time>2026-05-02T09:45:58.989Z</time></trkpt><trkpt lat="45.8623296" lon="11.768495"><ele>1331.0</ele><time>2026-05-02T09:45:59.99Z</time></trkpt><trkpt lat="45.8623306" lon="11.7685903"><ele>1331.0</ele><time>2026-05-02T09:46:00.99Z</time></trkpt><trkpt lat="45.8622966" lon="11.7686844"><ele>1331.0</ele><time>2026-05-02T09:46:01.99Z</time></trkpt><trkpt lat="45.862231" lon="11.7687702"><ele>1331.0</ele><time>2026-05-02T09:46:02.99Z</time></trkpt><trkpt lat="45.862155" lon="11.7688473"><ele>1332.5714285714287</ele><time>2026-05-02T09:46:03.991Z</time></trkpt><trkpt lat="45.8620902" lon="11.7689095"><ele>1334.142857142857</ele><time>2026-05-02T09:46:04.99Z</time></trkpt><trkpt lat="45.8620333" lon="11.7689737"><ele>1335.7142857142858</ele><time>2026-05-02T09:46:05.991Z</time></trkpt><trkpt lat="45.8619812" lon="11.7690493"><ele>1337.2857142857142</ele><time>2026-05-02T09:46:06.991Z</time></trkpt><trkpt lat="45.8619417" lon="11.7691351"><ele>1338.857142857143</ele><time>2026-05-02T09:46:07.99Z</time></trkpt><trkpt lat="45.8619247" lon="11.7692287"><ele>1340.4285714285713</ele><time>2026-05-02T09:46:08.99Z</time></trkpt><trkpt lat="45.8619263" lon="11.7693214"><ele>1342.0</ele><time>2026-05-02T09:46:09.99Z</time></trkpt><trkpt lat="45.8619386" lon="11.7694136"><ele>1344.3999999999999</ele><time>2026-05-02T09:46:10.991Z</time></trkpt><trkpt lat="45.8619657" lon="11.7695654"><ele>1346.8</ele><time>2026-05-02T09:46:12.991Z</time></trkpt><trkpt lat="45.8619955" lon="11.7696932"><ele>1349.2</ele><time>2026-05-02T09:46:14.991Z</time></trkpt><trkpt lat="45.8620388" lon="11.7698475"><ele>1351.6</ele><time>2026-05-02T09:46:16.99Z</time></trkpt><trkpt lat="45.8620458" lon="11.7699484"><ele>1354.0</ele><time>2026-05-02T09:46:17.99Z</time></trkpt><trkpt lat="45.8620347" lon="11.7700603"><ele>1354.0</ele><time>2026-05-02T09:46:18.991Z</time></trkpt><trkpt lat="45.8619959" lon="11.7701714"><ele>1354.0</ele><time>2026-05-02T09:46:19.991Z</time></trkpt><trkpt lat="45.8619318" lon="11.7702758"><ele>1354.0</ele><time>2026-05-02T09:46:20.99Z</time></trkpt><trkpt lat="45.8618677" lon="11.7703904"><ele>1354.0</ele><time>2026-05-02T09:46:21.99Z</time></trkpt><trkpt lat="45.8618165" lon="11.7705218"><ele>1354.0</ele><time>2026-05-02T09:46:22.991Z</time></trkpt><trkpt lat="45.8617689" lon="11.7706588"><ele>1351.6</ele><time>2026-05-02T09:46:23.991Z</time></trkpt><trkpt lat="45.8617215" lon="11.7707959"><ele>1349.2</ele><time>2026-05-02T09:46:24.99Z</time></trkpt><trkpt lat="45.861679" lon="11.7709204"><ele>1346.8</ele><time>2026-05-02T09:46:25.99Z</time></trkpt><trkpt lat="45.8616479" lon="11.7710565"><ele>1344.3999999999999</ele><time>2026-05-02T09:46:26.991Z</time></trkpt><trkpt lat="45.8616334" lon="11.7711939"><ele>1342.0</ele><time>2026-05-02T09:46:27.99Z</time></trkpt><trkpt lat="45.8616321" lon="11.7713307"><ele>1342.0</ele><time>2026-05-02T09:46:28.991Z</time></trkpt><trkpt lat="45.8616374" lon="11.7714647"><ele>1342.0</ele><time>2026-05-02T09:46:29.991Z</time></trkpt><trkpt lat="45.8616377" lon="11.7715935"><ele>1342.0</ele><time>2026-05-02T09:46:30.991Z</time></trkpt><trkpt lat="45.8616167" lon="11.7717185"><ele>1342.0</ele><time>2026-05-02T09:46:31.991Z</time></trkpt><trkpt lat="45.8615811" lon="11.7718221"><ele>1342.0</ele><time>2026-05-02T09:46:32.991Z</time></trkpt><trkpt lat="45.8615479" lon="11.7719064"><ele>1342.0</ele><time>2026-05-02T09:46:33.991Z</time></trkpt><trkpt lat="45.8615207" lon="11.7719961"><ele>1343.0</ele><time>2026-05-02T09:46:34.99Z</time></trkpt><trkpt lat="45.8615016" lon="11.7720917"><ele>1344.0</ele><time>2026-05-02T09:46:35.991Z</time></trkpt><trkpt lat="45.8614898" lon="11.772191"><ele>1345.0</ele><time>2026-05-02T09:46:36.991Z</time></trkpt><trkpt lat="45.8614865" lon="11.772294"><ele>1346.0</ele><time>2026-05-02T09:46:37.99Z</time></trkpt><trkpt lat="45.8614908" lon="11.7723991"><ele>1347.0</ele><time>2026-05-02T09:46:38.99Z</time></trkpt><trkpt lat="45.861502" lon="11.7725093"><ele>1348.0</ele><time>2026-05-02T09:46:39.991Z</time></trkpt><trkpt lat="45.8615175" lon="11.7726249"><ele>1349.0</ele><time>2026-05-02T09:46:40.99Z</time></trkpt><trkpt lat="45.8615345" lon="11.7727438"><ele>1349.6</ele><time>2026-05-02T09:46:41.99Z</time></trkpt><trkpt lat="45.8615593" lon="11.7728661"><ele>1350.2</ele><time>2026-05-02T09:46:42.99Z</time></trkpt><trkpt lat="45.8615946" lon="11.772997"><ele>1350.8</ele><time>2026-05-02T09:46:43.991Z</time></trkpt><trkpt lat="45.8616329" lon="11.7731337"><ele>1351.3999999999999</ele><time>2026-05-02T09:46:44.991Z</time></trkpt><trkpt lat="45.8616708" lon="11.7732694"><ele>1352.0</ele><time>2026-05-02T09:46:45.991Z</time></trkpt><trkpt lat="45.8617099" lon="11.773398"><ele>1352.3999999999999</ele><time>2026-05-02T09:46:46.99Z</time></trkpt><trkpt lat="45.8617478" lon="11.7735225"><ele>1352.8</ele><time>2026-05-02T09:46:47.991Z</time></trkpt><trkpt lat="45.8617786" lon="11.7736435"><ele>1353.2</ele><time>2026-05-02T09:46:48.99Z</time></trkpt><trkpt lat="45.8617962" lon="11.7737671"><ele>1353.6</ele><time>2026-05-02T09:46:49.991Z</time></trkpt><trkpt lat="45.8618058" lon="11.7738888"><ele>1354.0</ele><time>2026-05-02T09:46:50.99Z</time></trkpt><trkpt lat="45.8617958" lon="11.774022"><ele>1354.0</ele><time>2026-05-02T09:46:51.991Z</time></trkpt><trkpt lat="45.8617799" lon="11.7741609"><ele>1354.0</ele><time>2026-05-02T09:46:52.991Z</time></trkpt><trkpt lat="45.8617625" lon="11.7743012"><ele>1354.0</ele><time>2026-05-02T09:46:53.99Z</time></trkpt><trkpt lat="45.8617471" lon="11.7744413"><ele>1354.0</ele><time>2026-05-02T09:46:54.99Z</time></trkpt><trkpt lat="45.8617322" lon="11.7745781"><ele>1354.0</ele><time>2026-05-02T09:46:55.99Z</time></trkpt><trkpt lat="45.8617216" lon="11.7747127"><ele>1354.8000000000002</ele><time>2026-05-02T09:46:56.99Z</time></trkpt><trkpt lat="45.8617238" lon="11.7748483"><ele>1355.6000000000001</ele><time>2026-05-02T09:46:57.991Z</time></trkpt><trkpt lat="45.8617409" lon="11.7749817"><ele>1356.4</ele><time>2026-05-02T09:46:58.991Z</time></trkpt><trkpt lat="45.8617703" lon="11.7751169"><ele>1357.2</ele><time>2026-05-02T09:46:59.99Z</time></trkpt><trkpt lat="45.8618093" lon="11.7752584"><ele>1358.0</ele><time>2026-05-02T09:47:00.99Z</time></trkpt><trkpt lat="45.8618492" lon="11.7753971"><ele>1362.1666666666667</ele><time>2026-05-02T09:47:01.99Z</time></trkpt><trkpt lat="45.8618832" lon="11.7755151"><ele>1366.3333333333335</ele><time>2026-05-02T09:47:02.992Z</time></trkpt><trkpt lat="45.8619131" lon="11.7756202"><ele>1370.5</ele><time>2026-05-02T09:47:03.992Z</time></trkpt><trkpt lat="45.861943" lon="11.7757202"><ele>1374.6666666666667</ele><time>2026-05-02T09:47:04.991Z</time></trkpt><trkpt lat="45.861981" lon="11.7758217"><ele>1378.8333333333333</ele><time>2026-05-02T09:47:05.992Z</time></trkpt><trkpt lat="45.8620292" lon="11.7759238"><ele>1383.0</ele><time>2026-05-02T09:47:06.992Z</time></trkpt><trkpt lat="45.862088" lon="11.7760198"><ele>1380.4</ele><time>2026-05-02T09:47:07.991Z</time></trkpt><trkpt lat="45.8621518" lon="11.7761077"><ele>1377.8000000000002</ele><time>2026-05-02T09:47:08.992Z</time></trkpt><trkpt lat="45.8622179" lon="11.7761911"><ele>1375.2</ele><time>2026-05-02T09:47:09.992Z</time></trkpt><trkpt lat="45.8622896" lon="11.7762744"><ele>1372.6</ele><time>2026-05-02T09:47:10.992Z</time></trkpt><trkpt lat="45.8623652" lon="11.7763615"><ele>1370.0</ele><time>2026-05-02T09:47:11.992Z</time></trkpt><trkpt lat="45.8624455" lon="11.7764628"><ele>1370.0</ele><time>2026-05-02T09:47:12.991Z</time></trkpt><trkpt lat="45.8625317" lon="11.7765716"><ele>1370.0</ele><time>2026-05-02T09:47:13.991Z</time></trkpt><trkpt lat="45.8626277" lon="11.7766866"><ele>1370.0</ele><time>2026-05-02T09:47:14.991Z</time></trkpt><trkpt lat="45.862724" lon="11.776809"><ele>1370.0</ele><time>2026-05-02T09:47:15.992Z</time></trkpt><trkpt lat="45.8628032" lon="11.7769223"><ele>1372.0</ele><time>2026-05-02T09:47:16.992Z</time></trkpt><trkpt lat="45.8628797" lon="11.7770144"><ele>1374.0</ele><time>2026-05-02T09:47:17.992Z</time></trkpt><trkpt lat="45.862964" lon="11.7770837"><ele>1376.0</ele><time>2026-05-02T09:47:18.991Z</time></trkpt><trkpt lat="45.8630565" lon="11.7771296"><ele>1378.0</ele><time>2026-05-02T09:47:19.992Z</time></trkpt><trkpt lat="45.8631522" lon="11.7771537"><ele>1380.0</ele><time>2026-05-02T09:47:20.992Z</time></trkpt><trkpt lat="45.8632443" lon="11.7771847"><ele>1380.0</ele><time>2026-05-02T09:47:21.992Z</time></trkpt><trkpt lat="45.8633246" lon="11.7772441"><ele>1380.0</ele><time>2026-05-02T09:47:22.991Z</time></trkpt><trkpt lat="45.8633852" lon="11.7773313"><ele>1380.0</ele><time>2026-05-02T09:47:23.992Z</time></trkpt><trkpt lat="45.8634304" lon="11.77743"><ele>1380.0</ele><time>2026-05-02T09:47:24.992Z</time></trkpt><trkpt lat="45.8634739" lon="11.777529"><ele>1380.0</ele><time>2026-05-02T09:47:25.991Z</time></trkpt><trkpt lat="45.8635256" lon="11.7776207"><ele>1380.0</ele><time>2026-05-02T09:47:26.992Z</time></trkpt><trkpt lat="45.8635798" lon="11.7777023"><ele>1380.5</ele><time>2026-05-02T09:47:27.992Z</time></trkpt><trkpt lat="45.8636506" lon="11.7777638"><ele>1381.0</ele><time>2026-05-02T09:47:28.992Z</time></trkpt><trkpt lat="45.8637328" lon="11.7777989"><ele>1381.5</ele><time>2026-05-02T09:47:29.991Z</time></trkpt><trkpt lat="45.8638215" lon="11.7778032"><ele>1382.0</ele><time>2026-05-02T09:47:30.992Z</time></trkpt><trkpt lat="45.8639055" lon="11.7777906"><ele>1382.5</ele><time>2026-05-02T09:47:31.991Z</time></trkpt><trkpt lat="45.863992" lon="11.7777554"><ele>1383.0</ele><time>2026-05-02T09:47:32.991Z</time></trkpt><trkpt lat="45.8640846" lon="11.7777101"><ele>1384.0</ele><time>2026-05-02T09:47:33.991Z</time></trkpt><trkpt lat="45.8641803" lon="11.7776496"><ele>1385.0</ele><time>2026-05-02T09:47:34.993Z</time></trkpt><trkpt lat="45.8642731" lon="11.7775652"><ele>1386.0</ele><time>2026-05-02T09:47:35.992Z</time></trkpt><trkpt lat="45.8643589" lon="11.7774595"><ele>1387.0</ele><time>2026-05-02T09:47:36.991Z</time></trkpt><trkpt lat="45.8644409" lon="11.7773431"><ele>1388.0</ele><time>2026-05-02T09:47:37.992Z</time></trkpt><trkpt lat="45.8645251" lon="11.7772185"><ele>1388.0</ele><time>2026-05-02T09:47:38.992Z</time></trkpt><trkpt lat="45.8646132" lon="11.7770773"><ele>1388.0</ele><time>2026-05-02T09:47:39.992Z</time></trkpt><trkpt lat="45.8647129" lon="11.7769137"><ele>1388.0</ele><time>2026-05-02T09:47:40.991Z</time></trkpt><trkpt lat="45.8648217" lon="11.7767344"><ele>1388.0</ele><time>2026-05-02T09:47:41.992Z</time></trkpt><trkpt lat="45.8649353" lon="11.7765547"><ele>1390.75</ele><time>2026-05-02T09:47:42.992Z</time></trkpt><trkpt lat="45.8650525" lon="11.7763966"><ele>1393.5</ele><time>2026-05-02T09:47:43.991Z</time></trkpt><trkpt lat="45.865166" lon="11.7762699"><ele>1396.25</ele><time>2026-05-02T09:47:44.992Z</time></trkpt><trkpt lat="45.8652735" lon="11.7761496"><ele>1399.0</ele><time>2026-05-02T09:47:45.992Z</time></trkpt><trkpt lat="45.8653763" lon="11.7760074"><ele>1399.8000000000002</ele><time>2026-05-02T09:47:46.991Z</time></trkpt><trkpt lat="45.8654684" lon="11.7758699"><ele>1400.6000000000001</ele><time>2026-05-02T09:47:47.992Z</time></trkpt><trkpt lat="45.8655456" lon="11.7757473"><ele>1401.4</ele><time>2026-05-02T09:47:48.991Z</time></trkpt><trkpt lat="45.8656085" lon="11.7756414"><ele>1402.2</ele><time>2026-05-02T09:47:49.991Z</time></trkpt><trkpt lat="45.8656593" lon="11.7755512"><ele>1403.0</ele><time>2026-05-02T09:47:50.992Z</time></trkpt><trkpt lat="45.8657015" lon="11.7754784"><ele>1403.0</ele><time>2026-05-02T09:47:51.992Z</time></trkpt><trkpt lat="45.8657437" lon="11.7754062"><ele>1403.0</ele><time>2026-05-02T09:47:52.991Z</time></trkpt><trkpt lat="45.8657903" lon="11.7753292"><ele>1403.0</ele><time>2026-05-02T09:47:53.992Z</time></trkpt><trkpt lat="45.8658386" lon="11.7752488"><ele>1403.0</ele><time>2026-05-02T09:47:54.991Z</time></trkpt><trkpt lat="45.86589" lon="11.7751606"><ele>1403.0</ele><time>2026-05-02T09:47:55.992Z</time></trkpt><trkpt lat="45.8659463" lon="11.7750554"><ele>1403.0</ele><time>2026-05-02T09:47:56.991Z</time></trkpt><trkpt lat="45.8660078" lon="11.7749399"><ele>1406.0</ele><time>2026-05-02T09:47:57.992Z</time></trkpt><trkpt lat="45.8660742" lon="11.7748191"><ele>1409.0</ele><time>2026-05-02T09:47:58.991Z</time></trkpt><trkpt lat="45.8661372" lon="11.7746882"><ele>1412.0</ele><time>2026-05-02T09:47:59.992Z</time></trkpt><trkpt lat="45.8661892" lon="11.7745497"><ele>1415.0</ele><time>2026-05-02T09:48:00.992Z</time></trkpt><trkpt lat="45.8662312" lon="11.7744253"><ele>1418.0</ele><time>2026-05-02T09:48:01.992Z</time></trkpt><trkpt lat="45.8662651" lon="11.7743171"><ele>1420.0</ele><time>2026-05-02T09:48:02.992Z</time></trkpt><trkpt lat="45.8662949" lon="11.7742105"><ele>1422.0</ele><time>2026-05-02T09:48:03.992Z</time></trkpt><trkpt lat="45.8663261" lon="11.7741042"><ele>1424.0</ele><time>2026-05-02T09:48:04.993Z</time></trkpt><trkpt lat="45.8663834" lon="11.7740316"><ele>1426.0</ele><time>2026-05-02T09:48:05.992Z</time></trkpt><trkpt lat="45.8664565" lon="11.7740185"><ele>1428.0</ele><time>2026-05-02T09:48:06.992Z</time></trkpt><trkpt lat="45.8665368" lon="11.7740558"><ele>1430.0</ele><time>2026-05-02T09:48:07.992Z</time></trkpt><trkpt lat="45.8666225" lon="11.7741347"><ele>1430.0</ele><time>2026-05-02T09:48:08.992Z</time></trkpt><trkpt lat="45.8667081" lon="11.7742475"><ele>1430.0</ele><time>2026-05-02T09:48:09.992Z</time></trkpt><trkpt lat="45.8667905" lon="11.7743854"><ele>1430.0</ele><time>2026-05-02T09:48:10.993Z</time></trkpt><trkpt lat="45.8668653" lon="11.7745421"><ele>1430.0</ele><time>2026-05-02T09:48:11.993Z</time></trkpt><trkpt lat="45.8669223" lon="11.7747036"><ele>1436.25</ele><time>2026-05-02T09:48:12.993Z</time></trkpt><trkpt lat="45.8669569" lon="11.774877"><ele>1442.5</ele><time>2026-05-02T09:48:13.993Z</time></trkpt><trkpt lat="45.8669681" lon="11.7750829"><ele>1448.75</ele><time>2026-05-02T09:48:14.993Z</time></trkpt><trkpt lat="45.8669595" lon="11.7753185"><ele>1455.0</ele><time>2026-05-02T09:48:15.992Z</time></trkpt><trkpt lat="45.8669507" lon="11.7755735"><ele>1455.6666666666667</ele><time>2026-05-02T09:48:16.993Z</time></trkpt><trkpt lat="45.8669471" lon="11.7758466"><ele>1456.3333333333335</ele><time>2026-05-02T09:48:17.993Z</time></trkpt><trkpt lat="45.866925" lon="11.7761391"><ele>1457.0</ele><time>2026-05-02T09:48:18.992Z</time></trkpt><trkpt lat="45.8668723" lon="11.776455"><ele>1458.3333333333335</ele><time>2026-05-02T09:48:19.992Z</time></trkpt><trkpt lat="45.8668121" lon="11.7767693"><ele>1459.6666666666667</ele><time>2026-05-02T09:48:20.993Z</time></trkpt><trkpt lat="45.8667673" lon="11.7770601"><ele>1461.0</ele><time>2026-05-02T09:48:21.992Z</time></trkpt><trkpt lat="45.8667309" lon="11.7773263"><ele>1456.0</ele><time>2026-05-02T09:48:22.993Z</time></trkpt><trkpt lat="45.8666828" lon="11.7775698"><ele>1451.0</ele><time>2026-05-02T09:48:23.993Z</time></trkpt><trkpt lat="45.8666252" lon="11.7777998"><ele>1446.0</ele><time>2026-05-02T09:48:24.992Z</time></trkpt><trkpt lat="45.8665787" lon="11.7780232"><ele>1446.0</ele><time>2026-05-02T09:48:25.993Z</time></trkpt><trkpt lat="45.8665546" lon="11.7782516"><ele>1446.0</ele><time>2026-05-02T09:48:26.992Z</time></trkpt><trkpt lat="45.8665517" lon="11.7784834"><ele>1446.0</ele><time>2026-05-02T09:48:27.993Z</time></trkpt><trkpt lat="45.8665434" lon="11.7787314"><ele>1448.6666666666667</ele><time>2026-05-02T09:48:28.993Z</time></trkpt><trkpt lat="45.8665399" lon="11.7789741"><ele>1451.3333333333335</ele><time>2026-05-02T09:48:29.992Z</time></trkpt><trkpt lat="45.866525" lon="11.7791915"><ele>1454.0</ele><time>2026-05-02T09:48:30.993Z</time></trkpt><trkpt lat="45.8664928" lon="11.7793995"><ele>1456.25</ele><time>2026-05-02T09:48:31.992Z</time></trkpt><trkpt lat="45.8664299" lon="11.779599"><ele>1458.5</ele><time>2026-05-02T09:48:32.993Z</time></trkpt><trkpt lat="45.8663746" lon="11.7797612"><ele>1460.75</ele><time>2026-05-02T09:48:33.992Z</time></trkpt><trkpt lat="45.8663631" lon="11.7799369"><ele>1463.0</ele><time>2026-05-02T09:48:34.992Z</time></trkpt><trkpt lat="45.8663831" lon="11.7801503"><ele>1463.5</ele><time>2026-05-02T09:48:35.993Z</time></trkpt><trkpt lat="45.8664065" lon="11.7803808"><ele>1464.0</ele><time>2026-05-02T09:48:36.993Z</time></trkpt><trkpt lat="45.8664237" lon="11.7805814"><ele>1464.5</ele><time>2026-05-02T09:48:37.992Z</time></trkpt><trkpt lat="45.8664392" lon="11.7807579"><ele>1465.0</ele><time>2026-05-02T09:48:38.993Z</time></trkpt><trkpt lat="45.8664815" lon="11.7809367"><ele>1465.0</ele><time>2026-05-02T09:48:39.992Z</time></trkpt><trkpt lat="45.8665388" lon="11.7811096"><ele>1465.0</ele><time>2026-05-02T09:48:40.992Z</time></trkpt><trkpt lat="45.8665953" lon="11.7812765"><ele>1465.0</ele><time>2026-05-02T09:48:41.993Z</time></trkpt><trkpt lat="45.8666125" lon="11.7814472"><ele>1465.0</ele><time>2026-05-02T09:48:42.992Z</time></trkpt><trkpt lat="45.8665982" lon="11.781632"><ele>1465.0</ele><time>2026-05-02T09:48:43.992Z</time></trkpt><trkpt lat="45.8665611" lon="11.7817947"><ele>1465.0</ele><time>2026-05-02T09:48:44.993Z</time></trkpt><trkpt lat="45.8665355" lon="11.7819573"><ele>1465.0</ele><time>2026-05-02T09:48:45.993Z</time></trkpt><trkpt lat="45.8665502" lon="11.7821264"><ele>1465.0</ele><time>2026-05-02T09:48:46.993Z</time></trkpt><trkpt lat="45.8665922" lon="11.7822785"><ele>1463.75</ele><time>2026-05-02T09:48:47.992Z</time></trkpt><trkpt lat="45.8666465" lon="11.7823981"><ele>1462.5</ele><time>2026-05-02T09:48:48.993Z</time></trkpt><trkpt lat="45.8667306" lon="11.7825235"><ele>1461.25</ele><time>2026-05-02T09:48:49.992Z</time></trkpt><trkpt lat="45.866837" lon="11.7826367"><ele>1460.0</ele><time>2026-05-02T09:48:50.993Z</time></trkpt><trkpt lat="45.8669624" lon="11.7827615"><ele>1465.0</ele><time>2026-05-02T09:48:51.992Z</time></trkpt><trkpt lat="45.8670923" lon="11.7828932"><ele>1470.0</ele><time>2026-05-02T09:48:52.993Z</time></trkpt><trkpt lat="45.8672195" lon="11.7830438"><ele>1475.0</ele><time>2026-05-02T09:48:53.992Z</time></trkpt><trkpt lat="45.8673379" lon="11.7831747"><ele>1475.0</ele><time>2026-05-02T09:48:54.992Z</time></trkpt><trkpt lat="45.8674433" lon="11.7832909"><ele>1475.0</ele><time>2026-05-02T09:48:55.993Z</time></trkpt><trkpt lat="45.8675352" lon="11.783395"><ele>1475.0</ele><time>2026-05-02T09:48:56.992Z</time></trkpt><trkpt lat="45.8676253" lon="11.7834898"><ele>1475.0</ele><time>2026-05-02T09:48:57.993Z</time></trkpt><trkpt lat="45.8677122" lon="11.7835733"><ele>1479.6</ele><time>2026-05-02T09:48:58.993Z</time></trkpt><trkpt lat="45.867785" lon="11.7836778"><ele>1484.2</ele><time>2026-05-02T09:48:59.993Z</time></trkpt><trkpt lat="45.8678168" lon="11.7837973"><ele>1488.8000000000002</ele><time>2026-05-02T09:49:00.993Z</time></trkpt><trkpt lat="45.867801" lon="11.7839258"><ele>1493.4</ele><time>2026-05-02T09:49:01.993Z</time></trkpt><trkpt lat="45.8677405" lon="11.7840582"><ele>1498.0</ele><time>2026-05-02T09:49:02.992Z</time></trkpt><trkpt lat="45.8676518" lon="11.784174"><ele>1494.75</ele><time>2026-05-02T09:49:03.993Z</time></trkpt><trkpt lat="45.8675704" lon="11.7842974"><ele>1491.5</ele><time>2026-05-02T09:49:04.992Z</time></trkpt><trkpt lat="45.8675318" lon="11.7844332"><ele>1488.25</ele><time>2026-05-02T09:49:05.993Z</time></trkpt><trkpt lat="45.8675242" lon="11.7845903"><ele>1485.0</ele><time>2026-05-02T09:49:06.994Z</time></trkpt><trkpt lat="45.8675323" lon="11.7847832"><ele>1485.0</ele><time>2026-05-02T09:49:07.994Z</time></trkpt><trkpt lat="45.8675436" lon="11.7849963"><ele>1485.0</ele><time>2026-05-02T09:49:08.994Z</time></trkpt><trkpt lat="45.8675506" lon="11.7852068"><ele>1485.0</ele><time>2026-05-02T09:49:09.993Z</time></trkpt><trkpt lat="45.8675383" lon="11.7854034"><ele>1485.0</ele><time>2026-05-02T09:49:10.993Z</time></trkpt><trkpt lat="45.8674946" lon="11.7855839"><ele>1487.5</ele><time>2026-05-02T09:49:11.993Z</time></trkpt><trkpt lat="45.8674139" lon="11.7857501"><ele>1490.0</ele><time>2026-05-02T09:49:12.993Z</time></trkpt><trkpt lat="45.8673267" lon="11.7859084"><ele>1492.5</ele><time>2026-05-02T09:49:13.994Z</time></trkpt><trkpt lat="45.8672591" lon="11.7860602"><ele>1495.0</ele><time>2026-05-02T09:49:14.993Z</time></trkpt><trkpt lat="45.8672161" lon="11.7862192"><ele>1494.4</ele><time>2026-05-02T09:49:15.994Z</time></trkpt><trkpt lat="45.8671886" lon="11.7863739"><ele>1493.8</ele><time>2026-05-02T09:49:16.993Z</time></trkpt><trkpt lat="45.8671868" lon="11.7865299"><ele>1493.1999999999998</ele><time>2026-05-02T09:49:17.993Z</time></trkpt><trkpt lat="45.8672062" lon="11.7866853"><ele>1492.6</ele><time>2026-05-02T09:49:18.994Z</time></trkpt><trkpt lat="45.8672312" lon="11.7868403"><ele>1492.0</ele><time>2026-05-02T09:49:19.993Z</time></trkpt><trkpt lat="45.8672561" lon="11.78698"><ele>1492.0</ele><time>2026-05-02T09:49:20.994Z</time></trkpt><trkpt lat="45.8673022" lon="11.7870993"><ele>1492.0</ele><time>2026-05-02T09:49:21.993Z</time></trkpt><trkpt lat="45.8673645" lon="11.787196"><ele>1492.0</ele><time>2026-05-02T09:49:22.994Z</time></trkpt><trkpt lat="45.867454" lon="11.7872657"><ele>1492.0</ele><time>2026-05-02T09:49:23.994Z</time></trkpt><trkpt lat="45.8675757" lon="11.7873022"><ele>1492.0</ele><time>2026-05-02T09:49:24.993Z</time></trkpt><trkpt lat="45.8677063" lon="11.7873296"><ele>1495.0</ele><time>2026-05-02T09:49:25.993Z</time></trkpt><trkpt lat="45.8678509" lon="11.7873489"><ele>1498.0</ele><time>2026-05-02T09:49:26.994Z</time></trkpt><trkpt lat="45.868002" lon="11.7873673"><ele>1501.0</ele><time>2026-05-02T09:49:27.993Z</time></trkpt><trkpt lat="45.8681424" lon="11.7873761"><ele>1504.0</ele><time>2026-05-02T09:49:28.994Z</time></trkpt><trkpt lat="45.8682656" lon="11.7873789"><ele>1504.0</ele><time>2026-05-02T09:49:29.994Z</time></trkpt><trkpt lat="45.8683769" lon="11.7873994"><ele>1504.0</ele><time>2026-05-02T09:49:30.993Z</time></trkpt><trkpt lat="45.8684773" lon="11.7874614"><ele>1504.0</ele><time>2026-05-02T09:49:31.994Z</time></trkpt><trkpt lat="45.8685667" lon="11.7875572"><ele>1504.0</ele><time>2026-05-02T09:49:32.993Z</time></trkpt><trkpt lat="45.8686552" lon="11.7876694"><ele>1508.2</ele><time>2026-05-02T09:49:33.994Z</time></trkpt><trkpt lat="45.8687478" lon="11.7877903"><ele>1512.4</ele><time>2026-05-02T09:49:34.993Z</time></trkpt><trkpt lat="45.8688342" lon="11.7879047"><ele>1516.6</ele><time>2026-05-02T09:49:35.994Z</time></trkpt><trkpt lat="45.8689087" lon="11.788001"><ele>1520.8</ele><time>2026-05-02T09:49:36.993Z</time></trkpt><trkpt lat="45.8689729" lon="11.7880792"><ele>1525.0</ele><time>2026-05-02T09:49:37.994Z</time></trkpt><trkpt lat="45.8690273" lon="11.7881564"><ele>1525.0</ele><time>2026-05-02T09:49:38.993Z</time></trkpt><trkpt lat="45.8690689" lon="11.7882471"><ele>1525.0</ele><time>2026-05-02T09:49:39.994Z</time></trkpt><trkpt lat="45.8690892" lon="11.7883535"><ele>1525.0</ele><time>2026-05-02T09:49:40.993Z</time></trkpt><trkpt lat="45.8690797" lon="11.7884681"><ele>1525.0</ele><time>2026-05-02T09:49:41.994Z</time></trkpt><trkpt lat="45.8690402" lon="11.7885773"><ele>1525.0</ele><time>2026-05-02T09:49:42.993Z</time></trkpt><trkpt lat="45.8689762" lon="11.7886562"><ele>1525.0</ele><time>2026-05-02T09:49:43.993Z</time></trkpt><trkpt lat="45.8688948" lon="11.7886952"><ele>1526.3333333333333</ele><time>2026-05-02T09:49:44.994Z</time></trkpt><trkpt lat="45.8688036" lon="11.7887106"><ele>1527.6666666666665</ele><time>2026-05-02T09:49:45.994Z</time></trkpt><trkpt lat="45.868697" lon="11.7887"><ele>1529.0</ele><time>2026-05-02T09:49:46.994Z</time></trkpt><trkpt lat="45.8686015" lon="11.7887121"><ele>1530.3333333333333</ele><time>2026-05-02T09:49:47.994Z</time></trkpt><trkpt lat="45.8685263" lon="11.7887578"><ele>1531.6666666666667</ele><time>2026-05-02T09:49:48.993Z</time></trkpt><trkpt lat="45.8684858" lon="11.7888336"><ele>1533.0</ele><time>2026-05-02T09:49:49.993Z</time></trkpt><trkpt lat="45.8685316" lon="11.788984"><ele>1533.0</ele><time>2026-05-02T09:49:51.993Z</time></trkpt><trkpt lat="45.8686111" lon="11.7889922"><ele>1533.0</ele><time>2026-05-02T09:49:52.994Z</time></trkpt><trkpt lat="45.8687168" lon="11.7889744"><ele>1533.0</ele><time>2026-05-02T09:49:53.994Z</time></trkpt><trkpt lat="45.8688378" lon="11.7889593"><ele>1533.0</ele><time>2026-05-02T09:49:54.994Z</time></trkpt><trkpt lat="45.8689721" lon="11.7889558"><ele>1533.0</ele><time>2026-05-02T09:49:55.993Z</time></trkpt><trkpt lat="45.8690943" lon="11.7889417"><ele>1533.0</ele><time>2026-05-02T09:49:56.994Z</time></trkpt><trkpt lat="45.8691903" lon="11.7888919"><ele>1533.0</ele><time>2026-05-02T09:49:57.994Z</time></trkpt><trkpt lat="45.8692553" lon="11.7888033"><ele>1533.0</ele><time>2026-05-02T09:49:58.993Z</time></trkpt><trkpt lat="45.8692971" lon="11.7886764"><ele>1533.0</ele><time>2026-05-02T09:49:59.994Z</time></trkpt><trkpt lat="45.8693265" lon="11.7885171"><ele>1533.0</ele><time>2026-05-02T09:50:00.994Z</time></trkpt><trkpt lat="45.8693478" lon="11.7883324"><ele>1540.25</ele><time>2026-05-02T09:50:01.993Z</time></trkpt><trkpt lat="45.8693619" lon="11.7881322"><ele>1547.5</ele><time>2026-05-02T09:50:02.993Z</time></trkpt><trkpt lat="45.8693746" lon="11.7879339"><ele>1554.75</ele><time>2026-05-02T09:50:03.994Z</time></trkpt><trkpt lat="45.8693913" lon="11.7877712"><ele>1562.0</ele><time>2026-05-02T09:50:04.993Z</time></trkpt><trkpt lat="45.8694164" lon="11.7876414"><ele>1561.9999999999998</ele><time>2026-05-02T09:50:05.993Z</time></trkpt><trkpt lat="45.8694567" lon="11.7875394"><ele>1562.0</ele><time>2026-05-02T09:50:06.995Z</time></trkpt><trkpt lat="45.8695036" lon="11.7874576"><ele>1562.0</ele><time>2026-05-02T09:50:07.995Z</time></trkpt><trkpt lat="45.8695338" lon="11.7873717"><ele>1562.0</ele><time>2026-05-02T09:50:08.995Z</time></trkpt><trkpt lat="45.8695371" lon="11.7872671"><ele>1561.9999999999998</ele><time>2026-05-02T09:50:09.994Z</time></trkpt><trkpt lat="45.8695192" lon="11.7871452"><ele>1562.0</ele><time>2026-05-02T09:50:10.995Z</time></trkpt><trkpt lat="45.8694898" lon="11.7870153"><ele>1562.0</ele><time>2026-05-02T09:50:11.994Z</time></trkpt><trkpt lat="45.8694653" lon="11.7868765"><ele>1562.0</ele><time>2026-05-02T09:50:12.994Z</time></trkpt><trkpt lat="45.869447" lon="11.7867273"><ele>1562.0</ele><time>2026-05-02T09:50:13.995Z</time></trkpt><trkpt lat="45.8694295" lon="11.786572"><ele>1562.0</ele><time>2026-05-02T09:50:14.994Z</time></trkpt><trkpt lat="45.8694095" lon="11.7864249"><ele>1562.0</ele><time>2026-05-02T09:50:15.995Z</time></trkpt><trkpt lat="45.8693859" lon="11.7863062"><ele>1561.6666666666665</ele><time>2026-05-02T09:50:16.994Z</time></trkpt><trkpt lat="45.8693555" lon="11.7862177"><ele>1561.3333333333333</ele><time>2026-05-02T09:50:17.995Z</time></trkpt><trkpt lat="45.8693172" lon="11.7860718"><ele>1561.0</ele><time>2026-05-02T09:50:19.995Z</time></trkpt><trkpt lat="45.8693529" lon="11.785949"><ele>1560.6666666666665</ele><time>2026-05-02T09:50:21.995Z</time></trkpt><trkpt lat="45.8694248" lon="11.7859269"><ele>1560.3333333333333</ele><time>2026-05-02T09:50:23.995Z</time></trkpt><trkpt lat="45.8694913" lon="11.786019"><ele>1560.0</ele><time>2026-05-02T09:50:25.994Z</time></trkpt><trkpt lat="45.869499" lon="11.786112"><ele>1560.0</ele><time>2026-05-02T09:50:26.994Z</time></trkpt><trkpt lat="45.869502" lon="11.7862268"><ele>1560.0</ele><time>2026-05-02T09:50:27.995Z</time></trkpt><trkpt lat="45.8695191" lon="11.7863659"><ele>1560.0</ele><time>2026-05-02T09:50:28.994Z</time></trkpt><trkpt lat="45.8695558" lon="11.7865089"><ele>1560.0</ele><time>2026-05-02T09:50:29.995Z</time></trkpt><trkpt lat="45.8696053" lon="11.7866605"><ele>1560.0</ele><time>2026-05-02T09:50:30.994Z</time></trkpt><trkpt lat="45.8696733" lon="11.7868208"><ele>1560.5</ele><time>2026-05-02T09:50:31.995Z</time></trkpt><trkpt lat="45.8697516" lon="11.7869944"><ele>1561.0</ele><time>2026-05-02T09:50:32.995Z</time></trkpt><trkpt lat="45.8698191" lon="11.7871867"><ele>1561.5</ele><time>2026-05-02T09:50:33.995Z</time></trkpt><trkpt lat="45.8698621" lon="11.7874003"><ele>1562.0</ele><time>2026-05-02T09:50:34.995Z</time></trkpt><trkpt lat="45.8698953" lon="11.7876258"><ele>1564.0</ele><time>2026-05-02T09:50:35.995Z</time></trkpt><trkpt lat="45.8698996" lon="11.7878918"><ele>1566.0</ele><time>2026-05-02T09:50:36.994Z</time></trkpt><trkpt lat="45.8699099" lon="11.788164"><ele>1568.0</ele><time>2026-05-02T09:50:37.995Z</time></trkpt><trkpt lat="45.8699331" lon="11.7884432"><ele>1568.6666666666665</ele><time>2026-05-02T09:50:38.995Z</time></trkpt><trkpt lat="45.8699551" lon="11.7887219"><ele>1569.3333333333335</ele><time>2026-05-02T09:50:39.994Z</time></trkpt><trkpt lat="45.869975" lon="11.7890031"><ele>1570.0</ele><time>2026-05-02T09:50:40.994Z</time></trkpt><trkpt lat="45.8699974" lon="11.7892855"><ele>1570.0</ele><time>2026-05-02T09:50:41.995Z</time></trkpt><trkpt lat="45.8700243" lon="11.7895662"><ele>1570.0</ele><time>2026-05-02T09:50:42.995Z</time></trkpt><trkpt lat="45.870059" lon="11.7898423"><ele>1570.0</ele><time>2026-05-02T09:50:43.995Z</time></trkpt><trkpt lat="45.8701046" lon="11.7901164"><ele>1583.3333333333335</ele><time>2026-05-02T09:50:44.995Z</time></trkpt><trkpt lat="45.8701538" lon="11.7903714"><ele>1596.6666666666665</ele><time>2026-05-02T09:50:45.994Z</time></trkpt><trkpt lat="45.8701994" lon="11.7905984"><ele>1610.0</ele><time>2026-05-02T09:50:46.995Z</time></trkpt><trkpt lat="45.8702384" lon="11.7908058"><ele>1610.0</ele><time>2026-05-02T09:50:47.995Z</time></trkpt><trkpt lat="45.8702671" lon="11.7910028"><ele>1610.0</ele><time>2026-05-02T09:50:48.994Z</time></trkpt><trkpt lat="45.870258" lon="11.7911987"><ele>1610.0</ele><time>2026-05-02T09:50:49.994Z</time></trkpt><trkpt lat="45.870204" lon="11.7913725"><ele>1610.0</ele><time>2026-05-02T09:50:50.995Z</time></trkpt><trkpt lat="45.8701105" lon="11.7915153"><ele>1601.3333333333333</ele><time>2026-05-02T09:50:51.994Z</time></trkpt><trkpt lat="45.8699845" lon="11.7916101"><ele>1592.6666666666665</ele><time>2026-05-02T09:50:52.994Z</time></trkpt><trkpt lat="45.8698473" lon="11.7916888"><ele>1584.0</ele><time>2026-05-02T09:50:53.994Z</time></trkpt><trkpt lat="45.8697036" lon="11.791803"><ele>1587.6666666666665</ele><time>2026-05-02T09:50:54.995Z</time></trkpt><trkpt lat="45.869552" lon="11.7919396"><ele>1591.3333333333333</ele><time>2026-05-02T09:50:55.995Z</time></trkpt><trkpt lat="45.8693892" lon="11.7920842"><ele>1595.0</ele><time>2026-05-02T09:50:56.995Z</time></trkpt><trkpt lat="45.8692244" lon="11.7922222"><ele>1595.0</ele><time>2026-05-02T09:50:57.994Z</time></trkpt><trkpt lat="45.8690639" lon="11.7923533"><ele>1595.0</ele><time>2026-05-02T09:50:58.995Z</time></trkpt><trkpt lat="45.8689204" lon="11.7924634"><ele>1595.0</ele><time>2026-05-02T09:50:59.995Z</time></trkpt><trkpt lat="45.8687976" lon="11.7925657"><ele>1598.5</ele><time>2026-05-02T09:51:00.995Z</time></trkpt><trkpt lat="45.868693" lon="11.7926799"><ele>1602.0</ele><time>2026-05-02T09:51:01.995Z</time></trkpt><trkpt lat="45.8686108" lon="11.7928253"><ele>1605.5</ele><time>2026-05-02T09:51:02.995Z</time></trkpt><trkpt lat="45.8685636" lon="11.793003"><ele>1609.0</ele><time>2026-05-02T09:51:03.995Z</time></trkpt><trkpt lat="45.8685262" lon="11.7932193"><ele>1609.0</ele><time>2026-05-02T09:51:04.994Z</time></trkpt><trkpt lat="45.8684814" lon="11.7934686"><ele>1609.0</ele><time>2026-05-02T09:51:05.995Z</time></trkpt><trkpt lat="45.8684388" lon="11.7937195"><ele>1609.0</ele><time>2026-05-02T09:51:06.994Z</time></trkpt><trkpt lat="45.8684075" lon="11.7939728"><ele>1610.0</ele><time>2026-05-02T09:51:07.995Z</time></trkpt><trkpt lat="45.8683967" lon="11.7942263"><ele>1611.0</ele><time>2026-05-02T09:51:08.995Z</time></trkpt><trkpt lat="45.8684087" lon="11.7944818"><ele>1612.0</ele><time>2026-05-02T09:51:09.995Z</time></trkpt><trkpt lat="45.868428" lon="11.7946998"><ele>1612.0</ele><time>2026-05-02T09:51:10.995Z</time></trkpt><trkpt lat="45.8684364" lon="11.7948976"><ele>1612.0</ele><time>2026-05-02T09:51:11.995Z</time></trkpt><trkpt lat="45.8684197" lon="11.7950816"><ele>1612.0</ele><time>2026-05-02T09:51:12.995Z</time></trkpt><trkpt lat="45.8683602" lon="11.7952235"><ele>1612.0</ele><time>2026-05-02T09:51:13.996Z</time></trkpt><trkpt lat="45.8682768" lon="11.7953201"><ele>1615.75</ele><time>2026-05-02T09:51:14.995Z</time></trkpt><trkpt lat="45.86819" lon="11.7954052"><ele>1619.5</ele><time>2026-05-02T09:51:15.996Z</time></trkpt><trkpt lat="45.8681214" lon="11.7955134"><ele>1623.25</ele><time>2026-05-02T09:51:16.995Z</time></trkpt><trkpt lat="45.8680478" lon="11.7956643"><ele>1627.0</ele><time>2026-05-02T09:51:17.996Z</time></trkpt><trkpt lat="45.8679874" lon="11.7958539"><ele>1628.0</ele><time>2026-05-02T09:51:18.996Z</time></trkpt><trkpt lat="45.8679109" lon="11.7960549"><ele>1629.0</ele><time>2026-05-02T09:51:19.996Z</time></trkpt><trkpt lat="45.8678166" lon="11.796215"><ele>1630.0</ele><time>2026-05-02T09:51:20.996Z</time></trkpt><trkpt lat="45.8677237" lon="11.7963737"><ele>1630.0</ele><time>2026-05-02T09:51:21.996Z</time></trkpt><trkpt lat="45.8676531" lon="11.7965673"><ele>1630.0</ele><time>2026-05-02T09:51:22.995Z</time></trkpt><trkpt lat="45.867616" lon="11.7968181"><ele>1630.0</ele><time>2026-05-02T09:51:23.996Z</time></trkpt><trkpt lat="45.8675671" lon="11.7970702"><ele>1629.6666666666667</ele><time>2026-05-02T09:51:24.996Z</time></trkpt><trkpt lat="45.8675097" lon="11.7973144"><ele>1629.3333333333335</ele><time>2026-05-02T09:51:25.996Z</time></trkpt><trkpt lat="45.8674485" lon="11.7975143"><ele>1629.0</ele><time>2026-05-02T09:51:26.995Z</time></trkpt><trkpt lat="45.8673615" lon="11.7976797"><ele>1638.0</ele><time>2026-05-02T09:51:27.995Z</time></trkpt><trkpt lat="45.8672432" lon="11.7978079"><ele>1647.0</ele><time>2026-05-02T09:51:28.996Z</time></trkpt><trkpt lat="45.8670997" lon="11.7979024"><ele>1656.0</ele><time>2026-05-02T09:51:29.995Z</time></trkpt><trkpt lat="45.8669518" lon="11.7979989"><ele>1656.0</ele><time>2026-05-02T09:51:30.995Z</time></trkpt><trkpt lat="45.86682" lon="11.7980861"><ele>1656.0</ele><time>2026-05-02T09:51:31.995Z</time></trkpt><trkpt lat="45.8667086" lon="11.7981607"><ele>1656.0</ele><time>2026-05-02T09:51:32.995Z</time></trkpt><trkpt lat="45.8666084" lon="11.7982259"><ele>1656.0</ele><time>2026-05-02T09:51:33.995Z</time></trkpt><trkpt lat="45.8665146" lon="11.7982874"><ele>1657.1999999999998</ele><time>2026-05-02T09:51:34.995Z</time></trkpt><trkpt lat="45.8664164" lon="11.7983483"><ele>1658.3999999999999</ele><time>2026-05-02T09:51:35.995Z</time></trkpt><trkpt lat="45.8663208" lon="11.7983986"><ele>1659.6</ele><time>2026-05-02T09:51:36.995Z</time></trkpt><trkpt lat="45.866219" lon="11.7984407"><ele>1660.8</ele><time>2026-05-02T09:51:37.995Z</time></trkpt><trkpt lat="45.8661239" lon="11.7984787"><ele>1662.0</ele><time>2026-05-02T09:51:38.995Z</time></trkpt><trkpt lat="45.866036" lon="11.7985257"><ele>1662.0</ele><time>2026-05-02T09:51:39.995Z</time></trkpt><trkpt lat="45.8659659" lon="11.7985642"><ele>1662.0</ele><time>2026-05-02T09:51:40.996Z</time></trkpt><trkpt lat="45.8658722" lon="11.7986605"><ele>1662.0</ele><time>2026-05-02T09:51:42.995Z</time></trkpt><trkpt lat="45.8658348" lon="11.7987461"><ele>1662.0</ele><time>2026-05-02T09:51:43.996Z</time></trkpt><trkpt lat="45.8658076" lon="11.7988737"><ele>1662.0</ele><time>2026-05-02T09:51:44.996Z</time></trkpt><trkpt lat="45.8657991" lon="11.7990292"><ele>1660.1999999999998</ele><time>2026-05-02T09:51:45.996Z</time></trkpt><trkpt lat="45.8658068" lon="11.7991827"><ele>1658.4</ele><time>2026-05-02T09:51:46.995Z</time></trkpt><trkpt lat="45.8658155" lon="11.799309"><ele>1656.6</ele><time>2026-05-02T09:51:47.995Z</time></trkpt><trkpt lat="45.8658381" lon="11.7994261"><ele>1654.8000000000002</ele><time>2026-05-02T09:51:48.996Z</time></trkpt><trkpt lat="45.8658822" lon="11.7995421"><ele>1653.0</ele><time>2026-05-02T09:51:49.996Z</time></trkpt><trkpt lat="45.8659497" lon="11.7996415"><ele>1653.0</ele><time>2026-05-02T09:51:50.996Z</time></trkpt><trkpt lat="45.8660259" lon="11.7997163"><ele>1653.0</ele><time>2026-05-02T09:51:51.996Z</time></trkpt><trkpt lat="45.8661052" lon="11.7997808"><ele>1653.0</ele><time>2026-05-02T09:51:52.995Z</time></trkpt><trkpt lat="45.8661915" lon="11.79984"><ele>1653.0</ele><time>2026-05-02T09:51:53.996Z</time></trkpt><trkpt lat="45.8662837" lon="11.7998861"><ele>1653.0</ele><time>2026-05-02T09:51:54.995Z</time></trkpt><trkpt lat="45.8663805" lon="11.7999121"><ele>1653.0</ele><time>2026-05-02T09:51:55.996Z</time></trkpt><trkpt lat="45.8665029" lon="11.7999272"><ele>1653.0</ele><time>2026-05-02T09:51:56.996Z</time></trkpt><trkpt lat="45.8666663" lon="11.7999095"><ele>1653.0</ele><time>2026-05-02T09:51:57.995Z</time></trkpt><trkpt lat="45.8668647" lon="11.7998962"><ele>1656.6666666666665</ele><time>2026-05-02T09:51:58.996Z</time></trkpt><trkpt lat="45.8670806" lon="11.7998703"><ele>1660.3333333333333</ele><time>2026-05-02T09:51:59.996Z</time></trkpt><trkpt lat="45.8672824" lon="11.7998471"><ele>1664.0</ele><time>2026-05-02T09:52:00.996Z</time></trkpt><trkpt lat="45.8674667" lon="11.7998437"><ele>1670.0</ele><time>2026-05-02T09:52:01.996Z</time></trkpt><trkpt lat="45.8676434" lon="11.7998812"><ele>1676.0</ele><time>2026-05-02T09:52:02.995Z</time></trkpt><trkpt lat="45.8678209" lon="11.799957"><ele>1682.0</ele><time>2026-05-02T09:52:03.995Z</time></trkpt><trkpt lat="45.8679982" lon="11.800071"><ele>1687.6666666666665</ele><time>2026-05-02T09:52:04.996Z</time></trkpt><trkpt lat="45.8681787" lon="11.8002268"><ele>1693.3333333333335</ele><time>2026-05-02T09:52:05.996Z</time></trkpt><trkpt lat="45.8683406" lon="11.8004039"><ele>1699.0</ele><time>2026-05-02T09:52:06.996Z</time></trkpt><trkpt lat="45.8684936" lon="11.8005999"><ele>1699.0</ele><time>2026-05-02T09:52:07.996Z</time></trkpt><trkpt lat="45.86863" lon="11.8008053"><ele>1699.0</ele><time>2026-05-02T09:52:08.995Z</time></trkpt><trkpt lat="45.8687596" lon="11.8009946"><ele>1699.0</ele><time>2026-05-02T09:52:09.997Z</time></trkpt><trkpt lat="45.8688778" lon="11.8011518"><ele>1691.0</ele><time>2026-05-02T09:52:10.996Z</time></trkpt><trkpt lat="45.8689914" lon="11.8013039"><ele>1683.0</ele><time>2026-05-02T09:52:11.996Z</time></trkpt><trkpt lat="45.8691104" lon="11.8014468"><ele>1675.0</ele><time>2026-05-02T09:52:12.997Z</time></trkpt><trkpt lat="45.8692328" lon="11.8015637"><ele>1678.25</ele><time>2026-05-02T09:52:13.996Z</time></trkpt><trkpt lat="45.8693417" lon="11.801646"><ele>1681.5</ele><time>2026-05-02T09:52:14.996Z</time></trkpt><trkpt lat="45.8694612" lon="11.8017086"><ele>1684.75</ele><time>2026-05-02T09:52:15.996Z</time></trkpt><trkpt lat="45.8695925" lon="11.801715"><ele>1688.0</ele><time>2026-05-02T09:52:16.997Z</time></trkpt><trkpt lat="45.8697341" lon="11.8016839"><ele>1688.0</ele><time>2026-05-02T09:52:17.996Z</time></trkpt><trkpt lat="45.869891" lon="11.8016266"><ele>1688.0</ele><time>2026-05-02T09:52:18.997Z</time></trkpt><trkpt lat="45.8700618" lon="11.8015689"><ele>1688.0</ele><time>2026-05-02T09:52:19.996Z</time></trkpt><trkpt lat="45.8702352" lon="11.8015216"><ele>1688.75</ele><time>2026-05-02T09:52:20.996Z</time></trkpt><trkpt lat="45.8703921" lon="11.8014822"><ele>1689.5</ele><time>2026-05-02T09:52:21.997Z</time></trkpt><trkpt lat="45.8705387" lon="11.8014877"><ele>1690.25</ele><time>2026-05-02T09:52:22.996Z</time></trkpt><trkpt lat="45.8706696" lon="11.8015347"><ele>1691.0</ele><time>2026-05-02T09:52:23.996Z</time></trkpt><trkpt lat="45.8707987" lon="11.801557"><ele>1691.0</ele><time>2026-05-02T09:52:24.997Z</time></trkpt><trkpt lat="45.87092" lon="11.8015178"><ele>1691.0</ele><time>2026-05-02T09:52:25.997Z</time></trkpt><trkpt lat="45.8710378" lon="11.8014339"><ele>1691.0</ele><time>2026-05-02T09:52:26.996Z</time></trkpt><trkpt lat="45.871157" lon="11.8013252"><ele>1691.0</ele><time>2026-05-02T09:52:27.996Z</time></trkpt><trkpt lat="45.871279" lon="11.8012204"><ele>1690.5</ele><time>2026-05-02T09:52:28.997Z</time></trkpt><trkpt lat="45.8714096" lon="11.8011317"><ele>1690.0</ele><time>2026-05-02T09:52:29.997Z</time></trkpt><trkpt lat="45.8715478" lon="11.8011013"><ele>1689.5</ele><time>2026-05-02T09:52:30.997Z</time></trkpt><trkpt lat="45.8716971" lon="11.8011196"><ele>1689.0</ele><time>2026-05-02T09:52:31.996Z</time></trkpt><trkpt lat="45.8718424" lon="11.8011561"><ele>1695.3333333333335</ele><time>2026-05-02T09:52:32.997Z</time></trkpt><trkpt lat="45.8719961" lon="11.8011902"><ele>1701.6666666666667</ele><time>2026-05-02T09:52:33.996Z</time></trkpt><trkpt lat="45.8721473" lon="11.801228"><ele>1708.0</ele><time>2026-05-02T09:52:34.997Z</time></trkpt><trkpt lat="45.8722883" lon="11.8012692"><ele>1708.0</ele><time>2026-05-02T09:52:35.996Z</time></trkpt><trkpt lat="45.8724319" lon="11.8013192"><ele>1708.0</ele><time>2026-05-02T09:52:36.996Z</time></trkpt><trkpt lat="45.8725587" lon="11.8013977"><ele>1708.0</ele><time>2026-05-02T09:52:37.997Z</time></trkpt><trkpt lat="45.8726694" lon="11.8015082"><ele>1708.0</ele><time>2026-05-02T09:52:38.997Z</time></trkpt><trkpt lat="45.8727651" lon="11.8016436"><ele>1710.8000000000002</ele><time>2026-05-02T09:52:39.997Z</time></trkpt><trkpt lat="45.8728475" lon="11.8017819"><ele>1713.6000000000001</ele><time>2026-05-02T09:52:40.997Z</time></trkpt><trkpt lat="45.8729129" lon="11.8019038"><ele>1716.3999999999999</ele><time>2026-05-02T09:52:41.997Z</time></trkpt><trkpt lat="45.8729626" lon="11.8020234"><ele>1719.1999999999998</ele><time>2026-05-02T09:52:42.997Z</time></trkpt><trkpt lat="45.8729978" lon="11.8021545"><ele>1722.0</ele><time>2026-05-02T09:52:43.997Z</time></trkpt><trkpt lat="45.8730272" lon="11.8022759"><ele>1722.0</ele><time>2026-05-02T09:52:44.996Z</time></trkpt><trkpt lat="45.8730501" lon="11.8024075"><ele>1721.9999999999998</ele><time>2026-05-02T09:52:45.996Z</time></trkpt><trkpt lat="45.8730677" lon="11.8025508"><ele>1721.9999999999998</ele><time>2026-05-02T09:52:46.997Z</time></trkpt><trkpt lat="45.8730746" lon="11.8026878"><ele>1722.0</ele><time>2026-05-02T09:52:47.997Z</time></trkpt><trkpt lat="45.873082" lon="11.802833"><ele>1722.0</ele><time>2026-05-02T09:52:48.997Z</time></trkpt><trkpt lat="45.8730973" lon="11.8029733"><ele>1721.3999999999999</ele><time>2026-05-02T09:52:49.997Z</time></trkpt><trkpt lat="45.8731332" lon="11.8031126"><ele>1720.7999999999997</ele><time>2026-05-02T09:52:50.997Z</time></trkpt><trkpt lat="45.8731742" lon="11.8032526"><ele>1720.2</ele><time>2026-05-02T09:52:51.996Z</time></trkpt><trkpt lat="45.8732155" lon="11.8033812"><ele>1719.6</ele><time>2026-05-02T09:52:52.996Z</time></trkpt><trkpt lat="45.8732532" lon="11.8034807"><ele>1719.0</ele><time>2026-05-02T09:52:53.996Z</time></trkpt><trkpt lat="45.8733381" lon="11.8035872"><ele>1716.6</ele><time>2026-05-02T09:52:55.997Z</time></trkpt><trkpt lat="45.8734286" lon="11.8035479"><ele>1714.2</ele><time>2026-05-02T09:52:57.996Z</time></trkpt><trkpt lat="45.8734775" lon="11.803415"><ele>1711.7999999999997</ele><time>2026-05-02T09:52:59.996Z</time></trkpt><trkpt lat="45.8735136" lon="11.8032654"><ele>1709.3999999999999</ele><time>2026-05-02T09:53:01.997Z</time></trkpt><trkpt lat="45.8735414" lon="11.8031329"><ele>1707.0</ele><time>2026-05-02T09:53:03.997Z</time></trkpt><trkpt lat="45.8735665" lon="11.8030321"><ele>1706.1999999999998</ele><time>2026-05-02T09:53:05.997Z</time></trkpt><trkpt lat="45.8735742" lon="11.8029173"><ele>1705.3999999999999</ele><time>2026-05-02T09:53:07.996Z</time></trkpt><trkpt lat="45.8735773" lon="11.8027431"><ele>1704.6</ele><time>2026-05-02T09:53:09.998Z</time></trkpt><trkpt lat="45.8735673" lon="11.8025609"><ele>1703.8000000000002</ele><time>2026-05-02T09:53:11.998Z</time></trkpt><trkpt lat="45.8735617" lon="11.8024697"><ele>1703.0</ele><time>2026-05-02T09:53:12.998Z</time></trkpt><trkpt lat="45.8735571" lon="11.8023782"><ele>1703.0</ele><time>2026-05-02T09:53:13.998Z</time></trkpt><trkpt lat="45.8735422" lon="11.8022043"><ele>1703.0</ele><time>2026-05-02T09:53:15.997Z</time></trkpt><trkpt lat="45.8735225" lon="11.8020426"><ele>1703.0</ele><time>2026-05-02T09:53:17.998Z</time></trkpt><trkpt lat="45.8734979" lon="11.8018863"><ele>1703.0</ele><time>2026-05-02T09:53:19.998Z</time></trkpt><trkpt lat="45.8734718" lon="11.8017391"><ele>1706.8000000000002</ele><time>2026-05-02T09:53:21.998Z</time></trkpt><trkpt lat="45.8734384" lon="11.8016468"><ele>1710.6</ele><time>2026-05-02T09:53:23.997Z</time></trkpt><trkpt lat="45.8733769" lon="11.801732"><ele>1714.3999999999999</ele><time>2026-05-02T09:53:52.998Z</time></trkpt><trkpt lat="45.8733732" lon="11.8018751"><ele>1718.1999999999998</ele><time>2026-05-02T09:53:54.997Z</time></trkpt><trkpt lat="45.8733805" lon="11.8020226"><ele>1722.0</ele><time>2026-05-02T09:53:56.998Z</time></trkpt><trkpt lat="45.873381" lon="11.8021745"><ele>1722.0</ele><time>2026-05-02T09:53:58.998Z</time></trkpt><trkpt lat="45.8733914" lon="11.8023084"><ele>1722.0</ele><time>2026-05-02T09:54:00.998Z</time></trkpt><trkpt lat="45.8734282" lon="11.8024201"><ele>1722.0</ele><time>2026-05-02T09:54:02.997Z</time></trkpt><trkpt lat="45.8734941" lon="11.8025043"><ele>1722.0</ele><time>2026-05-02T09:54:04.997Z</time></trkpt><trkpt lat="45.8735422" lon="11.8026111"><ele>1722.0</ele><time>2026-05-02T09:54:06.998Z</time></trkpt><trkpt lat="45.8735561" lon="11.8027383"><ele>1722.0</ele><time>2026-05-02T09:54:08.998Z</time></trkpt><trkpt lat="45.8735514" lon="11.8028977"><ele>1719.5</ele><time>2026-05-02T09:54:10.999Z</time></trkpt><trkpt lat="45.8735366" lon="11.8030562"><ele>1717.0</ele><time>2026-05-02T09:54:12.998Z</time></trkpt><trkpt lat="45.8735139" lon="11.8031835"><ele>1714.5</ele><time>2026-05-02T09:54:14.998Z</time></trkpt><trkpt lat="45.8734888" lon="11.8032851"><ele>1712.0</ele><time>2026-05-02T09:54:16.998Z</time></trkpt><trkpt lat="45.873466" lon="11.8033845"><ele>1709.5</ele><time>2026-05-02T09:54:18.999Z</time></trkpt><trkpt lat="45.8734261" lon="11.8034979"><ele>1707.0</ele><time>2026-05-02T09:54:21.998Z</time></trkpt><trkpt lat="45.8733796" lon="11.8035829"><ele>1707.0</ele><time>2026-05-02T09:54:24.998Z</time></trkpt><trkpt lat="45.8733655" lon="11.8036826"><ele>1707.0</ele><time>2026-05-02T09:54:28.999Z</time></trkpt><trkpt lat="45.8733827" lon="11.8035919"><ele>1707.0</ele><time>2026-05-02T10:14:24.145Z</time></trkpt><trkpt lat="45.8734282" lon="11.8035231"><ele>1707.0</ele><time>2026-05-02T10:15:19.138Z</time></trkpt><trkpt lat="45.8734734" lon="11.8034481"><ele>1707.0</ele><time>2026-05-02T10:15:27.197Z</time></trkpt><trkpt lat="45.8734887" lon="11.8033563"><ele>1707.0</ele><time>2026-05-02T10:15:34.146Z</time></trkpt><trkpt lat="45.8735022" lon="11.8032548"><ele>1707.0</ele><time>2026-05-02T10:15:42.203Z</time></trkpt><trkpt lat="45.8735192" lon="11.8031601"><ele>1708.7142857142858</ele><time>2026-05-02T10:15:49.154Z</time></trkpt><trkpt lat="45.873546" lon="11.8030558"><ele>1710.4285714285713</ele><time>2026-05-02T10:15:56.205Z</time></trkpt><trkpt lat="45.8735701" lon="11.8029654"><ele>1712.1428571428573</ele><time>2026-05-02T10:16:03.154Z</time></trkpt><trkpt lat="45.8735811" lon="11.8028686"><ele>1713.857142857143</ele><time>2026-05-02T10:16:10.205Z</time></trkpt><trkpt lat="45.8735156" lon="11.802822"><ele>1715.5714285714287</ele><time>2026-05-02T10:16:17.155Z</time></trkpt><trkpt lat="45.8734482" lon="11.8028505"><ele>1717.2857142857144</ele><time>2026-05-02T10:16:23.198Z</time></trkpt><trkpt lat="45.8734042" lon="11.8029239"><ele>1719.0</ele><time>2026-05-02T10:16:31.154Z</time></trkpt><trkpt lat="45.8734389" lon="11.803009"><ele>1719.0</ele><time>2026-05-02T10:17:25.618Z</time></trkpt><trkpt lat="45.8735193" lon="11.8029256"><ele>1679.0</ele><time>2026-05-02T10:17:31.593Z</time></trkpt></trkseg><trkseg><trkpt lat="45.873372" lon="11.8036601"><ele>1707.0</ele><time>2026-05-02T11:24:29.214Z</time></trkpt><trkpt lat="45.8733454" lon="11.8035563"><ele>1706.9999999999998</ele><time>2026-05-02T11:25:13.096Z</time></trkpt><trkpt lat="45.873269" lon="11.8034701"><ele>1706.9999999999998</ele><time>2026-05-02T11:25:15.097Z</time></trkpt><trkpt lat="45.8732157" lon="11.8033439"><ele>1707.0</ele><time>2026-05-02T11:25:17.097Z</time></trkpt><trkpt lat="45.8731666" lon="11.8031818"><ele>1707.0</ele><time>2026-05-02T11:25:19.097Z</time></trkpt><trkpt lat="45.8731246" lon="11.8030216"><ele>1710.0</ele><time>2026-05-02T11:25:21.097Z</time></trkpt><trkpt lat="45.8731019" lon="11.8028542"><ele>1713.0</ele><time>2026-05-02T11:25:23.096Z</time></trkpt><trkpt lat="45.8730918" lon="11.8026783"><ele>1716.0</ele><time>2026-05-02T11:25:25.098Z</time></trkpt><trkpt lat="45.8730773" lon="11.8025165"><ele>1719.0</ele><time>2026-05-02T11:25:27.096Z</time></trkpt><trkpt lat="45.8730539" lon="11.8023628"><ele>1719.5</ele><time>2026-05-02T11:25:29.097Z</time></trkpt><trkpt lat="45.8730252" lon="11.8022149"><ele>1720.0</ele><time>2026-05-02T11:25:31.097Z</time></trkpt><trkpt lat="45.8729901" lon="11.8020594"><ele>1720.5</ele><time>2026-05-02T11:25:33.097Z</time></trkpt><trkpt lat="45.8729643" lon="11.8019747"><ele>1721.0</ele><time>2026-05-02T11:25:34.098Z</time></trkpt><trkpt lat="45.8729323" lon="11.8018859"><ele>1721.5</ele><time>2026-05-02T11:25:35.098Z</time></trkpt><trkpt lat="45.8728931" lon="11.8017982"><ele>1722.0</ele><time>2026-05-02T11:25:36.097Z</time></trkpt><trkpt lat="45.8728482" lon="11.8017144"><ele>1722.6666666666667</ele><time>2026-05-02T11:25:37.098Z</time></trkpt><trkpt lat="45.8727992" lon="11.8016325"><ele>1723.3333333333335</ele><time>2026-05-02T11:25:38.097Z</time></trkpt><trkpt lat="45.8727451" lon="11.8015518"><ele>1724.0</ele><time>2026-05-02T11:25:39.097Z</time></trkpt><trkpt lat="45.8726836" lon="11.8014722"><ele>1724.6666666666667</ele><time>2026-05-02T11:25:40.097Z</time></trkpt><trkpt lat="45.8726138" lon="11.8013995"><ele>1725.3333333333335</ele><time>2026-05-02T11:25:41.097Z</time></trkpt><trkpt lat="45.8725353" lon="11.8013429"><ele>1726.0</ele><time>2026-05-02T11:25:42.097Z</time></trkpt><trkpt lat="45.872456" lon="11.8013031"><ele>1723.4285714285716</ele><time>2026-05-02T11:25:43.098Z</time></trkpt><trkpt lat="45.8723805" lon="11.8012738"><ele>1720.857142857143</ele><time>2026-05-02T11:25:44.098Z</time></trkpt><trkpt lat="45.8723092" lon="11.8012512"><ele>1718.2857142857142</ele><time>2026-05-02T11:25:45.098Z</time></trkpt><trkpt lat="45.8722419" lon="11.8012347"><ele>1715.7142857142858</ele><time>2026-05-02T11:25:46.097Z</time></trkpt><trkpt lat="45.8721741" lon="11.8012181"><ele>1713.142857142857</ele><time>2026-05-02T11:25:47.097Z</time></trkpt><trkpt lat="45.8721043" lon="11.8012004"><ele>1710.5714285714287</ele><time>2026-05-02T11:25:48.098Z</time></trkpt><trkpt lat="45.8720313" lon="11.8011817"><ele>1708.0</ele><time>2026-05-02T11:25:49.098Z</time></trkpt><trkpt lat="45.8719584" lon="11.8011613"><ele>1708.0</ele><time>2026-05-02T11:25:50.097Z</time></trkpt><trkpt lat="45.8718902" lon="11.8011429"><ele>1708.0</ele><time>2026-05-02T11:25:51.097Z</time></trkpt><trkpt lat="45.8718232" lon="11.8011246"><ele>1708.0</ele><time>2026-05-02T11:25:52.097Z</time></trkpt><trkpt lat="45.8717528" lon="11.8011072"><ele>1708.0</ele><time>2026-05-02T11:25:53.097Z</time></trkpt><trkpt lat="45.8716789" lon="11.8010884"><ele>1708.0</ele><time>2026-05-02T11:25:54.097Z</time></trkpt><trkpt lat="45.871604" lon="11.8010717"><ele>1708.0</ele><time>2026-05-02T11:25:55.097Z</time></trkpt><trkpt lat="45.8715317" lon="11.8010664"><ele>1708.0</ele><time>2026-05-02T11:25:56.098Z</time></trkpt><trkpt lat="45.8714612" lon="11.8010806"><ele>1704.8333333333335</ele><time>2026-05-02T11:25:57.097Z</time></trkpt><trkpt lat="45.8713946" lon="11.8011166"><ele>1701.6666666666667</ele><time>2026-05-02T11:25:58.098Z</time></trkpt><trkpt lat="45.8713338" lon="11.8011587"><ele>1698.5</ele><time>2026-05-02T11:25:59.097Z</time></trkpt><trkpt lat="45.8712783" lon="11.8012041"><ele>1695.3333333333335</ele><time>2026-05-02T11:26:00.098Z</time></trkpt><trkpt lat="45.8711678" lon="11.8012966"><ele>1692.1666666666667</ele><time>2026-05-02T11:26:02.098Z</time></trkpt><trkpt lat="45.8711088" lon="11.8013461"><ele>1689.0</ele><time>2026-05-02T11:26:03.097Z</time></trkpt><trkpt lat="45.8710515" lon="11.8013956"><ele>1689.0</ele><time>2026-05-02T11:26:04.098Z</time></trkpt><trkpt lat="45.8709957" lon="11.8014432"><ele>1689.0</ele><time>2026-05-02T11:26:05.097Z</time></trkpt><trkpt lat="45.8709348" lon="11.8014815"><ele>1689.0</ele><time>2026-05-02T11:26:06.098Z</time></trkpt><trkpt lat="45.8708667" lon="11.8015017"><ele>1689.0</ele><time>2026-05-02T11:26:07.098Z</time></trkpt><trkpt lat="45.8707929" lon="11.801498"><ele>1689.0</ele><time>2026-05-02T11:26:08.098Z</time></trkpt><trkpt lat="45.8707151" lon="11.8014809"><ele>1689.0</ele><time>2026-05-02T11:26:09.098Z</time></trkpt><trkpt lat="45.8706364" lon="11.8014636"><ele>1689.0</ele><time>2026-05-02T11:26:10.098Z</time></trkpt><trkpt lat="45.870563" lon="11.8014529"><ele>1688.857142857143</ele><time>2026-05-02T11:26:11.098Z</time></trkpt><trkpt lat="45.8704928" lon="11.8014475"><ele>1688.7142857142856</ele><time>2026-05-02T11:26:12.097Z</time></trkpt><trkpt lat="45.8704218" lon="11.8014504"><ele>1688.5714285714284</ele><time>2026-05-02T11:26:13.097Z</time></trkpt><trkpt lat="45.8703481" lon="11.801463"><ele>1688.4285714285716</ele><time>2026-05-02T11:26:14.098Z</time></trkpt><trkpt lat="45.8702718" lon="11.8014757"><ele>1688.2857142857142</ele><time>2026-05-02T11:26:15.098Z</time></trkpt><trkpt lat="45.8701981" lon="11.8014865"><ele>1688.142857142857</ele><time>2026-05-02T11:26:16.098Z</time></trkpt><trkpt lat="45.8701294" lon="11.801502"><ele>1688.0</ele><time>2026-05-02T11:26:17.097Z</time></trkpt><trkpt lat="45.8700615" lon="11.801521"><ele>1688.0</ele><time>2026-05-02T11:26:18.098Z</time></trkpt><trkpt lat="45.8699946" lon="11.8015464"><ele>1688.0</ele><time>2026-05-02T11:26:19.098Z</time></trkpt><trkpt lat="45.8699313" lon="11.8015749"><ele>1688.0</ele><time>2026-05-02T11:26:20.099Z</time></trkpt><trkpt lat="45.869868" lon="11.8016053"><ele>1688.0</ele><time>2026-05-02T11:26:21.097Z</time></trkpt><trkpt lat="45.8698012" lon="11.8016324"><ele>1688.0</ele><time>2026-05-02T11:26:22.098Z</time></trkpt><trkpt lat="45.8697302" lon="11.8016563"><ele>1688.0</ele><time>2026-05-02T11:26:23.097Z</time></trkpt><trkpt lat="45.8696589" lon="11.801678"><ele>1688.0</ele><time>2026-05-02T11:26:24.097Z</time></trkpt><trkpt lat="45.8695868" lon="11.8016871"><ele>1687.9999999999998</ele><time>2026-05-02T11:26:25.098Z</time></trkpt><trkpt lat="45.8695128" lon="11.8016786"><ele>1688.0</ele><time>2026-05-02T11:26:26.099Z</time></trkpt><trkpt lat="45.8694413" lon="11.8016583"><ele>1688.0</ele><time>2026-05-02T11:26:27.099Z</time></trkpt><trkpt lat="45.8693737" lon="11.8016278"><ele>1688.0</ele><time>2026-05-02T11:26:28.098Z</time></trkpt><trkpt lat="45.8693055" lon="11.8015874"><ele>1687.9999999999998</ele><time>2026-05-02T11:26:29.099Z</time></trkpt><trkpt lat="45.8692377" lon="11.8015314"><ele>1688.0</ele><time>2026-05-02T11:26:30.098Z</time></trkpt><trkpt lat="45.8691724" lon="11.8014595"><ele>1689.8333333333333</ele><time>2026-05-02T11:26:31.099Z</time></trkpt><trkpt lat="45.869107" lon="11.8013822"><ele>1691.6666666666665</ele><time>2026-05-02T11:26:32.098Z</time></trkpt><trkpt lat="45.8690406" lon="11.8013026"><ele>1693.5</ele><time>2026-05-02T11:26:33.099Z</time></trkpt><trkpt lat="45.8689743" lon="11.8012211"><ele>1695.3333333333335</ele><time>2026-05-02T11:26:34.098Z</time></trkpt><trkpt lat="45.8689076" lon="11.8011384"><ele>1697.1666666666667</ele><time>2026-05-02T11:26:35.099Z</time></trkpt><trkpt lat="45.8688419" lon="11.8010524"><ele>1699.0</ele><time>2026-05-02T11:26:36.099Z</time></trkpt><trkpt lat="45.8687777" lon="11.8009631"><ele>1699.0</ele><time>2026-05-02T11:26:37.099Z</time></trkpt><trkpt lat="45.8687158" lon="11.8008702"><ele>1699.0</ele><time>2026-05-02T11:26:38.098Z</time></trkpt><trkpt lat="45.8686557" lon="11.8007736"><ele>1699.0</ele><time>2026-05-02T11:26:39.098Z</time></trkpt><trkpt lat="45.8685958" lon="11.8006761"><ele>1699.0</ele><time>2026-05-02T11:26:40.098Z</time></trkpt><trkpt lat="45.8685305" lon="11.8005778"><ele>1699.0</ele><time>2026-05-02T11:26:41.099Z</time></trkpt><trkpt lat="45.868459" lon="11.8004792"><ele>1695.6</ele><time>2026-05-02T11:26:42.098Z</time></trkpt><trkpt lat="45.8683781" lon="11.8003785"><ele>1692.2</ele><time>2026-05-02T11:26:43.098Z</time></trkpt><trkpt lat="45.8682919" lon="11.8002777"><ele>1688.8</ele><time>2026-05-02T11:26:44.099Z</time></trkpt><trkpt lat="45.8682011" lon="11.8001856"><ele>1685.3999999999999</ele><time>2026-05-02T11:26:45.099Z</time></trkpt><trkpt lat="45.8681134" lon="11.8001061"><ele>1682.0</ele><time>2026-05-02T11:26:46.099Z</time></trkpt><trkpt lat="45.8680264" lon="11.8000346"><ele>1682.0</ele><time>2026-05-02T11:26:47.099Z</time></trkpt><trkpt lat="45.8679366" lon="11.7999689"><ele>1682.0</ele><time>2026-05-02T11:26:48.098Z</time></trkpt><trkpt lat="45.8678498" lon="11.7999134"><ele>1682.0</ele><time>2026-05-02T11:26:49.099Z</time></trkpt><trkpt lat="45.867768" lon="11.7998662"><ele>1682.0</ele><time>2026-05-02T11:26:50.099Z</time></trkpt><trkpt lat="45.8676868" lon="11.7998275"><ele>1682.0</ele><time>2026-05-02T11:26:51.099Z</time></trkpt><trkpt lat="45.8675916" lon="11.7997984"><ele>1677.5</ele><time>2026-05-02T11:26:52.099Z</time></trkpt><trkpt lat="45.8674837" lon="11.7997864"><ele>1673.0</ele><time>2026-05-02T11:26:53.098Z</time></trkpt><trkpt lat="45.8673694" lon="11.7997915"><ele>1668.5</ele><time>2026-05-02T11:26:54.099Z</time></trkpt><trkpt lat="45.8672518" lon="11.7998114"><ele>1664.0</ele><time>2026-05-02T11:26:55.099Z</time></trkpt><trkpt lat="45.867132" lon="11.7998373"><ele>1664.0</ele><time>2026-05-02T11:26:56.098Z</time></trkpt><trkpt lat="45.8670101" lon="11.7998612"><ele>1664.0</ele><time>2026-05-02T11:26:57.099Z</time></trkpt><trkpt lat="45.8668863" lon="11.7998815"><ele>1664.0</ele><time>2026-05-02T11:26:58.099Z</time></trkpt><trkpt lat="45.866761" lon="11.7998992"><ele>1664.0</ele><time>2026-05-02T11:26:59.099Z</time></trkpt><trkpt lat="45.8666403" lon="11.7999089"><ele>1661.25</ele><time>2026-05-02T11:27:00.099Z</time></trkpt><trkpt lat="45.8665265" lon="11.7999035"><ele>1658.5</ele><time>2026-05-02T11:27:01.098Z</time></trkpt><trkpt lat="45.8664133" lon="11.7998829"><ele>1655.75</ele><time>2026-05-02T11:27:02.099Z</time></trkpt><trkpt lat="45.8663031" lon="11.7998436"><ele>1653.0</ele><time>2026-05-02T11:27:03.099Z</time></trkpt><trkpt lat="45.8661985" lon="11.799788"><ele>1653.0</ele><time>2026-05-02T11:27:04.098Z</time></trkpt><trkpt lat="45.8661023" lon="11.7997282"><ele>1653.0</ele><time>2026-05-02T11:27:05.099Z</time></trkpt><trkpt lat="45.8660174" lon="11.7996581"><ele>1653.0</ele><time>2026-05-02T11:27:06.098Z</time></trkpt><trkpt lat="45.865946" lon="11.7995661"><ele>1653.0</ele><time>2026-05-02T11:27:07.098Z</time></trkpt><trkpt lat="45.8658871" lon="11.7994448"><ele>1653.0</ele><time>2026-05-02T11:27:08.099Z</time></trkpt><trkpt lat="45.8658481" lon="11.7992993"><ele>1651.4</ele><time>2026-05-02T11:27:09.098Z</time></trkpt><trkpt lat="45.8658278" lon="11.7991434"><ele>1649.8000000000002</ele><time>2026-05-02T11:27:10.098Z</time></trkpt><trkpt lat="45.8658218" lon="11.7989945"><ele>1648.2</ele><time>2026-05-02T11:27:11.099Z</time></trkpt><trkpt lat="45.8658299" lon="11.7988552"><ele>1646.6</ele><time>2026-05-02T11:27:12.099Z</time></trkpt><trkpt lat="45.8658639" lon="11.7987361"><ele>1645.0</ele><time>2026-05-02T11:27:13.099Z</time></trkpt><trkpt lat="45.8659261" lon="11.79865"><ele>1644.2</ele><time>2026-05-02T11:27:14.099Z</time></trkpt><trkpt lat="45.8660092" lon="11.7985814"><ele>1643.4</ele><time>2026-05-02T11:27:15.098Z</time></trkpt><trkpt lat="45.8661059" lon="11.7985224"><ele>1642.6</ele><time>2026-05-02T11:27:16.099Z</time></trkpt><trkpt lat="45.8662114" lon="11.7984696"><ele>1641.8</ele><time>2026-05-02T11:27:17.099Z</time></trkpt><trkpt lat="45.8663225" lon="11.798417"><ele>1641.0</ele><time>2026-05-02T11:27:18.099Z</time></trkpt><trkpt lat="45.8664356" lon="11.7983562"><ele>1641.0</ele><time>2026-05-02T11:27:19.098Z</time></trkpt><trkpt lat="45.8665459" lon="11.7982842"><ele>1641.0</ele><time>2026-05-02T11:27:20.099Z</time></trkpt><trkpt lat="45.8666523" lon="11.7982085"><ele>1641.0</ele><time>2026-05-02T11:27:21.099Z</time></trkpt><trkpt lat="45.866755" lon="11.7981409"><ele>1641.0</ele><time>2026-05-02T11:27:22.098Z</time></trkpt><trkpt lat="45.8668604" lon="11.7980793"><ele>1644.0</ele><time>2026-05-02T11:27:23.099Z</time></trkpt><trkpt lat="45.8669669" lon="11.7980166"><ele>1647.0</ele><time>2026-05-02T11:27:24.099Z</time></trkpt><trkpt lat="45.8670669" lon="11.7979538"><ele>1650.0</ele><time>2026-05-02T11:27:25.099Z</time></trkpt><trkpt lat="45.8671619" lon="11.7978918"><ele>1653.0</ele><time>2026-05-02T11:27:26.1Z</time></trkpt><trkpt lat="45.867255" lon="11.7978261"><ele>1656.0</ele><time>2026-05-02T11:27:27.099Z</time></trkpt><trkpt lat="45.8673387" lon="11.7977363"><ele>1649.25</ele><time>2026-05-02T11:27:28.099Z</time></trkpt><trkpt lat="45.8674107" lon="11.7976195"><ele>1642.5</ele><time>2026-05-02T11:27:29.099Z</time></trkpt><trkpt lat="45.8674659" lon="11.7974778"><ele>1635.75</ele><time>2026-05-02T11:27:30.099Z</time></trkpt><trkpt lat="45.8675092" lon="11.7973205"><ele>1629.0</ele><time>2026-05-02T11:27:31.1Z</time></trkpt><trkpt lat="45.8675443" lon="11.7971671"><ele>1629.0</ele><time>2026-05-02T11:27:32.099Z</time></trkpt><trkpt lat="45.8675745" lon="11.7970218"><ele>1629.0</ele><time>2026-05-02T11:27:33.1Z</time></trkpt><trkpt lat="45.8676037" lon="11.7968783"><ele>1629.0</ele><time>2026-05-02T11:27:34.099Z</time></trkpt><trkpt lat="45.8676345" lon="11.796732"><ele>1629.0</ele><time>2026-05-02T11:27:35.099Z</time></trkpt><trkpt lat="45.8676709" lon="11.7965836"><ele>1629.0</ele><time>2026-05-02T11:27:36.1Z</time></trkpt><trkpt lat="45.8677244" lon="11.7964431"><ele>1629.2</ele><time>2026-05-02T11:27:37.1Z</time></trkpt><trkpt lat="45.8677975" lon="11.796321"><ele>1629.4</ele><time>2026-05-02T11:27:38.1Z</time></trkpt><trkpt lat="45.867873" lon="11.7962113"><ele>1629.6</ele><time>2026-05-02T11:27:39.099Z</time></trkpt><trkpt lat="45.8679279" lon="11.7960923"><ele>1629.8</ele><time>2026-05-02T11:27:40.1Z</time></trkpt><trkpt lat="45.8679656" lon="11.7959598"><ele>1630.0</ele><time>2026-05-02T11:27:41.099Z</time></trkpt><trkpt lat="45.8679973" lon="11.7958237"><ele>1629.5000000000002</ele><time>2026-05-02T11:27:42.1Z</time></trkpt><trkpt lat="45.8680372" lon="11.795693"><ele>1629.0</ele><time>2026-05-02T11:27:43.1Z</time></trkpt><trkpt lat="45.8680908" lon="11.7955803"><ele>1628.5</ele><time>2026-05-02T11:27:44.099Z</time></trkpt><trkpt lat="45.8681508" lon="11.7954862"><ele>1628.0</ele><time>2026-05-02T11:27:45.099Z</time></trkpt><trkpt lat="45.8682146" lon="11.7954108"><ele>1627.5000000000002</ele><time>2026-05-02T11:27:46.099Z</time></trkpt><trkpt lat="45.8682758" lon="11.7953514"><ele>1627.0</ele><time>2026-05-02T11:27:47.1Z</time></trkpt><trkpt lat="45.8683394" lon="11.7952731"><ele>1624.0</ele><time>2026-05-02T11:27:48.1Z</time></trkpt><trkpt lat="45.8683863" lon="11.7951703"><ele>1621.0</ele><time>2026-05-02T11:27:49.1Z</time></trkpt><trkpt lat="45.8684101" lon="11.795045"><ele>1618.0</ele><time>2026-05-02T11:27:50.099Z</time></trkpt><trkpt lat="45.8684176" lon="11.794913"><ele>1615.0</ele><time>2026-05-02T11:27:51.1Z</time></trkpt><trkpt lat="45.8684165" lon="11.7947791"><ele>1612.0</ele><time>2026-05-02T11:27:52.1Z</time></trkpt><trkpt lat="45.8684125" lon="11.7946391"><ele>1612.0</ele><time>2026-05-02T11:27:53.099Z</time></trkpt><trkpt lat="45.8684091" lon="11.7944938"><ele>1612.0</ele><time>2026-05-02T11:27:54.1Z</time></trkpt><trkpt lat="45.8684037" lon="11.7943448"><ele>1612.0</ele><time>2026-05-02T11:27:55.099Z</time></trkpt><trkpt lat="45.8683969" lon="11.7941916"><ele>1612.0</ele><time>2026-05-02T11:27:56.099Z</time></trkpt><trkpt lat="45.8684053" lon="11.7940361"><ele>1612.0</ele><time>2026-05-02T11:27:57.1Z</time></trkpt><trkpt lat="45.8684286" lon="11.7938805"><ele>1611.3999999999999</ele><time>2026-05-02T11:27:58.1Z</time></trkpt><trkpt lat="45.8684513" lon="11.7937235"><ele>1610.8</ele><time>2026-05-02T11:27:59.099Z</time></trkpt><trkpt lat="45.8684749" lon="11.7935675"><ele>1610.2</ele><time>2026-05-02T11:28:00.099Z</time></trkpt><trkpt lat="45.8684979" lon="11.7934131"><ele>1609.6</ele><time>2026-05-02T11:28:01.099Z</time></trkpt><trkpt lat="45.8685208" lon="11.7932617"><ele>1609.0</ele><time>2026-05-02T11:28:02.1Z</time></trkpt><trkpt lat="45.8685444" lon="11.7931126"><ele>1609.0</ele><time>2026-05-02T11:28:03.099Z</time></trkpt><trkpt lat="45.8685782" lon="11.7929686"><ele>1609.0</ele><time>2026-05-02T11:28:04.1Z</time></trkpt><trkpt lat="45.8686275" lon="11.7928341"><ele>1609.0</ele><time>2026-05-02T11:28:05.1Z</time></trkpt><trkpt lat="45.8686995" lon="11.7927137"><ele>1609.0</ele><time>2026-05-02T11:28:06.099Z</time></trkpt><trkpt lat="45.868796" lon="11.7926134"><ele>1609.0</ele><time>2026-05-02T11:28:07.1Z</time></trkpt><trkpt lat="45.8689035" lon="11.7925179"><ele>1607.25</ele><time>2026-05-02T11:28:08.099Z</time></trkpt><trkpt lat="45.8690166" lon="11.7924226"><ele>1605.5</ele><time>2026-05-02T11:28:09.1Z</time></trkpt><trkpt lat="45.8691335" lon="11.7923259"><ele>1603.75</ele><time>2026-05-02T11:28:10.1Z</time></trkpt><trkpt lat="45.8692519" lon="11.7922268"><ele>1602.0</ele><time>2026-05-02T11:28:11.099Z</time></trkpt><trkpt lat="45.8693631" lon="11.7921307"><ele>1602.0</ele><time>2026-05-02T11:28:12.099Z</time></trkpt><trkpt lat="45.8694679" lon="11.7920401"><ele>1602.0</ele><time>2026-05-02T11:28:13.1Z</time></trkpt><trkpt lat="45.8695702" lon="11.7919506"><ele>1602.0</ele><time>2026-05-02T11:28:14.1Z</time></trkpt><trkpt lat="45.8696748" lon="11.7918616"><ele>1602.0</ele><time>2026-05-02T11:28:15.1Z</time></trkpt><trkpt lat="45.8697798" lon="11.7917762"><ele>1604.1999999999998</ele><time>2026-05-02T11:28:16.099Z</time></trkpt><trkpt lat="45.8698829" lon="11.7917041"><ele>1606.4</ele><time>2026-05-02T11:28:17.099Z</time></trkpt><trkpt lat="45.8699829" lon="11.7916475"><ele>1608.6</ele><time>2026-05-02T11:28:18.1Z</time></trkpt><trkpt lat="45.8700724" lon="11.7915785"><ele>1610.8000000000002</ele><time>2026-05-02T11:28:19.1Z</time></trkpt><trkpt lat="45.8701513" lon="11.7914804"><ele>1613.0</ele><time>2026-05-02T11:28:20.099Z</time></trkpt><trkpt lat="45.8702117" lon="11.7913481"><ele>1613.0</ele><time>2026-05-02T11:28:21.101Z</time></trkpt><trkpt lat="45.8702441" lon="11.7911894"><ele>1613.0</ele><time>2026-05-02T11:28:22.099Z</time></trkpt><trkpt lat="45.8702475" lon="11.7910166"><ele>1613.0</ele><time>2026-05-02T11:28:23.1Z</time></trkpt><trkpt lat="45.870232" lon="11.7908439"><ele>1613.0</ele><time>2026-05-02T11:28:24.099Z</time></trkpt><trkpt lat="45.8702098" lon="11.7906734"><ele>1612.25</ele><time>2026-05-02T11:28:25.101Z</time></trkpt><trkpt lat="45.8701839" lon="11.7905021"><ele>1611.5</ele><time>2026-05-02T11:28:26.1Z</time></trkpt><trkpt lat="45.8701535" lon="11.790332"><ele>1610.75</ele><time>2026-05-02T11:28:27.1Z</time></trkpt><trkpt lat="45.8701232" lon="11.7901624"><ele>1610.0</ele><time>2026-05-02T11:28:28.101Z</time></trkpt><trkpt lat="45.8700941" lon="11.7899932"><ele>1600.0</ele><time>2026-05-02T11:28:29.101Z</time></trkpt><trkpt lat="45.8700674" lon="11.7898237"><ele>1590.0</ele><time>2026-05-02T11:28:30.1Z</time></trkpt><trkpt lat="45.870045" lon="11.7896529"><ele>1580.0</ele><time>2026-05-02T11:28:31.1Z</time></trkpt><trkpt lat="45.8700269" lon="11.7894833"><ele>1570.0</ele><time>2026-05-02T11:28:32.1Z</time></trkpt><trkpt lat="45.870011" lon="11.7893089"><ele>1570.0</ele><time>2026-05-02T11:28:33.101Z</time></trkpt><trkpt lat="45.8699951" lon="11.7891281"><ele>1570.0</ele><time>2026-05-02T11:28:34.101Z</time></trkpt><trkpt lat="45.8699789" lon="11.7889564"><ele>1570.0</ele><time>2026-05-02T11:28:35.1Z</time></trkpt><trkpt lat="45.8699644" lon="11.7887942"><ele>1570.0</ele><time>2026-05-02T11:28:36.1Z</time></trkpt><trkpt lat="45.8699521" lon="11.7886355"><ele>1569.6</ele><time>2026-05-02T11:28:37.101Z</time></trkpt><trkpt lat="45.8699401" lon="11.7884867"><ele>1569.2</ele><time>2026-05-02T11:28:38.1Z</time></trkpt><trkpt lat="45.8699278" lon="11.7883477"><ele>1568.8000000000002</ele><time>2026-05-02T11:28:39.101Z</time></trkpt><trkpt lat="45.8699162" lon="11.7882054"><ele>1568.4</ele><time>2026-05-02T11:28:40.101Z</time></trkpt><trkpt lat="45.8699024" lon="11.7880434"><ele>1568.0</ele><time>2026-05-02T11:28:41.101Z</time></trkpt><trkpt lat="45.8698908" lon="11.7878658"><ele>1568.0</ele><time>2026-05-02T11:28:42.101Z</time></trkpt><trkpt lat="45.8698883" lon="11.7876849"><ele>1568.0</ele><time>2026-05-02T11:28:43.1Z</time></trkpt><trkpt lat="45.8698874" lon="11.787508"><ele>1568.0</ele><time>2026-05-02T11:28:44.101Z</time></trkpt><trkpt lat="45.869868" lon="11.7873453"><ele>1568.0</ele><time>2026-05-02T11:28:45.1Z</time></trkpt><trkpt lat="45.8698319" lon="11.7871994"><ele>1566.9999999999998</ele><time>2026-05-02T11:28:46.1Z</time></trkpt><trkpt lat="45.8697886" lon="11.7870699"><ele>1566.0</ele><time>2026-05-02T11:28:47.1Z</time></trkpt><trkpt lat="45.8697377" lon="11.7869568"><ele>1565.0</ele><time>2026-05-02T11:28:48.101Z</time></trkpt><trkpt lat="45.8696921" lon="11.7868484"><ele>1564.0</ele><time>2026-05-02T11:28:49.101Z</time></trkpt><trkpt lat="45.8696537" lon="11.7867431"><ele>1562.9999999999998</ele><time>2026-05-02T11:28:50.101Z</time></trkpt><trkpt lat="45.8696161" lon="11.7866423"><ele>1562.0</ele><time>2026-05-02T11:28:51.101Z</time></trkpt><trkpt lat="45.8695807" lon="11.7865391"><ele>1561.6</ele><time>2026-05-02T11:28:52.1Z</time></trkpt><trkpt lat="45.8695514" lon="11.7864283"><ele>1561.1999999999998</ele><time>2026-05-02T11:28:53.1Z</time></trkpt><trkpt lat="45.8695344" lon="11.7863128"><ele>1560.8</ele><time>2026-05-02T11:28:54.1Z</time></trkpt><trkpt lat="45.8695273" lon="11.7862019"><ele>1560.4</ele><time>2026-05-02T11:28:55.1Z</time></trkpt><trkpt lat="45.8695192" lon="11.7860302"><ele>1560.0</ele><time>2026-05-02T11:28:57.1Z</time></trkpt><trkpt lat="45.8694702" lon="11.7859131"><ele>1558.8333333333333</ele><time>2026-05-02T11:28:59.101Z</time></trkpt><trkpt lat="45.8694069" lon="11.7858844"><ele>1557.6666666666665</ele><time>2026-05-02T11:29:01.101Z</time></trkpt><trkpt lat="45.869321" lon="11.78584"><ele>1556.5</ele><time>2026-05-02T11:29:08.101Z</time></trkpt><trkpt lat="45.8693002" lon="11.785691"><ele>1555.3333333333333</ele><time>2026-05-02T11:29:10.101Z</time></trkpt><trkpt lat="45.8693363" lon="11.7855904"><ele>1554.1666666666665</ele><time>2026-05-02T11:29:11.101Z</time></trkpt><trkpt lat="45.869395" lon="11.7854868"><ele>1553.0</ele><time>2026-05-02T11:29:12.101Z</time></trkpt><trkpt lat="45.8694719" lon="11.7854035"><ele>1553.0</ele><time>2026-05-02T11:29:13.1Z</time></trkpt><trkpt lat="45.8695725" lon="11.7853566"><ele>1553.0</ele><time>2026-05-02T11:29:14.1Z</time></trkpt><trkpt lat="45.8696915" lon="11.785353"><ele>1553.0</ele><time>2026-05-02T11:29:15.1Z</time></trkpt><trkpt lat="45.8698236" lon="11.7853763"><ele>1553.0</ele><time>2026-05-02T11:29:16.1Z</time></trkpt><trkpt lat="45.869973" lon="11.7854072"><ele>1555.75</ele><time>2026-05-02T11:29:17.101Z</time></trkpt><trkpt lat="45.870113" lon="11.7854328"><ele>1558.5</ele><time>2026-05-02T11:29:18.1Z</time></trkpt><trkpt lat="45.8702499" lon="11.7854517"><ele>1561.25</ele><time>2026-05-02T11:29:19.101Z</time></trkpt><trkpt lat="45.870387" lon="11.7854615"><ele>1564.0</ele><time>2026-05-02T11:29:20.101Z</time></trkpt><trkpt lat="45.870527" lon="11.7854612"><ele>1564.0</ele><time>2026-05-02T11:29:21.102Z</time></trkpt><trkpt lat="45.8706685" lon="11.7854542"><ele>1564.0</ele><time>2026-05-02T11:29:22.101Z</time></trkpt><trkpt lat="45.8707918" lon="11.7854492"><ele>1564.0</ele><time>2026-05-02T11:29:23.102Z</time></trkpt><trkpt lat="45.8708959" lon="11.7854443"><ele>1564.0</ele><time>2026-05-02T11:29:24.1Z</time></trkpt><trkpt lat="45.8709975" lon="11.7854357"><ele>1565.0</ele><time>2026-05-02T11:29:25.102Z</time></trkpt><trkpt lat="45.8711063" lon="11.7854293"><ele>1566.0</ele><time>2026-05-02T11:29:26.102Z</time></trkpt><trkpt lat="45.8712195" lon="11.7854346"><ele>1567.0</ele><time>2026-05-02T11:29:27.102Z</time></trkpt><trkpt lat="45.8713329" lon="11.7854549"><ele>1568.0</ele><time>2026-05-02T11:29:28.101Z</time></trkpt><trkpt lat="45.8714453" lon="11.7854866"><ele>1568.0</ele><time>2026-05-02T11:29:29.101Z</time></trkpt><trkpt lat="45.8715582" lon="11.7855185"><ele>1568.0</ele><time>2026-05-02T11:29:30.101Z</time></trkpt><trkpt lat="45.8716717" lon="11.7855515"><ele>1568.0</ele><time>2026-05-02T11:29:31.101Z</time></trkpt><trkpt lat="45.8717856" lon="11.785601"><ele>1568.0</ele><time>2026-05-02T11:29:32.101Z</time></trkpt><trkpt lat="45.871898" lon="11.7856757"><ele>1566.5</ele><time>2026-05-02T11:29:33.102Z</time></trkpt><trkpt lat="45.8720068" lon="11.7857853"><ele>1565.0</ele><time>2026-05-02T11:29:34.102Z</time></trkpt><trkpt lat="45.8721099" lon="11.7859245"><ele>1563.5</ele><time>2026-05-02T11:29:35.102Z</time></trkpt><trkpt lat="45.8722036" lon="11.7860864"><ele>1562.0</ele><time>2026-05-02T11:29:36.102Z</time></trkpt><trkpt lat="45.8722867" lon="11.786266"><ele>1562.0</ele><time>2026-05-02T11:29:37.102Z</time></trkpt><trkpt lat="45.8723609" lon="11.786458"><ele>1562.0</ele><time>2026-05-02T11:29:38.101Z</time></trkpt><trkpt lat="45.8724237" lon="11.7866594"><ele>1562.0</ele><time>2026-05-02T11:29:39.102Z</time></trkpt><trkpt lat="45.872477" lon="11.7868679"><ele>1565.75</ele><time>2026-05-02T11:29:40.102Z</time></trkpt><trkpt lat="45.8725224" lon="11.7870743"><ele>1569.5</ele><time>2026-05-02T11:29:41.102Z</time></trkpt><trkpt lat="45.872555" lon="11.7872633"><ele>1573.25</ele><time>2026-05-02T11:29:42.102Z</time></trkpt><trkpt lat="45.8725771" lon="11.7874459"><ele>1577.0</ele><time>2026-05-02T11:29:43.102Z</time></trkpt><trkpt lat="45.8725913" lon="11.7876285"><ele>1579.75</ele><time>2026-05-02T11:29:44.101Z</time></trkpt><trkpt lat="45.8726052" lon="11.7878105"><ele>1582.5</ele><time>2026-05-02T11:29:45.101Z</time></trkpt><trkpt lat="45.872638" lon="11.7879881"><ele>1585.25</ele><time>2026-05-02T11:29:46.102Z</time></trkpt><trkpt lat="45.8726892" lon="11.7881641"><ele>1588.0</ele><time>2026-05-02T11:29:47.102Z</time></trkpt><trkpt lat="45.8727304" lon="11.7883486"><ele>1577.75</ele><time>2026-05-02T11:29:48.101Z</time></trkpt><trkpt lat="45.8727512" lon="11.7885406"><ele>1567.5</ele><time>2026-05-02T11:29:49.102Z</time></trkpt><trkpt lat="45.8727571" lon="11.7887352"><ele>1557.25</ele><time>2026-05-02T11:29:50.101Z</time></trkpt><trkpt lat="45.8727485" lon="11.7889277"><ele>1547.0</ele><time>2026-05-02T11:29:51.102Z</time></trkpt><trkpt lat="45.8727235" lon="11.7891108"><ele>1547.0</ele><time>2026-05-02T11:29:52.102Z</time></trkpt><trkpt lat="45.8726907" lon="11.7892733"><ele>1547.0</ele><time>2026-05-02T11:29:53.102Z</time></trkpt><trkpt lat="45.8726557" lon="11.7894194"><ele>1547.0</ele><time>2026-05-02T11:29:54.102Z</time></trkpt><trkpt lat="45.8726122" lon="11.7895538"><ele>1547.0</ele><time>2026-05-02T11:29:55.101Z</time></trkpt><trkpt lat="45.8725659" lon="11.7896805"><ele>1547.0</ele><time>2026-05-02T11:29:56.101Z</time></trkpt><trkpt lat="45.8725193" lon="11.7898039"><ele>1554.0</ele><time>2026-05-02T11:29:57.102Z</time></trkpt><trkpt lat="45.8724721" lon="11.7899307"><ele>1561.0</ele><time>2026-05-02T11:29:58.102Z</time></trkpt><trkpt lat="45.8724226" lon="11.7900582"><ele>1568.0</ele><time>2026-05-02T11:29:59.101Z</time></trkpt><trkpt lat="45.8723735" lon="11.7901851"><ele>1575.0</ele><time>2026-05-02T11:30:00.101Z</time></trkpt><trkpt lat="45.8723392" lon="11.7903184"><ele>1582.0</ele><time>2026-05-02T11:30:01.101Z</time></trkpt><trkpt lat="45.8723179" lon="11.7904431"><ele>1583.75</ele><time>2026-05-02T11:30:02.101Z</time></trkpt><trkpt lat="45.8723564" lon="11.7905714"><ele>1585.5</ele><time>2026-05-02T11:30:03.101Z</time></trkpt><trkpt lat="45.8724288" lon="11.7906898"><ele>1587.25</ele><time>2026-05-02T11:30:04.101Z</time></trkpt><trkpt lat="45.8725289" lon="11.7908004"><ele>1589.0</ele><time>2026-05-02T11:30:05.101Z</time></trkpt><trkpt lat="45.8726479" lon="11.7909101"><ele>1588.6666666666665</ele><time>2026-05-02T11:30:06.102Z</time></trkpt><trkpt lat="45.8727756" lon="11.7910337"><ele>1588.3333333333335</ele><time>2026-05-02T11:30:07.101Z</time></trkpt><trkpt lat="45.8729025" lon="11.7911639"><ele>1588.0</ele><time>2026-05-02T11:30:08.102Z</time></trkpt><trkpt lat="45.8730188" lon="11.791299"><ele>1588.0</ele><time>2026-05-02T11:30:09.101Z</time></trkpt><trkpt lat="45.8731292" lon="11.791437"><ele>1588.0</ele><time>2026-05-02T11:30:10.101Z</time></trkpt><trkpt lat="45.8732013" lon="11.7916104"><ele>1588.0</ele><time>2026-05-02T11:30:11.101Z</time></trkpt><trkpt lat="45.8732669" lon="11.7917988"><ele>1588.0</ele><time>2026-05-02T11:30:12.102Z</time></trkpt><trkpt lat="45.8733364" lon="11.7919904"><ele>1587.25</ele><time>2026-05-02T11:30:13.102Z</time></trkpt><trkpt lat="45.8734111" lon="11.7921779"><ele>1586.5</ele><time>2026-05-02T11:30:14.102Z</time></trkpt><trkpt lat="45.8734729" lon="11.7923488"><ele>1585.75</ele><time>2026-05-02T11:30:15.102Z</time></trkpt><trkpt lat="45.8735187" lon="11.7925075"><ele>1585.0</ele><time>2026-05-02T11:30:16.102Z</time></trkpt><trkpt lat="45.873555" lon="11.7926607"><ele>1587.8</ele><time>2026-05-02T11:30:17.102Z</time></trkpt><trkpt lat="45.8735952" lon="11.7928056"><ele>1590.6</ele><time>2026-05-02T11:30:18.102Z</time></trkpt><trkpt lat="45.8736488" lon="11.7929376"><ele>1593.4</ele><time>2026-05-02T11:30:19.101Z</time></trkpt><trkpt lat="45.8737007" lon="11.7930542"><ele>1596.2</ele><time>2026-05-02T11:30:20.102Z</time></trkpt><trkpt lat="45.8737523" lon="11.793152"><ele>1599.0</ele><time>2026-05-02T11:30:21.101Z</time></trkpt><trkpt lat="45.8738076" lon="11.7932627"><ele>1599.0</ele><time>2026-05-02T11:30:22.102Z</time></trkpt><trkpt lat="45.8738578" lon="11.7933929"><ele>1599.0</ele><time>2026-05-02T11:30:23.101Z</time></trkpt><trkpt lat="45.873893" lon="11.7935448"><ele>1599.0</ele><time>2026-05-02T11:30:24.103Z</time></trkpt><trkpt lat="45.8739108" lon="11.7937097"><ele>1599.0</ele><time>2026-05-02T11:30:25.102Z</time></trkpt><trkpt lat="45.8739054" lon="11.79388"><ele>1599.5</ele><time>2026-05-02T11:30:26.103Z</time></trkpt><trkpt lat="45.8738758" lon="11.7940495"><ele>1600.0</ele><time>2026-05-02T11:30:27.102Z</time></trkpt><trkpt lat="45.8738323" lon="11.7942124"><ele>1600.5</ele><time>2026-05-02T11:30:28.102Z</time></trkpt><trkpt lat="45.8737972" lon="11.7943576"><ele>1601.0</ele><time>2026-05-02T11:30:29.103Z</time></trkpt><trkpt lat="45.8737847" lon="11.7945043"><ele>1603.25</ele><time>2026-05-02T11:30:30.103Z</time></trkpt><trkpt lat="45.8738042" lon="11.7946526"><ele>1605.5</ele><time>2026-05-02T11:30:31.102Z</time></trkpt><trkpt lat="45.8738606" lon="11.7947958"><ele>1607.75</ele><time>2026-05-02T11:30:32.103Z</time></trkpt><trkpt lat="45.8739424" lon="11.7949378"><ele>1610.0</ele><time>2026-05-02T11:30:33.103Z</time></trkpt><trkpt lat="45.8740362" lon="11.7950845"><ele>1608.75</ele><time>2026-05-02T11:30:34.102Z</time></trkpt><trkpt lat="45.8741346" lon="11.7952373"><ele>1607.5</ele><time>2026-05-02T11:30:35.102Z</time></trkpt><trkpt lat="45.8742383" lon="11.7953923"><ele>1606.25</ele><time>2026-05-02T11:30:36.103Z</time></trkpt><trkpt lat="45.8743503" lon="11.7955417"><ele>1605.0</ele><time>2026-05-02T11:30:37.103Z</time></trkpt><trkpt lat="45.8744704" lon="11.7956837"><ele>1605.0</ele><time>2026-05-02T11:30:38.102Z</time></trkpt><trkpt lat="45.8745875" lon="11.7958162"><ele>1605.0</ele><time>2026-05-02T11:30:39.102Z</time></trkpt><trkpt lat="45.8746954" lon="11.7959387"><ele>1605.0</ele><time>2026-05-02T11:30:40.103Z</time></trkpt><trkpt lat="45.8747995" lon="11.7960571"><ele>1605.0</ele><time>2026-05-02T11:30:41.102Z</time></trkpt><trkpt lat="45.8749054" lon="11.7961682"><ele>1604.0</ele><time>2026-05-02T11:30:42.102Z</time></trkpt><trkpt lat="45.875017" lon="11.7962621"><ele>1603.0</ele><time>2026-05-02T11:30:43.102Z</time></trkpt><trkpt lat="45.8751289" lon="11.7963246"><ele>1602.0</ele><time>2026-05-02T11:30:44.103Z</time></trkpt><trkpt lat="45.8752397" lon="11.7963667"><ele>1601.0</ele><time>2026-05-02T11:30:45.102Z</time></trkpt><trkpt lat="45.8753479" lon="11.7964077"><ele>1601.0</ele><time>2026-05-02T11:30:46.102Z</time></trkpt><trkpt lat="45.8754403" lon="11.7964736"><ele>1601.0</ele><time>2026-05-02T11:30:47.103Z</time></trkpt><trkpt lat="45.8755281" lon="11.7965743"><ele>1601.0</ele><time>2026-05-02T11:30:48.102Z</time></trkpt><trkpt lat="45.8755949" lon="11.7966975"><ele>1601.0</ele><time>2026-05-02T11:30:49.102Z</time></trkpt><trkpt lat="45.8756593" lon="11.796832"><ele>1601.0</ele><time>2026-05-02T11:30:50.102Z</time></trkpt><trkpt lat="45.8757217" lon="11.7969749"><ele>1605.6</ele><time>2026-05-02T11:30:51.103Z</time></trkpt><trkpt lat="45.8757883" lon="11.797105"><ele>1610.1999999999998</ele><time>2026-05-02T11:30:52.102Z</time></trkpt><trkpt lat="45.8758672" lon="11.7972109"><ele>1614.8000000000002</ele><time>2026-05-02T11:30:53.102Z</time></trkpt><trkpt lat="45.8759455" lon="11.7973075"><ele>1619.4</ele><time>2026-05-02T11:30:54.103Z</time></trkpt><trkpt lat="45.8760246" lon="11.7973788"><ele>1624.0</ele><time>2026-05-02T11:30:55.102Z</time></trkpt><trkpt lat="45.8761167" lon="11.7974145"><ele>1625.25</ele><time>2026-05-02T11:30:56.102Z</time></trkpt><trkpt lat="45.8762334" lon="11.7974172"><ele>1626.5</ele><time>2026-05-02T11:30:57.103Z</time></trkpt><trkpt lat="45.8763548" lon="11.7973891"><ele>1627.75</ele><time>2026-05-02T11:30:58.102Z</time></trkpt><trkpt lat="45.8764932" lon="11.7972937"><ele>1629.0</ele><time>2026-05-02T11:30:59.103Z</time></trkpt><trkpt lat="45.8766475" lon="11.7971591"><ele>1632.3333333333335</ele><time>2026-05-02T11:31:00.102Z</time></trkpt><trkpt lat="45.8767946" lon="11.797037"><ele>1635.6666666666667</ele><time>2026-05-02T11:31:01.103Z</time></trkpt><trkpt lat="45.8769367" lon="11.7969228"><ele>1639.0</ele><time>2026-05-02T11:31:02.102Z</time></trkpt><trkpt lat="45.8770514" lon="11.7968104"><ele>1632.75</ele><time>2026-05-02T11:31:03.102Z</time></trkpt><trkpt lat="45.877162" lon="11.7967175"><ele>1626.5</ele><time>2026-05-02T11:31:04.103Z</time></trkpt><trkpt lat="45.8772745" lon="11.7966509"><ele>1620.25</ele><time>2026-05-02T11:31:05.103Z</time></trkpt><trkpt lat="45.8773898" lon="11.7966011"><ele>1614.0</ele><time>2026-05-02T11:31:06.103Z</time></trkpt><trkpt lat="45.8774923" lon="11.7965543"><ele>1614.0</ele><time>2026-05-02T11:31:07.103Z</time></trkpt><trkpt lat="45.877588" lon="11.7965256"><ele>1614.0</ele><time>2026-05-02T11:31:08.102Z</time></trkpt><trkpt lat="45.8776819" lon="11.7965392"><ele>1614.0</ele><time>2026-05-02T11:31:09.102Z</time></trkpt><trkpt lat="45.8777705" lon="11.7965905"><ele>1614.0</ele><time>2026-05-02T11:31:10.104Z</time></trkpt><trkpt lat="45.8778572" lon="11.7966729"><ele>1614.0</ele><time>2026-05-02T11:31:11.103Z</time></trkpt><trkpt lat="45.877944" lon="11.7967676"><ele>1615.2</ele><time>2026-05-02T11:31:12.102Z</time></trkpt><trkpt lat="45.8780351" lon="11.7968491"><ele>1616.4</ele><time>2026-05-02T11:31:13.103Z</time></trkpt><trkpt lat="45.87813" lon="11.7968932"><ele>1617.6</ele><time>2026-05-02T11:31:14.103Z</time></trkpt><trkpt lat="45.87823" lon="11.7968924"><ele>1618.8</ele><time>2026-05-02T11:31:15.104Z</time></trkpt><trkpt lat="45.8783287" lon="11.7968452"><ele>1620.0</ele><time>2026-05-02T11:31:16.102Z</time></trkpt><trkpt lat="45.8784289" lon="11.7967521"><ele>1623.5</ele><time>2026-05-02T11:31:17.103Z</time></trkpt><trkpt lat="45.878538" lon="11.7966368"><ele>1627.0</ele><time>2026-05-02T11:31:18.102Z</time></trkpt><trkpt lat="45.8786536" lon="11.7965177"><ele>1630.5</ele><time>2026-05-02T11:31:19.103Z</time></trkpt><trkpt lat="45.8787567" lon="11.7964062"><ele>1634.0</ele><time>2026-05-02T11:31:20.102Z</time></trkpt><trkpt lat="45.8788475" lon="11.7963056"><ele>1634.0</ele><time>2026-05-02T11:31:21.102Z</time></trkpt><trkpt lat="45.8789326" lon="11.7962203"><ele>1634.0</ele><time>2026-05-02T11:31:22.104Z</time></trkpt><trkpt lat="45.8790284" lon="11.796151"><ele>1634.0</ele><time>2026-05-02T11:31:23.104Z</time></trkpt><trkpt lat="45.8791259" lon="11.7960786"><ele>1634.0</ele><time>2026-05-02T11:31:24.103Z</time></trkpt><trkpt lat="45.8792091" lon="11.7959857"><ele>1634.0</ele><time>2026-05-02T11:31:25.103Z</time></trkpt><trkpt lat="45.8792666" lon="11.7958594"><ele>1633.2</ele><time>2026-05-02T11:31:26.104Z</time></trkpt><trkpt lat="45.8792879" lon="11.7957098"><ele>1632.4</ele><time>2026-05-02T11:31:27.104Z</time></trkpt><trkpt lat="45.8792746" lon="11.7955564"><ele>1631.6</ele><time>2026-05-02T11:31:28.104Z</time></trkpt><trkpt lat="45.8792668" lon="11.7954053"><ele>1630.8</ele><time>2026-05-02T11:31:29.104Z</time></trkpt><trkpt lat="45.8792863" lon="11.7952583"><ele>1630.0</ele><time>2026-05-02T11:31:30.104Z</time></trkpt><trkpt lat="45.879337" lon="11.7951222"><ele>1626.75</ele><time>2026-05-02T11:31:31.103Z</time></trkpt><trkpt lat="45.8794201" lon="11.7950011"><ele>1623.5</ele><time>2026-05-02T11:31:32.103Z</time></trkpt><trkpt lat="45.8795267" lon="11.7948795"><ele>1620.25</ele><time>2026-05-02T11:31:33.103Z</time></trkpt><trkpt lat="45.8796405" lon="11.7947516"><ele>1617.0</ele><time>2026-05-02T11:31:34.104Z</time></trkpt><trkpt lat="45.8797485" lon="11.7946344"><ele>1617.0</ele><time>2026-05-02T11:31:35.104Z</time></trkpt><trkpt lat="45.8798522" lon="11.7945255"><ele>1617.0</ele><time>2026-05-02T11:31:36.104Z</time></trkpt><trkpt lat="45.8799542" lon="11.7944178"><ele>1617.0</ele><time>2026-05-02T11:31:37.103Z</time></trkpt><trkpt lat="45.8800351" lon="11.7942907"><ele>1617.0</ele><time>2026-05-02T11:31:38.103Z</time></trkpt><trkpt lat="45.8801026" lon="11.7941606"><ele>1618.8</ele><time>2026-05-02T11:31:39.104Z</time></trkpt><trkpt lat="45.8801513" lon="11.7940256"><ele>1620.6</ele><time>2026-05-02T11:31:40.104Z</time></trkpt><trkpt lat="45.8802097" lon="11.7938932"><ele>1622.3999999999999</ele><time>2026-05-02T11:31:41.104Z</time></trkpt><trkpt lat="45.8802877" lon="11.7937746"><ele>1624.1999999999998</ele><time>2026-05-02T11:31:42.104Z</time></trkpt><trkpt lat="45.8803868" lon="11.7936864"><ele>1626.0</ele><time>2026-05-02T11:31:43.103Z</time></trkpt><trkpt lat="45.8804989" lon="11.7936118"><ele>1626.0</ele><time>2026-05-02T11:31:44.104Z</time></trkpt><trkpt lat="45.8806134" lon="11.7935393"><ele>1626.0</ele><time>2026-05-02T11:31:45.103Z</time></trkpt><trkpt lat="45.8807214" lon="11.7934675"><ele>1626.0</ele><time>2026-05-02T11:31:46.103Z</time></trkpt><trkpt lat="45.8808114" lon="11.7933725"><ele>1626.0</ele><time>2026-05-02T11:31:47.104Z</time></trkpt><trkpt lat="45.8808775" lon="11.7932425"><ele>1623.6</ele><time>2026-05-02T11:31:48.104Z</time></trkpt><trkpt lat="45.8809179" lon="11.7930984"><ele>1621.1999999999998</ele><time>2026-05-02T11:31:49.104Z</time></trkpt><trkpt lat="45.8809573" lon="11.7929582"><ele>1618.8000000000002</ele><time>2026-05-02T11:31:50.104Z</time></trkpt><trkpt lat="45.8810207" lon="11.7928315"><ele>1616.4</ele><time>2026-05-02T11:31:51.104Z</time></trkpt><trkpt lat="45.8811063" lon="11.792729"><ele>1614.0</ele><time>2026-05-02T11:31:52.104Z</time></trkpt><trkpt lat="45.8812053" lon="11.7926739"><ele>1614.0</ele><time>2026-05-02T11:31:53.104Z</time></trkpt><trkpt lat="45.8813175" lon="11.7926646"><ele>1614.0</ele><time>2026-05-02T11:31:54.104Z</time></trkpt><trkpt lat="45.8814353" lon="11.7926878"><ele>1614.0</ele><time>2026-05-02T11:31:55.104Z</time></trkpt><trkpt lat="45.8815459" lon="11.792724"><ele>1614.0</ele><time>2026-05-02T11:31:56.103Z</time></trkpt><trkpt lat="45.8816492" lon="11.7927439"><ele>1614.0</ele><time>2026-05-02T11:31:57.103Z</time></trkpt><trkpt lat="45.8817456" lon="11.7927184"><ele>1615.5</ele><time>2026-05-02T11:31:58.104Z</time></trkpt><trkpt lat="45.8818378" lon="11.7926387"><ele>1617.0</ele><time>2026-05-02T11:31:59.103Z</time></trkpt><trkpt lat="45.8819294" lon="11.792537"><ele>1618.5</ele><time>2026-05-02T11:32:00.104Z</time></trkpt><trkpt lat="45.8819884" lon="11.792361"><ele>1620.0</ele><time>2026-05-02T11:32:01.104Z</time></trkpt><trkpt lat="45.8820407" lon="11.7921652"><ele>1620.0</ele><time>2026-05-02T11:32:02.104Z</time></trkpt><trkpt lat="45.8820994" lon="11.7919644"><ele>1620.0</ele><time>2026-05-02T11:32:03.104Z</time></trkpt><trkpt lat="45.8821651" lon="11.7917558"><ele>1620.0</ele><time>2026-05-02T11:32:04.104Z</time></trkpt><trkpt lat="45.882235" lon="11.7915304"><ele>1613.6666666666665</ele><time>2026-05-02T11:32:05.104Z</time></trkpt><trkpt lat="45.8823061" lon="11.7912929"><ele>1607.3333333333333</ele><time>2026-05-02T11:32:06.104Z</time></trkpt><trkpt lat="45.8823782" lon="11.7910543"><ele>1601.0</ele><time>2026-05-02T11:32:07.104Z</time></trkpt><trkpt lat="45.8824585" lon="11.79083"><ele>1603.3333333333333</ele><time>2026-05-02T11:32:08.103Z</time></trkpt><trkpt lat="45.8825456" lon="11.7906192"><ele>1605.6666666666665</ele><time>2026-05-02T11:32:09.104Z</time></trkpt><trkpt lat="45.8826304" lon="11.7904148"><ele>1608.0</ele><time>2026-05-02T11:32:10.103Z</time></trkpt><trkpt lat="45.8827154" lon="11.7902178"><ele>1600.0</ele><time>2026-05-02T11:32:11.103Z</time></trkpt><trkpt lat="45.8828116" lon="11.7900397"><ele>1592.0</ele><time>2026-05-02T11:32:12.103Z</time></trkpt><trkpt lat="45.8829219" lon="11.7898842"><ele>1584.0</ele><time>2026-05-02T11:32:13.104Z</time></trkpt><trkpt lat="45.8830392" lon="11.7897381"><ele>1584.0</ele><time>2026-05-02T11:32:14.103Z</time></trkpt><trkpt lat="45.8831551" lon="11.7895933"><ele>1584.0</ele><time>2026-05-02T11:32:15.104Z</time></trkpt><trkpt lat="45.8832626" lon="11.7894433"><ele>1584.0</ele><time>2026-05-02T11:32:16.104Z</time></trkpt><trkpt lat="45.8833634" lon="11.789281"><ele>1582.25</ele><time>2026-05-02T11:32:17.103Z</time></trkpt><trkpt lat="45.8834627" lon="11.7891161"><ele>1580.5</ele><time>2026-05-02T11:32:18.104Z</time></trkpt><trkpt lat="45.8835666" lon="11.7889676"><ele>1578.75</ele><time>2026-05-02T11:32:19.105Z</time></trkpt><trkpt lat="45.883678" lon="11.7888466"><ele>1577.0</ele><time>2026-05-02T11:32:20.104Z</time></trkpt><trkpt lat="45.8837957" lon="11.7887513"><ele>1577.0</ele><time>2026-05-02T11:32:21.105Z</time></trkpt><trkpt lat="45.8839153" lon="11.7886775"><ele>1577.0</ele><time>2026-05-02T11:32:22.104Z</time></trkpt><trkpt lat="45.8840337" lon="11.7886276"><ele>1577.0</ele><time>2026-05-02T11:32:23.105Z</time></trkpt><trkpt lat="45.884148" lon="11.7885925"><ele>1577.0</ele><time>2026-05-02T11:32:24.105Z</time></trkpt><trkpt lat="45.8842564" lon="11.7885583"><ele>1577.0</ele><time>2026-05-02T11:32:25.105Z</time></trkpt><trkpt lat="45.8843584" lon="11.7885125"><ele>1577.0</ele><time>2026-05-02T11:32:26.104Z</time></trkpt><trkpt lat="45.8844557" lon="11.7884367"><ele>1577.0</ele><time>2026-05-02T11:32:27.104Z</time></trkpt><trkpt lat="45.8845414" lon="11.7883225"><ele>1577.0</ele><time>2026-05-02T11:32:28.104Z</time></trkpt><trkpt lat="45.8846098" lon="11.7881725"><ele>1575.0</ele><time>2026-05-02T11:32:29.104Z</time></trkpt><trkpt lat="45.8846659" lon="11.7879981"><ele>1573.0</ele><time>2026-05-02T11:32:30.105Z</time></trkpt><trkpt lat="45.8847199" lon="11.7878236"><ele>1571.0</ele><time>2026-05-02T11:32:31.105Z</time></trkpt><trkpt lat="45.8847714" lon="11.7876566"><ele>1569.0</ele><time>2026-05-02T11:32:32.104Z</time></trkpt><trkpt lat="45.8848209" lon="11.787487"><ele>1565.75</ele><time>2026-05-02T11:32:33.105Z</time></trkpt><trkpt lat="45.884871" lon="11.7873056"><ele>1562.5</ele><time>2026-05-02T11:32:34.105Z</time></trkpt><trkpt lat="45.8849119" lon="11.7871126"><ele>1559.25</ele><time>2026-05-02T11:32:35.104Z</time></trkpt><trkpt lat="45.8849401" lon="11.7868987"><ele>1556.0</ele><time>2026-05-02T11:32:36.105Z</time></trkpt><trkpt lat="45.884966" lon="11.786662"><ele>1552.0</ele><time>2026-05-02T11:32:37.105Z</time></trkpt><trkpt lat="45.8849932" lon="11.7864069"><ele>1548.0</ele><time>2026-05-02T11:32:38.104Z</time></trkpt><trkpt lat="45.8850261" lon="11.7861423"><ele>1544.0</ele><time>2026-05-02T11:32:39.104Z</time></trkpt><trkpt lat="45.8850758" lon="11.7858891"><ele>1546.6666666666665</ele><time>2026-05-02T11:32:40.105Z</time></trkpt><trkpt lat="45.8851304" lon="11.7856513"><ele>1549.3333333333335</ele><time>2026-05-02T11:32:41.105Z</time></trkpt><trkpt lat="45.8851661" lon="11.7854136"><ele>1552.0</ele><time>2026-05-02T11:32:42.104Z</time></trkpt><trkpt lat="45.8851791" lon="11.7851652"><ele>1552.0</ele><time>2026-05-02T11:32:43.105Z</time></trkpt><trkpt lat="45.8851838" lon="11.7849145"><ele>1552.0</ele><time>2026-05-02T11:32:44.104Z</time></trkpt><trkpt lat="45.8851908" lon="11.7846882"><ele>1552.0</ele><time>2026-05-02T11:32:45.104Z</time></trkpt><trkpt lat="45.8851989" lon="11.7844787"><ele>1548.0</ele><time>2026-05-02T11:32:46.105Z</time></trkpt><trkpt lat="45.8852132" lon="11.7842711"><ele>1544.0</ele><time>2026-05-02T11:32:47.104Z</time></trkpt><trkpt lat="45.8852449" lon="11.7840579"><ele>1540.0</ele><time>2026-05-02T11:32:48.105Z</time></trkpt><trkpt lat="45.88529" lon="11.7838468"><ele>1540.0</ele><time>2026-05-02T11:32:49.104Z</time></trkpt><trkpt lat="45.8853368" lon="11.7836503"><ele>1540.0</ele><time>2026-05-02T11:32:50.105Z</time></trkpt><trkpt lat="45.8853813" lon="11.7834653"><ele>1540.0</ele><time>2026-05-02T11:32:51.104Z</time></trkpt><trkpt lat="45.8854222" lon="11.7832852"><ele>1540.0</ele><time>2026-05-02T11:32:52.105Z</time></trkpt><trkpt lat="45.8854635" lon="11.7830981"><ele>1537.0</ele><time>2026-05-02T11:32:53.105Z</time></trkpt><trkpt lat="45.8855089" lon="11.7829061"><ele>1534.0</ele><time>2026-05-02T11:32:54.104Z</time></trkpt><trkpt lat="45.8855733" lon="11.7827222"><ele>1531.0</ele><time>2026-05-02T11:32:55.104Z</time></trkpt><trkpt lat="45.8856632" lon="11.782559"><ele>1528.0</ele><time>2026-05-02T11:32:56.105Z</time></trkpt><trkpt lat="45.8857662" lon="11.782405"><ele>1526.5</ele><time>2026-05-02T11:32:57.104Z</time></trkpt><trkpt lat="45.8858692" lon="11.782254"><ele>1525.0</ele><time>2026-05-02T11:32:58.104Z</time></trkpt><trkpt lat="45.88596" lon="11.7821013"><ele>1523.5</ele><time>2026-05-02T11:32:59.105Z</time></trkpt><trkpt lat="45.8860314" lon="11.7819313"><ele>1522.0</ele><time>2026-05-02T11:33:00.105Z</time></trkpt><trkpt lat="45.8860919" lon="11.7817485"><ele>1522.0</ele><time>2026-05-02T11:33:01.105Z</time></trkpt><trkpt lat="45.8861461" lon="11.7815742"><ele>1522.0</ele><time>2026-05-02T11:33:02.104Z</time></trkpt><trkpt lat="45.8861992" lon="11.7814052"><ele>1522.0</ele><time>2026-05-02T11:33:03.105Z</time></trkpt><trkpt lat="45.8862644" lon="11.7812398"><ele>1522.0</ele><time>2026-05-02T11:33:04.105Z</time></trkpt><trkpt lat="45.8863433" lon="11.7810799"><ele>1519.75</ele><time>2026-05-02T11:33:05.104Z</time></trkpt><trkpt lat="45.8864325" lon="11.7809234"><ele>1517.5</ele><time>2026-05-02T11:33:06.105Z</time></trkpt><trkpt lat="45.886537" lon="11.7807763"><ele>1515.25</ele><time>2026-05-02T11:33:07.105Z</time></trkpt><trkpt lat="45.8866526" lon="11.7806369"><ele>1513.0</ele><time>2026-05-02T11:33:08.104Z</time></trkpt><trkpt lat="45.8867745" lon="11.7804979"><ele>1512.0</ele><time>2026-05-02T11:33:09.104Z</time></trkpt><trkpt lat="45.8868945" lon="11.7803486"><ele>1511.0</ele><time>2026-05-02T11:33:10.104Z</time></trkpt><trkpt lat="45.8870009" lon="11.7801768"><ele>1510.0</ele><time>2026-05-02T11:33:11.104Z</time></trkpt><trkpt lat="45.8870897" lon="11.779985"><ele>1510.0</ele><time>2026-05-02T11:33:12.104Z</time></trkpt><trkpt lat="45.8871655" lon="11.7797924"><ele>1510.0</ele><time>2026-05-02T11:33:13.105Z</time></trkpt><trkpt lat="45.88723" lon="11.7795969"><ele>1510.0</ele><time>2026-05-02T11:33:14.104Z</time></trkpt><trkpt lat="45.887271" lon="11.7793918"><ele>1509.5</ele><time>2026-05-02T11:33:15.106Z</time></trkpt><trkpt lat="45.8872901" lon="11.7791808"><ele>1509.0</ele><time>2026-05-02T11:33:16.106Z</time></trkpt><trkpt lat="45.8873063" lon="11.7789682"><ele>1508.5</ele><time>2026-05-02T11:33:17.105Z</time></trkpt><trkpt lat="45.8873347" lon="11.7787587"><ele>1508.0</ele><time>2026-05-02T11:33:18.106Z</time></trkpt><trkpt lat="45.8873684" lon="11.7785569"><ele>1506.0</ele><time>2026-05-02T11:33:19.106Z</time></trkpt><trkpt lat="45.8874122" lon="11.7783652"><ele>1504.0</ele><time>2026-05-02T11:33:20.105Z</time></trkpt><trkpt lat="45.8874803" lon="11.7781847"><ele>1502.0</ele><time>2026-05-02T11:33:21.105Z</time></trkpt><trkpt lat="45.8875705" lon="11.778018"><ele>1500.0</ele><time>2026-05-02T11:33:22.105Z</time></trkpt><trkpt lat="45.8876621" lon="11.7778468"><ele>1500.6666666666667</ele><time>2026-05-02T11:33:23.106Z</time></trkpt><trkpt lat="45.8877409" lon="11.7776611"><ele>1501.3333333333335</ele><time>2026-05-02T11:33:24.106Z</time></trkpt><trkpt lat="45.8877991" lon="11.777458"><ele>1502.0</ele><time>2026-05-02T11:33:25.106Z</time></trkpt><trkpt lat="45.887838" lon="11.7772347"><ele>1502.0</ele><time>2026-05-02T11:33:26.105Z</time></trkpt><trkpt lat="45.8878672" lon="11.7770167"><ele>1502.0</ele><time>2026-05-02T11:33:27.106Z</time></trkpt><trkpt lat="45.8878923" lon="11.7768127"><ele>1502.0</ele><time>2026-05-02T11:33:28.106Z</time></trkpt><trkpt lat="45.8879163" lon="11.7766217"><ele>1502.0</ele><time>2026-05-02T11:33:29.105Z</time></trkpt><trkpt lat="45.8879366" lon="11.7764431"><ele>1503.75</ele><time>2026-05-02T11:33:30.106Z</time></trkpt><trkpt lat="45.88796" lon="11.7762754"><ele>1505.5</ele><time>2026-05-02T11:33:31.106Z</time></trkpt><trkpt lat="45.8879876" lon="11.7761046"><ele>1507.25</ele><time>2026-05-02T11:33:32.105Z</time></trkpt><trkpt lat="45.888007" lon="11.7759252"><ele>1509.0</ele><time>2026-05-02T11:33:33.106Z</time></trkpt><trkpt lat="45.8880122" lon="11.7757346"><ele>1509.0</ele><time>2026-05-02T11:33:34.106Z</time></trkpt><trkpt lat="45.8880063" lon="11.7755217"><ele>1509.0</ele><time>2026-05-02T11:33:35.105Z</time></trkpt><trkpt lat="45.8880031" lon="11.7752904"><ele>1509.0</ele><time>2026-05-02T11:33:36.105Z</time></trkpt><trkpt lat="45.8880113" lon="11.7750486"><ele>1508.6666666666667</ele><time>2026-05-02T11:33:37.105Z</time></trkpt><trkpt lat="45.8880384" lon="11.7748066"><ele>1508.3333333333335</ele><time>2026-05-02T11:33:38.105Z</time></trkpt><trkpt lat="45.8880793" lon="11.7745681"><ele>1508.0</ele><time>2026-05-02T11:33:39.105Z</time></trkpt><trkpt lat="45.888121" lon="11.7743306"><ele>1507.0</ele><time>2026-05-02T11:33:40.105Z</time></trkpt><trkpt lat="45.8881553" lon="11.774091"><ele>1506.0</ele><time>2026-05-02T11:33:41.106Z</time></trkpt><trkpt lat="45.8881869" lon="11.7738497"><ele>1505.0</ele><time>2026-05-02T11:33:42.106Z</time></trkpt><trkpt lat="45.8882172" lon="11.7736084"><ele>1503.0</ele><time>2026-05-02T11:33:43.106Z</time></trkpt><trkpt lat="45.888238" lon="11.7733667"><ele>1501.0</ele><time>2026-05-02T11:33:44.106Z</time></trkpt><trkpt lat="45.8882414" lon="11.773134"><ele>1499.0</ele><time>2026-05-02T11:33:45.105Z</time></trkpt><trkpt lat="45.8882306" lon="11.7729054"><ele>1498.6666666666667</ele><time>2026-05-02T11:33:46.105Z</time></trkpt><trkpt lat="45.8882048" lon="11.7726825"><ele>1498.3333333333333</ele><time>2026-05-02T11:33:47.105Z</time></trkpt><trkpt lat="45.8881591" lon="11.7724654"><ele>1498.0</ele><time>2026-05-02T11:33:48.105Z</time></trkpt><trkpt lat="45.8881012" lon="11.7722487"><ele>1498.0</ele><time>2026-05-02T11:33:49.106Z</time></trkpt><trkpt lat="45.8880451" lon="11.7720417"><ele>1498.0</ele><time>2026-05-02T11:33:50.106Z</time></trkpt><trkpt lat="45.8879873" lon="11.771851"><ele>1498.0</ele><time>2026-05-02T11:33:51.105Z</time></trkpt><trkpt lat="45.8879289" lon="11.7716743"><ele>1498.0</ele><time>2026-05-02T11:33:52.105Z</time></trkpt><trkpt lat="45.8878768" lon="11.7714971"><ele>1498.0</ele><time>2026-05-02T11:33:53.106Z</time></trkpt><trkpt lat="45.8878437" lon="11.7713104"><ele>1498.0</ele><time>2026-05-02T11:33:54.106Z</time></trkpt><trkpt lat="45.887842" lon="11.7711187"><ele>1498.0</ele><time>2026-05-02T11:33:55.105Z</time></trkpt><trkpt lat="45.8878761" lon="11.7709369"><ele>1498.0</ele><time>2026-05-02T11:33:56.105Z</time></trkpt><trkpt lat="45.8879443" lon="11.7707914"><ele>1495.25</ele><time>2026-05-02T11:33:57.106Z</time></trkpt><trkpt lat="45.8880363" lon="11.7707025"><ele>1492.5</ele><time>2026-05-02T11:33:58.105Z</time></trkpt><trkpt lat="45.8881479" lon="11.7706608"><ele>1489.75</ele><time>2026-05-02T11:33:59.105Z</time></trkpt><trkpt lat="45.8882794" lon="11.7706458"><ele>1487.0</ele><time>2026-05-02T11:34:00.106Z</time></trkpt><trkpt lat="45.8884263" lon="11.7706517"><ele>1483.0</ele><time>2026-05-02T11:34:01.106Z</time></trkpt><trkpt lat="45.8885793" lon="11.7706703"><ele>1479.0</ele><time>2026-05-02T11:34:02.106Z</time></trkpt><trkpt lat="45.8887329" lon="11.770691"><ele>1475.0</ele><time>2026-05-02T11:34:03.105Z</time></trkpt><trkpt lat="45.8888839" lon="11.7707201"><ele>1475.0</ele><time>2026-05-02T11:34:04.106Z</time></trkpt><trkpt lat="45.889028" lon="11.7707485"><ele>1475.0</ele><time>2026-05-02T11:34:05.105Z</time></trkpt><trkpt lat="45.8891699" lon="11.7707623"><ele>1475.0</ele><time>2026-05-02T11:34:06.105Z</time></trkpt><trkpt lat="45.8893081" lon="11.7707624"><ele>1475.0</ele><time>2026-05-02T11:34:07.106Z</time></trkpt><trkpt lat="45.8894433" lon="11.7707484"><ele>1474.5</ele><time>2026-05-02T11:34:08.106Z</time></trkpt><trkpt lat="45.8895794" lon="11.7707154"><ele>1474.0</ele><time>2026-05-02T11:34:09.105Z</time></trkpt><trkpt lat="45.8897134" lon="11.7706665"><ele>1473.5</ele><time>2026-05-02T11:34:10.106Z</time></trkpt><trkpt lat="45.8898418" lon="11.7706074"><ele>1473.0</ele><time>2026-05-02T11:34:11.107Z</time></trkpt><trkpt lat="45.8899648" lon="11.7705345"><ele>1473.0</ele><time>2026-05-02T11:34:12.107Z</time></trkpt><trkpt lat="45.890081" lon="11.7704385"><ele>1473.0</ele><time>2026-05-02T11:34:13.106Z</time></trkpt><trkpt lat="45.890195" lon="11.7703158"><ele>1473.0</ele><time>2026-05-02T11:34:14.107Z</time></trkpt><trkpt lat="45.8903092" lon="11.7701773"><ele>1473.0</ele><time>2026-05-02T11:34:15.106Z</time></trkpt><trkpt lat="45.8904292" lon="11.7700382"><ele>1468.5</ele><time>2026-05-02T11:34:16.107Z</time></trkpt><trkpt lat="45.8905533" lon="11.7699118"><ele>1464.0</ele><time>2026-05-02T11:34:17.106Z</time></trkpt><trkpt lat="45.8906759" lon="11.7697943"><ele>1459.5</ele><time>2026-05-02T11:34:18.107Z</time></trkpt><trkpt lat="45.8907926" lon="11.7696793"><ele>1455.0</ele><time>2026-05-02T11:34:19.107Z</time></trkpt><trkpt lat="45.8909019" lon="11.7695669"><ele>1451.5</ele><time>2026-05-02T11:34:20.107Z</time></trkpt><trkpt lat="45.8910067" lon="11.7694613"><ele>1448.0</ele><time>2026-05-02T11:34:21.106Z</time></trkpt><trkpt lat="45.891109" lon="11.7693653"><ele>1444.5</ele><time>2026-05-02T11:34:22.107Z</time></trkpt><trkpt lat="45.8912025" lon="11.769268"><ele>1441.0</ele><time>2026-05-02T11:34:23.107Z</time></trkpt><trkpt lat="45.8912929" lon="11.7691724"><ele>1441.0</ele><time>2026-05-02T11:34:24.106Z</time></trkpt><trkpt lat="45.8913789" lon="11.7690822"><ele>1441.0</ele><time>2026-05-02T11:34:25.106Z</time></trkpt><trkpt lat="45.8914602" lon="11.7689984"><ele>1441.0</ele><time>2026-05-02T11:34:26.106Z</time></trkpt><trkpt lat="45.8915417" lon="11.7689325"><ele>1441.0</ele><time>2026-05-02T11:34:27.107Z</time></trkpt><trkpt lat="45.8916255" lon="11.7688966"><ele>1441.0</ele><time>2026-05-02T11:34:28.107Z</time></trkpt><trkpt lat="45.8917099" lon="11.7689014"><ele>1437.3333333333333</ele><time>2026-05-02T11:34:29.107Z</time></trkpt><trkpt lat="45.8917857" lon="11.7689499"><ele>1433.6666666666665</ele><time>2026-05-02T11:34:30.106Z</time></trkpt><trkpt lat="45.8918388" lon="11.7690303"><ele>1430.0</ele><time>2026-05-02T11:34:31.107Z</time></trkpt><trkpt lat="45.8918631" lon="11.7691344"><ele>1426.3333333333333</ele><time>2026-05-02T11:34:32.107Z</time></trkpt><trkpt lat="45.8918564" lon="11.7692505"><ele>1422.6666666666667</ele><time>2026-05-02T11:34:33.106Z</time></trkpt><trkpt lat="45.8918273" lon="11.7693705"><ele>1419.0</ele><time>2026-05-02T11:34:34.107Z</time></trkpt><trkpt lat="45.8917783" lon="11.7694997"><ele>1423.25</ele><time>2026-05-02T11:34:35.106Z</time></trkpt><trkpt lat="45.8917118" lon="11.7696378"><ele>1427.5</ele><time>2026-05-02T11:34:36.106Z</time></trkpt><trkpt lat="45.891633" lon="11.7697789"><ele>1431.75</ele><time>2026-05-02T11:34:37.107Z</time></trkpt><trkpt lat="45.8915412" lon="11.7699382"><ele>1436.0</ele><time>2026-05-02T11:34:38.106Z</time></trkpt><trkpt lat="45.8914479" lon="11.7701248"><ele>1429.6666666666667</ele><time>2026-05-02T11:34:39.107Z</time></trkpt><trkpt lat="45.8913671" lon="11.7703394"><ele>1423.3333333333333</ele><time>2026-05-02T11:34:40.106Z</time></trkpt><trkpt lat="45.8913013" lon="11.770557"><ele>1417.0</ele><time>2026-05-02T11:34:41.107Z</time></trkpt><trkpt lat="45.8912397" lon="11.7707662"><ele>1417.0</ele><time>2026-05-02T11:34:42.107Z</time></trkpt><trkpt lat="45.8911738" lon="11.7709612"><ele>1417.0</ele><time>2026-05-02T11:34:43.106Z</time></trkpt><trkpt lat="45.8911078" lon="11.7711399"><ele>1417.0</ele><time>2026-05-02T11:34:44.107Z</time></trkpt><trkpt lat="45.8910456" lon="11.7713034"><ele>1417.0</ele><time>2026-05-02T11:34:45.106Z</time></trkpt><trkpt lat="45.8909894" lon="11.7714516"><ele>1414.1999999999998</ele><time>2026-05-02T11:34:46.107Z</time></trkpt><trkpt lat="45.8909362" lon="11.7715871"><ele>1411.4</ele><time>2026-05-02T11:34:47.107Z</time></trkpt><trkpt lat="45.8908891" lon="11.7717136"><ele>1408.6</ele><time>2026-05-02T11:34:48.107Z</time></trkpt><trkpt lat="45.890858" lon="11.7718436"><ele>1405.8000000000002</ele><time>2026-05-02T11:34:49.107Z</time></trkpt><trkpt lat="45.8908491" lon="11.7719848"><ele>1403.0</ele><time>2026-05-02T11:34:50.106Z</time></trkpt><trkpt lat="45.8908706" lon="11.7721283"><ele>1404.75</ele><time>2026-05-02T11:34:51.107Z</time></trkpt><trkpt lat="45.8909308" lon="11.7722556"><ele>1406.5</ele><time>2026-05-02T11:34:52.106Z</time></trkpt><trkpt lat="45.8909941" lon="11.772367"><ele>1408.25</ele><time>2026-05-02T11:34:53.107Z</time></trkpt><trkpt lat="45.8910988" lon="11.7724632"><ele>1410.0</ele><time>2026-05-02T11:34:54.106Z</time></trkpt><trkpt lat="45.8912015" lon="11.7725643"><ele>1410.0</ele><time>2026-05-02T11:34:55.107Z</time></trkpt><trkpt lat="45.8912956" lon="11.7726833"><ele>1410.0</ele><time>2026-05-02T11:34:56.106Z</time></trkpt><trkpt lat="45.8913892" lon="11.7728135"><ele>1410.0</ele><time>2026-05-02T11:34:57.107Z</time></trkpt><trkpt lat="45.8914469" lon="11.7729701"><ele>1410.0</ele><time>2026-05-02T11:34:58.107Z</time></trkpt><trkpt lat="45.8914949" lon="11.7731129"><ele>1412.25</ele><time>2026-05-02T11:34:59.107Z</time></trkpt><trkpt lat="45.8915443" lon="11.7732503"><ele>1414.5</ele><time>2026-05-02T11:35:00.107Z</time></trkpt><trkpt lat="45.8916101" lon="11.773376"><ele>1416.75</ele><time>2026-05-02T11:35:01.106Z</time></trkpt><trkpt lat="45.8916996" lon="11.773484"><ele>1419.0</ele><time>2026-05-02T11:35:02.107Z</time></trkpt><trkpt lat="45.8918034" lon="11.7735741"><ele>1419.0</ele><time>2026-05-02T11:35:03.107Z</time></trkpt><trkpt lat="45.8919112" lon="11.7736532"><ele>1419.0</ele><time>2026-05-02T11:35:04.107Z</time></trkpt><trkpt lat="45.8920225" lon="11.7737342"><ele>1419.0</ele><time>2026-05-02T11:35:05.107Z</time></trkpt><trkpt lat="45.89214" lon="11.7738295"><ele>1419.0</ele><time>2026-05-02T11:35:06.106Z</time></trkpt><trkpt lat="45.8922608" lon="11.7739444"><ele>1419.0</ele><time>2026-05-02T11:35:07.106Z</time></trkpt><trkpt lat="45.8923808" lon="11.7740763"><ele>1419.0</ele><time>2026-05-02T11:35:08.107Z</time></trkpt><trkpt lat="45.8925014" lon="11.7742188"><ele>1419.0</ele><time>2026-05-02T11:35:09.106Z</time></trkpt><trkpt lat="45.8926248" lon="11.7743631"><ele>1415.3333333333333</ele><time>2026-05-02T11:35:10.107Z</time></trkpt><trkpt lat="45.892752" lon="11.7745075"><ele>1411.6666666666665</ele><time>2026-05-02T11:35:11.108Z</time></trkpt><trkpt lat="45.8928829" lon="11.774645"><ele>1408.0</ele><time>2026-05-02T11:35:12.107Z</time></trkpt><trkpt lat="45.8930175" lon="11.7747675"><ele>1408.0</ele><time>2026-05-02T11:35:13.107Z</time></trkpt><trkpt lat="45.8931522" lon="11.7748735"><ele>1408.0</ele><time>2026-05-02T11:35:14.107Z</time></trkpt><trkpt lat="45.8932844" lon="11.774972"><ele>1408.0</ele><time>2026-05-02T11:35:15.107Z</time></trkpt><trkpt lat="45.8934111" lon="11.7750694"><ele>1408.0</ele><time>2026-05-02T11:35:16.107Z</time></trkpt><trkpt lat="45.893535" lon="11.7751589"><ele>1403.75</ele><time>2026-05-02T11:35:17.108Z</time></trkpt><trkpt lat="45.8936631" lon="11.7752243"><ele>1399.5</ele><time>2026-05-02T11:35:18.107Z</time></trkpt><trkpt lat="45.8937869" lon="11.7752726"><ele>1395.25</ele><time>2026-05-02T11:35:19.108Z</time></trkpt><trkpt lat="45.8939079" lon="11.7753152"><ele>1391.0</ele><time>2026-05-02T11:35:20.108Z</time></trkpt><trkpt lat="45.8940218" lon="11.7753686"><ele>1391.0</ele><time>2026-05-02T11:35:21.108Z</time></trkpt><trkpt lat="45.8941319" lon="11.7754503"><ele>1391.0</ele><time>2026-05-02T11:35:22.107Z</time></trkpt><trkpt lat="45.8942349" lon="11.7755565"><ele>1391.0</ele><time>2026-05-02T11:35:23.108Z</time></trkpt><trkpt lat="45.894333" lon="11.7756751"><ele>1391.0</ele><time>2026-05-02T11:35:24.107Z</time></trkpt><trkpt lat="45.8944258" lon="11.7758008"><ele>1390.5</ele><time>2026-05-02T11:35:25.108Z</time></trkpt><trkpt lat="45.894511" lon="11.7759371"><ele>1390.0</ele><time>2026-05-02T11:35:26.107Z</time></trkpt><trkpt lat="45.8945904" lon="11.7760797"><ele>1389.5</ele><time>2026-05-02T11:35:27.107Z</time></trkpt><trkpt lat="45.8946706" lon="11.7762227"><ele>1389.0</ele><time>2026-05-02T11:35:28.108Z</time></trkpt><trkpt lat="45.8947514" lon="11.776362"><ele>1389.0</ele><time>2026-05-02T11:35:29.107Z</time></trkpt><trkpt lat="45.8948277" lon="11.7764999"><ele>1389.0</ele><time>2026-05-02T11:35:30.107Z</time></trkpt><trkpt lat="45.8948972" lon="11.7766365"><ele>1389.0</ele><time>2026-05-02T11:35:31.107Z</time></trkpt><trkpt lat="45.8949569" lon="11.7767726"><ele>1389.0</ele><time>2026-05-02T11:35:32.107Z</time></trkpt><trkpt lat="45.8949973" lon="11.7769114"><ele>1390.8000000000002</ele><time>2026-05-02T11:35:33.107Z</time></trkpt><trkpt lat="45.8950095" lon="11.7770556"><ele>1392.6000000000001</ele><time>2026-05-02T11:35:34.108Z</time></trkpt><trkpt lat="45.8949952" lon="11.7772041"><ele>1394.4</ele><time>2026-05-02T11:35:35.108Z</time></trkpt><trkpt lat="45.8949585" lon="11.7773571"><ele>1396.2</ele><time>2026-05-02T11:35:36.107Z</time></trkpt><trkpt lat="45.8949091" lon="11.7775196"><ele>1398.0</ele><time>2026-05-02T11:35:37.108Z</time></trkpt><trkpt lat="45.8948577" lon="11.7776966"><ele>1400.5</ele><time>2026-05-02T11:35:38.108Z</time></trkpt><trkpt lat="45.8948173" lon="11.7778905"><ele>1403.0</ele><time>2026-05-02T11:35:39.107Z</time></trkpt><trkpt lat="45.8947811" lon="11.7780829"><ele>1405.5</ele><time>2026-05-02T11:35:40.108Z</time></trkpt><trkpt lat="45.8947793" lon="11.7782946"><ele>1408.0</ele><time>2026-05-02T11:35:41.108Z</time></trkpt><trkpt lat="45.8947901" lon="11.7784906"><ele>1406.5</ele><time>2026-05-02T11:35:42.107Z</time></trkpt><trkpt lat="45.8948064" lon="11.7786744"><ele>1405.0</ele><time>2026-05-02T11:35:43.108Z</time></trkpt><trkpt lat="45.8948518" lon="11.7788564"><ele>1403.5</ele><time>2026-05-02T11:35:44.108Z</time></trkpt><trkpt lat="45.8949069" lon="11.7790401"><ele>1402.0</ele><time>2026-05-02T11:35:45.108Z</time></trkpt><trkpt lat="45.8949886" lon="11.7792153"><ele>1402.25</ele><time>2026-05-02T11:35:46.108Z</time></trkpt><trkpt lat="45.8950859" lon="11.7793773"><ele>1402.5</ele><time>2026-05-02T11:35:47.108Z</time></trkpt><trkpt lat="45.8951863" lon="11.7795309"><ele>1402.75</ele><time>2026-05-02T11:35:48.107Z</time></trkpt><trkpt lat="45.8952877" lon="11.7796599"><ele>1403.0</ele><time>2026-05-02T11:35:49.108Z</time></trkpt><trkpt lat="45.8953916" lon="11.7797651"><ele>1403.0</ele><time>2026-05-02T11:35:50.107Z</time></trkpt><trkpt lat="45.8955038" lon="11.7798494"><ele>1403.0</ele><time>2026-05-02T11:35:51.108Z</time></trkpt><trkpt lat="45.8956227" lon="11.7799194"><ele>1403.0</ele><time>2026-05-02T11:35:52.108Z</time></trkpt><trkpt lat="45.8957556" lon="11.7799401"><ele>1403.0</ele><time>2026-05-02T11:35:53.108Z</time></trkpt><trkpt lat="45.8958957" lon="11.7799229"><ele>1405.0</ele><time>2026-05-02T11:35:54.108Z</time></trkpt><trkpt lat="45.8960382" lon="11.7798772"><ele>1407.0</ele><time>2026-05-02T11:35:55.108Z</time></trkpt><trkpt lat="45.8961855" lon="11.7798344"><ele>1409.0</ele><time>2026-05-02T11:35:56.108Z</time></trkpt><trkpt lat="45.8963399" lon="11.779818"><ele>1409.0</ele><time>2026-05-02T11:35:57.107Z</time></trkpt><trkpt lat="45.8964953" lon="11.7798406"><ele>1409.0</ele><time>2026-05-02T11:35:58.107Z</time></trkpt><trkpt lat="45.8966513" lon="11.7798968"><ele>1409.0</ele><time>2026-05-02T11:35:59.108Z</time></trkpt><trkpt lat="45.896804" lon="11.7799733"><ele>1413.0</ele><time>2026-05-02T11:36:00.107Z</time></trkpt><trkpt lat="45.896947" lon="11.7800444"><ele>1417.0</ele><time>2026-05-02T11:36:01.107Z</time></trkpt><trkpt lat="45.8970907" lon="11.7801084"><ele>1421.0</ele><time>2026-05-02T11:36:02.109Z</time></trkpt><trkpt lat="45.8972327" lon="11.7801327"><ele>1425.0</ele><time>2026-05-02T11:36:03.107Z</time></trkpt><trkpt lat="45.8973791" lon="11.7801447"><ele>1425.0</ele><time>2026-05-02T11:36:04.108Z</time></trkpt><trkpt lat="45.8975332" lon="11.7801482"><ele>1425.0</ele><time>2026-05-02T11:36:05.108Z</time></trkpt><trkpt lat="45.8977055" lon="11.780117"><ele>1425.0</ele><time>2026-05-02T11:36:06.108Z</time></trkpt><trkpt lat="45.8978873" lon="11.7800756"><ele>1427.6666666666667</ele><time>2026-05-02T11:36:07.108Z</time></trkpt><trkpt lat="45.8980685" lon="11.7800533"><ele>1430.3333333333335</ele><time>2026-05-02T11:36:08.108Z</time></trkpt><trkpt lat="45.898245" lon="11.780062"><ele>1433.0</ele><time>2026-05-02T11:36:09.108Z</time></trkpt><trkpt lat="45.8984179" lon="11.7800856"><ele>1436.0</ele><time>2026-05-02T11:36:10.108Z</time></trkpt><trkpt lat="45.8985805" lon="11.7801583"><ele>1439.0</ele><time>2026-05-02T11:36:11.108Z</time></trkpt><trkpt lat="45.8987374" lon="11.7802706"><ele>1442.0</ele><time>2026-05-02T11:36:12.109Z</time></trkpt><trkpt lat="45.8988827" lon="11.7804154"><ele>1438.6666666666667</ele><time>2026-05-02T11:36:13.109Z</time></trkpt><trkpt lat="45.8990195" lon="11.7805406"><ele>1435.3333333333333</ele><time>2026-05-02T11:36:14.109Z</time></trkpt><trkpt lat="45.8991579" lon="11.7806334"><ele>1432.0</ele><time>2026-05-02T11:36:15.109Z</time></trkpt><trkpt lat="45.8993077" lon="11.780693"><ele>1432.0</ele><time>2026-05-02T11:36:16.108Z</time></trkpt><trkpt lat="45.8994696" lon="11.7807237"><ele>1432.0</ele><time>2026-05-02T11:36:17.108Z</time></trkpt><trkpt lat="45.8996397" lon="11.7807365"><ele>1432.0</ele><time>2026-05-02T11:36:18.109Z</time></trkpt><trkpt lat="45.8998146" lon="11.780749"><ele>1432.0</ele><time>2026-05-02T11:36:19.109Z</time></trkpt><trkpt lat="45.8999933" lon="11.780765"><ele>1432.0</ele><time>2026-05-02T11:36:20.108Z</time></trkpt><trkpt lat="45.9001729" lon="11.7807813"><ele>1432.0</ele><time>2026-05-02T11:36:21.108Z</time></trkpt><trkpt lat="45.900343" lon="11.7807941"><ele>1433.0</ele><time>2026-05-02T11:36:22.108Z</time></trkpt><trkpt lat="45.9004966" lon="11.7808029"><ele>1434.0</ele><time>2026-05-02T11:36:23.108Z</time></trkpt><trkpt lat="45.900635" lon="11.7808124"><ele>1435.0</ele><time>2026-05-02T11:36:24.109Z</time></trkpt><trkpt lat="45.9007648" lon="11.7808234"><ele>1436.0</ele><time>2026-05-02T11:36:25.109Z</time></trkpt><trkpt lat="45.9008914" lon="11.780834"><ele>1436.25</ele><time>2026-05-02T11:36:26.109Z</time></trkpt><trkpt lat="45.9010167" lon="11.7808446"><ele>1436.5</ele><time>2026-05-02T11:36:27.109Z</time></trkpt><trkpt lat="45.9011471" lon="11.7808536"><ele>1436.75</ele><time>2026-05-02T11:36:28.109Z</time></trkpt><trkpt lat="45.9012848" lon="11.7808663"><ele>1437.0</ele><time>2026-05-02T11:36:29.109Z</time></trkpt><trkpt lat="45.901418" lon="11.780889"><ele>1437.0</ele><time>2026-05-02T11:36:30.109Z</time></trkpt><trkpt lat="45.9015519" lon="11.7809424"><ele>1437.0</ele><time>2026-05-02T11:36:31.109Z</time></trkpt><trkpt lat="45.9016856" lon="11.7810133"><ele>1437.0</ele><time>2026-05-02T11:36:32.109Z</time></trkpt><trkpt lat="45.901842" lon="11.7810959"><ele>1437.0</ele><time>2026-05-02T11:36:33.108Z</time></trkpt><trkpt lat="45.9020199" lon="11.7811869"><ele>1437.6666666666667</ele><time>2026-05-02T11:36:34.109Z</time></trkpt><trkpt lat="45.9021925" lon="11.7812822"><ele>1438.3333333333335</ele><time>2026-05-02T11:36:35.108Z</time></trkpt><trkpt lat="45.9023402" lon="11.7813844"><ele>1439.0</ele><time>2026-05-02T11:36:36.108Z</time></trkpt><trkpt lat="45.9024869" lon="11.7814942"><ele>1443.3333333333335</ele><time>2026-05-02T11:36:37.109Z</time></trkpt><trkpt lat="45.9026181" lon="11.7816106"><ele>1447.6666666666667</ele><time>2026-05-02T11:36:38.108Z</time></trkpt><trkpt lat="45.9027492" lon="11.7817415"><ele>1452.0</ele><time>2026-05-02T11:36:39.109Z</time></trkpt><trkpt lat="45.9028563" lon="11.7819093"><ele>1452.0</ele><time>2026-05-02T11:36:40.109Z</time></trkpt><trkpt lat="45.9029545" lon="11.7821038"><ele>1452.0</ele><time>2026-05-02T11:36:41.108Z</time></trkpt><trkpt lat="45.9030458" lon="11.782311"><ele>1452.0</ele><time>2026-05-02T11:36:42.108Z</time></trkpt><trkpt lat="45.9031326" lon="11.7825113"><ele>1449.6666666666667</ele><time>2026-05-02T11:36:43.109Z</time></trkpt><trkpt lat="45.9032133" lon="11.7827013"><ele>1447.3333333333335</ele><time>2026-05-02T11:36:44.108Z</time></trkpt><trkpt lat="45.9032873" lon="11.7828922"><ele>1445.0</ele><time>2026-05-02T11:36:45.108Z</time></trkpt><trkpt lat="45.9033215" lon="11.7830998"><ele>1445.0</ele><time>2026-05-02T11:36:46.108Z</time></trkpt><trkpt lat="45.9033435" lon="11.7832928"><ele>1445.0</ele><time>2026-05-02T11:36:47.109Z</time></trkpt><trkpt lat="45.9033633" lon="11.7834594"><ele>1445.0</ele><time>2026-05-02T11:36:48.108Z</time></trkpt><trkpt lat="45.9033975" lon="11.7835969"><ele>1445.0</ele><time>2026-05-02T11:36:49.109Z</time></trkpt><trkpt lat="45.903436" lon="11.7837086"><ele>1445.0</ele><time>2026-05-02T11:36:50.109Z</time></trkpt><trkpt lat="45.9035213" lon="11.7837732"><ele>1445.0</ele><time>2026-05-02T11:36:51.109Z</time></trkpt><trkpt lat="45.9036163" lon="11.7838252"><ele>1445.0</ele><time>2026-05-02T11:36:52.108Z</time></trkpt><trkpt lat="45.9037315" lon="11.7838436"><ele>1445.0</ele><time>2026-05-02T11:36:53.108Z</time></trkpt><trkpt lat="45.9038346" lon="11.7838403"><ele>1445.0</ele><time>2026-05-02T11:36:54.108Z</time></trkpt><trkpt lat="45.9039116" lon="11.7837996"><ele>1445.0</ele><time>2026-05-02T11:36:55.108Z</time></trkpt><trkpt lat="45.9039822" lon="11.7837392"><ele>1445.0</ele><time>2026-05-02T11:36:56.109Z</time></trkpt><trkpt lat="45.9040195" lon="11.7836133"><ele>1445.0</ele><time>2026-05-02T11:36:57.108Z</time></trkpt><trkpt lat="45.9040442" lon="11.7834622"><ele>1445.0</ele><time>2026-05-02T11:36:58.108Z</time></trkpt><trkpt lat="45.9040662" lon="11.7833055"><ele>1445.0</ele><time>2026-05-02T11:36:59.109Z</time></trkpt><trkpt lat="45.9040897" lon="11.7831496"><ele>1445.0</ele><time>2026-05-02T11:37:00.108Z</time></trkpt><trkpt lat="45.9041257" lon="11.7829942"><ele>1443.0</ele><time>2026-05-02T11:37:01.109Z</time></trkpt><trkpt lat="45.9041936" lon="11.7828472"><ele>1441.0</ele><time>2026-05-02T11:37:02.11Z</time></trkpt><trkpt lat="45.9042761" lon="11.7827127"><ele>1439.0</ele><time>2026-05-02T11:37:03.11Z</time></trkpt><trkpt lat="45.9043567" lon="11.7825899"><ele>1437.0</ele><time>2026-05-02T11:37:04.109Z</time></trkpt><trkpt lat="45.9044449" lon="11.7824931"><ele>1442.25</ele><time>2026-05-02T11:37:05.109Z</time></trkpt><trkpt lat="45.9045526" lon="11.7824254"><ele>1447.5</ele><time>2026-05-02T11:37:06.11Z</time></trkpt><trkpt lat="45.9046851" lon="11.7824003"><ele>1452.75</ele><time>2026-05-02T11:37:07.109Z</time></trkpt><trkpt lat="45.9048164" lon="11.7823699"><ele>1458.0</ele><time>2026-05-02T11:37:08.11Z</time></trkpt><trkpt lat="45.9049281" lon="11.7822889"><ele>1458.0</ele><time>2026-05-02T11:37:09.109Z</time></trkpt><trkpt lat="45.9050376" lon="11.7821931"><ele>1458.0</ele><time>2026-05-02T11:37:10.109Z</time></trkpt><trkpt lat="45.9051444" lon="11.7820538"><ele>1458.0</ele><time>2026-05-02T11:37:11.11Z</time></trkpt><trkpt lat="45.9052561" lon="11.7819251"><ele>1458.0</ele><time>2026-05-02T11:37:12.109Z</time></trkpt><trkpt lat="45.9053722" lon="11.7818081"><ele>1458.25</ele><time>2026-05-02T11:37:13.11Z</time></trkpt><trkpt lat="45.9054929" lon="11.7816938"><ele>1458.5</ele><time>2026-05-02T11:37:14.11Z</time></trkpt><trkpt lat="45.9056115" lon="11.7815939"><ele>1458.75</ele><time>2026-05-02T11:37:15.11Z</time></trkpt><trkpt lat="45.9057239" lon="11.7815066"><ele>1459.0</ele><time>2026-05-02T11:37:16.11Z</time></trkpt><trkpt lat="45.9058394" lon="11.7814253"><ele>1456.0</ele><time>2026-05-02T11:37:17.109Z</time></trkpt><trkpt lat="45.9059702" lon="11.7813606"><ele>1453.0</ele><time>2026-05-02T11:37:18.11Z</time></trkpt><trkpt lat="45.906109" lon="11.7813088"><ele>1450.0</ele><time>2026-05-02T11:37:19.11Z</time></trkpt><trkpt lat="45.9062466" lon="11.7812708"><ele>1447.0</ele><time>2026-05-02T11:37:20.11Z</time></trkpt><trkpt lat="45.9063936" lon="11.781257"><ele>1447.0</ele><time>2026-05-02T11:37:21.11Z</time></trkpt><trkpt lat="45.9065441" lon="11.7812399"><ele>1447.0</ele><time>2026-05-02T11:37:22.109Z</time></trkpt><trkpt lat="45.9066989" lon="11.7812159"><ele>1447.0</ele><time>2026-05-02T11:37:23.11Z</time></trkpt><trkpt lat="45.9068515" lon="11.781185"><ele>1450.3333333333333</ele><time>2026-05-02T11:37:24.11Z</time></trkpt><trkpt lat="45.9069933" lon="11.7811298"><ele>1453.6666666666667</ele><time>2026-05-02T11:37:25.109Z</time></trkpt><trkpt lat="45.9071382" lon="11.7810668"><ele>1457.0</ele><time>2026-05-02T11:37:26.11Z</time></trkpt><trkpt lat="45.9072889" lon="11.7810152"><ele>1457.0</ele><time>2026-05-02T11:37:27.11Z</time></trkpt><trkpt lat="45.9074387" lon="11.780989"><ele>1457.0</ele><time>2026-05-02T11:37:28.11Z</time></trkpt><trkpt lat="45.9075857" lon="11.7809763"><ele>1457.0</ele><time>2026-05-02T11:37:29.109Z</time></trkpt><trkpt lat="45.907722" lon="11.7810195"><ele>1457.0</ele><time>2026-05-02T11:37:30.11Z</time></trkpt><trkpt lat="45.9078568" lon="11.7810904"><ele>1448.0</ele><time>2026-05-02T11:37:31.109Z</time></trkpt><trkpt lat="45.9079977" lon="11.7811748"><ele>1439.0</ele><time>2026-05-02T11:37:32.11Z</time></trkpt><trkpt lat="45.9081441" lon="11.7812441"><ele>1430.0</ele><time>2026-05-02T11:37:33.11Z</time></trkpt><trkpt lat="45.9082814" lon="11.781305"><ele>1430.0</ele><time>2026-05-02T11:37:34.109Z</time></trkpt><trkpt lat="45.9084017" lon="11.7813909"><ele>1430.0</ele><time>2026-05-02T11:37:35.11Z</time></trkpt><trkpt lat="45.9085151" lon="11.7815014"><ele>1430.0</ele><time>2026-05-02T11:37:36.11Z</time></trkpt><trkpt lat="45.9086048" lon="11.7816542"><ele>1430.0</ele><time>2026-05-02T11:37:37.11Z</time></trkpt><trkpt lat="45.9086816" lon="11.7818227"><ele>1426.3333333333335</ele><time>2026-05-02T11:37:38.11Z</time></trkpt><trkpt lat="45.9087768" lon="11.7820248"><ele>1422.6666666666667</ele><time>2026-05-02T11:37:39.11Z</time></trkpt><trkpt lat="45.9088807" lon="11.7822181"><ele>1419.0</ele><time>2026-05-02T11:37:40.109Z</time></trkpt><trkpt lat="45.9089877" lon="11.7823969"><ele>1419.0</ele><time>2026-05-02T11:37:41.11Z</time></trkpt><trkpt lat="45.9090949" lon="11.7825648"><ele>1419.0</ele><time>2026-05-02T11:37:42.11Z</time></trkpt><trkpt lat="45.9092028" lon="11.7827326"><ele>1419.0</ele><time>2026-05-02T11:37:43.109Z</time></trkpt><trkpt lat="45.9093007" lon="11.7828976"><ele>1415.25</ele><time>2026-05-02T11:37:44.109Z</time></trkpt><trkpt lat="45.9093887" lon="11.7830579"><ele>1411.5</ele><time>2026-05-02T11:37:45.11Z</time></trkpt><trkpt lat="45.9094524" lon="11.7832272"><ele>1407.75</ele><time>2026-05-02T11:37:46.109Z</time></trkpt><trkpt lat="45.9095067" lon="11.7833874"><ele>1404.0</ele><time>2026-05-02T11:37:47.109Z</time></trkpt><trkpt lat="45.9095619" lon="11.7835336"><ele>1401.0</ele><time>2026-05-02T11:37:48.11Z</time></trkpt><trkpt lat="45.9096322" lon="11.7836624"><ele>1398.0</ele><time>2026-05-02T11:37:49.109Z</time></trkpt><trkpt lat="45.9097215" lon="11.7837601"><ele>1395.0</ele><time>2026-05-02T11:37:50.11Z</time></trkpt><trkpt lat="45.9098301" lon="11.7838227"><ele>1392.0</ele><time>2026-05-02T11:37:51.11Z</time></trkpt><trkpt lat="45.9099531" lon="11.7838492"><ele>1390.25</ele><time>2026-05-02T11:37:52.109Z</time></trkpt><trkpt lat="45.91008" lon="11.7838722"><ele>1388.5</ele><time>2026-05-02T11:37:53.11Z</time></trkpt><trkpt lat="45.9102083" lon="11.7839249"><ele>1386.75</ele><time>2026-05-02T11:37:54.109Z</time></trkpt><trkpt lat="45.9103311" lon="11.7840248"><ele>1385.0</ele><time>2026-05-02T11:37:55.111Z</time></trkpt><trkpt lat="45.9104428" lon="11.7841772"><ele>1383.6666666666667</ele><time>2026-05-02T11:37:56.11Z</time></trkpt><trkpt lat="45.910554" lon="11.7843658"><ele>1382.3333333333333</ele><time>2026-05-02T11:37:57.11Z</time></trkpt><trkpt lat="45.910678" lon="11.7845702"><ele>1381.0</ele><time>2026-05-02T11:37:58.111Z</time></trkpt><trkpt lat="45.9108157" lon="11.7847799"><ele>1380.3333333333333</ele><time>2026-05-02T11:37:59.11Z</time></trkpt><trkpt lat="45.9109637" lon="11.7849899"><ele>1379.6666666666667</ele><time>2026-05-02T11:38:00.11Z</time></trkpt><trkpt lat="45.9111169" lon="11.7851975"><ele>1379.0</ele><time>2026-05-02T11:38:01.11Z</time></trkpt><trkpt lat="45.9112712" lon="11.7854043"><ele>1380.6666666666667</ele><time>2026-05-02T11:38:02.11Z</time></trkpt><trkpt lat="45.9114333" lon="11.785606"><ele>1382.3333333333333</ele><time>2026-05-02T11:38:03.11Z</time></trkpt><trkpt lat="45.9116048" lon="11.7857928"><ele>1384.0</ele><time>2026-05-02T11:38:04.11Z</time></trkpt><trkpt lat="45.911782" lon="11.7859647"><ele>1387.6666666666665</ele><time>2026-05-02T11:38:05.111Z</time></trkpt><trkpt lat="45.9119596" lon="11.7861255"><ele>1391.3333333333333</ele><time>2026-05-02T11:38:06.111Z</time></trkpt><trkpt lat="45.9121335" lon="11.7862776"><ele>1395.0</ele><time>2026-05-02T11:38:07.11Z</time></trkpt><trkpt lat="45.9122959" lon="11.7864167"><ele>1395.0</ele><time>2026-05-02T11:38:08.111Z</time></trkpt><trkpt lat="45.9124423" lon="11.7865453"><ele>1395.0</ele><time>2026-05-02T11:38:09.111Z</time></trkpt><trkpt lat="45.9125779" lon="11.7866729"><ele>1395.0</ele><time>2026-05-02T11:38:10.11Z</time></trkpt><trkpt lat="45.9127163" lon="11.7868036"><ele>1397.3333333333333</ele><time>2026-05-02T11:38:11.11Z</time></trkpt><trkpt lat="45.9128696" lon="11.7869539"><ele>1399.6666666666665</ele><time>2026-05-02T11:38:12.11Z</time></trkpt><trkpt lat="45.9129934" lon="11.7871016"><ele>1402.0</ele><time>2026-05-02T11:38:13.11Z</time></trkpt><trkpt lat="45.913116" lon="11.7872539"><ele>1402.0</ele><time>2026-05-02T11:38:14.11Z</time></trkpt><trkpt lat="45.9132411" lon="11.787413"><ele>1402.0</ele><time>2026-05-02T11:38:15.11Z</time></trkpt><trkpt lat="45.9133676" lon="11.7875581"><ele>1402.0</ele><time>2026-05-02T11:38:16.11Z</time></trkpt><trkpt lat="45.913511" lon="11.7876583"><ele>1405.6666666666665</ele><time>2026-05-02T11:38:17.111Z</time></trkpt><trkpt lat="45.9136533" lon="11.787764"><ele>1409.3333333333333</ele><time>2026-05-02T11:38:18.11Z</time></trkpt><trkpt lat="45.9137901" lon="11.7878697"><ele>1413.0</ele><time>2026-05-02T11:38:19.11Z</time></trkpt><trkpt lat="45.9139249" lon="11.7879826"><ele>1413.0</ele><time>2026-05-02T11:38:20.111Z</time></trkpt><trkpt lat="45.9140514" lon="11.7880981"><ele>1413.0</ele><time>2026-05-02T11:38:21.11Z</time></trkpt><trkpt lat="45.914148" lon="11.7882286"><ele>1413.0</ele><time>2026-05-02T11:38:22.11Z</time></trkpt><trkpt lat="45.9142485" lon="11.7883822"><ele>1413.0</ele><time>2026-05-02T11:38:23.111Z</time></trkpt><trkpt lat="45.9143429" lon="11.7885374"><ele>1410.6666666666667</ele><time>2026-05-02T11:38:24.11Z</time></trkpt><trkpt lat="45.914441" lon="11.7887006"><ele>1408.3333333333335</ele><time>2026-05-02T11:38:25.111Z</time></trkpt><trkpt lat="45.9145307" lon="11.7888755"><ele>1406.0</ele><time>2026-05-02T11:38:26.111Z</time></trkpt><trkpt lat="45.9146102" lon="11.7890587"><ele>1406.0</ele><time>2026-05-02T11:38:27.11Z</time></trkpt><trkpt lat="45.9146949" lon="11.7891976"><ele>1406.0</ele><time>2026-05-02T11:38:28.111Z</time></trkpt><trkpt lat="45.9147905" lon="11.789303"><ele>1406.0</ele><time>2026-05-02T11:38:29.11Z</time></trkpt><trkpt lat="45.9148983" lon="11.7893862"><ele>1406.0</ele><time>2026-05-02T11:38:30.11Z</time></trkpt><trkpt lat="45.9150298" lon="11.7894293"><ele>1408.75</ele><time>2026-05-02T11:38:31.111Z</time></trkpt><trkpt lat="45.9151615" lon="11.7894537"><ele>1411.5</ele><time>2026-05-02T11:38:32.111Z</time></trkpt><trkpt lat="45.9152817" lon="11.7894662"><ele>1414.25</ele><time>2026-05-02T11:38:33.111Z</time></trkpt><trkpt lat="45.9153883" lon="11.7895086"><ele>1417.0</ele><time>2026-05-02T11:38:34.111Z</time></trkpt><trkpt lat="45.9154722" lon="11.7895995"><ele>1417.0</ele><time>2026-05-02T11:38:35.11Z</time></trkpt><trkpt lat="45.9155343" lon="11.7897152"><ele>1417.0</ele><time>2026-05-02T11:38:36.111Z</time></trkpt><trkpt lat="45.9156074" lon="11.7898391"><ele>1417.0</ele><time>2026-05-02T11:38:37.11Z</time></trkpt><trkpt lat="45.9156886" lon="11.789966"><ele>1417.0</ele><time>2026-05-02T11:38:38.111Z</time></trkpt><trkpt lat="45.9157861" lon="11.7900654"><ele>1417.0</ele><time>2026-05-02T11:38:39.11Z</time></trkpt><trkpt lat="45.9158942" lon="11.7901262"><ele>1417.0</ele><time>2026-05-02T11:38:40.11Z</time></trkpt><trkpt lat="45.9160113" lon="11.790173"><ele>1417.0</ele><time>2026-05-02T11:38:41.111Z</time></trkpt><trkpt lat="45.9161348" lon="11.7902012"><ele>1417.0</ele><time>2026-05-02T11:38:42.111Z</time></trkpt><trkpt lat="45.9162583" lon="11.7901985"><ele>1415.25</ele><time>2026-05-02T11:38:43.11Z</time></trkpt><trkpt lat="45.9163899" lon="11.7902008"><ele>1413.5</ele><time>2026-05-02T11:38:44.11Z</time></trkpt><trkpt lat="45.9165332" lon="11.7901864"><ele>1411.75</ele><time>2026-05-02T11:38:45.11Z</time></trkpt><trkpt lat="45.9166995" lon="11.7901739"><ele>1410.0</ele><time>2026-05-02T11:38:46.11Z</time></trkpt><trkpt lat="45.9168669" lon="11.7901425"><ele>1410.0</ele><time>2026-05-02T11:38:47.111Z</time></trkpt><trkpt lat="45.9170276" lon="11.7900926"><ele>1410.0</ele><time>2026-05-02T11:38:48.111Z</time></trkpt><trkpt lat="45.9171773" lon="11.7900619"><ele>1410.0</ele><time>2026-05-02T11:38:49.11Z</time></trkpt><trkpt lat="45.9173301" lon="11.7900518"><ele>1410.0</ele><time>2026-05-02T11:38:50.111Z</time></trkpt><trkpt lat="45.9174661" lon="11.790042"><ele>1410.0</ele><time>2026-05-02T11:38:51.11Z</time></trkpt><trkpt lat="45.9176063" lon="11.7900715"><ele>1410.0</ele><time>2026-05-02T11:38:52.111Z</time></trkpt><trkpt lat="45.9177553" lon="11.790102"><ele>1410.0</ele><time>2026-05-02T11:38:53.112Z</time></trkpt><trkpt lat="45.9179086" lon="11.7901326"><ele>1408.6666666666667</ele><time>2026-05-02T11:38:54.111Z</time></trkpt><trkpt lat="45.9180705" lon="11.7901512"><ele>1407.3333333333335</ele><time>2026-05-02T11:38:55.112Z</time></trkpt><trkpt lat="45.9182319" lon="11.7901677"><ele>1406.0</ele><time>2026-05-02T11:38:56.112Z</time></trkpt><trkpt lat="45.9183815" lon="11.7901791"><ele>1408.3333333333335</ele><time>2026-05-02T11:38:57.111Z</time></trkpt><trkpt lat="45.9185217" lon="11.7901835"><ele>1410.6666666666667</ele><time>2026-05-02T11:38:58.112Z</time></trkpt><trkpt lat="45.9186678" lon="11.790192"><ele>1413.0</ele><time>2026-05-02T11:38:59.112Z</time></trkpt><trkpt lat="45.9188382" lon="11.7902014"><ele>1413.0</ele><time>2026-05-02T11:39:00.111Z</time></trkpt><trkpt lat="45.9190038" lon="11.7902154"><ele>1413.0</ele><time>2026-05-02T11:39:01.112Z</time></trkpt><trkpt lat="45.9191626" lon="11.7902075"><ele>1413.0</ele><time>2026-05-02T11:39:02.112Z</time></trkpt><trkpt lat="45.9193297" lon="11.7902122"><ele>1407.0</ele><time>2026-05-02T11:39:03.112Z</time></trkpt><trkpt lat="45.9194915" lon="11.7902197"><ele>1401.0</ele><time>2026-05-02T11:39:04.112Z</time></trkpt><trkpt lat="45.9196448" lon="11.7902238"><ele>1395.0</ele><time>2026-05-02T11:39:05.112Z</time></trkpt><trkpt lat="45.9197897" lon="11.7902308"><ele>1395.0</ele><time>2026-05-02T11:39:06.112Z</time></trkpt><trkpt lat="45.9199225" lon="11.7902276"><ele>1395.0</ele><time>2026-05-02T11:39:07.112Z</time></trkpt><trkpt lat="45.9200506" lon="11.7901941"><ele>1395.0</ele><time>2026-05-02T11:39:08.111Z</time></trkpt><trkpt lat="45.9201775" lon="11.7901225"><ele>1395.0</ele><time>2026-05-02T11:39:09.112Z</time></trkpt><trkpt lat="45.9203072" lon="11.7900245"><ele>1392.5</ele><time>2026-05-02T11:39:10.112Z</time></trkpt><trkpt lat="45.9204399" lon="11.7899242"><ele>1390.0</ele><time>2026-05-02T11:39:11.111Z</time></trkpt><trkpt lat="45.9205662" lon="11.7898313"><ele>1387.5</ele><time>2026-05-02T11:39:12.112Z</time></trkpt><trkpt lat="45.9206754" lon="11.7897567"><ele>1385.0</ele><time>2026-05-02T11:39:13.111Z</time></trkpt><trkpt lat="45.9207817" lon="11.7896923"><ele>1385.0</ele><time>2026-05-02T11:39:14.112Z</time></trkpt><trkpt lat="45.9208743" lon="11.789627"><ele>1385.0</ele><time>2026-05-02T11:39:15.111Z</time></trkpt><trkpt lat="45.9209662" lon="11.7895496"><ele>1385.0</ele><time>2026-05-02T11:39:16.111Z</time></trkpt><trkpt lat="45.9210623" lon="11.789465"><ele>1385.0</ele><time>2026-05-02T11:39:17.111Z</time></trkpt><trkpt lat="45.9211515" lon="11.7893465"><ele>1385.0</ele><time>2026-05-02T11:39:18.112Z</time></trkpt><trkpt lat="45.9212297" lon="11.7892283"><ele>1383.5</ele><time>2026-05-02T11:39:19.112Z</time></trkpt><trkpt lat="45.9213192" lon="11.7891223"><ele>1382.0</ele><time>2026-05-02T11:39:20.112Z</time></trkpt><trkpt lat="45.9214127" lon="11.7890363"><ele>1380.5</ele><time>2026-05-02T11:39:21.111Z</time></trkpt><trkpt lat="45.9215279" lon="11.7889646"><ele>1379.0</ele><time>2026-05-02T11:39:22.111Z</time></trkpt><trkpt lat="45.9216475" lon="11.7889129"><ele>1379.0</ele><time>2026-05-02T11:39:23.112Z</time></trkpt><trkpt lat="45.9217675" lon="11.7888818"><ele>1379.0</ele><time>2026-05-02T11:39:24.112Z</time></trkpt><trkpt lat="45.9218874" lon="11.7888702"><ele>1379.0</ele><time>2026-05-02T11:39:25.112Z</time></trkpt><trkpt lat="45.9220131" lon="11.788892"><ele>1379.0</ele><time>2026-05-02T11:39:26.111Z</time></trkpt><trkpt lat="45.922145" lon="11.7889273"><ele>1379.0</ele><time>2026-05-02T11:39:27.112Z</time></trkpt><trkpt lat="45.9222825" lon="11.7889546"><ele>1379.0</ele><time>2026-05-02T11:39:28.112Z</time></trkpt><trkpt lat="45.9224199" lon="11.7889825"><ele>1379.0</ele><time>2026-05-02T11:39:29.111Z</time></trkpt><trkpt lat="45.9225517" lon="11.7889903"><ele>1379.0</ele><time>2026-05-02T11:39:30.112Z</time></trkpt><trkpt lat="45.9226825" lon="11.7889772"><ele>1375.75</ele><time>2026-05-02T11:39:31.111Z</time></trkpt><trkpt lat="45.9228089" lon="11.7889468"><ele>1372.5</ele><time>2026-05-02T11:39:32.111Z</time></trkpt><trkpt lat="45.922937" lon="11.78889"><ele>1369.25</ele><time>2026-05-02T11:39:33.112Z</time></trkpt><trkpt lat="45.9230656" lon="11.7887714"><ele>1366.0</ele><time>2026-05-02T11:39:34.112Z</time></trkpt><trkpt lat="45.9231992" lon="11.7886431"><ele>1366.0</ele><time>2026-05-02T11:39:35.112Z</time></trkpt><trkpt lat="45.9233353" lon="11.7885184"><ele>1366.0</ele><time>2026-05-02T11:39:36.112Z</time></trkpt><trkpt lat="45.9234745" lon="11.7883965"><ele>1366.0</ele><time>2026-05-02T11:39:37.111Z</time></trkpt><trkpt lat="45.9236158" lon="11.788277"><ele>1368.6666666666665</ele><time>2026-05-02T11:39:38.111Z</time></trkpt><trkpt lat="45.9237621" lon="11.7881739"><ele>1371.3333333333333</ele><time>2026-05-02T11:39:39.111Z</time></trkpt><trkpt lat="45.9239072" lon="11.788085"><ele>1374.0</ele><time>2026-05-02T11:39:40.112Z</time></trkpt><trkpt lat="45.9240662" lon="11.7880376"><ele>1374.0</ele><time>2026-05-02T11:39:41.112Z</time></trkpt><trkpt lat="45.9242221" lon="11.7879962"><ele>1374.0</ele><time>2026-05-02T11:39:42.112Z</time></trkpt><trkpt lat="45.9243819" lon="11.787948"><ele>1374.0</ele><time>2026-05-02T11:39:43.112Z</time></trkpt><trkpt lat="45.9245366" lon="11.7878951"><ele>1372.25</ele><time>2026-05-02T11:39:44.112Z</time></trkpt><trkpt lat="45.9246809" lon="11.7878475"><ele>1370.5</ele><time>2026-05-02T11:39:45.112Z</time></trkpt><trkpt lat="45.9248172" lon="11.7878099"><ele>1368.75</ele><time>2026-05-02T11:39:46.113Z</time></trkpt><trkpt lat="45.9249657" lon="11.7878079"><ele>1367.0</ele><time>2026-05-02T11:39:47.113Z</time></trkpt><trkpt lat="45.9251283" lon="11.7878374"><ele>1366.6666666666667</ele><time>2026-05-02T11:39:48.112Z</time></trkpt><trkpt lat="45.9252985" lon="11.7878586"><ele>1366.3333333333333</ele><time>2026-05-02T11:39:49.112Z</time></trkpt><trkpt lat="45.9254765" lon="11.7878721"><ele>1366.0</ele><time>2026-05-02T11:39:50.112Z</time></trkpt><trkpt lat="45.9256565" lon="11.7878484"><ele>1366.0</ele><time>2026-05-02T11:39:51.113Z</time></trkpt><trkpt lat="45.9258366" lon="11.7877958"><ele>1366.0</ele><time>2026-05-02T11:39:52.113Z</time></trkpt><trkpt lat="45.9260191" lon="11.7877335"><ele>1366.0</ele><time>2026-05-02T11:39:53.112Z</time></trkpt><trkpt lat="45.9262014" lon="11.78767"><ele>1366.6666666666665</ele><time>2026-05-02T11:39:54.113Z</time></trkpt><trkpt lat="45.9263871" lon="11.7876089"><ele>1367.3333333333333</ele><time>2026-05-02T11:39:55.113Z</time></trkpt><trkpt lat="45.9265699" lon="11.7875458"><ele>1368.0</ele><time>2026-05-02T11:39:56.112Z</time></trkpt><trkpt lat="45.9267414" lon="11.7874818"><ele>1368.6666666666667</ele><time>2026-05-02T11:39:57.112Z</time></trkpt><trkpt lat="45.9269039" lon="11.7874337"><ele>1369.3333333333335</ele><time>2026-05-02T11:39:58.112Z</time></trkpt><trkpt lat="45.9270626" lon="11.7874306"><ele>1370.0</ele><time>2026-05-02T11:39:59.113Z</time></trkpt><trkpt lat="45.9272261" lon="11.7874658"><ele>1370.0</ele><time>2026-05-02T11:40:00.113Z</time></trkpt><trkpt lat="45.9273912" lon="11.7875042"><ele>1370.0</ele><time>2026-05-02T11:40:01.112Z</time></trkpt><trkpt lat="45.9275461" lon="11.7875286"><ele>1370.0</ele><time>2026-05-02T11:40:02.113Z</time></trkpt><trkpt lat="45.927689" lon="11.7875523"><ele>1368.5</ele><time>2026-05-02T11:40:03.113Z</time></trkpt><trkpt lat="45.9278163" lon="11.7876002"><ele>1367.0</ele><time>2026-05-02T11:40:04.113Z</time></trkpt><trkpt lat="45.9279218" lon="11.7876887"><ele>1365.5</ele><time>2026-05-02T11:40:05.113Z</time></trkpt><trkpt lat="45.9280051" lon="11.7877998"><ele>1364.0</ele><time>2026-05-02T11:40:06.112Z</time></trkpt><trkpt lat="45.9280858" lon="11.787893"><ele>1365.2</ele><time>2026-05-02T11:40:07.113Z</time></trkpt><trkpt lat="45.9281771" lon="11.787945"><ele>1366.4</ele><time>2026-05-02T11:40:08.113Z</time></trkpt><trkpt lat="45.9282741" lon="11.787937"><ele>1367.6</ele><time>2026-05-02T11:40:09.112Z</time></trkpt><trkpt lat="45.9283694" lon="11.7878698"><ele>1368.8</ele><time>2026-05-02T11:40:10.113Z</time></trkpt><trkpt lat="45.9284669" lon="11.7877721"><ele>1370.0</ele><time>2026-05-02T11:40:11.113Z</time></trkpt><trkpt lat="45.9285711" lon="11.7876655"><ele>1370.0</ele><time>2026-05-02T11:40:12.113Z</time></trkpt><trkpt lat="45.9286767" lon="11.7875541"><ele>1370.0</ele><time>2026-05-02T11:40:13.112Z</time></trkpt><trkpt lat="45.9287804" lon="11.7874432"><ele>1370.0</ele><time>2026-05-02T11:40:14.113Z</time></trkpt><trkpt lat="45.9288793" lon="11.7873407"><ele>1370.0</ele><time>2026-05-02T11:40:15.112Z</time></trkpt><trkpt lat="45.928972" lon="11.787243"><ele>1370.0</ele><time>2026-05-02T11:40:16.112Z</time></trkpt><trkpt lat="45.9290637" lon="11.7871508"><ele>1370.0</ele><time>2026-05-02T11:40:17.112Z</time></trkpt><trkpt lat="45.9291567" lon="11.7870647"><ele>1370.0</ele><time>2026-05-02T11:40:18.112Z</time></trkpt><trkpt lat="45.9292577" lon="11.7869919"><ele>1370.0</ele><time>2026-05-02T11:40:19.113Z</time></trkpt><trkpt lat="45.9293698" lon="11.7869353"><ele>1369.75</ele><time>2026-05-02T11:40:20.113Z</time></trkpt><trkpt lat="45.92949" lon="11.7868917"><ele>1369.5</ele><time>2026-05-02T11:40:21.112Z</time></trkpt><trkpt lat="45.9296139" lon="11.7868492"><ele>1369.25</ele><time>2026-05-02T11:40:22.113Z</time></trkpt><trkpt lat="45.9297386" lon="11.7867933"><ele>1369.0</ele><time>2026-05-02T11:40:23.113Z</time></trkpt><trkpt lat="45.9298581" lon="11.7867169"><ele>1365.5</ele><time>2026-05-02T11:40:24.112Z</time></trkpt><trkpt lat="45.9299703" lon="11.7866307"><ele>1362.0</ele><time>2026-05-02T11:40:25.113Z</time></trkpt><trkpt lat="45.9300789" lon="11.7865453"><ele>1358.5</ele><time>2026-05-02T11:40:26.112Z</time></trkpt><trkpt lat="45.9301839" lon="11.7864604"><ele>1355.0</ele><time>2026-05-02T11:40:27.112Z</time></trkpt><trkpt lat="45.9302852" lon="11.7863758"><ele>1353.4</ele><time>2026-05-02T11:40:28.112Z</time></trkpt><trkpt lat="45.9303852" lon="11.7862972"><ele>1351.8</ele><time>2026-05-02T11:40:29.113Z</time></trkpt><trkpt lat="45.9304817" lon="11.7862303"><ele>1350.1999999999998</ele><time>2026-05-02T11:40:30.112Z</time></trkpt><trkpt lat="45.9305701" lon="11.7861732"><ele>1348.6</ele><time>2026-05-02T11:40:31.113Z</time></trkpt><trkpt lat="45.9306427" lon="11.7861214"><ele>1347.0</ele><time>2026-05-02T11:40:32.113Z</time></trkpt><trkpt lat="45.9307167" lon="11.7860014"><ele>1344.0</ele><time>2026-05-02T11:40:34.113Z</time></trkpt><trkpt lat="45.9306283" lon="11.7859057"><ele>1341.0</ele><time>2026-05-02T11:40:36.112Z</time></trkpt><trkpt lat="45.9305245" lon="11.7859089"><ele>1338.0</ele><time>2026-05-02T11:40:38.113Z</time></trkpt><trkpt lat="45.9304342" lon="11.7859304"><ele>1335.0</ele><time>2026-05-02T11:40:40.114Z</time></trkpt><trkpt lat="45.9303501" lon="11.7859455"><ele>1332.0</ele><time>2026-05-02T11:40:42.113Z</time></trkpt><trkpt lat="45.9302707" lon="11.7858747"><ele>1332.0</ele><time>2026-05-02T11:40:44.113Z</time></trkpt><trkpt lat="45.9303432" lon="11.785755"><ele>1332.0</ele><time>2026-05-02T11:40:46.114Z</time></trkpt><trkpt lat="45.930427" lon="11.7857207"><ele>1332.0</ele><time>2026-05-02T11:40:47.113Z</time></trkpt><trkpt lat="45.9305251" lon="11.7856828"><ele>1332.0</ele><time>2026-05-02T11:40:48.113Z</time></trkpt><trkpt lat="45.9306375" lon="11.7856396"><ele>1332.0</ele><time>2026-05-02T11:40:49.113Z</time></trkpt><trkpt lat="45.9307539" lon="11.7855924"><ele>1332.0</ele><time>2026-05-02T11:40:50.114Z</time></trkpt><trkpt lat="45.9308677" lon="11.7855456"><ele>1332.0</ele><time>2026-05-02T11:40:51.114Z</time></trkpt><trkpt lat="45.9309743" lon="11.7855006"><ele>1332.0</ele><time>2026-05-02T11:40:52.113Z</time></trkpt><trkpt lat="45.9310733" lon="11.7854703"><ele>1332.0</ele><time>2026-05-02T11:40:53.114Z</time></trkpt><trkpt lat="45.9311627" lon="11.7854723"><ele>1332.0</ele><time>2026-05-02T11:40:54.113Z</time></trkpt><trkpt lat="45.9312464" lon="11.785511"><ele>1330.8333333333333</ele><time>2026-05-02T11:40:55.114Z</time></trkpt><trkpt lat="45.9313248" lon="11.7855826"><ele>1329.6666666666667</ele><time>2026-05-02T11:40:56.114Z</time></trkpt><trkpt lat="45.9314005" lon="11.7856714"><ele>1328.5</ele><time>2026-05-02T11:40:57.114Z</time></trkpt><trkpt lat="45.9314718" lon="11.7857487"><ele>1327.3333333333335</ele><time>2026-05-02T11:40:58.113Z</time></trkpt><trkpt lat="45.9315451" lon="11.785788"><ele>1326.1666666666667</ele><time>2026-05-02T11:40:59.114Z</time></trkpt><trkpt lat="45.9316201" lon="11.7857776"><ele>1325.0</ele><time>2026-05-02T11:41:00.113Z</time></trkpt><trkpt lat="45.9316964" lon="11.7857167"><ele>1322.0</ele><time>2026-05-02T11:41:01.114Z</time></trkpt><trkpt lat="45.9317664" lon="11.7856058"><ele>1319.0</ele><time>2026-05-02T11:41:02.113Z</time></trkpt><trkpt lat="45.9318352" lon="11.785464"><ele>1316.0</ele><time>2026-05-02T11:41:03.113Z</time></trkpt><trkpt lat="45.9319165" lon="11.785315"><ele>1313.0</ele><time>2026-05-02T11:41:04.114Z</time></trkpt><trkpt lat="45.9320015" lon="11.7851667"><ele>1313.0</ele><time>2026-05-02T11:41:05.114Z</time></trkpt><trkpt lat="45.9321132" lon="11.7850266"><ele>1313.0</ele><time>2026-05-02T11:41:06.114Z</time></trkpt><trkpt lat="45.9322273" lon="11.7848948"><ele>1313.0</ele><time>2026-05-02T11:41:07.113Z</time></trkpt><trkpt lat="45.9323438" lon="11.784774"><ele>1313.0</ele><time>2026-05-02T11:41:08.113Z</time></trkpt><trkpt lat="45.9324643" lon="11.7846673"><ele>1305.3333333333335</ele><time>2026-05-02T11:41:09.113Z</time></trkpt><trkpt lat="45.9325878" lon="11.7845663"><ele>1297.6666666666667</ele><time>2026-05-02T11:41:10.114Z</time></trkpt><trkpt lat="45.9327329" lon="11.7844719"><ele>1290.0</ele><time>2026-05-02T11:41:11.114Z</time></trkpt><trkpt lat="45.9328816" lon="11.7843853"><ele>1291.3333333333333</ele><time>2026-05-02T11:41:12.114Z</time></trkpt><trkpt lat="45.9330404" lon="11.7842974"><ele>1292.6666666666665</ele><time>2026-05-02T11:41:13.114Z</time></trkpt><trkpt lat="45.9331908" lon="11.7841975"><ele>1294.0</ele><time>2026-05-02T11:41:14.113Z</time></trkpt><trkpt lat="45.9333282" lon="11.7840791"><ele>1292.0</ele><time>2026-05-02T11:41:15.114Z</time></trkpt><trkpt lat="45.933455" lon="11.7839375"><ele>1290.0</ele><time>2026-05-02T11:41:16.113Z</time></trkpt><trkpt lat="45.9335718" lon="11.7837808"><ele>1288.0</ele><time>2026-05-02T11:41:17.114Z</time></trkpt><trkpt lat="45.9336851" lon="11.7836228"><ele>1288.0</ele><time>2026-05-02T11:41:18.113Z</time></trkpt><trkpt lat="45.9338005" lon="11.7834705"><ele>1288.0</ele><time>2026-05-02T11:41:19.113Z</time></trkpt><trkpt lat="45.9339267" lon="11.7833322"><ele>1288.0</ele><time>2026-05-02T11:41:20.113Z</time></trkpt><trkpt lat="45.9340606" lon="11.7832065"><ele>1288.0</ele><time>2026-05-02T11:41:21.114Z</time></trkpt><trkpt lat="45.9341952" lon="11.783083"><ele>1288.0</ele><time>2026-05-02T11:41:22.113Z</time></trkpt><trkpt lat="45.9343275" lon="11.7829617"><ele>1288.0</ele><time>2026-05-02T11:41:23.114Z</time></trkpt><trkpt lat="45.9344571" lon="11.7828438"><ele>1288.75</ele><time>2026-05-02T11:41:24.115Z</time></trkpt><trkpt lat="45.9345851" lon="11.7827311"><ele>1289.5</ele><time>2026-05-02T11:41:25.113Z</time></trkpt><trkpt lat="45.9347088" lon="11.7826145"><ele>1290.25</ele><time>2026-05-02T11:41:26.114Z</time></trkpt><trkpt lat="45.9348215" lon="11.7824772"><ele>1291.0</ele><time>2026-05-02T11:41:27.113Z</time></trkpt><trkpt lat="45.9349153" lon="11.7823115"><ele>1291.0</ele><time>2026-05-02T11:41:28.114Z</time></trkpt><trkpt lat="45.9349921" lon="11.7821277"><ele>1291.0</ele><time>2026-05-02T11:41:29.113Z</time></trkpt><trkpt lat="45.935061" lon="11.7819521"><ele>1291.0</ele><time>2026-05-02T11:41:30.113Z</time></trkpt><trkpt lat="45.9351247" lon="11.7817905"><ele>1291.0</ele><time>2026-05-02T11:41:31.113Z</time></trkpt><trkpt lat="45.9351795" lon="11.7816438"><ele>1289.6666666666665</ele><time>2026-05-02T11:41:32.114Z</time></trkpt><trkpt lat="45.9352196" lon="11.7815178"><ele>1288.3333333333333</ele><time>2026-05-02T11:41:33.114Z</time></trkpt><trkpt lat="45.9352562" lon="11.7814155"><ele>1287.0</ele><time>2026-05-02T11:41:34.114Z</time></trkpt><trkpt lat="45.9353057" lon="11.7813451"><ele>1285.6666666666667</ele><time>2026-05-02T11:41:35.114Z</time></trkpt><trkpt lat="45.9353709" lon="11.7813262"><ele>1284.3333333333335</ele><time>2026-05-02T11:41:36.115Z</time></trkpt><trkpt lat="45.935447" lon="11.7813711"><ele>1283.0</ele><time>2026-05-02T11:41:37.115Z</time></trkpt><trkpt lat="45.9355334" lon="11.7814594"><ele>1283.0</ele><time>2026-05-02T11:41:38.114Z</time></trkpt><trkpt lat="45.9356364" lon="11.7815639"><ele>1283.0</ele><time>2026-05-02T11:41:39.115Z</time></trkpt><trkpt lat="45.9357536" lon="11.7816661"><ele>1283.0</ele><time>2026-05-02T11:41:40.114Z</time></trkpt><trkpt lat="45.9358736" lon="11.7817443"><ele>1283.0</ele><time>2026-05-02T11:41:41.114Z</time></trkpt><trkpt lat="45.9359932" lon="11.7817918"><ele>1281.2</ele><time>2026-05-02T11:41:42.115Z</time></trkpt><trkpt lat="45.9361045" lon="11.7818291"><ele>1279.4</ele><time>2026-05-02T11:41:43.114Z</time></trkpt><trkpt lat="45.9362013" lon="11.7818601"><ele>1277.6000000000001</ele><time>2026-05-02T11:41:44.115Z</time></trkpt><trkpt lat="45.936286" lon="11.7818625"><ele>1275.8000000000002</ele><time>2026-05-02T11:41:45.114Z</time></trkpt><trkpt lat="45.9363542" lon="11.7818138"><ele>1274.0</ele><time>2026-05-02T11:41:46.114Z</time></trkpt><trkpt lat="45.9363963" lon="11.781716"><ele>1273.8</ele><time>2026-05-02T11:41:47.115Z</time></trkpt><trkpt lat="45.9364193" lon="11.7815805"><ele>1273.6000000000001</ele><time>2026-05-02T11:41:48.115Z</time></trkpt><trkpt lat="45.9364394" lon="11.7814282"><ele>1273.4</ele><time>2026-05-02T11:41:49.114Z</time></trkpt><trkpt lat="45.9364573" lon="11.7812791"><ele>1273.2</ele><time>2026-05-02T11:41:50.114Z</time></trkpt><trkpt lat="45.9364581" lon="11.7811339"><ele>1273.0</ele><time>2026-05-02T11:41:51.115Z</time></trkpt><trkpt lat="45.9364411" lon="11.781006"><ele>1273.0</ele><time>2026-05-02T11:41:52.115Z</time></trkpt><trkpt lat="45.9364352" lon="11.7808934"><ele>1273.0</ele><time>2026-05-02T11:41:53.114Z</time></trkpt><trkpt lat="45.9364636" lon="11.7808056"><ele>1273.0</ele><time>2026-05-02T11:41:54.114Z</time></trkpt><trkpt lat="45.9365697" lon="11.7808025"><ele>1273.0</ele><time>2026-05-02T11:41:56.115Z</time></trkpt><trkpt lat="45.9366057" lon="11.7808983"><ele>1273.0</ele><time>2026-05-02T11:41:57.115Z</time></trkpt><trkpt lat="45.9366374" lon="11.7810347"><ele>1273.0</ele><time>2026-05-02T11:41:58.114Z</time></trkpt><trkpt lat="45.9366837" lon="11.7811965"><ele>1269.0</ele><time>2026-05-02T11:41:59.114Z</time></trkpt><trkpt lat="45.9367426" lon="11.7813625"><ele>1265.0</ele><time>2026-05-02T11:42:00.115Z</time></trkpt><trkpt lat="45.9368057" lon="11.7815143"><ele>1261.0</ele><time>2026-05-02T11:42:01.115Z</time></trkpt><trkpt lat="45.9368647" lon="11.7816455"><ele>1257.0</ele><time>2026-05-02T11:42:02.115Z</time></trkpt><trkpt lat="45.9369252" lon="11.7817463"><ele>1257.0000000000002</ele><time>2026-05-02T11:42:03.114Z</time></trkpt><trkpt lat="45.9369965" lon="11.7817973"><ele>1257.0</ele><time>2026-05-02T11:42:04.114Z</time></trkpt><trkpt lat="45.9370692" lon="11.781786"><ele>1257.0</ele><time>2026-05-02T11:42:05.114Z</time></trkpt><trkpt lat="45.9371348" lon="11.7817503"><ele>1257.0</ele><time>2026-05-02T11:42:06.114Z</time></trkpt><trkpt lat="45.9371616" lon="11.7816575"><ele>1257.0</ele><time>2026-05-02T11:42:07.114Z</time></trkpt><trkpt lat="45.9371634" lon="11.7815578"><ele>1257.0000000000002</ele><time>2026-05-02T11:42:08.114Z</time></trkpt><trkpt lat="45.9371471" lon="11.7814647"><ele>1257.0</ele><time>2026-05-02T11:42:09.115Z</time></trkpt><trkpt lat="45.9371256" lon="11.7813754"><ele>1257.0</ele><time>2026-05-02T11:42:10.115Z</time></trkpt><trkpt lat="45.9371258" lon="11.7812133"><ele>1257.0</ele><time>2026-05-02T11:42:12.114Z</time></trkpt><trkpt lat="45.9372375" lon="11.781115"><ele>1257.0</ele><time>2026-05-02T11:42:14.114Z</time></trkpt><trkpt lat="45.9373258" lon="11.7811167"><ele>1257.0</ele><time>2026-05-02T11:42:15.114Z</time></trkpt><trkpt lat="45.9374203" lon="11.7811356"><ele>1257.0</ele><time>2026-05-02T11:42:16.114Z</time></trkpt><trkpt lat="45.9375167" lon="11.7812109"><ele>1251.0</ele><time>2026-05-02T11:42:17.114Z</time></trkpt><trkpt lat="45.9375927" lon="11.7813322"><ele>1245.0</ele><time>2026-05-02T11:42:18.114Z</time></trkpt><trkpt lat="45.9376251" lon="11.7814783"><ele>1239.0</ele><time>2026-05-02T11:42:19.114Z</time></trkpt><trkpt lat="45.9376239" lon="11.7816225"><ele>1233.0</ele><time>2026-05-02T11:42:20.114Z</time></trkpt><trkpt lat="45.937599" lon="11.7817633"><ele>1227.0</ele><time>2026-05-02T11:42:21.114Z</time></trkpt><trkpt lat="45.9375611" lon="11.7819001"><ele>1233.0</ele><time>2026-05-02T11:42:22.114Z</time></trkpt><trkpt lat="45.9374834" lon="11.7820086"><ele>1239.0</ele><time>2026-05-02T11:42:23.114Z</time></trkpt><trkpt lat="45.9374283" lon="11.7821363"><ele>1245.0</ele><time>2026-05-02T11:42:24.114Z</time></trkpt><trkpt lat="45.9374122" lon="11.7822897"><ele>1251.0</ele><time>2026-05-02T11:42:25.115Z</time></trkpt><trkpt lat="45.9374221" lon="11.7824434"><ele>1257.0</ele><time>2026-05-02T11:42:26.115Z</time></trkpt><trkpt lat="45.937444" lon="11.7826098"><ele>1257.0</ele><time>2026-05-02T11:42:27.114Z</time></trkpt><trkpt lat="45.9374892" lon="11.7827739"><ele>1257.0</ele><time>2026-05-02T11:42:28.114Z</time></trkpt><trkpt lat="45.9375678" lon="11.7829207"><ele>1257.0</ele><time>2026-05-02T11:42:29.116Z</time></trkpt><trkpt lat="45.9376519" lon="11.7830611"><ele>1257.0</ele><time>2026-05-02T11:42:30.116Z</time></trkpt><trkpt lat="45.9377163" lon="11.7832193"><ele>1247.5</ele><time>2026-05-02T11:42:31.116Z</time></trkpt><trkpt lat="45.9377658" lon="11.7834089"><ele>1238.0</ele><time>2026-05-02T11:42:32.115Z</time></trkpt><trkpt lat="45.9378056" lon="11.7836164"><ele>1228.5</ele><time>2026-05-02T11:42:33.116Z</time></trkpt><trkpt lat="45.9378388" lon="11.7838337"><ele>1219.0</ele><time>2026-05-02T11:42:34.115Z</time></trkpt><trkpt lat="45.9378712" lon="11.7840528"><ele>1219.0</ele><time>2026-05-02T11:42:35.116Z</time></trkpt><trkpt lat="45.9379062" lon="11.7842656"><ele>1219.0</ele><time>2026-05-02T11:42:36.116Z</time></trkpt><trkpt lat="45.9379496" lon="11.7844651"><ele>1219.0</ele><time>2026-05-02T11:42:37.116Z</time></trkpt><trkpt lat="45.9380095" lon="11.7846465"><ele>1219.0</ele><time>2026-05-02T11:42:38.116Z</time></trkpt><trkpt lat="45.9380845" lon="11.7848021"><ele>1219.6000000000001</ele><time>2026-05-02T11:42:39.115Z</time></trkpt><trkpt lat="45.9381687" lon="11.7849306"><ele>1220.2</ele><time>2026-05-02T11:42:40.115Z</time></trkpt><trkpt lat="45.9382503" lon="11.7850406"><ele>1220.8000000000002</ele><time>2026-05-02T11:42:41.116Z</time></trkpt><trkpt lat="45.9383186" lon="11.7851498"><ele>1221.4</ele><time>2026-05-02T11:42:42.115Z</time></trkpt><trkpt lat="45.938372" lon="11.7852671"><ele>1222.0</ele><time>2026-05-02T11:42:43.116Z</time></trkpt><trkpt lat="45.9384215" lon="11.7853914"><ele>1217.0</ele><time>2026-05-02T11:42:44.116Z</time></trkpt><trkpt lat="45.9384761" lon="11.7855198"><ele>1212.0</ele><time>2026-05-02T11:42:45.115Z</time></trkpt><trkpt lat="45.9385361" lon="11.7856548"><ele>1207.0</ele><time>2026-05-02T11:42:46.115Z</time></trkpt><trkpt lat="45.9385968" lon="11.7858002"><ele>1202.0</ele><time>2026-05-02T11:42:47.115Z</time></trkpt><trkpt lat="45.9386525" lon="11.7859539"><ele>1203.5</ele><time>2026-05-02T11:42:48.115Z</time></trkpt><trkpt lat="45.9387055" lon="11.7861022"><ele>1205.0</ele><time>2026-05-02T11:42:49.116Z</time></trkpt><trkpt lat="45.938766" lon="11.7862428"><ele>1206.5</ele><time>2026-05-02T11:42:50.116Z</time></trkpt><trkpt lat="45.9388385" lon="11.7863776"><ele>1208.0</ele><time>2026-05-02T11:42:51.116Z</time></trkpt><trkpt lat="45.9389131" lon="11.7865087"><ele>1208.0</ele><time>2026-05-02T11:42:52.116Z</time></trkpt><trkpt lat="45.9389877" lon="11.7866336"><ele>1208.0</ele><time>2026-05-02T11:42:53.116Z</time></trkpt><trkpt lat="45.9390598" lon="11.7867675"><ele>1208.0</ele><time>2026-05-02T11:42:54.116Z</time></trkpt><trkpt lat="45.939132" lon="11.786906"><ele>1208.0</ele><time>2026-05-02T11:42:55.115Z</time></trkpt><trkpt lat="45.9392062" lon="11.7870591"><ele>1205.0</ele><time>2026-05-02T11:42:56.116Z</time></trkpt><trkpt lat="45.9393001" lon="11.7872155"><ele>1202.0</ele><time>2026-05-02T11:42:57.116Z</time></trkpt><trkpt lat="45.9394043" lon="11.7873565"><ele>1199.0</ele><time>2026-05-02T11:42:58.115Z</time></trkpt><trkpt lat="45.9395382" lon="11.7874701"><ele>1196.0</ele><time>2026-05-02T11:42:59.115Z</time></trkpt><trkpt lat="45.9396736" lon="11.7875889"><ele>1198.6666666666667</ele><time>2026-05-02T11:43:00.116Z</time></trkpt><trkpt lat="45.9397974" lon="11.7877358"><ele>1201.3333333333333</ele><time>2026-05-02T11:43:01.115Z</time></trkpt><trkpt lat="45.939914" lon="11.7879004"><ele>1204.0</ele><time>2026-05-02T11:43:02.116Z</time></trkpt><trkpt lat="45.9400426" lon="11.7880493"><ele>1197.3333333333333</ele><time>2026-05-02T11:43:03.116Z</time></trkpt><trkpt lat="45.9401813" lon="11.7881719"><ele>1190.6666666666667</ele><time>2026-05-02T11:43:04.116Z</time></trkpt><trkpt lat="45.9403185" lon="11.7882839"><ele>1184.0</ele><time>2026-05-02T11:43:05.116Z</time></trkpt><trkpt lat="45.9404474" lon="11.7884065"><ele>1185.6666666666667</ele><time>2026-05-02T11:43:06.115Z</time></trkpt><trkpt lat="45.9405681" lon="11.7885495"><ele>1187.3333333333333</ele><time>2026-05-02T11:43:07.116Z</time></trkpt><trkpt lat="45.9406836" lon="11.7886996"><ele>1189.0</ele><time>2026-05-02T11:43:08.116Z</time></trkpt><trkpt lat="45.9407901" lon="11.7888483"><ele>1186.5</ele><time>2026-05-02T11:43:09.115Z</time></trkpt><trkpt lat="45.9408895" lon="11.7889922"><ele>1184.0</ele><time>2026-05-02T11:43:10.116Z</time></trkpt><trkpt lat="45.9409825" lon="11.7891275"><ele>1181.5</ele><time>2026-05-02T11:43:11.116Z</time></trkpt><trkpt lat="45.9410729" lon="11.7892591"><ele>1179.0</ele><time>2026-05-02T11:43:12.116Z</time></trkpt><trkpt lat="45.9411557" lon="11.7893955"><ele>1179.0</ele><time>2026-05-02T11:43:13.116Z</time></trkpt><trkpt lat="45.9412255" lon="11.7895462"><ele>1179.0</ele><time>2026-05-02T11:43:14.115Z</time></trkpt><trkpt lat="45.9412786" lon="11.7897127"><ele>1179.0</ele><time>2026-05-02T11:43:15.115Z</time></trkpt><trkpt lat="45.9413228" lon="11.7898758"><ele>1179.0</ele><time>2026-05-02T11:43:16.116Z</time></trkpt><trkpt lat="45.9413588" lon="11.7900355"><ele>1183.75</ele><time>2026-05-02T11:43:17.116Z</time></trkpt><trkpt lat="45.9414057" lon="11.790176"><ele>1188.5</ele><time>2026-05-02T11:43:18.116Z</time></trkpt><trkpt lat="45.94149" lon="11.7903069"><ele>1193.25</ele><time>2026-05-02T11:43:19.116Z</time></trkpt><trkpt lat="45.9415971" lon="11.7904523"><ele>1198.0</ele><time>2026-05-02T11:43:20.116Z</time></trkpt><trkpt lat="45.9416937" lon="11.790616"><ele>1195.25</ele><time>2026-05-02T11:43:21.115Z</time></trkpt><trkpt lat="45.9417847" lon="11.7907731"><ele>1192.5</ele><time>2026-05-02T11:43:22.115Z</time></trkpt><trkpt lat="45.9418834" lon="11.7908966"><ele>1189.75</ele><time>2026-05-02T11:43:23.115Z</time></trkpt><trkpt lat="45.9419932" lon="11.7909984"><ele>1187.0</ele><time>2026-05-02T11:43:24.117Z</time></trkpt><trkpt lat="45.942114" lon="11.7910952"><ele>1187.0</ele><time>2026-05-02T11:43:25.116Z</time></trkpt><trkpt lat="45.9422215" lon="11.7911902"><ele>1187.0</ele><time>2026-05-02T11:43:26.117Z</time></trkpt><trkpt lat="45.9423011" lon="11.7913026"><ele>1187.0</ele><time>2026-05-02T11:43:27.116Z</time></trkpt><trkpt lat="45.9423798" lon="11.7914265"><ele>1187.0</ele><time>2026-05-02T11:43:28.117Z</time></trkpt><trkpt lat="45.9424499" lon="11.7915473"><ele>1187.0</ele><time>2026-05-02T11:43:29.116Z</time></trkpt><trkpt lat="45.9425101" lon="11.7916772"><ele>1187.0</ele><time>2026-05-02T11:43:30.117Z</time></trkpt><trkpt lat="45.9425628" lon="11.7918216"><ele>1187.0</ele><time>2026-05-02T11:43:31.117Z</time></trkpt><trkpt lat="45.942615" lon="11.7919592"><ele>1187.0</ele><time>2026-05-02T11:43:32.117Z</time></trkpt><trkpt lat="45.9426656" lon="11.7920885"><ele>1187.0</ele><time>2026-05-02T11:43:33.117Z</time></trkpt><trkpt lat="45.9427133" lon="11.7922084"><ele>1186.0</ele><time>2026-05-02T11:43:34.116Z</time></trkpt><trkpt lat="45.9427646" lon="11.7923309"><ele>1185.0</ele><time>2026-05-02T11:43:35.116Z</time></trkpt><trkpt lat="45.9428272" lon="11.7924599"><ele>1184.0</ele><time>2026-05-02T11:43:36.117Z</time></trkpt><trkpt lat="45.9429066" lon="11.7925808"><ele>1183.0</ele><time>2026-05-02T11:43:37.116Z</time></trkpt><trkpt lat="45.9429829" lon="11.7926959"><ele>1182.0</ele><time>2026-05-02T11:43:38.116Z</time></trkpt><trkpt lat="45.9430757" lon="11.7927962"><ele>1182.0</ele><time>2026-05-02T11:43:39.117Z</time></trkpt><trkpt lat="45.943162" lon="11.7928867"><ele>1182.0</ele><time>2026-05-02T11:43:40.117Z</time></trkpt><trkpt lat="45.9432508" lon="11.7929714"><ele>1182.0</ele><time>2026-05-02T11:43:41.117Z</time></trkpt><trkpt lat="45.943345" lon="11.7930286"><ele>1182.0</ele><time>2026-05-02T11:43:42.116Z</time></trkpt><trkpt lat="45.9434551" lon="11.7930847"><ele>1182.0</ele><time>2026-05-02T11:43:43.117Z</time></trkpt><trkpt lat="45.9435727" lon="11.7931351"><ele>1176.0</ele><time>2026-05-02T11:43:44.117Z</time></trkpt><trkpt lat="45.9436944" lon="11.7931899"><ele>1170.0</ele><time>2026-05-02T11:43:45.116Z</time></trkpt><trkpt lat="45.9438171" lon="11.7932403"><ele>1164.0</ele><time>2026-05-02T11:43:46.117Z</time></trkpt><trkpt lat="45.943954" lon="11.7932963"><ele>1158.0</ele><time>2026-05-02T11:43:47.116Z</time></trkpt><trkpt lat="45.9440833" lon="11.7933598"><ele>1157.25</ele><time>2026-05-02T11:43:48.117Z</time></trkpt><trkpt lat="45.9442139" lon="11.7934297"><ele>1156.5</ele><time>2026-05-02T11:43:49.116Z</time></trkpt><trkpt lat="45.9443406" lon="11.7935125"><ele>1155.75</ele><time>2026-05-02T11:43:50.117Z</time></trkpt><trkpt lat="45.9444553" lon="11.793602"><ele>1155.0</ele><time>2026-05-02T11:43:51.117Z</time></trkpt><trkpt lat="45.9445644" lon="11.7936956"><ele>1155.0</ele><time>2026-05-02T11:43:52.117Z</time></trkpt><trkpt lat="45.944654" lon="11.7937877"><ele>1155.0</ele><time>2026-05-02T11:43:53.117Z</time></trkpt><trkpt lat="45.9447188" lon="11.793904"><ele>1155.0</ele><time>2026-05-02T11:43:54.116Z</time></trkpt><trkpt lat="45.9447756" lon="11.7940076"><ele>1155.0</ele><time>2026-05-02T11:43:55.116Z</time></trkpt><trkpt lat="45.9448703" lon="11.7940856"><ele>1155.0</ele><time>2026-05-02T11:43:56.116Z</time></trkpt><trkpt lat="45.9449636" lon="11.7941713"><ele>1155.25</ele><time>2026-05-02T11:43:57.116Z</time></trkpt><trkpt lat="45.9450678" lon="11.7942312"><ele>1155.5</ele><time>2026-05-02T11:43:58.116Z</time></trkpt><trkpt lat="45.9451864" lon="11.7942897"><ele>1155.75</ele><time>2026-05-02T11:43:59.116Z</time></trkpt><trkpt lat="45.9453474" lon="11.7943456"><ele>1156.0</ele><time>2026-05-02T11:44:00.116Z</time></trkpt><trkpt lat="45.945513" lon="11.794396"><ele>1156.0</ele><time>2026-05-02T11:44:01.117Z</time></trkpt><trkpt lat="45.9456819" lon="11.7944267"><ele>1156.0</ele><time>2026-05-02T11:44:02.117Z</time></trkpt><trkpt lat="45.945849" lon="11.7944376"><ele>1156.0</ele><time>2026-05-02T11:44:03.117Z</time></trkpt><trkpt lat="45.9460269" lon="11.7944532"><ele>1151.0</ele><time>2026-05-02T11:44:04.117Z</time></trkpt><trkpt lat="45.9462141" lon="11.7945085"><ele>1146.0</ele><time>2026-05-02T11:44:05.117Z</time></trkpt><trkpt lat="45.9463972" lon="11.7945686"><ele>1141.0</ele><time>2026-05-02T11:44:06.116Z</time></trkpt><trkpt lat="45.9465749" lon="11.7946187"><ele>1136.0</ele><time>2026-05-02T11:44:07.117Z</time></trkpt><trkpt lat="45.9467441" lon="11.7946538"><ele>1131.0</ele><time>2026-05-02T11:44:08.116Z</time></trkpt><trkpt lat="45.9469056" lon="11.7946993"><ele>1126.0</ele><time>2026-05-02T11:44:09.117Z</time></trkpt><trkpt lat="45.9470548" lon="11.7947549"><ele>1126.0</ele><time>2026-05-02T11:44:10.116Z</time></trkpt><trkpt lat="45.9471816" lon="11.7948138"><ele>1126.0</ele><time>2026-05-02T11:44:11.117Z</time></trkpt><trkpt lat="45.9473073" lon="11.7948901"><ele>1126.0</ele><time>2026-05-02T11:44:12.116Z</time></trkpt><trkpt lat="45.9474039" lon="11.795005"><ele>1126.0</ele><time>2026-05-02T11:44:13.117Z</time></trkpt><trkpt lat="45.9475157" lon="11.7951081"><ele>1126.25</ele><time>2026-05-02T11:44:14.116Z</time></trkpt><trkpt lat="45.9476385" lon="11.7951682"><ele>1126.5</ele><time>2026-05-02T11:44:15.116Z</time></trkpt><trkpt lat="45.9477609" lon="11.7951957"><ele>1126.75</ele><time>2026-05-02T11:44:16.116Z</time></trkpt><trkpt lat="45.9478795" lon="11.7952169"><ele>1127.0</ele><time>2026-05-02T11:44:17.116Z</time></trkpt><trkpt lat="45.9479955" lon="11.7952399"><ele>1127.0</ele><time>2026-05-02T11:44:18.116Z</time></trkpt><trkpt lat="45.9481164" lon="11.7952762"><ele>1127.0</ele><time>2026-05-02T11:44:19.116Z</time></trkpt><trkpt lat="45.9482481" lon="11.7953384"><ele>1127.0</ele><time>2026-05-02T11:44:20.118Z</time></trkpt><trkpt lat="45.9483828" lon="11.7954355"><ele>1127.0</ele><time>2026-05-02T11:44:21.117Z</time></trkpt><trkpt lat="45.9485155" lon="11.7955517"><ele>1120.5</ele><time>2026-05-02T11:44:22.118Z</time></trkpt><trkpt lat="45.9486439" lon="11.7956562"><ele>1114.0</ele><time>2026-05-02T11:44:23.118Z</time></trkpt><trkpt lat="45.9487737" lon="11.7957335"><ele>1107.5</ele><time>2026-05-02T11:44:24.118Z</time></trkpt><trkpt lat="45.9488977" lon="11.795802"><ele>1101.0</ele><time>2026-05-02T11:44:25.117Z</time></trkpt><trkpt lat="45.949011" lon="11.7958819"><ele>1101.0</ele><time>2026-05-02T11:44:26.117Z</time></trkpt><trkpt lat="45.9491218" lon="11.7959665"><ele>1101.0</ele><time>2026-05-02T11:44:27.118Z</time></trkpt><trkpt lat="45.9492283" lon="11.7960544"><ele>1101.0</ele><time>2026-05-02T11:44:28.118Z</time></trkpt><trkpt lat="45.9493397" lon="11.7960979"><ele>1101.0</ele><time>2026-05-02T11:44:29.117Z</time></trkpt><trkpt lat="45.9494462" lon="11.7961298"><ele>1099.5</ele><time>2026-05-02T11:44:30.117Z</time></trkpt><trkpt lat="45.9495535" lon="11.7961833"><ele>1098.0</ele><time>2026-05-02T11:44:31.117Z</time></trkpt><trkpt lat="45.9496556" lon="11.7962683"><ele>1096.5</ele><time>2026-05-02T11:44:32.117Z</time></trkpt><trkpt lat="45.9497686" lon="11.7963479"><ele>1095.0</ele><time>2026-05-02T11:44:33.117Z</time></trkpt><trkpt lat="45.9498827" lon="11.7964128"><ele>1095.0</ele><time>2026-05-02T11:44:34.118Z</time></trkpt><trkpt lat="45.9500076" lon="11.7964411"><ele>1095.0</ele><time>2026-05-02T11:44:35.118Z</time></trkpt><trkpt lat="45.9501413" lon="11.7964628"><ele>1095.0</ele><time>2026-05-02T11:44:36.118Z</time></trkpt><trkpt lat="45.9502767" lon="11.7964743"><ele>1095.0</ele><time>2026-05-02T11:44:37.118Z</time></trkpt><trkpt lat="45.9504214" lon="11.7964736"><ele>1095.0</ele><time>2026-05-02T11:44:38.117Z</time></trkpt><trkpt lat="45.9505684" lon="11.7965052"><ele>1095.0</ele><time>2026-05-02T11:44:39.117Z</time></trkpt><trkpt lat="45.9507054" lon="11.7965311"><ele>1095.0</ele><time>2026-05-02T11:44:40.117Z</time></trkpt><trkpt lat="45.9508475" lon="11.7965296"><ele>1095.0</ele><time>2026-05-02T11:44:41.118Z</time></trkpt><trkpt lat="45.950969" lon="11.7965057"><ele>1093.25</ele><time>2026-05-02T11:44:42.118Z</time></trkpt><trkpt lat="45.9510828" lon="11.7964993"><ele>1091.5</ele><time>2026-05-02T11:44:43.118Z</time></trkpt><trkpt lat="45.9511946" lon="11.7964987"><ele>1089.75</ele><time>2026-05-02T11:44:44.118Z</time></trkpt><trkpt lat="45.9513045" lon="11.7965411"><ele>1088.0</ele><time>2026-05-02T11:44:45.118Z</time></trkpt><trkpt lat="45.9514018" lon="11.796642"><ele>1088.0</ele><time>2026-05-02T11:44:46.117Z</time></trkpt><trkpt lat="45.9514927" lon="11.7967619"><ele>1088.0</ele><time>2026-05-02T11:44:47.117Z</time></trkpt><trkpt lat="45.951587" lon="11.7968778"><ele>1088.0</ele><time>2026-05-02T11:44:48.117Z</time></trkpt><trkpt lat="45.9516907" lon="11.7969724"><ele>1088.0</ele><time>2026-05-02T11:44:49.118Z</time></trkpt><trkpt lat="45.9517929" lon="11.7970511"><ele>1091.8</ele><time>2026-05-02T11:44:50.118Z</time></trkpt><trkpt lat="45.9519151" lon="11.7970915"><ele>1095.6</ele><time>2026-05-02T11:44:51.118Z</time></trkpt><trkpt lat="45.9520306" lon="11.7971324"><ele>1099.4</ele><time>2026-05-02T11:44:52.117Z</time></trkpt><trkpt lat="45.952119" lon="11.7971699"><ele>1103.2</ele><time>2026-05-02T11:44:53.118Z</time></trkpt><trkpt lat="45.9521811" lon="11.7972071"><ele>1107.0</ele><time>2026-05-02T11:44:54.117Z</time></trkpt><trkpt lat="45.9523029" lon="11.7972948"><ele>1107.0</ele><time>2026-05-02T11:44:56.118Z</time></trkpt><trkpt lat="45.9523737" lon="11.7973392"><ele>1107.0</ele><time>2026-05-02T11:44:57.117Z</time></trkpt><trkpt lat="45.952475" lon="11.7973766"><ele>1107.0</ele><time>2026-05-02T11:44:58.117Z</time></trkpt><trkpt lat="45.9526041" lon="11.7974134"><ele>1107.0</ele><time>2026-05-02T11:44:59.117Z</time></trkpt><trkpt lat="45.9527249" lon="11.7974623"><ele>1107.0</ele><time>2026-05-02T11:45:00.117Z</time></trkpt><trkpt lat="45.9528515" lon="11.7975109"><ele>1105.6</ele><time>2026-05-02T11:45:01.118Z</time></trkpt><trkpt lat="45.9529599" lon="11.7975411"><ele>1104.2</ele><time>2026-05-02T11:45:02.118Z</time></trkpt><trkpt lat="45.9530626" lon="11.7975533"><ele>1102.8</ele><time>2026-05-02T11:45:03.118Z</time></trkpt><trkpt lat="45.9531591" lon="11.797513"><ele>1101.4</ele><time>2026-05-02T11:45:04.117Z</time></trkpt><trkpt lat="45.9532608" lon="11.7974657"><ele>1100.0</ele><time>2026-05-02T11:45:05.117Z</time></trkpt><trkpt lat="45.9533651" lon="11.7974104"><ele>1099.75</ele><time>2026-05-02T11:45:06.118Z</time></trkpt><trkpt lat="45.9534658" lon="11.7973679"><ele>1099.5</ele><time>2026-05-02T11:45:07.117Z</time></trkpt><trkpt lat="45.953584" lon="11.7973594"><ele>1099.25</ele><time>2026-05-02T11:45:08.118Z</time></trkpt><trkpt lat="45.9537156" lon="11.7974"><ele>1099.0</ele><time>2026-05-02T11:45:09.117Z</time></trkpt><trkpt lat="45.9538492" lon="11.797446"><ele>1099.0</ele><time>2026-05-02T11:45:10.118Z</time></trkpt><trkpt lat="45.9539779" lon="11.797487"><ele>1099.0</ele><time>2026-05-02T11:45:11.118Z</time></trkpt><trkpt lat="45.9540953" lon="11.7975239"><ele>1099.0</ele><time>2026-05-02T11:45:12.117Z</time></trkpt><trkpt lat="45.9541946" lon="11.7975565"><ele>1099.0</ele><time>2026-05-02T11:45:13.117Z</time></trkpt><trkpt lat="45.9543049" lon="11.7975959"><ele>1097.25</ele><time>2026-05-02T11:45:14.117Z</time></trkpt><trkpt lat="45.9544155" lon="11.7976353"><ele>1095.5</ele><time>2026-05-02T11:45:15.118Z</time></trkpt><trkpt lat="45.9545392" lon="11.7976979"><ele>1093.75</ele><time>2026-05-02T11:45:16.119Z</time></trkpt><trkpt lat="45.954666" lon="11.7977621"><ele>1092.0</ele><time>2026-05-02T11:45:17.119Z</time></trkpt><trkpt lat="45.9548059" lon="11.7978254"><ele>1103.5</ele><time>2026-05-02T11:45:18.119Z</time></trkpt><trkpt lat="45.9549419" lon="11.7978792"><ele>1115.0</ele><time>2026-05-02T11:45:19.118Z</time></trkpt><trkpt lat="45.9550689" lon="11.7978954"><ele>1126.5</ele><time>2026-05-02T11:45:20.118Z</time></trkpt><trkpt lat="45.9551783" lon="11.7978719"><ele>1138.0</ele><time>2026-05-02T11:45:21.119Z</time></trkpt><trkpt lat="45.9552824" lon="11.7977796"><ele>1138.75</ele><time>2026-05-02T11:45:22.118Z</time></trkpt><trkpt lat="45.9553893" lon="11.7976894"><ele>1139.5</ele><time>2026-05-02T11:45:23.119Z</time></trkpt><trkpt lat="45.9554955" lon="11.7976166"><ele>1140.25</ele><time>2026-05-02T11:45:24.119Z</time></trkpt><trkpt lat="45.9556321" lon="11.7975859"><ele>1141.0</ele><time>2026-05-02T11:45:25.119Z</time></trkpt><trkpt lat="45.9557621" lon="11.7975451"><ele>1133.8</ele><time>2026-05-02T11:45:26.118Z</time></trkpt><trkpt lat="45.9558778" lon="11.7974994"><ele>1126.6</ele><time>2026-05-02T11:45:27.118Z</time></trkpt><trkpt lat="45.9559861" lon="11.797448"><ele>1119.4</ele><time>2026-05-02T11:45:28.119Z</time></trkpt><trkpt lat="45.9560816" lon="11.7974241"><ele>1112.2</ele><time>2026-05-02T11:45:29.118Z</time></trkpt><trkpt lat="45.9561827" lon="11.7974229"><ele>1105.0</ele><time>2026-05-02T11:45:30.118Z</time></trkpt><trkpt lat="45.9562842" lon="11.7974661"><ele>1105.0</ele><time>2026-05-02T11:45:31.119Z</time></trkpt><trkpt lat="45.9563756" lon="11.7975121"><ele>1105.0</ele><time>2026-05-02T11:45:32.118Z</time></trkpt><trkpt lat="45.9564733" lon="11.7975384"><ele>1105.0</ele><time>2026-05-02T11:45:33.118Z</time></trkpt><trkpt lat="45.9565809" lon="11.7975364"><ele>1105.0</ele><time>2026-05-02T11:45:34.119Z</time></trkpt><trkpt lat="45.9566879" lon="11.7975034"><ele>1105.0</ele><time>2026-05-02T11:45:35.118Z</time></trkpt><trkpt lat="45.9567884" lon="11.7974547"><ele>1106.6</ele><time>2026-05-02T11:45:36.118Z</time></trkpt><trkpt lat="45.9568794" lon="11.7974145"><ele>1108.2</ele><time>2026-05-02T11:45:37.118Z</time></trkpt><trkpt lat="45.9569645" lon="11.7974019"><ele>1109.8</ele><time>2026-05-02T11:45:38.118Z</time></trkpt><trkpt lat="45.9570503" lon="11.797398"><ele>1111.4</ele><time>2026-05-02T11:45:39.119Z</time></trkpt><trkpt lat="45.9571421" lon="11.7974299"><ele>1113.0</ele><time>2026-05-02T11:45:40.118Z</time></trkpt><trkpt lat="45.9572435" lon="11.7974731"><ele>1113.0</ele><time>2026-05-02T11:45:41.119Z</time></trkpt><trkpt lat="45.9573485" lon="11.7975052"><ele>1113.0</ele><time>2026-05-02T11:45:42.119Z</time></trkpt><trkpt lat="45.9574652" lon="11.7975099"><ele>1113.0</ele><time>2026-05-02T11:45:43.118Z</time></trkpt><trkpt lat="45.9575745" lon="11.7974466"><ele>1113.0</ele><time>2026-05-02T11:45:44.119Z</time></trkpt><trkpt lat="45.957686" lon="11.7973805"><ele>1115.6</ele><time>2026-05-02T11:45:45.118Z</time></trkpt><trkpt lat="45.957787" lon="11.7973057"><ele>1118.1999999999998</ele><time>2026-05-02T11:45:46.118Z</time></trkpt><trkpt lat="45.957879" lon="11.7972421"><ele>1120.8</ele><time>2026-05-02T11:45:47.119Z</time></trkpt><trkpt lat="45.9579684" lon="11.7971902"><ele>1123.3999999999999</ele><time>2026-05-02T11:45:48.118Z</time></trkpt><trkpt lat="45.9580667" lon="11.7971556"><ele>1126.0</ele><time>2026-05-02T11:45:49.118Z</time></trkpt><trkpt lat="45.9581781" lon="11.7971424"><ele>1126.0</ele><time>2026-05-02T11:45:50.118Z</time></trkpt><trkpt lat="45.9582959" lon="11.7971395"><ele>1126.0</ele><time>2026-05-02T11:45:51.119Z</time></trkpt><trkpt lat="45.9584163" lon="11.7971246"><ele>1126.0</ele><time>2026-05-02T11:45:52.119Z</time></trkpt><trkpt lat="45.9585215" lon="11.7971014"><ele>1126.0</ele><time>2026-05-02T11:45:53.118Z</time></trkpt><trkpt lat="45.9586195" lon="11.7970645"><ele>1126.0</ele><time>2026-05-02T11:45:54.12Z</time></trkpt><trkpt lat="45.9587149" lon="11.796976"><ele>1129.0</ele><time>2026-05-02T11:45:55.119Z</time></trkpt><trkpt lat="45.958805" lon="11.796876"><ele>1132.0</ele><time>2026-05-02T11:45:56.119Z</time></trkpt><trkpt lat="45.9588945" lon="11.7967867"><ele>1135.0</ele><time>2026-05-02T11:45:57.119Z</time></trkpt><trkpt lat="45.9590102" lon="11.7967373"><ele>1138.0</ele><time>2026-05-02T11:45:58.118Z</time></trkpt><trkpt lat="45.9591269" lon="11.7966823"><ele>1132.75</ele><time>2026-05-02T11:45:59.118Z</time></trkpt><trkpt lat="45.9592509" lon="11.7966228"><ele>1127.5</ele><time>2026-05-02T11:46:00.119Z</time></trkpt><trkpt lat="45.9593725" lon="11.7965595"><ele>1122.25</ele><time>2026-05-02T11:46:01.119Z</time></trkpt><trkpt lat="45.9594992" lon="11.79649"><ele>1117.0</ele><time>2026-05-02T11:46:02.118Z</time></trkpt><trkpt lat="45.9596299" lon="11.7964162"><ele>1117.0</ele><time>2026-05-02T11:46:03.118Z</time></trkpt><trkpt lat="45.9597547" lon="11.7963457"><ele>1117.0</ele><time>2026-05-02T11:46:04.12Z</time></trkpt><trkpt lat="45.9598564" lon="11.7962627"><ele>1117.0</ele><time>2026-05-02T11:46:05.119Z</time></trkpt><trkpt lat="45.9599537" lon="11.7961728"><ele>1117.0</ele><time>2026-05-02T11:46:06.118Z</time></trkpt><trkpt lat="45.9600398" lon="11.7960589"><ele>1114.0</ele><time>2026-05-02T11:46:07.12Z</time></trkpt><trkpt lat="45.9601186" lon="11.7959143"><ele>1111.0</ele><time>2026-05-02T11:46:08.119Z</time></trkpt><trkpt lat="45.9602133" lon="11.7957592"><ele>1108.0</ele><time>2026-05-02T11:46:09.12Z</time></trkpt><trkpt lat="45.960307" lon="11.7955983"><ele>1105.0</ele><time>2026-05-02T11:46:10.12Z</time></trkpt><trkpt lat="45.9604" lon="11.7954306"><ele>1105.0</ele><time>2026-05-02T11:46:11.119Z</time></trkpt><trkpt lat="45.96049" lon="11.7952705"><ele>1105.0</ele><time>2026-05-02T11:46:12.12Z</time></trkpt><trkpt lat="45.9605813" lon="11.7951282"><ele>1105.0</ele><time>2026-05-02T11:46:13.12Z</time></trkpt><trkpt lat="45.9606839" lon="11.7950058"><ele>1105.0</ele><time>2026-05-02T11:46:14.119Z</time></trkpt><trkpt lat="45.9607932" lon="11.7948909"><ele>1098.5</ele><time>2026-05-02T11:46:15.119Z</time></trkpt><trkpt lat="45.9609284" lon="11.7948359"><ele>1092.0</ele><time>2026-05-02T11:46:16.12Z</time></trkpt><trkpt lat="45.9610539" lon="11.7947874"><ele>1085.5</ele><time>2026-05-02T11:46:17.12Z</time></trkpt><trkpt lat="45.961163" lon="11.7947402"><ele>1079.0</ele><time>2026-05-02T11:46:18.12Z</time></trkpt><trkpt lat="45.9612675" lon="11.7947213"><ele>1079.0</ele><time>2026-05-02T11:46:19.119Z</time></trkpt><trkpt lat="45.9613649" lon="11.7947502"><ele>1079.0</ele><time>2026-05-02T11:46:20.12Z</time></trkpt><trkpt lat="45.9614607" lon="11.794828"><ele>1079.0</ele><time>2026-05-02T11:46:21.12Z</time></trkpt><trkpt lat="45.9615635" lon="11.7949304"><ele>1079.0</ele><time>2026-05-02T11:46:22.119Z</time></trkpt><trkpt lat="45.9616569" lon="11.795085"><ele>1074.5</ele><time>2026-05-02T11:46:23.119Z</time></trkpt><trkpt lat="45.961745" lon="11.7952608"><ele>1070.0</ele><time>2026-05-02T11:46:24.119Z</time></trkpt><trkpt lat="45.9618305" lon="11.7954295"><ele>1065.5</ele><time>2026-05-02T11:46:25.12Z</time></trkpt><trkpt lat="45.9618976" lon="11.7956034"><ele>1061.0</ele><time>2026-05-02T11:46:26.119Z</time></trkpt><trkpt lat="45.9619578" lon="11.7957886"><ele>1061.0</ele><time>2026-05-02T11:46:27.12Z</time></trkpt><trkpt lat="45.9619917" lon="11.7960061"><ele>1061.0</ele><time>2026-05-02T11:46:28.12Z</time></trkpt><trkpt lat="45.9620236" lon="11.7962037"><ele>1061.0</ele><time>2026-05-02T11:46:29.119Z</time></trkpt><trkpt lat="45.9620541" lon="11.7963863"><ele>1061.0</ele><time>2026-05-02T11:46:30.12Z</time></trkpt><trkpt lat="45.9620648" lon="11.7965594"><ele>1061.0</ele><time>2026-05-02T11:46:31.12Z</time></trkpt><trkpt lat="45.9620553" lon="11.7967234"><ele>1061.0</ele><time>2026-05-02T11:46:32.12Z</time></trkpt><trkpt lat="45.9620224" lon="11.7968744"><ele>1061.0</ele><time>2026-05-02T11:46:33.119Z</time></trkpt><trkpt lat="45.9619852" lon="11.7970228"><ele>1061.0</ele><time>2026-05-02T11:46:34.12Z</time></trkpt><trkpt lat="45.9619034" lon="11.7971821"><ele>1063.0</ele><time>2026-05-02T11:46:35.119Z</time></trkpt><trkpt lat="45.9618183" lon="11.797354"><ele>1065.0</ele><time>2026-05-02T11:46:36.119Z</time></trkpt><trkpt lat="45.9617297" lon="11.7975285"><ele>1067.0</ele><time>2026-05-02T11:46:37.119Z</time></trkpt><trkpt lat="45.9616466" lon="11.7976949"><ele>1069.0</ele><time>2026-05-02T11:46:38.119Z</time></trkpt><trkpt lat="45.9615728" lon="11.7978541"><ele>1069.0</ele><time>2026-05-02T11:46:39.119Z</time></trkpt><trkpt lat="45.9615156" lon="11.798013"><ele>1069.0</ele><time>2026-05-02T11:46:40.12Z</time></trkpt><trkpt lat="45.9614745" lon="11.7981736"><ele>1069.0</ele><time>2026-05-02T11:46:41.12Z</time></trkpt><trkpt lat="45.9614449" lon="11.7983502"><ele>1069.0</ele><time>2026-05-02T11:46:42.12Z</time></trkpt><trkpt lat="45.9614117" lon="11.7985415"><ele>1065.25</ele><time>2026-05-02T11:46:43.119Z</time></trkpt><trkpt lat="45.9613713" lon="11.7987379"><ele>1061.5</ele><time>2026-05-02T11:46:44.12Z</time></trkpt><trkpt lat="45.9613263" lon="11.7989389"><ele>1057.75</ele><time>2026-05-02T11:46:45.119Z</time></trkpt><trkpt lat="45.9612801" lon="11.7991422"><ele>1054.0</ele><time>2026-05-02T11:46:46.12Z</time></trkpt><trkpt lat="45.9612376" lon="11.7993405"><ele>1052.0</ele><time>2026-05-02T11:46:47.119Z</time></trkpt><trkpt lat="45.9611958" lon="11.7995279"><ele>1050.0</ele><time>2026-05-02T11:46:48.12Z</time></trkpt><trkpt lat="45.9611371" lon="11.7997108"><ele>1048.0</ele><time>2026-05-02T11:46:49.12Z</time></trkpt><trkpt lat="45.9610572" lon="11.7998948"><ele>1046.0</ele><time>2026-05-02T11:46:50.12Z</time></trkpt><trkpt lat="45.9609643" lon="11.8000771"><ele>1049.25</ele><time>2026-05-02T11:46:51.119Z</time></trkpt><trkpt lat="45.9608685" lon="11.8002461"><ele>1052.5</ele><time>2026-05-02T11:46:52.119Z</time></trkpt><trkpt lat="45.9607695" lon="11.8004"><ele>1055.75</ele><time>2026-05-02T11:46:53.119Z</time></trkpt><trkpt lat="45.9606661" lon="11.80055"><ele>1059.0</ele><time>2026-05-02T11:46:54.12Z</time></trkpt><trkpt lat="45.9605566" lon="11.8006986"><ele>1059.0</ele><time>2026-05-02T11:46:55.119Z</time></trkpt><trkpt lat="45.9604432" lon="11.8008446"><ele>1059.0</ele><time>2026-05-02T11:46:56.119Z</time></trkpt><trkpt lat="45.9603181" lon="11.8009809"><ele>1059.0</ele><time>2026-05-02T11:46:57.119Z</time></trkpt><trkpt lat="45.9601881" lon="11.8011134"><ele>1059.0</ele><time>2026-05-02T11:46:58.12Z</time></trkpt><trkpt lat="45.9600512" lon="11.8012321"><ele>1059.0</ele><time>2026-05-02T11:46:59.119Z</time></trkpt><trkpt lat="45.959911" lon="11.80134"><ele>1059.0</ele><time>2026-05-02T11:47:00.12Z</time></trkpt><trkpt lat="45.9597754" lon="11.8014406"><ele>1059.0</ele><time>2026-05-02T11:47:01.12Z</time></trkpt><trkpt lat="45.9596439" lon="11.8015359"><ele>1059.0</ele><time>2026-05-02T11:47:02.12Z</time></trkpt><trkpt lat="45.959531" lon="11.8016213"><ele>1059.0</ele><time>2026-05-02T11:47:03.12Z</time></trkpt><trkpt lat="45.9594264" lon="11.8017007"><ele>1059.0</ele><time>2026-05-02T11:47:04.121Z</time></trkpt><trkpt lat="45.9593322" lon="11.8017665"><ele>1059.0</ele><time>2026-05-02T11:47:05.12Z</time></trkpt><trkpt lat="45.9592377" lon="11.8018014"><ele>1059.0</ele><time>2026-05-02T11:47:06.12Z</time></trkpt><trkpt lat="45.9591488" lon="11.8018312"><ele>1059.0</ele><time>2026-05-02T11:47:07.12Z</time></trkpt><trkpt lat="45.9590848" lon="11.8018979"><ele>1059.0</ele><time>2026-05-02T11:47:08.12Z</time></trkpt><trkpt lat="45.9590486" lon="11.8020274"><ele>1059.0</ele><time>2026-05-02T11:47:09.12Z</time></trkpt><trkpt lat="45.959012" lon="11.8021755"><ele>1061.3333333333333</ele><time>2026-05-02T11:47:10.121Z</time></trkpt><trkpt lat="45.9589712" lon="11.8023261"><ele>1063.6666666666667</ele><time>2026-05-02T11:47:11.12Z</time></trkpt><trkpt lat="45.958935" lon="11.8024601"><ele>1066.0</ele><time>2026-05-02T11:47:12.12Z</time></trkpt><trkpt lat="45.9589028" lon="11.8025738"><ele>1068.3333333333335</ele><time>2026-05-02T11:47:13.12Z</time></trkpt><trkpt lat="45.9588744" lon="11.8026774"><ele>1070.6666666666667</ele><time>2026-05-02T11:47:14.12Z</time></trkpt><trkpt lat="45.9588894" lon="11.8027705"><ele>1073.0</ele><time>2026-05-02T11:47:15.12Z</time></trkpt><trkpt lat="45.9589838" lon="11.8028623"><ele>1074.5</ele><time>2026-05-02T11:47:17.121Z</time></trkpt><trkpt lat="45.9590718" lon="11.802843"><ele>1076.0</ele><time>2026-05-02T11:47:18.121Z</time></trkpt><trkpt lat="45.959176" lon="11.8028099"><ele>1077.5</ele><time>2026-05-02T11:47:19.12Z</time></trkpt><trkpt lat="45.9593074" lon="11.8027543"><ele>1079.0</ele><time>2026-05-02T11:47:20.121Z</time></trkpt><trkpt lat="45.959434" lon="11.8026823"><ele>1079.0</ele><time>2026-05-02T11:47:21.121Z</time></trkpt><trkpt lat="45.959549" lon="11.80263"><ele>1079.0</ele><time>2026-05-02T11:47:22.121Z</time></trkpt><trkpt lat="45.9596474" lon="11.8026006"><ele>1079.0</ele><time>2026-05-02T11:47:23.12Z</time></trkpt><trkpt lat="45.9597422" lon="11.8026198"><ele>1079.0</ele><time>2026-05-02T11:47:24.12Z</time></trkpt><trkpt lat="45.9598676" lon="11.8026805"><ele>1079.0</ele><time>2026-05-02T11:47:25.121Z</time></trkpt><trkpt lat="45.9599874" lon="11.802754"><ele>1072.6000000000001</ele><time>2026-05-02T11:47:26.121Z</time></trkpt><trkpt lat="45.9600928" lon="11.8028175"><ele>1066.2</ele><time>2026-05-02T11:47:27.12Z</time></trkpt><trkpt lat="45.9601906" lon="11.802881"><ele>1059.8000000000002</ele><time>2026-05-02T11:47:28.121Z</time></trkpt><trkpt lat="45.9602822" lon="11.8029354"><ele>1053.4</ele><time>2026-05-02T11:47:29.121Z</time></trkpt><trkpt lat="45.9603704" lon="11.8029899"><ele>1047.0</ele><time>2026-05-02T11:47:30.121Z</time></trkpt><trkpt lat="45.9604371" lon="11.8030676"><ele>1047.0</ele><time>2026-05-02T11:47:31.121Z</time></trkpt><trkpt lat="45.9604948" lon="11.803174"><ele>1047.0</ele><time>2026-05-02T11:47:32.12Z</time></trkpt><trkpt lat="45.9605488" lon="11.8032978"><ele>1047.0</ele><time>2026-05-02T11:47:33.121Z</time></trkpt><trkpt lat="45.9605815" lon="11.803441"><ele>1047.0</ele><time>2026-05-02T11:47:34.12Z</time></trkpt><trkpt lat="45.9606061" lon="11.8035673"><ele>1047.0</ele><time>2026-05-02T11:47:35.12Z</time></trkpt><trkpt lat="45.9606282" lon="11.8036743"><ele>1049.2</ele><time>2026-05-02T11:47:36.121Z</time></trkpt><trkpt lat="45.9606773" lon="11.8037449"><ele>1051.4</ele><time>2026-05-02T11:47:37.121Z</time></trkpt><trkpt lat="45.9607894" lon="11.803798"><ele>1053.6</ele><time>2026-05-02T11:47:39.121Z</time></trkpt><trkpt lat="45.9608849" lon="11.8037847"><ele>1055.8</ele><time>2026-05-02T11:47:40.12Z</time></trkpt><trkpt lat="45.961009" lon="11.8037057"><ele>1058.0</ele><time>2026-05-02T11:47:41.121Z</time></trkpt><trkpt lat="45.9611236" lon="11.803641"><ele>1058.0</ele><time>2026-05-02T11:47:42.121Z</time></trkpt><trkpt lat="45.9612291" lon="11.8035851"><ele>1058.0</ele><time>2026-05-02T11:47:43.121Z</time></trkpt><trkpt lat="45.9613301" lon="11.8035385"><ele>1058.0</ele><time>2026-05-02T11:47:44.12Z</time></trkpt><trkpt lat="45.9614239" lon="11.8035502"><ele>1058.0</ele><time>2026-05-02T11:47:45.121Z</time></trkpt><trkpt lat="45.9615207" lon="11.8035956"><ele>1058.0</ele><time>2026-05-02T11:47:46.12Z</time></trkpt><trkpt lat="45.9616217" lon="11.8036639"><ele>1054.8</ele><time>2026-05-02T11:47:47.12Z</time></trkpt><trkpt lat="45.9617021" lon="11.8037523"><ele>1051.6</ele><time>2026-05-02T11:47:48.12Z</time></trkpt><trkpt lat="45.9617629" lon="11.8038527"><ele>1048.4</ele><time>2026-05-02T11:47:49.12Z</time></trkpt><trkpt lat="45.9618168" lon="11.803948"><ele>1045.2</ele><time>2026-05-02T11:47:50.12Z</time></trkpt><trkpt lat="45.9618825" lon="11.8040223"><ele>1042.0</ele><time>2026-05-02T11:47:51.122Z</time></trkpt><trkpt lat="45.9619667" lon="11.804061"><ele>1042.0</ele><time>2026-05-02T11:47:52.12Z</time></trkpt><trkpt lat="45.9620693" lon="11.8040569"><ele>1042.0</ele><time>2026-05-02T11:47:53.121Z</time></trkpt><trkpt lat="45.9621783" lon="11.8040432"><ele>1042.0</ele><time>2026-05-02T11:47:54.121Z</time></trkpt><trkpt lat="45.9622969" lon="11.803993"><ele>1042.0</ele><time>2026-05-02T11:47:55.121Z</time></trkpt><trkpt lat="45.9624151" lon="11.8039493"><ele>1042.0</ele><time>2026-05-02T11:47:56.122Z</time></trkpt><trkpt lat="45.9625174" lon="11.8039564"><ele>1042.0</ele><time>2026-05-02T11:47:57.122Z</time></trkpt><trkpt lat="45.9626083" lon="11.8040107"><ele>1042.0</ele><time>2026-05-02T11:47:58.122Z</time></trkpt><trkpt lat="45.962679" lon="11.8041027"><ele>1042.0</ele><time>2026-05-02T11:47:59.121Z</time></trkpt><trkpt lat="45.962729" lon="11.8042326"><ele>1042.0</ele><time>2026-05-02T11:48:00.121Z</time></trkpt><trkpt lat="45.9627683" lon="11.8043931"><ele>1041.25</ele><time>2026-05-02T11:48:01.122Z</time></trkpt><trkpt lat="45.9628177" lon="11.8045666"><ele>1040.5</ele><time>2026-05-02T11:48:02.122Z</time></trkpt><trkpt lat="45.9628876" lon="11.8047265"><ele>1039.75</ele><time>2026-05-02T11:48:03.121Z</time></trkpt><trkpt lat="45.9629673" lon="11.8048734"><ele>1039.0</ele><time>2026-05-02T11:48:04.122Z</time></trkpt><trkpt lat="45.9630764" lon="11.8050169"><ele>1039.5</ele><time>2026-05-02T11:48:05.121Z</time></trkpt><trkpt lat="45.9631883" lon="11.8051633"><ele>1040.0</ele><time>2026-05-02T11:48:06.121Z</time></trkpt><trkpt lat="45.9632981" lon="11.8053023"><ele>1040.5</ele><time>2026-05-02T11:48:07.121Z</time></trkpt><trkpt lat="45.9634016" lon="11.8054284"><ele>1041.0</ele><time>2026-05-02T11:48:08.122Z</time></trkpt><trkpt lat="45.9635033" lon="11.8055356"><ele>1041.0</ele><time>2026-05-02T11:48:09.122Z</time></trkpt><trkpt lat="45.9636139" lon="11.8056103"><ele>1041.0</ele><time>2026-05-02T11:48:10.122Z</time></trkpt><trkpt lat="45.9637367" lon="11.8056566"><ele>1041.0</ele><time>2026-05-02T11:48:11.121Z</time></trkpt><trkpt lat="45.963868" lon="11.8056859"><ele>1041.0</ele><time>2026-05-02T11:48:12.121Z</time></trkpt><trkpt lat="45.9640006" lon="11.8057092"><ele>1041.0</ele><time>2026-05-02T11:48:13.122Z</time></trkpt><trkpt lat="45.9641255" lon="11.8057437"><ele>1041.0</ele><time>2026-05-02T11:48:14.122Z</time></trkpt><trkpt lat="45.9642386" lon="11.8058253"><ele>1041.0</ele><time>2026-05-02T11:48:15.122Z</time></trkpt><trkpt lat="45.9643494" lon="11.805927"><ele>1041.0</ele><time>2026-05-02T11:48:16.122Z</time></trkpt><trkpt lat="45.9644333" lon="11.8060871"><ele>1038.5</ele><time>2026-05-02T11:48:17.122Z</time></trkpt><trkpt lat="45.9645209" lon="11.8062153"><ele>1036.0</ele><time>2026-05-02T11:48:18.122Z</time></trkpt><trkpt lat="45.9646221" lon="11.8062914"><ele>1033.5</ele><time>2026-05-02T11:48:19.122Z</time></trkpt><trkpt lat="45.9647275" lon="11.806355"><ele>1031.0</ele><time>2026-05-02T11:48:20.122Z</time></trkpt><trkpt lat="45.9648428" lon="11.8064242"><ele>1031.0</ele><time>2026-05-02T11:48:21.121Z</time></trkpt><trkpt lat="45.9649519" lon="11.8065195"><ele>1031.0</ele><time>2026-05-02T11:48:22.122Z</time></trkpt><trkpt lat="45.9650243" lon="11.8066721"><ele>1031.0</ele><time>2026-05-02T11:48:23.121Z</time></trkpt><trkpt lat="45.9651025" lon="11.8068062"><ele>1031.0</ele><time>2026-05-02T11:48:24.121Z</time></trkpt><trkpt lat="45.9651978" lon="11.8068994"><ele>1033.75</ele><time>2026-05-02T11:48:25.121Z</time></trkpt><trkpt lat="45.9653147" lon="11.806953"><ele>1036.5</ele><time>2026-05-02T11:48:26.121Z</time></trkpt><trkpt lat="45.9654428" lon="11.8069634"><ele>1039.25</ele><time>2026-05-02T11:48:27.121Z</time></trkpt><trkpt lat="45.9655716" lon="11.8069414"><ele>1042.0</ele><time>2026-05-02T11:48:28.121Z</time></trkpt><trkpt lat="45.9656986" lon="11.8068981"><ele>1042.0</ele><time>2026-05-02T11:48:29.122Z</time></trkpt><trkpt lat="45.9658221" lon="11.8068377"><ele>1042.0</ele><time>2026-05-02T11:48:30.121Z</time></trkpt><trkpt lat="45.9659348" lon="11.8067666"><ele>1042.0</ele><time>2026-05-02T11:48:31.121Z</time></trkpt><trkpt lat="45.9660392" lon="11.8066898"><ele>1042.0</ele><time>2026-05-02T11:48:32.121Z</time></trkpt><trkpt lat="45.966144" lon="11.8066149"><ele>1036.0</ele><time>2026-05-02T11:48:33.121Z</time></trkpt><trkpt lat="45.9662495" lon="11.8065562"><ele>1030.0</ele><time>2026-05-02T11:48:34.122Z</time></trkpt><trkpt lat="45.9663772" lon="11.8065478"><ele>1024.0</ele><time>2026-05-02T11:48:35.122Z</time></trkpt><trkpt lat="45.9665142" lon="11.8065721"><ele>1018.0</ele><time>2026-05-02T11:48:36.122Z</time></trkpt><trkpt lat="45.9666564" lon="11.8066078"><ele>1017.0</ele><time>2026-05-02T11:48:37.122Z</time></trkpt><trkpt lat="45.9667911" lon="11.8066423"><ele>1016.0</ele><time>2026-05-02T11:48:38.121Z</time></trkpt><trkpt lat="45.966919" lon="11.8066774"><ele>1015.0</ele><time>2026-05-02T11:48:39.121Z</time></trkpt><trkpt lat="45.9670436" lon="11.8067288"><ele>1014.0</ele><time>2026-05-02T11:48:40.122Z</time></trkpt><trkpt lat="45.9671614" lon="11.806812"><ele>1014.0</ele><time>2026-05-02T11:48:41.122Z</time></trkpt><trkpt lat="45.967266" lon="11.8069173"><ele>1014.0000000000001</ele><time>2026-05-02T11:48:42.122Z</time></trkpt><trkpt lat="45.967358" lon="11.8070242"><ele>1014.0000000000001</ele><time>2026-05-02T11:48:43.122Z</time></trkpt><trkpt lat="45.9674396" lon="11.8071227"><ele>1014.0</ele><time>2026-05-02T11:48:44.122Z</time></trkpt><trkpt lat="45.9675132" lon="11.8072129"><ele>1014.0</ele><time>2026-05-02T11:48:45.122Z</time></trkpt><trkpt lat="45.9675807" lon="11.8072956"><ele>1014.0</ele><time>2026-05-02T11:48:46.121Z</time></trkpt><trkpt lat="45.9676464" lon="11.8073722"><ele>1014.0000000000001</ele><time>2026-05-02T11:48:47.122Z</time></trkpt><trkpt lat="45.9677216" lon="11.8074543"><ele>1014.0000000000001</ele><time>2026-05-02T11:48:48.121Z</time></trkpt><trkpt lat="45.9678068" lon="11.8075343"><ele>1014.0</ele><time>2026-05-02T11:48:49.121Z</time></trkpt><trkpt lat="45.9679031" lon="11.8076022"><ele>1014.0</ele><time>2026-05-02T11:48:50.121Z</time></trkpt><trkpt lat="45.9680019" lon="11.8076627"><ele>1017.5</ele><time>2026-05-02T11:48:51.122Z</time></trkpt><trkpt lat="45.9681117" lon="11.8077094"><ele>1021.0</ele><time>2026-05-02T11:48:52.123Z</time></trkpt><trkpt lat="45.9682247" lon="11.8077355"><ele>1024.5</ele><time>2026-05-02T11:48:53.122Z</time></trkpt><trkpt lat="45.968339" lon="11.8077221"><ele>1028.0</ele><time>2026-05-02T11:48:54.122Z</time></trkpt><trkpt lat="45.9684481" lon="11.8076606"><ele>1025.0</ele><time>2026-05-02T11:48:55.122Z</time></trkpt><trkpt lat="45.9685494" lon="11.807568"><ele>1022.0</ele><time>2026-05-02T11:48:56.123Z</time></trkpt><trkpt lat="45.9686587" lon="11.807474"><ele>1019.0</ele><time>2026-05-02T11:48:57.122Z</time></trkpt><trkpt lat="45.968786" lon="11.8074015"><ele>1016.0</ele><time>2026-05-02T11:48:58.123Z</time></trkpt><trkpt lat="45.9689181" lon="11.807346"><ele>1016.0</ele><time>2026-05-02T11:48:59.122Z</time></trkpt><trkpt lat="45.9690511" lon="11.8073298"><ele>1016.0</ele><time>2026-05-02T11:49:00.123Z</time></trkpt><trkpt lat="45.969177" lon="11.8073576"><ele>1016.0</ele><time>2026-05-02T11:49:01.122Z</time></trkpt><trkpt lat="45.969292" lon="11.8074258"><ele>1016.0</ele><time>2026-05-02T11:49:02.122Z</time></trkpt><trkpt lat="45.9694039" lon="11.8074985"><ele>1018.0</ele><time>2026-05-02T11:49:03.123Z</time></trkpt><trkpt lat="45.969522" lon="11.8075642"><ele>1020.0</ele><time>2026-05-02T11:49:04.122Z</time></trkpt><trkpt lat="45.9696434" lon="11.807589"><ele>1022.0</ele><time>2026-05-02T11:49:05.123Z</time></trkpt><trkpt lat="45.9697611" lon="11.8076066"><ele>1024.0</ele><time>2026-05-02T11:49:06.123Z</time></trkpt><trkpt lat="45.9698788" lon="11.8076642"><ele>1024.0</ele><time>2026-05-02T11:49:07.122Z</time></trkpt><trkpt lat="45.9699927" lon="11.8077823"><ele>1024.0</ele><time>2026-05-02T11:49:08.123Z</time></trkpt><trkpt lat="45.9700764" lon="11.8079376"><ele>1024.0</ele><time>2026-05-02T11:49:09.122Z</time></trkpt><trkpt lat="45.9701501" lon="11.8080765"><ele>1024.0</ele><time>2026-05-02T11:49:10.123Z</time></trkpt><trkpt lat="45.9702268" lon="11.8081937"><ele>1019.75</ele><time>2026-05-02T11:49:11.123Z</time></trkpt><trkpt lat="45.9703301" lon="11.8082816"><ele>1015.5</ele><time>2026-05-02T11:49:12.122Z</time></trkpt><trkpt lat="45.9704607" lon="11.8083411"><ele>1011.25</ele><time>2026-05-02T11:49:13.123Z</time></trkpt><trkpt lat="45.9706087" lon="11.8083862"><ele>1007.0</ele><time>2026-05-02T11:49:14.122Z</time></trkpt><trkpt lat="45.9707617" lon="11.8084293"><ele>1005.25</ele><time>2026-05-02T11:49:15.123Z</time></trkpt><trkpt lat="45.9709065" lon="11.8084711"><ele>1003.5</ele><time>2026-05-02T11:49:16.123Z</time></trkpt><trkpt lat="45.9710413" lon="11.8085129"><ele>1001.75</ele><time>2026-05-02T11:49:17.122Z</time></trkpt><trkpt lat="45.9711644" lon="11.808553"><ele>1000.0</ele><time>2026-05-02T11:49:18.122Z</time></trkpt><trkpt lat="45.9712824" lon="11.8085923"><ele>999.2</ele><time>2026-05-02T11:49:19.123Z</time></trkpt><trkpt lat="45.9713939" lon="11.8085987"><ele>998.4</ele><time>2026-05-02T11:49:20.123Z</time></trkpt><trkpt lat="45.9715101" lon="11.8085972"><ele>997.5999999999999</ele><time>2026-05-02T11:49:21.123Z</time></trkpt><trkpt lat="45.9716121" lon="11.8085521"><ele>996.8</ele><time>2026-05-02T11:49:22.123Z</time></trkpt><trkpt lat="45.9717097" lon="11.8085068"><ele>996.0</ele><time>2026-05-02T11:49:23.122Z</time></trkpt><trkpt lat="45.9718128" lon="11.8084656"><ele>996.0</ele><time>2026-05-02T11:49:24.122Z</time></trkpt><trkpt lat="45.9719277" lon="11.8084452"><ele>996.0</ele><time>2026-05-02T11:49:25.122Z</time></trkpt><trkpt lat="45.9720573" lon="11.8084378"><ele>996.0</ele><time>2026-05-02T11:49:26.123Z</time></trkpt><trkpt lat="45.9721902" lon="11.8084352"><ele>996.0</ele><time>2026-05-02T11:49:27.123Z</time></trkpt><trkpt lat="45.9723377" lon="11.8084496"><ele>996.0</ele><time>2026-05-02T11:49:28.122Z</time></trkpt><trkpt lat="45.972494" lon="11.8084785"><ele>996.0</ele><time>2026-05-02T11:49:29.123Z</time></trkpt><trkpt lat="45.9726496" lon="11.8085335"><ele>996.0</ele><time>2026-05-02T11:49:30.123Z</time></trkpt><trkpt lat="45.9727933" lon="11.8086059"><ele>1001.5</ele><time>2026-05-02T11:49:31.123Z</time></trkpt><trkpt lat="45.9729261" lon="11.8086793"><ele>1007.0</ele><time>2026-05-02T11:49:32.123Z</time></trkpt><trkpt lat="45.9730459" lon="11.8087366"><ele>1012.5</ele><time>2026-05-02T11:49:33.123Z</time></trkpt><trkpt lat="45.9731623" lon="11.8087759"><ele>1018.0</ele><time>2026-05-02T11:49:34.124Z</time></trkpt><trkpt lat="45.9732841" lon="11.8087739"><ele>1021.0</ele><time>2026-05-02T11:49:35.123Z</time></trkpt><trkpt lat="45.973415" lon="11.8087305"><ele>1024.0</ele><time>2026-05-02T11:49:36.122Z</time></trkpt><trkpt lat="45.9735518" lon="11.8086263"><ele>1027.0</ele><time>2026-05-02T11:49:37.123Z</time></trkpt><trkpt lat="45.973706" lon="11.8085167"><ele>1018.75</ele><time>2026-05-02T11:49:38.123Z</time></trkpt><trkpt lat="45.9738447" lon="11.8084457"><ele>1010.5</ele><time>2026-05-02T11:49:39.123Z</time></trkpt><trkpt lat="45.9739807" lon="11.8083864"><ele>1002.25</ele><time>2026-05-02T11:49:40.123Z</time></trkpt><trkpt lat="45.9741157" lon="11.8083736"><ele>994.0</ele><time>2026-05-02T11:49:41.123Z</time></trkpt><trkpt lat="45.9742485" lon="11.8083966"><ele>994.0</ele><time>2026-05-02T11:49:42.124Z</time></trkpt><trkpt lat="45.9743665" lon="11.8084364"><ele>994.0000000000001</ele><time>2026-05-02T11:49:43.122Z</time></trkpt><trkpt lat="45.9744831" lon="11.8084681"><ele>994.0000000000001</ele><time>2026-05-02T11:49:44.124Z</time></trkpt><trkpt lat="45.9745802" lon="11.8084948"><ele>994.0</ele><time>2026-05-02T11:49:45.123Z</time></trkpt><trkpt lat="45.9746722" lon="11.8085159"><ele>994.0</ele><time>2026-05-02T11:49:46.122Z</time></trkpt><trkpt lat="45.9747604" lon="11.8085048"><ele>994.0</ele><time>2026-05-02T11:49:47.123Z</time></trkpt><trkpt lat="45.9748425" lon="11.8084356"><ele>994.0000000000001</ele><time>2026-05-02T11:49:48.123Z</time></trkpt><trkpt lat="45.9749083" lon="11.808316"><ele>994.0000000000001</ele><time>2026-05-02T11:49:49.123Z</time></trkpt><trkpt lat="45.9749659" lon="11.8081903"><ele>994.0</ele><time>2026-05-02T11:49:50.124Z</time></trkpt><trkpt lat="45.9750108" lon="11.8080277"><ele>994.0</ele><time>2026-05-02T11:49:51.124Z</time></trkpt><trkpt lat="45.9750631" lon="11.8078533"><ele>994.25</ele><time>2026-05-02T11:49:52.123Z</time></trkpt><trkpt lat="45.9751179" lon="11.8076759"><ele>994.5</ele><time>2026-05-02T11:49:53.123Z</time></trkpt><trkpt lat="45.9751765" lon="11.807511"><ele>994.75</ele><time>2026-05-02T11:49:54.123Z</time></trkpt><trkpt lat="45.9752492" lon="11.8073674"><ele>995.0</ele><time>2026-05-02T11:49:55.124Z</time></trkpt><trkpt lat="45.9753438" lon="11.8072452"><ele>995.0</ele><time>2026-05-02T11:49:56.123Z</time></trkpt><trkpt lat="45.9754578" lon="11.8071395"><ele>995.0</ele><time>2026-05-02T11:49:57.124Z</time></trkpt><trkpt lat="45.9755761" lon="11.8070271"><ele>995.0</ele><time>2026-05-02T11:49:58.124Z</time></trkpt><trkpt lat="45.9756811" lon="11.8069051"><ele>995.0</ele><time>2026-05-02T11:49:59.124Z</time></trkpt><trkpt lat="45.9757855" lon="11.806796"><ele>987.0</ele><time>2026-05-02T11:50:00.123Z</time></trkpt><trkpt lat="45.9758999" lon="11.8067224"><ele>979.0</ele><time>2026-05-02T11:50:01.123Z</time></trkpt><trkpt lat="45.9760237" lon="11.8066767"><ele>971.0</ele><time>2026-05-02T11:50:02.124Z</time></trkpt><trkpt lat="45.9761511" lon="11.8066484"><ele>963.0</ele><time>2026-05-02T11:50:03.124Z</time></trkpt><trkpt lat="45.9762811" lon="11.8066378"><ele>963.0</ele><time>2026-05-02T11:50:04.124Z</time></trkpt><trkpt lat="45.9764217" lon="11.8066461"><ele>963.0</ele><time>2026-05-02T11:50:05.124Z</time></trkpt><trkpt lat="45.9765651" lon="11.8066664"><ele>963.0</ele><time>2026-05-02T11:50:06.124Z</time></trkpt><trkpt lat="45.976707" lon="11.8066866"><ele>963.0</ele><time>2026-05-02T11:50:07.123Z</time></trkpt><trkpt lat="45.9768543" lon="11.8067163"><ele>958.0</ele><time>2026-05-02T11:50:08.123Z</time></trkpt><trkpt lat="45.9770082" lon="11.8067445"><ele>953.0</ele><time>2026-05-02T11:50:09.124Z</time></trkpt><trkpt lat="45.9771606" lon="11.8067613"><ele>948.0</ele><time>2026-05-02T11:50:10.123Z</time></trkpt><trkpt lat="45.977305" lon="11.8067496"><ele>948.0</ele><time>2026-05-02T11:50:11.124Z</time></trkpt><trkpt lat="45.9774408" lon="11.8066987"><ele>948.0</ele><time>2026-05-02T11:50:12.123Z</time></trkpt><trkpt lat="45.9775642" lon="11.8066049"><ele>948.0</ele><time>2026-05-02T11:50:13.124Z</time></trkpt><trkpt lat="45.9776714" lon="11.8064694"><ele>948.0</ele><time>2026-05-02T11:50:14.124Z</time></trkpt><trkpt lat="45.9777696" lon="11.8063124"><ele>950.75</ele><time>2026-05-02T11:50:15.123Z</time></trkpt><trkpt lat="45.977874" lon="11.8061637"><ele>953.5</ele><time>2026-05-02T11:50:16.124Z</time></trkpt><trkpt lat="45.9779906" lon="11.806049"><ele>956.25</ele><time>2026-05-02T11:50:17.124Z</time></trkpt><trkpt lat="45.9781129" lon="11.8059671"><ele>959.0</ele><time>2026-05-02T11:50:18.124Z</time></trkpt><trkpt lat="45.97823" lon="11.8059029"><ele>955.0</ele><time>2026-05-02T11:50:19.124Z</time></trkpt><trkpt lat="45.9783548" lon="11.8059012"><ele>951.0</ele><time>2026-05-02T11:50:20.123Z</time></trkpt><trkpt lat="45.9784756" lon="11.8059308"><ele>947.0</ele><time>2026-05-02T11:50:21.123Z</time></trkpt><trkpt lat="45.9785889" lon="11.8059949"><ele>943.0</ele><time>2026-05-02T11:50:22.124Z</time></trkpt><trkpt lat="45.9786971" lon="11.806093"><ele>943.0</ele><time>2026-05-02T11:50:23.123Z</time></trkpt><trkpt lat="45.9788051" lon="11.8062194"><ele>943.0</ele><time>2026-05-02T11:50:24.123Z</time></trkpt><trkpt lat="45.9789168" lon="11.8063552"><ele>943.0</ele><time>2026-05-02T11:50:25.123Z</time></trkpt><trkpt lat="45.97904" lon="11.806483"><ele>943.0</ele><time>2026-05-02T11:50:26.123Z</time></trkpt><trkpt lat="45.9791744" lon="11.806591"><ele>941.5</ele><time>2026-05-02T11:50:27.123Z</time></trkpt><trkpt lat="45.9793098" lon="11.8066912"><ele>940.0</ele><time>2026-05-02T11:50:28.124Z</time></trkpt><trkpt lat="45.9794426" lon="11.8067643"><ele>938.5</ele><time>2026-05-02T11:50:29.123Z</time></trkpt><trkpt lat="45.9795583" lon="11.8068346"><ele>937.0</ele><time>2026-05-02T11:50:30.124Z</time></trkpt><trkpt lat="45.9796583" lon="11.8069269"><ele>937.0</ele><time>2026-05-02T11:50:31.124Z</time></trkpt><trkpt lat="45.979761" lon="11.8070295"><ele>937.0</ele><time>2026-05-02T11:50:32.124Z</time></trkpt><trkpt lat="45.9798531" lon="11.8071506"><ele>937.0</ele><time>2026-05-02T11:50:33.124Z</time></trkpt><trkpt lat="45.9799387" lon="11.8072675"><ele>937.0</ele><time>2026-05-02T11:50:34.123Z</time></trkpt><trkpt lat="45.9800374" lon="11.8073603"><ele>931.25</ele><time>2026-05-02T11:50:35.123Z</time></trkpt><trkpt lat="45.9801517" lon="11.8074195"><ele>925.5</ele><time>2026-05-02T11:50:36.124Z</time></trkpt><trkpt lat="45.9802724" lon="11.8074559"><ele>919.75</ele><time>2026-05-02T11:50:37.124Z</time></trkpt><trkpt lat="45.9803902" lon="11.8074899"><ele>914.0</ele><time>2026-05-02T11:50:38.123Z</time></trkpt><trkpt lat="45.9804989" lon="11.8075426"><ele>914.0</ele><time>2026-05-02T11:50:39.123Z</time></trkpt><trkpt lat="45.9805966" lon="11.8076276"><ele>914.0</ele><time>2026-05-02T11:50:40.124Z</time></trkpt><trkpt lat="45.9806758" lon="11.8077513"><ele>914.0</ele><time>2026-05-02T11:50:41.123Z</time></trkpt><trkpt lat="45.9807562" lon="11.8078838"><ele>914.0</ele><time>2026-05-02T11:50:42.124Z</time></trkpt><trkpt lat="45.9808396" lon="11.8080029"><ele>913.75</ele><time>2026-05-02T11:50:43.125Z</time></trkpt><trkpt lat="45.9809207" lon="11.8081103"><ele>913.5</ele><time>2026-05-02T11:50:44.125Z</time></trkpt><trkpt lat="45.9810424" lon="11.8081656"><ele>913.25</ele><time>2026-05-02T11:50:45.124Z</time></trkpt><trkpt lat="45.9811602" lon="11.8082083"><ele>913.0</ele><time>2026-05-02T11:50:46.124Z</time></trkpt><trkpt lat="45.9812739" lon="11.8082355"><ele>913.0</ele><time>2026-05-02T11:50:47.125Z</time></trkpt><trkpt lat="45.9813823" lon="11.8082407"><ele>913.0</ele><time>2026-05-02T11:50:48.125Z</time></trkpt><trkpt lat="45.981485" lon="11.8082452"><ele>913.0</ele><time>2026-05-02T11:50:49.125Z</time></trkpt><trkpt lat="45.9815876" lon="11.8082688"><ele>913.0</ele><time>2026-05-02T11:50:50.124Z</time></trkpt><trkpt lat="45.9816876" lon="11.8083601"><ele>913.0</ele><time>2026-05-02T11:50:51.125Z</time></trkpt><trkpt lat="45.981785" lon="11.8084863"><ele>911.0</ele><time>2026-05-02T11:50:52.124Z</time></trkpt><trkpt lat="45.9818884" lon="11.8086296"><ele>909.0</ele><time>2026-05-02T11:50:53.124Z</time></trkpt><trkpt lat="45.9820007" lon="11.8087888"><ele>907.0</ele><time>2026-05-02T11:50:54.125Z</time></trkpt><trkpt lat="45.9821186" lon="11.8089563"><ele>907.0</ele><time>2026-05-02T11:50:55.124Z</time></trkpt><trkpt lat="45.982232" lon="11.8091201"><ele>907.0</ele><time>2026-05-02T11:50:56.125Z</time></trkpt><trkpt lat="45.9823439" lon="11.8092788"><ele>907.0</ele><time>2026-05-02T11:50:57.124Z</time></trkpt><trkpt lat="45.9824507" lon="11.8094313"><ele>904.5</ele><time>2026-05-02T11:50:58.125Z</time></trkpt><trkpt lat="45.9825612" lon="11.8095698"><ele>902.0</ele><time>2026-05-02T11:50:59.124Z</time></trkpt><trkpt lat="45.98268" lon="11.8096776"><ele>899.5</ele><time>2026-05-02T11:51:00.125Z</time></trkpt><trkpt lat="45.9827988" lon="11.8097716"><ele>897.0</ele><time>2026-05-02T11:51:01.124Z</time></trkpt><trkpt lat="45.9829179" lon="11.809873"><ele>897.0</ele><time>2026-05-02T11:51:02.125Z</time></trkpt><trkpt lat="45.9830269" lon="11.8100146"><ele>897.0</ele><time>2026-05-02T11:51:03.125Z</time></trkpt><trkpt lat="45.9831354" lon="11.8101696"><ele>897.0</ele><time>2026-05-02T11:51:04.124Z</time></trkpt><trkpt lat="45.9832297" lon="11.8103488"><ele>898.5</ele><time>2026-05-02T11:51:05.125Z</time></trkpt><trkpt lat="45.9833033" lon="11.810536"><ele>900.0</ele><time>2026-05-02T11:51:06.124Z</time></trkpt><trkpt lat="45.9833467" lon="11.8107212"><ele>901.5</ele><time>2026-05-02T11:51:07.125Z</time></trkpt><trkpt lat="45.9833686" lon="11.8108934"><ele>903.0</ele><time>2026-05-02T11:51:08.125Z</time></trkpt><trkpt lat="45.9833779" lon="11.8110427"><ele>899.8333333333334</ele><time>2026-05-02T11:51:09.125Z</time></trkpt><trkpt lat="45.9833923" lon="11.8111716"><ele>896.6666666666667</ele><time>2026-05-02T11:51:10.124Z</time></trkpt><trkpt lat="45.9834306" lon="11.8112698"><ele>893.5</ele><time>2026-05-02T11:51:11.125Z</time></trkpt><trkpt lat="45.9834928" lon="11.8113188"><ele>890.3333333333334</ele><time>2026-05-02T11:51:12.124Z</time></trkpt><trkpt lat="45.9835971" lon="11.8112596"><ele>887.1666666666667</ele><time>2026-05-02T11:51:14.125Z</time></trkpt><trkpt lat="45.9835986" lon="11.811143"><ele>884.0</ele><time>2026-05-02T11:51:15.124Z</time></trkpt><trkpt lat="45.9835619" lon="11.8109867"><ele>883.6666666666667</ele><time>2026-05-02T11:51:16.125Z</time></trkpt><trkpt lat="45.9835194" lon="11.8107802"><ele>883.3333333333333</ele><time>2026-05-02T11:51:17.124Z</time></trkpt><trkpt lat="45.9834954" lon="11.8105382"><ele>883.0</ele><time>2026-05-02T11:51:18.125Z</time></trkpt><trkpt lat="45.9834735" lon="11.8102902"><ele>883.0</ele><time>2026-05-02T11:51:19.124Z</time></trkpt><trkpt lat="45.9834258" lon="11.8100554"><ele>883.0</ele><time>2026-05-02T11:51:20.125Z</time></trkpt><trkpt lat="45.9833708" lon="11.8098226"><ele>883.0</ele><time>2026-05-02T11:51:21.124Z</time></trkpt><trkpt lat="45.9833443" lon="11.809595"><ele>885.25</ele><time>2026-05-02T11:51:22.125Z</time></trkpt><trkpt lat="45.9833318" lon="11.8093813"><ele>887.5</ele><time>2026-05-02T11:51:23.124Z</time></trkpt><trkpt lat="45.9832964" lon="11.809191"><ele>889.75</ele><time>2026-05-02T11:51:24.125Z</time></trkpt><trkpt lat="45.9832137" lon="11.8090193"><ele>892.0</ele><time>2026-05-02T11:51:25.124Z</time></trkpt><trkpt lat="45.9830939" lon="11.8088438"><ele>892.0</ele><time>2026-05-02T11:51:26.125Z</time></trkpt><trkpt lat="45.982968" lon="11.8086617"><ele>892.0</ele><time>2026-05-02T11:51:27.124Z</time></trkpt><trkpt lat="45.9828702" lon="11.8084656"><ele>892.0</ele><time>2026-05-02T11:51:28.124Z</time></trkpt><trkpt lat="45.9827844" lon="11.8082617"><ele>889.3333333333333</ele><time>2026-05-02T11:51:29.124Z</time></trkpt><trkpt lat="45.9826916" lon="11.8080566"><ele>886.6666666666667</ele><time>2026-05-02T11:51:30.124Z</time></trkpt><trkpt lat="45.9825803" lon="11.8078576"><ele>884.0</ele><time>2026-05-02T11:51:31.124Z</time></trkpt><trkpt lat="45.982463" lon="11.8076596"><ele>884.0</ele><time>2026-05-02T11:51:32.125Z</time></trkpt><trkpt lat="45.9823495" lon="11.8074583"><ele>884.0</ele><time>2026-05-02T11:51:33.124Z</time></trkpt><trkpt lat="45.982254" lon="11.8072683"><ele>884.0</ele><time>2026-05-02T11:51:34.124Z</time></trkpt><trkpt lat="45.9821556" lon="11.8071036"><ele>884.0</ele><time>2026-05-02T11:51:35.126Z</time></trkpt><trkpt lat="45.9820647" lon="11.8069485"><ele>884.0</ele><time>2026-05-02T11:51:36.125Z</time></trkpt><trkpt lat="45.9820012" lon="11.8067743"><ele>884.0</ele><time>2026-05-02T11:51:37.125Z</time></trkpt><trkpt lat="45.9819677" lon="11.806577"><ele>884.0</ele><time>2026-05-02T11:51:38.124Z</time></trkpt><trkpt lat="45.9819237" lon="11.8063797"><ele>879.0</ele><time>2026-05-02T11:51:39.124Z</time></trkpt><trkpt lat="45.9818696" lon="11.806185"><ele>874.0</ele><time>2026-05-02T11:51:40.125Z</time></trkpt><trkpt lat="45.9817614" lon="11.8060074"><ele>869.0</ele><time>2026-05-02T11:51:41.126Z</time></trkpt><trkpt lat="45.9816541" lon="11.8058382"><ele>868.5</ele><time>2026-05-02T11:51:42.125Z</time></trkpt><trkpt lat="45.9815486" lon="11.8056725"><ele>868.0</ele><time>2026-05-02T11:51:43.126Z</time></trkpt><trkpt lat="45.9814464" lon="11.8055276"><ele>867.5</ele><time>2026-05-02T11:51:44.125Z</time></trkpt><trkpt lat="45.9813464" lon="11.805408"><ele>867.0</ele><time>2026-05-02T11:51:45.126Z</time></trkpt><trkpt lat="45.9812573" lon="11.8053178"><ele>867.0</ele><time>2026-05-02T11:51:46.125Z</time></trkpt><trkpt lat="45.9811801" lon="11.8052375"><ele>867.0</ele><time>2026-05-02T11:51:47.125Z</time></trkpt><trkpt lat="45.9811167" lon="11.8051535"><ele>867.0</ele><time>2026-05-02T11:51:48.126Z</time></trkpt><trkpt lat="45.9810738" lon="11.805059"><ele>867.0</ele><time>2026-05-02T11:51:49.125Z</time></trkpt><trkpt lat="45.9811272" lon="11.8049223"><ele>867.0</ele><time>2026-05-02T11:51:51.125Z</time></trkpt><trkpt lat="45.981198" lon="11.8049325"><ele>867.0</ele><time>2026-05-02T11:51:52.126Z</time></trkpt><trkpt lat="45.9812757" lon="11.8050101"><ele>867.0</ele><time>2026-05-02T11:51:53.126Z</time></trkpt><trkpt lat="45.9813625" lon="11.8051272"><ele>867.0</ele><time>2026-05-02T11:51:54.126Z</time></trkpt><trkpt lat="45.9814724" lon="11.8052338"><ele>867.0</ele><time>2026-05-02T11:51:55.125Z</time></trkpt><trkpt lat="45.9816142" lon="11.8053145"><ele>867.0</ele><time>2026-05-02T11:51:56.126Z</time></trkpt><trkpt lat="45.981776" lon="11.8053793"><ele>862.3333333333333</ele><time>2026-05-02T11:51:57.125Z</time></trkpt><trkpt lat="45.9819395" lon="11.8054496"><ele>857.6666666666666</ele><time>2026-05-02T11:51:58.126Z</time></trkpt><trkpt lat="45.9821005" lon="11.8055219"><ele>853.0</ele><time>2026-05-02T11:51:59.126Z</time></trkpt><trkpt lat="45.9822558" lon="11.8056055"><ele>853.0</ele><time>2026-05-02T11:52:00.125Z</time></trkpt><trkpt lat="45.9824049" lon="11.8056972"><ele>853.0</ele><time>2026-05-02T11:52:01.125Z</time></trkpt><trkpt lat="45.9825427" lon="11.8057771"><ele>853.0</ele><time>2026-05-02T11:52:02.125Z</time></trkpt><trkpt lat="45.982677" lon="11.805837"><ele>853.5</ele><time>2026-05-02T11:52:03.125Z</time></trkpt><trkpt lat="45.9828062" lon="11.80587"><ele>854.0</ele><time>2026-05-02T11:52:04.126Z</time></trkpt><trkpt lat="45.9829364" lon="11.8058941"><ele>854.5</ele><time>2026-05-02T11:52:05.126Z</time></trkpt><trkpt lat="45.983058" lon="11.8059615"><ele>855.0</ele><time>2026-05-02T11:52:06.126Z</time></trkpt><trkpt lat="45.9831819" lon="11.8060475"><ele>855.0</ele><time>2026-05-02T11:52:07.125Z</time></trkpt><trkpt lat="45.9833131" lon="11.806143"><ele>855.0</ele><time>2026-05-02T11:52:08.125Z</time></trkpt><trkpt lat="45.9834432" lon="11.8062604"><ele>855.0</ele><time>2026-05-02T11:52:09.126Z</time></trkpt><trkpt lat="45.9835747" lon="11.8063937"><ele>852.6666666666667</ele><time>2026-05-02T11:52:10.126Z</time></trkpt><trkpt lat="45.9836952" lon="11.806551"><ele>850.3333333333334</ele><time>2026-05-02T11:52:11.126Z</time></trkpt><trkpt lat="45.9838239" lon="11.8067061"><ele>848.0</ele><time>2026-05-02T11:52:12.126Z</time></trkpt><trkpt lat="45.9839678" lon="11.8068408"><ele>848.0</ele><time>2026-05-02T11:52:13.126Z</time></trkpt><trkpt lat="45.9841155" lon="11.8069767"><ele>848.0</ele><time>2026-05-02T11:52:14.126Z</time></trkpt><trkpt lat="45.9842596" lon="11.8071111"><ele>848.0</ele><time>2026-05-02T11:52:15.126Z</time></trkpt><trkpt lat="45.9843916" lon="11.8072396"><ele>841.0</ele><time>2026-05-02T11:52:16.126Z</time></trkpt><trkpt lat="45.9845144" lon="11.8073428"><ele>834.0</ele><time>2026-05-02T11:52:17.125Z</time></trkpt><trkpt lat="45.9846588" lon="11.8074233"><ele>827.0</ele><time>2026-05-02T11:52:18.126Z</time></trkpt><trkpt lat="45.9847963" lon="11.8074975"><ele>820.0</ele><time>2026-05-02T11:52:19.126Z</time></trkpt><trkpt lat="45.9849366" lon="11.8076281"><ele>816.6666666666666</ele><time>2026-05-02T11:52:20.125Z</time></trkpt><trkpt lat="45.9850796" lon="11.8077594"><ele>813.3333333333333</ele><time>2026-05-02T11:52:21.125Z</time></trkpt><trkpt lat="45.9852137" lon="11.8079012"><ele>810.0</ele><time>2026-05-02T11:52:22.126Z</time></trkpt><trkpt lat="45.9853382" lon="11.8080664"><ele>810.0</ele><time>2026-05-02T11:52:23.126Z</time></trkpt><trkpt lat="45.985454" lon="11.808243"><ele>810.0</ele><time>2026-05-02T11:52:24.126Z</time></trkpt><trkpt lat="45.9855543" lon="11.8084302"><ele>810.0</ele><time>2026-05-02T11:52:25.125Z</time></trkpt><trkpt lat="45.9856563" lon="11.8086101"><ele>812.0</ele><time>2026-05-02T11:52:26.126Z</time></trkpt><trkpt lat="45.985741" lon="11.8087948"><ele>814.0</ele><time>2026-05-02T11:52:27.126Z</time></trkpt><trkpt lat="45.9858191" lon="11.8089766"><ele>816.0</ele><time>2026-05-02T11:52:28.126Z</time></trkpt><trkpt lat="45.9858615" lon="11.8091731"><ele>818.0</ele><time>2026-05-02T11:52:29.125Z</time></trkpt><trkpt lat="45.9859105" lon="11.8093681"><ele>810.6666666666667</ele><time>2026-05-02T11:52:30.126Z</time></trkpt><trkpt lat="45.9859836" lon="11.8095558"><ele>803.3333333333333</ele><time>2026-05-02T11:52:31.125Z</time></trkpt><trkpt lat="45.9860878" lon="11.8097263"><ele>796.0</ele><time>2026-05-02T11:52:32.126Z</time></trkpt><trkpt lat="45.9862034" lon="11.8098857"><ele>796.0</ele><time>2026-05-02T11:52:33.125Z</time></trkpt><trkpt lat="45.9863205" lon="11.8100548"><ele>796.0</ele><time>2026-05-02T11:52:34.126Z</time></trkpt><trkpt lat="45.9864262" lon="11.8102455"><ele>796.0</ele><time>2026-05-02T11:52:35.126Z</time></trkpt><trkpt lat="45.9865275" lon="11.8104426"><ele>800.0</ele><time>2026-05-02T11:52:36.127Z</time></trkpt><trkpt lat="45.9866185" lon="11.8106525"><ele>804.0</ele><time>2026-05-02T11:52:37.126Z</time></trkpt><trkpt lat="45.9867276" lon="11.8108209"><ele>808.0</ele><time>2026-05-02T11:52:38.127Z</time></trkpt><trkpt lat="45.9868393" lon="11.8109744"><ele>802.3333333333333</ele><time>2026-05-02T11:52:39.126Z</time></trkpt><trkpt lat="45.9869619" lon="11.8111044"><ele>796.6666666666667</ele><time>2026-05-02T11:52:40.126Z</time></trkpt><trkpt lat="45.987075" lon="11.8112613"><ele>791.0</ele><time>2026-05-02T11:52:41.127Z</time></trkpt><trkpt lat="45.987189" lon="11.8114295"><ele>791.0</ele><time>2026-05-02T11:52:42.127Z</time></trkpt><trkpt lat="45.9873035" lon="11.8116127"><ele>791.0</ele><time>2026-05-02T11:52:43.127Z</time></trkpt><trkpt lat="45.9874143" lon="11.8118186"><ele>791.0</ele><time>2026-05-02T11:52:44.127Z</time></trkpt><trkpt lat="45.9875194" lon="11.812026"><ele>783.0</ele><time>2026-05-02T11:52:45.127Z</time></trkpt><trkpt lat="45.9876269" lon="11.8122203"><ele>775.0</ele><time>2026-05-02T11:52:46.127Z</time></trkpt><trkpt lat="45.9877394" lon="11.8123969"><ele>767.0</ele><time>2026-05-02T11:52:47.126Z</time></trkpt><trkpt lat="45.9878458" lon="11.8125695"><ele>771.6666666666666</ele><time>2026-05-02T11:52:48.127Z</time></trkpt><trkpt lat="45.9879449" lon="11.8127474"><ele>776.3333333333333</ele><time>2026-05-02T11:52:49.126Z</time></trkpt><trkpt lat="45.9880105" lon="11.8129587"><ele>781.0</ele><time>2026-05-02T11:52:50.127Z</time></trkpt><trkpt lat="45.9880749" lon="11.8131704"><ele>781.0</ele><time>2026-05-02T11:52:51.127Z</time></trkpt><trkpt lat="45.9881405" lon="11.8133784"><ele>781.0</ele><time>2026-05-02T11:52:52.127Z</time></trkpt><trkpt lat="45.9882244" lon="11.8135543"><ele>781.0</ele><time>2026-05-02T11:52:53.126Z</time></trkpt><trkpt lat="45.9883269" lon="11.8136905"><ele>781.0</ele><time>2026-05-02T11:52:54.126Z</time></trkpt><trkpt lat="45.9884317" lon="11.8138128"><ele>777.75</ele><time>2026-05-02T11:52:55.127Z</time></trkpt><trkpt lat="45.988564" lon="11.8138794"><ele>774.5</ele><time>2026-05-02T11:52:56.127Z</time></trkpt><trkpt lat="45.9886941" lon="11.8139471"><ele>771.25</ele><time>2026-05-02T11:52:57.127Z</time></trkpt><trkpt lat="45.988823" lon="11.8140623"><ele>768.0</ele><time>2026-05-02T11:52:58.126Z</time></trkpt><trkpt lat="45.9889339" lon="11.8142659"><ele>770.6666666666667</ele><time>2026-05-02T11:52:59.126Z</time></trkpt><trkpt lat="45.9890452" lon="11.8144693"><ele>773.3333333333334</ele><time>2026-05-02T11:53:00.127Z</time></trkpt><trkpt lat="45.9891561" lon="11.8146742"><ele>776.0</ele><time>2026-05-02T11:53:01.126Z</time></trkpt><trkpt lat="45.989273" lon="11.8148507"><ele>772.3333333333334</ele><time>2026-05-02T11:53:02.127Z</time></trkpt><trkpt lat="45.9894029" lon="11.8149856"><ele>768.6666666666667</ele><time>2026-05-02T11:53:03.127Z</time></trkpt><trkpt lat="45.9895362" lon="11.8150932"><ele>765.0</ele><time>2026-05-02T11:53:04.126Z</time></trkpt><trkpt lat="45.989668" lon="11.8151917"><ele>765.0</ele><time>2026-05-02T11:53:05.127Z</time></trkpt><trkpt lat="45.9897808" lon="11.8152786"><ele>765.0</ele><time>2026-05-02T11:53:06.127Z</time></trkpt><trkpt lat="45.9898776" lon="11.8153643"><ele>765.0</ele><time>2026-05-02T11:53:07.127Z</time></trkpt><trkpt lat="45.9899625" lon="11.8154402"><ele>765.0</ele><time>2026-05-02T11:53:08.126Z</time></trkpt><trkpt lat="45.9900416" lon="11.8154685"><ele>765.0</ele><time>2026-05-02T11:53:09.126Z</time></trkpt><trkpt lat="45.9901161" lon="11.8154418"><ele>760.0</ele><time>2026-05-02T11:53:10.126Z</time></trkpt><trkpt lat="45.9901707" lon="11.8153568"><ele>755.0</ele><time>2026-05-02T11:53:11.126Z</time></trkpt><trkpt lat="45.9902008" lon="11.8152157"><ele>750.0</ele><time>2026-05-02T11:53:12.127Z</time></trkpt><trkpt lat="45.990196" lon="11.8150358"><ele>745.0</ele><time>2026-05-02T11:53:13.126Z</time></trkpt><trkpt lat="45.9901623" lon="11.814836"><ele>743.75</ele><time>2026-05-02T11:53:14.126Z</time></trkpt><trkpt lat="45.9901238" lon="11.8146275"><ele>742.5</ele><time>2026-05-02T11:53:15.127Z</time></trkpt><trkpt lat="45.9901115" lon="11.8144205"><ele>741.25</ele><time>2026-05-02T11:53:16.126Z</time></trkpt><trkpt lat="45.9901355" lon="11.8142287"><ele>740.0</ele><time>2026-05-02T11:53:17.126Z</time></trkpt><trkpt lat="45.9901626" lon="11.8140523"><ele>739.0</ele><time>2026-05-02T11:53:18.126Z</time></trkpt><trkpt lat="45.9901995" lon="11.8138816"><ele>738.0</ele><time>2026-05-02T11:53:19.127Z</time></trkpt><trkpt lat="45.9901991" lon="11.8136806"><ele>737.0</ele><time>2026-05-02T11:53:20.127Z</time></trkpt><trkpt lat="45.9901714" lon="11.8134483"><ele>736.0</ele><time>2026-05-02T11:53:21.127Z</time></trkpt><trkpt lat="45.9901411" lon="11.8132035"><ele>733.6666666666667</ele><time>2026-05-02T11:53:22.127Z</time></trkpt><trkpt lat="45.9901158" lon="11.8129561"><ele>731.3333333333334</ele><time>2026-05-02T11:53:23.127Z</time></trkpt><trkpt lat="45.9900964" lon="11.8127185"><ele>729.0</ele><time>2026-05-02T11:53:24.126Z</time></trkpt><trkpt lat="45.9900617" lon="11.8124921"><ele>731.6666666666666</ele><time>2026-05-02T11:53:25.127Z</time></trkpt><trkpt lat="45.9900238" lon="11.8122727"><ele>734.3333333333333</ele><time>2026-05-02T11:53:26.127Z</time></trkpt><trkpt lat="45.989974" lon="11.8120686"><ele>737.0</ele><time>2026-05-02T11:53:27.126Z</time></trkpt><trkpt lat="45.9899241" lon="11.8118721"><ele>733.5</ele><time>2026-05-02T11:53:28.127Z</time></trkpt><trkpt lat="45.9898736" lon="11.8116885"><ele>730.0</ele><time>2026-05-02T11:53:29.126Z</time></trkpt><trkpt lat="45.9898199" lon="11.8115239"><ele>726.5</ele><time>2026-05-02T11:53:30.126Z</time></trkpt><trkpt lat="45.9897574" lon="11.8113747"><ele>723.0</ele><time>2026-05-02T11:53:31.127Z</time></trkpt><trkpt lat="45.9896909" lon="11.8112416"><ele>723.0</ele><time>2026-05-02T11:53:32.128Z</time></trkpt><trkpt lat="45.9896123" lon="11.8111261"><ele>723.0</ele><time>2026-05-02T11:53:33.128Z</time></trkpt><trkpt lat="45.9895334" lon="11.8110226"><ele>723.0</ele><time>2026-05-02T11:53:34.128Z</time></trkpt><trkpt lat="45.9894735" lon="11.8109258"><ele>723.0</ele><time>2026-05-02T11:53:35.128Z</time></trkpt><trkpt lat="45.9894535" lon="11.8108159"><ele>723.0</ele><time>2026-05-02T11:53:36.128Z</time></trkpt><trkpt lat="45.9894812" lon="11.8107232"><ele>723.0</ele><time>2026-05-02T11:53:37.128Z</time></trkpt><trkpt lat="45.9896006" lon="11.8107304"><ele>723.0</ele><time>2026-05-02T11:53:39.127Z</time></trkpt><trkpt lat="45.9896676" lon="11.8108169"><ele>723.0</ele><time>2026-05-02T11:53:40.127Z</time></trkpt><trkpt lat="45.9897528" lon="11.8109239"><ele>723.0</ele><time>2026-05-02T11:53:41.128Z</time></trkpt><trkpt lat="45.9898594" lon="11.8110247"><ele>723.0</ele><time>2026-05-02T11:53:42.127Z</time></trkpt><trkpt lat="45.9899717" lon="11.8111016"><ele>723.0</ele><time>2026-05-02T11:53:43.128Z</time></trkpt><trkpt lat="45.990072" lon="11.8111914"><ele>723.0</ele><time>2026-05-02T11:53:44.128Z</time></trkpt><trkpt lat="45.990152" lon="11.8113284"><ele>723.0</ele><time>2026-05-02T11:53:45.128Z</time></trkpt><trkpt lat="45.9902332" lon="11.8114748"><ele>721.0</ele><time>2026-05-02T11:53:46.128Z</time></trkpt><trkpt lat="45.9902994" lon="11.8116287"><ele>719.0</ele><time>2026-05-02T11:53:47.128Z</time></trkpt><trkpt lat="45.9903886" lon="11.8117512"><ele>717.0</ele><time>2026-05-02T11:53:48.127Z</time></trkpt><trkpt lat="45.9904981" lon="11.8118379"><ele>715.0</ele><time>2026-05-02T11:53:49.128Z</time></trkpt><trkpt lat="45.9906194" lon="11.8118915"><ele>715.0</ele><time>2026-05-02T11:53:50.128Z</time></trkpt><trkpt lat="45.9907461" lon="11.8119248"><ele>715.0</ele><time>2026-05-02T11:53:51.128Z</time></trkpt><trkpt lat="45.9908717" lon="11.8119596"><ele>715.0</ele><time>2026-05-02T11:53:52.128Z</time></trkpt><trkpt lat="45.9909903" lon="11.8120021"><ele>715.0</ele><time>2026-05-02T11:53:53.128Z</time></trkpt><trkpt lat="45.9910994" lon="11.8120608"><ele>711.0</ele><time>2026-05-02T11:53:54.128Z</time></trkpt><trkpt lat="45.9912039" lon="11.812131"><ele>707.0</ele><time>2026-05-02T11:53:55.128Z</time></trkpt><trkpt lat="45.9912985" lon="11.8122392"><ele>703.0</ele><time>2026-05-02T11:53:56.127Z</time></trkpt><trkpt lat="45.9913798" lon="11.8123632"><ele>699.0</ele><time>2026-05-02T11:53:57.128Z</time></trkpt><trkpt lat="45.9914606" lon="11.8124841"><ele>699.0</ele><time>2026-05-02T11:53:58.128Z</time></trkpt><trkpt lat="45.9915551" lon="11.8125941"><ele>699.0</ele><time>2026-05-02T11:53:59.127Z</time></trkpt><trkpt lat="45.991666" lon="11.8126884"><ele>699.0</ele><time>2026-05-02T11:54:00.128Z</time></trkpt><trkpt lat="45.9917935" lon="11.8127614"><ele>699.0</ele><time>2026-05-02T11:54:01.127Z</time></trkpt><trkpt lat="45.9919197" lon="11.8128274"><ele>695.75</ele><time>2026-05-02T11:54:02.128Z</time></trkpt><trkpt lat="45.9920329" lon="11.8129158"><ele>692.5</ele><time>2026-05-02T11:54:03.127Z</time></trkpt><trkpt lat="45.9921355" lon="11.8130485"><ele>689.25</ele><time>2026-05-02T11:54:04.128Z</time></trkpt><trkpt lat="45.992234" lon="11.813212"><ele>686.0</ele><time>2026-05-02T11:54:05.128Z</time></trkpt><trkpt lat="45.9923343" lon="11.813381"><ele>688.0</ele><time>2026-05-02T11:54:06.128Z</time></trkpt><trkpt lat="45.9924429" lon="11.8135519"><ele>690.0</ele><time>2026-05-02T11:54:07.127Z</time></trkpt><trkpt lat="45.9925528" lon="11.813716"><ele>692.0</ele><time>2026-05-02T11:54:08.128Z</time></trkpt><trkpt lat="45.99267" lon="11.8138629"><ele>685.75</ele><time>2026-05-02T11:54:09.127Z</time></trkpt><trkpt lat="45.992783" lon="11.8140066"><ele>679.5</ele><time>2026-05-02T11:54:10.128Z</time></trkpt><trkpt lat="45.9928819" lon="11.8141447"><ele>673.25</ele><time>2026-05-02T11:54:11.127Z</time></trkpt><trkpt lat="45.9929649" lon="11.814271"><ele>667.0</ele><time>2026-05-02T11:54:12.127Z</time></trkpt><trkpt lat="45.9930266" lon="11.8144131"><ele>667.0</ele><time>2026-05-02T11:54:13.128Z</time></trkpt><trkpt lat="45.9930783" lon="11.8145617"><ele>667.0</ele><time>2026-05-02T11:54:14.127Z</time></trkpt><trkpt lat="45.9931176" lon="11.8147431"><ele>667.0</ele><time>2026-05-02T11:54:15.128Z</time></trkpt><trkpt lat="45.9931775" lon="11.8149132"><ele>667.0</ele><time>2026-05-02T11:54:16.127Z</time></trkpt><trkpt lat="45.9932218" lon="11.8150843"><ele>666.0</ele><time>2026-05-02T11:54:17.128Z</time></trkpt><trkpt lat="45.9932321" lon="11.8152627"><ele>665.0</ele><time>2026-05-02T11:54:18.127Z</time></trkpt><trkpt lat="45.9932231" lon="11.8154446"><ele>664.0</ele><time>2026-05-02T11:54:19.128Z</time></trkpt><trkpt lat="45.9931878" lon="11.8156288"><ele>663.0</ele><time>2026-05-02T11:54:20.128Z</time></trkpt><trkpt lat="45.9931256" lon="11.8158095"><ele>657.0</ele><time>2026-05-02T11:54:21.127Z</time></trkpt><trkpt lat="45.9930415" lon="11.8160015"><ele>651.0</ele><time>2026-05-02T11:54:22.128Z</time></trkpt><trkpt lat="45.9929422" lon="11.8161907"><ele>645.0</ele><time>2026-05-02T11:54:23.127Z</time></trkpt><trkpt lat="45.9928444" lon="11.8163626"><ele>645.0</ele><time>2026-05-02T11:54:24.127Z</time></trkpt><trkpt lat="45.9927528" lon="11.8165236"><ele>645.0</ele><time>2026-05-02T11:54:25.127Z</time></trkpt><trkpt lat="45.9926665" lon="11.8166743"><ele>645.0</ele><time>2026-05-02T11:54:26.128Z</time></trkpt><trkpt lat="45.9925849" lon="11.8167933"><ele>645.0</ele><time>2026-05-02T11:54:27.128Z</time></trkpt><trkpt lat="45.9925007" lon="11.8168689"><ele>645.8333333333334</ele><time>2026-05-02T11:54:28.128Z</time></trkpt><trkpt lat="45.99242" lon="11.8169216"><ele>646.6666666666666</ele><time>2026-05-02T11:54:29.129Z</time></trkpt><trkpt lat="45.9923319" lon="11.8169321"><ele>647.5</ele><time>2026-05-02T11:54:30.128Z</time></trkpt><trkpt lat="45.9922461" lon="11.8169473"><ele>648.3333333333333</ele><time>2026-05-02T11:54:31.129Z</time></trkpt><trkpt lat="45.9921896" lon="11.81703"><ele>649.1666666666666</ele><time>2026-05-02T11:54:32.128Z</time></trkpt><trkpt lat="45.9921567" lon="11.8171552"><ele>650.0</ele><time>2026-05-02T11:54:33.128Z</time></trkpt><trkpt lat="45.9921547" lon="11.8173086"><ele>650.0</ele><time>2026-05-02T11:54:34.128Z</time></trkpt><trkpt lat="45.9921474" lon="11.817476"><ele>650.0</ele><time>2026-05-02T11:54:35.129Z</time></trkpt><trkpt lat="45.9921107" lon="11.8176318"><ele>650.0</ele><time>2026-05-02T11:54:36.128Z</time></trkpt><trkpt lat="45.992061" lon="11.8177651"><ele>650.0</ele><time>2026-05-02T11:54:37.128Z</time></trkpt><trkpt lat="45.9920235" lon="11.8178883"><ele>650.0</ele><time>2026-05-02T11:54:38.129Z</time></trkpt><trkpt lat="45.9920171" lon="11.8180169"><ele>650.0</ele><time>2026-05-02T11:54:39.128Z</time></trkpt><trkpt lat="45.9920465" lon="11.8181508"><ele>650.0</ele><time>2026-05-02T11:54:40.128Z</time></trkpt><trkpt lat="45.9920968" lon="11.8182771"><ele>650.0</ele><time>2026-05-02T11:54:41.129Z</time></trkpt><trkpt lat="45.9921677" lon="11.8183806"><ele>650.0</ele><time>2026-05-02T11:54:42.128Z</time></trkpt><trkpt lat="45.9922367" lon="11.8184673"><ele>650.0</ele><time>2026-05-02T11:54:43.129Z</time></trkpt><trkpt lat="45.9923603" lon="11.818515"><ele>651.25</ele><time>2026-05-02T11:54:44.128Z</time></trkpt><trkpt lat="45.9924898" lon="11.8185467"><ele>652.5</ele><time>2026-05-02T11:54:45.128Z</time></trkpt><trkpt lat="45.9926157" lon="11.8185422"><ele>653.75</ele><time>2026-05-02T11:54:46.129Z</time></trkpt><trkpt lat="45.9927363" lon="11.8184894"><ele>655.0</ele><time>2026-05-02T11:54:47.129Z</time></trkpt><trkpt lat="45.9928544" lon="11.8184093"><ele>650.25</ele><time>2026-05-02T11:54:48.129Z</time></trkpt><trkpt lat="45.9929769" lon="11.8183319"><ele>645.5</ele><time>2026-05-02T11:54:49.128Z</time></trkpt><trkpt lat="45.993129" lon="11.8183062"><ele>640.75</ele><time>2026-05-02T11:54:50.129Z</time></trkpt><trkpt lat="45.9932739" lon="11.8182942"><ele>636.0</ele><time>2026-05-02T11:54:51.129Z</time></trkpt><trkpt lat="45.9934191" lon="11.8182845"><ele>633.0</ele><time>2026-05-02T11:54:52.128Z</time></trkpt><trkpt lat="45.993543" lon="11.8183017"><ele>630.0</ele><time>2026-05-02T11:54:53.129Z</time></trkpt><trkpt lat="45.9936615" lon="11.8183311"><ele>627.0</ele><time>2026-05-02T11:54:54.129Z</time></trkpt><trkpt lat="45.9937786" lon="11.818427"><ele>624.0</ele><time>2026-05-02T11:54:55.128Z</time></trkpt><trkpt lat="45.9938917" lon="11.8185635"><ele>624.0</ele><time>2026-05-02T11:54:56.128Z</time></trkpt><trkpt lat="45.9939854" lon="11.8187262"><ele>624.0</ele><time>2026-05-02T11:54:57.129Z</time></trkpt><trkpt lat="45.9940504" lon="11.8189062"><ele>624.0</ele><time>2026-05-02T11:54:58.129Z</time></trkpt><trkpt lat="45.9940834" lon="11.8190943"><ele>624.0</ele><time>2026-05-02T11:54:59.128Z</time></trkpt><trkpt lat="45.9940953" lon="11.8192955"><ele>624.3333333333334</ele><time>2026-05-02T11:55:00.129Z</time></trkpt><trkpt lat="45.9940999" lon="11.8195089"><ele>624.6666666666667</ele><time>2026-05-02T11:55:01.128Z</time></trkpt><trkpt lat="45.9941046" lon="11.8197293"><ele>625.0</ele><time>2026-05-02T11:55:02.129Z</time></trkpt><trkpt lat="45.9941172" lon="11.8199536"><ele>624.75</ele><time>2026-05-02T11:55:03.128Z</time></trkpt><trkpt lat="45.994137" lon="11.8201704"><ele>624.5</ele><time>2026-05-02T11:55:04.129Z</time></trkpt><trkpt lat="45.9941501" lon="11.8203815"><ele>624.25</ele><time>2026-05-02T11:55:05.129Z</time></trkpt><trkpt lat="45.9941549" lon="11.8205864"><ele>624.0</ele><time>2026-05-02T11:55:06.129Z</time></trkpt><trkpt lat="45.9941556" lon="11.8207871"><ele>622.75</ele><time>2026-05-02T11:55:07.129Z</time></trkpt><trkpt lat="45.9941566" lon="11.8209836"><ele>621.5</ele><time>2026-05-02T11:55:08.128Z</time></trkpt><trkpt lat="45.9941572" lon="11.8211798"><ele>620.25</ele><time>2026-05-02T11:55:09.128Z</time></trkpt><trkpt lat="45.9941609" lon="11.821377"><ele>619.0</ele><time>2026-05-02T11:55:10.128Z</time></trkpt><trkpt lat="45.9941634" lon="11.8215628"><ele>619.0</ele><time>2026-05-02T11:55:11.128Z</time></trkpt><trkpt lat="45.9941672" lon="11.8217454"><ele>619.0</ele><time>2026-05-02T11:55:12.129Z</time></trkpt><trkpt lat="45.9941778" lon="11.8219222"><ele>619.0</ele><time>2026-05-02T11:55:13.129Z</time></trkpt><trkpt lat="45.9941941" lon="11.8220957"><ele>619.0</ele><time>2026-05-02T11:55:14.128Z</time></trkpt><trkpt lat="45.994218" lon="11.8222746"><ele>613.75</ele><time>2026-05-02T11:55:15.129Z</time></trkpt><trkpt lat="45.9942412" lon="11.8224614"><ele>608.5</ele><time>2026-05-02T11:55:16.128Z</time></trkpt><trkpt lat="45.9942285" lon="11.8226555"><ele>603.25</ele><time>2026-05-02T11:55:17.129Z</time></trkpt><trkpt lat="45.9941979" lon="11.8228396"><ele>598.0</ele><time>2026-05-02T11:55:18.128Z</time></trkpt><trkpt lat="45.9941426" lon="11.8230229"><ele>598.0</ele><time>2026-05-02T11:55:19.129Z</time></trkpt><trkpt lat="45.994079" lon="11.8232005"><ele>598.0</ele><time>2026-05-02T11:55:20.128Z</time></trkpt><trkpt lat="45.9940015" lon="11.8233551"><ele>598.0</ele><time>2026-05-02T11:55:21.13Z</time></trkpt><trkpt lat="45.9939149" lon="11.8234937"><ele>598.0</ele><time>2026-05-02T11:55:22.129Z</time></trkpt><trkpt lat="45.9938412" lon="11.8236357"><ele>593.75</ele><time>2026-05-02T11:55:23.13Z</time></trkpt><trkpt lat="45.9937996" lon="11.8237984"><ele>589.5</ele><time>2026-05-02T11:55:24.13Z</time></trkpt><trkpt lat="45.9937835" lon="11.8239795"><ele>585.25</ele><time>2026-05-02T11:55:25.129Z</time></trkpt><trkpt lat="45.9937548" lon="11.8241714"><ele>581.0</ele><time>2026-05-02T11:55:26.13Z</time></trkpt><trkpt lat="45.9936959" lon="11.8243566"><ele>574.6666666666666</ele><time>2026-05-02T11:55:27.129Z</time></trkpt><trkpt lat="45.9936284" lon="11.8245443"><ele>568.3333333333334</ele><time>2026-05-02T11:55:28.129Z</time></trkpt><trkpt lat="45.9935687" lon="11.8247422"><ele>562.0</ele><time>2026-05-02T11:55:29.129Z</time></trkpt><trkpt lat="45.993516" lon="11.8249495"><ele>556.25</ele><time>2026-05-02T11:55:30.13Z</time></trkpt><trkpt lat="45.9934731" lon="11.8251568"><ele>550.5</ele><time>2026-05-02T11:55:31.129Z</time></trkpt><trkpt lat="45.9934518" lon="11.8253646"><ele>544.75</ele><time>2026-05-02T11:55:32.129Z</time></trkpt><trkpt lat="45.9934404" lon="11.8255701"><ele>539.0</ele><time>2026-05-02T11:55:33.129Z</time></trkpt><trkpt lat="45.9934162" lon="11.8257681"><ele>539.0</ele><time>2026-05-02T11:55:34.129Z</time></trkpt><trkpt lat="45.9933704" lon="11.8259594"><ele>539.0</ele><time>2026-05-02T11:55:35.13Z</time></trkpt><trkpt lat="45.9933099" lon="11.8261449"><ele>539.0</ele><time>2026-05-02T11:55:36.13Z</time></trkpt><trkpt lat="45.9932613" lon="11.826331"><ele>539.0</ele><time>2026-05-02T11:55:37.13Z</time></trkpt><trkpt lat="45.993221" lon="11.8265155"><ele>539.0</ele><time>2026-05-02T11:55:38.13Z</time></trkpt><trkpt lat="45.9931855" lon="11.8266966"><ele>539.0</ele><time>2026-05-02T11:55:39.13Z</time></trkpt><trkpt lat="45.9931174" lon="11.8268615"><ele>539.0</ele><time>2026-05-02T11:55:40.13Z</time></trkpt><trkpt lat="45.993033" lon="11.8270389"><ele>539.0</ele><time>2026-05-02T11:55:41.13Z</time></trkpt><trkpt lat="45.9929482" lon="11.8272199"><ele>539.0</ele><time>2026-05-02T11:55:42.13Z</time></trkpt><trkpt lat="45.9928668" lon="11.8273961"><ele>539.0</ele><time>2026-05-02T11:55:43.13Z</time></trkpt><trkpt lat="45.992789" lon="11.8275663"><ele>539.0</ele><time>2026-05-02T11:55:44.13Z</time></trkpt><trkpt lat="45.9927247" lon="11.8277424"><ele>539.0</ele><time>2026-05-02T11:55:45.13Z</time></trkpt><trkpt lat="45.9926637" lon="11.827915"><ele>541.5</ele><time>2026-05-02T11:55:46.13Z</time></trkpt><trkpt lat="45.9925978" lon="11.828082"><ele>544.0</ele><time>2026-05-02T11:55:47.13Z</time></trkpt><trkpt lat="45.9925244" lon="11.8282346"><ele>546.5</ele><time>2026-05-02T11:55:48.13Z</time></trkpt><trkpt lat="45.9924546" lon="11.8283761"><ele>549.0</ele><time>2026-05-02T11:55:49.129Z</time></trkpt><trkpt lat="45.9924103" lon="11.8285255"><ele>549.0</ele><time>2026-05-02T11:55:50.13Z</time></trkpt><trkpt lat="45.9923977" lon="11.8286957"><ele>549.0</ele><time>2026-05-02T11:55:51.129Z</time></trkpt><trkpt lat="45.9923858" lon="11.8288805"><ele>549.0</ele><time>2026-05-02T11:55:52.13Z</time></trkpt><trkpt lat="45.9923459" lon="11.8290938"><ele>549.0</ele><time>2026-05-02T11:55:53.13Z</time></trkpt><trkpt lat="45.9923048" lon="11.8292959"><ele>543.0</ele><time>2026-05-02T11:55:54.129Z</time></trkpt><trkpt lat="45.9922676" lon="11.8294967"><ele>537.0</ele><time>2026-05-02T11:55:55.129Z</time></trkpt><trkpt lat="45.9922545" lon="11.8297133"><ele>531.0</ele><time>2026-05-02T11:55:56.13Z</time></trkpt><trkpt lat="45.9922338" lon="11.8299352"><ele>524.0</ele><time>2026-05-02T11:55:57.13Z</time></trkpt><trkpt lat="45.9921895" lon="11.830156"><ele>517.0</ele><time>2026-05-02T11:55:58.129Z</time></trkpt><trkpt lat="45.9921238" lon="11.830367"><ele>510.0</ele><time>2026-05-02T11:55:59.129Z</time></trkpt><trkpt lat="45.9920501" lon="11.8305581"><ele>510.0</ele><time>2026-05-02T11:56:00.13Z</time></trkpt><trkpt lat="45.9919861" lon="11.8307297"><ele>510.0</ele><time>2026-05-02T11:56:01.129Z</time></trkpt><trkpt lat="45.9919302" lon="11.8308925"><ele>510.0</ele><time>2026-05-02T11:56:02.129Z</time></trkpt><trkpt lat="45.9918637" lon="11.8310394"><ele>510.0</ele><time>2026-05-02T11:56:03.129Z</time></trkpt><trkpt lat="45.9917871" lon="11.8311626"><ele>512.3333333333334</ele><time>2026-05-02T11:56:04.129Z</time></trkpt><trkpt lat="45.9916998" lon="11.8312552"><ele>514.6666666666666</ele><time>2026-05-02T11:56:05.13Z</time></trkpt><trkpt lat="45.9916156" lon="11.8313295"><ele>517.0</ele><time>2026-05-02T11:56:06.13Z</time></trkpt><trkpt lat="45.9915374" lon="11.8313917"><ele>519.3333333333333</ele><time>2026-05-02T11:56:07.129Z</time></trkpt><trkpt lat="45.991466" lon="11.8314419"><ele>521.6666666666666</ele><time>2026-05-02T11:56:08.129Z</time></trkpt><trkpt lat="45.9914062" lon="11.8314919"><ele>524.0</ele><time>2026-05-02T11:56:09.13Z</time></trkpt><trkpt lat="45.9913584" lon="11.8316343"><ele>524.0</ele><time>2026-05-02T11:56:11.129Z</time></trkpt><trkpt lat="45.99144" lon="11.8317398"><ele>524.0</ele><time>2026-05-02T11:56:13.129Z</time></trkpt><trkpt lat="45.9915055" lon="11.8317243"><ele>524.0</ele><time>2026-05-02T11:56:14.129Z</time></trkpt><trkpt lat="45.9915663" lon="11.8316639"><ele>524.0</ele><time>2026-05-02T11:56:15.13Z</time></trkpt><trkpt lat="45.9916272" lon="11.8315815"><ele>524.0</ele><time>2026-05-02T11:56:16.129Z</time></trkpt><trkpt lat="45.9916843" lon="11.8315069"><ele>524.0</ele><time>2026-05-02T11:56:17.13Z</time></trkpt><trkpt lat="45.9917373" lon="11.8314382"><ele>521.2</ele><time>2026-05-02T11:56:18.131Z</time></trkpt><trkpt lat="45.9917895" lon="11.8313768"><ele>518.4</ele><time>2026-05-02T11:56:19.131Z</time></trkpt><trkpt lat="45.9918887" lon="11.8312645"><ele>515.6</ele><time>2026-05-02T11:56:21.131Z</time></trkpt><trkpt lat="45.9919417" lon="11.831191"><ele>512.8</ele><time>2026-05-02T11:56:22.131Z</time></trkpt><trkpt lat="45.9920156" lon="11.8310982"><ele>510.0</ele><time>2026-05-02T11:56:23.13Z</time></trkpt><trkpt lat="45.9920994" lon="11.8309716"><ele>510.0</ele><time>2026-05-02T11:56:24.13Z</time></trkpt><trkpt lat="45.9921793" lon="11.8308093"><ele>510.0</ele><time>2026-05-02T11:56:25.131Z</time></trkpt><trkpt lat="45.9922659" lon="11.8306346"><ele>510.0</ele><time>2026-05-02T11:56:26.13Z</time></trkpt><trkpt lat="45.9923518" lon="11.8304516"><ele>510.0</ele><time>2026-05-02T11:56:27.13Z</time></trkpt><trkpt lat="45.9924273" lon="11.8302511"><ele>515.25</ele><time>2026-05-02T11:56:28.131Z</time></trkpt><trkpt lat="45.9924984" lon="11.8300602"><ele>520.5</ele><time>2026-05-02T11:56:29.13Z</time></trkpt><trkpt lat="45.9925668" lon="11.8298774"><ele>525.75</ele><time>2026-05-02T11:56:30.13Z</time></trkpt><trkpt lat="45.9926324" lon="11.8297042"><ele>531.0</ele><time>2026-05-02T11:56:31.131Z</time></trkpt><trkpt lat="45.9926986" lon="11.8295369"><ele>521.75</ele><time>2026-05-02T11:56:32.131Z</time></trkpt><trkpt lat="45.9927763" lon="11.8293867"><ele>512.5</ele><time>2026-05-02T11:56:33.13Z</time></trkpt><trkpt lat="45.9928413" lon="11.8292356"><ele>503.25</ele><time>2026-05-02T11:56:34.131Z</time></trkpt><trkpt lat="45.9928899" lon="11.8290716"><ele>494.0</ele><time>2026-05-02T11:56:35.131Z</time></trkpt><trkpt lat="45.9929509" lon="11.828916"><ele>494.0</ele><time>2026-05-02T11:56:36.131Z</time></trkpt><trkpt lat="45.993036" lon="11.8287795"><ele>494.0</ele><time>2026-05-02T11:56:37.13Z</time></trkpt><trkpt lat="45.9931355" lon="11.8286524"><ele>494.0</ele><time>2026-05-02T11:56:38.13Z</time></trkpt><trkpt lat="45.9932335" lon="11.828526"><ele>494.0</ele><time>2026-05-02T11:56:39.131Z</time></trkpt><trkpt lat="45.993327" lon="11.8283881"><ele>487.75</ele><time>2026-05-02T11:56:40.131Z</time></trkpt><trkpt lat="45.9934243" lon="11.8282373"><ele>481.5</ele><time>2026-05-02T11:56:41.13Z</time></trkpt><trkpt lat="45.9935173" lon="11.8280943"><ele>475.25</ele><time>2026-05-02T11:56:42.13Z</time></trkpt><trkpt lat="45.9936027" lon="11.8279551"><ele>469.0</ele><time>2026-05-02T11:56:43.131Z</time></trkpt><trkpt lat="45.9936827" lon="11.827824"><ele>469.0</ele><time>2026-05-02T11:56:44.131Z</time></trkpt><trkpt lat="45.993764" lon="11.8277171"><ele>469.0</ele><time>2026-05-02T11:56:45.131Z</time></trkpt><trkpt lat="45.9938415" lon="11.8276145"><ele>469.0</ele><time>2026-05-02T11:56:46.131Z</time></trkpt><trkpt lat="45.993918" lon="11.8275122"><ele>469.0</ele><time>2026-05-02T11:56:47.13Z</time></trkpt><trkpt lat="45.9939876" lon="11.8273995"><ele>469.0</ele><time>2026-05-02T11:56:48.131Z</time></trkpt><trkpt lat="45.9940424" lon="11.8272636"><ele>467.75</ele><time>2026-05-02T11:56:49.13Z</time></trkpt><trkpt lat="45.9941002" lon="11.8271124"><ele>466.5</ele><time>2026-05-02T11:56:50.131Z</time></trkpt><trkpt lat="45.9941762" lon="11.8269705"><ele>465.25</ele><time>2026-05-02T11:56:51.131Z</time></trkpt><trkpt lat="45.9942643" lon="11.8268385"><ele>464.0</ele><time>2026-05-02T11:56:52.131Z</time></trkpt><trkpt lat="45.9943452" lon="11.8266975"><ele>464.0</ele><time>2026-05-02T11:56:53.13Z</time></trkpt><trkpt lat="45.9944212" lon="11.8265568"><ele>464.0</ele><time>2026-05-02T11:56:54.131Z</time></trkpt><trkpt lat="45.9944941" lon="11.8264193"><ele>464.0</ele><time>2026-05-02T11:56:55.131Z</time></trkpt><trkpt lat="45.9945667" lon="11.8262908"><ele>464.0</ele><time>2026-05-02T11:56:56.131Z</time></trkpt><trkpt lat="45.9946348" lon="11.8261699"><ele>464.0</ele><time>2026-05-02T11:56:57.131Z</time></trkpt><trkpt lat="45.9947017" lon="11.8260533"><ele>464.0</ele><time>2026-05-02T11:56:58.13Z</time></trkpt><trkpt lat="45.9947713" lon="11.8259329"><ele>464.0</ele><time>2026-05-02T11:56:59.13Z</time></trkpt><trkpt lat="45.9948374" lon="11.8258139"><ele>464.0</ele><time>2026-05-02T11:57:00.13Z</time></trkpt><trkpt lat="45.9948983" lon="11.8256986"><ele>464.0</ele><time>2026-05-02T11:57:01.131Z</time></trkpt><trkpt lat="45.9949465" lon="11.8255757"><ele>469.25</ele><time>2026-05-02T11:57:02.131Z</time></trkpt><trkpt lat="45.9949785" lon="11.8254309"><ele>474.5</ele><time>2026-05-02T11:57:03.131Z</time></trkpt><trkpt lat="45.9950074" lon="11.8252688"><ele>479.75</ele><time>2026-05-02T11:57:04.13Z</time></trkpt><trkpt lat="45.9950416" lon="11.8251071"><ele>485.0</ele><time>2026-05-02T11:57:05.13Z</time></trkpt><trkpt lat="45.9950944" lon="11.8249455"><ele>473.25</ele><time>2026-05-02T11:57:06.13Z</time></trkpt><trkpt lat="45.9951613" lon="11.8247898"><ele>461.5</ele><time>2026-05-02T11:57:07.131Z</time></trkpt><trkpt lat="45.9952433" lon="11.8246515"><ele>449.75</ele><time>2026-05-02T11:57:08.132Z</time></trkpt><trkpt lat="45.9953291" lon="11.8245154"><ele>438.0</ele><time>2026-05-02T11:57:09.13Z</time></trkpt><trkpt lat="45.9954163" lon="11.8243769"><ele>442.5</ele><time>2026-05-02T11:57:10.131Z</time></trkpt><trkpt lat="45.9955015" lon="11.8242328"><ele>447.0</ele><time>2026-05-02T11:57:11.132Z</time></trkpt><trkpt lat="45.9955736" lon="11.8240891"><ele>451.5</ele><time>2026-05-02T11:57:12.131Z</time></trkpt><trkpt lat="45.995629" lon="11.8239414"><ele>456.0</ele><time>2026-05-02T11:57:13.132Z</time></trkpt><trkpt lat="45.9956776" lon="11.823784"><ele>456.0</ele><time>2026-05-02T11:57:14.132Z</time></trkpt><trkpt lat="45.9957265" lon="11.8236237"><ele>456.0</ele><time>2026-05-02T11:57:15.132Z</time></trkpt><trkpt lat="45.9957793" lon="11.8234572"><ele>456.0</ele><time>2026-05-02T11:57:16.132Z</time></trkpt><trkpt lat="45.9958389" lon="11.8232921"><ele>456.0</ele><time>2026-05-02T11:57:17.132Z</time></trkpt><trkpt lat="45.9959003" lon="11.8231305"><ele>452.5</ele><time>2026-05-02T11:57:18.132Z</time></trkpt><trkpt lat="45.9959594" lon="11.8229756"><ele>449.0</ele><time>2026-05-02T11:57:19.131Z</time></trkpt><trkpt lat="45.9960177" lon="11.822833"><ele>445.5</ele><time>2026-05-02T11:57:20.132Z</time></trkpt><trkpt lat="45.9960758" lon="11.8227017"><ele>442.0</ele><time>2026-05-02T11:57:21.131Z</time></trkpt><trkpt lat="45.9961334" lon="11.8225727"><ele>442.0</ele><time>2026-05-02T11:57:22.132Z</time></trkpt><trkpt lat="45.996191" lon="11.8224451"><ele>442.00000000000006</ele><time>2026-05-02T11:57:23.131Z</time></trkpt><trkpt lat="45.9962537" lon="11.8223178"><ele>442.00000000000006</ele><time>2026-05-02T11:57:24.131Z</time></trkpt><trkpt lat="45.9963297" lon="11.8221997"><ele>442.0</ele><time>2026-05-02T11:57:25.132Z</time></trkpt><trkpt lat="45.9964185" lon="11.822096"><ele>442.0</ele><time>2026-05-02T11:57:26.131Z</time></trkpt><trkpt lat="45.9965053" lon="11.822005"><ele>442.0</ele><time>2026-05-02T11:57:27.132Z</time></trkpt><trkpt lat="45.9965879" lon="11.8219162"><ele>442.0</ele><time>2026-05-02T11:57:28.132Z</time></trkpt><trkpt lat="45.9966704" lon="11.821812"><ele>442.0</ele><time>2026-05-02T11:57:29.132Z</time></trkpt><trkpt lat="45.9967541" lon="11.8216863"><ele>442.0</ele><time>2026-05-02T11:57:30.132Z</time></trkpt><trkpt lat="45.9968331" lon="11.8215398"><ele>439.5</ele><time>2026-05-02T11:57:31.132Z</time></trkpt><trkpt lat="45.996898" lon="11.821381"><ele>437.0</ele><time>2026-05-02T11:57:32.131Z</time></trkpt><trkpt lat="45.9969448" lon="11.8212156"><ele>434.5</ele><time>2026-05-02T11:57:33.132Z</time></trkpt><trkpt lat="45.9969868" lon="11.8210543"><ele>432.0</ele><time>2026-05-02T11:57:34.132Z</time></trkpt><trkpt lat="45.9970271" lon="11.8209005"><ele>432.0</ele><time>2026-05-02T11:57:35.131Z</time></trkpt><trkpt lat="45.9970572" lon="11.8207514"><ele>432.0</ele><time>2026-05-02T11:57:36.132Z</time></trkpt><trkpt lat="45.9970716" lon="11.8206119"><ele>432.0</ele><time>2026-05-02T11:57:37.131Z</time></trkpt><trkpt lat="45.9970804" lon="11.8204856"><ele>432.0</ele><time>2026-05-02T11:57:38.132Z</time></trkpt><trkpt lat="45.9971071" lon="11.8203829"><ele>432.0</ele><time>2026-05-02T11:57:39.132Z</time></trkpt><trkpt lat="45.9971575" lon="11.8203277"><ele>432.0</ele><time>2026-05-02T11:57:40.132Z</time></trkpt><trkpt lat="45.997245" lon="11.8204147"><ele>432.0</ele><time>2026-05-02T11:57:42.132Z</time></trkpt><trkpt lat="45.9972351" lon="11.8205144"><ele>432.00000000000006</ele><time>2026-05-02T11:57:43.132Z</time></trkpt><trkpt lat="45.9972134" lon="11.820637"><ele>432.00000000000006</ele><time>2026-05-02T11:57:44.132Z</time></trkpt><trkpt lat="45.9971996" lon="11.8208042"><ele>432.0</ele><time>2026-05-02T11:57:45.131Z</time></trkpt><trkpt lat="45.9972107" lon="11.8209797"><ele>432.0</ele><time>2026-05-02T11:57:46.131Z</time></trkpt><trkpt lat="45.9972194" lon="11.8211586"><ele>428.75</ele><time>2026-05-02T11:57:47.131Z</time></trkpt><trkpt lat="45.9971998" lon="11.8213416"><ele>425.5</ele><time>2026-05-02T11:57:48.131Z</time></trkpt><trkpt lat="45.9971497" lon="11.8215175"><ele>422.25</ele><time>2026-05-02T11:57:49.131Z</time></trkpt><trkpt lat="45.997073" lon="11.8216777"><ele>419.0</ele><time>2026-05-02T11:57:50.131Z</time></trkpt><trkpt lat="45.9969918" lon="11.8218363"><ele>414.5</ele><time>2026-05-02T11:57:51.131Z</time></trkpt><trkpt lat="45.9969222" lon="11.822002"><ele>410.0</ele><time>2026-05-02T11:57:52.132Z</time></trkpt><trkpt lat="45.9968588" lon="11.8221847"><ele>405.5</ele><time>2026-05-02T11:57:53.131Z</time></trkpt><trkpt lat="45.9968009" lon="11.8223814"><ele>401.0</ele><time>2026-05-02T11:57:54.131Z</time></trkpt><trkpt lat="45.9967465" lon="11.8225837"><ele>409.0</ele><time>2026-05-02T11:57:55.132Z</time></trkpt><trkpt lat="45.9967023" lon="11.8228041"><ele>417.0</ele><time>2026-05-02T11:57:56.131Z</time></trkpt><trkpt lat="45.996648" lon="11.8230143"><ele>425.0</ele><time>2026-05-02T11:57:57.131Z</time></trkpt><trkpt lat="45.9965945" lon="11.8232197"><ele>425.0</ele><time>2026-05-02T11:57:58.132Z</time></trkpt><trkpt lat="45.9965643" lon="11.8234267"><ele>425.0</ele><time>2026-05-02T11:57:59.132Z</time></trkpt><trkpt lat="45.9965423" lon="11.82363"><ele>425.0</ele><time>2026-05-02T11:58:00.131Z</time></trkpt><trkpt lat="45.9964972" lon="11.823821"><ele>425.0</ele><time>2026-05-02T11:58:01.132Z</time></trkpt><trkpt lat="45.9964518" lon="11.8240058"><ele>419.5</ele><time>2026-05-02T11:58:02.132Z</time></trkpt><trkpt lat="45.9963955" lon="11.8241859"><ele>414.0</ele><time>2026-05-02T11:58:03.131Z</time></trkpt><trkpt lat="45.9963407" lon="11.8243604"><ele>408.5</ele><time>2026-05-02T11:58:04.132Z</time></trkpt><trkpt lat="45.996269" lon="11.8245349"><ele>403.0</ele><time>2026-05-02T11:58:05.132Z</time></trkpt><trkpt lat="45.9961997" lon="11.8247266"><ele>397.25</ele><time>2026-05-02T11:58:06.133Z</time></trkpt><trkpt lat="45.9961403" lon="11.8249299"><ele>391.5</ele><time>2026-05-02T11:58:07.132Z</time></trkpt><trkpt lat="45.9960832" lon="11.8251277"><ele>385.75</ele><time>2026-05-02T11:58:08.133Z</time></trkpt><trkpt lat="45.9960351" lon="11.8253237"><ele>380.0</ele><time>2026-05-02T11:58:09.132Z</time></trkpt><trkpt lat="45.9960028" lon="11.8255286"><ele>374.6666666666667</ele><time>2026-05-02T11:58:10.132Z</time></trkpt><trkpt lat="45.9959817" lon="11.8257451"><ele>369.3333333333333</ele><time>2026-05-02T11:58:11.132Z</time></trkpt><trkpt lat="45.9959579" lon="11.8259699"><ele>364.0</ele><time>2026-05-02T11:58:12.132Z</time></trkpt><trkpt lat="45.9959305" lon="11.826197"><ele>359.0</ele><time>2026-05-02T11:58:13.132Z</time></trkpt><trkpt lat="45.9958912" lon="11.8264203"><ele>354.0</ele><time>2026-05-02T11:58:14.133Z</time></trkpt><trkpt lat="45.9958472" lon="11.826637"><ele>349.0</ele><time>2026-05-02T11:58:15.132Z</time></trkpt><trkpt lat="45.9957985" lon="11.8268559"><ele>359.66666666666663</ele><time>2026-05-02T11:58:16.133Z</time></trkpt><trkpt lat="45.9957574" lon="11.8270738"><ele>370.3333333333333</ele><time>2026-05-02T11:58:17.133Z</time></trkpt><trkpt lat="45.995704" lon="11.8272759"><ele>381.0</ele><time>2026-05-02T11:58:18.132Z</time></trkpt><trkpt lat="45.9956319" lon="11.8274849"><ele>373.6666666666667</ele><time>2026-05-02T11:58:19.133Z</time></trkpt><trkpt lat="45.995549" lon="11.8277069"><ele>366.33333333333337</ele><time>2026-05-02T11:58:20.132Z</time></trkpt><trkpt lat="45.9954629" lon="11.8279343"><ele>359.0</ele><time>2026-05-02T11:58:21.132Z</time></trkpt><trkpt lat="45.9953793" lon="11.8281588"><ele>359.0</ele><time>2026-05-02T11:58:22.133Z</time></trkpt><trkpt lat="45.9953102" lon="11.8283955"><ele>359.0</ele><time>2026-05-02T11:58:23.133Z</time></trkpt><trkpt lat="45.9952532" lon="11.8286486"><ele>359.0</ele><time>2026-05-02T11:58:24.132Z</time></trkpt><trkpt lat="45.9951882" lon="11.8288985"><ele>354.33333333333337</ele><time>2026-05-02T11:58:25.132Z</time></trkpt><trkpt lat="45.995122" lon="11.8291525"><ele>349.6666666666667</ele><time>2026-05-02T11:58:26.133Z</time></trkpt><trkpt lat="45.9950603" lon="11.8294011"><ele>345.0</ele><time>2026-05-02T11:58:27.133Z</time></trkpt><trkpt lat="45.9950052" lon="11.8296325"><ele>345.3333333333333</ele><time>2026-05-02T11:58:28.133Z</time></trkpt><trkpt lat="45.9949643" lon="11.8298556"><ele>345.66666666666663</ele><time>2026-05-02T11:58:29.133Z</time></trkpt><trkpt lat="45.9949325" lon="11.8300766"><ele>346.0</ele><time>2026-05-02T11:58:30.132Z</time></trkpt><trkpt lat="45.9949139" lon="11.8302852"><ele>346.0</ele><time>2026-05-02T11:58:31.133Z</time></trkpt><trkpt lat="45.9948834" lon="11.8304932"><ele>346.0</ele><time>2026-05-02T11:58:32.133Z</time></trkpt><trkpt lat="45.994808" lon="11.8306863"><ele>346.0</ele><time>2026-05-02T11:58:33.133Z</time></trkpt><trkpt lat="45.9947306" lon="11.8308783"><ele>343.0</ele><time>2026-05-02T11:58:34.133Z</time></trkpt><trkpt lat="45.9946516" lon="11.8310669"><ele>340.0</ele><time>2026-05-02T11:58:35.133Z</time></trkpt><trkpt lat="45.9945941" lon="11.8312559"><ele>337.0</ele><time>2026-05-02T11:58:36.133Z</time></trkpt><trkpt lat="45.9945644" lon="11.8314667"><ele>334.0</ele><time>2026-05-02T11:58:37.132Z</time></trkpt><trkpt lat="45.9945635" lon="11.8316959"><ele>333.0</ele><time>2026-05-02T11:58:38.133Z</time></trkpt><trkpt lat="45.9945614" lon="11.831928"><ele>332.0</ele><time>2026-05-02T11:58:39.133Z</time></trkpt><trkpt lat="45.9945379" lon="11.832154"><ele>331.0</ele><time>2026-05-02T11:58:40.133Z</time></trkpt><trkpt lat="45.9944946" lon="11.8323732"><ele>331.0</ele><time>2026-05-02T11:58:41.132Z</time></trkpt><trkpt lat="45.9944378" lon="11.8325772"><ele>331.0</ele><time>2026-05-02T11:58:42.133Z</time></trkpt><trkpt lat="45.9943833" lon="11.8327784"><ele>331.0</ele><time>2026-05-02T11:58:43.132Z</time></trkpt><trkpt lat="45.9943357" lon="11.8329795"><ele>331.0</ele><time>2026-05-02T11:58:44.132Z</time></trkpt><trkpt lat="45.9942914" lon="11.8331698"><ele>331.0</ele><time>2026-05-02T11:58:45.132Z</time></trkpt><trkpt lat="45.9942503" lon="11.8333466"><ele>331.0</ele><time>2026-05-02T11:58:46.133Z</time></trkpt><trkpt lat="45.9942129" lon="11.8335199"><ele>331.0</ele><time>2026-05-02T11:58:47.132Z</time></trkpt><trkpt lat="45.9941787" lon="11.833698"><ele>332.5</ele><time>2026-05-02T11:58:48.132Z</time></trkpt><trkpt lat="45.9941533" lon="11.8338868"><ele>334.0</ele><time>2026-05-02T11:58:49.132Z</time></trkpt><trkpt lat="45.994143" lon="11.8340814"><ele>335.5</ele><time>2026-05-02T11:58:50.132Z</time></trkpt><trkpt lat="45.9941463" lon="11.8342681"><ele>337.0</ele><time>2026-05-02T11:58:51.133Z</time></trkpt><trkpt lat="45.9941535" lon="11.8344395"><ele>337.0</ele><time>2026-05-02T11:58:52.133Z</time></trkpt><trkpt lat="45.9941568" lon="11.8345941"><ele>337.0</ele><time>2026-05-02T11:58:53.132Z</time></trkpt><trkpt lat="45.994157" lon="11.8347332"><ele>337.0</ele><time>2026-05-02T11:58:54.132Z</time></trkpt><trkpt lat="45.9941545" lon="11.8348581"><ele>337.0</ele><time>2026-05-02T11:58:55.132Z</time></trkpt><trkpt lat="45.9941436" lon="11.8349672"><ele>337.0</ele><time>2026-05-02T11:58:56.132Z</time></trkpt><trkpt lat="45.9941261" lon="11.8350617"><ele>337.0</ele><time>2026-05-02T11:58:57.132Z</time></trkpt><trkpt lat="45.994111" lon="11.8351595"><ele>336.8571428571429</ele><time>2026-05-02T11:58:58.132Z</time></trkpt><trkpt lat="45.9941073" lon="11.8352728"><ele>336.7142857142857</ele><time>2026-05-02T11:58:59.133Z</time></trkpt><trkpt lat="45.9941202" lon="11.83539"><ele>336.57142857142856</ele><time>2026-05-02T11:59:00.132Z</time></trkpt><trkpt lat="45.9941347" lon="11.8354845"><ele>336.42857142857144</ele><time>2026-05-02T11:59:01.134Z</time></trkpt><trkpt lat="45.9941766" lon="11.8355565"><ele>336.2857142857143</ele><time>2026-05-02T11:59:02.134Z</time></trkpt><trkpt lat="45.9942344" lon="11.8356024"><ele>336.14285714285717</ele><time>2026-05-02T11:59:03.134Z</time></trkpt><trkpt lat="45.9943118" lon="11.8356282"><ele>336.0</ele><time>2026-05-02T11:59:04.133Z</time></trkpt><trkpt lat="45.9944006" lon="11.835652"><ele>335.4</ele><time>2026-05-02T11:59:05.133Z</time></trkpt><trkpt lat="45.9944959" lon="11.835685"><ele>334.8</ele><time>2026-05-02T11:59:06.133Z</time></trkpt><trkpt lat="45.9945926" lon="11.8357217"><ele>334.2</ele><time>2026-05-02T11:59:07.133Z</time></trkpt><trkpt lat="45.9946827" lon="11.8357506"><ele>333.59999999999997</ele><time>2026-05-02T11:59:08.134Z</time></trkpt><trkpt lat="45.9947714" lon="11.8357721"><ele>333.0</ele><time>2026-05-02T11:59:09.133Z</time></trkpt><trkpt lat="45.9948567" lon="11.8357872"><ele>333.0</ele><time>2026-05-02T11:59:10.134Z</time></trkpt><trkpt lat="45.9949483" lon="11.8357959"><ele>333.0</ele><time>2026-05-02T11:59:11.133Z</time></trkpt><trkpt lat="45.9950391" lon="11.8358118"><ele>333.0</ele><time>2026-05-02T11:59:12.134Z</time></trkpt><trkpt lat="45.9951337" lon="11.8358327"><ele>333.0</ele><time>2026-05-02T11:59:13.134Z</time></trkpt><trkpt lat="45.9952304" lon="11.8358525"><ele>333.0</ele><time>2026-05-02T11:59:14.134Z</time></trkpt><trkpt lat="45.9953269" lon="11.83587"><ele>333.3333333333333</ele><time>2026-05-02T11:59:15.133Z</time></trkpt><trkpt lat="45.9954204" lon="11.8358874"><ele>333.6666666666667</ele><time>2026-05-02T11:59:16.133Z</time></trkpt><trkpt lat="45.9955147" lon="11.8359026"><ele>334.0</ele><time>2026-05-02T11:59:17.133Z</time></trkpt><trkpt lat="45.9956089" lon="11.8359084"><ele>334.33333333333337</ele><time>2026-05-02T11:59:18.134Z</time></trkpt><trkpt lat="45.9956933" lon="11.8359008"><ele>334.6666666666667</ele><time>2026-05-02T11:59:19.134Z</time></trkpt><trkpt lat="45.9957635" lon="11.8358856"><ele>335.0</ele><time>2026-05-02T11:59:20.133Z</time></trkpt><trkpt lat="45.9958821" lon="11.8358853"><ele>334.0</ele><time>2026-05-02T11:59:22.133Z</time></trkpt><trkpt lat="45.9959895" lon="11.8359793"><ele>333.0</ele><time>2026-05-02T11:59:24.134Z</time></trkpt><trkpt lat="45.9960204" lon="11.8360917"><ele>332.0</ele><time>2026-05-02T11:59:25.133Z</time></trkpt><trkpt lat="45.9960519" lon="11.8361981"><ele>331.0</ele><time>2026-05-02T11:59:26.134Z</time></trkpt><trkpt lat="45.9960839" lon="11.8363129"><ele>330.0</ele><time>2026-05-02T11:59:27.134Z</time></trkpt><trkpt lat="45.9961185" lon="11.8364372"><ele>330.0</ele><time>2026-05-02T11:59:28.134Z</time></trkpt><trkpt lat="45.9961531" lon="11.8365677"><ele>330.0</ele><time>2026-05-02T11:59:29.134Z</time></trkpt><trkpt lat="45.9961895" lon="11.8367015"><ele>330.0</ele><time>2026-05-02T11:59:30.133Z</time></trkpt><trkpt lat="45.9962283" lon="11.8368404"><ele>330.0</ele><time>2026-05-02T11:59:31.133Z</time></trkpt><trkpt lat="45.9962764" lon="11.8369814"><ele>330.0</ele><time>2026-05-02T11:59:32.134Z</time></trkpt><trkpt lat="45.9963416" lon="11.8371115"><ele>330.0</ele><time>2026-05-02T11:59:33.133Z</time></trkpt><trkpt lat="45.9964229" lon="11.8372309"><ele>330.0</ele><time>2026-05-02T11:59:34.134Z</time></trkpt><trkpt lat="45.9965079" lon="11.8373484"><ele>330.0</ele><time>2026-05-02T11:59:35.134Z</time></trkpt><trkpt lat="45.9965997" lon="11.8374522"><ele>330.0</ele><time>2026-05-02T11:59:36.133Z</time></trkpt><trkpt lat="45.9966966" lon="11.8375508"><ele>329.75</ele><time>2026-05-02T11:59:37.134Z</time></trkpt><trkpt lat="45.9968002" lon="11.8376239"><ele>329.5</ele><time>2026-05-02T11:59:38.134Z</time></trkpt><trkpt lat="45.9969112" lon="11.8376849"><ele>329.25</ele><time>2026-05-02T11:59:39.134Z</time></trkpt><trkpt lat="45.9970212" lon="11.83774"><ele>329.0</ele><time>2026-05-02T11:59:40.133Z</time></trkpt><trkpt lat="45.9971319" lon="11.8377931"><ele>328.75</ele><time>2026-05-02T11:59:41.134Z</time></trkpt><trkpt lat="45.9972441" lon="11.8378439"><ele>328.5</ele><time>2026-05-02T11:59:42.134Z</time></trkpt><trkpt lat="45.9973562" lon="11.8378947"><ele>328.25</ele><time>2026-05-02T11:59:43.134Z</time></trkpt><trkpt lat="45.9974701" lon="11.8379544"><ele>328.0</ele><time>2026-05-02T11:59:44.133Z</time></trkpt><trkpt lat="45.9975863" lon="11.8380274"><ele>327.5</ele><time>2026-05-02T11:59:45.134Z</time></trkpt><trkpt lat="45.9977048" lon="11.8381046"><ele>327.0</ele><time>2026-05-02T11:59:46.133Z</time></trkpt><trkpt lat="45.9978283" lon="11.8381949"><ele>326.5</ele><time>2026-05-02T11:59:47.134Z</time></trkpt><trkpt lat="45.9979513" lon="11.8382987"><ele>326.0</ele><time>2026-05-02T11:59:48.133Z</time></trkpt><trkpt lat="45.9980765" lon="11.8384176"><ele>325.6666666666667</ele><time>2026-05-02T11:59:49.134Z</time></trkpt><trkpt lat="45.998208" lon="11.8385529"><ele>325.3333333333333</ele><time>2026-05-02T11:59:50.134Z</time></trkpt><trkpt lat="45.9983476" lon="11.838697"><ele>325.0</ele><time>2026-05-02T11:59:51.133Z</time></trkpt><trkpt lat="45.9984948" lon="11.8388461"><ele>324.3333333333333</ele><time>2026-05-02T11:59:52.134Z</time></trkpt><trkpt lat="45.9986455" lon="11.8389898"><ele>323.6666666666667</ele><time>2026-05-02T11:59:53.133Z</time></trkpt><trkpt lat="45.9988002" lon="11.839113"><ele>323.0</ele><time>2026-05-02T11:59:54.134Z</time></trkpt><trkpt lat="45.9989545" lon="11.8392047"><ele>323.0</ele><time>2026-05-02T11:59:55.134Z</time></trkpt><trkpt lat="45.9991065" lon="11.8392636"><ele>323.0</ele><time>2026-05-02T11:59:56.135Z</time></trkpt><trkpt lat="45.9992597" lon="11.83929"><ele>323.0</ele><time>2026-05-02T11:59:57.134Z</time></trkpt><trkpt lat="45.999413" lon="11.8392859"><ele>323.25</ele><time>2026-05-02T11:59:58.135Z</time></trkpt><trkpt lat="45.9995639" lon="11.8392721"><ele>323.5</ele><time>2026-05-02T11:59:59.134Z</time></trkpt><trkpt lat="45.9997118" lon="11.8392549"><ele>323.75</ele><time>2026-05-02T12:00:00.135Z</time></trkpt><trkpt lat="45.9998598" lon="11.8392534"><ele>324.0</ele><time>2026-05-02T12:00:01.135Z</time></trkpt><trkpt lat="46.0000078" lon="11.8392669"><ele>324.0</ele><time>2026-05-02T12:00:02.135Z</time></trkpt><trkpt lat="46.0001517" lon="11.8392996"><ele>324.0</ele><time>2026-05-02T12:00:03.135Z</time></trkpt><trkpt lat="46.0002925" lon="11.8393527"><ele>324.0</ele><time>2026-05-02T12:00:04.134Z</time></trkpt><trkpt lat="46.0004318" lon="11.8394258"><ele>324.0</ele><time>2026-05-02T12:00:05.135Z</time></trkpt><trkpt lat="46.0005708" lon="11.8395113"><ele>324.0</ele><time>2026-05-02T12:00:06.135Z</time></trkpt><trkpt lat="46.0007049" lon="11.8396133"><ele>324.0</ele><time>2026-05-02T12:00:07.134Z</time></trkpt><trkpt lat="46.0008388" lon="11.8397162"><ele>324.0</ele><time>2026-05-02T12:00:08.135Z</time></trkpt><trkpt lat="46.0009716" lon="11.8398195"><ele>323.3333333333333</ele><time>2026-05-02T12:00:09.134Z</time></trkpt><trkpt lat="46.0011073" lon="11.8399258"><ele>322.66666666666663</ele><time>2026-05-02T12:00:10.135Z</time></trkpt><trkpt lat="46.0012424" lon="11.8400297"><ele>322.0</ele><time>2026-05-02T12:00:11.135Z</time></trkpt><trkpt lat="46.0013903" lon="11.8401324"><ele>321.66666666666663</ele><time>2026-05-02T12:00:12.135Z</time></trkpt><trkpt lat="46.0015741" lon="11.8402564"><ele>321.3333333333333</ele><time>2026-05-02T12:00:13.135Z</time></trkpt><trkpt lat="46.0017819" lon="11.8404231"><ele>321.0</ele><time>2026-05-02T12:00:14.134Z</time></trkpt><trkpt lat="46.0019975" lon="11.8406077"><ele>321.0</ele><time>2026-05-02T12:00:15.135Z</time></trkpt><trkpt lat="46.0022008" lon="11.8407866"><ele>321.0</ele><time>2026-05-02T12:00:16.135Z</time></trkpt><trkpt lat="46.0023811" lon="11.840941"><ele>321.0</ele><time>2026-05-02T12:00:17.134Z</time></trkpt><trkpt lat="46.0025423" lon="11.8410758"><ele>321.0</ele><time>2026-05-02T12:00:18.135Z</time></trkpt><trkpt lat="46.002681" lon="11.8411926"><ele>321.0</ele><time>2026-05-02T12:00:19.134Z</time></trkpt><trkpt lat="46.0027976" lon="11.8412899"><ele>321.0</ele><time>2026-05-02T12:00:20.135Z</time></trkpt><trkpt lat="46.0028895" lon="11.8413683"><ele>321.0</ele><time>2026-05-02T12:00:21.134Z</time></trkpt><trkpt lat="46.0029585" lon="11.8414314"><ele>321.0</ele><time>2026-05-02T12:00:22.135Z</time></trkpt><trkpt lat="46.0030372" lon="11.8415058"><ele>321.0</ele><time>2026-05-02T12:00:24.134Z</time></trkpt><trkpt lat="46.0031396" lon="11.8414509"><ele>321.0</ele><time>2026-05-02T12:00:31.134Z</time></trkpt><trkpt lat="46.0031768" lon="11.8413331"><ele>321.0</ele><time>2026-05-02T12:00:32.134Z</time></trkpt><trkpt lat="46.0032236" lon="11.8411793"><ele>321.0</ele><time>2026-05-02T12:00:33.135Z</time></trkpt><trkpt lat="46.0032771" lon="11.8410038"><ele>321.5</ele><time>2026-05-02T12:00:34.134Z</time></trkpt><trkpt lat="46.0033333" lon="11.8408136"><ele>322.0</ele><time>2026-05-02T12:00:35.135Z</time></trkpt><trkpt lat="46.0033924" lon="11.8406175"><ele>322.5</ele><time>2026-05-02T12:00:36.134Z</time></trkpt><trkpt lat="46.0034528" lon="11.8404221"><ele>323.0</ele><time>2026-05-02T12:00:37.135Z</time></trkpt><trkpt lat="46.0035108" lon="11.8402274"><ele>322.75</ele><time>2026-05-02T12:00:38.135Z</time></trkpt><trkpt lat="46.003568" lon="11.8400373"><ele>322.5</ele><time>2026-05-02T12:00:39.135Z</time></trkpt><trkpt lat="46.0036172" lon="11.8398582"><ele>322.25</ele><time>2026-05-02T12:00:40.135Z</time></trkpt><trkpt lat="46.0036499" lon="11.8396866"><ele>322.0</ele><time>2026-05-02T12:00:41.135Z</time></trkpt><trkpt lat="46.0036844" lon="11.8395133"><ele>322.0</ele><time>2026-05-02T12:00:42.134Z</time></trkpt><trkpt lat="46.0037388" lon="11.8393422"><ele>322.0</ele><time>2026-05-02T12:00:43.135Z</time></trkpt><trkpt lat="46.0038109" lon="11.8391701"><ele>322.0</ele><time>2026-05-02T12:00:44.135Z</time></trkpt><trkpt lat="46.0038845" lon="11.838984"><ele>322.0</ele><time>2026-05-02T12:00:45.134Z</time></trkpt><trkpt lat="46.0039548" lon="11.8387827"><ele>321.0</ele><time>2026-05-02T12:00:46.134Z</time></trkpt><trkpt lat="46.0040237" lon="11.8385773"><ele>320.0</ele><time>2026-05-02T12:00:47.135Z</time></trkpt><trkpt lat="46.0040884" lon="11.8383547"><ele>319.0</ele><time>2026-05-02T12:00:48.135Z</time></trkpt><trkpt lat="46.004155" lon="11.8381297"><ele>319.3333333333333</ele><time>2026-05-02T12:00:49.135Z</time></trkpt><trkpt lat="46.0042234" lon="11.8379038"><ele>319.6666666666667</ele><time>2026-05-02T12:00:50.136Z</time></trkpt><trkpt lat="46.0042934" lon="11.8376756"><ele>320.0</ele><time>2026-05-02T12:00:51.135Z</time></trkpt><trkpt lat="46.0043664" lon="11.8374561"><ele>320.0</ele><time>2026-05-02T12:00:52.136Z</time></trkpt><trkpt lat="46.0044468" lon="11.8372473"><ele>320.0</ele><time>2026-05-02T12:00:53.136Z</time></trkpt><trkpt lat="46.0045403" lon="11.8370488"><ele>320.0</ele><time>2026-05-02T12:00:54.136Z</time></trkpt><trkpt lat="46.0046464" lon="11.836864"><ele>319.0</ele><time>2026-05-02T12:00:55.135Z</time></trkpt><trkpt lat="46.0047602" lon="11.8366928"><ele>318.0</ele><time>2026-05-02T12:00:56.135Z</time></trkpt><trkpt lat="46.0048779" lon="11.836532"><ele>317.0</ele><time>2026-05-02T12:00:57.135Z</time></trkpt><trkpt lat="46.0049946" lon="11.8363766"><ele>316.0</ele><time>2026-05-02T12:00:58.135Z</time></trkpt><trkpt lat="46.0051156" lon="11.8362278"><ele>315.0</ele><time>2026-05-02T12:00:59.135Z</time></trkpt><trkpt lat="46.005243" lon="11.8360723"><ele>314.0</ele><time>2026-05-02T12:01:00.135Z</time></trkpt><trkpt lat="46.0053622" lon="11.8359204"><ele>314.0</ele><time>2026-05-02T12:01:01.136Z</time></trkpt><trkpt lat="46.0054817" lon="11.8357673"><ele>314.0</ele><time>2026-05-02T12:01:02.135Z</time></trkpt><trkpt lat="46.005602" lon="11.8356021"><ele>314.0</ele><time>2026-05-02T12:01:03.136Z</time></trkpt><trkpt lat="46.005717" lon="11.8354409"><ele>314.33333333333337</ele><time>2026-05-02T12:01:04.135Z</time></trkpt><trkpt lat="46.0058289" lon="11.8352657"><ele>314.6666666666667</ele><time>2026-05-02T12:01:05.136Z</time></trkpt><trkpt lat="46.005938" lon="11.8350792"><ele>315.0</ele><time>2026-05-02T12:01:06.136Z</time></trkpt><trkpt lat="46.0060426" lon="11.8348932"><ele>315.0</ele><time>2026-05-02T12:01:07.136Z</time></trkpt><trkpt lat="46.0061522" lon="11.834708"><ele>315.0</ele><time>2026-05-02T12:01:08.135Z</time></trkpt><trkpt lat="46.0062688" lon="11.8345282"><ele>315.0</ele><time>2026-05-02T12:01:09.136Z</time></trkpt><trkpt lat="46.0063982" lon="11.8343719"><ele>314.25</ele><time>2026-05-02T12:01:10.135Z</time></trkpt><trkpt lat="46.0065237" lon="11.8342338"><ele>313.5</ele><time>2026-05-02T12:01:11.136Z</time></trkpt><trkpt lat="46.0066386" lon="11.8340992"><ele>312.75</ele><time>2026-05-02T12:01:12.136Z</time></trkpt><trkpt lat="46.0067508" lon="11.8339823"><ele>312.0</ele><time>2026-05-02T12:01:13.135Z</time></trkpt><trkpt lat="46.0068625" lon="11.8338664"><ele>312.75</ele><time>2026-05-02T12:01:14.135Z</time></trkpt><trkpt lat="46.0069704" lon="11.8337596"><ele>313.5</ele><time>2026-05-02T12:01:15.136Z</time></trkpt><trkpt lat="46.0070778" lon="11.8336449"><ele>314.25</ele><time>2026-05-02T12:01:16.135Z</time></trkpt><trkpt lat="46.0071866" lon="11.8335379"><ele>315.0</ele><time>2026-05-02T12:01:17.135Z</time></trkpt><trkpt lat="46.0072843" lon="11.8334367"><ele>315.0</ele><time>2026-05-02T12:01:18.135Z</time></trkpt><trkpt lat="46.0073747" lon="11.8333313"><ele>315.0</ele><time>2026-05-02T12:01:19.135Z</time></trkpt><trkpt lat="46.0074493" lon="11.8332157"><ele>315.0</ele><time>2026-05-02T12:01:20.136Z</time></trkpt><trkpt lat="46.007526" lon="11.8330981"><ele>315.0</ele><time>2026-05-02T12:01:21.136Z</time></trkpt><trkpt lat="46.0076018" lon="11.8329706"><ele>315.25</ele><time>2026-05-02T12:01:22.136Z</time></trkpt><trkpt lat="46.00768" lon="11.832837"><ele>315.5</ele><time>2026-05-02T12:01:23.136Z</time></trkpt><trkpt lat="46.0077545" lon="11.8327036"><ele>315.75</ele><time>2026-05-02T12:01:24.135Z</time></trkpt><trkpt lat="46.0078254" lon="11.8325555"><ele>316.0</ele><time>2026-05-02T12:01:25.136Z</time></trkpt><trkpt lat="46.0078833" lon="11.8324161"><ele>315.2</ele><time>2026-05-02T12:01:26.135Z</time></trkpt><trkpt lat="46.0079276" lon="11.8322838"><ele>314.40000000000003</ele><time>2026-05-02T12:01:27.136Z</time></trkpt><trkpt lat="46.0079861" lon="11.8321743"><ele>313.6</ele><time>2026-05-02T12:01:28.135Z</time></trkpt><trkpt lat="46.0080582" lon="11.8320613"><ele>312.8</ele><time>2026-05-02T12:01:29.135Z</time></trkpt><trkpt lat="46.0081536" lon="11.8319782"><ele>312.0</ele><time>2026-05-02T12:01:30.136Z</time></trkpt><trkpt lat="46.0082361" lon="11.831895"><ele>312.0</ele><time>2026-05-02T12:01:31.135Z</time></trkpt><trkpt lat="46.0083081" lon="11.8318518"><ele>312.0</ele><time>2026-05-02T12:01:32.136Z</time></trkpt><trkpt lat="46.0083888" lon="11.831919"><ele>312.0</ele><time>2026-05-02T12:01:34.136Z</time></trkpt><trkpt lat="46.0084369" lon="11.8320835"><ele>312.0</ele><time>2026-05-02T12:01:36.135Z</time></trkpt><trkpt lat="46.0084825" lon="11.8321649"><ele>312.0</ele><time>2026-05-02T12:01:37.136Z</time></trkpt><trkpt lat="46.0085408" lon="11.8322232"><ele>312.0</ele><time>2026-05-02T12:01:38.135Z</time></trkpt><trkpt lat="46.0086353" lon="11.8322685"><ele>312.2</ele><time>2026-05-02T12:01:40.136Z</time></trkpt><trkpt lat="46.008696" lon="11.8322082"><ele>312.4</ele><time>2026-05-02T12:01:51.137Z</time></trkpt><trkpt lat="46.0087512" lon="11.8321415"><ele>312.6</ele><time>2026-05-02T12:01:52.136Z</time></trkpt><trkpt lat="46.0088249" lon="11.8320493"><ele>312.8</ele><time>2026-05-02T12:01:53.137Z</time></trkpt><trkpt lat="46.0089034" lon="11.8319447"><ele>313.0</ele><time>2026-05-02T12:01:54.137Z</time></trkpt><trkpt lat="46.0089806" lon="11.8318373"><ele>312.8</ele><time>2026-05-02T12:01:55.137Z</time></trkpt><trkpt lat="46.0090636" lon="11.8317367"><ele>312.6</ele><time>2026-05-02T12:01:56.137Z</time></trkpt><trkpt lat="46.0091435" lon="11.8316356"><ele>312.4</ele><time>2026-05-02T12:01:57.136Z</time></trkpt><trkpt lat="46.009246" lon="11.831558"><ele>312.2</ele><time>2026-05-02T12:01:58.137Z</time></trkpt><trkpt lat="46.0093533" lon="11.8314849"><ele>312.0</ele><time>2026-05-02T12:01:59.136Z</time></trkpt><trkpt lat="46.0094632" lon="11.831396"><ele>312.0</ele><time>2026-05-02T12:02:00.136Z</time></trkpt><trkpt lat="46.0095606" lon="11.8313235"><ele>312.0</ele><time>2026-05-02T12:02:01.136Z</time></trkpt><trkpt lat="46.0096473" lon="11.8312732"><ele>312.0</ele><time>2026-05-02T12:02:02.137Z</time></trkpt><trkpt lat="46.0097232" lon="11.8312254"><ele>312.0</ele><time>2026-05-02T12:02:03.136Z</time></trkpt><trkpt lat="46.0097972" lon="11.8311755"><ele>312.0</ele><time>2026-05-02T12:02:04.137Z</time></trkpt><trkpt lat="46.0098663" lon="11.8310989"><ele>312.0</ele><time>2026-05-02T12:02:05.136Z</time></trkpt><trkpt lat="46.0099299" lon="11.8310155"><ele>312.0</ele><time>2026-05-02T12:02:06.137Z</time></trkpt><trkpt lat="46.0099842" lon="11.8309438"><ele>312.0</ele><time>2026-05-02T12:02:07.137Z</time></trkpt><trkpt lat="46.0100502" lon="11.8309187"><ele>312.0</ele><time>2026-05-02T12:02:08.137Z</time></trkpt><trkpt lat="46.0101287" lon="11.8309342"><ele>312.0</ele><time>2026-05-02T12:02:09.136Z</time></trkpt><trkpt lat="46.010213" lon="11.8309725"><ele>312.0</ele><time>2026-05-02T12:02:10.136Z</time></trkpt><trkpt lat="46.0103021" lon="11.8310266"><ele>313.8</ele><time>2026-05-02T12:02:11.136Z</time></trkpt><trkpt lat="46.0103903" lon="11.8310914"><ele>315.6</ele><time>2026-05-02T12:02:12.137Z</time></trkpt><trkpt lat="46.0104767" lon="11.8311616"><ele>317.40000000000003</ele><time>2026-05-02T12:02:13.136Z</time></trkpt><trkpt lat="46.0105647" lon="11.8312299"><ele>319.2</ele><time>2026-05-02T12:02:14.136Z</time></trkpt><trkpt lat="46.0106505" lon="11.8312987"><ele>321.0</ele><time>2026-05-02T12:02:15.136Z</time></trkpt><trkpt lat="46.0107328" lon="11.8313681"><ele>321.0</ele><time>2026-05-02T12:02:16.136Z</time></trkpt><trkpt lat="46.0108149" lon="11.831445"><ele>321.0</ele><time>2026-05-02T12:02:17.137Z</time></trkpt><trkpt lat="46.0108837" lon="11.8315335"><ele>321.0</ele><time>2026-05-02T12:02:18.136Z</time></trkpt><trkpt lat="46.0109508" lon="11.8316284"><ele>321.0</ele><time>2026-05-02T12:02:19.136Z</time></trkpt><trkpt lat="46.0110184" lon="11.8317262"><ele>321.0</ele><time>2026-05-02T12:02:20.137Z</time></trkpt><trkpt lat="46.0110855" lon="11.8318233"><ele>325.6</ele><time>2026-05-02T12:02:21.136Z</time></trkpt><trkpt lat="46.0111557" lon="11.8319158"><ele>330.20000000000005</ele><time>2026-05-02T12:02:22.137Z</time></trkpt><trkpt lat="46.0112284" lon="11.8320062"><ele>334.79999999999995</ele><time>2026-05-02T12:02:23.137Z</time></trkpt><trkpt lat="46.0112997" lon="11.8321033"><ele>339.4</ele><time>2026-05-02T12:02:24.137Z</time></trkpt><trkpt lat="46.0113668" lon="11.8322109"><ele>344.0</ele><time>2026-05-02T12:02:25.137Z</time></trkpt><trkpt lat="46.0114289" lon="11.832329"><ele>344.0</ele><time>2026-05-02T12:02:26.137Z</time></trkpt><trkpt lat="46.0114916" lon="11.8324511"><ele>344.0</ele><time>2026-05-02T12:02:27.136Z</time></trkpt><trkpt lat="46.0115556" lon="11.8325757"><ele>344.0</ele><time>2026-05-02T12:02:28.138Z</time></trkpt><trkpt lat="46.0116191" lon="11.8327044"><ele>344.0</ele><time>2026-05-02T12:02:29.137Z</time></trkpt><trkpt lat="46.0116831" lon="11.8328476"><ele>344.0</ele><time>2026-05-02T12:02:30.137Z</time></trkpt><trkpt lat="46.0117539" lon="11.8330033"><ele>344.75</ele><time>2026-05-02T12:02:31.137Z</time></trkpt><trkpt lat="46.0118302" lon="11.8331708"><ele>345.5</ele><time>2026-05-02T12:02:32.137Z</time></trkpt><trkpt lat="46.0119137" lon="11.8333379"><ele>346.25</ele><time>2026-05-02T12:02:33.137Z</time></trkpt><trkpt lat="46.0120103" lon="11.8335012"><ele>347.0</ele><time>2026-05-02T12:02:34.136Z</time></trkpt><trkpt lat="46.0121233" lon="11.8336581"><ele>347.6666666666667</ele><time>2026-05-02T12:02:35.137Z</time></trkpt><trkpt lat="46.0122475" lon="11.8338108"><ele>348.3333333333333</ele><time>2026-05-02T12:02:36.136Z</time></trkpt><trkpt lat="46.0123776" lon="11.8339691"><ele>349.0</ele><time>2026-05-02T12:02:37.137Z</time></trkpt><trkpt lat="46.0125119" lon="11.8341347"><ele>353.66666666666663</ele><time>2026-05-02T12:02:38.136Z</time></trkpt><trkpt lat="46.0126492" lon="11.8343061"><ele>358.3333333333333</ele><time>2026-05-02T12:02:39.137Z</time></trkpt><trkpt lat="46.0127891" lon="11.8344832"><ele>363.0</ele><time>2026-05-02T12:02:40.137Z</time></trkpt><trkpt lat="46.01293" lon="11.8346656"><ele>363.0</ele><time>2026-05-02T12:02:41.136Z</time></trkpt><trkpt lat="46.0130667" lon="11.8348555"><ele>363.0</ele><time>2026-05-02T12:02:42.136Z</time></trkpt><trkpt lat="46.0131974" lon="11.835045"><ele>363.0</ele><time>2026-05-02T12:02:43.137Z</time></trkpt><trkpt lat="46.0133321" lon="11.8352242"><ele>362.6666666666667</ele><time>2026-05-02T12:02:44.138Z</time></trkpt><trkpt lat="46.0134731" lon="11.83539"><ele>362.33333333333337</ele><time>2026-05-02T12:02:45.137Z</time></trkpt><trkpt lat="46.0136168" lon="11.8355491"><ele>362.0</ele><time>2026-05-02T12:02:46.138Z</time></trkpt><trkpt lat="46.0137554" lon="11.8357112"><ele>362.0</ele><time>2026-05-02T12:02:47.137Z</time></trkpt><trkpt lat="46.0138843" lon="11.8358752"><ele>362.0</ele><time>2026-05-02T12:02:48.138Z</time></trkpt><trkpt lat="46.0140032" lon="11.8360412"><ele>362.0</ele><time>2026-05-02T12:02:49.138Z</time></trkpt><trkpt lat="46.0141065" lon="11.8361992"><ele>361.25</ele><time>2026-05-02T12:02:50.137Z</time></trkpt><trkpt lat="46.0142016" lon="11.8363447"><ele>360.5</ele><time>2026-05-02T12:02:51.138Z</time></trkpt><trkpt lat="46.0142943" lon="11.8364793"><ele>359.75</ele><time>2026-05-02T12:02:52.137Z</time></trkpt><trkpt lat="46.0143868" lon="11.8366185"><ele>359.0</ele><time>2026-05-02T12:02:53.138Z</time></trkpt><trkpt lat="46.0144783" lon="11.8367559"><ele>362.25</ele><time>2026-05-02T12:02:54.138Z</time></trkpt><trkpt lat="46.0145609" lon="11.8369095"><ele>365.5</ele><time>2026-05-02T12:02:55.138Z</time></trkpt><trkpt lat="46.0146359" lon="11.837068"><ele>368.75</ele><time>2026-05-02T12:02:56.137Z</time></trkpt><trkpt lat="46.0147001" lon="11.8372418"><ele>372.0</ele><time>2026-05-02T12:02:57.137Z</time></trkpt><trkpt lat="46.0147735" lon="11.8374144"><ele>372.0</ele><time>2026-05-02T12:02:58.138Z</time></trkpt><trkpt lat="46.0148465" lon="11.8375881"><ele>372.0</ele><time>2026-05-02T12:02:59.137Z</time></trkpt><trkpt lat="46.0149233" lon="11.8377638"><ele>372.0</ele><time>2026-05-02T12:03:00.137Z</time></trkpt><trkpt lat="46.0149968" lon="11.8379459"><ele>372.0</ele><time>2026-05-02T12:03:01.138Z</time></trkpt><trkpt lat="46.0150727" lon="11.838125"><ele>370.75</ele><time>2026-05-02T12:03:02.137Z</time></trkpt><trkpt lat="46.0151473" lon="11.8382958"><ele>369.5</ele><time>2026-05-02T12:03:03.137Z</time></trkpt><trkpt lat="46.0152245" lon="11.8384599"><ele>368.25</ele><time>2026-05-02T12:03:04.137Z</time></trkpt><trkpt lat="46.0152984" lon="11.8386241"><ele>367.0</ele><time>2026-05-02T12:03:05.137Z</time></trkpt><trkpt lat="46.0153756" lon="11.8387887"><ele>370.0</ele><time>2026-05-02T12:03:06.138Z</time></trkpt><trkpt lat="46.0154537" lon="11.8389508"><ele>373.0</ele><time>2026-05-02T12:03:07.137Z</time></trkpt><trkpt lat="46.0155502" lon="11.8390948"><ele>376.0</ele><time>2026-05-02T12:03:08.137Z</time></trkpt><trkpt lat="46.0156516" lon="11.8392238"><ele>379.0</ele><time>2026-05-02T12:03:09.138Z</time></trkpt><trkpt lat="46.0157623" lon="11.8393524"><ele>374.25</ele><time>2026-05-02T12:03:10.138Z</time></trkpt><trkpt lat="46.0158817" lon="11.8394759"><ele>369.5</ele><time>2026-05-02T12:03:11.137Z</time></trkpt><trkpt lat="46.0159935" lon="11.8395962"><ele>364.75</ele><time>2026-05-02T12:03:12.138Z</time></trkpt><trkpt lat="46.016101" lon="11.8396996"><ele>360.0</ele><time>2026-05-02T12:03:13.137Z</time></trkpt><trkpt lat="46.0161912" lon="11.8398112"><ele>360.0</ele><time>2026-05-02T12:03:14.137Z</time></trkpt><trkpt lat="46.0162633" lon="11.8399241"><ele>360.0</ele><time>2026-05-02T12:03:15.137Z</time></trkpt><trkpt lat="46.01633" lon="11.8400499"><ele>360.0</ele><time>2026-05-02T12:03:16.137Z</time></trkpt><trkpt lat="46.0163663" lon="11.8401857"><ele>360.0</ele><time>2026-05-02T12:03:17.138Z</time></trkpt><trkpt lat="46.0163735" lon="11.8403307"><ele>360.0</ele><time>2026-05-02T12:03:18.137Z</time></trkpt><trkpt lat="46.0163745" lon="11.8404712"><ele>362.0</ele><time>2026-05-02T12:03:19.138Z</time></trkpt><trkpt lat="46.0163598" lon="11.8405992"><ele>364.0</ele><time>2026-05-02T12:03:20.137Z</time></trkpt><trkpt lat="46.0163498" lon="11.8407424"><ele>366.0</ele><time>2026-05-02T12:03:21.138Z</time></trkpt><trkpt lat="46.0163341" lon="11.8408978"><ele>368.0</ele><time>2026-05-02T12:03:22.138Z</time></trkpt><trkpt lat="46.0163202" lon="11.841057"><ele>370.0</ele><time>2026-05-02T12:03:23.137Z</time></trkpt><trkpt lat="46.0163176" lon="11.8412165"><ele>376.0</ele><time>2026-05-02T12:03:24.138Z</time></trkpt><trkpt lat="46.0163294" lon="11.8413693"><ele>382.0</ele><time>2026-05-02T12:03:25.138Z</time></trkpt><trkpt lat="46.0163653" lon="11.8415143"><ele>388.0</ele><time>2026-05-02T12:03:26.138Z</time></trkpt><trkpt lat="46.016416" lon="11.8416481"><ele>394.0</ele><time>2026-05-02T12:03:27.138Z</time></trkpt><trkpt lat="46.0164698" lon="11.8417808"><ele>400.0</ele><time>2026-05-02T12:03:28.137Z</time></trkpt><trkpt lat="46.0165271" lon="11.8419166"><ele>402.25</ele><time>2026-05-02T12:03:29.137Z</time></trkpt><trkpt lat="46.0165847" lon="11.8420581"><ele>404.5</ele><time>2026-05-02T12:03:30.138Z</time></trkpt><trkpt lat="46.0166434" lon="11.8422052"><ele>406.75</ele><time>2026-05-02T12:03:31.138Z</time></trkpt><trkpt lat="46.0167102" lon="11.8423646"><ele>409.0</ele><time>2026-05-02T12:03:32.137Z</time></trkpt><trkpt lat="46.0167892" lon="11.8425422"><ele>395.6666666666667</ele><time>2026-05-02T12:03:33.138Z</time></trkpt><trkpt lat="46.0168768" lon="11.8427361"><ele>382.33333333333337</ele><time>2026-05-02T12:03:34.137Z</time></trkpt><trkpt lat="46.0169635" lon="11.8429525"><ele>369.0</ele><time>2026-05-02T12:03:35.138Z</time></trkpt><trkpt lat="46.0170518" lon="11.8431964"><ele>369.0</ele><time>2026-05-02T12:03:36.137Z</time></trkpt><trkpt lat="46.0171422" lon="11.8434602"><ele>369.0</ele><time>2026-05-02T12:03:37.138Z</time></trkpt><trkpt lat="46.017226" lon="11.8437431"><ele>369.0</ele><time>2026-05-02T12:03:38.138Z</time></trkpt><trkpt lat="46.0172886" lon="11.8440422"><ele>365.0</ele><time>2026-05-02T12:03:39.137Z</time></trkpt><trkpt lat="46.0173251" lon="11.8443515"><ele>361.0</ele><time>2026-05-02T12:03:40.138Z</time></trkpt><trkpt lat="46.0173507" lon="11.8446608"><ele>357.0</ele><time>2026-05-02T12:03:41.137Z</time></trkpt><trkpt lat="46.0173766" lon="11.8449684"><ele>358.0</ele><time>2026-05-02T12:03:42.137Z</time></trkpt><trkpt lat="46.0174069" lon="11.8452738"><ele>359.0</ele><time>2026-05-02T12:03:43.139Z</time></trkpt><trkpt lat="46.0174454" lon="11.8455783"><ele>360.0</ele><time>2026-05-02T12:03:44.139Z</time></trkpt><trkpt lat="46.0174971" lon="11.8458799"><ele>361.0</ele><time>2026-05-02T12:03:45.139Z</time></trkpt><trkpt lat="46.0175574" lon="11.8461762"><ele>362.0</ele><time>2026-05-02T12:03:46.139Z</time></trkpt><trkpt lat="46.0176226" lon="11.8464747"><ele>363.0</ele><time>2026-05-02T12:03:47.138Z</time></trkpt><trkpt lat="46.0176932" lon="11.8467731"><ele>361.6666666666667</ele><time>2026-05-02T12:03:48.138Z</time></trkpt><trkpt lat="46.0177615" lon="11.8470832"><ele>360.33333333333337</ele><time>2026-05-02T12:03:49.139Z</time></trkpt><trkpt lat="46.0178309" lon="11.8473863"><ele>359.0</ele><time>2026-05-02T12:03:50.139Z</time></trkpt><trkpt lat="46.017899" lon="11.8476877"><ele>358.0</ele><time>2026-05-02T12:03:51.138Z</time></trkpt><trkpt lat="46.0179566" lon="11.8479932"><ele>357.0</ele><time>2026-05-02T12:03:52.138Z</time></trkpt><trkpt lat="46.018019" lon="11.8482726"><ele>356.0</ele><time>2026-05-02T12:03:53.138Z</time></trkpt><trkpt lat="46.0180709" lon="11.8485344"><ele>359.0</ele><time>2026-05-02T12:03:54.139Z</time></trkpt><trkpt lat="46.0181328" lon="11.8487783"><ele>362.0</ele><time>2026-05-02T12:03:55.139Z</time></trkpt><trkpt lat="46.0182138" lon="11.8490037"><ele>365.0</ele><time>2026-05-02T12:03:56.138Z</time></trkpt><trkpt lat="46.0183316" lon="11.8492017"><ele>368.0</ele><time>2026-05-02T12:03:57.139Z</time></trkpt><trkpt lat="46.0184579" lon="11.8493933"><ele>371.0</ele><time>2026-05-02T12:03:58.139Z</time></trkpt><trkpt lat="46.0185818" lon="11.849598"><ele>374.0</ele><time>2026-05-02T12:03:59.138Z</time></trkpt><trkpt lat="46.0186852" lon="11.8498254"><ele>374.0</ele><time>2026-05-02T12:04:00.138Z</time></trkpt><trkpt lat="46.0187821" lon="11.8500511"><ele>374.0</ele><time>2026-05-02T12:04:01.139Z</time></trkpt><trkpt lat="46.0188741" lon="11.8502798"><ele>374.0</ele><time>2026-05-02T12:04:02.139Z</time></trkpt><trkpt lat="46.0189519" lon="11.8505119"><ele>377.0</ele><time>2026-05-02T12:04:03.138Z</time></trkpt><trkpt lat="46.0190056" lon="11.8507485"><ele>380.0</ele><time>2026-05-02T12:04:04.139Z</time></trkpt><trkpt lat="46.0190247" lon="11.8509973"><ele>383.0</ele><time>2026-05-02T12:04:05.139Z</time></trkpt><trkpt lat="46.0190412" lon="11.8512511"><ele>382.6666666666667</ele><time>2026-05-02T12:04:06.139Z</time></trkpt><trkpt lat="46.0190868" lon="11.8515082"><ele>382.3333333333333</ele><time>2026-05-02T12:04:07.138Z</time></trkpt><trkpt lat="46.0191398" lon="11.8517666"><ele>382.0</ele><time>2026-05-02T12:04:08.138Z</time></trkpt><trkpt lat="46.0192016" lon="11.8520133"><ele>382.0</ele><time>2026-05-02T12:04:09.139Z</time></trkpt><trkpt lat="46.0192782" lon="11.8522394"><ele>382.0</ele><time>2026-05-02T12:04:10.139Z</time></trkpt><trkpt lat="46.0193803" lon="11.8524425"><ele>382.0</ele><time>2026-05-02T12:04:11.139Z</time></trkpt><trkpt lat="46.0194904" lon="11.8526302"><ele>384.3333333333333</ele><time>2026-05-02T12:04:12.138Z</time></trkpt><trkpt lat="46.019612" lon="11.8527991"><ele>386.66666666666663</ele><time>2026-05-02T12:04:13.138Z</time></trkpt><trkpt lat="46.0197505" lon="11.8529326"><ele>389.0</ele><time>2026-05-02T12:04:14.139Z</time></trkpt><trkpt lat="46.0199059" lon="11.8530505"><ele>388.0</ele><time>2026-05-02T12:04:15.139Z</time></trkpt><trkpt lat="46.020069" lon="11.8531855"><ele>387.0</ele><time>2026-05-02T12:04:16.138Z</time></trkpt><trkpt lat="46.0202234" lon="11.8533451"><ele>386.0</ele><time>2026-05-02T12:04:17.138Z</time></trkpt><trkpt lat="46.0203715" lon="11.8535151"><ele>386.0</ele><time>2026-05-02T12:04:18.139Z</time></trkpt><trkpt lat="46.0205058" lon="11.8536875"><ele>386.0</ele><time>2026-05-02T12:04:19.139Z</time></trkpt><trkpt lat="46.0206287" lon="11.853839"><ele>386.0</ele><time>2026-05-02T12:04:20.138Z</time></trkpt><trkpt lat="46.0207425" lon="11.8539881"><ele>382.0</ele><time>2026-05-02T12:04:21.138Z</time></trkpt><trkpt lat="46.0208261" lon="11.854147"><ele>378.0</ele><time>2026-05-02T12:04:22.139Z</time></trkpt><trkpt lat="46.0208877" lon="11.8543445"><ele>374.0</ele><time>2026-05-02T12:04:23.139Z</time></trkpt><trkpt lat="46.0209169" lon="11.8545759"><ele>372.33333333333337</ele><time>2026-05-02T12:04:24.138Z</time></trkpt><trkpt lat="46.0209454" lon="11.8548118"><ele>370.6666666666667</ele><time>2026-05-02T12:04:25.138Z</time></trkpt><trkpt lat="46.0209925" lon="11.8550573"><ele>369.0</ele><time>2026-05-02T12:04:26.139Z</time></trkpt><trkpt lat="46.021062" lon="11.855298"><ele>369.0</ele><time>2026-05-02T12:04:27.139Z</time></trkpt><trkpt lat="46.0211338" lon="11.855546"><ele>369.0</ele><time>2026-05-02T12:04:28.138Z</time></trkpt><trkpt lat="46.0212031" lon="11.8557995"><ele>369.0</ele><time>2026-05-02T12:04:29.139Z</time></trkpt><trkpt lat="46.0212868" lon="11.8560555"><ele>369.0</ele><time>2026-05-02T12:04:30.139Z</time></trkpt><trkpt lat="46.0213858" lon="11.8562985"><ele>369.0</ele><time>2026-05-02T12:04:31.139Z</time></trkpt><trkpt lat="46.0215075" lon="11.8565272"><ele>369.0</ele><time>2026-05-02T12:04:32.138Z</time></trkpt><trkpt lat="46.0216378" lon="11.8567403"><ele>368.0</ele><time>2026-05-02T12:04:33.138Z</time></trkpt><trkpt lat="46.0217835" lon="11.8569354"><ele>367.0</ele><time>2026-05-02T12:04:34.139Z</time></trkpt><trkpt lat="46.0219374" lon="11.8571228"><ele>366.0</ele><time>2026-05-02T12:04:35.139Z</time></trkpt><trkpt lat="46.0220822" lon="11.8573189"><ele>366.0</ele><time>2026-05-02T12:04:36.14Z</time></trkpt><trkpt lat="46.0222017" lon="11.8575445"><ele>366.0</ele><time>2026-05-02T12:04:37.138Z</time></trkpt><trkpt lat="46.022318" lon="11.8577807"><ele>366.0</ele><time>2026-05-02T12:04:38.14Z</time></trkpt><trkpt lat="46.0224137" lon="11.8580247"><ele>367.0</ele><time>2026-05-02T12:04:39.14Z</time></trkpt><trkpt lat="46.0224667" lon="11.8582878"><ele>368.0</ele><time>2026-05-02T12:04:40.139Z</time></trkpt><trkpt lat="46.0225074" lon="11.8585508"><ele>369.0</ele><time>2026-05-02T12:04:41.139Z</time></trkpt><trkpt lat="46.0225533" lon="11.8588152"><ele>369.0</ele><time>2026-05-02T12:04:42.14Z</time></trkpt><trkpt lat="46.0225924" lon="11.8590821"><ele>369.0</ele><time>2026-05-02T12:04:43.14Z</time></trkpt><trkpt lat="46.0226312" lon="11.8593469"><ele>369.0</ele><time>2026-05-02T12:04:44.139Z</time></trkpt><trkpt lat="46.0226744" lon="11.8596117"><ele>369.3333333333333</ele><time>2026-05-02T12:04:45.14Z</time></trkpt><trkpt lat="46.022716" lon="11.8598714"><ele>369.66666666666663</ele><time>2026-05-02T12:04:46.139Z</time></trkpt><trkpt lat="46.0227647" lon="11.8601235"><ele>370.0</ele><time>2026-05-02T12:04:47.14Z</time></trkpt><trkpt lat="46.0228312" lon="11.8603505"><ele>369.66666666666663</ele><time>2026-05-02T12:04:48.14Z</time></trkpt><trkpt lat="46.0229028" lon="11.8605802"><ele>369.3333333333333</ele><time>2026-05-02T12:04:49.14Z</time></trkpt><trkpt lat="46.0229712" lon="11.8608037"><ele>369.0</ele><time>2026-05-02T12:04:50.14Z</time></trkpt><trkpt lat="46.0230515" lon="11.8610239"><ele>369.0</ele><time>2026-05-02T12:04:51.14Z</time></trkpt><trkpt lat="46.0231518" lon="11.8612324"><ele>369.0</ele><time>2026-05-02T12:04:52.14Z</time></trkpt><trkpt lat="46.023272" lon="11.8614173"><ele>369.0</ele><time>2026-05-02T12:04:53.14Z</time></trkpt><trkpt lat="46.0233876" lon="11.8615928"><ele>368.5</ele><time>2026-05-02T12:04:54.14Z</time></trkpt><trkpt lat="46.0234985" lon="11.8617497"><ele>368.0</ele><time>2026-05-02T12:04:55.14Z</time></trkpt><trkpt lat="46.023601" lon="11.8619086"><ele>367.5</ele><time>2026-05-02T12:04:56.14Z</time></trkpt><trkpt lat="46.0236775" lon="11.8620681"><ele>367.0</ele><time>2026-05-02T12:04:57.139Z</time></trkpt><trkpt lat="46.0237335" lon="11.8622518"><ele>367.0</ele><time>2026-05-02T12:04:58.139Z</time></trkpt><trkpt lat="46.0237568" lon="11.8624479"><ele>367.0</ele><time>2026-05-02T12:04:59.14Z</time></trkpt><trkpt lat="46.0237608" lon="11.8626502"><ele>367.0</ele><time>2026-05-02T12:05:00.139Z</time></trkpt><trkpt lat="46.0237889" lon="11.8628488"><ele>367.0</ele><time>2026-05-02T12:05:01.139Z</time></trkpt><trkpt lat="46.0238454" lon="11.8630477"><ele>367.0</ele><time>2026-05-02T12:05:02.139Z</time></trkpt><trkpt lat="46.0239257" lon="11.8632304"><ele>367.0</ele><time>2026-05-02T12:05:03.14Z</time></trkpt><trkpt lat="46.0240254" lon="11.8633824"><ele>367.0</ele><time>2026-05-02T12:05:04.14Z</time></trkpt><trkpt lat="46.024148" lon="11.8635085"><ele>367.0</ele><time>2026-05-02T12:05:05.139Z</time></trkpt><trkpt lat="46.0242812" lon="11.8636243"><ele>367.0</ele><time>2026-05-02T12:05:06.14Z</time></trkpt><trkpt lat="46.024422" lon="11.8637517"><ele>367.0</ele><time>2026-05-02T12:05:07.14Z</time></trkpt><trkpt lat="46.0245707" lon="11.8638889"><ele>367.0</ele><time>2026-05-02T12:05:08.14Z</time></trkpt><trkpt lat="46.0247188" lon="11.8640349"><ele>367.0</ele><time>2026-05-02T12:05:09.14Z</time></trkpt><trkpt lat="46.0248559" lon="11.8641903"><ele>367.0</ele><time>2026-05-02T12:05:10.14Z</time></trkpt><trkpt lat="46.0249886" lon="11.8643491"><ele>367.0</ele><time>2026-05-02T12:05:11.14Z</time></trkpt><trkpt lat="46.0251016" lon="11.864514"><ele>361.3333333333333</ele><time>2026-05-02T12:05:12.14Z</time></trkpt><trkpt lat="46.0251886" lon="11.8647004"><ele>355.6666666666667</ele><time>2026-05-02T12:05:13.139Z</time></trkpt><trkpt lat="46.0252211" lon="11.8649234"><ele>350.0</ele><time>2026-05-02T12:05:14.14Z</time></trkpt><trkpt lat="46.0252383" lon="11.8651581"><ele>346.33333333333337</ele><time>2026-05-02T12:05:15.139Z</time></trkpt><trkpt lat="46.0252577" lon="11.8653892"><ele>342.6666666666667</ele><time>2026-05-02T12:05:16.139Z</time></trkpt><trkpt lat="46.0253114" lon="11.8656115"><ele>339.0</ele><time>2026-05-02T12:05:17.14Z</time></trkpt><trkpt lat="46.0254013" lon="11.8658184"><ele>337.0</ele><time>2026-05-02T12:05:18.139Z</time></trkpt><trkpt lat="46.0254847" lon="11.8660326"><ele>335.0</ele><time>2026-05-02T12:05:19.139Z</time></trkpt><trkpt lat="46.02556" lon="11.8662474"><ele>333.0</ele><time>2026-05-02T12:05:20.139Z</time></trkpt><trkpt lat="46.0256461" lon="11.8664538"><ele>333.0</ele><time>2026-05-02T12:05:21.14Z</time></trkpt><trkpt lat="46.0257469" lon="11.8666417"><ele>333.0</ele><time>2026-05-02T12:05:22.139Z</time></trkpt><trkpt lat="46.0258513" lon="11.8668055"><ele>333.0</ele><time>2026-05-02T12:05:23.14Z</time></trkpt><trkpt lat="46.0259525" lon="11.8669595"><ele>335.25</ele><time>2026-05-02T12:05:24.14Z</time></trkpt><trkpt lat="46.0260477" lon="11.8671075"><ele>337.5</ele><time>2026-05-02T12:05:25.14Z</time></trkpt><trkpt lat="46.0261407" lon="11.8672447"><ele>339.75</ele><time>2026-05-02T12:05:26.14Z</time></trkpt><trkpt lat="46.0262324" lon="11.8673637"><ele>342.0</ele><time>2026-05-02T12:05:27.14Z</time></trkpt><trkpt lat="46.0263338" lon="11.8674719"><ele>342.0</ele><time>2026-05-02T12:05:28.139Z</time></trkpt><trkpt lat="46.026431" lon="11.8675571"><ele>342.0</ele><time>2026-05-02T12:05:29.14Z</time></trkpt><trkpt lat="46.0265239" lon="11.8676239"><ele>342.0</ele><time>2026-05-02T12:05:30.139Z</time></trkpt><trkpt lat="46.0266021" lon="11.8676779"><ele>342.0</ele><time>2026-05-02T12:05:31.14Z</time></trkpt><trkpt lat="46.0266709" lon="11.8677233"><ele>342.0</ele><time>2026-05-02T12:05:32.14Z</time></trkpt><trkpt lat="46.0267526" lon="11.86778"><ele>342.20000000000005</ele><time>2026-05-02T12:05:33.139Z</time></trkpt><trkpt lat="46.0268492" lon="11.8678676"><ele>342.4</ele><time>2026-05-02T12:05:34.139Z</time></trkpt><trkpt lat="46.0269314" lon="11.8679799"><ele>342.6</ele><time>2026-05-02T12:05:35.14Z</time></trkpt><trkpt lat="46.0270091" lon="11.8680847"><ele>342.79999999999995</ele><time>2026-05-02T12:05:36.139Z</time></trkpt><trkpt lat="46.0271069" lon="11.8681441"><ele>343.0</ele><time>2026-05-02T12:05:37.139Z</time></trkpt><trkpt lat="46.0272186" lon="11.8681749"><ele>343.0</ele><time>2026-05-02T12:05:38.139Z</time></trkpt><trkpt lat="46.0273427" lon="11.8682132"><ele>343.0</ele><time>2026-05-02T12:05:39.139Z</time></trkpt><trkpt lat="46.0274696" lon="11.868246"><ele>343.0</ele><time>2026-05-02T12:05:40.141Z</time></trkpt><trkpt lat="46.0276039" lon="11.8682927"><ele>343.0</ele><time>2026-05-02T12:05:41.14Z</time></trkpt><trkpt lat="46.0277295" lon="11.8683657"><ele>343.25</ele><time>2026-05-02T12:05:42.14Z</time></trkpt><trkpt lat="46.0278589" lon="11.8684791"><ele>343.5</ele><time>2026-05-02T12:05:43.141Z</time></trkpt><trkpt lat="46.0279757" lon="11.868586"><ele>343.75</ele><time>2026-05-02T12:05:44.141Z</time></trkpt><trkpt lat="46.0281036" lon="11.8686685"><ele>344.0</ele><time>2026-05-02T12:05:45.141Z</time></trkpt><trkpt lat="46.0282308" lon="11.8687121"><ele>344.75</ele><time>2026-05-02T12:05:46.14Z</time></trkpt><trkpt lat="46.0283696" lon="11.8687485"><ele>345.5</ele><time>2026-05-02T12:05:47.141Z</time></trkpt><trkpt lat="46.0285044" lon="11.8687989"><ele>346.25</ele><time>2026-05-02T12:05:48.14Z</time></trkpt><trkpt lat="46.0286327" lon="11.868877"><ele>347.0</ele><time>2026-05-02T12:05:49.14Z</time></trkpt><trkpt lat="46.0287448" lon="11.8689737"><ele>347.0</ele><time>2026-05-02T12:05:50.141Z</time></trkpt><trkpt lat="46.0288561" lon="11.869106"><ele>347.0</ele><time>2026-05-02T12:05:51.141Z</time></trkpt><trkpt lat="46.0289698" lon="11.8692403"><ele>347.0</ele><time>2026-05-02T12:05:52.14Z</time></trkpt><trkpt lat="46.0290924" lon="11.8693804"><ele>347.0</ele><time>2026-05-02T12:05:53.14Z</time></trkpt><trkpt lat="46.0292051" lon="11.8695285"><ele>346.5</ele><time>2026-05-02T12:05:54.141Z</time></trkpt><trkpt lat="46.0293084" lon="11.8696795"><ele>346.0</ele><time>2026-05-02T12:05:55.141Z</time></trkpt><trkpt lat="46.0294012" lon="11.8698347"><ele>345.5</ele><time>2026-05-02T12:05:56.14Z</time></trkpt><trkpt lat="46.0294828" lon="11.8699858"><ele>345.0</ele><time>2026-05-02T12:05:57.141Z</time></trkpt><trkpt lat="46.0295441" lon="11.8701328"><ele>344.0</ele><time>2026-05-02T12:05:58.141Z</time></trkpt><trkpt lat="46.0295704" lon="11.870285"><ele>343.0</ele><time>2026-05-02T12:05:59.141Z</time></trkpt><trkpt lat="46.0295812" lon="11.8704404"><ele>342.0</ele><time>2026-05-02T12:06:00.141Z</time></trkpt><trkpt lat="46.029552" lon="11.8706202"><ele>341.0</ele><time>2026-05-02T12:06:01.14Z</time></trkpt><trkpt lat="46.0295233" lon="11.8708151"><ele>340.0</ele><time>2026-05-02T12:06:02.141Z</time></trkpt><trkpt lat="46.029502" lon="11.8710197"><ele>339.0</ele><time>2026-05-02T12:06:03.141Z</time></trkpt><trkpt lat="46.0294823" lon="11.8712203"><ele>338.0</ele><time>2026-05-02T12:06:04.141Z</time></trkpt><trkpt lat="46.0294517" lon="11.8714056"><ele>337.0</ele><time>2026-05-02T12:06:05.14Z</time></trkpt><trkpt lat="46.029402" lon="11.8715675"><ele>337.0</ele><time>2026-05-02T12:06:06.141Z</time></trkpt><trkpt lat="46.0293327" lon="11.8717134"><ele>337.0</ele><time>2026-05-02T12:06:07.141Z</time></trkpt><trkpt lat="46.0292462" lon="11.8718448"><ele>337.0</ele><time>2026-05-02T12:06:08.14Z</time></trkpt><trkpt lat="46.0291529" lon="11.8719607"><ele>337.0</ele><time>2026-05-02T12:06:09.141Z</time></trkpt><trkpt lat="46.0290594" lon="11.8720543"><ele>336.66666666666663</ele><time>2026-05-02T12:06:10.141Z</time></trkpt><trkpt lat="46.0289677" lon="11.8721258"><ele>336.3333333333333</ele><time>2026-05-02T12:06:11.141Z</time></trkpt><trkpt lat="46.0288845" lon="11.8721922"><ele>336.0</ele><time>2026-05-02T12:06:12.14Z</time></trkpt><trkpt lat="46.0288139" lon="11.8722614"><ele>335.6666666666667</ele><time>2026-05-02T12:06:13.14Z</time></trkpt><trkpt lat="46.0287635" lon="11.8723466"><ele>335.33333333333337</ele><time>2026-05-02T12:06:14.14Z</time></trkpt><trkpt lat="46.0287436" lon="11.8724514"><ele>335.0</ele><time>2026-05-02T12:06:15.14Z</time></trkpt><trkpt lat="46.0287593" lon="11.8725597"><ele>334.8</ele><time>2026-05-02T12:06:16.14Z</time></trkpt><trkpt lat="46.0288125" lon="11.8726495"><ele>334.6</ele><time>2026-05-02T12:06:17.141Z</time></trkpt><trkpt lat="46.0288739" lon="11.8727278"><ele>334.4</ele><time>2026-05-02T12:06:18.14Z</time></trkpt><trkpt lat="46.0289689" lon="11.8727997"><ele>334.2</ele><time>2026-05-02T12:06:19.141Z</time></trkpt><trkpt lat="46.0290614" lon="11.8728967"><ele>334.0</ele><time>2026-05-02T12:06:20.141Z</time></trkpt><trkpt lat="46.029156" lon="11.8730077"><ele>333.25</ele><time>2026-05-02T12:06:21.14Z</time></trkpt><trkpt lat="46.0292401" lon="11.8731467"><ele>332.5</ele><time>2026-05-02T12:06:22.141Z</time></trkpt><trkpt lat="46.029328" lon="11.8732854"><ele>331.75</ele><time>2026-05-02T12:06:23.141Z</time></trkpt><trkpt lat="46.0294273" lon="11.8734237"><ele>331.0</ele><time>2026-05-02T12:06:24.141Z</time></trkpt><trkpt lat="46.0295337" lon="11.8735623"><ele>329.75</ele><time>2026-05-02T12:06:25.14Z</time></trkpt><trkpt lat="46.0296437" lon="11.873702"><ele>328.5</ele><time>2026-05-02T12:06:26.14Z</time></trkpt><trkpt lat="46.0297564" lon="11.8738401"><ele>327.25</ele><time>2026-05-02T12:06:27.141Z</time></trkpt><trkpt lat="46.0298736" lon="11.8739714"><ele>326.0</ele><time>2026-05-02T12:06:28.141Z</time></trkpt><trkpt lat="46.0299926" lon="11.8741012"><ele>326.0</ele><time>2026-05-02T12:06:29.14Z</time></trkpt><trkpt lat="46.0301127" lon="11.874227"><ele>326.0</ele><time>2026-05-02T12:06:30.141Z</time></trkpt><trkpt lat="46.0302353" lon="11.8743459"><ele>326.0</ele><time>2026-05-02T12:06:31.14Z</time></trkpt><trkpt lat="46.0303576" lon="11.8744607"><ele>326.0</ele><time>2026-05-02T12:06:32.141Z</time></trkpt><trkpt lat="46.0304772" lon="11.8745764"><ele>326.0</ele><time>2026-05-02T12:06:33.141Z</time></trkpt><trkpt lat="46.0305943" lon="11.8746922"><ele>326.0</ele><time>2026-05-02T12:06:34.14Z</time></trkpt><trkpt lat="46.0307111" lon="11.8747989"><ele>326.0</ele><time>2026-05-02T12:06:35.141Z</time></trkpt><trkpt lat="46.0308295" lon="11.8748918"><ele>326.0</ele><time>2026-05-02T12:06:36.14Z</time></trkpt><trkpt lat="46.0309468" lon="11.8749766"><ele>326.75</ele><time>2026-05-02T12:06:37.141Z</time></trkpt><trkpt lat="46.0310594" lon="11.8750564"><ele>327.5</ele><time>2026-05-02T12:06:38.141Z</time></trkpt><trkpt lat="46.0311707" lon="11.8751216"><ele>328.25</ele><time>2026-05-02T12:06:39.142Z</time></trkpt><trkpt lat="46.0312823" lon="11.8751671"><ele>329.0</ele><time>2026-05-02T12:06:40.142Z</time></trkpt><trkpt lat="46.0313926" lon="11.8752033"><ele>329.0</ele><time>2026-05-02T12:06:41.141Z</time></trkpt><trkpt lat="46.0314913" lon="11.8752399"><ele>329.0</ele><time>2026-05-02T12:06:42.142Z</time></trkpt><trkpt lat="46.0315816" lon="11.8752745"><ele>329.0</ele><time>2026-05-02T12:06:43.141Z</time></trkpt><trkpt lat="46.0316552" lon="11.8753188"><ele>329.0</ele><time>2026-05-02T12:06:44.142Z</time></trkpt><trkpt lat="46.0317327" lon="11.8753771"><ele>329.0</ele><time>2026-05-02T12:06:45.142Z</time></trkpt><trkpt lat="46.0318156" lon="11.8754555"><ele>330.0</ele><time>2026-05-02T12:06:46.142Z</time></trkpt><trkpt lat="46.031898" lon="11.8755465"><ele>331.0</ele><time>2026-05-02T12:06:47.142Z</time></trkpt><trkpt lat="46.031983" lon="11.8756417"><ele>332.0</ele><time>2026-05-02T12:06:48.142Z</time></trkpt><trkpt lat="46.0320649" lon="11.8757336"><ele>333.0</ele><time>2026-05-02T12:06:49.142Z</time></trkpt><trkpt lat="46.0321403" lon="11.8758171"><ele>334.0</ele><time>2026-05-02T12:06:50.142Z</time></trkpt><trkpt lat="46.0322096" lon="11.8758926"><ele>334.4</ele><time>2026-05-02T12:06:51.142Z</time></trkpt><trkpt lat="46.0322784" lon="11.8759668"><ele>334.79999999999995</ele><time>2026-05-02T12:06:52.142Z</time></trkpt><trkpt lat="46.0323518" lon="11.87604"><ele>335.20000000000005</ele><time>2026-05-02T12:06:53.141Z</time></trkpt><trkpt lat="46.0324438" lon="11.8761131"><ele>335.6</ele><time>2026-05-02T12:06:54.141Z</time></trkpt><trkpt lat="46.0325529" lon="11.8761957"><ele>336.0</ele><time>2026-05-02T12:06:55.142Z</time></trkpt><trkpt lat="46.0326761" lon="11.876284"><ele>336.0</ele><time>2026-05-02T12:06:56.141Z</time></trkpt><trkpt lat="46.0328124" lon="11.8763747"><ele>336.0</ele><time>2026-05-02T12:06:57.142Z</time></trkpt><trkpt lat="46.0329592" lon="11.8764694"><ele>336.0</ele><time>2026-05-02T12:06:58.142Z</time></trkpt><trkpt lat="46.0331144" lon="11.8765643"><ele>336.0</ele><time>2026-05-02T12:06:59.142Z</time></trkpt><trkpt lat="46.03327" lon="11.8766561"><ele>336.0</ele><time>2026-05-02T12:07:00.142Z</time></trkpt><trkpt lat="46.0334247" lon="11.8767461"><ele>336.0</ele><time>2026-05-02T12:07:01.141Z</time></trkpt><trkpt lat="46.0335773" lon="11.8768308"><ele>334.75</ele><time>2026-05-02T12:07:02.142Z</time></trkpt><trkpt lat="46.0337221" lon="11.8769076"><ele>333.5</ele><time>2026-05-02T12:07:03.141Z</time></trkpt><trkpt lat="46.0338574" lon="11.876974"><ele>332.25</ele><time>2026-05-02T12:07:04.141Z</time></trkpt><trkpt lat="46.0339881" lon="11.8770203"><ele>331.0</ele><time>2026-05-02T12:07:05.141Z</time></trkpt><trkpt lat="46.0341212" lon="11.8770362"><ele>331.5</ele><time>2026-05-02T12:07:06.141Z</time></trkpt><trkpt lat="46.034255" lon="11.8770339"><ele>332.0</ele><time>2026-05-02T12:07:07.141Z</time></trkpt><trkpt lat="46.0343892" lon="11.8770198"><ele>332.5</ele><time>2026-05-02T12:07:08.141Z</time></trkpt><trkpt lat="46.0345244" lon="11.8770259"><ele>333.0</ele><time>2026-05-02T12:07:09.142Z</time></trkpt><trkpt lat="46.0346594" lon="11.8770852"><ele>333.0</ele><time>2026-05-02T12:07:10.142Z</time></trkpt><trkpt lat="46.034791" lon="11.8771605"><ele>333.0</ele><time>2026-05-02T12:07:11.142Z</time></trkpt><trkpt lat="46.0349193" lon="11.877249"><ele>333.0</ele><time>2026-05-02T12:07:12.142Z</time></trkpt><trkpt lat="46.0350382" lon="11.8773423"><ele>333.0</ele><time>2026-05-02T12:07:13.142Z</time></trkpt><trkpt lat="46.0351438" lon="11.8774278"><ele>333.0</ele><time>2026-05-02T12:07:14.141Z</time></trkpt><trkpt lat="46.0352375" lon="11.8775031"><ele>333.0</ele><time>2026-05-02T12:07:15.142Z</time></trkpt><trkpt lat="46.035324" lon="11.8775678"><ele>333.0</ele><time>2026-05-02T12:07:16.142Z</time></trkpt><trkpt lat="46.0354112" lon="11.877608"><ele>333.0</ele><time>2026-05-02T12:07:17.141Z</time></trkpt><trkpt lat="46.035498" lon="11.8776039"><ele>333.0</ele><time>2026-05-02T12:07:18.142Z</time></trkpt><trkpt lat="46.0355742" lon="11.8775539"><ele>333.2</ele><time>2026-05-02T12:07:19.142Z</time></trkpt><trkpt lat="46.0356347" lon="11.8774902"><ele>333.4</ele><time>2026-05-02T12:07:20.142Z</time></trkpt><trkpt lat="46.0356925" lon="11.8774527"><ele>333.59999999999997</ele><time>2026-05-02T12:07:21.141Z</time></trkpt><trkpt lat="46.035808" lon="11.8775152"><ele>333.79999999999995</ele><time>2026-05-02T12:07:23.141Z</time></trkpt><trkpt lat="46.0358711" lon="11.8776219"><ele>334.0</ele><time>2026-05-02T12:07:24.141Z</time></trkpt><trkpt lat="46.0359464" lon="11.8777422"><ele>334.5</ele><time>2026-05-02T12:07:25.141Z</time></trkpt><trkpt lat="46.0360259" lon="11.8778757"><ele>335.0</ele><time>2026-05-02T12:07:26.141Z</time></trkpt><trkpt lat="46.0361025" lon="11.8780113"><ele>335.5</ele><time>2026-05-02T12:07:27.142Z</time></trkpt><trkpt lat="46.0361694" lon="11.8781452"><ele>336.0</ele><time>2026-05-02T12:07:28.143Z</time></trkpt><trkpt lat="46.0362301" lon="11.8782801"><ele>336.0</ele><time>2026-05-02T12:07:29.142Z</time></trkpt><trkpt lat="46.036286" lon="11.8784214"><ele>336.0</ele><time>2026-05-02T12:07:30.142Z</time></trkpt><trkpt lat="46.0363406" lon="11.8785695"><ele>336.0</ele><time>2026-05-02T12:07:31.142Z</time></trkpt><trkpt lat="46.0363855" lon="11.8787234"><ele>336.0</ele><time>2026-05-02T12:07:32.141Z</time></trkpt><trkpt lat="46.0364264" lon="11.8788819"><ele>336.25</ele><time>2026-05-02T12:07:33.142Z</time></trkpt><trkpt lat="46.036451" lon="11.8790484"><ele>336.5</ele><time>2026-05-02T12:07:34.142Z</time></trkpt><trkpt lat="46.0364718" lon="11.8792189"><ele>336.75</ele><time>2026-05-02T12:07:35.141Z</time></trkpt><trkpt lat="46.0364934" lon="11.87939"><ele>337.0</ele><time>2026-05-02T12:07:36.142Z</time></trkpt><trkpt lat="46.0365185" lon="11.8795616"><ele>336.5</ele><time>2026-05-02T12:07:37.141Z</time></trkpt><trkpt lat="46.0365549" lon="11.8797265"><ele>336.0</ele><time>2026-05-02T12:07:38.143Z</time></trkpt><trkpt lat="46.0366077" lon="11.8798765"><ele>335.5</ele><time>2026-05-02T12:07:39.142Z</time></trkpt><trkpt lat="46.0366778" lon="11.8800113"><ele>335.0</ele><time>2026-05-02T12:07:40.143Z</time></trkpt><trkpt lat="46.03676" lon="11.8801248"><ele>335.0</ele><time>2026-05-02T12:07:41.142Z</time></trkpt><trkpt lat="46.0368504" lon="11.8802197"><ele>335.0</ele><time>2026-05-02T12:07:42.142Z</time></trkpt><trkpt lat="46.0369403" lon="11.8803127"><ele>335.0</ele><time>2026-05-02T12:07:43.142Z</time></trkpt><trkpt lat="46.0370164" lon="11.8804244"><ele>335.0</ele><time>2026-05-02T12:07:44.143Z</time></trkpt><trkpt lat="46.0370853" lon="11.8805529"><ele>335.0</ele><time>2026-05-02T12:07:45.142Z</time></trkpt><trkpt lat="46.0371566" lon="11.8806873"><ele>335.0</ele><time>2026-05-02T12:07:46.143Z</time></trkpt><trkpt lat="46.0372284" lon="11.8808225"><ele>335.0</ele><time>2026-05-02T12:07:47.143Z</time></trkpt><trkpt lat="46.0373018" lon="11.8809541"><ele>335.0</ele><time>2026-05-02T12:07:48.143Z</time></trkpt><trkpt lat="46.0373804" lon="11.8810885"><ele>335.0</ele><time>2026-05-02T12:07:49.142Z</time></trkpt><trkpt lat="46.037455" lon="11.8812274"><ele>335.1666666666667</ele><time>2026-05-02T12:07:50.143Z</time></trkpt><trkpt lat="46.0375208" lon="11.8813503"><ele>335.33333333333337</ele><time>2026-05-02T12:07:51.143Z</time></trkpt><trkpt lat="46.037574" lon="11.8814545"><ele>335.5</ele><time>2026-05-02T12:07:52.142Z</time></trkpt><trkpt lat="46.0376176" lon="11.8815462"><ele>335.6666666666667</ele><time>2026-05-02T12:07:53.142Z</time></trkpt><trkpt lat="46.0376617" lon="11.8816644"><ele>335.8333333333333</ele><time>2026-05-02T12:07:55.143Z</time></trkpt><trkpt lat="46.037699" lon="11.8817505"><ele>336.0</ele><time>2026-05-02T12:08:18.143Z</time></trkpt><trkpt lat="46.0377812" lon="11.8817695"><ele>336.0</ele><time>2026-05-02T12:08:21.142Z</time></trkpt><trkpt lat="46.0378384" lon="11.8817295"><ele>336.0</ele><time>2026-05-02T12:08:22.142Z</time></trkpt><trkpt lat="46.0379052" lon="11.8816789"><ele>336.0</ele><time>2026-05-02T12:08:23.143Z</time></trkpt><trkpt lat="46.0379775" lon="11.8816265"><ele>336.0</ele><time>2026-05-02T12:08:24.143Z</time></trkpt><trkpt lat="46.0380492" lon="11.8815781"><ele>336.0</ele><time>2026-05-02T12:08:25.142Z</time></trkpt><trkpt lat="46.0381209" lon="11.8815293"><ele>336.0</ele><time>2026-05-02T12:08:26.143Z</time></trkpt><trkpt lat="46.038189" lon="11.8814808"><ele>336.0</ele><time>2026-05-02T12:08:27.142Z</time></trkpt><trkpt lat="46.0382587" lon="11.8814312"><ele>336.0</ele><time>2026-05-02T12:08:28.142Z</time></trkpt><trkpt lat="46.0383359" lon="11.8813804"><ele>336.0</ele><time>2026-05-02T12:08:29.142Z</time></trkpt><trkpt lat="46.0384142" lon="11.8813255"><ele>336.0</ele><time>2026-05-02T12:08:30.143Z</time></trkpt><trkpt lat="46.0384915" lon="11.8812712"><ele>336.0</ele><time>2026-05-02T12:08:31.142Z</time></trkpt><trkpt lat="46.0385665" lon="11.881219"><ele>336.0</ele><time>2026-05-02T12:08:32.142Z</time></trkpt><trkpt lat="46.0386385" lon="11.8811683"><ele>336.5</ele><time>2026-05-02T12:08:33.143Z</time></trkpt><trkpt lat="46.0387081" lon="11.8811165"><ele>337.0</ele><time>2026-05-02T12:08:34.142Z</time></trkpt><trkpt lat="46.0387755" lon="11.8810618"><ele>337.5</ele><time>2026-05-02T12:08:35.142Z</time></trkpt><trkpt lat="46.038842" lon="11.8810076"><ele>338.0</ele><time>2026-05-02T12:08:36.143Z</time></trkpt><trkpt lat="46.0389087" lon="11.8809629"><ele>338.5</ele><time>2026-05-02T12:08:37.142Z</time></trkpt><trkpt lat="46.0389705" lon="11.8809246"><ele>339.0</ele><time>2026-05-02T12:08:38.144Z</time></trkpt><trkpt lat="46.0390502" lon="11.8808649"><ele>339.5</ele><time>2026-05-02T12:08:40.143Z</time></trkpt><trkpt lat="46.0391388" lon="11.8808137"><ele>340.0</ele><time>2026-05-02T12:08:42.144Z</time></trkpt><trkpt lat="46.0392045" lon="11.8807604"><ele>340.5</ele><time>2026-05-02T12:08:43.143Z</time></trkpt><trkpt lat="46.0392791" lon="11.8807032"><ele>341.0</ele><time>2026-05-02T12:08:44.143Z</time></trkpt><trkpt lat="46.0393621" lon="11.8806449"><ele>341.5</ele><time>2026-05-02T12:08:45.144Z</time></trkpt><trkpt lat="46.0394524" lon="11.8805813"><ele>342.0</ele><time>2026-05-02T12:08:46.144Z</time></trkpt><trkpt lat="46.0395488" lon="11.8805127"><ele>342.0</ele><time>2026-05-02T12:08:47.143Z</time></trkpt><trkpt lat="46.0396406" lon="11.8804472"><ele>342.0</ele><time>2026-05-02T12:08:48.143Z</time></trkpt><trkpt lat="46.0397222" lon="11.880394"><ele>342.0</ele><time>2026-05-02T12:08:49.143Z</time></trkpt><trkpt lat="46.0397914" lon="11.8803566"><ele>342.0</ele><time>2026-05-02T12:08:50.144Z</time></trkpt><trkpt lat="46.0398571" lon="11.8803327"><ele>342.0</ele><time>2026-05-02T12:08:51.144Z</time></trkpt><trkpt lat="46.0399257" lon="11.8804432"><ele>342.0</ele><time>2026-05-02T12:08:53.144Z</time></trkpt><trkpt lat="46.0399741" lon="11.8806246"><ele>342.8</ele><time>2026-05-02T12:08:55.143Z</time></trkpt><trkpt lat="46.0400245" lon="11.8807015"><ele>343.6</ele><time>2026-05-02T12:08:56.143Z</time></trkpt><trkpt lat="46.0400983" lon="11.8807524"><ele>344.40000000000003</ele><time>2026-05-02T12:08:57.144Z</time></trkpt><trkpt lat="46.0401899" lon="11.8807898"><ele>345.20000000000005</ele><time>2026-05-02T12:08:58.144Z</time></trkpt><trkpt lat="46.0402851" lon="11.8808331"><ele>346.0</ele><time>2026-05-02T12:08:59.144Z</time></trkpt><trkpt lat="46.0403805" lon="11.8808882"><ele>345.8</ele><time>2026-05-02T12:09:00.144Z</time></trkpt><trkpt lat="46.040444" lon="11.8809851"><ele>345.6</ele><time>2026-05-02T12:09:01.143Z</time></trkpt><trkpt lat="46.0404994" lon="11.8811005"><ele>345.4</ele><time>2026-05-02T12:09:02.143Z</time></trkpt><trkpt lat="46.0405302" lon="11.8812365"><ele>345.2</ele><time>2026-05-02T12:09:03.143Z</time></trkpt><trkpt lat="46.0405714" lon="11.8813863"><ele>345.0</ele><time>2026-05-02T12:09:04.143Z</time></trkpt><trkpt lat="46.040617" lon="11.8815396"><ele>345.0</ele><time>2026-05-02T12:09:05.144Z</time></trkpt><trkpt lat="46.0406639" lon="11.8816893"><ele>345.0</ele><time>2026-05-02T12:09:06.143Z</time></trkpt><trkpt lat="46.0407146" lon="11.8818435"><ele>345.0</ele><time>2026-05-02T12:09:07.144Z</time></trkpt><trkpt lat="46.0407735" lon="11.8819992"><ele>345.0</ele><time>2026-05-02T12:09:08.144Z</time></trkpt><trkpt lat="46.0408381" lon="11.8821512"><ele>345.8</ele><time>2026-05-02T12:09:09.144Z</time></trkpt><trkpt lat="46.040909" lon="11.8822868"><ele>346.6</ele><time>2026-05-02T12:09:10.143Z</time></trkpt><trkpt lat="46.040989" lon="11.8823918"><ele>347.4</ele><time>2026-05-02T12:09:11.144Z</time></trkpt><trkpt lat="46.041085" lon="11.8824579"><ele>348.2</ele><time>2026-05-02T12:09:12.143Z</time></trkpt><trkpt lat="46.0411944" lon="11.8824779"><ele>349.0</ele><time>2026-05-02T12:09:13.143Z</time></trkpt><trkpt lat="46.0413024" lon="11.882466"><ele>349.0</ele><time>2026-05-02T12:09:14.143Z</time></trkpt><trkpt lat="46.0413997" lon="11.8824441"><ele>349.0</ele><time>2026-05-02T12:09:15.144Z</time></trkpt><trkpt lat="46.0414881" lon="11.8824254"><ele>349.0</ele><time>2026-05-02T12:09:16.143Z</time></trkpt><trkpt lat="46.0415548" lon="11.882447"><ele>349.0</ele><time>2026-05-02T12:09:17.144Z</time></trkpt><trkpt lat="46.0416077" lon="11.8826189"><ele>349.0</ele><time>2026-05-02T12:09:19.143Z</time></trkpt><trkpt lat="46.0416189" lon="11.8827593"><ele>349.5</ele><time>2026-05-02T12:09:20.143Z</time></trkpt><trkpt lat="46.0416389" lon="11.8829227"><ele>350.0</ele><time>2026-05-02T12:09:21.143Z</time></trkpt><trkpt lat="46.0416732" lon="11.8830923"><ele>350.5</ele><time>2026-05-02T12:09:22.143Z</time></trkpt><trkpt lat="46.0417263" lon="11.8832637"><ele>351.0</ele><time>2026-05-02T12:09:23.145Z</time></trkpt><trkpt lat="46.0417923" lon="11.8834385"><ele>350.0</ele><time>2026-05-02T12:09:24.144Z</time></trkpt><trkpt lat="46.0418625" lon="11.8836164"><ele>349.0</ele><time>2026-05-02T12:09:25.144Z</time></trkpt><trkpt lat="46.041931" lon="11.883797"><ele>348.0</ele><time>2026-05-02T12:09:26.143Z</time></trkpt><trkpt lat="46.0419984" lon="11.8839777"><ele>347.0</ele><time>2026-05-02T12:09:27.144Z</time></trkpt><trkpt lat="46.0420658" lon="11.8841561"><ele>345.0</ele><time>2026-05-02T12:09:28.144Z</time></trkpt><trkpt lat="46.0421327" lon="11.8843322"><ele>343.0</ele><time>2026-05-02T12:09:29.144Z</time></trkpt><trkpt lat="46.042187" lon="11.8845128"><ele>341.0</ele><time>2026-05-02T12:09:30.144Z</time></trkpt><trkpt lat="46.0422265" lon="11.8847"><ele>339.0</ele><time>2026-05-02T12:09:31.143Z</time></trkpt><trkpt lat="46.0422569" lon="11.8848925"><ele>339.0</ele><time>2026-05-02T12:09:32.143Z</time></trkpt><trkpt lat="46.0422855" lon="11.8850838"><ele>339.0</ele><time>2026-05-02T12:09:33.144Z</time></trkpt><trkpt lat="46.042312" lon="11.885274"><ele>339.0</ele><time>2026-05-02T12:09:34.143Z</time></trkpt><trkpt lat="46.0423391" lon="11.8854598"><ele>339.0</ele><time>2026-05-02T12:09:35.143Z</time></trkpt><trkpt lat="46.0423755" lon="11.885642"><ele>339.25</ele><time>2026-05-02T12:09:36.145Z</time></trkpt><trkpt lat="46.0424279" lon="11.8858166"><ele>339.5</ele><time>2026-05-02T12:09:37.144Z</time></trkpt><trkpt lat="46.0424872" lon="11.8859926"><ele>339.75</ele><time>2026-05-02T12:09:38.144Z</time></trkpt><trkpt lat="46.0425644" lon="11.8861697"><ele>340.0</ele><time>2026-05-02T12:09:39.144Z</time></trkpt><trkpt lat="46.0426509" lon="11.8863425"><ele>340.0</ele><time>2026-05-02T12:09:40.145Z</time></trkpt><trkpt lat="46.0427433" lon="11.8865088"><ele>340.0</ele><time>2026-05-02T12:09:41.144Z</time></trkpt><trkpt lat="46.0428283" lon="11.8866815"><ele>340.0</ele><time>2026-05-02T12:09:42.144Z</time></trkpt><trkpt lat="46.042895" lon="11.8868596"><ele>340.0</ele><time>2026-05-02T12:09:43.144Z</time></trkpt><trkpt lat="46.0429483" lon="11.8870399"><ele>339.25</ele><time>2026-05-02T12:09:44.144Z</time></trkpt><trkpt lat="46.0429893" lon="11.8872349"><ele>338.5</ele><time>2026-05-02T12:09:45.145Z</time></trkpt><trkpt lat="46.0430061" lon="11.8874401"><ele>337.75</ele><time>2026-05-02T12:09:46.144Z</time></trkpt><trkpt lat="46.0430064" lon="11.8876582"><ele>337.0</ele><time>2026-05-02T12:09:47.145Z</time></trkpt><trkpt lat="46.0430072" lon="11.8878875"><ele>337.0</ele><time>2026-05-02T12:09:48.145Z</time></trkpt><trkpt lat="46.0430164" lon="11.8881357"><ele>337.0</ele><time>2026-05-02T12:09:49.144Z</time></trkpt><trkpt lat="46.0430403" lon="11.8883949"><ele>337.0</ele><time>2026-05-02T12:09:50.145Z</time></trkpt><trkpt lat="46.0430606" lon="11.8886435"><ele>337.5</ele><time>2026-05-02T12:09:51.144Z</time></trkpt><trkpt lat="46.0430665" lon="11.8888629"><ele>338.0</ele><time>2026-05-02T12:09:52.145Z</time></trkpt><trkpt lat="46.0430584" lon="11.889075"><ele>338.5</ele><time>2026-05-02T12:09:53.145Z</time></trkpt><trkpt lat="46.0430387" lon="11.8892832"><ele>339.0</ele><time>2026-05-02T12:09:54.145Z</time></trkpt><trkpt lat="46.0430167" lon="11.8894896"><ele>339.0</ele><time>2026-05-02T12:09:55.144Z</time></trkpt><trkpt lat="46.0429968" lon="11.8896965"><ele>339.0</ele><time>2026-05-02T12:09:56.144Z</time></trkpt><trkpt lat="46.0429825" lon="11.8899045"><ele>339.0</ele><time>2026-05-02T12:09:57.145Z</time></trkpt><trkpt lat="46.0429794" lon="11.8901122"><ele>339.0</ele><time>2026-05-02T12:09:58.144Z</time></trkpt><trkpt lat="46.042986" lon="11.8903167"><ele>339.25</ele><time>2026-05-02T12:09:59.145Z</time></trkpt><trkpt lat="46.042995" lon="11.8905129"><ele>339.5</ele><time>2026-05-02T12:10:00.145Z</time></trkpt><trkpt lat="46.0429919" lon="11.89069"><ele>339.75</ele><time>2026-05-02T12:10:01.144Z</time></trkpt><trkpt lat="46.0429787" lon="11.8908535"><ele>340.0</ele><time>2026-05-02T12:10:02.144Z</time></trkpt><trkpt lat="46.0429649" lon="11.891004"><ele>340.25</ele><time>2026-05-02T12:10:03.145Z</time></trkpt><trkpt lat="46.0428974" lon="11.8911263"><ele>340.5</ele><time>2026-05-02T12:10:04.145Z</time></trkpt><trkpt lat="46.0428175" lon="11.8912531"><ele>340.75</ele><time>2026-05-02T12:10:05.144Z</time></trkpt><trkpt lat="46.0427587" lon="11.8914086"><ele>341.0</ele><time>2026-05-02T12:10:06.145Z</time></trkpt><trkpt lat="46.0427139" lon="11.8915935"><ele>339.33333333333337</ele><time>2026-05-02T12:10:07.145Z</time></trkpt><trkpt lat="46.0426719" lon="11.8917993"><ele>337.6666666666667</ele><time>2026-05-02T12:10:08.145Z</time></trkpt><trkpt lat="46.0426287" lon="11.89202"><ele>336.0</ele><time>2026-05-02T12:10:09.144Z</time></trkpt><trkpt lat="46.042581" lon="11.8922475"><ele>336.0</ele><time>2026-05-02T12:10:10.144Z</time></trkpt><trkpt lat="46.0425249" lon="11.8924782"><ele>336.0</ele><time>2026-05-02T12:10:11.144Z</time></trkpt><trkpt lat="46.0424591" lon="11.8927069"><ele>336.0</ele><time>2026-05-02T12:10:12.144Z</time></trkpt><trkpt lat="46.0423877" lon="11.892936"><ele>334.6666666666667</ele><time>2026-05-02T12:10:13.144Z</time></trkpt><trkpt lat="46.0423186" lon="11.8931681"><ele>333.33333333333337</ele><time>2026-05-02T12:10:14.144Z</time></trkpt><trkpt lat="46.0422581" lon="11.8934025"><ele>332.0</ele><time>2026-05-02T12:10:15.145Z</time></trkpt><trkpt lat="46.0422078" lon="11.8936367"><ele>332.0</ele><time>2026-05-02T12:10:16.144Z</time></trkpt><trkpt lat="46.0421624" lon="11.893874"><ele>332.0</ele><time>2026-05-02T12:10:17.145Z</time></trkpt><trkpt lat="46.0421178" lon="11.8941179"><ele>332.0</ele><time>2026-05-02T12:10:18.144Z</time></trkpt><trkpt lat="46.0420711" lon="11.8943657"><ele>332.0</ele><time>2026-05-02T12:10:19.144Z</time></trkpt><trkpt lat="46.0420235" lon="11.8946151"><ele>332.0</ele><time>2026-05-02T12:10:20.145Z</time></trkpt><trkpt lat="46.0419766" lon="11.8948662"><ele>332.0</ele><time>2026-05-02T12:10:21.144Z</time></trkpt><trkpt lat="46.0419283" lon="11.8951135"><ele>332.33333333333337</ele><time>2026-05-02T12:10:22.144Z</time></trkpt><trkpt lat="46.0418778" lon="11.8953565"><ele>332.6666666666667</ele><time>2026-05-02T12:10:23.144Z</time></trkpt><trkpt lat="46.0418309" lon="11.8956005"><ele>333.0</ele><time>2026-05-02T12:10:24.145Z</time></trkpt><trkpt lat="46.0417831" lon="11.8958422"><ele>333.6666666666667</ele><time>2026-05-02T12:10:25.145Z</time></trkpt><trkpt lat="46.0417399" lon="11.8960802"><ele>334.33333333333337</ele><time>2026-05-02T12:10:26.144Z</time></trkpt><trkpt lat="46.041711" lon="11.8963193"><ele>335.0</ele><time>2026-05-02T12:10:27.144Z</time></trkpt><trkpt lat="46.0416871" lon="11.8965607"><ele>333.6666666666667</ele><time>2026-05-02T12:10:28.145Z</time></trkpt><trkpt lat="46.0416805" lon="11.8968004"><ele>332.3333333333333</ele><time>2026-05-02T12:10:29.145Z</time></trkpt><trkpt lat="46.0416772" lon="11.8970193"><ele>331.0</ele><time>2026-05-02T12:10:30.144Z</time></trkpt><trkpt lat="46.0416772" lon="11.8972456"><ele>331.0</ele><time>2026-05-02T12:10:31.145Z</time></trkpt><trkpt lat="46.0416731" lon="11.8974613"><ele>331.0</ele><time>2026-05-02T12:10:32.144Z</time></trkpt><trkpt lat="46.0416724" lon="11.8976794"><ele>331.0</ele><time>2026-05-02T12:10:33.145Z</time></trkpt><trkpt lat="46.0416655" lon="11.8978939"><ele>331.66666666666663</ele><time>2026-05-02T12:10:34.145Z</time></trkpt><trkpt lat="46.0416646" lon="11.8981215"><ele>332.3333333333333</ele><time>2026-05-02T12:10:35.146Z</time></trkpt><trkpt lat="46.0416709" lon="11.898346"><ele>333.0</ele><time>2026-05-02T12:10:36.146Z</time></trkpt><trkpt lat="46.0416715" lon="11.8985726"><ele>334.0</ele><time>2026-05-02T12:10:37.145Z</time></trkpt><trkpt lat="46.0416696" lon="11.8987894"><ele>335.0</ele><time>2026-05-02T12:10:38.146Z</time></trkpt><trkpt lat="46.0416744" lon="11.8990151"><ele>336.0</ele><time>2026-05-02T12:10:39.145Z</time></trkpt><trkpt lat="46.0416779" lon="11.8992413"><ele>336.6666666666667</ele><time>2026-05-02T12:10:40.146Z</time></trkpt><trkpt lat="46.041682" lon="11.8994611"><ele>337.33333333333337</ele><time>2026-05-02T12:10:41.145Z</time></trkpt><trkpt lat="46.0416836" lon="11.899686"><ele>338.0</ele><time>2026-05-02T12:10:42.146Z</time></trkpt><trkpt lat="46.041689" lon="11.8999154"><ele>338.0</ele><time>2026-05-02T12:10:43.145Z</time></trkpt><trkpt lat="46.0416938" lon="11.9001312"><ele>338.0</ele><time>2026-05-02T12:10:44.145Z</time></trkpt><trkpt lat="46.0417017" lon="11.9003444"><ele>338.0</ele><time>2026-05-02T12:10:45.145Z</time></trkpt><trkpt lat="46.041711" lon="11.900551"><ele>338.0</ele><time>2026-05-02T12:10:46.146Z</time></trkpt><trkpt lat="46.0417215" lon="11.9007527"><ele>337.75</ele><time>2026-05-02T12:10:47.146Z</time></trkpt><trkpt lat="46.0417269" lon="11.9009614"><ele>337.5</ele><time>2026-05-02T12:10:48.146Z</time></trkpt><trkpt lat="46.0417134" lon="11.9011662"><ele>337.25</ele><time>2026-05-02T12:10:49.145Z</time></trkpt><trkpt lat="46.0416802" lon="11.9013655"><ele>337.0</ele><time>2026-05-02T12:10:50.145Z</time></trkpt><trkpt lat="46.0416317" lon="11.9015672"><ele>335.75</ele><time>2026-05-02T12:10:51.145Z</time></trkpt><trkpt lat="46.041565" lon="11.9017519"><ele>334.5</ele><time>2026-05-02T12:10:52.146Z</time></trkpt><trkpt lat="46.041507" lon="11.9019321"><ele>333.25</ele><time>2026-05-02T12:10:53.145Z</time></trkpt><trkpt lat="46.041436" lon="11.9021166"><ele>332.0</ele><time>2026-05-02T12:10:54.145Z</time></trkpt><trkpt lat="46.0413699" lon="11.9022819"><ele>332.0</ele><time>2026-05-02T12:10:55.145Z</time></trkpt><trkpt lat="46.041314" lon="11.9024386"><ele>332.0</ele><time>2026-05-02T12:10:56.146Z</time></trkpt><trkpt lat="46.0412538" lon="11.9026004"><ele>332.0</ele><time>2026-05-02T12:10:57.146Z</time></trkpt><trkpt lat="46.0411853" lon="11.9027549"><ele>332.0</ele><time>2026-05-02T12:10:58.145Z</time></trkpt><trkpt lat="46.0411068" lon="11.9028962"><ele>332.40000000000003</ele><time>2026-05-02T12:10:59.146Z</time></trkpt><trkpt lat="46.0410317" lon="11.9030122"><ele>332.8</ele><time>2026-05-02T12:11:00.146Z</time></trkpt><trkpt lat="46.0409636" lon="11.9031302"><ele>333.2</ele><time>2026-05-02T12:11:01.146Z</time></trkpt><trkpt lat="46.0408953" lon="11.903244"><ele>333.6</ele><time>2026-05-02T12:11:02.145Z</time></trkpt><trkpt lat="46.0408263" lon="11.9033599"><ele>334.0</ele><time>2026-05-02T12:11:03.146Z</time></trkpt><trkpt lat="46.0407573" lon="11.9034786"><ele>332.2</ele><time>2026-05-02T12:11:04.145Z</time></trkpt><trkpt lat="46.0407024" lon="11.9036114"><ele>330.4</ele><time>2026-05-02T12:11:05.146Z</time></trkpt><trkpt lat="46.0406713" lon="11.9037599"><ele>328.6</ele><time>2026-05-02T12:11:06.146Z</time></trkpt><trkpt lat="46.0406617" lon="11.9039153"><ele>326.8</ele><time>2026-05-02T12:11:07.145Z</time></trkpt><trkpt lat="46.0406687" lon="11.9040759"><ele>325.0</ele><time>2026-05-02T12:11:08.145Z</time></trkpt><trkpt lat="46.0406894" lon="11.9042379"><ele>324.6</ele><time>2026-05-02T12:11:09.145Z</time></trkpt><trkpt lat="46.0407179" lon="11.9043957"><ele>324.2</ele><time>2026-05-02T12:11:10.146Z</time></trkpt><trkpt lat="46.0407423" lon="11.9045434"><ele>323.79999999999995</ele><time>2026-05-02T12:11:11.146Z</time></trkpt><trkpt lat="46.0407566" lon="11.9046811"><ele>323.4</ele><time>2026-05-02T12:11:12.145Z</time></trkpt><trkpt lat="46.0407592" lon="11.9048097"><ele>323.0</ele><time>2026-05-02T12:11:13.145Z</time></trkpt><trkpt lat="46.0407514" lon="11.9049389"><ele>323.0</ele><time>2026-05-02T12:11:14.146Z</time></trkpt><trkpt lat="46.0407333" lon="11.9050696"><ele>323.0</ele><time>2026-05-02T12:11:15.145Z</time></trkpt><trkpt lat="46.040709" lon="11.9051958"><ele>323.0</ele><time>2026-05-02T12:11:16.145Z</time></trkpt><trkpt lat="46.0406839" lon="11.9053188"><ele>323.0</ele><time>2026-05-02T12:11:17.146Z</time></trkpt><trkpt lat="46.0406613" lon="11.9054369"><ele>323.0</ele><time>2026-05-02T12:11:18.145Z</time></trkpt><trkpt lat="46.0406409" lon="11.9055498"><ele>323.0</ele><time>2026-05-02T12:11:19.145Z</time></trkpt><trkpt lat="46.040617" lon="11.9056556"><ele>321.83333333333337</ele><time>2026-05-02T12:11:20.146Z</time></trkpt><trkpt lat="46.0405791" lon="11.9057557"><ele>320.6666666666667</ele><time>2026-05-02T12:11:21.146Z</time></trkpt><trkpt lat="46.0405212" lon="11.9058433"><ele>319.5</ele><time>2026-05-02T12:11:22.145Z</time></trkpt><trkpt lat="46.0404496" lon="11.9059057"><ele>318.3333333333333</ele><time>2026-05-02T12:11:23.146Z</time></trkpt><trkpt lat="46.040379" lon="11.9059517"><ele>317.16666666666663</ele><time>2026-05-02T12:11:24.145Z</time></trkpt><trkpt lat="46.0402928" lon="11.9059666"><ele>316.0</ele><time>2026-05-02T12:11:25.145Z</time></trkpt><trkpt lat="46.0401943" lon="11.9059362"><ele>316.0</ele><time>2026-05-02T12:11:26.146Z</time></trkpt><trkpt lat="46.0401003" lon="11.9058734"><ele>316.0</ele><time>2026-05-02T12:11:27.146Z</time></trkpt><trkpt lat="46.0400056" lon="11.9058016"><ele>316.0</ele><time>2026-05-02T12:11:28.146Z</time></trkpt><trkpt lat="46.0399154" lon="11.9057351"><ele>316.0</ele><time>2026-05-02T12:11:29.146Z</time></trkpt><trkpt lat="46.0398276" lon="11.9056725"><ele>316.0</ele><time>2026-05-02T12:11:30.146Z</time></trkpt><trkpt lat="46.0397412" lon="11.9056052"><ele>314.0</ele><time>2026-05-02T12:11:31.147Z</time></trkpt><trkpt lat="46.0396502" lon="11.9055344"><ele>312.0</ele><time>2026-05-02T12:11:32.145Z</time></trkpt><trkpt lat="46.0395542" lon="11.9054661"><ele>310.0</ele><time>2026-05-02T12:11:33.147Z</time></trkpt><trkpt lat="46.0394508" lon="11.9054496"><ele>308.0</ele><time>2026-05-02T12:11:34.147Z</time></trkpt><trkpt lat="46.039348" lon="11.9054768"><ele>306.0</ele><time>2026-05-02T12:11:35.146Z</time></trkpt><trkpt lat="46.0392523" lon="11.9055486"><ele>306.0</ele><time>2026-05-02T12:11:36.146Z</time></trkpt><trkpt lat="46.0391761" lon="11.9056616"><ele>306.0</ele><time>2026-05-02T12:11:37.147Z</time></trkpt><trkpt lat="46.0391099" lon="11.9057943"><ele>306.0</ele><time>2026-05-02T12:11:38.146Z</time></trkpt><trkpt lat="46.0390704" lon="11.9059653"><ele>306.0</ele><time>2026-05-02T12:11:39.147Z</time></trkpt><trkpt lat="46.0390329" lon="11.9061368"><ele>306.0</ele><time>2026-05-02T12:11:40.147Z</time></trkpt><trkpt lat="46.0389964" lon="11.9063061"><ele>306.0</ele><time>2026-05-02T12:11:41.147Z</time></trkpt><trkpt lat="46.0389614" lon="11.9064731"><ele>306.0</ele><time>2026-05-02T12:11:42.146Z</time></trkpt><trkpt lat="46.0389327" lon="11.9066471"><ele>306.0</ele><time>2026-05-02T12:11:43.147Z</time></trkpt><trkpt lat="46.0389123" lon="11.906829"><ele>306.0</ele><time>2026-05-02T12:11:44.147Z</time></trkpt><trkpt lat="46.0389017" lon="11.9070147"><ele>306.0</ele><time>2026-05-02T12:11:45.146Z</time></trkpt><trkpt lat="46.0389038" lon="11.9071951"><ele>306.0</ele><time>2026-05-02T12:11:46.147Z</time></trkpt><trkpt lat="46.038916" lon="11.9073629"><ele>306.0</ele><time>2026-05-02T12:11:47.147Z</time></trkpt><trkpt lat="46.0389375" lon="11.9075168"><ele>306.2</ele><time>2026-05-02T12:11:48.147Z</time></trkpt><trkpt lat="46.0389661" lon="11.9076546"><ele>306.40000000000003</ele><time>2026-05-02T12:11:49.146Z</time></trkpt><trkpt lat="46.0390013" lon="11.907788"><ele>306.6</ele><time>2026-05-02T12:11:50.147Z</time></trkpt><trkpt lat="46.0390444" lon="11.9079175"><ele>306.8</ele><time>2026-05-02T12:11:51.147Z</time></trkpt><trkpt lat="46.0390946" lon="11.9080448"><ele>307.0</ele><time>2026-05-02T12:11:52.146Z</time></trkpt><trkpt lat="46.0391549" lon="11.908168"><ele>307.25</ele><time>2026-05-02T12:11:53.147Z</time></trkpt><trkpt lat="46.039222" lon="11.9082921"><ele>307.5</ele><time>2026-05-02T12:11:54.147Z</time></trkpt><trkpt lat="46.0392963" lon="11.9084149"><ele>307.75</ele><time>2026-05-02T12:11:55.146Z</time></trkpt><trkpt lat="46.0393742" lon="11.9085363"><ele>308.0</ele><time>2026-05-02T12:11:56.146Z</time></trkpt><trkpt lat="46.0394532" lon="11.9086594"><ele>308.4</ele><time>2026-05-02T12:11:57.146Z</time></trkpt><trkpt lat="46.0395301" lon="11.9087806"><ele>308.8</ele><time>2026-05-02T12:11:58.147Z</time></trkpt><trkpt lat="46.0395977" lon="11.9088874"><ele>309.2</ele><time>2026-05-02T12:11:59.146Z</time></trkpt><trkpt lat="46.039659" lon="11.9089811"><ele>309.6</ele><time>2026-05-02T12:12:00.147Z</time></trkpt><trkpt lat="46.0397175" lon="11.9090649"><ele>310.0</ele><time>2026-05-02T12:12:01.146Z</time></trkpt><trkpt lat="46.0397773" lon="11.9091457"><ele>310.0</ele><time>2026-05-02T12:12:02.146Z</time></trkpt><trkpt lat="46.0398369" lon="11.9092212"><ele>310.0</ele><time>2026-05-02T12:12:03.146Z</time></trkpt><trkpt lat="46.0398906" lon="11.9092867"><ele>310.0</ele><time>2026-05-02T12:12:04.147Z</time></trkpt><trkpt lat="46.0399667" lon="11.909389"><ele>310.0</ele><time>2026-05-02T12:12:06.147Z</time></trkpt><trkpt lat="46.0400048" lon="11.9094679"><ele>310.0</ele><time>2026-05-02T12:12:08.147Z</time></trkpt><trkpt lat="46.0400241" lon="11.9095682"><ele>310.0</ele><time>2026-05-02T12:12:10.147Z</time></trkpt><trkpt lat="46.0400198" lon="11.9097345"><ele>310.16666666666663</ele><time>2026-05-02T12:12:12.147Z</time></trkpt><trkpt lat="46.040032" lon="11.9098326"><ele>310.3333333333333</ele><time>2026-05-02T12:12:13.146Z</time></trkpt><trkpt lat="46.0400729" lon="11.9099128"><ele>310.5</ele><time>2026-05-02T12:12:14.147Z</time></trkpt><trkpt lat="46.0401347" lon="11.9099533"><ele>310.6666666666667</ele><time>2026-05-02T12:12:15.147Z</time></trkpt><trkpt lat="46.040207" lon="11.9099437"><ele>310.83333333333337</ele><time>2026-05-02T12:12:16.146Z</time></trkpt><trkpt lat="46.0402856" lon="11.9099095"><ele>311.0</ele><time>2026-05-02T12:12:17.147Z</time></trkpt><trkpt lat="46.0403817" lon="11.9098844"><ele>311.0</ele><time>2026-05-02T12:12:18.147Z</time></trkpt><trkpt lat="46.0404974" lon="11.9098875"><ele>311.0</ele><time>2026-05-02T12:12:19.147Z</time></trkpt><trkpt lat="46.0406274" lon="11.9099196"><ele>311.0</ele><time>2026-05-02T12:12:20.146Z</time></trkpt><trkpt lat="46.0407697" lon="11.9099661"><ele>311.0</ele><time>2026-05-02T12:12:21.147Z</time></trkpt><trkpt lat="46.0409222" lon="11.9100193"><ele>311.0</ele><time>2026-05-02T12:12:22.146Z</time></trkpt><trkpt lat="46.0410839" lon="11.9100803"><ele>311.0</ele><time>2026-05-02T12:12:23.147Z</time></trkpt><trkpt lat="46.0412524" lon="11.9101473"><ele>311.0</ele><time>2026-05-02T12:12:24.147Z</time></trkpt><trkpt lat="46.041427" lon="11.9102136"><ele>311.0</ele><time>2026-05-02T12:12:25.147Z</time></trkpt><trkpt lat="46.0416068" lon="11.9102835"><ele>311.0</ele><time>2026-05-02T12:12:26.147Z</time></trkpt><trkpt lat="46.0417863" lon="11.9103528"><ele>311.0</ele><time>2026-05-02T12:12:27.147Z</time></trkpt><trkpt lat="46.0419718" lon="11.9104272"><ele>313.33333333333337</ele><time>2026-05-02T12:12:28.146Z</time></trkpt><trkpt lat="46.0421581" lon="11.9105023"><ele>315.6666666666667</ele><time>2026-05-02T12:12:29.146Z</time></trkpt><trkpt lat="46.0423457" lon="11.9105774"><ele>318.0</ele><time>2026-05-02T12:12:30.148Z</time></trkpt><trkpt lat="46.0425311" lon="11.9106527"><ele>318.6666666666667</ele><time>2026-05-02T12:12:31.146Z</time></trkpt><trkpt lat="46.042714" lon="11.9107295"><ele>319.33333333333337</ele><time>2026-05-02T12:12:32.147Z</time></trkpt><trkpt lat="46.0428965" lon="11.9108038"><ele>320.0</ele><time>2026-05-02T12:12:33.147Z</time></trkpt><trkpt lat="46.0430801" lon="11.9108763"><ele>319.33333333333337</ele><time>2026-05-02T12:12:34.148Z</time></trkpt><trkpt lat="46.043265" lon="11.9109458"><ele>318.6666666666667</ele><time>2026-05-02T12:12:35.148Z</time></trkpt><trkpt lat="46.0434457" lon="11.9110159"><ele>318.0</ele><time>2026-05-02T12:12:36.147Z</time></trkpt><trkpt lat="46.0436302" lon="11.9110863"><ele>319.6666666666667</ele><time>2026-05-02T12:12:37.148Z</time></trkpt><trkpt lat="46.0438156" lon="11.9111575"><ele>321.33333333333337</ele><time>2026-05-02T12:12:38.147Z</time></trkpt><trkpt lat="46.044005" lon="11.9112381"><ele>323.0</ele><time>2026-05-02T12:12:39.147Z</time></trkpt><trkpt lat="46.0441952" lon="11.9113267"><ele>324.0</ele><time>2026-05-02T12:12:40.147Z</time></trkpt><trkpt lat="46.0443852" lon="11.911437"><ele>325.0</ele><time>2026-05-02T12:12:41.147Z</time></trkpt><trkpt lat="46.0445657" lon="11.9115689"><ele>326.0</ele><time>2026-05-02T12:12:42.148Z</time></trkpt><trkpt lat="46.0447417" lon="11.9117067"><ele>326.0</ele><time>2026-05-02T12:12:43.148Z</time></trkpt><trkpt lat="46.0449197" lon="11.9118548"><ele>326.0</ele><time>2026-05-02T12:12:44.148Z</time></trkpt><trkpt lat="46.0450913" lon="11.9120182"><ele>326.0</ele><time>2026-05-02T12:12:45.147Z</time></trkpt><trkpt lat="46.0452551" lon="11.9121877"><ele>326.6666666666667</ele><time>2026-05-02T12:12:46.147Z</time></trkpt><trkpt lat="46.0454153" lon="11.9123678"><ele>327.3333333333333</ele><time>2026-05-02T12:12:47.147Z</time></trkpt><trkpt lat="46.0455705" lon="11.9125674"><ele>328.0</ele><time>2026-05-02T12:12:48.148Z</time></trkpt><trkpt lat="46.0457203" lon="11.9127726"><ele>328.3333333333333</ele><time>2026-05-02T12:12:49.148Z</time></trkpt><trkpt lat="46.045867" lon="11.9129774"><ele>328.6666666666667</ele><time>2026-05-02T12:12:50.147Z</time></trkpt><trkpt lat="46.0460129" lon="11.913193"><ele>329.0</ele><time>2026-05-02T12:12:51.147Z</time></trkpt><trkpt lat="46.0461532" lon="11.9134079"><ele>329.0</ele><time>2026-05-02T12:12:52.148Z</time></trkpt><trkpt lat="46.0462817" lon="11.9136358"><ele>329.0</ele><time>2026-05-02T12:12:53.147Z</time></trkpt><trkpt lat="46.0464096" lon="11.9138675"><ele>329.0</ele><time>2026-05-02T12:12:54.147Z</time></trkpt><trkpt lat="46.0465291" lon="11.9141022"><ele>330.33333333333337</ele><time>2026-05-02T12:12:55.147Z</time></trkpt><trkpt lat="46.0466476" lon="11.9143399"><ele>331.6666666666667</ele><time>2026-05-02T12:12:56.148Z</time></trkpt><trkpt lat="46.0467585" lon="11.9145745"><ele>333.0</ele><time>2026-05-02T12:12:57.148Z</time></trkpt><trkpt lat="46.0468686" lon="11.914805"><ele>333.0</ele><time>2026-05-02T12:12:58.148Z</time></trkpt><trkpt lat="46.0469826" lon="11.9150307"><ele>333.0</ele><time>2026-05-02T12:12:59.147Z</time></trkpt><trkpt lat="46.0470961" lon="11.9152532"><ele>333.0</ele><time>2026-05-02T12:13:00.148Z</time></trkpt><trkpt lat="46.0472156" lon="11.9154698"><ele>332.3333333333333</ele><time>2026-05-02T12:13:01.147Z</time></trkpt><trkpt lat="46.0473431" lon="11.9156755"><ele>331.66666666666663</ele><time>2026-05-02T12:13:02.148Z</time></trkpt><trkpt lat="46.0474818" lon="11.9158655"><ele>331.0</ele><time>2026-05-02T12:13:03.147Z</time></trkpt><trkpt lat="46.0476299" lon="11.9160448"><ele>330.66666666666663</ele><time>2026-05-02T12:13:04.147Z</time></trkpt><trkpt lat="46.0477776" lon="11.9162171"><ele>330.3333333333333</ele><time>2026-05-02T12:13:05.148Z</time></trkpt><trkpt lat="46.0479309" lon="11.9163701"><ele>330.0</ele><time>2026-05-02T12:13:06.147Z</time></trkpt><trkpt lat="46.0480893" lon="11.9165214"><ele>330.0</ele><time>2026-05-02T12:13:07.148Z</time></trkpt><trkpt lat="46.0482472" lon="11.9166728"><ele>330.0</ele><time>2026-05-02T12:13:08.147Z</time></trkpt><trkpt lat="46.0484096" lon="11.9168265"><ele>330.0</ele><time>2026-05-02T12:13:09.148Z</time></trkpt><trkpt lat="46.0485729" lon="11.9169755"><ele>330.0</ele><time>2026-05-02T12:13:10.147Z</time></trkpt><trkpt lat="46.048741" lon="11.9171302"><ele>330.0</ele><time>2026-05-02T12:13:11.148Z</time></trkpt><trkpt lat="46.0489022" lon="11.917286"><ele>330.0</ele><time>2026-05-02T12:13:12.148Z</time></trkpt><trkpt lat="46.0490669" lon="11.9174414"><ele>331.3333333333333</ele><time>2026-05-02T12:13:13.147Z</time></trkpt><trkpt lat="46.0492318" lon="11.9176009"><ele>332.66666666666663</ele><time>2026-05-02T12:13:14.148Z</time></trkpt><trkpt lat="46.0494012" lon="11.9177604"><ele>334.0</ele><time>2026-05-02T12:13:15.148Z</time></trkpt><trkpt lat="46.04957" lon="11.9179138"><ele>334.0</ele><time>2026-05-02T12:13:16.147Z</time></trkpt><trkpt lat="46.0497332" lon="11.9180733"><ele>334.0</ele><time>2026-05-02T12:13:17.148Z</time></trkpt><trkpt lat="46.0499" lon="11.9182379"><ele>334.0</ele><time>2026-05-02T12:13:18.147Z</time></trkpt><trkpt lat="46.0500664" lon="11.9183947"><ele>334.0</ele><time>2026-05-02T12:13:19.148Z</time></trkpt><trkpt lat="46.0502296" lon="11.9185437"><ele>334.0</ele><time>2026-05-02T12:13:20.148Z</time></trkpt><trkpt lat="46.0503872" lon="11.9186883"><ele>334.0</ele><time>2026-05-02T12:13:21.147Z</time></trkpt><trkpt lat="46.0505499" lon="11.9188324"><ele>334.0</ele><time>2026-05-02T12:13:22.147Z</time></trkpt><trkpt lat="46.0507084" lon="11.9189855"><ele>334.0</ele><time>2026-05-02T12:13:23.147Z</time></trkpt><trkpt lat="46.0508731" lon="11.9191374"><ele>334.0</ele><time>2026-05-02T12:13:24.148Z</time></trkpt><trkpt lat="46.051044" lon="11.9192917"><ele>334.66666666666663</ele><time>2026-05-02T12:13:25.148Z</time></trkpt><trkpt lat="46.0512156" lon="11.9194501"><ele>335.3333333333333</ele><time>2026-05-02T12:13:26.147Z</time></trkpt><trkpt lat="46.0513915" lon="11.9196158"><ele>336.0</ele><time>2026-05-02T12:13:27.147Z</time></trkpt><trkpt lat="46.0515714" lon="11.9197891"><ele>336.3333333333333</ele><time>2026-05-02T12:13:28.148Z</time></trkpt><trkpt lat="46.0517298" lon="11.9199622"><ele>336.66666666666663</ele><time>2026-05-02T12:13:29.147Z</time></trkpt><trkpt lat="46.0518755" lon="11.9201238"><ele>337.0</ele><time>2026-05-02T12:13:30.147Z</time></trkpt><trkpt lat="46.0520063" lon="11.9202878"><ele>337.0</ele><time>2026-05-02T12:13:31.148Z</time></trkpt><trkpt lat="46.0521205" lon="11.9204701"><ele>337.0</ele><time>2026-05-02T12:13:32.147Z</time></trkpt><trkpt lat="46.0522259" lon="11.9206673"><ele>337.0</ele><time>2026-05-02T12:13:33.149Z</time></trkpt><trkpt lat="46.0523251" lon="11.9208751"><ele>337.3333333333333</ele><time>2026-05-02T12:13:34.149Z</time></trkpt><trkpt lat="46.0524232" lon="11.9210854"><ele>337.6666666666667</ele><time>2026-05-02T12:13:35.149Z</time></trkpt><trkpt lat="46.0525221" lon="11.9213024"><ele>338.0</ele><time>2026-05-02T12:13:36.148Z</time></trkpt><trkpt lat="46.0526202" lon="11.9215232"><ele>339.0</ele><time>2026-05-02T12:13:37.148Z</time></trkpt><trkpt lat="46.0527187" lon="11.9217498"><ele>340.0</ele><time>2026-05-02T12:13:38.148Z</time></trkpt><trkpt lat="46.0528178" lon="11.9219781"><ele>341.0</ele><time>2026-05-02T12:13:39.149Z</time></trkpt><trkpt lat="46.0529266" lon="11.9222139"><ele>341.0</ele><time>2026-05-02T12:13:40.149Z</time></trkpt><trkpt lat="46.0530338" lon="11.9224407"><ele>341.0</ele><time>2026-05-02T12:13:41.148Z</time></trkpt><trkpt lat="46.0531477" lon="11.9226752"><ele>341.0</ele><time>2026-05-02T12:13:42.148Z</time></trkpt><trkpt lat="46.0532696" lon="11.9229076"><ele>341.6666666666667</ele><time>2026-05-02T12:13:43.148Z</time></trkpt><trkpt lat="46.0533955" lon="11.9231384"><ele>342.3333333333333</ele><time>2026-05-02T12:13:44.149Z</time></trkpt><trkpt lat="46.0535248" lon="11.9233737"><ele>343.0</ele><time>2026-05-02T12:13:45.149Z</time></trkpt><trkpt lat="46.0536623" lon="11.9236175"><ele>343.3333333333333</ele><time>2026-05-02T12:13:46.148Z</time></trkpt><trkpt lat="46.0537994" lon="11.9238671"><ele>343.6666666666667</ele><time>2026-05-02T12:13:47.149Z</time></trkpt><trkpt lat="46.0539361" lon="11.9241138"><ele>344.0</ele><time>2026-05-02T12:13:48.149Z</time></trkpt><trkpt lat="46.0540728" lon="11.9243589"><ele>345.6666666666667</ele><time>2026-05-02T12:13:49.148Z</time></trkpt><trkpt lat="46.0542108" lon="11.9246076"><ele>347.3333333333333</ele><time>2026-05-02T12:13:50.148Z</time></trkpt><trkpt lat="46.0543459" lon="11.9248545"><ele>349.0</ele><time>2026-05-02T12:13:51.148Z</time></trkpt><trkpt lat="46.0544805" lon="11.9250976"><ele>349.0</ele><time>2026-05-02T12:13:52.148Z</time></trkpt><trkpt lat="46.0546171" lon="11.9253376"><ele>349.0</ele><time>2026-05-02T12:13:53.148Z</time></trkpt><trkpt lat="46.0547526" lon="11.9255723"><ele>349.0</ele><time>2026-05-02T12:13:54.148Z</time></trkpt><trkpt lat="46.0548943" lon="11.9258018"><ele>350.0</ele><time>2026-05-02T12:13:55.149Z</time></trkpt><trkpt lat="46.0550382" lon="11.926008"><ele>351.0</ele><time>2026-05-02T12:13:56.149Z</time></trkpt><trkpt lat="46.0551933" lon="11.9262052"><ele>352.0</ele><time>2026-05-02T12:13:57.149Z</time></trkpt><trkpt lat="46.0553474" lon="11.9263933"><ele>352.0</ele><time>2026-05-02T12:13:58.149Z</time></trkpt><trkpt lat="46.0555065" lon="11.9265786"><ele>352.0</ele><time>2026-05-02T12:13:59.148Z</time></trkpt><trkpt lat="46.0556716" lon="11.9267598"><ele>352.0</ele><time>2026-05-02T12:14:00.149Z</time></trkpt><trkpt lat="46.0558472" lon="11.92693"><ele>353.0</ele><time>2026-05-02T12:14:01.149Z</time></trkpt><trkpt lat="46.0560157" lon="11.9270982"><ele>354.0</ele><time>2026-05-02T12:14:02.149Z</time></trkpt><trkpt lat="46.0561724" lon="11.9272469"><ele>355.0</ele><time>2026-05-02T12:14:03.148Z</time></trkpt><trkpt lat="46.0563243" lon="11.9273883"><ele>355.0</ele><time>2026-05-02T12:14:04.148Z</time></trkpt><trkpt lat="46.0564601" lon="11.9275181"><ele>355.0</ele><time>2026-05-02T12:14:05.148Z</time></trkpt><trkpt lat="46.0565865" lon="11.9276433"><ele>355.0</ele><time>2026-05-02T12:14:06.148Z</time></trkpt><trkpt lat="46.0567087" lon="11.9277655"><ele>356.3333333333333</ele><time>2026-05-02T12:14:07.149Z</time></trkpt><trkpt lat="46.0568416" lon="11.9278904"><ele>357.6666666666667</ele><time>2026-05-02T12:14:08.148Z</time></trkpt><trkpt lat="46.0569752" lon="11.9280128"><ele>359.0</ele><time>2026-05-02T12:14:09.149Z</time></trkpt><trkpt lat="46.0571144" lon="11.9281397"><ele>359.0</ele><time>2026-05-02T12:14:10.148Z</time></trkpt><trkpt lat="46.057252" lon="11.928264"><ele>359.0</ele><time>2026-05-02T12:14:11.149Z</time></trkpt><trkpt lat="46.0573798" lon="11.9283836"><ele>359.0</ele><time>2026-05-02T12:14:12.149Z</time></trkpt><trkpt lat="46.0574955" lon="11.9284947"><ele>359.0</ele><time>2026-05-02T12:14:13.149Z</time></trkpt><trkpt lat="46.0576182" lon="11.9286068"><ele>359.0</ele><time>2026-05-02T12:14:14.148Z</time></trkpt><trkpt lat="46.0577384" lon="11.9287225"><ele>359.0</ele><time>2026-05-02T12:14:15.148Z</time></trkpt><trkpt lat="46.0578573" lon="11.928844"><ele>359.0</ele><time>2026-05-02T12:14:16.149Z</time></trkpt><trkpt lat="46.0579743" lon="11.928953"><ele>359.0</ele><time>2026-05-02T12:14:17.149Z</time></trkpt><trkpt lat="46.058084" lon="11.9290706"><ele>359.0</ele><time>2026-05-02T12:14:18.149Z</time></trkpt><trkpt lat="46.0581922" lon="11.9291984"><ele>359.0</ele><time>2026-05-02T12:14:19.149Z</time></trkpt><trkpt lat="46.0582953" lon="11.9293305"><ele>359.0</ele><time>2026-05-02T12:14:20.148Z</time></trkpt><trkpt lat="46.0583934" lon="11.9294672"><ele>359.5</ele><time>2026-05-02T12:14:21.148Z</time></trkpt><trkpt lat="46.0584913" lon="11.92961"><ele>360.0</ele><time>2026-05-02T12:14:22.149Z</time></trkpt><trkpt lat="46.0585908" lon="11.9297404"><ele>360.5</ele><time>2026-05-02T12:14:23.149Z</time></trkpt><trkpt lat="46.0586937" lon="11.9298845"><ele>361.0</ele><time>2026-05-02T12:14:24.149Z</time></trkpt><trkpt lat="46.0587978" lon="11.9300433"><ele>361.3333333333333</ele><time>2026-05-02T12:14:25.148Z</time></trkpt><trkpt lat="46.0589116" lon="11.9302103"><ele>361.6666666666667</ele><time>2026-05-02T12:14:26.149Z</time></trkpt><trkpt lat="46.0590267" lon="11.9303858"><ele>362.0</ele><time>2026-05-02T12:14:27.149Z</time></trkpt><trkpt lat="46.059143" lon="11.9305714"><ele>362.6666666666667</ele><time>2026-05-02T12:14:28.148Z</time></trkpt><trkpt lat="46.0592508" lon="11.930762"><ele>363.3333333333333</ele><time>2026-05-02T12:14:29.15Z</time></trkpt><trkpt lat="46.0593435" lon="11.9309569"><ele>364.0</ele><time>2026-05-02T12:14:30.15Z</time></trkpt><trkpt lat="46.0594308" lon="11.9311349"><ele>364.0</ele><time>2026-05-02T12:14:31.149Z</time></trkpt><trkpt lat="46.0595093" lon="11.9313116"><ele>364.0</ele><time>2026-05-02T12:14:32.15Z</time></trkpt><trkpt lat="46.0595865" lon="11.9314699"><ele>364.0</ele><time>2026-05-02T12:14:33.149Z</time></trkpt><trkpt lat="46.0596543" lon="11.9316226"><ele>364.0</ele><time>2026-05-02T12:14:34.15Z</time></trkpt><trkpt lat="46.0597217" lon="11.9317806"><ele>364.0</ele><time>2026-05-02T12:14:35.15Z</time></trkpt><trkpt lat="46.0597895" lon="11.931949"><ele>364.0</ele><time>2026-05-02T12:14:36.15Z</time></trkpt><trkpt lat="46.0598416" lon="11.9321269"><ele>364.0</ele><time>2026-05-02T12:14:37.15Z</time></trkpt><trkpt lat="46.0598742" lon="11.9323083"><ele>364.0</ele><time>2026-05-02T12:14:38.149Z</time></trkpt><trkpt lat="46.0599025" lon="11.9324779"><ele>364.0</ele><time>2026-05-02T12:14:39.15Z</time></trkpt><trkpt lat="46.0599195" lon="11.9326413"><ele>364.0</ele><time>2026-05-02T12:14:40.149Z</time></trkpt><trkpt lat="46.0599339" lon="11.9328062"><ele>364.0</ele><time>2026-05-02T12:14:41.15Z</time></trkpt><trkpt lat="46.0599511" lon="11.9329685"><ele>364.0</ele><time>2026-05-02T12:14:42.149Z</time></trkpt><trkpt lat="46.0599717" lon="11.9331272"><ele>363.75</ele><time>2026-05-02T12:14:43.149Z</time></trkpt><trkpt lat="46.0599996" lon="11.9332973"><ele>363.5</ele><time>2026-05-02T12:14:44.15Z</time></trkpt><trkpt lat="46.0600416" lon="11.9334613"><ele>363.25</ele><time>2026-05-02T12:14:45.15Z</time></trkpt><trkpt lat="46.0600967" lon="11.9336095"><ele>363.0</ele><time>2026-05-02T12:14:46.15Z</time></trkpt><trkpt lat="46.0601572" lon="11.9337499"><ele>362.25</ele><time>2026-05-02T12:14:47.15Z</time></trkpt><trkpt lat="46.0602234" lon="11.9338913"><ele>361.5</ele><time>2026-05-02T12:14:48.149Z</time></trkpt><trkpt lat="46.0602907" lon="11.9340345"><ele>360.75</ele><time>2026-05-02T12:14:49.15Z</time></trkpt><trkpt lat="46.0603519" lon="11.9341684"><ele>360.0</ele><time>2026-05-02T12:14:50.15Z</time></trkpt><trkpt lat="46.0604202" lon="11.9342965"><ele>359.8</ele><time>2026-05-02T12:14:51.15Z</time></trkpt><trkpt lat="46.0604827" lon="11.9344263"><ele>359.6</ele><time>2026-05-02T12:14:52.15Z</time></trkpt><trkpt lat="46.060538" lon="11.9345657"><ele>359.4</ele><time>2026-05-02T12:14:53.15Z</time></trkpt><trkpt lat="46.0605927" lon="11.9346818"><ele>359.2</ele><time>2026-05-02T12:14:54.149Z</time></trkpt><trkpt lat="46.0606609" lon="11.9347794"><ele>359.0</ele><time>2026-05-02T12:14:55.15Z</time></trkpt><trkpt lat="46.0607454" lon="11.9348492"><ele>358.6</ele><time>2026-05-02T12:14:56.149Z</time></trkpt><trkpt lat="46.0608362" lon="11.9348802"><ele>358.2</ele><time>2026-05-02T12:14:57.149Z</time></trkpt><trkpt lat="46.0609276" lon="11.934862"><ele>357.8</ele><time>2026-05-02T12:14:58.15Z</time></trkpt><trkpt lat="46.0610057" lon="11.9347924"><ele>357.40000000000003</ele><time>2026-05-02T12:14:59.15Z</time></trkpt><trkpt lat="46.0610679" lon="11.934688"><ele>357.0</ele><time>2026-05-02T12:15:00.15Z</time></trkpt><trkpt lat="46.0611104" lon="11.934571"><ele>357.0</ele><time>2026-05-02T12:15:01.149Z</time></trkpt><trkpt lat="46.0611333" lon="11.9344433"><ele>357.0</ele><time>2026-05-02T12:15:02.149Z</time></trkpt><trkpt lat="46.0611391" lon="11.9343014"><ele>357.0</ele><time>2026-05-02T12:15:03.15Z</time></trkpt><trkpt lat="46.0611455" lon="11.9341542"><ele>357.0</ele><time>2026-05-02T12:15:04.15Z</time></trkpt><trkpt lat="46.0611634" lon="11.9340033"><ele>357.0</ele><time>2026-05-02T12:15:05.15Z</time></trkpt><trkpt lat="46.0611951" lon="11.9338461"><ele>357.75</ele><time>2026-05-02T12:15:06.15Z</time></trkpt><trkpt lat="46.0612423" lon="11.9336902"><ele>358.5</ele><time>2026-05-02T12:15:07.15Z</time></trkpt><trkpt lat="46.0613036" lon="11.9335405"><ele>359.25</ele><time>2026-05-02T12:15:08.149Z</time></trkpt><trkpt lat="46.0613813" lon="11.9333951"><ele>360.0</ele><time>2026-05-02T12:15:09.15Z</time></trkpt><trkpt lat="46.0614718" lon="11.9332563"><ele>360.5</ele><time>2026-05-02T12:15:10.149Z</time></trkpt><trkpt lat="46.0615643" lon="11.9331222"><ele>361.0</ele><time>2026-05-02T12:15:11.149Z</time></trkpt><trkpt lat="46.0616559" lon="11.9329871"><ele>361.5</ele><time>2026-05-02T12:15:12.149Z</time></trkpt><trkpt lat="46.0617429" lon="11.9328477"><ele>362.0</ele><time>2026-05-02T12:15:13.15Z</time></trkpt><trkpt lat="46.0618269" lon="11.9327045"><ele>361.75</ele><time>2026-05-02T12:15:14.15Z</time></trkpt><trkpt lat="46.0619101" lon="11.9325614"><ele>361.5</ele><time>2026-05-02T12:15:15.149Z</time></trkpt><trkpt lat="46.0619968" lon="11.9324222"><ele>361.25</ele><time>2026-05-02T12:15:16.15Z</time></trkpt><trkpt lat="46.0620928" lon="11.9322953"><ele>361.0</ele><time>2026-05-02T12:15:17.149Z</time></trkpt><trkpt lat="46.062204" lon="11.9321876"><ele>361.0</ele><time>2026-05-02T12:15:18.15Z</time></trkpt><trkpt lat="46.0623265" lon="11.9321054"><ele>361.0</ele><time>2026-05-02T12:15:19.149Z</time></trkpt><trkpt lat="46.0624474" lon="11.9320384"><ele>361.0</ele><time>2026-05-02T12:15:20.149Z</time></trkpt><trkpt lat="46.0625687" lon="11.9320044"><ele>361.0</ele><time>2026-05-02T12:15:21.149Z</time></trkpt><trkpt lat="46.0626971" lon="11.9319784"><ele>356.0</ele><time>2026-05-02T12:15:22.15Z</time></trkpt><trkpt lat="46.0628356" lon="11.9319557"><ele>351.0</ele><time>2026-05-02T12:15:23.149Z</time></trkpt><trkpt lat="46.0629714" lon="11.9319334"><ele>346.0</ele><time>2026-05-02T12:15:24.149Z</time></trkpt><trkpt lat="46.0630991" lon="11.9319136"><ele>341.0</ele><time>2026-05-02T12:15:25.15Z</time></trkpt><trkpt lat="46.0632394" lon="11.9319058"><ele>340.25</ele><time>2026-05-02T12:15:26.15Z</time></trkpt><trkpt lat="46.063374" lon="11.9319223"><ele>339.5</ele><time>2026-05-02T12:15:27.151Z</time></trkpt><trkpt lat="46.0635042" lon="11.9319512"><ele>338.75</ele><time>2026-05-02T12:15:28.149Z</time></trkpt><trkpt lat="46.0636404" lon="11.9320322"><ele>338.0</ele><time>2026-05-02T12:15:29.149Z</time></trkpt><trkpt lat="46.06376" lon="11.9321406"><ele>338.0</ele><time>2026-05-02T12:15:30.15Z</time></trkpt><trkpt lat="46.0638588" lon="11.9322639"><ele>338.0</ele><time>2026-05-02T12:15:31.151Z</time></trkpt><trkpt lat="46.0639534" lon="11.932417"><ele>338.0</ele><time>2026-05-02T12:15:32.151Z</time></trkpt><trkpt lat="46.0640318" lon="11.9325761"><ele>338.0</ele><time>2026-05-02T12:15:33.151Z</time></trkpt><trkpt lat="46.0640962" lon="11.9327306"><ele>337.0</ele><time>2026-05-02T12:15:34.151Z</time></trkpt><trkpt lat="46.0641581" lon="11.9328804"><ele>336.0</ele><time>2026-05-02T12:15:35.15Z</time></trkpt><trkpt lat="46.0642252" lon="11.9330364"><ele>335.0</ele><time>2026-05-02T12:15:36.151Z</time></trkpt><trkpt lat="46.0642897" lon="11.9332008"><ele>334.0</ele><time>2026-05-02T12:15:37.151Z</time></trkpt><trkpt lat="46.0643461" lon="11.933371"><ele>333.0</ele><time>2026-05-02T12:15:38.151Z</time></trkpt><trkpt lat="46.0643853" lon="11.9335494"><ele>332.0</ele><time>2026-05-02T12:15:39.151Z</time></trkpt><trkpt lat="46.0644073" lon="11.9337353"><ele>331.0</ele><time>2026-05-02T12:15:40.15Z</time></trkpt><trkpt lat="46.0644124" lon="11.9339283"><ele>330.0</ele><time>2026-05-02T12:15:41.151Z</time></trkpt><trkpt lat="46.0644041" lon="11.9341392"><ele>333.0</ele><time>2026-05-02T12:15:42.151Z</time></trkpt><trkpt lat="46.0643804" lon="11.9343766"><ele>336.0</ele><time>2026-05-02T12:15:43.151Z</time></trkpt><trkpt lat="46.0643363" lon="11.9346312"><ele>339.0</ele><time>2026-05-02T12:15:44.151Z</time></trkpt><trkpt lat="46.0642837" lon="11.9348931"><ele>341.6666666666667</ele><time>2026-05-02T12:15:45.15Z</time></trkpt><trkpt lat="46.0642211" lon="11.9351747"><ele>344.33333333333337</ele><time>2026-05-02T12:15:46.151Z</time></trkpt><trkpt lat="46.0641644" lon="11.9354671"><ele>347.0</ele><time>2026-05-02T12:15:47.151Z</time></trkpt><trkpt lat="46.0641108" lon="11.9357652"><ele>342.33333333333337</ele><time>2026-05-02T12:15:48.151Z</time></trkpt><trkpt lat="46.0640521" lon="11.9360646"><ele>337.6666666666667</ele><time>2026-05-02T12:15:49.151Z</time></trkpt><trkpt lat="46.0639834" lon="11.9363579"><ele>333.0</ele><time>2026-05-02T12:15:50.15Z</time></trkpt><trkpt lat="46.0639056" lon="11.9366414"><ele>334.6666666666667</ele><time>2026-05-02T12:15:51.151Z</time></trkpt><trkpt lat="46.0638164" lon="11.9369168"><ele>336.33333333333337</ele><time>2026-05-02T12:15:52.151Z</time></trkpt><trkpt lat="46.0637168" lon="11.9371826"><ele>338.0</ele><time>2026-05-02T12:15:53.151Z</time></trkpt><trkpt lat="46.0636098" lon="11.9374396"><ele>341.6666666666667</ele><time>2026-05-02T12:15:54.151Z</time></trkpt><trkpt lat="46.0635034" lon="11.9376902"><ele>345.3333333333333</ele><time>2026-05-02T12:15:55.15Z</time></trkpt><trkpt lat="46.0633961" lon="11.9379363"><ele>349.0</ele><time>2026-05-02T12:15:56.15Z</time></trkpt><trkpt lat="46.0632925" lon="11.9381826"><ele>345.66666666666663</ele><time>2026-05-02T12:15:57.15Z</time></trkpt><trkpt lat="46.0632026" lon="11.9384263"><ele>342.3333333333333</ele><time>2026-05-02T12:15:58.151Z</time></trkpt><trkpt lat="46.0631301" lon="11.938681"><ele>339.0</ele><time>2026-05-02T12:15:59.15Z</time></trkpt><trkpt lat="46.0630782" lon="11.938937"><ele>339.0</ele><time>2026-05-02T12:16:00.15Z</time></trkpt><trkpt lat="46.0630598" lon="11.9392017"><ele>339.0</ele><time>2026-05-02T12:16:01.15Z</time></trkpt><trkpt lat="46.0630587" lon="11.9394657"><ele>339.0</ele><time>2026-05-02T12:16:02.151Z</time></trkpt><trkpt lat="46.0630794" lon="11.939723"><ele>342.0</ele><time>2026-05-02T12:16:03.151Z</time></trkpt><trkpt lat="46.0631239" lon="11.9399795"><ele>345.0</ele><time>2026-05-02T12:16:04.15Z</time></trkpt><trkpt lat="46.0631945" lon="11.9402336"><ele>348.0</ele><time>2026-05-02T12:16:05.15Z</time></trkpt><trkpt lat="46.0632861" lon="11.9404641"><ele>351.0</ele><time>2026-05-02T12:16:06.15Z</time></trkpt><trkpt lat="46.0634045" lon="11.9406735"><ele>354.0</ele><time>2026-05-02T12:16:07.151Z</time></trkpt><trkpt lat="46.0635435" lon="11.940864"><ele>357.0</ele><time>2026-05-02T12:16:08.151Z</time></trkpt><trkpt lat="46.0636895" lon="11.9410327"><ele>357.0</ele><time>2026-05-02T12:16:09.15Z</time></trkpt><trkpt lat="46.0638548" lon="11.9411606"><ele>357.0</ele><time>2026-05-02T12:16:10.15Z</time></trkpt><trkpt lat="46.0640381" lon="11.9412592"><ele>357.0</ele><time>2026-05-02T12:16:11.15Z</time></trkpt><trkpt lat="46.0642256" lon="11.9413165"><ele>358.6666666666667</ele><time>2026-05-02T12:16:12.151Z</time></trkpt><trkpt lat="46.0644123" lon="11.9413535"><ele>360.33333333333337</ele><time>2026-05-02T12:16:13.151Z</time></trkpt><trkpt lat="46.0646001" lon="11.9413795"><ele>362.0</ele><time>2026-05-02T12:16:14.151Z</time></trkpt><trkpt lat="46.0647901" lon="11.9414071"><ele>364.0</ele><time>2026-05-02T12:16:15.15Z</time></trkpt><trkpt lat="46.0649911" lon="11.9414342"><ele>366.0</ele><time>2026-05-02T12:16:16.15Z</time></trkpt><trkpt lat="46.0652015" lon="11.9414586"><ele>368.0</ele><time>2026-05-02T12:16:17.151Z</time></trkpt><trkpt lat="46.0654149" lon="11.9414847"><ele>368.0</ele><time>2026-05-02T12:16:18.15Z</time></trkpt><trkpt lat="46.0656304" lon="11.9415125"><ele>368.0</ele><time>2026-05-02T12:16:19.15Z</time></trkpt><trkpt lat="46.065848" lon="11.9415345"><ele>368.0</ele><time>2026-05-02T12:16:20.15Z</time></trkpt><trkpt lat="46.0660662" lon="11.941559"><ele>371.6666666666667</ele><time>2026-05-02T12:16:21.151Z</time></trkpt><trkpt lat="46.0662824" lon="11.941585"><ele>375.3333333333333</ele><time>2026-05-02T12:16:22.151Z</time></trkpt><trkpt lat="46.0665027" lon="11.9416207"><ele>379.0</ele><time>2026-05-02T12:16:23.151Z</time></trkpt><trkpt lat="46.0667173" lon="11.9416666"><ele>380.66666666666663</ele><time>2026-05-02T12:16:24.151Z</time></trkpt><trkpt lat="46.0669305" lon="11.9417355"><ele>382.3333333333333</ele><time>2026-05-02T12:16:25.151Z</time></trkpt><trkpt lat="46.0671422" lon="11.9418142"><ele>384.0</ele><time>2026-05-02T12:16:26.151Z</time></trkpt><trkpt lat="46.0673566" lon="11.9419035"><ele>385.33333333333337</ele><time>2026-05-02T12:16:27.15Z</time></trkpt><trkpt lat="46.0675691" lon="11.9419926"><ele>386.6666666666667</ele><time>2026-05-02T12:16:28.152Z</time></trkpt><trkpt lat="46.0677875" lon="11.9420768"><ele>388.0</ele><time>2026-05-02T12:16:29.151Z</time></trkpt><trkpt lat="46.0680015" lon="11.9421609"><ele>388.0</ele><time>2026-05-02T12:16:30.152Z</time></trkpt><trkpt lat="46.0682174" lon="11.9422536"><ele>388.0</ele><time>2026-05-02T12:16:31.152Z</time></trkpt><trkpt lat="46.0684281" lon="11.942353"><ele>388.0</ele><time>2026-05-02T12:16:32.151Z</time></trkpt><trkpt lat="46.0686361" lon="11.9424708"><ele>389.6666666666667</ele><time>2026-05-02T12:16:33.152Z</time></trkpt><trkpt lat="46.0688419" lon="11.9425972"><ele>391.33333333333337</ele><time>2026-05-02T12:16:34.151Z</time></trkpt><trkpt lat="46.0690413" lon="11.94274"><ele>393.0</ele><time>2026-05-02T12:16:35.151Z</time></trkpt><trkpt lat="46.0692417" lon="11.942902"><ele>393.66666666666663</ele><time>2026-05-02T12:16:36.151Z</time></trkpt><trkpt lat="46.0694308" lon="11.9430765"><ele>394.3333333333333</ele><time>2026-05-02T12:16:37.152Z</time></trkpt><trkpt lat="46.0696125" lon="11.9432568"><ele>395.0</ele><time>2026-05-02T12:16:38.152Z</time></trkpt><trkpt lat="46.0697876" lon="11.9434572"><ele>397.0</ele><time>2026-05-02T12:16:39.151Z</time></trkpt><trkpt lat="46.0699563" lon="11.9436671"><ele>399.0</ele><time>2026-05-02T12:16:40.152Z</time></trkpt><trkpt lat="46.0701172" lon="11.9438922"><ele>401.0</ele><time>2026-05-02T12:16:41.152Z</time></trkpt><trkpt lat="46.0702653" lon="11.9441236"><ele>401.3333333333333</ele><time>2026-05-02T12:16:42.151Z</time></trkpt><trkpt lat="46.0704019" lon="11.9443592"><ele>401.66666666666663</ele><time>2026-05-02T12:16:43.151Z</time></trkpt><trkpt lat="46.0705283" lon="11.9445945"><ele>402.0</ele><time>2026-05-02T12:16:44.152Z</time></trkpt><trkpt lat="46.0706454" lon="11.944844"><ele>401.66666666666663</ele><time>2026-05-02T12:16:45.151Z</time></trkpt><trkpt lat="46.0707582" lon="11.9450978"><ele>401.3333333333333</ele><time>2026-05-02T12:16:46.152Z</time></trkpt><trkpt lat="46.0708603" lon="11.9453648"><ele>401.0</ele><time>2026-05-02T12:16:47.152Z</time></trkpt><trkpt lat="46.0709562" lon="11.9456331"><ele>402.66666666666663</ele><time>2026-05-02T12:16:48.152Z</time></trkpt><trkpt lat="46.0710498" lon="11.9459055"><ele>404.33333333333337</ele><time>2026-05-02T12:16:49.152Z</time></trkpt><trkpt lat="46.0711444" lon="11.9461778"><ele>406.0</ele><time>2026-05-02T12:16:50.152Z</time></trkpt><trkpt lat="46.0712361" lon="11.9464499"><ele>406.0</ele><time>2026-05-02T12:16:51.152Z</time></trkpt><trkpt lat="46.0713193" lon="11.9467022"><ele>406.0</ele><time>2026-05-02T12:16:52.151Z</time></trkpt><trkpt lat="46.0714023" lon="11.9469317"><ele>406.0</ele><time>2026-05-02T12:16:53.152Z</time></trkpt><trkpt lat="46.0715091" lon="11.9471325"><ele>407.0</ele><time>2026-05-02T12:16:54.152Z</time></trkpt><trkpt lat="46.0716438" lon="11.9473066"><ele>408.0</ele><time>2026-05-02T12:16:55.151Z</time></trkpt><trkpt lat="46.0717956" lon="11.9474491"><ele>409.0</ele><time>2026-05-02T12:16:56.151Z</time></trkpt><trkpt lat="46.0719694" lon="11.9475559"><ele>409.0</ele><time>2026-05-02T12:16:57.152Z</time></trkpt><trkpt lat="46.0721523" lon="11.9476322"><ele>409.0</ele><time>2026-05-02T12:16:58.151Z</time></trkpt><trkpt lat="46.0723443" lon="11.9476924"><ele>409.0</ele><time>2026-05-02T12:16:59.151Z</time></trkpt><trkpt lat="46.0725338" lon="11.9477484"><ele>411.0</ele><time>2026-05-02T12:17:00.152Z</time></trkpt><trkpt lat="46.0727205" lon="11.9477992"><ele>413.0</ele><time>2026-05-02T12:17:01.151Z</time></trkpt><trkpt lat="46.0728931" lon="11.9478498"><ele>415.0</ele><time>2026-05-02T12:17:02.151Z</time></trkpt><trkpt lat="46.0730489" lon="11.9479041"><ele>415.0</ele><time>2026-05-02T12:17:03.152Z</time></trkpt><trkpt lat="46.0731904" lon="11.9479794"><ele>415.0</ele><time>2026-05-02T12:17:04.152Z</time></trkpt><trkpt lat="46.0733114" lon="11.9480859"><ele>415.0</ele><time>2026-05-02T12:17:05.152Z</time></trkpt><trkpt lat="46.0734143" lon="11.9482065"><ele>415.0</ele><time>2026-05-02T12:17:06.151Z</time></trkpt><trkpt lat="46.0735014" lon="11.948346"><ele>416.25</ele><time>2026-05-02T12:17:07.152Z</time></trkpt><trkpt lat="46.0735746" lon="11.9485005"><ele>417.5</ele><time>2026-05-02T12:17:08.152Z</time></trkpt><trkpt lat="46.0736335" lon="11.9486661"><ele>418.75</ele><time>2026-05-02T12:17:09.152Z</time></trkpt><trkpt lat="46.0736809" lon="11.9488449"><ele>420.0</ele><time>2026-05-02T12:17:10.151Z</time></trkpt><trkpt lat="46.0737281" lon="11.9490194"><ele>420.0</ele><time>2026-05-02T12:17:11.151Z</time></trkpt><trkpt lat="46.0737838" lon="11.9492011"><ele>420.0</ele><time>2026-05-02T12:17:12.152Z</time></trkpt><trkpt lat="46.0738331" lon="11.9493849"><ele>420.0</ele><time>2026-05-02T12:17:13.151Z</time></trkpt><trkpt lat="46.0738776" lon="11.9495734"><ele>420.0</ele><time>2026-05-02T12:17:14.151Z</time></trkpt><trkpt lat="46.0739349" lon="11.9497808"><ele>419.0</ele><time>2026-05-02T12:17:15.151Z</time></trkpt><trkpt lat="46.0739919" lon="11.9500108"><ele>418.0</ele><time>2026-05-02T12:17:16.151Z</time></trkpt><trkpt lat="46.0740586" lon="11.9502541"><ele>417.0</ele><time>2026-05-02T12:17:17.152Z</time></trkpt><trkpt lat="46.0741266" lon="11.9505101"><ele>419.33333333333337</ele><time>2026-05-02T12:17:18.152Z</time></trkpt><trkpt lat="46.0741994" lon="11.950777"><ele>421.6666666666667</ele><time>2026-05-02T12:17:19.151Z</time></trkpt><trkpt lat="46.0742695" lon="11.9510499"><ele>424.0</ele><time>2026-05-02T12:17:20.151Z</time></trkpt><trkpt lat="46.0743439" lon="11.9513225"><ele>424.0</ele><time>2026-05-02T12:17:21.151Z</time></trkpt><trkpt lat="46.0744132" lon="11.9515997"><ele>424.0</ele><time>2026-05-02T12:17:22.152Z</time></trkpt><trkpt lat="46.074495" lon="11.9518707"><ele>424.0</ele><time>2026-05-02T12:17:23.152Z</time></trkpt><trkpt lat="46.0745841" lon="11.9521506"><ele>423.6666666666667</ele><time>2026-05-02T12:17:24.152Z</time></trkpt><trkpt lat="46.07468" lon="11.9524246"><ele>423.33333333333337</ele><time>2026-05-02T12:17:25.153Z</time></trkpt><trkpt lat="46.0747881" lon="11.9527103"><ele>423.0</ele><time>2026-05-02T12:17:26.152Z</time></trkpt><trkpt lat="46.074902" lon="11.9529989"><ele>423.0</ele><time>2026-05-02T12:17:27.152Z</time></trkpt><trkpt lat="46.0750228" lon="11.9532909"><ele>423.0</ele><time>2026-05-02T12:17:28.153Z</time></trkpt><trkpt lat="46.0751468" lon="11.9535864"><ele>423.0</ele><time>2026-05-02T12:17:29.152Z</time></trkpt><trkpt lat="46.0752761" lon="11.9538748"><ele>423.0</ele><time>2026-05-02T12:17:30.153Z</time></trkpt><trkpt lat="46.0754052" lon="11.9541748"><ele>421.0</ele><time>2026-05-02T12:17:31.152Z</time></trkpt><trkpt lat="46.075544" lon="11.9544691"><ele>419.0</ele><time>2026-05-02T12:17:32.153Z</time></trkpt><trkpt lat="46.0756805" lon="11.9547696"><ele>423.0</ele><time>2026-05-02T12:17:33.153Z</time></trkpt><trkpt lat="46.0758115" lon="11.9550729"><ele>427.0</ele><time>2026-05-02T12:17:34.153Z</time></trkpt><trkpt lat="46.0759501" lon="11.9553717"><ele>427.0</ele><time>2026-05-02T12:17:35.153Z</time></trkpt><trkpt lat="46.0760867" lon="11.9556761"><ele>427.0</ele><time>2026-05-02T12:17:36.153Z</time></trkpt><trkpt lat="46.0762235" lon="11.9559745"><ele>425.5</ele><time>2026-05-02T12:17:37.153Z</time></trkpt><trkpt lat="46.0763581" lon="11.956269"><ele>424.0</ele><time>2026-05-02T12:17:38.153Z</time></trkpt><trkpt lat="46.0764907" lon="11.956561"><ele>429.0</ele><time>2026-05-02T12:17:39.153Z</time></trkpt><trkpt lat="46.0766232" lon="11.9568542"><ele>434.0</ele><time>2026-05-02T12:17:40.153Z</time></trkpt><trkpt lat="46.0767468" lon="11.9571408"><ele>434.0</ele><time>2026-05-02T12:17:41.152Z</time></trkpt><trkpt lat="46.0768716" lon="11.9574245"><ele>434.0</ele><time>2026-05-02T12:17:42.152Z</time></trkpt><trkpt lat="46.0770002" lon="11.9577021"><ele>434.0</ele><time>2026-05-02T12:17:43.153Z</time></trkpt><trkpt lat="46.0771234" lon="11.9579706"><ele>434.0</ele><time>2026-05-02T12:17:44.153Z</time></trkpt><trkpt lat="46.0772549" lon="11.9582261"><ele>434.0</ele><time>2026-05-02T12:17:45.153Z</time></trkpt><trkpt lat="46.077397" lon="11.958469"><ele>437.3333333333333</ele><time>2026-05-02T12:17:46.153Z</time></trkpt><trkpt lat="46.0775474" lon="11.9586912"><ele>440.66666666666663</ele><time>2026-05-02T12:17:47.153Z</time></trkpt><trkpt lat="46.0777187" lon="11.9588997"><ele>444.0</ele><time>2026-05-02T12:17:48.153Z</time></trkpt><trkpt lat="46.0779026" lon="11.9590795"><ele>443.66666666666663</ele><time>2026-05-02T12:17:49.152Z</time></trkpt><trkpt lat="46.0780965" lon="11.95924"><ele>443.3333333333333</ele><time>2026-05-02T12:17:50.153Z</time></trkpt><trkpt lat="46.0782899" lon="11.9593954"><ele>443.0</ele><time>2026-05-02T12:17:51.152Z</time></trkpt><trkpt lat="46.0784867" lon="11.9595717"><ele>445.0</ele><time>2026-05-02T12:17:52.152Z</time></trkpt><trkpt lat="46.0786662" lon="11.9597636"><ele>447.0</ele><time>2026-05-02T12:17:53.153Z</time></trkpt><trkpt lat="46.0788301" lon="11.9599717"><ele>449.0</ele><time>2026-05-02T12:17:54.152Z</time></trkpt><trkpt lat="46.0789869" lon="11.9601924"><ele>450.66666666666663</ele><time>2026-05-02T12:17:55.152Z</time></trkpt><trkpt lat="46.0791159" lon="11.9604158"><ele>452.33333333333337</ele><time>2026-05-02T12:17:56.152Z</time></trkpt><trkpt lat="46.0792382" lon="11.9606485"><ele>454.0</ele><time>2026-05-02T12:17:57.153Z</time></trkpt><trkpt lat="46.079339" lon="11.9608777"><ele>454.0</ele><time>2026-05-02T12:17:58.153Z</time></trkpt><trkpt lat="46.0794271" lon="11.9610991"><ele>454.0</ele><time>2026-05-02T12:17:59.152Z</time></trkpt><trkpt lat="46.079498" lon="11.961311"><ele>454.0</ele><time>2026-05-02T12:18:00.153Z</time></trkpt><trkpt lat="46.0795506" lon="11.9615104"><ele>454.0</ele><time>2026-05-02T12:18:01.152Z</time></trkpt><trkpt lat="46.079596" lon="11.9616958"><ele>454.0</ele><time>2026-05-02T12:18:02.152Z</time></trkpt><trkpt lat="46.079635" lon="11.9618662"><ele>454.0</ele><time>2026-05-02T12:18:03.152Z</time></trkpt><trkpt lat="46.0796623" lon="11.9620213"><ele>454.0</ele><time>2026-05-02T12:18:04.153Z</time></trkpt><trkpt lat="46.0796818" lon="11.962168"><ele>454.1666666666667</ele><time>2026-05-02T12:18:05.153Z</time></trkpt><trkpt lat="46.0796911" lon="11.9622974"><ele>454.33333333333337</ele><time>2026-05-02T12:18:06.152Z</time></trkpt><trkpt lat="46.0797026" lon="11.9624073"><ele>454.5</ele><time>2026-05-02T12:18:07.153Z</time></trkpt><trkpt lat="46.0797094" lon="11.9625126"><ele>454.66666666666663</ele><time>2026-05-02T12:18:08.153Z</time></trkpt><trkpt lat="46.0797152" lon="11.9626196"><ele>454.8333333333333</ele><time>2026-05-02T12:18:09.153Z</time></trkpt><trkpt lat="46.0797257" lon="11.9627295"><ele>455.0</ele><time>2026-05-02T12:18:10.152Z</time></trkpt><trkpt lat="46.0797315" lon="11.9628485"><ele>455.4</ele><time>2026-05-02T12:18:11.153Z</time></trkpt><trkpt lat="46.0797237" lon="11.9629819"><ele>455.8</ele><time>2026-05-02T12:18:12.152Z</time></trkpt><trkpt lat="46.0797176" lon="11.9631344"><ele>456.20000000000005</ele><time>2026-05-02T12:18:13.153Z</time></trkpt><trkpt lat="46.0797037" lon="11.9633106"><ele>456.6</ele><time>2026-05-02T12:18:14.152Z</time></trkpt><trkpt lat="46.0796916" lon="11.9634837"><ele>457.0</ele><time>2026-05-02T12:18:15.152Z</time></trkpt><trkpt lat="46.0796761" lon="11.9636318"><ele>457.40000000000003</ele><time>2026-05-02T12:18:16.154Z</time></trkpt><trkpt lat="46.0796548" lon="11.9637725"><ele>457.80000000000007</ele><time>2026-05-02T12:18:17.152Z</time></trkpt><trkpt lat="46.0796306" lon="11.9639289"><ele>458.2</ele><time>2026-05-02T12:18:18.153Z</time></trkpt><trkpt lat="46.079601" lon="11.9640709"><ele>458.6</ele><time>2026-05-02T12:18:19.152Z</time></trkpt><trkpt lat="46.0795784" lon="11.9641938"><ele>459.0</ele><time>2026-05-02T12:18:20.153Z</time></trkpt><trkpt lat="46.0795549" lon="11.9643057"><ele>459.79999999999995</ele><time>2026-05-02T12:18:21.153Z</time></trkpt><trkpt lat="46.0795261" lon="11.9644229"><ele>460.59999999999997</ele><time>2026-05-02T12:18:22.153Z</time></trkpt><trkpt lat="46.0794954" lon="11.964552"><ele>461.4</ele><time>2026-05-02T12:18:23.153Z</time></trkpt><trkpt lat="46.079465" lon="11.9646838"><ele>462.2</ele><time>2026-05-02T12:18:24.153Z</time></trkpt><trkpt lat="46.0794383" lon="11.9648094"><ele>463.0</ele><time>2026-05-02T12:18:25.153Z</time></trkpt><trkpt lat="46.0794089" lon="11.9649411"><ele>463.33333333333337</ele><time>2026-05-02T12:18:26.154Z</time></trkpt><trkpt lat="46.0793737" lon="11.9650617"><ele>463.6666666666667</ele><time>2026-05-02T12:18:27.154Z</time></trkpt><trkpt lat="46.0793409" lon="11.9651821"><ele>464.0</ele><time>2026-05-02T12:18:28.154Z</time></trkpt><trkpt lat="46.0792961" lon="11.965298"><ele>464.33333333333337</ele><time>2026-05-02T12:18:29.154Z</time></trkpt><trkpt lat="46.0792503" lon="11.9654082"><ele>464.6666666666667</ele><time>2026-05-02T12:18:30.154Z</time></trkpt><trkpt lat="46.0792054" lon="11.9655091"><ele>465.0</ele><time>2026-05-02T12:18:31.153Z</time></trkpt><trkpt lat="46.0791674" lon="11.9656124"><ele>465.0</ele><time>2026-05-02T12:18:32.153Z</time></trkpt><trkpt lat="46.0791448" lon="11.9657127"><ele>465.0</ele><time>2026-05-02T12:18:33.153Z</time></trkpt><trkpt lat="46.0791281" lon="11.9658175"><ele>465.0</ele><time>2026-05-02T12:18:34.154Z</time></trkpt><trkpt lat="46.0791162" lon="11.9659305"><ele>465.0</ele><time>2026-05-02T12:18:35.153Z</time></trkpt><trkpt lat="46.0791089" lon="11.9660558"><ele>465.0</ele><time>2026-05-02T12:18:36.153Z</time></trkpt><trkpt lat="46.0790999" lon="11.9661896"><ele>465.0</ele><time>2026-05-02T12:18:37.153Z</time></trkpt><trkpt lat="46.0790929" lon="11.9663113"><ele>464.0</ele><time>2026-05-02T12:18:38.154Z</time></trkpt><trkpt lat="46.0790895" lon="11.9664274"><ele>463.0</ele><time>2026-05-02T12:18:39.153Z</time></trkpt><trkpt lat="46.0790878" lon="11.9665479"><ele>462.0</ele><time>2026-05-02T12:18:40.154Z</time></trkpt><trkpt lat="46.0790867" lon="11.9666766"><ele>461.0</ele><time>2026-05-02T12:18:41.154Z</time></trkpt><trkpt lat="46.0790822" lon="11.9668226"><ele>460.0</ele><time>2026-05-02T12:18:42.154Z</time></trkpt><trkpt lat="46.0790769" lon="11.9669797"><ele>459.5</ele><time>2026-05-02T12:18:43.154Z</time></trkpt><trkpt lat="46.079074" lon="11.9671425"><ele>459.0</ele><time>2026-05-02T12:18:44.154Z</time></trkpt><trkpt lat="46.0790743" lon="11.9673095"><ele>458.5</ele><time>2026-05-02T12:18:45.153Z</time></trkpt><trkpt lat="46.0790767" lon="11.9674756"><ele>458.0</ele><time>2026-05-02T12:18:46.154Z</time></trkpt><trkpt lat="46.079082" lon="11.967631"><ele>457.79999999999995</ele><time>2026-05-02T12:18:47.153Z</time></trkpt><trkpt lat="46.0790889" lon="11.9677795"><ele>457.59999999999997</ele><time>2026-05-02T12:18:48.154Z</time></trkpt><trkpt lat="46.0790994" lon="11.9679311"><ele>457.40000000000003</ele><time>2026-05-02T12:18:49.154Z</time></trkpt><trkpt lat="46.0791138" lon="11.9680858"><ele>457.20000000000005</ele><time>2026-05-02T12:18:50.153Z</time></trkpt><trkpt lat="46.0791309" lon="11.96824"><ele>457.0</ele><time>2026-05-02T12:18:51.154Z</time></trkpt><trkpt lat="46.0791516" lon="11.968393"><ele>457.75</ele><time>2026-05-02T12:18:52.154Z</time></trkpt><trkpt lat="46.0791757" lon="11.9685469"><ele>458.5</ele><time>2026-05-02T12:18:53.154Z</time></trkpt><trkpt lat="46.0792083" lon="11.9687145"><ele>459.25</ele><time>2026-05-02T12:18:54.154Z</time></trkpt><trkpt lat="46.0792535" lon="11.968907"><ele>460.0</ele><time>2026-05-02T12:18:55.154Z</time></trkpt><trkpt lat="46.0793062" lon="11.9691195"><ele>459.0</ele><time>2026-05-02T12:18:56.153Z</time></trkpt><trkpt lat="46.0793646" lon="11.9693464"><ele>458.0</ele><time>2026-05-02T12:18:57.154Z</time></trkpt><trkpt lat="46.0794238" lon="11.9695755"><ele>457.0</ele><time>2026-05-02T12:18:58.153Z</time></trkpt><trkpt lat="46.0794824" lon="11.9697964"><ele>457.0</ele><time>2026-05-02T12:18:59.154Z</time></trkpt><trkpt lat="46.0795449" lon="11.9700089"><ele>457.0</ele><time>2026-05-02T12:19:00.154Z</time></trkpt><trkpt lat="46.0796132" lon="11.9702154"><ele>457.0</ele><time>2026-05-02T12:19:01.153Z</time></trkpt><trkpt lat="46.0796851" lon="11.9704194"><ele>457.0</ele><time>2026-05-02T12:19:02.153Z</time></trkpt><trkpt lat="46.0797573" lon="11.9706303"><ele>457.0</ele><time>2026-05-02T12:19:03.154Z</time></trkpt><trkpt lat="46.079829" lon="11.9708489"><ele>457.0</ele><time>2026-05-02T12:19:04.153Z</time></trkpt><trkpt lat="46.0799021" lon="11.9710721"><ele>460.0</ele><time>2026-05-02T12:19:05.153Z</time></trkpt><trkpt lat="46.0799749" lon="11.9712964"><ele>463.0</ele><time>2026-05-02T12:19:06.153Z</time></trkpt><trkpt lat="46.0800424" lon="11.9715191"><ele>466.0</ele><time>2026-05-02T12:19:07.153Z</time></trkpt><trkpt lat="46.0801034" lon="11.9717429"><ele>466.0</ele><time>2026-05-02T12:19:08.153Z</time></trkpt><trkpt lat="46.0801578" lon="11.9719707"><ele>466.0</ele><time>2026-05-02T12:19:09.153Z</time></trkpt><trkpt lat="46.0802114" lon="11.9722058"><ele>466.0</ele><time>2026-05-02T12:19:10.154Z</time></trkpt><trkpt lat="46.080267" lon="11.9724468"><ele>464.33333333333337</ele><time>2026-05-02T12:19:11.153Z</time></trkpt><trkpt lat="46.0803238" lon="11.9726918"><ele>462.66666666666663</ele><time>2026-05-02T12:19:12.154Z</time></trkpt><trkpt lat="46.0803819" lon="11.9729371"><ele>461.0</ele><time>2026-05-02T12:19:13.153Z</time></trkpt><trkpt lat="46.0804414" lon="11.973182"><ele>460.66666666666663</ele><time>2026-05-02T12:19:14.153Z</time></trkpt><trkpt lat="46.0805011" lon="11.9734166"><ele>460.33333333333337</ele><time>2026-05-02T12:19:15.153Z</time></trkpt><trkpt lat="46.0805565" lon="11.9736544"><ele>460.0</ele><time>2026-05-02T12:19:16.155Z</time></trkpt><trkpt lat="46.0806137" lon="11.9738888"><ele>460.0</ele><time>2026-05-02T12:19:17.154Z</time></trkpt><trkpt lat="46.0806716" lon="11.9741248"><ele>460.0</ele><time>2026-05-02T12:19:18.154Z</time></trkpt><trkpt lat="46.0807295" lon="11.9743544"><ele>460.0</ele><time>2026-05-02T12:19:19.153Z</time></trkpt><trkpt lat="46.080779" lon="11.9745827"><ele>463.33333333333337</ele><time>2026-05-02T12:19:20.153Z</time></trkpt><trkpt lat="46.0808333" lon="11.9748206"><ele>466.66666666666663</ele><time>2026-05-02T12:19:21.154Z</time></trkpt><trkpt lat="46.080888" lon="11.9750534"><ele>470.0</ele><time>2026-05-02T12:19:22.154Z</time></trkpt><trkpt lat="46.0809428" lon="11.9752896"><ele>470.0</ele><time>2026-05-02T12:19:23.154Z</time></trkpt><trkpt lat="46.081001" lon="11.975517"><ele>470.0</ele><time>2026-05-02T12:19:24.153Z</time></trkpt><trkpt lat="46.0810533" lon="11.9757309"><ele>470.0</ele><time>2026-05-02T12:19:25.154Z</time></trkpt><trkpt lat="46.0811107" lon="11.9759372"><ele>468.75</ele><time>2026-05-02T12:19:26.154Z</time></trkpt><trkpt lat="46.0811771" lon="11.9761433"><ele>467.5</ele><time>2026-05-02T12:19:27.154Z</time></trkpt><trkpt lat="46.0812448" lon="11.97633"><ele>466.25</ele><time>2026-05-02T12:19:28.154Z</time></trkpt><trkpt lat="46.0813165" lon="11.976506"><ele>465.0</ele><time>2026-05-02T12:19:29.155Z</time></trkpt><trkpt lat="46.0813925" lon="11.9766603"><ele>466.5</ele><time>2026-05-02T12:19:30.155Z</time></trkpt><trkpt lat="46.0814666" lon="11.9767985"><ele>468.0</ele><time>2026-05-02T12:19:31.155Z</time></trkpt><trkpt lat="46.0815519" lon="11.9769448"><ele>469.5</ele><time>2026-05-02T12:19:32.155Z</time></trkpt><trkpt lat="46.0816439" lon="11.9770837"><ele>471.0</ele><time>2026-05-02T12:19:33.155Z</time></trkpt><trkpt lat="46.0817426" lon="11.9772078"><ele>471.0</ele><time>2026-05-02T12:19:34.154Z</time></trkpt><trkpt lat="46.0818528" lon="11.9773293"><ele>471.0</ele><time>2026-05-02T12:19:35.155Z</time></trkpt><trkpt lat="46.0819526" lon="11.9774626"><ele>471.0</ele><time>2026-05-02T12:19:36.155Z</time></trkpt><trkpt lat="46.0820468" lon="11.9776037"><ele>471.0</ele><time>2026-05-02T12:19:37.155Z</time></trkpt><trkpt lat="46.0821354" lon="11.9777519"><ele>470.25</ele><time>2026-05-02T12:19:38.155Z</time></trkpt><trkpt lat="46.0822221" lon="11.9779147"><ele>469.5</ele><time>2026-05-02T12:19:39.155Z</time></trkpt><trkpt lat="46.0823021" lon="11.9780842"><ele>468.75</ele><time>2026-05-02T12:19:40.154Z</time></trkpt><trkpt lat="46.0823895" lon="11.9782507"><ele>468.0</ele><time>2026-05-02T12:19:41.154Z</time></trkpt><trkpt lat="46.0824764" lon="11.9784216"><ele>468.0</ele><time>2026-05-02T12:19:42.155Z</time></trkpt><trkpt lat="46.0825618" lon="11.9785983"><ele>468.0</ele><time>2026-05-02T12:19:43.155Z</time></trkpt><trkpt lat="46.0826445" lon="11.9787706"><ele>468.0</ele><time>2026-05-02T12:19:44.154Z</time></trkpt><trkpt lat="46.0827293" lon="11.9789351"><ele>468.0</ele><time>2026-05-02T12:19:45.155Z</time></trkpt><trkpt lat="46.0828178" lon="11.9790976"><ele>467.75</ele><time>2026-05-02T12:19:46.155Z</time></trkpt><trkpt lat="46.0828968" lon="11.9792532"><ele>467.5</ele><time>2026-05-02T12:19:47.155Z</time></trkpt><trkpt lat="46.0829664" lon="11.9793958"><ele>467.25</ele><time>2026-05-02T12:19:48.155Z</time></trkpt><trkpt lat="46.0830358" lon="11.979536"><ele>467.0</ele><time>2026-05-02T12:19:49.155Z</time></trkpt><trkpt lat="46.0831026" lon="11.9796763"><ele>467.0</ele><time>2026-05-02T12:19:50.154Z</time></trkpt><trkpt lat="46.0831701" lon="11.9798078"><ele>467.00000000000006</ele><time>2026-05-02T12:19:51.154Z</time></trkpt><trkpt lat="46.083229" lon="11.9799298"><ele>467.00000000000006</ele><time>2026-05-02T12:19:52.155Z</time></trkpt><trkpt lat="46.0833001" lon="11.9800408"><ele>467.0</ele><time>2026-05-02T12:19:53.154Z</time></trkpt><trkpt lat="46.083367" lon="11.9801544"><ele>467.0</ele><time>2026-05-02T12:19:54.155Z</time></trkpt><trkpt lat="46.0834498" lon="11.9802611"><ele>465.5</ele><time>2026-05-02T12:19:55.155Z</time></trkpt><trkpt lat="46.0835328" lon="11.9803784"><ele>464.0</ele><time>2026-05-02T12:19:56.154Z</time></trkpt><trkpt lat="46.0836157" lon="11.9805108"><ele>462.5</ele><time>2026-05-02T12:19:57.154Z</time></trkpt><trkpt lat="46.0836933" lon="11.9806552"><ele>461.0</ele><time>2026-05-02T12:19:58.154Z</time></trkpt><trkpt lat="46.0837599" lon="11.9808268"><ele>458.75</ele><time>2026-05-02T12:19:59.154Z</time></trkpt><trkpt lat="46.0838136" lon="11.9810212"><ele>456.5</ele><time>2026-05-02T12:20:00.154Z</time></trkpt><trkpt lat="46.0838633" lon="11.9812251"><ele>454.25</ele><time>2026-05-02T12:20:01.155Z</time></trkpt><trkpt lat="46.0839122" lon="11.9814344"><ele>452.0</ele><time>2026-05-02T12:20:02.154Z</time></trkpt><trkpt lat="46.0839636" lon="11.9816355"><ele>451.0</ele><time>2026-05-02T12:20:03.154Z</time></trkpt><trkpt lat="46.0840156" lon="11.9818229"><ele>450.0</ele><time>2026-05-02T12:20:04.154Z</time></trkpt><trkpt lat="46.0840692" lon="11.9819965"><ele>449.0</ele><time>2026-05-02T12:20:05.155Z</time></trkpt><trkpt lat="46.084123" lon="11.9821589"><ele>448.0</ele><time>2026-05-02T12:20:06.155Z</time></trkpt><trkpt lat="46.0841831" lon="11.9823251"><ele>449.33333333333337</ele><time>2026-05-02T12:20:07.154Z</time></trkpt><trkpt lat="46.0842534" lon="11.9825008"><ele>450.66666666666663</ele><time>2026-05-02T12:20:08.155Z</time></trkpt><trkpt lat="46.084336" lon="11.9826896"><ele>452.0</ele><time>2026-05-02T12:20:09.155Z</time></trkpt><trkpt lat="46.0844302" lon="11.9828905"><ele>452.0</ele><time>2026-05-02T12:20:10.155Z</time></trkpt><trkpt lat="46.0845344" lon="11.9830959"><ele>452.0</ele><time>2026-05-02T12:20:11.155Z</time></trkpt><trkpt lat="46.0846433" lon="11.9832997"><ele>452.0</ele><time>2026-05-02T12:20:12.154Z</time></trkpt><trkpt lat="46.0847509" lon="11.9834977"><ele>453.0</ele><time>2026-05-02T12:20:13.154Z</time></trkpt><trkpt lat="46.0848539" lon="11.9836859"><ele>454.0</ele><time>2026-05-02T12:20:14.154Z</time></trkpt><trkpt lat="46.0849531" lon="11.9838668"><ele>455.0</ele><time>2026-05-02T12:20:15.155Z</time></trkpt><trkpt lat="46.085053" lon="11.9840489"><ele>452.66666666666663</ele><time>2026-05-02T12:20:16.154Z</time></trkpt><trkpt lat="46.0851562" lon="11.9842365"><ele>450.33333333333337</ele><time>2026-05-02T12:20:17.155Z</time></trkpt><trkpt lat="46.0852598" lon="11.984427"><ele>448.0</ele><time>2026-05-02T12:20:18.154Z</time></trkpt><trkpt lat="46.0853616" lon="11.9846192"><ele>448.0</ele><time>2026-05-02T12:20:19.156Z</time></trkpt><trkpt lat="46.0854606" lon="11.9848162"><ele>448.0</ele><time>2026-05-02T12:20:20.154Z</time></trkpt><trkpt lat="46.0855551" lon="11.9850155"><ele>448.0</ele><time>2026-05-02T12:20:21.155Z</time></trkpt><trkpt lat="46.0856462" lon="11.9852126"><ele>447.33333333333337</ele><time>2026-05-02T12:20:22.155Z</time></trkpt><trkpt lat="46.0857322" lon="11.9854068"><ele>446.66666666666663</ele><time>2026-05-02T12:20:23.155Z</time></trkpt><trkpt lat="46.0858122" lon="11.9855971"><ele>446.0</ele><time>2026-05-02T12:20:24.156Z</time></trkpt><trkpt lat="46.0858862" lon="11.9857825"><ele>448.5</ele><time>2026-05-02T12:20:25.155Z</time></trkpt><trkpt lat="46.0859564" lon="11.9859657"><ele>451.0</ele><time>2026-05-02T12:20:26.156Z</time></trkpt><trkpt lat="46.0860123" lon="11.9861398"><ele>453.5</ele><time>2026-05-02T12:20:27.156Z</time></trkpt><trkpt lat="46.0860539" lon="11.9863037"><ele>456.0</ele><time>2026-05-02T12:20:28.156Z</time></trkpt><trkpt lat="46.086086" lon="11.9864656"><ele>456.0</ele><time>2026-05-02T12:20:29.156Z</time></trkpt><trkpt lat="46.0861151" lon="11.9866315"><ele>456.0</ele><time>2026-05-02T12:20:30.156Z</time></trkpt><trkpt lat="46.0861433" lon="11.9868002"><ele>456.0</ele><time>2026-05-02T12:20:31.155Z</time></trkpt><trkpt lat="46.0861679" lon="11.9869714"><ele>456.0</ele><time>2026-05-02T12:20:32.156Z</time></trkpt><trkpt lat="46.0861909" lon="11.9871276"><ele>456.0</ele><time>2026-05-02T12:20:33.155Z</time></trkpt><trkpt lat="46.0862186" lon="11.9872619"><ele>456.0</ele><time>2026-05-02T12:20:34.156Z</time></trkpt><trkpt lat="46.0862513" lon="11.9873701"><ele>456.0</ele><time>2026-05-02T12:20:35.156Z</time></trkpt><trkpt lat="46.0862811" lon="11.9874514"><ele>456.0</ele><time>2026-05-02T12:20:36.155Z</time></trkpt><trkpt lat="46.086326" lon="11.9875891"><ele>456.0</ele><time>2026-05-02T12:20:38.156Z</time></trkpt><trkpt lat="46.0863427" lon="11.987678"><ele>456.0</ele><time>2026-05-02T12:20:39.156Z</time></trkpt><trkpt lat="46.0863532" lon="11.9877845"><ele>455.6</ele><time>2026-05-02T12:20:40.156Z</time></trkpt><trkpt lat="46.0863498" lon="11.9879086"><ele>455.20000000000005</ele><time>2026-05-02T12:20:41.156Z</time></trkpt><trkpt lat="46.086327" lon="11.988046"><ele>454.79999999999995</ele><time>2026-05-02T12:20:42.155Z</time></trkpt><trkpt lat="46.0862933" lon="11.9882048"><ele>454.4</ele><time>2026-05-02T12:20:43.155Z</time></trkpt><trkpt lat="46.0862575" lon="11.9884048"><ele>454.0</ele><time>2026-05-02T12:20:44.156Z</time></trkpt><trkpt lat="46.0862091" lon="11.9886427"><ele>453.0</ele><time>2026-05-02T12:20:45.155Z</time></trkpt><trkpt lat="46.0861544" lon="11.9888875"><ele>452.0</ele><time>2026-05-02T12:20:46.155Z</time></trkpt><trkpt lat="46.0860722" lon="11.9891673"><ele>451.0</ele><time>2026-05-02T12:20:47.156Z</time></trkpt><trkpt lat="46.0859922" lon="11.98946"><ele>449.6666666666667</ele><time>2026-05-02T12:20:48.156Z</time></trkpt><trkpt lat="46.0859173" lon="11.9897587"><ele>448.33333333333337</ele><time>2026-05-02T12:20:49.156Z</time></trkpt><trkpt lat="46.0858434" lon="11.9900573"><ele>447.0</ele><time>2026-05-02T12:20:50.155Z</time></trkpt><trkpt lat="46.085769" lon="11.9903556"><ele>443.0</ele><time>2026-05-02T12:20:51.156Z</time></trkpt><trkpt lat="46.0856959" lon="11.9906485"><ele>439.0</ele><time>2026-05-02T12:20:52.156Z</time></trkpt><trkpt lat="46.0856268" lon="11.9909325"><ele>435.0</ele><time>2026-05-02T12:20:53.155Z</time></trkpt><trkpt lat="46.085561" lon="11.9912077"><ele>434.0</ele><time>2026-05-02T12:20:54.156Z</time></trkpt><trkpt lat="46.0854972" lon="11.9914738"><ele>433.0</ele><time>2026-05-02T12:20:55.156Z</time></trkpt><trkpt lat="46.0854346" lon="11.9917308"><ele>432.0</ele><time>2026-05-02T12:20:56.155Z</time></trkpt><trkpt lat="46.0853716" lon="11.9919749"><ele>430.66666666666663</ele><time>2026-05-02T12:20:57.155Z</time></trkpt><trkpt lat="46.0853124" lon="11.9922088"><ele>429.3333333333333</ele><time>2026-05-02T12:20:58.155Z</time></trkpt><trkpt lat="46.0852651" lon="11.9924408"><ele>428.0</ele><time>2026-05-02T12:20:59.156Z</time></trkpt><trkpt lat="46.0852441" lon="11.9926714"><ele>427.3333333333333</ele><time>2026-05-02T12:21:00.156Z</time></trkpt><trkpt lat="46.0852561" lon="11.9928971"><ele>426.66666666666663</ele><time>2026-05-02T12:21:01.156Z</time></trkpt><trkpt lat="46.085305" lon="11.9931265"><ele>426.0</ele><time>2026-05-02T12:21:02.156Z</time></trkpt><trkpt lat="46.0853928" lon="11.9933215"><ele>424.66666666666663</ele><time>2026-05-02T12:21:03.155Z</time></trkpt><trkpt lat="46.0855051" lon="11.9934755"><ele>423.3333333333333</ele><time>2026-05-02T12:21:04.156Z</time></trkpt><trkpt lat="46.0856369" lon="11.9935832"><ele>422.0</ele><time>2026-05-02T12:21:05.156Z</time></trkpt><trkpt lat="46.0857889" lon="11.9936587"><ele>421.75</ele><time>2026-05-02T12:21:06.155Z</time></trkpt><trkpt lat="46.0859387" lon="11.9937377"><ele>421.5</ele><time>2026-05-02T12:21:07.155Z</time></trkpt><trkpt lat="46.0860725" lon="11.9938291"><ele>421.25</ele><time>2026-05-02T12:21:08.156Z</time></trkpt><trkpt lat="46.0861715" lon="11.9939569"><ele>421.0</ele><time>2026-05-02T12:21:09.155Z</time></trkpt><trkpt lat="46.0862323" lon="11.994118"><ele>422.25</ele><time>2026-05-02T12:21:10.157Z</time></trkpt><trkpt lat="46.0862503" lon="11.9942986"><ele>423.5</ele><time>2026-05-02T12:21:11.155Z</time></trkpt><trkpt lat="46.0862312" lon="11.9944902"><ele>424.75</ele><time>2026-05-02T12:21:12.156Z</time></trkpt><trkpt lat="46.0861435" lon="11.9946627"><ele>426.0</ele><time>2026-05-02T12:21:13.155Z</time></trkpt><trkpt lat="46.0860349" lon="11.9947884"><ele>426.0</ele><time>2026-05-02T12:21:14.155Z</time></trkpt><trkpt lat="46.0859302" lon="11.994893"><ele>426.0</ele><time>2026-05-02T12:21:15.155Z</time></trkpt><trkpt lat="46.0858301" lon="11.9949836"><ele>426.0</ele><time>2026-05-02T12:21:16.156Z</time></trkpt><trkpt lat="46.0857421" lon="11.9950599"><ele>426.0</ele><time>2026-05-02T12:21:17.155Z</time></trkpt><trkpt lat="46.0856563" lon="11.9951496"><ele>424.1428571428571</ele><time>2026-05-02T12:21:18.155Z</time></trkpt><trkpt lat="46.0855973" lon="11.9952258"><ele>422.2857142857143</ele><time>2026-05-02T12:21:19.156Z</time></trkpt><trkpt lat="46.0855685" lon="11.9953286"><ele>420.42857142857144</ele><time>2026-05-02T12:21:20.155Z</time></trkpt><trkpt lat="46.0855768" lon="11.9954307"><ele>418.57142857142856</ele><time>2026-05-02T12:21:21.157Z</time></trkpt><trkpt lat="46.0855653" lon="11.995529"><ele>416.7142857142857</ele><time>2026-05-02T12:21:22.155Z</time></trkpt><trkpt lat="46.0855384" lon="11.9956231"><ele>414.85714285714283</ele><time>2026-05-02T12:21:23.155Z</time></trkpt><trkpt lat="46.085501" lon="11.9957167"><ele>413.0</ele><time>2026-05-02T12:21:24.157Z</time></trkpt><trkpt lat="46.085455" lon="11.995813"><ele>413.79999999999995</ele><time>2026-05-02T12:21:25.157Z</time></trkpt><trkpt lat="46.0854011" lon="11.9959241"><ele>414.6</ele><time>2026-05-02T12:21:26.157Z</time></trkpt><trkpt lat="46.0853517" lon="11.9960525"><ele>415.4</ele><time>2026-05-02T12:21:27.157Z</time></trkpt><trkpt lat="46.0852987" lon="11.9962038"><ele>416.20000000000005</ele><time>2026-05-02T12:21:28.157Z</time></trkpt><trkpt lat="46.0852433" lon="11.996377"><ele>417.0</ele><time>2026-05-02T12:21:29.156Z</time></trkpt><trkpt lat="46.0852045" lon="11.9965837"><ele>418.33333333333337</ele><time>2026-05-02T12:21:30.156Z</time></trkpt><trkpt lat="46.0851784" lon="11.9968149"><ele>419.6666666666667</ele><time>2026-05-02T12:21:31.156Z</time></trkpt><trkpt lat="46.0851705" lon="11.997068"><ele>421.0</ele><time>2026-05-02T12:21:32.156Z</time></trkpt><trkpt lat="46.0851755" lon="11.9973267"><ele>421.6666666666667</ele><time>2026-05-02T12:21:33.157Z</time></trkpt><trkpt lat="46.0851952" lon="11.9975886"><ele>422.33333333333337</ele><time>2026-05-02T12:21:34.156Z</time></trkpt><trkpt lat="46.0852318" lon="11.9978549"><ele>423.0</ele><time>2026-05-02T12:21:35.157Z</time></trkpt><trkpt lat="46.0853042" lon="11.9981163"><ele>423.0</ele><time>2026-05-02T12:21:36.156Z</time></trkpt><trkpt lat="46.085406" lon="11.9983751"><ele>423.0</ele><time>2026-05-02T12:21:37.157Z</time></trkpt><trkpt lat="46.0855168" lon="11.9986229"><ele>423.0</ele><time>2026-05-02T12:21:38.157Z</time></trkpt><trkpt lat="46.0856449" lon="11.9988452"><ele>422.66666666666663</ele><time>2026-05-02T12:21:39.157Z</time></trkpt><trkpt lat="46.0857953" lon="11.99905"><ele>422.3333333333333</ele><time>2026-05-02T12:21:40.156Z</time></trkpt><trkpt lat="46.0859617" lon="11.9992295"><ele>422.0</ele><time>2026-05-02T12:21:41.157Z</time></trkpt><trkpt lat="46.0861453" lon="11.9993846"><ele>422.0</ele><time>2026-05-02T12:21:42.157Z</time></trkpt><trkpt lat="46.0863387" lon="11.9995056"><ele>422.0</ele><time>2026-05-02T12:21:43.156Z</time></trkpt><trkpt lat="46.0865399" lon="11.9996031"><ele>422.0</ele><time>2026-05-02T12:21:44.157Z</time></trkpt><trkpt lat="46.0867516" lon="11.9996749"><ele>428.66666666666663</ele><time>2026-05-02T12:21:45.157Z</time></trkpt><trkpt lat="46.0869608" lon="11.9997343"><ele>435.33333333333337</ele><time>2026-05-02T12:21:46.156Z</time></trkpt><trkpt lat="46.0871755" lon="11.9997847"><ele>442.0</ele><time>2026-05-02T12:21:47.156Z</time></trkpt><trkpt lat="46.0873898" lon="11.9998289"><ele>445.33333333333337</ele><time>2026-05-02T12:21:48.156Z</time></trkpt><trkpt lat="46.087611" lon="11.9998877"><ele>448.66666666666663</ele><time>2026-05-02T12:21:49.157Z</time></trkpt><trkpt lat="46.0878275" lon="11.9999383"><ele>452.0</ele><time>2026-05-02T12:21:50.156Z</time></trkpt><trkpt lat="46.0880558" lon="11.9999958"><ele>451.0</ele><time>2026-05-02T12:21:51.157Z</time></trkpt><trkpt lat="46.0882811" lon="12.0000494"><ele>450.0</ele><time>2026-05-02T12:21:52.156Z</time></trkpt><trkpt lat="46.0885095" lon="12.0001011"><ele>450.0</ele><time>2026-05-02T12:21:53.157Z</time></trkpt><trkpt lat="46.0887417" lon="12.0001553"><ele>450.0</ele><time>2026-05-02T12:21:54.157Z</time></trkpt><trkpt lat="46.0889774" lon="12.0002122"><ele>452.0</ele><time>2026-05-02T12:21:55.157Z</time></trkpt><trkpt lat="46.0892142" lon="12.0002698"><ele>454.0</ele><time>2026-05-02T12:21:56.156Z</time></trkpt><trkpt lat="46.0894493" lon="12.000328"><ele>454.0</ele><time>2026-05-02T12:21:57.156Z</time></trkpt><trkpt lat="46.0896819" lon="12.000382"><ele>454.0</ele><time>2026-05-02T12:21:58.157Z</time></trkpt><trkpt lat="46.0899138" lon="12.0004311"><ele>456.5</ele><time>2026-05-02T12:21:59.157Z</time></trkpt><trkpt lat="46.0901446" lon="12.0004791"><ele>459.0</ele><time>2026-05-02T12:22:00.157Z</time></trkpt><trkpt lat="46.0903722" lon="12.0005356"><ele>459.0</ele><time>2026-05-02T12:22:01.157Z</time></trkpt><trkpt lat="46.0905945" lon="12.000584"><ele>459.0</ele><time>2026-05-02T12:22:02.157Z</time></trkpt><trkpt lat="46.0908157" lon="12.0006373"><ele>459.0</ele><time>2026-05-02T12:22:03.157Z</time></trkpt><trkpt lat="46.0910295" lon="12.0006928"><ele>459.66666666666663</ele><time>2026-05-02T12:22:04.157Z</time></trkpt><trkpt lat="46.0912458" lon="12.0007604"><ele>460.3333333333333</ele><time>2026-05-02T12:22:05.157Z</time></trkpt><trkpt lat="46.0914553" lon="12.0008344"><ele>461.0</ele><time>2026-05-02T12:22:06.157Z</time></trkpt><trkpt lat="46.091657" lon="12.000929"><ele>465.0</ele><time>2026-05-02T12:22:07.157Z</time></trkpt><trkpt lat="46.0918623" lon="12.0010285"><ele>469.0</ele><time>2026-05-02T12:22:08.157Z</time></trkpt><trkpt lat="46.0920603" lon="12.0011376"><ele>473.0</ele><time>2026-05-02T12:22:09.157Z</time></trkpt><trkpt lat="46.0922577" lon="12.0012639"><ele>473.66666666666663</ele><time>2026-05-02T12:22:10.156Z</time></trkpt><trkpt lat="46.0924503" lon="12.0014015"><ele>474.33333333333337</ele><time>2026-05-02T12:22:11.156Z</time></trkpt><trkpt lat="46.0926315" lon="12.0015419"><ele>475.0</ele><time>2026-05-02T12:22:12.157Z</time></trkpt><trkpt lat="46.0928088" lon="12.0016898"><ele>475.0</ele><time>2026-05-02T12:22:13.157Z</time></trkpt><trkpt lat="46.0929723" lon="12.0018515"><ele>475.0</ele><time>2026-05-02T12:22:14.156Z</time></trkpt><trkpt lat="46.0931231" lon="12.002003"><ele>475.0</ele><time>2026-05-02T12:22:15.156Z</time></trkpt><trkpt lat="46.0932569" lon="12.0021464"><ele>475.25</ele><time>2026-05-02T12:22:16.157Z</time></trkpt><trkpt lat="46.0933801" lon="12.0022789"><ele>475.5</ele><time>2026-05-02T12:22:17.157Z</time></trkpt><trkpt lat="46.0934911" lon="12.0024074"><ele>475.75</ele><time>2026-05-02T12:22:18.157Z</time></trkpt><trkpt lat="46.0935927" lon="12.0025287"><ele>476.0</ele><time>2026-05-02T12:22:19.156Z</time></trkpt><trkpt lat="46.0936986" lon="12.0026581"><ele>476.0</ele><time>2026-05-02T12:22:20.157Z</time></trkpt><trkpt lat="46.0937988" lon="12.002807"><ele>476.0</ele><time>2026-05-02T12:22:21.158Z</time></trkpt><trkpt lat="46.0938969" lon="12.0029538"><ele>476.0</ele><time>2026-05-02T12:22:22.156Z</time></trkpt><trkpt lat="46.0939981" lon="12.0031071"><ele>476.0</ele><time>2026-05-02T12:22:23.158Z</time></trkpt><trkpt lat="46.0941015" lon="12.0032606"><ele>477.75</ele><time>2026-05-02T12:22:24.158Z</time></trkpt><trkpt lat="46.0942003" lon="12.0034274"><ele>479.5</ele><time>2026-05-02T12:22:25.157Z</time></trkpt><trkpt lat="46.0942879" lon="12.0036013"><ele>481.25</ele><time>2026-05-02T12:22:26.158Z</time></trkpt><trkpt lat="46.0943674" lon="12.0037647"><ele>483.0</ele><time>2026-05-02T12:22:27.157Z</time></trkpt><trkpt lat="46.0944487" lon="12.0039312"><ele>483.0</ele><time>2026-05-02T12:22:28.158Z</time></trkpt><trkpt lat="46.0945221" lon="12.0040889"><ele>483.0</ele><time>2026-05-02T12:22:29.158Z</time></trkpt><trkpt lat="46.0945939" lon="12.0042478"><ele>483.0</ele><time>2026-05-02T12:22:30.157Z</time></trkpt><trkpt lat="46.0946604" lon="12.0044024"><ele>483.0</ele><time>2026-05-02T12:22:31.157Z</time></trkpt><trkpt lat="46.0947308" lon="12.0045488"><ele>482.25</ele><time>2026-05-02T12:22:32.158Z</time></trkpt><trkpt lat="46.0948056" lon="12.0046971"><ele>481.5</ele><time>2026-05-02T12:22:33.158Z</time></trkpt><trkpt lat="46.094882" lon="12.0048522"><ele>480.75</ele><time>2026-05-02T12:22:34.158Z</time></trkpt><trkpt lat="46.0949694" lon="12.0050053"><ele>480.0</ele><time>2026-05-02T12:22:35.158Z</time></trkpt><trkpt lat="46.0950688" lon="12.0051525"><ele>480.0</ele><time>2026-05-02T12:22:36.157Z</time></trkpt><trkpt lat="46.0951831" lon="12.0052895"><ele>480.0</ele><time>2026-05-02T12:22:37.158Z</time></trkpt><trkpt lat="46.0953014" lon="12.0054214"><ele>480.0</ele><time>2026-05-02T12:22:38.158Z</time></trkpt><trkpt lat="46.095428" lon="12.0055354"><ele>480.0</ele><time>2026-05-02T12:22:39.158Z</time></trkpt><trkpt lat="46.0955415" lon="12.0056652"><ele>480.0</ele><time>2026-05-02T12:22:40.157Z</time></trkpt><trkpt lat="46.0956574" lon="12.0057941"><ele>480.0</ele><time>2026-05-02T12:22:41.157Z</time></trkpt><trkpt lat="46.0957549" lon="12.0059146"><ele>480.0</ele><time>2026-05-02T12:22:42.158Z</time></trkpt><trkpt lat="46.0958444" lon="12.0060283"><ele>480.0</ele><time>2026-05-02T12:22:43.157Z</time></trkpt><trkpt lat="46.0959308" lon="12.0061325"><ele>480.2</ele><time>2026-05-02T12:22:44.157Z</time></trkpt><trkpt lat="46.096007" lon="12.0062526"><ele>480.4</ele><time>2026-05-02T12:22:45.157Z</time></trkpt><trkpt lat="46.0960801" lon="12.0063776"><ele>480.6</ele><time>2026-05-02T12:22:46.158Z</time></trkpt><trkpt lat="46.0961494" lon="12.0064919"><ele>480.8</ele><time>2026-05-02T12:22:47.157Z</time></trkpt><trkpt lat="46.0962156" lon="12.0065934"><ele>481.0</ele><time>2026-05-02T12:22:48.158Z</time></trkpt><trkpt lat="46.0962895" lon="12.006708"><ele>481.0</ele><time>2026-05-02T12:22:49.157Z</time></trkpt><trkpt lat="46.0963781" lon="12.0068196"><ele>481.0</ele><time>2026-05-02T12:22:50.158Z</time></trkpt><trkpt lat="46.0964743" lon="12.0069351"><ele>481.0</ele><time>2026-05-02T12:22:51.157Z</time></trkpt><trkpt lat="46.0965809" lon="12.0070559"><ele>481.0</ele><time>2026-05-02T12:22:52.157Z</time></trkpt><trkpt lat="46.0967031" lon="12.0071699"><ele>481.6666666666667</ele><time>2026-05-02T12:22:53.158Z</time></trkpt><trkpt lat="46.0968385" lon="12.0072772"><ele>482.33333333333337</ele><time>2026-05-02T12:22:54.158Z</time></trkpt><trkpt lat="46.0969843" lon="12.0073848"><ele>483.0</ele><time>2026-05-02T12:22:55.157Z</time></trkpt><trkpt lat="46.0971336" lon="12.0074955"><ele>483.0</ele><time>2026-05-02T12:22:56.158Z</time></trkpt><trkpt lat="46.0972827" lon="12.0076102"><ele>483.0</ele><time>2026-05-02T12:22:57.157Z</time></trkpt><trkpt lat="46.0974302" lon="12.0077255"><ele>483.0</ele><time>2026-05-02T12:22:58.157Z</time></trkpt><trkpt lat="46.0975791" lon="12.0078394"><ele>485.33333333333337</ele><time>2026-05-02T12:22:59.157Z</time></trkpt><trkpt lat="46.0977289" lon="12.0079532"><ele>487.6666666666667</ele><time>2026-05-02T12:23:00.158Z</time></trkpt><trkpt lat="46.0978847" lon="12.008066"><ele>490.0</ele><time>2026-05-02T12:23:01.157Z</time></trkpt><trkpt lat="46.0980407" lon="12.0081679"><ele>490.0</ele><time>2026-05-02T12:23:02.157Z</time></trkpt><trkpt lat="46.0981984" lon="12.0082655"><ele>490.0</ele><time>2026-05-02T12:23:03.158Z</time></trkpt><trkpt lat="46.098352" lon="12.0083797"><ele>490.0</ele><time>2026-05-02T12:23:04.158Z</time></trkpt><trkpt lat="46.098496" lon="12.0085233"><ele>492.0</ele><time>2026-05-02T12:23:05.158Z</time></trkpt><trkpt lat="46.0986367" lon="12.0086747"><ele>494.0</ele><time>2026-05-02T12:23:06.157Z</time></trkpt><trkpt lat="46.0987748" lon="12.0088433"><ele>496.0</ele><time>2026-05-02T12:23:07.157Z</time></trkpt><trkpt lat="46.0989227" lon="12.0089723"><ele>496.0</ele><time>2026-05-02T12:23:08.158Z</time></trkpt><trkpt lat="46.0990672" lon="12.0090764"><ele>496.0</ele><time>2026-05-02T12:23:09.157Z</time></trkpt><trkpt lat="46.0992045" lon="12.0091746"><ele>496.0</ele><time>2026-05-02T12:23:10.157Z</time></trkpt><trkpt lat="46.0993168" lon="12.0092519"><ele>496.0</ele><time>2026-05-02T12:23:11.157Z</time></trkpt><trkpt lat="46.0994298" lon="12.0092915"><ele>497.0</ele><time>2026-05-02T12:23:12.157Z</time></trkpt><trkpt lat="46.0995656" lon="12.009289"><ele>498.0</ele><time>2026-05-02T12:23:13.158Z</time></trkpt><trkpt lat="46.0997242" lon="12.0092296"><ele>499.0</ele><time>2026-05-02T12:23:14.158Z</time></trkpt><trkpt lat="46.0998946" lon="12.0091716"><ele>505.33333333333337</ele><time>2026-05-02T12:23:15.158Z</time></trkpt><trkpt lat="46.1000753" lon="12.0091234"><ele>511.66666666666663</ele><time>2026-05-02T12:23:16.158Z</time></trkpt><trkpt lat="46.1002651" lon="12.0090666"><ele>518.0</ele><time>2026-05-02T12:23:17.157Z</time></trkpt><trkpt lat="46.1004413" lon="12.0090066"><ele>518.0</ele><time>2026-05-02T12:23:18.157Z</time></trkpt><trkpt lat="46.1006077" lon="12.0089525"><ele>518.0</ele><time>2026-05-02T12:23:19.158Z</time></trkpt><trkpt lat="46.1007505" lon="12.0089095"><ele>518.0</ele><time>2026-05-02T12:23:20.159Z</time></trkpt><trkpt lat="46.1008919" lon="12.008921"><ele>517.0</ele><time>2026-05-02T12:23:21.158Z</time></trkpt><trkpt lat="46.1010137" lon="12.0089909"><ele>516.0</ele><time>2026-05-02T12:23:22.159Z</time></trkpt><trkpt lat="46.1011296" lon="12.0091097"><ele>515.0</ele><time>2026-05-02T12:23:23.159Z</time></trkpt><trkpt lat="46.1012477" lon="12.0092441"><ele>514.0</ele><time>2026-05-02T12:23:24.158Z</time></trkpt><trkpt lat="46.1013607" lon="12.0094011"><ele>514.0</ele><time>2026-05-02T12:23:25.159Z</time></trkpt><trkpt lat="46.1014677" lon="12.009585"><ele>514.0</ele><time>2026-05-02T12:23:26.158Z</time></trkpt><trkpt lat="46.1015642" lon="12.0097952"><ele>514.0</ele><time>2026-05-02T12:23:27.158Z</time></trkpt><trkpt lat="46.1016444" lon="12.0100194"><ele>515.3333333333334</ele><time>2026-05-02T12:23:28.158Z</time></trkpt><trkpt lat="46.1017149" lon="12.0102484"><ele>516.6666666666666</ele><time>2026-05-02T12:23:29.159Z</time></trkpt><trkpt lat="46.1017806" lon="12.0104893"><ele>518.0</ele><time>2026-05-02T12:23:30.158Z</time></trkpt><trkpt lat="46.1018425" lon="12.0107058"><ele>516.25</ele><time>2026-05-02T12:23:31.159Z</time></trkpt><trkpt lat="46.1019054" lon="12.0108905"><ele>514.5</ele><time>2026-05-02T12:23:32.159Z</time></trkpt><trkpt lat="46.101976" lon="12.0110549"><ele>512.75</ele><time>2026-05-02T12:23:33.158Z</time></trkpt><trkpt lat="46.1020572" lon="12.0111794"><ele>511.0</ele><time>2026-05-02T12:23:34.159Z</time></trkpt><trkpt lat="46.1021581" lon="12.0112302"><ele>511.0</ele><time>2026-05-02T12:23:35.158Z</time></trkpt><trkpt lat="46.1022723" lon="12.0112454"><ele>511.0</ele><time>2026-05-02T12:23:36.158Z</time></trkpt><trkpt lat="46.1023901" lon="12.0112106"><ele>511.0</ele><time>2026-05-02T12:23:37.159Z</time></trkpt><trkpt lat="46.1025021" lon="12.0111306"><ele>511.0</ele><time>2026-05-02T12:23:38.158Z</time></trkpt><trkpt lat="46.1026199" lon="12.0110341"><ele>515.0</ele><time>2026-05-02T12:23:39.159Z</time></trkpt><trkpt lat="46.1027463" lon="12.0109301"><ele>519.0</ele><time>2026-05-02T12:23:40.158Z</time></trkpt><trkpt lat="46.1028723" lon="12.0108271"><ele>523.0</ele><time>2026-05-02T12:23:41.158Z</time></trkpt><trkpt lat="46.1030081" lon="12.010742"><ele>527.0</ele><time>2026-05-02T12:23:42.159Z</time></trkpt><trkpt lat="46.1031549" lon="12.0106828"><ele>533.0</ele><time>2026-05-02T12:23:43.158Z</time></trkpt><trkpt lat="46.1033104" lon="12.0106513"><ele>539.0</ele><time>2026-05-02T12:23:44.158Z</time></trkpt><trkpt lat="46.1034677" lon="12.0106413"><ele>545.0</ele><time>2026-05-02T12:23:45.158Z</time></trkpt><trkpt lat="46.103627" lon="12.0106348"><ele>545.0</ele><time>2026-05-02T12:23:46.158Z</time></trkpt><trkpt lat="46.103789" lon="12.0106238"><ele>545.0</ele><time>2026-05-02T12:23:47.159Z</time></trkpt><trkpt lat="46.1039446" lon="12.010613"><ele>545.0</ele><time>2026-05-02T12:23:48.159Z</time></trkpt><trkpt lat="46.1040869" lon="12.0106246"><ele>543.25</ele><time>2026-05-02T12:23:49.159Z</time></trkpt><trkpt lat="46.1042134" lon="12.0106595"><ele>541.5</ele><time>2026-05-02T12:23:50.159Z</time></trkpt><trkpt lat="46.1043327" lon="12.0107604"><ele>539.75</ele><time>2026-05-02T12:23:51.159Z</time></trkpt><trkpt lat="46.1044326" lon="12.0109031"><ele>538.0</ele><time>2026-05-02T12:23:52.158Z</time></trkpt><trkpt lat="46.1045231" lon="12.0110661"><ele>530.0</ele><time>2026-05-02T12:23:53.159Z</time></trkpt><trkpt lat="46.1046142" lon="12.0112373"><ele>522.0</ele><time>2026-05-02T12:23:54.158Z</time></trkpt><trkpt lat="46.1047169" lon="12.0114071"><ele>514.0</ele><time>2026-05-02T12:23:55.159Z</time></trkpt><trkpt lat="46.1048209" lon="12.0115876"><ele>513.5</ele><time>2026-05-02T12:23:56.159Z</time></trkpt><trkpt lat="46.1049155" lon="12.0117735"><ele>513.0</ele><time>2026-05-02T12:23:57.158Z</time></trkpt><trkpt lat="46.1050067" lon="12.0119423"><ele>512.5</ele><time>2026-05-02T12:23:58.159Z</time></trkpt><trkpt lat="46.1051084" lon="12.0120747"><ele>512.0</ele><time>2026-05-02T12:23:59.158Z</time></trkpt><trkpt lat="46.1052305" lon="12.0121848"><ele>512.0</ele><time>2026-05-02T12:24:00.158Z</time></trkpt><trkpt lat="46.1053691" lon="12.0122938"><ele>512.0</ele><time>2026-05-02T12:24:01.159Z</time></trkpt><trkpt lat="46.1055094" lon="12.0124147"><ele>512.0</ele><time>2026-05-02T12:24:02.158Z</time></trkpt><trkpt lat="46.1056574" lon="12.0125397"><ele>511.66666666666663</ele><time>2026-05-02T12:24:03.158Z</time></trkpt><trkpt lat="46.1058114" lon="12.0126712"><ele>511.33333333333337</ele><time>2026-05-02T12:24:04.159Z</time></trkpt><trkpt lat="46.1059718" lon="12.0128006"><ele>511.0</ele><time>2026-05-02T12:24:05.159Z</time></trkpt><trkpt lat="46.1061361" lon="12.0129411"><ele>511.0</ele><time>2026-05-02T12:24:06.158Z</time></trkpt><trkpt lat="46.1062974" lon="12.0130783"><ele>511.0</ele><time>2026-05-02T12:24:07.159Z</time></trkpt><trkpt lat="46.1064606" lon="12.0132061"><ele>511.0</ele><time>2026-05-02T12:24:08.159Z</time></trkpt><trkpt lat="46.10662" lon="12.0133302"><ele>510.0</ele><time>2026-05-02T12:24:09.159Z</time></trkpt><trkpt lat="46.1067726" lon="12.0134573"><ele>509.0</ele><time>2026-05-02T12:24:10.158Z</time></trkpt><trkpt lat="46.1069092" lon="12.0135766"><ele>508.0</ele><time>2026-05-02T12:24:11.158Z</time></trkpt><trkpt lat="46.1070414" lon="12.013687"><ele>508.0</ele><time>2026-05-02T12:24:12.158Z</time></trkpt><trkpt lat="46.1071533" lon="12.0138202"><ele>508.0</ele><time>2026-05-02T12:24:13.159Z</time></trkpt><trkpt lat="46.1072365" lon="12.0139846"><ele>508.0</ele><time>2026-05-02T12:24:14.159Z</time></trkpt><trkpt lat="46.1072945" lon="12.0141636"><ele>508.0</ele><time>2026-05-02T12:24:15.159Z</time></trkpt><trkpt lat="46.1073342" lon="12.0143435"><ele>507.4</ele><time>2026-05-02T12:24:16.159Z</time></trkpt><trkpt lat="46.1073529" lon="12.0145054"><ele>506.79999999999995</ele><time>2026-05-02T12:24:17.158Z</time></trkpt><trkpt lat="46.1073663" lon="12.0146577"><ele>506.2</ele><time>2026-05-02T12:24:18.16Z</time></trkpt><trkpt lat="46.1073823" lon="12.0148086"><ele>505.6</ele><time>2026-05-02T12:24:19.159Z</time></trkpt><trkpt lat="46.1073955" lon="12.0149569"><ele>505.0</ele><time>2026-05-02T12:24:20.158Z</time></trkpt><trkpt lat="46.1074079" lon="12.0150976"><ele>505.6</ele><time>2026-05-02T12:24:21.159Z</time></trkpt><trkpt lat="46.1074201" lon="12.0152404"><ele>506.2</ele><time>2026-05-02T12:24:22.16Z</time></trkpt><trkpt lat="46.1074199" lon="12.0153757"><ele>506.79999999999995</ele><time>2026-05-02T12:24:23.159Z</time></trkpt><trkpt lat="46.107395" lon="12.0155091"><ele>507.4</ele><time>2026-05-02T12:24:24.159Z</time></trkpt><trkpt lat="46.1073419" lon="12.0156288"><ele>508.0</ele><time>2026-05-02T12:24:25.159Z</time></trkpt><trkpt lat="46.1072669" lon="12.0157436"><ele>506.75</ele><time>2026-05-02T12:24:26.16Z</time></trkpt><trkpt lat="46.1071644" lon="12.0158471"><ele>505.5</ele><time>2026-05-02T12:24:27.16Z</time></trkpt><trkpt lat="46.1070612" lon="12.0159624"><ele>504.25</ele><time>2026-05-02T12:24:28.159Z</time></trkpt><trkpt lat="46.1069558" lon="12.0160867"><ele>503.0</ele><time>2026-05-02T12:24:29.16Z</time></trkpt><trkpt lat="46.1068327" lon="12.0162166"><ele>503.0</ele><time>2026-05-02T12:24:30.159Z</time></trkpt><trkpt lat="46.1067122" lon="12.0163472"><ele>503.0</ele><time>2026-05-02T12:24:31.159Z</time></trkpt><trkpt lat="46.1066006" lon="12.0164611"><ele>503.0</ele><time>2026-05-02T12:24:32.159Z</time></trkpt><trkpt lat="46.1065214" lon="12.0165797"><ele>503.0</ele><time>2026-05-02T12:24:33.16Z</time></trkpt><trkpt lat="46.1064775" lon="12.0167172"><ele>503.0</ele><time>2026-05-02T12:24:34.16Z</time></trkpt><trkpt lat="46.1064535" lon="12.0168833"><ele>502.99999999999994</ele><time>2026-05-02T12:24:35.159Z</time></trkpt><trkpt lat="46.1064338" lon="12.017038"><ele>502.99999999999994</ele><time>2026-05-02T12:24:36.16Z</time></trkpt><trkpt lat="46.1064252" lon="12.0171711"><ele>503.0</ele><time>2026-05-02T12:24:37.159Z</time></trkpt><trkpt lat="46.1063663" lon="12.0172516"><ele>503.0</ele><time>2026-05-02T12:24:38.16Z</time></trkpt><trkpt lat="46.1062924" lon="12.0172888"><ele>503.0</ele><time>2026-05-02T12:24:39.159Z</time></trkpt><trkpt lat="46.1062159" lon="12.0172673"><ele>502.99999999999994</ele><time>2026-05-02T12:24:40.16Z</time></trkpt><trkpt lat="46.1061258" lon="12.0172044"><ele>502.99999999999994</ele><time>2026-05-02T12:24:41.159Z</time></trkpt><trkpt lat="46.1060231" lon="12.017137"><ele>503.0</ele><time>2026-05-02T12:24:42.16Z</time></trkpt><trkpt lat="46.1059233" lon="12.0170722"><ele>503.0</ele><time>2026-05-02T12:24:43.159Z</time></trkpt><trkpt lat="46.1058264" lon="12.0170376"><ele>501.25</ele><time>2026-05-02T12:24:44.159Z</time></trkpt><trkpt lat="46.105708" lon="12.0170785"><ele>499.5</ele><time>2026-05-02T12:24:45.16Z</time></trkpt><trkpt lat="46.1055791" lon="12.0171641"><ele>497.75</ele><time>2026-05-02T12:24:46.159Z</time></trkpt><trkpt lat="46.1054412" lon="12.0172599"><ele>496.0</ele><time>2026-05-02T12:24:47.16Z</time></trkpt><trkpt lat="46.1053152" lon="12.0173425"><ele>496.0</ele><time>2026-05-02T12:24:48.159Z</time></trkpt><trkpt lat="46.1052056" lon="12.0174236"><ele>496.0</ele><time>2026-05-02T12:24:49.16Z</time></trkpt><trkpt lat="46.1051062" lon="12.0175117"><ele>496.0</ele><time>2026-05-02T12:24:50.16Z</time></trkpt><trkpt lat="46.1050489" lon="12.0176483"><ele>496.0</ele><time>2026-05-02T12:24:51.16Z</time></trkpt><trkpt lat="46.1050013" lon="12.0178029"><ele>499.6</ele><time>2026-05-02T12:24:52.159Z</time></trkpt><trkpt lat="46.1049391" lon="12.0179416"><ele>503.20000000000005</ele><time>2026-05-02T12:24:53.159Z</time></trkpt><trkpt lat="46.1048526" lon="12.0180435"><ele>506.79999999999995</ele><time>2026-05-02T12:24:54.159Z</time></trkpt><trkpt lat="46.1047468" lon="12.0181036"><ele>510.4</ele><time>2026-05-02T12:24:55.16Z</time></trkpt><trkpt lat="46.1046406" lon="12.018122"><ele>514.0</ele><time>2026-05-02T12:24:56.16Z</time></trkpt><trkpt lat="46.1045475" lon="12.0181079"><ele>516.6</ele><time>2026-05-02T12:24:57.16Z</time></trkpt><trkpt lat="46.1044604" lon="12.0180863"><ele>519.2</ele><time>2026-05-02T12:24:58.159Z</time></trkpt><trkpt lat="46.1043796" lon="12.0180305"><ele>521.8000000000001</ele><time>2026-05-02T12:24:59.159Z</time></trkpt><trkpt lat="46.1043016" lon="12.0179298"><ele>524.4</ele><time>2026-05-02T12:25:00.159Z</time></trkpt><trkpt lat="46.1042217" lon="12.0177842"><ele>527.0</ele><time>2026-05-02T12:25:01.16Z</time></trkpt><trkpt lat="46.1041457" lon="12.0176271"><ele>524.25</ele><time>2026-05-02T12:25:02.159Z</time></trkpt><trkpt lat="46.1040907" lon="12.0174412"><ele>521.5</ele><time>2026-05-02T12:25:03.159Z</time></trkpt><trkpt lat="46.1040425" lon="12.0172475"><ele>518.75</ele><time>2026-05-02T12:25:04.16Z</time></trkpt><trkpt lat="46.1040127" lon="12.0170594"><ele>516.0</ele><time>2026-05-02T12:25:05.159Z</time></trkpt><trkpt lat="46.1039694" lon="12.016894"><ele>516.0</ele><time>2026-05-02T12:25:06.159Z</time></trkpt><trkpt lat="46.1039159" lon="12.0167613"><ele>516.0</ele><time>2026-05-02T12:25:07.16Z</time></trkpt><trkpt lat="46.1038493" lon="12.0166617"><ele>516.0</ele><time>2026-05-02T12:25:08.16Z</time></trkpt><trkpt lat="46.1037705" lon="12.016614"><ele>516.0</ele><time>2026-05-02T12:25:09.16Z</time></trkpt><trkpt lat="46.1036838" lon="12.0166377"><ele>516.0</ele><time>2026-05-02T12:25:10.16Z</time></trkpt><trkpt lat="46.1035997" lon="12.016724"><ele>516.0</ele><time>2026-05-02T12:25:11.159Z</time></trkpt><trkpt lat="46.1035146" lon="12.0168472"><ele>516.0</ele><time>2026-05-02T12:25:12.16Z</time></trkpt><trkpt lat="46.1034186" lon="12.0169843"><ele>516.0</ele><time>2026-05-02T12:25:13.16Z</time></trkpt><trkpt lat="46.1033144" lon="12.0171258"><ele>516.0</ele><time>2026-05-02T12:25:14.16Z</time></trkpt><trkpt lat="46.1032116" lon="12.0172697"><ele>513.0</ele><time>2026-05-02T12:25:15.159Z</time></trkpt><trkpt lat="46.1031195" lon="12.0174018"><ele>510.0</ele><time>2026-05-02T12:25:16.159Z</time></trkpt><trkpt lat="46.1030329" lon="12.0175168"><ele>507.0</ele><time>2026-05-02T12:25:17.159Z</time></trkpt><trkpt lat="46.1029544" lon="12.0176257"><ele>504.0</ele><time>2026-05-02T12:25:18.16Z</time></trkpt><trkpt lat="46.1029116" lon="12.0177651"><ele>504.0</ele><time>2026-05-02T12:25:19.161Z</time></trkpt><trkpt lat="46.1028929" lon="12.0179289"><ele>504.0</ele><time>2026-05-02T12:25:20.161Z</time></trkpt><trkpt lat="46.1028907" lon="12.0181102"><ele>504.0</ele><time>2026-05-02T12:25:21.16Z</time></trkpt><trkpt lat="46.1028892" lon="12.0182996"><ele>504.0</ele><time>2026-05-02T12:25:22.16Z</time></trkpt><trkpt lat="46.1028849" lon="12.0185057"><ele>506.33333333333337</ele><time>2026-05-02T12:25:23.16Z</time></trkpt><trkpt lat="46.1028775" lon="12.0187222"><ele>508.6666666666667</ele><time>2026-05-02T12:25:24.16Z</time></trkpt><trkpt lat="46.1028702" lon="12.0189495"><ele>511.0</ele><time>2026-05-02T12:25:25.161Z</time></trkpt><trkpt lat="46.1028643" lon="12.019185"><ele>511.33333333333337</ele><time>2026-05-02T12:25:26.161Z</time></trkpt><trkpt lat="46.1028584" lon="12.0194265"><ele>511.66666666666663</ele><time>2026-05-02T12:25:27.161Z</time></trkpt><trkpt lat="46.1028545" lon="12.019671"><ele>512.0</ele><time>2026-05-02T12:25:28.16Z</time></trkpt><trkpt lat="46.10285" lon="12.0199147"><ele>512.3333333333333</ele><time>2026-05-02T12:25:29.161Z</time></trkpt><trkpt lat="46.1028438" lon="12.0201495"><ele>512.6666666666666</ele><time>2026-05-02T12:25:30.161Z</time></trkpt><trkpt lat="46.1028289" lon="12.0203737"><ele>513.0</ele><time>2026-05-02T12:25:31.16Z</time></trkpt><trkpt lat="46.1028051" lon="12.0205908"><ele>513.0</ele><time>2026-05-02T12:25:32.16Z</time></trkpt><trkpt lat="46.1027653" lon="12.0207966"><ele>513.0</ele><time>2026-05-02T12:25:33.16Z</time></trkpt><trkpt lat="46.1027124" lon="12.0209953"><ele>513.0</ele><time>2026-05-02T12:25:34.16Z</time></trkpt><trkpt lat="46.1026692" lon="12.0211955"><ele>513.0</ele><time>2026-05-02T12:25:35.161Z</time></trkpt><trkpt lat="46.1026352" lon="12.0213968"><ele>513.75</ele><time>2026-05-02T12:25:36.161Z</time></trkpt><trkpt lat="46.1026335" lon="12.0216037"><ele>514.5</ele><time>2026-05-02T12:25:37.161Z</time></trkpt><trkpt lat="46.1026618" lon="12.0218089"><ele>515.25</ele><time>2026-05-02T12:25:38.161Z</time></trkpt><trkpt lat="46.1027007" lon="12.0220089"><ele>516.0</ele><time>2026-05-02T12:25:39.16Z</time></trkpt><trkpt lat="46.1027492" lon="12.0222064"><ele>517.5</ele><time>2026-05-02T12:25:40.161Z</time></trkpt><trkpt lat="46.1028068" lon="12.0223991"><ele>519.0</ele><time>2026-05-02T12:25:41.161Z</time></trkpt><trkpt lat="46.1028748" lon="12.0225859"><ele>520.5</ele><time>2026-05-02T12:25:42.161Z</time></trkpt><trkpt lat="46.1029463" lon="12.0227705"><ele>522.0</ele><time>2026-05-02T12:25:43.161Z</time></trkpt><trkpt lat="46.1030158" lon="12.0229551"><ele>522.5</ele><time>2026-05-02T12:25:44.16Z</time></trkpt><trkpt lat="46.1030815" lon="12.0231386"><ele>523.0</ele><time>2026-05-02T12:25:45.161Z</time></trkpt><trkpt lat="46.1031387" lon="12.0233257"><ele>523.5</ele><time>2026-05-02T12:25:46.16Z</time></trkpt><trkpt lat="46.1031919" lon="12.0235025"><ele>524.0</ele><time>2026-05-02T12:25:47.161Z</time></trkpt><trkpt lat="46.1032457" lon="12.0236688"><ele>526.75</ele><time>2026-05-02T12:25:48.16Z</time></trkpt><trkpt lat="46.103316" lon="12.0238275"><ele>529.5</ele><time>2026-05-02T12:25:49.162Z</time></trkpt><trkpt lat="46.1033936" lon="12.0239798"><ele>532.25</ele><time>2026-05-02T12:25:50.16Z</time></trkpt><trkpt lat="46.1034738" lon="12.0241229"><ele>535.0</ele><time>2026-05-02T12:25:51.16Z</time></trkpt><trkpt lat="46.103551" lon="12.0242592"><ele>535.0</ele><time>2026-05-02T12:25:52.16Z</time></trkpt><trkpt lat="46.1036241" lon="12.0243878"><ele>535.0</ele><time>2026-05-02T12:25:53.161Z</time></trkpt><trkpt lat="46.1036841" lon="12.0245065"><ele>535.0</ele><time>2026-05-02T12:25:54.16Z</time></trkpt><trkpt lat="46.1037373" lon="12.0246244"><ele>535.0</ele><time>2026-05-02T12:25:55.161Z</time></trkpt><trkpt lat="46.1037879" lon="12.0247494"><ele>535.0</ele><time>2026-05-02T12:25:56.161Z</time></trkpt><trkpt lat="46.1038401" lon="12.0248909"><ele>534.0</ele><time>2026-05-02T12:25:57.161Z</time></trkpt><trkpt lat="46.1038948" lon="12.0250403"><ele>533.0</ele><time>2026-05-02T12:25:58.161Z</time></trkpt><trkpt lat="46.1039484" lon="12.0252078"><ele>532.0</ele><time>2026-05-02T12:25:59.16Z</time></trkpt><trkpt lat="46.1039945" lon="12.0253929"><ele>531.0</ele><time>2026-05-02T12:26:00.161Z</time></trkpt><trkpt lat="46.1040435" lon="12.0255848"><ele>533.5</ele><time>2026-05-02T12:26:01.161Z</time></trkpt><trkpt lat="46.1040892" lon="12.0257831"><ele>536.0</ele><time>2026-05-02T12:26:02.16Z</time></trkpt><trkpt lat="46.1041255" lon="12.0259893"><ele>538.5</ele><time>2026-05-02T12:26:03.16Z</time></trkpt><trkpt lat="46.1041581" lon="12.0261961"><ele>541.0</ele><time>2026-05-02T12:26:04.16Z</time></trkpt><trkpt lat="46.1041754" lon="12.0263886"><ele>541.3333333333334</ele><time>2026-05-02T12:26:05.161Z</time></trkpt><trkpt lat="46.104185" lon="12.0265535"><ele>541.6666666666667</ele><time>2026-05-02T12:26:06.161Z</time></trkpt><trkpt lat="46.104189" lon="12.0266849"><ele>542.0</ele><time>2026-05-02T12:26:07.16Z</time></trkpt><trkpt lat="46.1041911" lon="12.026782"><ele>542.3333333333334</ele><time>2026-05-02T12:26:08.16Z</time></trkpt><trkpt lat="46.1041828" lon="12.0268736"><ele>542.6666666666666</ele><time>2026-05-02T12:26:10.161Z</time></trkpt><trkpt lat="46.1041645" lon="12.0270276"><ele>543.0</ele><time>2026-05-02T12:26:12.161Z</time></trkpt><trkpt lat="46.1041712" lon="12.0271603"><ele>543.5</ele><time>2026-05-02T12:26:13.161Z</time></trkpt><trkpt lat="46.1041854" lon="12.0273155"><ele>544.0</ele><time>2026-05-02T12:26:14.161Z</time></trkpt><trkpt lat="46.1042073" lon="12.0274847"><ele>544.5</ele><time>2026-05-02T12:26:15.16Z</time></trkpt><trkpt lat="46.1042395" lon="12.0276703"><ele>545.0</ele><time>2026-05-02T12:26:16.162Z</time></trkpt><trkpt lat="46.1042832" lon="12.0278697"><ele>545.6666666666666</ele><time>2026-05-02T12:26:17.161Z</time></trkpt><trkpt lat="46.10434" lon="12.0280778"><ele>546.3333333333334</ele><time>2026-05-02T12:26:18.162Z</time></trkpt><trkpt lat="46.1044077" lon="12.0282814"><ele>547.0</ele><time>2026-05-02T12:26:19.161Z</time></trkpt><trkpt lat="46.1044818" lon="12.0284763"><ele>547.0</ele><time>2026-05-02T12:26:20.162Z</time></trkpt><trkpt lat="46.1045563" lon="12.0286673"><ele>547.0</ele><time>2026-05-02T12:26:21.162Z</time></trkpt><trkpt lat="46.1046274" lon="12.0288581"><ele>547.0</ele><time>2026-05-02T12:26:22.161Z</time></trkpt><trkpt lat="46.1046988" lon="12.0290474"><ele>547.0</ele><time>2026-05-02T12:26:23.161Z</time></trkpt><trkpt lat="46.1047735" lon="12.0292377"><ele>547.0</ele><time>2026-05-02T12:26:24.162Z</time></trkpt><trkpt lat="46.1048503" lon="12.0294327"><ele>547.0</ele><time>2026-05-02T12:26:25.162Z</time></trkpt><trkpt lat="46.1049285" lon="12.0296341"><ele>548.3333333333334</ele><time>2026-05-02T12:26:26.162Z</time></trkpt><trkpt lat="46.1050079" lon="12.0298416"><ele>549.6666666666666</ele><time>2026-05-02T12:26:27.162Z</time></trkpt><trkpt lat="46.1050888" lon="12.0300543"><ele>551.0</ele><time>2026-05-02T12:26:28.162Z</time></trkpt><trkpt lat="46.1051726" lon="12.0302712"><ele>551.0</ele><time>2026-05-02T12:26:29.162Z</time></trkpt><trkpt lat="46.1052599" lon="12.0304914"><ele>551.0</ele><time>2026-05-02T12:26:30.162Z</time></trkpt><trkpt lat="46.1053473" lon="12.0307134"><ele>551.0</ele><time>2026-05-02T12:26:31.161Z</time></trkpt><trkpt lat="46.1054307" lon="12.03094"><ele>549.0</ele><time>2026-05-02T12:26:32.162Z</time></trkpt><trkpt lat="46.1055092" lon="12.0311707"><ele>547.0</ele><time>2026-05-02T12:26:33.162Z</time></trkpt><trkpt lat="46.1055805" lon="12.0314048"><ele>545.0</ele><time>2026-05-02T12:26:34.162Z</time></trkpt><trkpt lat="46.105642" lon="12.0316415"><ele>546.0</ele><time>2026-05-02T12:26:35.162Z</time></trkpt><trkpt lat="46.1056929" lon="12.0318822"><ele>547.0</ele><time>2026-05-02T12:26:36.162Z</time></trkpt><trkpt lat="46.1057371" lon="12.032126"><ele>548.0</ele><time>2026-05-02T12:26:37.161Z</time></trkpt><trkpt lat="46.1057817" lon="12.0323632"><ele>549.0</ele><time>2026-05-02T12:26:38.161Z</time></trkpt><trkpt lat="46.1058271" lon="12.0326046"><ele>550.0</ele><time>2026-05-02T12:26:39.162Z</time></trkpt><trkpt lat="46.1058676" lon="12.0328446"><ele>551.0</ele><time>2026-05-02T12:26:40.161Z</time></trkpt><trkpt lat="46.105915" lon="12.0330815"><ele>550.3333333333333</ele><time>2026-05-02T12:26:41.162Z</time></trkpt><trkpt lat="46.1059593" lon="12.0333182"><ele>549.6666666666666</ele><time>2026-05-02T12:26:42.162Z</time></trkpt><trkpt lat="46.1059977" lon="12.0335461"><ele>549.0</ele><time>2026-05-02T12:26:43.162Z</time></trkpt><trkpt lat="46.1060397" lon="12.0337699"><ele>549.0</ele><time>2026-05-02T12:26:44.162Z</time></trkpt><trkpt lat="46.1060848" lon="12.0339954"><ele>549.0</ele><time>2026-05-02T12:26:45.162Z</time></trkpt><trkpt lat="46.1061285" lon="12.0342177"><ele>549.0</ele><time>2026-05-02T12:26:46.162Z</time></trkpt><trkpt lat="46.1061738" lon="12.0344365"><ele>549.0</ele><time>2026-05-02T12:26:47.161Z</time></trkpt><trkpt lat="46.1062165" lon="12.0346539"><ele>549.0</ele><time>2026-05-02T12:26:48.162Z</time></trkpt><trkpt lat="46.1062573" lon="12.0348735"><ele>549.0</ele><time>2026-05-02T12:26:49.161Z</time></trkpt><trkpt lat="46.1063072" lon="12.035093"><ele>549.0</ele><time>2026-05-02T12:26:50.162Z</time></trkpt><trkpt lat="46.1063542" lon="12.0353122"><ele>549.0</ele><time>2026-05-02T12:26:51.161Z</time></trkpt><trkpt lat="46.1064028" lon="12.0355294"><ele>549.0</ele><time>2026-05-02T12:26:52.162Z</time></trkpt><trkpt lat="46.1064617" lon="12.0357406"><ele>549.0</ele><time>2026-05-02T12:26:53.162Z</time></trkpt><trkpt lat="46.1065242" lon="12.0359444"><ele>549.0</ele><time>2026-05-02T12:26:54.161Z</time></trkpt><trkpt lat="46.106596" lon="12.0361534"><ele>549.0</ele><time>2026-05-02T12:26:55.162Z</time></trkpt><trkpt lat="46.1066768" lon="12.0363688"><ele>549.0</ele><time>2026-05-02T12:26:56.162Z</time></trkpt><trkpt lat="46.1067696" lon="12.0365802"><ele>549.0</ele><time>2026-05-02T12:26:57.162Z</time></trkpt><trkpt lat="46.1068713" lon="12.0367837"><ele>549.0</ele><time>2026-05-02T12:26:58.161Z</time></trkpt><trkpt lat="46.1069855" lon="12.0369854"><ele>549.0</ele><time>2026-05-02T12:26:59.161Z</time></trkpt><trkpt lat="46.1071157" lon="12.0371818"><ele>549.0</ele><time>2026-05-02T12:27:00.162Z</time></trkpt><trkpt lat="46.1072427" lon="12.0373732"><ele>549.0</ele><time>2026-05-02T12:27:01.161Z</time></trkpt><trkpt lat="46.1073775" lon="12.0375647"><ele>550.6666666666666</ele><time>2026-05-02T12:27:02.161Z</time></trkpt><trkpt lat="46.1075177" lon="12.0377627"><ele>552.3333333333333</ele><time>2026-05-02T12:27:03.162Z</time></trkpt><trkpt lat="46.1076633" lon="12.0379525"><ele>554.0</ele><time>2026-05-02T12:27:04.161Z</time></trkpt><trkpt lat="46.1078109" lon="12.0381432"><ele>553.6666666666666</ele><time>2026-05-02T12:27:05.162Z</time></trkpt><trkpt lat="46.1079556" lon="12.0383361"><ele>553.3333333333334</ele><time>2026-05-02T12:27:06.161Z</time></trkpt><trkpt lat="46.108107" lon="12.0385357"><ele>553.0</ele><time>2026-05-02T12:27:07.161Z</time></trkpt><trkpt lat="46.1082545" lon="12.0387303"><ele>553.0</ele><time>2026-05-02T12:27:08.161Z</time></trkpt><trkpt lat="46.1084043" lon="12.0389216"><ele>553.0</ele><time>2026-05-02T12:27:09.162Z</time></trkpt><trkpt lat="46.1085513" lon="12.0391248"><ele>553.0</ele><time>2026-05-02T12:27:10.162Z</time></trkpt><trkpt lat="46.1086936" lon="12.0393355"><ele>554.0</ele><time>2026-05-02T12:27:11.161Z</time></trkpt><trkpt lat="46.1088266" lon="12.0395551"><ele>555.0</ele><time>2026-05-02T12:27:12.162Z</time></trkpt><trkpt lat="46.1089627" lon="12.0397725"><ele>556.0</ele><time>2026-05-02T12:27:13.162Z</time></trkpt><trkpt lat="46.109096" lon="12.0399888"><ele>556.0</ele><time>2026-05-02T12:27:14.163Z</time></trkpt><trkpt lat="46.1092187" lon="12.0402073"><ele>556.0</ele><time>2026-05-02T12:27:15.162Z</time></trkpt><trkpt lat="46.1093446" lon="12.040419"><ele>556.0</ele><time>2026-05-02T12:27:16.162Z</time></trkpt><trkpt lat="46.1094659" lon="12.0406325"><ele>551.3333333333334</ele><time>2026-05-02T12:27:17.163Z</time></trkpt><trkpt lat="46.1095991" lon="12.0408245"><ele>546.6666666666666</ele><time>2026-05-02T12:27:18.163Z</time></trkpt><trkpt lat="46.1097299" lon="12.0410109"><ele>542.0</ele><time>2026-05-02T12:27:19.163Z</time></trkpt><trkpt lat="46.1098754" lon="12.0411794"><ele>545.3333333333333</ele><time>2026-05-02T12:27:20.162Z</time></trkpt><trkpt lat="46.1100239" lon="12.0413379"><ele>548.6666666666666</ele><time>2026-05-02T12:27:21.163Z</time></trkpt><trkpt lat="46.110168" lon="12.041508"><ele>552.0</ele><time>2026-05-02T12:27:22.162Z</time></trkpt><trkpt lat="46.1103133" lon="12.0416921"><ele>552.0</ele><time>2026-05-02T12:27:23.162Z</time></trkpt><trkpt lat="46.1104542" lon="12.0418833"><ele>552.0</ele><time>2026-05-02T12:27:24.163Z</time></trkpt><trkpt lat="46.1105929" lon="12.0420839"><ele>552.0</ele><time>2026-05-02T12:27:25.162Z</time></trkpt><trkpt lat="46.110724" lon="12.0422787"><ele>553.3333333333334</ele><time>2026-05-02T12:27:26.163Z</time></trkpt><trkpt lat="46.1108568" lon="12.0424825"><ele>554.6666666666667</ele><time>2026-05-02T12:27:27.163Z</time></trkpt><trkpt lat="46.1109576" lon="12.0427069"><ele>556.0</ele><time>2026-05-02T12:27:28.163Z</time></trkpt><trkpt lat="46.1110401" lon="12.0429517"><ele>556.0</ele><time>2026-05-02T12:27:29.163Z</time></trkpt><trkpt lat="46.1111195" lon="12.0431907"><ele>556.0</ele><time>2026-05-02T12:27:30.163Z</time></trkpt><trkpt lat="46.1111915" lon="12.0434422"><ele>556.0</ele><time>2026-05-02T12:27:31.163Z</time></trkpt><trkpt lat="46.111267" lon="12.0436867"><ele>556.0</ele><time>2026-05-02T12:27:32.163Z</time></trkpt><trkpt lat="46.1113574" lon="12.043929"><ele>556.0</ele><time>2026-05-02T12:27:33.163Z</time></trkpt><trkpt lat="46.1114595" lon="12.0441535"><ele>556.0</ele><time>2026-05-02T12:27:34.162Z</time></trkpt><trkpt lat="46.1115787" lon="12.0443589"><ele>556.0</ele><time>2026-05-02T12:27:35.162Z</time></trkpt><trkpt lat="46.1117117" lon="12.0445383"><ele>556.0</ele><time>2026-05-02T12:27:36.162Z</time></trkpt><trkpt lat="46.1118602" lon="12.0446951"><ele>556.0</ele><time>2026-05-02T12:27:37.163Z</time></trkpt><trkpt lat="46.1120251" lon="12.0448256"><ele>556.0</ele><time>2026-05-02T12:27:38.163Z</time></trkpt><trkpt lat="46.1121897" lon="12.0449562"><ele>556.0</ele><time>2026-05-02T12:27:39.163Z</time></trkpt><trkpt lat="46.1123499" lon="12.0450808"><ele>556.0</ele><time>2026-05-02T12:27:40.162Z</time></trkpt><trkpt lat="46.1125008" lon="12.0452072"><ele>557.6666666666667</ele><time>2026-05-02T12:27:41.163Z</time></trkpt><trkpt lat="46.1126611" lon="12.0453319"><ele>559.3333333333334</ele><time>2026-05-02T12:27:42.163Z</time></trkpt><trkpt lat="46.1128003" lon="12.045436"><ele>561.0</ele><time>2026-05-02T12:27:43.163Z</time></trkpt><trkpt lat="46.1129347" lon="12.0455249"><ele>561.0</ele><time>2026-05-02T12:27:44.163Z</time></trkpt><trkpt lat="46.1130725" lon="12.0456012"><ele>561.0</ele><time>2026-05-02T12:27:45.162Z</time></trkpt><trkpt lat="46.1132079" lon="12.0456743"><ele>561.0</ele><time>2026-05-02T12:27:46.162Z</time></trkpt><trkpt lat="46.1133364" lon="12.0457439"><ele>561.0</ele><time>2026-05-02T12:27:47.163Z</time></trkpt><trkpt lat="46.1134622" lon="12.0458119"><ele>559.75</ele><time>2026-05-02T12:27:48.162Z</time></trkpt><trkpt lat="46.1135765" lon="12.045885"><ele>558.5</ele><time>2026-05-02T12:27:49.162Z</time></trkpt><trkpt lat="46.1136721" lon="12.0459844"><ele>557.25</ele><time>2026-05-02T12:27:50.163Z</time></trkpt><trkpt lat="46.1137187" lon="12.0461181"><ele>556.0</ele><time>2026-05-02T12:27:51.163Z</time></trkpt><trkpt lat="46.1137357" lon="12.0462678"><ele>556.0</ele><time>2026-05-02T12:27:52.162Z</time></trkpt><trkpt lat="46.1137026" lon="12.0464359"><ele>556.0</ele><time>2026-05-02T12:27:53.163Z</time></trkpt><trkpt lat="46.1136694" lon="12.0466115"><ele>556.0</ele><time>2026-05-02T12:27:54.163Z</time></trkpt><trkpt lat="46.1136433" lon="12.0467785"><ele>556.0</ele><time>2026-05-02T12:27:55.162Z</time></trkpt><trkpt lat="46.1136185" lon="12.0469391"><ele>555.4</ele><time>2026-05-02T12:27:56.163Z</time></trkpt><trkpt lat="46.1136188" lon="12.0470953"><ele>554.8</ele><time>2026-05-02T12:27:57.163Z</time></trkpt><trkpt lat="46.1136479" lon="12.0472264"><ele>554.1999999999999</ele><time>2026-05-02T12:27:58.162Z</time></trkpt><trkpt lat="46.11371" lon="12.047309"><ele>553.6</ele><time>2026-05-02T12:27:59.163Z</time></trkpt><trkpt lat="46.1138075" lon="12.047366"><ele>553.0</ele><time>2026-05-02T12:28:00.162Z</time></trkpt><trkpt lat="46.1139303" lon="12.0473524"><ele>551.6666666666667</ele><time>2026-05-02T12:28:01.163Z</time></trkpt><trkpt lat="46.1140729" lon="12.0473254"><ele>550.3333333333334</ele><time>2026-05-02T12:28:02.162Z</time></trkpt><trkpt lat="46.1142277" lon="12.0472873"><ele>549.0</ele><time>2026-05-02T12:28:03.162Z</time></trkpt><trkpt lat="46.1143926" lon="12.0472503"><ele>549.0</ele><time>2026-05-02T12:28:04.163Z</time></trkpt><trkpt lat="46.1145683" lon="12.0472232"><ele>549.0</ele><time>2026-05-02T12:28:05.162Z</time></trkpt><trkpt lat="46.1147451" lon="12.0471937"><ele>549.0</ele><time>2026-05-02T12:28:06.162Z</time></trkpt><trkpt lat="46.1149242" lon="12.0471719"><ele>547.6666666666666</ele><time>2026-05-02T12:28:07.163Z</time></trkpt><trkpt lat="46.1150967" lon="12.0471619"><ele>546.3333333333333</ele><time>2026-05-02T12:28:08.163Z</time></trkpt><trkpt lat="46.1152585" lon="12.0471481"><ele>545.0</ele><time>2026-05-02T12:28:09.164Z</time></trkpt><trkpt lat="46.1154098" lon="12.0471468"><ele>545.0</ele><time>2026-05-02T12:28:10.163Z</time></trkpt><trkpt lat="46.1155402" lon="12.0471506"><ele>545.0</ele><time>2026-05-02T12:28:11.164Z</time></trkpt><trkpt lat="46.1156534" lon="12.0471592"><ele>545.0</ele><time>2026-05-02T12:28:12.163Z</time></trkpt><trkpt lat="46.1157509" lon="12.0471704"><ele>545.0</ele><time>2026-05-02T12:28:13.163Z</time></trkpt><trkpt lat="46.115822" lon="12.0472246"><ele>545.0</ele><time>2026-05-02T12:28:14.164Z</time></trkpt><trkpt lat="46.1158143" lon="12.0473853"><ele>545.0</ele><time>2026-05-02T12:28:16.164Z</time></trkpt><trkpt lat="46.1157369" lon="12.0474265"><ele>545.0</ele><time>2026-05-02T12:28:17.163Z</time></trkpt><trkpt lat="46.1156332" lon="12.0474442"><ele>545.0</ele><time>2026-05-02T12:28:18.163Z</time></trkpt><trkpt lat="46.1155113" lon="12.0474586"><ele>545.0</ele><time>2026-05-02T12:28:19.164Z</time></trkpt><trkpt lat="46.1153905" lon="12.0474862"><ele>545.0</ele><time>2026-05-02T12:28:20.163Z</time></trkpt><trkpt lat="46.1152724" lon="12.0475125"><ele>542.5</ele><time>2026-05-02T12:28:21.164Z</time></trkpt><trkpt lat="46.1151437" lon="12.0475491"><ele>540.0</ele><time>2026-05-02T12:28:22.163Z</time></trkpt><trkpt lat="46.1150013" lon="12.047575"><ele>537.5</ele><time>2026-05-02T12:28:23.164Z</time></trkpt><trkpt lat="46.1148633" lon="12.0476043"><ele>535.0</ele><time>2026-05-02T12:28:24.163Z</time></trkpt><trkpt lat="46.1147386" lon="12.0476198"><ele>535.0</ele><time>2026-05-02T12:28:25.163Z</time></trkpt><trkpt lat="46.1146338" lon="12.0476373"><ele>535.0</ele><time>2026-05-02T12:28:26.163Z</time></trkpt><trkpt lat="46.1145671" lon="12.0476912"><ele>535.0</ele><time>2026-05-02T12:28:27.163Z</time></trkpt><trkpt lat="46.114534" lon="12.0477866"><ele>535.0</ele><time>2026-05-02T12:28:28.164Z</time></trkpt><trkpt lat="46.1145489" lon="12.0478971"><ele>535.0</ele><time>2026-05-02T12:28:29.163Z</time></trkpt><trkpt lat="46.1145978" lon="12.0479876"><ele>535.0</ele><time>2026-05-02T12:28:30.163Z</time></trkpt><trkpt lat="46.1146884" lon="12.0480281"><ele>535.0</ele><time>2026-05-02T12:28:31.164Z</time></trkpt><trkpt lat="46.1148195" lon="12.0480533"><ele>535.0</ele><time>2026-05-02T12:28:32.163Z</time></trkpt><trkpt lat="46.1149796" lon="12.0480793"><ele>535.0</ele><time>2026-05-02T12:28:33.164Z</time></trkpt><trkpt lat="46.1151467" lon="12.0481071"><ele>532.0</ele><time>2026-05-02T12:28:34.163Z</time></trkpt><trkpt lat="46.1153241" lon="12.0481523"><ele>529.0</ele><time>2026-05-02T12:28:35.164Z</time></trkpt><trkpt lat="46.1155129" lon="12.0481958"><ele>526.0</ele><time>2026-05-02T12:28:36.164Z</time></trkpt><trkpt lat="46.1157083" lon="12.0482466"><ele>516.0</ele><time>2026-05-02T12:28:37.163Z</time></trkpt><trkpt lat="46.1159031" lon="12.0483058"><ele>506.0</ele><time>2026-05-02T12:28:38.163Z</time></trkpt><trkpt lat="46.1160994" lon="12.0483712"><ele>496.0</ele><time>2026-05-02T12:28:39.163Z</time></trkpt><trkpt lat="46.1162862" lon="12.0484452"><ele>496.0</ele><time>2026-05-02T12:28:40.163Z</time></trkpt><trkpt lat="46.1164665" lon="12.048517"><ele>496.0</ele><time>2026-05-02T12:28:41.164Z</time></trkpt><trkpt lat="46.1166362" lon="12.0485831"><ele>496.0</ele><time>2026-05-02T12:28:42.164Z</time></trkpt><trkpt lat="46.1167858" lon="12.0486382"><ele>494.0</ele><time>2026-05-02T12:28:43.163Z</time></trkpt><trkpt lat="46.116919" lon="12.048688"><ele>492.0</ele><time>2026-05-02T12:28:44.164Z</time></trkpt><trkpt lat="46.1170344" lon="12.0487353"><ele>490.0</ele><time>2026-05-02T12:28:45.164Z</time></trkpt><trkpt lat="46.1171219" lon="12.0487829"><ele>488.0</ele><time>2026-05-02T12:28:46.163Z</time></trkpt><trkpt lat="46.117166" lon="12.0488593"><ele>486.0</ele><time>2026-05-02T12:28:47.164Z</time></trkpt><trkpt lat="46.117161" lon="12.0489575"><ele>486.0</ele><time>2026-05-02T12:28:48.164Z</time></trkpt><trkpt lat="46.1170318" lon="12.0490378"><ele>486.0</ele><time>2026-05-02T12:28:50.164Z</time></trkpt><trkpt lat="46.1169226" lon="12.0490313"><ele>486.0</ele><time>2026-05-02T12:28:51.163Z</time></trkpt><trkpt lat="46.1167953" lon="12.049027"><ele>486.0</ele><time>2026-05-02T12:28:52.163Z</time></trkpt><trkpt lat="46.1166423" lon="12.0490286"><ele>489.33333333333337</ele><time>2026-05-02T12:28:53.164Z</time></trkpt><trkpt lat="46.1164797" lon="12.0490281"><ele>492.6666666666667</ele><time>2026-05-02T12:28:54.163Z</time></trkpt><trkpt lat="46.1163019" lon="12.0490265"><ele>496.0</ele><time>2026-05-02T12:28:55.164Z</time></trkpt><trkpt lat="46.1161228" lon="12.0490292"><ele>496.0</ele><time>2026-05-02T12:28:56.164Z</time></trkpt><trkpt lat="46.1159459" lon="12.0490422"><ele>496.0</ele><time>2026-05-02T12:28:57.163Z</time></trkpt><trkpt lat="46.1157744" lon="12.0490634"><ele>496.0</ele><time>2026-05-02T12:28:58.164Z</time></trkpt><trkpt lat="46.1156076" lon="12.049085"><ele>498.25</ele><time>2026-05-02T12:28:59.164Z</time></trkpt><trkpt lat="46.1154523" lon="12.049101"><ele>500.5</ele><time>2026-05-02T12:29:00.164Z</time></trkpt><trkpt lat="46.115322" lon="12.049109"><ele>502.75</ele><time>2026-05-02T12:29:01.163Z</time></trkpt><trkpt lat="46.1152144" lon="12.0491175"><ele>505.0</ele><time>2026-05-02T12:29:02.163Z</time></trkpt><trkpt lat="46.1151342" lon="12.0491556"><ele>499.8</ele><time>2026-05-02T12:29:03.164Z</time></trkpt><trkpt lat="46.1150768" lon="12.0492366"><ele>494.6</ele><time>2026-05-02T12:29:04.164Z</time></trkpt><trkpt lat="46.1150589" lon="12.0493529"><ele>489.4</ele><time>2026-05-02T12:29:05.163Z</time></trkpt><trkpt lat="46.1150991" lon="12.0494666"><ele>484.2</ele><time>2026-05-02T12:29:06.164Z</time></trkpt><trkpt lat="46.1151847" lon="12.0495351"><ele>479.0</ele><time>2026-05-02T12:29:07.164Z</time></trkpt><trkpt lat="46.1152845" lon="12.04957"><ele>479.0</ele><time>2026-05-02T12:29:08.163Z</time></trkpt><trkpt lat="46.1154248" lon="12.0496039"><ele>479.0</ele><time>2026-05-02T12:29:09.163Z</time></trkpt><trkpt lat="46.115567" lon="12.049647"><ele>479.0</ele><time>2026-05-02T12:29:10.164Z</time></trkpt><trkpt lat="46.115705" lon="12.0497024"><ele>479.0</ele><time>2026-05-02T12:29:11.163Z</time></trkpt><trkpt lat="46.1158388" lon="12.0497727"><ele>476.3333333333333</ele><time>2026-05-02T12:29:12.163Z</time></trkpt><trkpt lat="46.1159663" lon="12.0498598"><ele>473.66666666666663</ele><time>2026-05-02T12:29:13.165Z</time></trkpt><trkpt lat="46.1161038" lon="12.0499698"><ele>471.0</ele><time>2026-05-02T12:29:14.164Z</time></trkpt><trkpt lat="46.1162483" lon="12.0500938"><ele>465.66666666666663</ele><time>2026-05-02T12:29:15.165Z</time></trkpt><trkpt lat="46.1163997" lon="12.0502069"><ele>460.3333333333333</ele><time>2026-05-02T12:29:16.165Z</time></trkpt><trkpt lat="46.1165513" lon="12.0503157"><ele>455.0</ele><time>2026-05-02T12:29:17.164Z</time></trkpt><trkpt lat="46.116686" lon="12.0504277"><ele>455.0</ele><time>2026-05-02T12:29:18.165Z</time></trkpt><trkpt lat="46.1167984" lon="12.0505179"><ele>455.0</ele><time>2026-05-02T12:29:19.164Z</time></trkpt><trkpt lat="46.116891" lon="12.0505995"><ele>455.0</ele><time>2026-05-02T12:29:20.164Z</time></trkpt><trkpt lat="46.1169708" lon="12.0507036"><ele>455.0</ele><time>2026-05-02T12:29:21.165Z</time></trkpt><trkpt lat="46.1170018" lon="12.050809"><ele>455.0</ele><time>2026-05-02T12:29:22.165Z</time></trkpt><trkpt lat="46.1169778" lon="12.0509127"><ele>452.6</ele><time>2026-05-02T12:29:23.165Z</time></trkpt><trkpt lat="46.1169099" lon="12.0509817"><ele>450.2</ele><time>2026-05-02T12:29:24.165Z</time></trkpt><trkpt lat="46.1168231" lon="12.0509848"><ele>447.79999999999995</ele><time>2026-05-02T12:29:25.165Z</time></trkpt><trkpt lat="46.1167264" lon="12.0509322"><ele>445.4</ele><time>2026-05-02T12:29:26.165Z</time></trkpt><trkpt lat="46.1166196" lon="12.0508688"><ele>443.0</ele><time>2026-05-02T12:29:27.164Z</time></trkpt><trkpt lat="46.1164974" lon="12.0508072"><ele>444.66666666666663</ele><time>2026-05-02T12:29:28.165Z</time></trkpt><trkpt lat="46.1163535" lon="12.0507571"><ele>446.33333333333337</ele><time>2026-05-02T12:29:29.164Z</time></trkpt><trkpt lat="46.116202" lon="12.0507231"><ele>448.0</ele><time>2026-05-02T12:29:30.164Z</time></trkpt><trkpt lat="46.1160443" lon="12.0507242"><ele>448.0</ele><time>2026-05-02T12:29:31.165Z</time></trkpt><trkpt lat="46.1158794" lon="12.0507564"><ele>448.0</ele><time>2026-05-02T12:29:32.165Z</time></trkpt><trkpt lat="46.1157234" lon="12.0508188"><ele>448.0</ele><time>2026-05-02T12:29:33.165Z</time></trkpt><trkpt lat="46.1155588" lon="12.050887"><ele>445.0</ele><time>2026-05-02T12:29:34.165Z</time></trkpt><trkpt lat="46.115401" lon="12.0509612"><ele>442.0</ele><time>2026-05-02T12:29:35.165Z</time></trkpt><trkpt lat="46.1152489" lon="12.0510631"><ele>439.0</ele><time>2026-05-02T12:29:36.165Z</time></trkpt><trkpt lat="46.1151172" lon="12.0511939"><ele>439.0</ele><time>2026-05-02T12:29:37.164Z</time></trkpt><trkpt lat="46.1149986" lon="12.0513448"><ele>439.0</ele><time>2026-05-02T12:29:38.165Z</time></trkpt><trkpt lat="46.1148965" lon="12.0515157"><ele>439.0</ele><time>2026-05-02T12:29:39.164Z</time></trkpt><trkpt lat="46.1148091" lon="12.0517125"><ele>438.25</ele><time>2026-05-02T12:29:40.164Z</time></trkpt><trkpt lat="46.1147324" lon="12.0518968"><ele>437.5</ele><time>2026-05-02T12:29:41.165Z</time></trkpt><trkpt lat="46.1146486" lon="12.0520544"><ele>436.75</ele><time>2026-05-02T12:29:42.164Z</time></trkpt><trkpt lat="46.1145574" lon="12.0521737"><ele>436.0</ele><time>2026-05-02T12:29:43.164Z</time></trkpt><trkpt lat="46.1144843" lon="12.052291"><ele>436.0</ele><time>2026-05-02T12:29:44.164Z</time></trkpt><trkpt lat="46.1144434" lon="12.0524209"><ele>436.0</ele><time>2026-05-02T12:29:45.164Z</time></trkpt><trkpt lat="46.1144792" lon="12.0525412"><ele>436.0</ele><time>2026-05-02T12:29:46.165Z</time></trkpt><trkpt lat="46.114544" lon="12.0526151"><ele>436.0</ele><time>2026-05-02T12:29:47.165Z</time></trkpt><trkpt lat="46.114636" lon="12.0526386"><ele>436.0</ele><time>2026-05-02T12:29:48.164Z</time></trkpt><trkpt lat="46.1147467" lon="12.0525903"><ele>434.75</ele><time>2026-05-02T12:29:49.164Z</time></trkpt><trkpt lat="46.1148707" lon="12.0525174"><ele>433.5</ele><time>2026-05-02T12:29:50.165Z</time></trkpt><trkpt lat="46.1150152" lon="12.0524576"><ele>432.25</ele><time>2026-05-02T12:29:51.164Z</time></trkpt><trkpt lat="46.115169" lon="12.0524174"><ele>431.0</ele><time>2026-05-02T12:29:52.165Z</time></trkpt><trkpt lat="46.1153182" lon="12.0523927"><ele>431.0</ele><time>2026-05-02T12:29:53.165Z</time></trkpt><trkpt lat="46.1154764" lon="12.0523928"><ele>431.0</ele><time>2026-05-02T12:29:54.165Z</time></trkpt><trkpt lat="46.1156425" lon="12.0524132"><ele>431.0</ele><time>2026-05-02T12:29:55.165Z</time></trkpt><trkpt lat="46.1158118" lon="12.0524555"><ele>424.66666666666663</ele><time>2026-05-02T12:29:56.164Z</time></trkpt><trkpt lat="46.1159844" lon="12.0525042"><ele>418.33333333333337</ele><time>2026-05-02T12:29:57.164Z</time></trkpt><trkpt lat="46.1161557" lon="12.0525787"><ele>412.0</ele><time>2026-05-02T12:29:58.165Z</time></trkpt><trkpt lat="46.1163255" lon="12.0526721"><ele>412.0</ele><time>2026-05-02T12:29:59.165Z</time></trkpt><trkpt lat="46.1164884" lon="12.0527917"><ele>412.0</ele><time>2026-05-02T12:30:00.164Z</time></trkpt><trkpt lat="46.1166449" lon="12.0529295"><ele>412.0</ele><time>2026-05-02T12:30:01.164Z</time></trkpt><trkpt lat="46.1167979" lon="12.0530784"><ele>411.6666666666667</ele><time>2026-05-02T12:30:02.165Z</time></trkpt><trkpt lat="46.116943" lon="12.0532521"><ele>411.33333333333337</ele><time>2026-05-02T12:30:03.165Z</time></trkpt><trkpt lat="46.1170756" lon="12.0534433"><ele>411.0</ele><time>2026-05-02T12:30:04.165Z</time></trkpt><trkpt lat="46.1172089" lon="12.0536372"><ele>406.33333333333337</ele><time>2026-05-02T12:30:05.164Z</time></trkpt><trkpt lat="46.1173443" lon="12.0538424"><ele>401.6666666666667</ele><time>2026-05-02T12:30:06.165Z</time></trkpt><trkpt lat="46.117485" lon="12.0540516"><ele>397.0</ele><time>2026-05-02T12:30:07.164Z</time></trkpt><trkpt lat="46.1176259" lon="12.0542686"><ele>396.6666666666667</ele><time>2026-05-02T12:30:08.164Z</time></trkpt><trkpt lat="46.1177671" lon="12.0544806"><ele>396.33333333333337</ele><time>2026-05-02T12:30:09.165Z</time></trkpt><trkpt lat="46.1179117" lon="12.0546923"><ele>396.0</ele><time>2026-05-02T12:30:10.164Z</time></trkpt><trkpt lat="46.1180603" lon="12.0548996"><ele>395.66666666666663</ele><time>2026-05-02T12:30:11.165Z</time></trkpt><trkpt lat="46.1182002" lon="12.0551157"><ele>395.3333333333333</ele><time>2026-05-02T12:30:12.164Z</time></trkpt><trkpt lat="46.1183413" lon="12.0553213"><ele>395.0</ele><time>2026-05-02T12:30:13.166Z</time></trkpt><trkpt lat="46.1184796" lon="12.0555387"><ele>397.0</ele><time>2026-05-02T12:30:14.165Z</time></trkpt><trkpt lat="46.11862" lon="12.0557436"><ele>399.0</ele><time>2026-05-02T12:30:15.166Z</time></trkpt><trkpt lat="46.1187569" lon="12.0559543"><ele>401.0</ele><time>2026-05-02T12:30:16.166Z</time></trkpt><trkpt lat="46.1188955" lon="12.0561629"><ele>401.0</ele><time>2026-05-02T12:30:17.166Z</time></trkpt><trkpt lat="46.1190367" lon="12.0563781"><ele>401.0</ele><time>2026-05-02T12:30:18.165Z</time></trkpt><trkpt lat="46.119173" lon="12.056588"><ele>401.0</ele><time>2026-05-02T12:30:19.165Z</time></trkpt><trkpt lat="46.1193081" lon="12.0567969"><ele>403.0</ele><time>2026-05-02T12:30:20.166Z</time></trkpt><trkpt lat="46.11945" lon="12.0570063"><ele>405.0</ele><time>2026-05-02T12:30:21.166Z</time></trkpt><trkpt lat="46.1195919" lon="12.0572155"><ele>407.0</ele><time>2026-05-02T12:30:22.166Z</time></trkpt><trkpt lat="46.1197289" lon="12.0574249"><ele>408.0</ele><time>2026-05-02T12:30:23.165Z</time></trkpt><trkpt lat="46.1198549" lon="12.0576129"><ele>409.0</ele><time>2026-05-02T12:30:24.166Z</time></trkpt><trkpt lat="46.1199775" lon="12.0577945"><ele>410.0</ele><time>2026-05-02T12:30:25.165Z</time></trkpt><trkpt lat="46.1200789" lon="12.0579533"><ele>410.2</ele><time>2026-05-02T12:30:26.165Z</time></trkpt><trkpt lat="46.1201722" lon="12.0580899"><ele>410.4</ele><time>2026-05-02T12:30:27.166Z</time></trkpt><trkpt lat="46.1202459" lon="12.0582078"><ele>410.6</ele><time>2026-05-02T12:30:28.166Z</time></trkpt><trkpt lat="46.1202987" lon="12.0583002"><ele>410.8</ele><time>2026-05-02T12:30:29.166Z</time></trkpt><trkpt lat="46.1203423" lon="12.058392"><ele>411.0</ele><time>2026-05-02T12:30:30.165Z</time></trkpt><trkpt lat="46.120361" lon="12.0584794"><ele>411.0</ele><time>2026-05-02T12:30:31.166Z</time></trkpt><trkpt lat="46.1203733" lon="12.0586237"><ele>411.0</ele><time>2026-05-02T12:30:33.165Z</time></trkpt><trkpt lat="46.1204689" lon="12.0587544"><ele>411.0</ele><time>2026-05-02T12:30:35.165Z</time></trkpt><trkpt lat="46.1205576" lon="12.058805"><ele>411.0</ele><time>2026-05-02T12:30:36.165Z</time></trkpt><trkpt lat="46.1206775" lon="12.0588529"><ele>411.25</ele><time>2026-05-02T12:30:37.167Z</time></trkpt><trkpt lat="46.1207926" lon="12.0589144"><ele>411.5</ele><time>2026-05-02T12:30:38.165Z</time></trkpt><trkpt lat="46.1209196" lon="12.0589747"><ele>411.75</ele><time>2026-05-02T12:30:39.166Z</time></trkpt><trkpt lat="46.1210537" lon="12.0590478"><ele>412.0</ele><time>2026-05-02T12:30:40.166Z</time></trkpt><trkpt lat="46.1211945" lon="12.0591425"><ele>412.0</ele><time>2026-05-02T12:30:41.165Z</time></trkpt><trkpt lat="46.1213408" lon="12.0592472"><ele>412.0</ele><time>2026-05-02T12:30:42.165Z</time></trkpt><trkpt lat="46.1214925" lon="12.0593542"><ele>412.0</ele><time>2026-05-02T12:30:43.165Z</time></trkpt><trkpt lat="46.1216483" lon="12.0594638"><ele>415.6666666666667</ele><time>2026-05-02T12:30:44.165Z</time></trkpt><trkpt lat="46.1218073" lon="12.059586"><ele>419.33333333333337</ele><time>2026-05-02T12:30:45.165Z</time></trkpt><trkpt lat="46.1219673" lon="12.0596966"><ele>423.0</ele><time>2026-05-02T12:30:46.166Z</time></trkpt><trkpt lat="46.1221273" lon="12.0598145"><ele>423.0</ele><time>2026-05-02T12:30:47.166Z</time></trkpt><trkpt lat="46.1222803" lon="12.0599299"><ele>423.0</ele><time>2026-05-02T12:30:48.166Z</time></trkpt><trkpt lat="46.1224199" lon="12.0600268"><ele>423.0</ele><time>2026-05-02T12:30:49.165Z</time></trkpt><trkpt lat="46.122559" lon="12.0601063"><ele>423.75</ele><time>2026-05-02T12:30:50.165Z</time></trkpt><trkpt lat="46.122704" lon="12.0601671"><ele>424.5</ele><time>2026-05-02T12:30:51.166Z</time></trkpt><trkpt lat="46.1228514" lon="12.0601961"><ele>425.25</ele><time>2026-05-02T12:30:52.165Z</time></trkpt><trkpt lat="46.1229977" lon="12.0601954"><ele>426.0</ele><time>2026-05-02T12:30:53.166Z</time></trkpt><trkpt lat="46.1231658" lon="12.0601881"><ele>428.66666666666663</ele><time>2026-05-02T12:30:54.165Z</time></trkpt><trkpt lat="46.1233294" lon="12.0601639"><ele>431.3333333333333</ele><time>2026-05-02T12:30:55.165Z</time></trkpt><trkpt lat="46.1235" lon="12.0601446"><ele>434.0</ele><time>2026-05-02T12:30:56.166Z</time></trkpt><trkpt lat="46.1236617" lon="12.0601084"><ele>434.0</ele><time>2026-05-02T12:30:57.166Z</time></trkpt><trkpt lat="46.1238222" lon="12.0601014"><ele>434.0</ele><time>2026-05-02T12:30:58.166Z</time></trkpt><trkpt lat="46.1239854" lon="12.060124"><ele>434.0</ele><time>2026-05-02T12:30:59.165Z</time></trkpt><trkpt lat="46.1241489" lon="12.0601728"><ele>434.3333333333333</ele><time>2026-05-02T12:31:00.166Z</time></trkpt><trkpt lat="46.1243068" lon="12.0602171"><ele>434.66666666666663</ele><time>2026-05-02T12:31:01.165Z</time></trkpt><trkpt lat="46.1244749" lon="12.0602691"><ele>435.0</ele><time>2026-05-02T12:31:02.165Z</time></trkpt><trkpt lat="46.1246379" lon="12.060321"><ele>435.0</ele><time>2026-05-02T12:31:03.165Z</time></trkpt><trkpt lat="46.1248008" lon="12.0603833"><ele>435.0</ele><time>2026-05-02T12:31:04.165Z</time></trkpt><trkpt lat="46.124954" lon="12.0604803"><ele>435.0</ele><time>2026-05-02T12:31:05.166Z</time></trkpt><trkpt lat="46.1251065" lon="12.0606013"><ele>435.66666666666663</ele><time>2026-05-02T12:31:06.165Z</time></trkpt><trkpt lat="46.1252459" lon="12.0607315"><ele>436.3333333333333</ele><time>2026-05-02T12:31:07.166Z</time></trkpt><trkpt lat="46.1253834" lon="12.060863"><ele>437.0</ele><time>2026-05-02T12:31:08.166Z</time></trkpt><trkpt lat="46.1255141" lon="12.0609989"><ele>437.0</ele><time>2026-05-02T12:31:09.167Z</time></trkpt><trkpt lat="46.125644" lon="12.0611369"><ele>437.0</ele><time>2026-05-02T12:31:10.166Z</time></trkpt><trkpt lat="46.1257698" lon="12.0612663"><ele>437.0</ele><time>2026-05-02T12:31:11.166Z</time></trkpt><trkpt lat="46.1258875" lon="12.0613921"><ele>438.0</ele><time>2026-05-02T12:31:12.167Z</time></trkpt><trkpt lat="46.1260033" lon="12.0614993"><ele>439.0</ele><time>2026-05-02T12:31:13.166Z</time></trkpt><trkpt lat="46.1261267" lon="12.0616062"><ele>440.0</ele><time>2026-05-02T12:31:14.167Z</time></trkpt><trkpt lat="46.126248" lon="12.0617116"><ele>441.0</ele><time>2026-05-02T12:31:15.166Z</time></trkpt><trkpt lat="46.1263631" lon="12.0618075"><ele>441.0</ele><time>2026-05-02T12:31:16.166Z</time></trkpt><trkpt lat="46.1264875" lon="12.0619058"><ele>441.0</ele><time>2026-05-02T12:31:17.167Z</time></trkpt><trkpt lat="46.1266092" lon="12.0620114"><ele>441.0</ele><time>2026-05-02T12:31:18.166Z</time></trkpt><trkpt lat="46.1267273" lon="12.0621295"><ele>441.0</ele><time>2026-05-02T12:31:19.167Z</time></trkpt><trkpt lat="46.126838" lon="12.0622453"><ele>442.75</ele><time>2026-05-02T12:31:20.166Z</time></trkpt><trkpt lat="46.1269378" lon="12.0623766"><ele>444.5</ele><time>2026-05-02T12:31:21.166Z</time></trkpt><trkpt lat="46.1270371" lon="12.062523"><ele>446.25</ele><time>2026-05-02T12:31:22.166Z</time></trkpt><trkpt lat="46.1271414" lon="12.0626656"><ele>448.0</ele><time>2026-05-02T12:31:23.166Z</time></trkpt><trkpt lat="46.1272428" lon="12.0628063"><ele>448.0</ele><time>2026-05-02T12:31:24.167Z</time></trkpt><trkpt lat="46.1273452" lon="12.0629407"><ele>448.0</ele><time>2026-05-02T12:31:25.166Z</time></trkpt><trkpt lat="46.1274703" lon="12.0630586"><ele>448.0</ele><time>2026-05-02T12:31:26.167Z</time></trkpt><trkpt lat="46.1275945" lon="12.0631602"><ele>448.0</ele><time>2026-05-02T12:31:27.166Z</time></trkpt><trkpt lat="46.1277299" lon="12.063247"><ele>448.0</ele><time>2026-05-02T12:31:28.167Z</time></trkpt><trkpt lat="46.1278691" lon="12.0633309"><ele>448.0</ele><time>2026-05-02T12:31:29.167Z</time></trkpt><trkpt lat="46.1280121" lon="12.0634033"><ele>448.0</ele><time>2026-05-02T12:31:30.166Z</time></trkpt><trkpt lat="46.1281657" lon="12.0634651"><ele>449.0</ele><time>2026-05-02T12:31:31.167Z</time></trkpt><trkpt lat="46.1283217" lon="12.0635223"><ele>450.0</ele><time>2026-05-02T12:31:32.167Z</time></trkpt><trkpt lat="46.1284745" lon="12.0635716"><ele>451.0</ele><time>2026-05-02T12:31:33.167Z</time></trkpt><trkpt lat="46.1286274" lon="12.0636197"><ele>451.0</ele><time>2026-05-02T12:31:34.167Z</time></trkpt><trkpt lat="46.1287789" lon="12.0636606"><ele>451.0</ele><time>2026-05-02T12:31:35.167Z</time></trkpt><trkpt lat="46.1289298" lon="12.0636971"><ele>451.0</ele><time>2026-05-02T12:31:36.167Z</time></trkpt><trkpt lat="46.1290802" lon="12.0637316"><ele>453.33333333333337</ele><time>2026-05-02T12:31:37.166Z</time></trkpt><trkpt lat="46.1292204" lon="12.0637686"><ele>455.66666666666663</ele><time>2026-05-02T12:31:38.166Z</time></trkpt><trkpt lat="46.1293678" lon="12.063805"><ele>458.0</ele><time>2026-05-02T12:31:39.167Z</time></trkpt><trkpt lat="46.1295316" lon="12.0638426"><ele>458.0</ele><time>2026-05-02T12:31:40.167Z</time></trkpt><trkpt lat="46.1296795" lon="12.0638753"><ele>458.0</ele><time>2026-05-02T12:31:41.167Z</time></trkpt><trkpt lat="46.129829" lon="12.0639001"><ele>458.0</ele><time>2026-05-02T12:31:42.167Z</time></trkpt><trkpt lat="46.1299795" lon="12.063917"><ele>459.3333333333333</ele><time>2026-05-02T12:31:43.166Z</time></trkpt><trkpt lat="46.1301271" lon="12.0639366"><ele>460.66666666666663</ele><time>2026-05-02T12:31:44.166Z</time></trkpt><trkpt lat="46.1302789" lon="12.0639778"><ele>462.0</ele><time>2026-05-02T12:31:45.167Z</time></trkpt><trkpt lat="46.1304295" lon="12.0640545"><ele>460.0</ele><time>2026-05-02T12:31:46.167Z</time></trkpt><trkpt lat="46.1305764" lon="12.0641462"><ele>458.0</ele><time>2026-05-02T12:31:47.167Z</time></trkpt><trkpt lat="46.1307258" lon="12.0642337"><ele>456.0</ele><time>2026-05-02T12:31:48.167Z</time></trkpt><trkpt lat="46.1308794" lon="12.0643283"><ele>456.0</ele><time>2026-05-02T12:31:49.166Z</time></trkpt><trkpt lat="46.1310327" lon="12.0644129"><ele>456.0</ele><time>2026-05-02T12:31:50.167Z</time></trkpt><trkpt lat="46.1311867" lon="12.0644991"><ele>456.0</ele><time>2026-05-02T12:31:51.166Z</time></trkpt><trkpt lat="46.1313428" lon="12.0645926"><ele>456.0</ele><time>2026-05-02T12:31:52.167Z</time></trkpt><trkpt lat="46.1314849" lon="12.0647209"><ele>456.0</ele><time>2026-05-02T12:31:53.166Z</time></trkpt><trkpt lat="46.1316127" lon="12.0648752"><ele>456.0</ele><time>2026-05-02T12:31:54.167Z</time></trkpt><trkpt lat="46.1317327" lon="12.0650425"><ele>455.0</ele><time>2026-05-02T12:31:55.167Z</time></trkpt><trkpt lat="46.1318261" lon="12.0652397"><ele>454.0</ele><time>2026-05-02T12:31:56.167Z</time></trkpt><trkpt lat="46.1319184" lon="12.0654376"><ele>453.0</ele><time>2026-05-02T12:31:57.166Z</time></trkpt><trkpt lat="46.1320191" lon="12.0656274"><ele>451.33333333333337</ele><time>2026-05-02T12:31:58.166Z</time></trkpt><trkpt lat="46.1321264" lon="12.0658102"><ele>449.6666666666667</ele><time>2026-05-02T12:31:59.166Z</time></trkpt><trkpt lat="46.1322478" lon="12.0659749"><ele>448.0</ele><time>2026-05-02T12:32:00.167Z</time></trkpt><trkpt lat="46.1323734" lon="12.0661309"><ele>450.6666666666667</ele><time>2026-05-02T12:32:01.166Z</time></trkpt><trkpt lat="46.132517" lon="12.0662714"><ele>453.33333333333337</ele><time>2026-05-02T12:32:02.167Z</time></trkpt><trkpt lat="46.1326654" lon="12.0664031"><ele>456.0</ele><time>2026-05-02T12:32:03.167Z</time></trkpt><trkpt lat="46.1328159" lon="12.0665271"><ele>456.0</ele><time>2026-05-02T12:32:04.166Z</time></trkpt><trkpt lat="46.1329693" lon="12.066649"><ele>456.0</ele><time>2026-05-02T12:32:05.167Z</time></trkpt><trkpt lat="46.1331221" lon="12.0667717"><ele>456.0</ele><time>2026-05-02T12:32:06.166Z</time></trkpt><trkpt lat="46.1332773" lon="12.066887"><ele>456.0</ele><time>2026-05-02T12:32:07.167Z</time></trkpt><trkpt lat="46.133438" lon="12.0669845"><ele>456.0</ele><time>2026-05-02T12:32:08.167Z</time></trkpt><trkpt lat="46.1335984" lon="12.0670649"><ele>456.0</ele><time>2026-05-02T12:32:09.168Z</time></trkpt><trkpt lat="46.1337591" lon="12.0671408"><ele>456.0</ele><time>2026-05-02T12:32:10.167Z</time></trkpt><trkpt lat="46.1339052" lon="12.0671963"><ele>456.0</ele><time>2026-05-02T12:32:11.166Z</time></trkpt><trkpt lat="46.1340687" lon="12.067235"><ele>456.0</ele><time>2026-05-02T12:32:12.166Z</time></trkpt><trkpt lat="46.1342179" lon="12.0672491"><ele>457.66666666666663</ele><time>2026-05-02T12:32:13.167Z</time></trkpt><trkpt lat="46.134371" lon="12.0672346"><ele>459.3333333333333</ele><time>2026-05-02T12:32:14.168Z</time></trkpt><trkpt lat="46.134526" lon="12.0672539"><ele>461.0</ele><time>2026-05-02T12:32:15.167Z</time></trkpt><trkpt lat="46.1346747" lon="12.0673093"><ele>461.0</ele><time>2026-05-02T12:32:16.167Z</time></trkpt><trkpt lat="46.1348242" lon="12.0673907"><ele>461.0</ele><time>2026-05-02T12:32:17.167Z</time></trkpt><trkpt lat="46.1349799" lon="12.0674751"><ele>461.0</ele><time>2026-05-02T12:32:18.168Z</time></trkpt><trkpt lat="46.1351447" lon="12.0675412"><ele>461.0</ele><time>2026-05-02T12:32:19.168Z</time></trkpt><trkpt lat="46.1353141" lon="12.0675653"><ele>461.0</ele><time>2026-05-02T12:32:20.167Z</time></trkpt><trkpt lat="46.1354784" lon="12.0675631"><ele>461.0</ele><time>2026-05-02T12:32:21.168Z</time></trkpt><trkpt lat="46.1356425" lon="12.0675531"><ele>463.3333333333333</ele><time>2026-05-02T12:32:22.168Z</time></trkpt><trkpt lat="46.1358041" lon="12.0675515"><ele>465.66666666666663</ele><time>2026-05-02T12:32:23.168Z</time></trkpt><trkpt lat="46.135965" lon="12.067561"><ele>468.0</ele><time>2026-05-02T12:32:24.167Z</time></trkpt><trkpt lat="46.1361277" lon="12.0675957"><ele>468.0</ele><time>2026-05-02T12:32:25.168Z</time></trkpt><trkpt lat="46.1362856" lon="12.0676429"><ele>468.0</ele><time>2026-05-02T12:32:26.167Z</time></trkpt><trkpt lat="46.1364457" lon="12.0676945"><ele>468.0</ele><time>2026-05-02T12:32:27.167Z</time></trkpt><trkpt lat="46.136599" lon="12.0677517"><ele>469.75</ele><time>2026-05-02T12:32:28.167Z</time></trkpt><trkpt lat="46.1367341" lon="12.0678039"><ele>471.5</ele><time>2026-05-02T12:32:29.168Z</time></trkpt><trkpt lat="46.1368693" lon="12.0678796"><ele>473.25</ele><time>2026-05-02T12:32:30.168Z</time></trkpt><trkpt lat="46.1369918" lon="12.0679878"><ele>475.0</ele><time>2026-05-02T12:32:31.168Z</time></trkpt><trkpt lat="46.1370983" lon="12.0681246"><ele>475.0</ele><time>2026-05-02T12:32:32.167Z</time></trkpt><trkpt lat="46.1372083" lon="12.0682584"><ele>475.0</ele><time>2026-05-02T12:32:33.167Z</time></trkpt><trkpt lat="46.1373284" lon="12.0683808"><ele>475.0</ele><time>2026-05-02T12:32:34.167Z</time></trkpt><trkpt lat="46.1374645" lon="12.0684804"><ele>475.0</ele><time>2026-05-02T12:32:35.168Z</time></trkpt><trkpt lat="46.1376017" lon="12.068579"><ele>474.25</ele><time>2026-05-02T12:32:36.167Z</time></trkpt><trkpt lat="46.1377269" lon="12.0686601"><ele>473.5</ele><time>2026-05-02T12:32:37.167Z</time></trkpt><trkpt lat="46.1378507" lon="12.0687312"><ele>472.75</ele><time>2026-05-02T12:32:38.168Z</time></trkpt><trkpt lat="46.1379717" lon="12.0688248"><ele>472.0</ele><time>2026-05-02T12:32:39.168Z</time></trkpt><trkpt lat="46.1380685" lon="12.0689663"><ele>472.0</ele><time>2026-05-02T12:32:40.168Z</time></trkpt><trkpt lat="46.1381728" lon="12.0691085"><ele>472.0</ele><time>2026-05-02T12:32:41.168Z</time></trkpt><trkpt lat="46.1382799" lon="12.069233"><ele>472.0</ele><time>2026-05-02T12:32:42.168Z</time></trkpt><trkpt lat="46.1383805" lon="12.0693782"><ele>472.0</ele><time>2026-05-02T12:32:43.168Z</time></trkpt><trkpt lat="46.1384737" lon="12.0695305"><ele>471.75</ele><time>2026-05-02T12:32:44.168Z</time></trkpt><trkpt lat="46.1385647" lon="12.0696803"><ele>471.5</ele><time>2026-05-02T12:32:45.168Z</time></trkpt><trkpt lat="46.1386593" lon="12.0698317"><ele>471.25</ele><time>2026-05-02T12:32:46.168Z</time></trkpt><trkpt lat="46.1387524" lon="12.0699828"><ele>471.0</ele><time>2026-05-02T12:32:47.168Z</time></trkpt><trkpt lat="46.1388481" lon="12.0701363"><ele>471.0</ele><time>2026-05-02T12:32:48.167Z</time></trkpt><trkpt lat="46.1389351" lon="12.0702907"><ele>471.0</ele><time>2026-05-02T12:32:49.167Z</time></trkpt><trkpt lat="46.1390224" lon="12.0704454"><ele>471.0</ele><time>2026-05-02T12:32:50.167Z</time></trkpt><trkpt lat="46.1391064" lon="12.0705982"><ele>471.0</ele><time>2026-05-02T12:32:51.168Z</time></trkpt><trkpt lat="46.1391948" lon="12.0707383"><ele>473.5</ele><time>2026-05-02T12:32:52.167Z</time></trkpt><trkpt lat="46.1392978" lon="12.0708564"><ele>476.0</ele><time>2026-05-02T12:32:53.168Z</time></trkpt><trkpt lat="46.1394004" lon="12.0709532"><ele>478.5</ele><time>2026-05-02T12:32:54.168Z</time></trkpt><trkpt lat="46.1394921" lon="12.0710196"><ele>481.0</ele><time>2026-05-02T12:32:55.167Z</time></trkpt><trkpt lat="46.1395898" lon="12.0710375"><ele>481.0</ele><time>2026-05-02T12:32:56.168Z</time></trkpt><trkpt lat="46.1396875" lon="12.0710544"><ele>481.0</ele><time>2026-05-02T12:32:57.167Z</time></trkpt><trkpt lat="46.1397709" lon="12.0710285"><ele>481.0</ele><time>2026-05-02T12:32:58.167Z</time></trkpt><trkpt lat="46.1398757" lon="12.0710194"><ele>481.0</ele><time>2026-05-02T12:32:59.168Z</time></trkpt><trkpt lat="46.1399785" lon="12.0710289"><ele>481.0</ele><time>2026-05-02T12:33:00.168Z</time></trkpt><trkpt lat="46.1400833" lon="12.0710601"><ele>482.0</ele><time>2026-05-02T12:33:01.167Z</time></trkpt><trkpt lat="46.1401887" lon="12.0711206"><ele>483.0</ele><time>2026-05-02T12:33:02.167Z</time></trkpt><trkpt lat="46.1402935" lon="12.0712061"><ele>484.0</ele><time>2026-05-02T12:33:03.168Z</time></trkpt><trkpt lat="46.1403992" lon="12.071308"><ele>485.0</ele><time>2026-05-02T12:33:04.167Z</time></trkpt><trkpt lat="46.1405098" lon="12.0714047"><ele>485.0</ele><time>2026-05-02T12:33:05.169Z</time></trkpt><trkpt lat="46.1406197" lon="12.0714947"><ele>485.0</ele><time>2026-05-02T12:33:06.167Z</time></trkpt><trkpt lat="46.1407269" lon="12.0715744"><ele>485.0</ele><time>2026-05-02T12:33:07.168Z</time></trkpt><trkpt lat="46.1408286" lon="12.071655"><ele>485.0</ele><time>2026-05-02T12:33:08.169Z</time></trkpt><trkpt lat="46.1409301" lon="12.0717335"><ele>481.75</ele><time>2026-05-02T12:33:09.167Z</time></trkpt><trkpt lat="46.141036" lon="12.0718141"><ele>478.5</ele><time>2026-05-02T12:33:10.168Z</time></trkpt><trkpt lat="46.1411453" lon="12.0718957"><ele>475.25</ele><time>2026-05-02T12:33:11.168Z</time></trkpt><trkpt lat="46.1412594" lon="12.0719825"><ele>472.0</ele><time>2026-05-02T12:33:12.169Z</time></trkpt><trkpt lat="46.1413685" lon="12.0720664"><ele>472.0</ele><time>2026-05-02T12:33:13.168Z</time></trkpt><trkpt lat="46.1414721" lon="12.0721471"><ele>472.0</ele><time>2026-05-02T12:33:14.169Z</time></trkpt><trkpt lat="46.1415813" lon="12.0722291"><ele>472.0</ele><time>2026-05-02T12:33:15.169Z</time></trkpt><trkpt lat="46.141696" lon="12.0723157"><ele>472.0</ele><time>2026-05-02T12:33:16.169Z</time></trkpt><trkpt lat="46.1418137" lon="12.0724047"><ele>468.75</ele><time>2026-05-02T12:33:17.169Z</time></trkpt><trkpt lat="46.1419259" lon="12.0724913"><ele>465.5</ele><time>2026-05-02T12:33:18.169Z</time></trkpt><trkpt lat="46.1420343" lon="12.0725753"><ele>462.25</ele><time>2026-05-02T12:33:19.169Z</time></trkpt><trkpt lat="46.1421394" lon="12.0726585"><ele>459.0</ele><time>2026-05-02T12:33:20.169Z</time></trkpt><trkpt lat="46.1422267" lon="12.0727753"><ele>459.0</ele><time>2026-05-02T12:33:21.169Z</time></trkpt><trkpt lat="46.142294" lon="12.0728962"><ele>459.0</ele><time>2026-05-02T12:33:22.168Z</time></trkpt><trkpt lat="46.1423532" lon="12.0730115"><ele>459.0</ele><time>2026-05-02T12:33:23.168Z</time></trkpt><trkpt lat="46.1424006" lon="12.0731294"><ele>459.0</ele><time>2026-05-02T12:33:24.168Z</time></trkpt><trkpt lat="46.1424307" lon="12.0732462"><ele>459.0</ele><time>2026-05-02T12:33:25.169Z</time></trkpt><trkpt lat="46.142434" lon="12.0733601"><ele>458.14285714285717</ele><time>2026-05-02T12:33:26.168Z</time></trkpt><trkpt lat="46.1424243" lon="12.0734642"><ele>457.2857142857142</ele><time>2026-05-02T12:33:27.168Z</time></trkpt><trkpt lat="46.1423676" lon="12.0735446"><ele>456.4285714285714</ele><time>2026-05-02T12:33:28.169Z</time></trkpt><trkpt lat="46.1423186" lon="12.0736303"><ele>455.57142857142856</ele><time>2026-05-02T12:33:29.168Z</time></trkpt><trkpt lat="46.1422931" lon="12.0737314"><ele>454.71428571428567</ele><time>2026-05-02T12:33:30.169Z</time></trkpt><trkpt lat="46.1422977" lon="12.0738324"><ele>453.8571428571428</ele><time>2026-05-02T12:33:31.168Z</time></trkpt><trkpt lat="46.1423302" lon="12.073925"><ele>452.99999999999994</ele><time>2026-05-02T12:33:32.168Z</time></trkpt><trkpt lat="46.142375" lon="12.0740143"><ele>451.5</ele><time>2026-05-02T12:33:33.168Z</time></trkpt><trkpt lat="46.1424045" lon="12.0741121"><ele>450.0</ele><time>2026-05-02T12:33:34.169Z</time></trkpt><trkpt lat="46.1424057" lon="12.0742196"><ele>448.5</ele><time>2026-05-02T12:33:35.169Z</time></trkpt><trkpt lat="46.1423735" lon="12.0743173"><ele>447.0</ele><time>2026-05-02T12:33:36.169Z</time></trkpt><trkpt lat="46.1423116" lon="12.0743977"><ele>445.5</ele><time>2026-05-02T12:33:37.168Z</time></trkpt><trkpt lat="46.1422337" lon="12.074476"><ele>444.0</ele><time>2026-05-02T12:33:38.169Z</time></trkpt><trkpt lat="46.1421509" lon="12.0745676"><ele>444.0</ele><time>2026-05-02T12:33:39.169Z</time></trkpt><trkpt lat="46.1420702" lon="12.0746799"><ele>444.0</ele><time>2026-05-02T12:33:40.169Z</time></trkpt><trkpt lat="46.1420004" lon="12.0747992"><ele>444.0</ele><time>2026-05-02T12:33:41.168Z</time></trkpt><trkpt lat="46.1419199" lon="12.0749041"><ele>444.0</ele><time>2026-05-02T12:33:42.169Z</time></trkpt><trkpt lat="46.1418223" lon="12.0749837"><ele>444.0</ele><time>2026-05-02T12:33:43.168Z</time></trkpt><trkpt lat="46.1417131" lon="12.0750308"><ele>441.75</ele><time>2026-05-02T12:33:44.169Z</time></trkpt><trkpt lat="46.1415994" lon="12.0750629"><ele>439.5</ele><time>2026-05-02T12:33:45.169Z</time></trkpt><trkpt lat="46.1414829" lon="12.0750935"><ele>437.25</ele><time>2026-05-02T12:33:46.168Z</time></trkpt><trkpt lat="46.1413626" lon="12.0751176"><ele>435.0</ele><time>2026-05-02T12:33:47.168Z</time></trkpt><trkpt lat="46.1412491" lon="12.0751401"><ele>434.0</ele><time>2026-05-02T12:33:48.168Z</time></trkpt><trkpt lat="46.1411406" lon="12.0751845"><ele>433.0</ele><time>2026-05-02T12:33:49.168Z</time></trkpt><trkpt lat="46.1410338" lon="12.0752515"><ele>432.0</ele><time>2026-05-02T12:33:50.168Z</time></trkpt><trkpt lat="46.1409319" lon="12.075335"><ele>431.0</ele><time>2026-05-02T12:33:51.169Z</time></trkpt><trkpt lat="46.1408371" lon="12.0754237"><ele>431.0</ele><time>2026-05-02T12:33:52.169Z</time></trkpt><trkpt lat="46.1407506" lon="12.075517"><ele>431.0</ele><time>2026-05-02T12:33:53.169Z</time></trkpt><trkpt lat="46.1406659" lon="12.075619"><ele>431.0</ele><time>2026-05-02T12:33:54.169Z</time></trkpt><trkpt lat="46.140584" lon="12.0757394"><ele>431.0</ele><time>2026-05-02T12:33:55.168Z</time></trkpt><trkpt lat="46.1405056" lon="12.075875"><ele>428.0</ele><time>2026-05-02T12:33:56.169Z</time></trkpt><trkpt lat="46.1404249" lon="12.0760174"><ele>425.0</ele><time>2026-05-02T12:33:57.168Z</time></trkpt><trkpt lat="46.1403449" lon="12.0761617"><ele>422.0</ele><time>2026-05-02T12:33:58.169Z</time></trkpt><trkpt lat="46.1402763" lon="12.0763075"><ele>419.0</ele><time>2026-05-02T12:33:59.168Z</time></trkpt><trkpt lat="46.1402318" lon="12.076467"><ele>417.0</ele><time>2026-05-02T12:34:00.168Z</time></trkpt><trkpt lat="46.1402099" lon="12.0766486"><ele>415.0</ele><time>2026-05-02T12:34:01.169Z</time></trkpt><trkpt lat="46.1402081" lon="12.0768461"><ele>413.0</ele><time>2026-05-02T12:34:02.168Z</time></trkpt><trkpt lat="46.1402244" lon="12.0770571"><ele>411.0</ele><time>2026-05-02T12:34:03.169Z</time></trkpt><trkpt lat="46.140262" lon="12.0772806"><ele>408.66666666666663</ele><time>2026-05-02T12:34:04.169Z</time></trkpt><trkpt lat="46.1403168" lon="12.0775167"><ele>406.3333333333333</ele><time>2026-05-02T12:34:05.169Z</time></trkpt><trkpt lat="46.1403744" lon="12.0777591"><ele>404.0</ele><time>2026-05-02T12:34:06.17Z</time></trkpt><trkpt lat="46.1404283" lon="12.0779951"><ele>404.0</ele><time>2026-05-02T12:34:07.169Z</time></trkpt><trkpt lat="46.140481" lon="12.0782227"><ele>404.0</ele><time>2026-05-02T12:34:08.17Z</time></trkpt><trkpt lat="46.1405336" lon="12.0784433"><ele>404.0</ele><time>2026-05-02T12:34:09.169Z</time></trkpt><trkpt lat="46.1405862" lon="12.0786624"><ele>402.0</ele><time>2026-05-02T12:34:10.17Z</time></trkpt><trkpt lat="46.1406397" lon="12.0788842"><ele>400.0</ele><time>2026-05-02T12:34:11.17Z</time></trkpt><trkpt lat="46.1406941" lon="12.0791087"><ele>398.0</ele><time>2026-05-02T12:34:12.169Z</time></trkpt><trkpt lat="46.1407497" lon="12.079335"><ele>396.0</ele><time>2026-05-02T12:34:13.17Z</time></trkpt><trkpt lat="46.1408062" lon="12.0795629"><ele>394.0</ele><time>2026-05-02T12:34:14.17Z</time></trkpt><trkpt lat="46.1408586" lon="12.0797937"><ele>392.0</ele><time>2026-05-02T12:34:15.169Z</time></trkpt><trkpt lat="46.1408957" lon="12.0800231"><ele>390.0</ele><time>2026-05-02T12:34:16.169Z</time></trkpt><trkpt lat="46.1409" lon="12.0802618"><ele>388.0</ele><time>2026-05-02T12:34:17.17Z</time></trkpt><trkpt lat="46.1408596" lon="12.080483"><ele>386.0</ele><time>2026-05-02T12:34:18.17Z</time></trkpt><trkpt lat="46.1407711" lon="12.0806669"><ele>383.0</ele><time>2026-05-02T12:34:19.169Z</time></trkpt><trkpt lat="46.1406482" lon="12.0808071"><ele>380.0</ele><time>2026-05-02T12:34:20.169Z</time></trkpt><trkpt lat="46.1405037" lon="12.080893"><ele>377.0</ele><time>2026-05-02T12:34:21.17Z</time></trkpt><trkpt lat="46.1403413" lon="12.0809206"><ele>377.0</ele><time>2026-05-02T12:34:22.169Z</time></trkpt><trkpt lat="46.1401743" lon="12.0809245"><ele>377.0</ele><time>2026-05-02T12:34:23.169Z</time></trkpt><trkpt lat="46.1400201" lon="12.0809258"><ele>377.0</ele><time>2026-05-02T12:34:24.169Z</time></trkpt><trkpt lat="46.1398923" lon="12.0809639"><ele>375.25</ele><time>2026-05-02T12:34:25.169Z</time></trkpt><trkpt lat="46.1397949" lon="12.0810681"><ele>373.5</ele><time>2026-05-02T12:34:26.169Z</time></trkpt><trkpt lat="46.1397376" lon="12.081223"><ele>371.75</ele><time>2026-05-02T12:34:27.17Z</time></trkpt><trkpt lat="46.1397364" lon="12.0813943"><ele>370.0</ele><time>2026-05-02T12:34:28.17Z</time></trkpt><trkpt lat="46.1397916" lon="12.0815628"><ele>370.66666666666663</ele><time>2026-05-02T12:34:29.17Z</time></trkpt><trkpt lat="46.139903" lon="12.0817078"><ele>371.3333333333333</ele><time>2026-05-02T12:34:30.169Z</time></trkpt><trkpt lat="46.1400601" lon="12.0818756"><ele>372.0</ele><time>2026-05-02T12:34:31.17Z</time></trkpt><trkpt lat="46.1402433" lon="12.0820404"><ele>372.0</ele><time>2026-05-02T12:34:32.17Z</time></trkpt><trkpt lat="46.1404256" lon="12.0821869"><ele>372.0</ele><time>2026-05-02T12:34:33.169Z</time></trkpt><trkpt lat="46.1405998" lon="12.0823325"><ele>372.0</ele><time>2026-05-02T12:34:34.169Z</time></trkpt><trkpt lat="46.1407707" lon="12.0824881"><ele>368.6666666666667</ele><time>2026-05-02T12:34:35.17Z</time></trkpt><trkpt lat="46.1409301" lon="12.0826213"><ele>365.33333333333337</ele><time>2026-05-02T12:34:36.169Z</time></trkpt><trkpt lat="46.1410815" lon="12.0827662"><ele>362.0</ele><time>2026-05-02T12:34:37.169Z</time></trkpt><trkpt lat="46.1412393" lon="12.0829036"><ele>362.0</ele><time>2026-05-02T12:34:38.169Z</time></trkpt><trkpt lat="46.141387" lon="12.0830368"><ele>362.0</ele><time>2026-05-02T12:34:39.169Z</time></trkpt><trkpt lat="46.1415317" lon="12.0831574"><ele>362.0</ele><time>2026-05-02T12:34:40.17Z</time></trkpt><trkpt lat="46.1416624" lon="12.0832901"><ele>359.0</ele><time>2026-05-02T12:34:41.169Z</time></trkpt><trkpt lat="46.1417955" lon="12.0834179"><ele>356.0</ele><time>2026-05-02T12:34:42.17Z</time></trkpt><trkpt lat="46.1419255" lon="12.0835475"><ele>353.0</ele><time>2026-05-02T12:34:43.17Z</time></trkpt><trkpt lat="46.1420463" lon="12.083698"><ele>353.0</ele><time>2026-05-02T12:34:44.17Z</time></trkpt><trkpt lat="46.1421473" lon="12.0838497"><ele>353.0</ele><time>2026-05-02T12:34:45.17Z</time></trkpt><trkpt lat="46.1422201" lon="12.0840047"><ele>353.0</ele><time>2026-05-02T12:34:46.17Z</time></trkpt><trkpt lat="46.1422625" lon="12.084148"><ele>353.0</ele><time>2026-05-02T12:34:47.17Z</time></trkpt><trkpt lat="46.1422919" lon="12.0842716"><ele>350.4</ele><time>2026-05-02T12:34:48.17Z</time></trkpt><trkpt lat="46.1423086" lon="12.0843683"><ele>347.79999999999995</ele><time>2026-05-02T12:34:49.17Z</time></trkpt><trkpt lat="46.1423565" lon="12.0845092"><ele>345.2</ele><time>2026-05-02T12:34:51.169Z</time></trkpt><trkpt lat="46.1424086" lon="12.0846001"><ele>342.6</ele><time>2026-05-02T12:34:52.17Z</time></trkpt><trkpt lat="46.1424784" lon="12.0846927"><ele>340.0</ele><time>2026-05-02T12:34:53.171Z</time></trkpt><trkpt lat="46.1425601" lon="12.0847987"><ele>340.0</ele><time>2026-05-02T12:34:54.17Z</time></trkpt><trkpt lat="46.1426617" lon="12.084915"><ele>340.0</ele><time>2026-05-02T12:34:55.169Z</time></trkpt><trkpt lat="46.1427624" lon="12.0850434"><ele>340.0</ele><time>2026-05-02T12:34:56.169Z</time></trkpt><trkpt lat="46.1428658" lon="12.0851724"><ele>340.0</ele><time>2026-05-02T12:34:57.169Z</time></trkpt><trkpt lat="46.1429459" lon="12.0852755"><ele>339.5</ele><time>2026-05-02T12:34:58.169Z</time></trkpt><trkpt lat="46.1430017" lon="12.0853988"><ele>339.0</ele><time>2026-05-02T12:34:59.17Z</time></trkpt><trkpt lat="46.1430345" lon="12.0855443"><ele>338.5</ele><time>2026-05-02T12:35:00.17Z</time></trkpt><trkpt lat="46.1430502" lon="12.0857136"><ele>338.0</ele><time>2026-05-02T12:35:01.169Z</time></trkpt><trkpt lat="46.1430581" lon="12.0859005"><ele>337.75</ele><time>2026-05-02T12:35:02.169Z</time></trkpt><trkpt lat="46.1430529" lon="12.0860841"><ele>337.5</ele><time>2026-05-02T12:35:03.169Z</time></trkpt><trkpt lat="46.1430351" lon="12.086262"><ele>337.25</ele><time>2026-05-02T12:35:04.17Z</time></trkpt><trkpt lat="46.1430164" lon="12.0864293"><ele>337.0</ele><time>2026-05-02T12:35:05.169Z</time></trkpt><trkpt lat="46.1430002" lon="12.0865741"><ele>337.20000000000005</ele><time>2026-05-02T12:35:06.17Z</time></trkpt><trkpt lat="46.1429766" lon="12.0867082"><ele>337.4</ele><time>2026-05-02T12:35:07.17Z</time></trkpt><trkpt lat="46.1429466" lon="12.0868277"><ele>337.6</ele><time>2026-05-02T12:35:08.17Z</time></trkpt><trkpt lat="46.1428853" lon="12.0869254"><ele>337.79999999999995</ele><time>2026-05-02T12:35:09.171Z</time></trkpt><trkpt lat="46.1427939" lon="12.0870055"><ele>338.0</ele><time>2026-05-02T12:35:10.17Z</time></trkpt><trkpt lat="46.1426819" lon="12.0870648"><ele>338.0</ele><time>2026-05-02T12:35:11.17Z</time></trkpt><trkpt lat="46.1425523" lon="12.0871227"><ele>338.0</ele><time>2026-05-02T12:35:12.171Z</time></trkpt><trkpt lat="46.1424113" lon="12.0871759"><ele>338.0</ele><time>2026-05-02T12:35:13.17Z</time></trkpt><trkpt lat="46.1422662" lon="12.0872416"><ele>338.0</ele><time>2026-05-02T12:35:14.17Z</time></trkpt><trkpt lat="46.1421221" lon="12.0873227"><ele>337.6666666666667</ele><time>2026-05-02T12:35:15.17Z</time></trkpt><trkpt lat="46.1419818" lon="12.0874382"><ele>337.3333333333333</ele><time>2026-05-02T12:35:16.17Z</time></trkpt><trkpt lat="46.1418537" lon="12.0875837"><ele>337.0</ele><time>2026-05-02T12:35:17.171Z</time></trkpt><trkpt lat="46.1417393" lon="12.0877588"><ele>337.0</ele><time>2026-05-02T12:35:18.171Z</time></trkpt><trkpt lat="46.1416448" lon="12.0879556"><ele>337.0</ele><time>2026-05-02T12:35:19.17Z</time></trkpt><trkpt lat="46.141571" lon="12.0881622"><ele>337.0</ele><time>2026-05-02T12:35:20.171Z</time></trkpt><trkpt lat="46.1415072" lon="12.0883587"><ele>337.0</ele><time>2026-05-02T12:35:21.17Z</time></trkpt><trkpt lat="46.1414679" lon="12.0885453"><ele>337.0</ele><time>2026-05-02T12:35:22.17Z</time></trkpt><trkpt lat="46.1414356" lon="12.0887311"><ele>337.0</ele><time>2026-05-02T12:35:23.17Z</time></trkpt><trkpt lat="46.1414178" lon="12.0889236"><ele>337.0</ele><time>2026-05-02T12:35:24.17Z</time></trkpt><trkpt lat="46.1414163" lon="12.0891219"><ele>338.0</ele><time>2026-05-02T12:35:25.171Z</time></trkpt><trkpt lat="46.141425" lon="12.0893232"><ele>339.0</ele><time>2026-05-02T12:35:26.17Z</time></trkpt><trkpt lat="46.1414438" lon="12.089527"><ele>340.0</ele><time>2026-05-02T12:35:27.17Z</time></trkpt><trkpt lat="46.1414641" lon="12.0897292"><ele>341.0</ele><time>2026-05-02T12:35:28.17Z</time></trkpt><trkpt lat="46.1414752" lon="12.0899412"><ele>341.6666666666667</ele><time>2026-05-02T12:35:29.171Z</time></trkpt><trkpt lat="46.1414772" lon="12.090159"><ele>342.3333333333333</ele><time>2026-05-02T12:35:30.17Z</time></trkpt><trkpt lat="46.1414721" lon="12.0903814"><ele>343.0</ele><time>2026-05-02T12:35:31.171Z</time></trkpt><trkpt lat="46.1414657" lon="12.0906065"><ele>342.3333333333333</ele><time>2026-05-02T12:35:32.171Z</time></trkpt><trkpt lat="46.1414633" lon="12.0908341"><ele>341.6666666666667</ele><time>2026-05-02T12:35:33.171Z</time></trkpt><trkpt lat="46.1414663" lon="12.0910641"><ele>341.0</ele><time>2026-05-02T12:35:34.17Z</time></trkpt><trkpt lat="46.1414703" lon="12.0912929"><ele>341.0</ele><time>2026-05-02T12:35:35.17Z</time></trkpt><trkpt lat="46.1414752" lon="12.0915158"><ele>341.0</ele><time>2026-05-02T12:35:36.17Z</time></trkpt><trkpt lat="46.1414805" lon="12.0917221"><ele>341.0</ele><time>2026-05-02T12:35:37.171Z</time></trkpt><trkpt lat="46.141486" lon="12.0919103"><ele>341.0</ele><time>2026-05-02T12:35:38.171Z</time></trkpt><trkpt lat="46.1414854" lon="12.092082"><ele>340.25</ele><time>2026-05-02T12:35:39.171Z</time></trkpt><trkpt lat="46.1414621" lon="12.0922425"><ele>339.5</ele><time>2026-05-02T12:35:40.171Z</time></trkpt><trkpt lat="46.1414068" lon="12.0923841"><ele>338.75</ele><time>2026-05-02T12:35:41.171Z</time></trkpt><trkpt lat="46.1413522" lon="12.0925255"><ele>338.0</ele><time>2026-05-02T12:35:42.171Z</time></trkpt><trkpt lat="46.141334" lon="12.0926856"><ele>338.0</ele><time>2026-05-02T12:35:43.171Z</time></trkpt><trkpt lat="46.1413665" lon="12.0928439"><ele>338.0</ele><time>2026-05-02T12:35:44.171Z</time></trkpt><trkpt lat="46.1414396" lon="12.0929906"><ele>338.0</ele><time>2026-05-02T12:35:45.171Z</time></trkpt><trkpt lat="46.1415069" lon="12.0931594"><ele>338.0</ele><time>2026-05-02T12:35:46.17Z</time></trkpt><trkpt lat="46.141541" lon="12.0933652"><ele>338.33333333333337</ele><time>2026-05-02T12:35:47.171Z</time></trkpt><trkpt lat="46.1415602" lon="12.0935904"><ele>338.6666666666667</ele><time>2026-05-02T12:35:48.17Z</time></trkpt><trkpt lat="46.1415834" lon="12.0938267"><ele>339.0</ele><time>2026-05-02T12:35:49.17Z</time></trkpt><trkpt lat="46.1416064" lon="12.0940692"><ele>339.3333333333333</ele><time>2026-05-02T12:35:50.17Z</time></trkpt><trkpt lat="46.1416268" lon="12.0943216"><ele>339.66666666666663</ele><time>2026-05-02T12:35:51.17Z</time></trkpt><trkpt lat="46.1416505" lon="12.0945779"><ele>340.0</ele><time>2026-05-02T12:35:52.171Z</time></trkpt><trkpt lat="46.141674" lon="12.0948156"><ele>340.3333333333333</ele><time>2026-05-02T12:35:53.17Z</time></trkpt><trkpt lat="46.1416954" lon="12.0950321"><ele>340.6666666666667</ele><time>2026-05-02T12:35:54.171Z</time></trkpt><trkpt lat="46.1417198" lon="12.0952427"><ele>341.0</ele><time>2026-05-02T12:35:55.17Z</time></trkpt><trkpt lat="46.1417458" lon="12.0954581"><ele>341.0</ele><time>2026-05-02T12:35:56.17Z</time></trkpt><trkpt lat="46.1417694" lon="12.0956724"><ele>341.0</ele><time>2026-05-02T12:35:57.171Z</time></trkpt><trkpt lat="46.1417934" lon="12.0958861"><ele>341.0</ele><time>2026-05-02T12:35:58.171Z</time></trkpt><trkpt lat="46.1418192" lon="12.0960971"><ele>341.0</ele><time>2026-05-02T12:35:59.171Z</time></trkpt><trkpt lat="46.1418452" lon="12.096302"><ele>341.75</ele><time>2026-05-02T12:36:00.17Z</time></trkpt><trkpt lat="46.1418704" lon="12.096501"><ele>342.5</ele><time>2026-05-02T12:36:01.171Z</time></trkpt><trkpt lat="46.1418981" lon="12.096693"><ele>343.25</ele><time>2026-05-02T12:36:02.171Z</time></trkpt><trkpt lat="46.1419257" lon="12.0968729"><ele>344.0</ele><time>2026-05-02T12:36:03.171Z</time></trkpt><trkpt lat="46.1419512" lon="12.0970385"><ele>344.0</ele><time>2026-05-02T12:36:04.171Z</time></trkpt><trkpt lat="46.1419751" lon="12.0971971"><ele>344.0</ele><time>2026-05-02T12:36:05.17Z</time></trkpt><trkpt lat="46.1419989" lon="12.0973541"><ele>344.0</ele><time>2026-05-02T12:36:06.172Z</time></trkpt><trkpt lat="46.1420279" lon="12.0975111"><ele>344.0</ele><time>2026-05-02T12:36:07.171Z</time></trkpt><trkpt lat="46.1420619" lon="12.0976683"><ele>344.25</ele><time>2026-05-02T12:36:08.172Z</time></trkpt><trkpt lat="46.1420966" lon="12.097827"><ele>344.5</ele><time>2026-05-02T12:36:09.172Z</time></trkpt><trkpt lat="46.1421303" lon="12.0979872"><ele>344.75</ele><time>2026-05-02T12:36:10.172Z</time></trkpt><trkpt lat="46.142166" lon="12.0981504"><ele>345.0</ele><time>2026-05-02T12:36:11.171Z</time></trkpt><trkpt lat="46.1422088" lon="12.0983261"><ele>344.3333333333333</ele><time>2026-05-02T12:36:12.172Z</time></trkpt><trkpt lat="46.1422584" lon="12.098517"><ele>343.66666666666663</ele><time>2026-05-02T12:36:13.172Z</time></trkpt><trkpt lat="46.1423138" lon="12.0987243"><ele>343.0</ele><time>2026-05-02T12:36:14.172Z</time></trkpt><trkpt lat="46.1423743" lon="12.0989447"><ele>344.66666666666663</ele><time>2026-05-02T12:36:15.171Z</time></trkpt><trkpt lat="46.1424401" lon="12.0991758"><ele>346.3333333333333</ele><time>2026-05-02T12:36:16.172Z</time></trkpt><trkpt lat="46.1425125" lon="12.0994132"><ele>348.0</ele><time>2026-05-02T12:36:17.171Z</time></trkpt><trkpt lat="46.1425921" lon="12.0996556"><ele>348.0</ele><time>2026-05-02T12:36:18.171Z</time></trkpt><trkpt lat="46.14268" lon="12.0999086"><ele>348.0</ele><time>2026-05-02T12:36:19.171Z</time></trkpt><trkpt lat="46.1427751" lon="12.1001711"><ele>348.0</ele><time>2026-05-02T12:36:20.171Z</time></trkpt><trkpt lat="46.1428785" lon="12.1004419"><ele>348.5</ele><time>2026-05-02T12:36:21.171Z</time></trkpt><trkpt lat="46.1429905" lon="12.1007191"><ele>349.0</ele><time>2026-05-02T12:36:22.171Z</time></trkpt><trkpt lat="46.1431091" lon="12.1009997"><ele>351.0</ele><time>2026-05-02T12:36:23.172Z</time></trkpt><trkpt lat="46.143234" lon="12.1012803"><ele>353.0</ele><time>2026-05-02T12:36:24.171Z</time></trkpt><trkpt lat="46.1433656" lon="12.1015593"><ele>354.0</ele><time>2026-05-02T12:36:25.171Z</time></trkpt><trkpt lat="46.1435034" lon="12.1018354"><ele>355.0</ele><time>2026-05-02T12:36:26.171Z</time></trkpt><trkpt lat="46.1436462" lon="12.1020971"><ele>355.0</ele><time>2026-05-02T12:36:27.171Z</time></trkpt><trkpt lat="46.1437927" lon="12.1023558"><ele>355.0</ele><time>2026-05-02T12:36:28.171Z</time></trkpt><trkpt lat="46.1439433" lon="12.1026143"><ele>354.5</ele><time>2026-05-02T12:36:29.172Z</time></trkpt><trkpt lat="46.1440912" lon="12.1028678"><ele>354.0</ele><time>2026-05-02T12:36:30.172Z</time></trkpt><trkpt lat="46.1442355" lon="12.1031159"><ele>354.6666666666667</ele><time>2026-05-02T12:36:31.172Z</time></trkpt><trkpt lat="46.1443795" lon="12.103355"><ele>355.33333333333337</ele><time>2026-05-02T12:36:32.172Z</time></trkpt><trkpt lat="46.1445212" lon="12.1035875"><ele>356.0</ele><time>2026-05-02T12:36:33.171Z</time></trkpt><trkpt lat="46.1446509" lon="12.103812"><ele>356.0</ele><time>2026-05-02T12:36:34.171Z</time></trkpt><trkpt lat="46.1447778" lon="12.1040326"><ele>356.0</ele><time>2026-05-02T12:36:35.171Z</time></trkpt><trkpt lat="46.1449019" lon="12.1042505"><ele>356.0</ele><time>2026-05-02T12:36:36.172Z</time></trkpt><trkpt lat="46.1450247" lon="12.104457"><ele>356.0</ele><time>2026-05-02T12:36:37.172Z</time></trkpt><trkpt lat="46.1451407" lon="12.104654"><ele>356.0</ele><time>2026-05-02T12:36:38.171Z</time></trkpt><trkpt lat="46.1452535" lon="12.1048432"><ele>356.0</ele><time>2026-05-02T12:36:39.171Z</time></trkpt><trkpt lat="46.1453708" lon="12.1050328"><ele>357.33333333333337</ele><time>2026-05-02T12:36:40.171Z</time></trkpt><trkpt lat="46.1454973" lon="12.1052125"><ele>358.6666666666667</ele><time>2026-05-02T12:36:41.172Z</time></trkpt><trkpt lat="46.1456324" lon="12.1053915"><ele>360.0</ele><time>2026-05-02T12:36:42.172Z</time></trkpt><trkpt lat="46.145773" lon="12.1055695"><ele>360.0</ele><time>2026-05-02T12:36:43.171Z</time></trkpt><trkpt lat="46.1459162" lon="12.1057354"><ele>360.0</ele><time>2026-05-02T12:36:44.171Z</time></trkpt><trkpt lat="46.1460467" lon="12.1058906"><ele>360.0</ele><time>2026-05-02T12:36:45.171Z</time></trkpt><trkpt lat="46.1461787" lon="12.1060517"><ele>360.0</ele><time>2026-05-02T12:36:46.171Z</time></trkpt><trkpt lat="46.1463118" lon="12.1062116"><ele>360.0</ele><time>2026-05-02T12:36:47.173Z</time></trkpt><trkpt lat="46.1464535" lon="12.1063748"><ele>360.0</ele><time>2026-05-02T12:36:48.171Z</time></trkpt><trkpt lat="46.1466008" lon="12.1065387"><ele>359.6666666666667</ele><time>2026-05-02T12:36:49.173Z</time></trkpt><trkpt lat="46.1467475" lon="12.1067186"><ele>359.33333333333337</ele><time>2026-05-02T12:36:50.171Z</time></trkpt><trkpt lat="46.146902" lon="12.106899"><ele>359.0</ele><time>2026-05-02T12:36:51.171Z</time></trkpt><trkpt lat="46.1470573" lon="12.1070802"><ele>359.0</ele><time>2026-05-02T12:36:52.172Z</time></trkpt><trkpt lat="46.1472199" lon="12.1072626"><ele>359.0</ele><time>2026-05-02T12:36:53.171Z</time></trkpt><trkpt lat="46.1473797" lon="12.1074523"><ele>359.0</ele><time>2026-05-02T12:36:54.171Z</time></trkpt><trkpt lat="46.1475394" lon="12.107644"><ele>359.6666666666667</ele><time>2026-05-02T12:36:55.171Z</time></trkpt><trkpt lat="46.1476948" lon="12.1078386"><ele>360.3333333333333</ele><time>2026-05-02T12:36:56.172Z</time></trkpt><trkpt lat="46.1478536" lon="12.1080247"><ele>361.0</ele><time>2026-05-02T12:36:57.172Z</time></trkpt><trkpt lat="46.1480103" lon="12.1082079"><ele>361.66666666666663</ele><time>2026-05-02T12:36:58.171Z</time></trkpt><trkpt lat="46.1481694" lon="12.108396"><ele>362.3333333333333</ele><time>2026-05-02T12:36:59.172Z</time></trkpt><trkpt lat="46.1483272" lon="12.1085832"><ele>363.0</ele><time>2026-05-02T12:37:00.172Z</time></trkpt><trkpt lat="46.1484877" lon="12.1087707"><ele>364.6666666666667</ele><time>2026-05-02T12:37:01.171Z</time></trkpt><trkpt lat="46.1486442" lon="12.1089577"><ele>366.33333333333337</ele><time>2026-05-02T12:37:02.171Z</time></trkpt><trkpt lat="46.1488034" lon="12.1091462"><ele>368.0</ele><time>2026-05-02T12:37:03.173Z</time></trkpt><trkpt lat="46.1489658" lon="12.1093383"><ele>369.0</ele><time>2026-05-02T12:37:04.172Z</time></trkpt><trkpt lat="46.1491208" lon="12.1095304"><ele>370.0</ele><time>2026-05-02T12:37:05.172Z</time></trkpt><trkpt lat="46.1492738" lon="12.1097334"><ele>371.0</ele><time>2026-05-02T12:37:06.172Z</time></trkpt><trkpt lat="46.1494167" lon="12.1099493"><ele>371.0</ele><time>2026-05-02T12:37:07.173Z</time></trkpt><trkpt lat="46.1495522" lon="12.1101774"><ele>371.0</ele><time>2026-05-02T12:37:08.172Z</time></trkpt><trkpt lat="46.1496792" lon="12.1104236"><ele>371.0</ele><time>2026-05-02T12:37:09.172Z</time></trkpt><trkpt lat="46.1497936" lon="12.1106763"><ele>377.0</ele><time>2026-05-02T12:37:10.172Z</time></trkpt><trkpt lat="46.1498937" lon="12.1109521"><ele>383.0</ele><time>2026-05-02T12:37:11.173Z</time></trkpt><trkpt lat="46.1499864" lon="12.1112296"><ele>389.0</ele><time>2026-05-02T12:37:12.172Z</time></trkpt><trkpt lat="46.150082" lon="12.1115048"><ele>386.0</ele><time>2026-05-02T12:37:13.172Z</time></trkpt><trkpt lat="46.1501792" lon="12.1117777"><ele>383.0</ele><time>2026-05-02T12:37:14.172Z</time></trkpt><trkpt lat="46.1502805" lon="12.1120489"><ele>380.0</ele><time>2026-05-02T12:37:15.173Z</time></trkpt><trkpt lat="46.1503777" lon="12.1123196"><ele>378.0</ele><time>2026-05-02T12:37:16.172Z</time></trkpt><trkpt lat="46.1504687" lon="12.1125877"><ele>376.0</ele><time>2026-05-02T12:37:17.173Z</time></trkpt><trkpt lat="46.15056" lon="12.1128557"><ele>374.0</ele><time>2026-05-02T12:37:18.173Z</time></trkpt><trkpt lat="46.1506505" lon="12.1131151"><ele>381.33333333333337</ele><time>2026-05-02T12:37:19.173Z</time></trkpt><trkpt lat="46.1507403" lon="12.113369"><ele>388.6666666666667</ele><time>2026-05-02T12:37:20.172Z</time></trkpt><trkpt lat="46.150824" lon="12.1136219"><ele>396.0</ele><time>2026-05-02T12:37:21.172Z</time></trkpt><trkpt lat="46.1509077" lon="12.113874"><ele>394.66666666666663</ele><time>2026-05-02T12:37:22.173Z</time></trkpt><trkpt lat="46.1509852" lon="12.1141362"><ele>393.3333333333333</ele><time>2026-05-02T12:37:23.172Z</time></trkpt><trkpt lat="46.1510496" lon="12.1143977"><ele>392.0</ele><time>2026-05-02T12:37:24.173Z</time></trkpt><trkpt lat="46.1510962" lon="12.1146623"><ele>391.0</ele><time>2026-05-02T12:37:25.173Z</time></trkpt><trkpt lat="46.1511391" lon="12.1149289"><ele>390.0</ele><time>2026-05-02T12:37:26.173Z</time></trkpt><trkpt lat="46.1511647" lon="12.1151802"><ele>389.0</ele><time>2026-05-02T12:37:27.172Z</time></trkpt><trkpt lat="46.1511968" lon="12.115412"><ele>389.0</ele><time>2026-05-02T12:37:28.172Z</time></trkpt><trkpt lat="46.1512327" lon="12.1156313"><ele>389.0</ele><time>2026-05-02T12:37:29.172Z</time></trkpt><trkpt lat="46.1512769" lon="12.1158527"><ele>389.0</ele><time>2026-05-02T12:37:30.173Z</time></trkpt><trkpt lat="46.1513407" lon="12.1160595"><ele>390.66666666666663</ele><time>2026-05-02T12:37:31.173Z</time></trkpt><trkpt lat="46.1514096" lon="12.116261"><ele>392.33333333333337</ele><time>2026-05-02T12:37:32.173Z</time></trkpt><trkpt lat="46.1515061" lon="12.116451"><ele>394.0</ele><time>2026-05-02T12:37:33.172Z</time></trkpt><trkpt lat="46.1516038" lon="12.1166322"><ele>396.6666666666667</ele><time>2026-05-02T12:37:34.172Z</time></trkpt><trkpt lat="46.1516918" lon="12.1168219"><ele>399.33333333333337</ele><time>2026-05-02T12:37:35.173Z</time></trkpt><trkpt lat="46.1517767" lon="12.1170128"><ele>402.0</ele><time>2026-05-02T12:37:36.172Z</time></trkpt><trkpt lat="46.151861" lon="12.1171963"><ele>402.0</ele><time>2026-05-02T12:37:37.172Z</time></trkpt><trkpt lat="46.1519373" lon="12.117389"><ele>402.0</ele><time>2026-05-02T12:37:38.172Z</time></trkpt><trkpt lat="46.1519964" lon="12.1175958"><ele>402.0</ele><time>2026-05-02T12:37:39.172Z</time></trkpt><trkpt lat="46.1520275" lon="12.1178153"><ele>401.0</ele><time>2026-05-02T12:37:40.172Z</time></trkpt><trkpt lat="46.1520677" lon="12.1180342"><ele>400.0</ele><time>2026-05-02T12:37:41.172Z</time></trkpt><trkpt lat="46.1521178" lon="12.1182452"><ele>399.0</ele><time>2026-05-02T12:37:42.172Z</time></trkpt><trkpt lat="46.1521747" lon="12.1184366"><ele>399.2</ele><time>2026-05-02T12:37:43.172Z</time></trkpt><trkpt lat="46.1522329" lon="12.1186041"><ele>399.4</ele><time>2026-05-02T12:37:44.173Z</time></trkpt><trkpt lat="46.1522955" lon="12.1187494"><ele>399.6</ele><time>2026-05-02T12:37:45.172Z</time></trkpt><trkpt lat="46.1523471" lon="12.1188734"><ele>399.8</ele><time>2026-05-02T12:37:46.172Z</time></trkpt><trkpt lat="46.152394" lon="12.119002"><ele>400.0</ele><time>2026-05-02T12:37:47.173Z</time></trkpt><trkpt lat="46.1524381" lon="12.1191689"><ele>400.0</ele><time>2026-05-02T12:37:48.173Z</time></trkpt><trkpt lat="46.1524828" lon="12.1193767"><ele>400.0</ele><time>2026-05-02T12:37:49.172Z</time></trkpt><trkpt lat="46.1525226" lon="12.1196091"><ele>400.0</ele><time>2026-05-02T12:37:50.172Z</time></trkpt><trkpt lat="46.1525481" lon="12.119865"><ele>399.0</ele><time>2026-05-02T12:37:51.172Z</time></trkpt><trkpt lat="46.1525813" lon="12.1201344"><ele>398.0</ele><time>2026-05-02T12:37:52.173Z</time></trkpt><trkpt lat="46.1526309" lon="12.1203982"><ele>397.0</ele><time>2026-05-02T12:37:53.173Z</time></trkpt><trkpt lat="46.1526813" lon="12.120651"><ele>396.33333333333337</ele><time>2026-05-02T12:37:54.172Z</time></trkpt><trkpt lat="46.1527112" lon="12.1209041"><ele>395.66666666666663</ele><time>2026-05-02T12:37:55.173Z</time></trkpt><trkpt lat="46.1527144" lon="12.1211551"><ele>395.0</ele><time>2026-05-02T12:37:56.172Z</time></trkpt><trkpt lat="46.1526909" lon="12.1213976"><ele>393.3333333333333</ele><time>2026-05-02T12:37:57.173Z</time></trkpt><trkpt lat="46.1526577" lon="12.1216381"><ele>391.66666666666663</ele><time>2026-05-02T12:37:58.172Z</time></trkpt><trkpt lat="46.1526211" lon="12.1218787"><ele>390.0</ele><time>2026-05-02T12:37:59.173Z</time></trkpt><trkpt lat="46.1525869" lon="12.1221065"><ele>390.0</ele><time>2026-05-02T12:38:00.172Z</time></trkpt><trkpt lat="46.1525599" lon="12.1223241"><ele>390.0</ele><time>2026-05-02T12:38:01.173Z</time></trkpt><trkpt lat="46.1525489" lon="12.1225357"><ele>390.0</ele><time>2026-05-02T12:38:02.173Z</time></trkpt><trkpt lat="46.1525791" lon="12.1227281"><ele>390.0</ele><time>2026-05-02T12:38:03.173Z</time></trkpt><trkpt lat="46.1526454" lon="12.1229146"><ele>388.33333333333337</ele><time>2026-05-02T12:38:04.173Z</time></trkpt><trkpt lat="46.1527354" lon="12.1230842"><ele>386.6666666666667</ele><time>2026-05-02T12:38:05.174Z</time></trkpt><trkpt lat="46.1528404" lon="12.1232578"><ele>385.0</ele><time>2026-05-02T12:38:06.174Z</time></trkpt><trkpt lat="46.1529581" lon="12.1234197"><ele>385.0</ele><time>2026-05-02T12:38:07.173Z</time></trkpt><trkpt lat="46.1530885" lon="12.1235795"><ele>385.0</ele><time>2026-05-02T12:38:08.173Z</time></trkpt><trkpt lat="46.1532212" lon="12.1237339"><ele>385.0</ele><time>2026-05-02T12:38:09.174Z</time></trkpt><trkpt lat="46.1533379" lon="12.1238893"><ele>385.0</ele><time>2026-05-02T12:38:10.174Z</time></trkpt><trkpt lat="46.1534535" lon="12.124028"><ele>385.0</ele><time>2026-05-02T12:38:11.173Z</time></trkpt><trkpt lat="46.1535616" lon="12.1241616"><ele>385.0</ele><time>2026-05-02T12:38:12.174Z</time></trkpt><trkpt lat="46.1536627" lon="12.1242707"><ele>385.0</ele><time>2026-05-02T12:38:13.174Z</time></trkpt><trkpt lat="46.1537798" lon="12.124347"><ele>384.6</ele><time>2026-05-02T12:38:14.173Z</time></trkpt><trkpt lat="46.1538963" lon="12.1243918"><ele>384.2</ele><time>2026-05-02T12:38:15.174Z</time></trkpt><trkpt lat="46.1540063" lon="12.1244292"><ele>383.79999999999995</ele><time>2026-05-02T12:38:16.174Z</time></trkpt><trkpt lat="46.1541087" lon="12.1244806"><ele>383.4</ele><time>2026-05-02T12:38:17.174Z</time></trkpt><trkpt lat="46.1541957" lon="12.1245619"><ele>383.0</ele><time>2026-05-02T12:38:18.174Z</time></trkpt><trkpt lat="46.1542561" lon="12.1246703"><ele>383.0</ele><time>2026-05-02T12:38:19.174Z</time></trkpt><trkpt lat="46.1542833" lon="12.1248088"><ele>383.0</ele><time>2026-05-02T12:38:20.173Z</time></trkpt><trkpt lat="46.1542825" lon="12.1249572"><ele>383.0</ele><time>2026-05-02T12:38:21.173Z</time></trkpt><trkpt lat="46.1542707" lon="12.1251064"><ele>383.0</ele><time>2026-05-02T12:38:22.174Z</time></trkpt><trkpt lat="46.1542585" lon="12.1252371"><ele>383.0</ele><time>2026-05-02T12:38:23.174Z</time></trkpt><trkpt lat="46.1542426" lon="12.1253495"><ele>381.4</ele><time>2026-05-02T12:38:24.173Z</time></trkpt><trkpt lat="46.1542235" lon="12.1254485"><ele>379.79999999999995</ele><time>2026-05-02T12:38:25.174Z</time></trkpt><trkpt lat="46.1541842" lon="12.1255695"><ele>378.2</ele><time>2026-05-02T12:38:27.174Z</time></trkpt><trkpt lat="46.1540953" lon="12.1256909"><ele>376.6</ele><time>2026-05-02T12:38:34.174Z</time></trkpt><trkpt lat="46.1540168" lon="12.1257585"><ele>375.0</ele><time>2026-05-02T12:38:35.173Z</time></trkpt><trkpt lat="46.1539253" lon="12.1258265"><ele>375.0</ele><time>2026-05-02T12:38:36.174Z</time></trkpt><trkpt lat="46.1538172" lon="12.1259071"><ele>375.0</ele><time>2026-05-02T12:38:37.174Z</time></trkpt><trkpt lat="46.1536939" lon="12.1260061"><ele>375.0</ele><time>2026-05-02T12:38:38.174Z</time></trkpt><trkpt lat="46.1535638" lon="12.126108"><ele>375.0</ele><time>2026-05-02T12:38:39.173Z</time></trkpt><trkpt lat="46.1534232" lon="12.126216"><ele>375.0</ele><time>2026-05-02T12:38:40.173Z</time></trkpt><trkpt lat="46.1532816" lon="12.126329"><ele>375.0</ele><time>2026-05-02T12:38:41.174Z</time></trkpt><trkpt lat="46.1531233" lon="12.1264536"><ele>375.0</ele><time>2026-05-02T12:38:42.174Z</time></trkpt><trkpt lat="46.152972" lon="12.1265785"><ele>375.3333333333333</ele><time>2026-05-02T12:38:43.174Z</time></trkpt><trkpt lat="46.1528121" lon="12.1266968"><ele>375.66666666666663</ele><time>2026-05-02T12:38:44.173Z</time></trkpt><trkpt lat="46.1526543" lon="12.1268173"><ele>376.0</ele><time>2026-05-02T12:38:45.174Z</time></trkpt><trkpt lat="46.1525011" lon="12.1269377"><ele>375.3333333333333</ele><time>2026-05-02T12:38:46.173Z</time></trkpt><trkpt lat="46.1523585" lon="12.1270466"><ele>374.6666666666667</ele><time>2026-05-02T12:38:47.174Z</time></trkpt><trkpt lat="46.1522256" lon="12.1271494"><ele>374.0</ele><time>2026-05-02T12:38:48.174Z</time></trkpt><trkpt lat="46.1521044" lon="12.127246"><ele>374.0</ele><time>2026-05-02T12:38:49.174Z</time></trkpt><trkpt lat="46.1519931" lon="12.127337"><ele>374.0</ele><time>2026-05-02T12:38:50.174Z</time></trkpt><trkpt lat="46.1518896" lon="12.1274221"><ele>374.0</ele><time>2026-05-02T12:38:51.174Z</time></trkpt><trkpt lat="46.1518011" lon="12.1275011"><ele>374.0</ele><time>2026-05-02T12:38:52.174Z</time></trkpt><trkpt lat="46.1517027" lon="12.1275683"><ele>374.0</ele><time>2026-05-02T12:38:53.173Z</time></trkpt><trkpt lat="46.1516027" lon="12.1276438"><ele>374.0</ele><time>2026-05-02T12:38:54.173Z</time></trkpt><trkpt lat="46.1514918" lon="12.1277232"><ele>374.0</ele><time>2026-05-02T12:38:55.173Z</time></trkpt><trkpt lat="46.1513805" lon="12.1278145"><ele>374.0</ele><time>2026-05-02T12:38:56.173Z</time></trkpt><trkpt lat="46.1512579" lon="12.127913"><ele>374.0</ele><time>2026-05-02T12:38:57.174Z</time></trkpt><trkpt lat="46.1511295" lon="12.1280143"><ele>374.0</ele><time>2026-05-02T12:38:58.174Z</time></trkpt><trkpt lat="46.1510021" lon="12.1281171"><ele>374.0</ele><time>2026-05-02T12:38:59.173Z</time></trkpt><trkpt lat="46.1508622" lon="12.1282309"><ele>374.33333333333337</ele><time>2026-05-02T12:39:00.174Z</time></trkpt><trkpt lat="46.1507137" lon="12.1283327"><ele>374.6666666666667</ele><time>2026-05-02T12:39:01.175Z</time></trkpt><trkpt lat="46.1505584" lon="12.1284307"><ele>375.0</ele><time>2026-05-02T12:39:02.174Z</time></trkpt><trkpt lat="46.1503963" lon="12.1285258"><ele>374.3333333333333</ele><time>2026-05-02T12:39:03.174Z</time></trkpt><trkpt lat="46.1502262" lon="12.1286132"><ele>373.66666666666663</ele><time>2026-05-02T12:39:04.175Z</time></trkpt><trkpt lat="46.1500518" lon="12.1286971"><ele>373.0</ele><time>2026-05-02T12:39:05.174Z</time></trkpt><trkpt lat="46.1498768" lon="12.1287824"><ele>373.0</ele><time>2026-05-02T12:39:06.174Z</time></trkpt><trkpt lat="46.1497079" lon="12.1288605"><ele>373.0</ele><time>2026-05-02T12:39:07.174Z</time></trkpt><trkpt lat="46.1495471" lon="12.1289335"><ele>373.0</ele><time>2026-05-02T12:39:08.175Z</time></trkpt><trkpt lat="46.1493994" lon="12.1290035"><ele>372.75</ele><time>2026-05-02T12:39:09.175Z</time></trkpt><trkpt lat="46.1492598" lon="12.1290651"><ele>372.5</ele><time>2026-05-02T12:39:10.175Z</time></trkpt><trkpt lat="46.1491224" lon="12.1291313"><ele>372.25</ele><time>2026-05-02T12:39:11.174Z</time></trkpt><trkpt lat="46.1489786" lon="12.1292"><ele>372.0</ele><time>2026-05-02T12:39:12.174Z</time></trkpt><trkpt lat="46.1488376" lon="12.1292676"><ele>372.0</ele><time>2026-05-02T12:39:13.175Z</time></trkpt><trkpt lat="46.1486992" lon="12.1293368"><ele>372.0</ele><time>2026-05-02T12:39:14.175Z</time></trkpt><trkpt lat="46.1485591" lon="12.1294004"><ele>372.0</ele><time>2026-05-02T12:39:15.174Z</time></trkpt><trkpt lat="46.1484249" lon="12.1294611"><ele>372.0</ele><time>2026-05-02T12:39:16.175Z</time></trkpt><trkpt lat="46.1482942" lon="12.129521"><ele>372.5</ele><time>2026-05-02T12:39:17.174Z</time></trkpt><trkpt lat="46.148165" lon="12.1295806"><ele>373.0</ele><time>2026-05-02T12:39:18.175Z</time></trkpt><trkpt lat="46.1480415" lon="12.129647"><ele>373.5</ele><time>2026-05-02T12:39:19.175Z</time></trkpt><trkpt lat="46.1479246" lon="12.129696"><ele>374.0</ele><time>2026-05-02T12:39:20.174Z</time></trkpt><trkpt lat="46.1478179" lon="12.1297461"><ele>374.0</ele><time>2026-05-02T12:39:21.174Z</time></trkpt><trkpt lat="46.1477165" lon="12.1297819"><ele>374.0</ele><time>2026-05-02T12:39:22.175Z</time></trkpt><trkpt lat="46.1476102" lon="12.1298188"><ele>374.0</ele><time>2026-05-02T12:39:23.175Z</time></trkpt><trkpt lat="46.1475225" lon="12.129842"><ele>374.0</ele><time>2026-05-02T12:39:24.175Z</time></trkpt><trkpt lat="46.1474422" lon="12.1298591"><ele>374.0</ele><time>2026-05-02T12:39:25.175Z</time></trkpt><trkpt lat="46.1473671" lon="12.1298667"><ele>374.1666666666667</ele><time>2026-05-02T12:39:26.175Z</time></trkpt><trkpt lat="46.1472877" lon="12.1298662"><ele>374.33333333333337</ele><time>2026-05-02T12:39:27.175Z</time></trkpt><trkpt lat="46.1471982" lon="12.1298722"><ele>374.5</ele><time>2026-05-02T12:39:28.175Z</time></trkpt><trkpt lat="46.1471084" lon="12.1298957"><ele>374.6666666666667</ele><time>2026-05-02T12:39:29.175Z</time></trkpt><trkpt lat="46.1470433" lon="12.1299529"><ele>374.8333333333333</ele><time>2026-05-02T12:39:30.175Z</time></trkpt><trkpt lat="46.1469884" lon="12.1300342"><ele>375.0</ele><time>2026-05-02T12:39:31.175Z</time></trkpt><trkpt lat="46.1469472" lon="12.1301359"><ele>375.6</ele><time>2026-05-02T12:39:32.175Z</time></trkpt><trkpt lat="46.1468979" lon="12.1302337"><ele>376.2</ele><time>2026-05-02T12:39:33.175Z</time></trkpt><trkpt lat="46.1468261" lon="12.1303045"><ele>376.79999999999995</ele><time>2026-05-02T12:39:34.175Z</time></trkpt><trkpt lat="46.1467419" lon="12.1303563"><ele>377.4</ele><time>2026-05-02T12:39:35.175Z</time></trkpt><trkpt lat="46.1466462" lon="12.1303839"><ele>378.0</ele><time>2026-05-02T12:39:36.175Z</time></trkpt><trkpt lat="46.1465385" lon="12.1303999"><ele>378.0</ele><time>2026-05-02T12:39:37.174Z</time></trkpt><trkpt lat="46.1464183" lon="12.1304277"><ele>378.0</ele><time>2026-05-02T12:39:38.175Z</time></trkpt><trkpt lat="46.1463006" lon="12.1304691"><ele>378.0</ele><time>2026-05-02T12:39:39.174Z</time></trkpt><trkpt lat="46.1461726" lon="12.1305343"><ele>378.0</ele><time>2026-05-02T12:39:40.175Z</time></trkpt><trkpt lat="46.146039" lon="12.1306116"><ele>378.0</ele><time>2026-05-02T12:39:41.175Z</time></trkpt><trkpt lat="46.1458996" lon="12.1306943"><ele>378.0</ele><time>2026-05-02T12:39:42.174Z</time></trkpt><trkpt lat="46.1457643" lon="12.1307732"><ele>378.0</ele><time>2026-05-02T12:39:43.174Z</time></trkpt><trkpt lat="46.1456418" lon="12.1308524"><ele>378.0</ele><time>2026-05-02T12:39:44.174Z</time></trkpt><trkpt lat="46.1455194" lon="12.1309393"><ele>378.3333333333333</ele><time>2026-05-02T12:39:45.174Z</time></trkpt><trkpt lat="46.145392" lon="12.1310269"><ele>378.66666666666663</ele><time>2026-05-02T12:39:46.174Z</time></trkpt><trkpt lat="46.1452534" lon="12.1311181"><ele>379.0</ele><time>2026-05-02T12:39:47.175Z</time></trkpt><trkpt lat="46.145103" lon="12.1312143"><ele>379.0</ele><time>2026-05-02T12:39:48.175Z</time></trkpt><trkpt lat="46.1449426" lon="12.1313181"><ele>379.0</ele><time>2026-05-02T12:39:49.175Z</time></trkpt><trkpt lat="46.144779" lon="12.1314272"><ele>379.0</ele><time>2026-05-02T12:39:50.175Z</time></trkpt><trkpt lat="46.1446184" lon="12.1315365"><ele>379.3333333333333</ele><time>2026-05-02T12:39:51.175Z</time></trkpt><trkpt lat="46.1444679" lon="12.1316369"><ele>379.6666666666667</ele><time>2026-05-02T12:39:52.174Z</time></trkpt><trkpt lat="46.1443275" lon="12.1317266"><ele>380.0</ele><time>2026-05-02T12:39:53.175Z</time></trkpt><trkpt lat="46.1441975" lon="12.1318097"><ele>380.0</ele><time>2026-05-02T12:39:54.175Z</time></trkpt><trkpt lat="46.1440697" lon="12.1318918"><ele>380.0</ele><time>2026-05-02T12:39:55.175Z</time></trkpt><trkpt lat="46.1439416" lon="12.1319743"><ele>380.0</ele><time>2026-05-02T12:39:56.174Z</time></trkpt><trkpt lat="46.1438133" lon="12.1320567"><ele>380.0</ele><time>2026-05-02T12:39:57.174Z</time></trkpt><trkpt lat="46.1436909" lon="12.1321394"><ele>380.5</ele><time>2026-05-02T12:39:58.174Z</time></trkpt><trkpt lat="46.1435761" lon="12.1322303"><ele>381.0</ele><time>2026-05-02T12:39:59.175Z</time></trkpt><trkpt lat="46.1434713" lon="12.1323416"><ele>381.5</ele><time>2026-05-02T12:40:00.175Z</time></trkpt><trkpt lat="46.1433769" lon="12.1324743"><ele>382.0</ele><time>2026-05-02T12:40:01.175Z</time></trkpt><trkpt lat="46.1432901" lon="12.1326207"><ele>381.0</ele><time>2026-05-02T12:40:02.176Z</time></trkpt><trkpt lat="46.1432066" lon="12.1327764"><ele>380.0</ele><time>2026-05-02T12:40:03.176Z</time></trkpt><trkpt lat="46.1431197" lon="12.1329438"><ele>379.0</ele><time>2026-05-02T12:40:04.176Z</time></trkpt><trkpt lat="46.1430301" lon="12.1331222"><ele>378.0</ele><time>2026-05-02T12:40:05.176Z</time></trkpt><trkpt lat="46.1429375" lon="12.1333158"><ele>378.0</ele><time>2026-05-02T12:40:06.176Z</time></trkpt><trkpt lat="46.142835" lon="12.1335339"><ele>378.0</ele><time>2026-05-02T12:40:07.176Z</time></trkpt><trkpt lat="46.1427188" lon="12.1337711"><ele>378.0</ele><time>2026-05-02T12:40:08.175Z</time></trkpt><trkpt lat="46.1425917" lon="12.1340155"><ele>376.0</ele><time>2026-05-02T12:40:09.175Z</time></trkpt><trkpt lat="46.1424627" lon="12.1342779"><ele>374.0</ele><time>2026-05-02T12:40:10.175Z</time></trkpt><trkpt lat="46.142332" lon="12.1345672"><ele>374.0</ele><time>2026-05-02T12:40:11.175Z</time></trkpt><trkpt lat="46.1421976" lon="12.1348654"><ele>374.0</ele><time>2026-05-02T12:40:12.175Z</time></trkpt><trkpt lat="46.142056" lon="12.1351809"><ele>376.5</ele><time>2026-05-02T12:40:13.175Z</time></trkpt><trkpt lat="46.1419165" lon="12.1354843"><ele>379.0</ele><time>2026-05-02T12:40:14.175Z</time></trkpt><trkpt lat="46.1417915" lon="12.1357689"><ele>381.0</ele><time>2026-05-02T12:40:15.175Z</time></trkpt><trkpt lat="46.1416745" lon="12.1360428"><ele>383.0</ele><time>2026-05-02T12:40:16.176Z</time></trkpt><trkpt lat="46.1415631" lon="12.1363082"><ele>385.0</ele><time>2026-05-02T12:40:17.176Z</time></trkpt><trkpt lat="46.1414548" lon="12.1365663"><ele>385.0</ele><time>2026-05-02T12:40:18.176Z</time></trkpt><trkpt lat="46.1413472" lon="12.1368107"><ele>385.0</ele><time>2026-05-02T12:40:19.176Z</time></trkpt><trkpt lat="46.1412515" lon="12.1370404"><ele>385.0</ele><time>2026-05-02T12:40:20.176Z</time></trkpt><trkpt lat="46.1411568" lon="12.1372549"><ele>388.6666666666667</ele><time>2026-05-02T12:40:21.175Z</time></trkpt><trkpt lat="46.1410782" lon="12.1374726"><ele>392.33333333333337</ele><time>2026-05-02T12:40:22.175Z</time></trkpt><trkpt lat="46.1410298" lon="12.1377055"><ele>396.0</ele><time>2026-05-02T12:40:23.176Z</time></trkpt><trkpt lat="46.141009" lon="12.1379657"><ele>397.33333333333337</ele><time>2026-05-02T12:40:24.175Z</time></trkpt><trkpt lat="46.1409987" lon="12.1382403"><ele>398.6666666666667</ele><time>2026-05-02T12:40:25.175Z</time></trkpt><trkpt lat="46.14099" lon="12.1385334"><ele>400.0</ele><time>2026-05-02T12:40:26.175Z</time></trkpt><trkpt lat="46.1409823" lon="12.1388424"><ele>398.5</ele><time>2026-05-02T12:40:27.175Z</time></trkpt><trkpt lat="46.1409747" lon="12.1391662"><ele>397.0</ele><time>2026-05-02T12:40:28.175Z</time></trkpt><trkpt lat="46.1409706" lon="12.139492"><ele>397.0</ele><time>2026-05-02T12:40:29.175Z</time></trkpt><trkpt lat="46.1409621" lon="12.1398187"><ele>397.0</ele><time>2026-05-02T12:40:30.176Z</time></trkpt><trkpt lat="46.1409597" lon="12.1401468"><ele>398.33333333333337</ele><time>2026-05-02T12:40:31.175Z</time></trkpt><trkpt lat="46.1409551" lon="12.1404709"><ele>399.66666666666663</ele><time>2026-05-02T12:40:32.176Z</time></trkpt><trkpt lat="46.1409547" lon="12.1407816"><ele>401.0</ele><time>2026-05-02T12:40:33.176Z</time></trkpt><trkpt lat="46.1409498" lon="12.141075"><ele>402.3333333333333</ele><time>2026-05-02T12:40:34.175Z</time></trkpt><trkpt lat="46.1409385" lon="12.1413486"><ele>403.66666666666663</ele><time>2026-05-02T12:40:35.176Z</time></trkpt><trkpt lat="46.1409301" lon="12.1416023"><ele>405.0</ele><time>2026-05-02T12:40:36.176Z</time></trkpt><trkpt lat="46.1409262" lon="12.1418358"><ele>406.0</ele><time>2026-05-02T12:40:37.175Z</time></trkpt><trkpt lat="46.1409381" lon="12.142053"><ele>407.0</ele><time>2026-05-02T12:40:38.176Z</time></trkpt><trkpt lat="46.1409916" lon="12.1422474"><ele>408.0</ele><time>2026-05-02T12:40:39.176Z</time></trkpt><trkpt lat="46.141093" lon="12.1424209"><ele>408.66666666666663</ele><time>2026-05-02T12:40:40.176Z</time></trkpt><trkpt lat="46.1412368" lon="12.1425502"><ele>409.3333333333333</ele><time>2026-05-02T12:40:41.176Z</time></trkpt><trkpt lat="46.1414053" lon="12.1426453"><ele>410.0</ele><time>2026-05-02T12:40:42.176Z</time></trkpt><trkpt lat="46.1415876" lon="12.1427312"><ele>412.0</ele><time>2026-05-02T12:40:43.176Z</time></trkpt><trkpt lat="46.1417584" lon="12.1428096"><ele>414.0</ele><time>2026-05-02T12:40:44.176Z</time></trkpt><trkpt lat="46.1419208" lon="12.1428808"><ele>416.0</ele><time>2026-05-02T12:40:45.175Z</time></trkpt><trkpt lat="46.1420789" lon="12.1429728"><ele>416.0</ele><time>2026-05-02T12:40:46.176Z</time></trkpt><trkpt lat="46.1422147" lon="12.1430951"><ele>416.0</ele><time>2026-05-02T12:40:47.175Z</time></trkpt><trkpt lat="46.1423106" lon="12.1432651"><ele>416.0</ele><time>2026-05-02T12:40:48.176Z</time></trkpt><trkpt lat="46.1423679" lon="12.1434729"><ele>416.66666666666663</ele><time>2026-05-02T12:40:49.175Z</time></trkpt><trkpt lat="46.1424027" lon="12.1437193"><ele>417.33333333333337</ele><time>2026-05-02T12:40:50.176Z</time></trkpt><trkpt lat="46.1424406" lon="12.1439737"><ele>418.0</ele><time>2026-05-02T12:40:51.175Z</time></trkpt><trkpt lat="46.1424799" lon="12.1442347"><ele>418.0</ele><time>2026-05-02T12:40:52.176Z</time></trkpt><trkpt lat="46.1425189" lon="12.1444904"><ele>418.0</ele><time>2026-05-02T12:40:53.176Z</time></trkpt><trkpt lat="46.1425545" lon="12.1447427"><ele>418.0</ele><time>2026-05-02T12:40:54.177Z</time></trkpt><trkpt lat="46.1425988" lon="12.1450043"><ele>418.6666666666667</ele><time>2026-05-02T12:40:55.176Z</time></trkpt><trkpt lat="46.1426509" lon="12.1452887"><ele>419.33333333333337</ele><time>2026-05-02T12:40:56.176Z</time></trkpt><trkpt lat="46.1426947" lon="12.1456003"><ele>420.0</ele><time>2026-05-02T12:40:57.176Z</time></trkpt><trkpt lat="46.1427224" lon="12.1459236"><ele>421.0</ele><time>2026-05-02T12:40:58.177Z</time></trkpt><trkpt lat="46.1427554" lon="12.1462198"><ele>422.0</ele><time>2026-05-02T12:40:59.176Z</time></trkpt><trkpt lat="46.1427943" lon="12.1464892"><ele>423.0</ele><time>2026-05-02T12:41:00.177Z</time></trkpt><trkpt lat="46.1428332" lon="12.1467423"><ele>423.75</ele><time>2026-05-02T12:41:01.176Z</time></trkpt><trkpt lat="46.1428582" lon="12.1469703"><ele>424.5</ele><time>2026-05-02T12:41:02.177Z</time></trkpt><trkpt lat="46.1428481" lon="12.1471808"><ele>425.25</ele><time>2026-05-02T12:41:03.176Z</time></trkpt><trkpt lat="46.1427965" lon="12.1473719"><ele>426.0</ele><time>2026-05-02T12:41:04.176Z</time></trkpt><trkpt lat="46.1427027" lon="12.1475425"><ele>426.66666666666663</ele><time>2026-05-02T12:41:05.176Z</time></trkpt><trkpt lat="46.1425957" lon="12.1476935"><ele>427.3333333333333</ele><time>2026-05-02T12:41:06.176Z</time></trkpt><trkpt lat="46.1424877" lon="12.1478442"><ele>428.0</ele><time>2026-05-02T12:41:07.177Z</time></trkpt><trkpt lat="46.1423741" lon="12.148008"><ele>428.0</ele><time>2026-05-02T12:41:08.176Z</time></trkpt><trkpt lat="46.1422608" lon="12.1481745"><ele>428.0</ele><time>2026-05-02T12:41:09.176Z</time></trkpt><trkpt lat="46.1421472" lon="12.1483559"><ele>428.0</ele><time>2026-05-02T12:41:10.177Z</time></trkpt><trkpt lat="46.1420519" lon="12.1485548"><ele>428.0</ele><time>2026-05-02T12:41:11.176Z</time></trkpt><trkpt lat="46.1419795" lon="12.1487844"><ele>428.0</ele><time>2026-05-02T12:41:12.176Z</time></trkpt><trkpt lat="46.1419315" lon="12.1490451"><ele>428.0</ele><time>2026-05-02T12:41:13.176Z</time></trkpt><trkpt lat="46.1419038" lon="12.1493527"><ele>426.3333333333333</ele><time>2026-05-02T12:41:14.176Z</time></trkpt><trkpt lat="46.1418745" lon="12.1496415"><ele>424.66666666666663</ele><time>2026-05-02T12:41:15.177Z</time></trkpt><trkpt lat="46.1418414" lon="12.1499002"><ele>423.0</ele><time>2026-05-02T12:41:16.177Z</time></trkpt><trkpt lat="46.1418229" lon="12.1501482"><ele>423.0</ele><time>2026-05-02T12:41:17.176Z</time></trkpt><trkpt lat="46.1418208" lon="12.1503773"><ele>423.0</ele><time>2026-05-02T12:41:18.177Z</time></trkpt><trkpt lat="46.1418488" lon="12.1506178"><ele>423.0</ele><time>2026-05-02T12:41:19.177Z</time></trkpt><trkpt lat="46.1419095" lon="12.1508758"><ele>425.66666666666663</ele><time>2026-05-02T12:41:20.177Z</time></trkpt><trkpt lat="46.1419876" lon="12.1511325"><ele>428.3333333333333</ele><time>2026-05-02T12:41:21.176Z</time></trkpt><trkpt lat="46.1420682" lon="12.151413"><ele>431.0</ele><time>2026-05-02T12:41:22.177Z</time></trkpt><trkpt lat="46.1421578" lon="12.1517104"><ele>434.0</ele><time>2026-05-02T12:41:23.177Z</time></trkpt><trkpt lat="46.1422634" lon="12.1520497"><ele>437.0</ele><time>2026-05-02T12:41:24.177Z</time></trkpt><trkpt lat="46.1423897" lon="12.1524282"><ele>437.0</ele><time>2026-05-02T12:41:25.176Z</time></trkpt><trkpt lat="46.1425073" lon="12.1528353"><ele>437.0</ele><time>2026-05-02T12:41:26.176Z</time></trkpt><trkpt lat="46.1426155" lon="12.1532721"><ele>440.5</ele><time>2026-05-02T12:41:27.177Z</time></trkpt><trkpt lat="46.1427302" lon="12.1536811"><ele>444.0</ele><time>2026-05-02T12:41:28.177Z</time></trkpt><trkpt lat="46.1428393" lon="12.1540589"><ele>447.0</ele><time>2026-05-02T12:41:29.176Z</time></trkpt><trkpt lat="46.1429418" lon="12.1544056"><ele>450.0</ele><time>2026-05-02T12:41:30.176Z</time></trkpt><trkpt lat="46.1430346" lon="12.15471"><ele>452.33333333333337</ele><time>2026-05-02T12:41:31.176Z</time></trkpt><trkpt lat="46.1431156" lon="12.1549967"><ele>454.6666666666667</ele><time>2026-05-02T12:41:32.176Z</time></trkpt><trkpt lat="46.1431716" lon="12.1552657"><ele>457.0</ele><time>2026-05-02T12:41:33.177Z</time></trkpt><trkpt lat="46.1431783" lon="12.1555435"><ele>456.0</ele><time>2026-05-02T12:41:34.176Z</time></trkpt><trkpt lat="46.1431466" lon="12.1558447"><ele>455.0</ele><time>2026-05-02T12:41:35.177Z</time></trkpt><trkpt lat="46.1431058" lon="12.1561538"><ele>454.0</ele><time>2026-05-02T12:41:36.176Z</time></trkpt><trkpt lat="46.143073" lon="12.1564413"><ele>456.6666666666667</ele><time>2026-05-02T12:41:37.176Z</time></trkpt><trkpt lat="46.1430417" lon="12.1567019"><ele>459.33333333333337</ele><time>2026-05-02T12:41:38.177Z</time></trkpt><trkpt lat="46.1430089" lon="12.1569602"><ele>462.0</ele><time>2026-05-02T12:41:39.176Z</time></trkpt><trkpt lat="46.1429758" lon="12.157213"><ele>463.66666666666663</ele><time>2026-05-02T12:41:40.177Z</time></trkpt><trkpt lat="46.1429471" lon="12.1574546"><ele>465.3333333333333</ele><time>2026-05-02T12:41:41.177Z</time></trkpt><trkpt lat="46.1429035" lon="12.1576988"><ele>467.0</ele><time>2026-05-02T12:41:42.177Z</time></trkpt><trkpt lat="46.1428411" lon="12.1579397"><ele>467.0</ele><time>2026-05-02T12:41:43.176Z</time></trkpt><trkpt lat="46.1427589" lon="12.1581609"><ele>467.0</ele><time>2026-05-02T12:41:44.177Z</time></trkpt><trkpt lat="46.1426585" lon="12.1583704"><ele>467.0</ele><time>2026-05-02T12:41:45.177Z</time></trkpt><trkpt lat="46.1425496" lon="12.1585758"><ele>466.66666666666663</ele><time>2026-05-02T12:41:46.176Z</time></trkpt><trkpt lat="46.1424482" lon="12.1587866"><ele>466.33333333333337</ele><time>2026-05-02T12:41:47.177Z</time></trkpt><trkpt lat="46.1423508" lon="12.1589918"><ele>466.0</ele><time>2026-05-02T12:41:48.176Z</time></trkpt><trkpt lat="46.1422499" lon="12.1591885"><ele>472.33333333333337</ele><time>2026-05-02T12:41:49.177Z</time></trkpt><trkpt lat="46.1421526" lon="12.1593871"><ele>478.66666666666663</ele><time>2026-05-02T12:41:50.177Z</time></trkpt><trkpt lat="46.1420628" lon="12.1595794"><ele>485.0</ele><time>2026-05-02T12:41:51.176Z</time></trkpt><trkpt lat="46.1419706" lon="12.1597568"><ele>481.66666666666663</ele><time>2026-05-02T12:41:52.177Z</time></trkpt><trkpt lat="46.1418799" lon="12.1599417"><ele>478.33333333333337</ele><time>2026-05-02T12:41:53.176Z</time></trkpt><trkpt lat="46.1417901" lon="12.160134"><ele>475.0</ele><time>2026-05-02T12:41:54.177Z</time></trkpt><trkpt lat="46.1416914" lon="12.1603323"><ele>475.0</ele><time>2026-05-02T12:41:55.177Z</time></trkpt><trkpt lat="46.1415878" lon="12.1605389"><ele>475.0</ele><time>2026-05-02T12:41:56.177Z</time></trkpt><trkpt lat="46.1414821" lon="12.1607586"><ele>475.0</ele><time>2026-05-02T12:41:57.177Z</time></trkpt><trkpt lat="46.1413779" lon="12.160987"><ele>474.6666666666667</ele><time>2026-05-02T12:41:58.178Z</time></trkpt><trkpt lat="46.1412719" lon="12.1612084"><ele>474.33333333333337</ele><time>2026-05-02T12:41:59.178Z</time></trkpt><trkpt lat="46.141171" lon="12.1614162"><ele>474.0</ele><time>2026-05-02T12:42:00.178Z</time></trkpt><trkpt lat="46.1410792" lon="12.1616306"><ele>474.0</ele><time>2026-05-02T12:42:01.177Z</time></trkpt><trkpt lat="46.1410033" lon="12.1618522"><ele>474.0</ele><time>2026-05-02T12:42:02.177Z</time></trkpt><trkpt lat="46.1409437" lon="12.1620774"><ele>474.0</ele><time>2026-05-02T12:42:03.178Z</time></trkpt><trkpt lat="46.1409001" lon="12.1623034"><ele>474.66666666666663</ele><time>2026-05-02T12:42:04.178Z</time></trkpt><trkpt lat="46.140873" lon="12.1625416"><ele>475.3333333333333</ele><time>2026-05-02T12:42:05.178Z</time></trkpt><trkpt lat="46.1408614" lon="12.1627884"><ele>476.0</ele><time>2026-05-02T12:42:06.177Z</time></trkpt><trkpt lat="46.1408625" lon="12.1630445"><ele>475.66666666666663</ele><time>2026-05-02T12:42:07.178Z</time></trkpt><trkpt lat="46.140875" lon="12.1633046"><ele>475.33333333333337</ele><time>2026-05-02T12:42:08.178Z</time></trkpt><trkpt lat="46.1408924" lon="12.1635701"><ele>475.0</ele><time>2026-05-02T12:42:09.178Z</time></trkpt><trkpt lat="46.1409064" lon="12.1638388"><ele>473.6666666666667</ele><time>2026-05-02T12:42:10.178Z</time></trkpt><trkpt lat="46.1409216" lon="12.1641121"><ele>472.33333333333337</ele><time>2026-05-02T12:42:11.177Z</time></trkpt><trkpt lat="46.1409359" lon="12.1643771"><ele>471.0</ele><time>2026-05-02T12:42:12.178Z</time></trkpt><trkpt lat="46.1409444" lon="12.1646362"><ele>470.0</ele><time>2026-05-02T12:42:13.178Z</time></trkpt><trkpt lat="46.1409557" lon="12.1648862"><ele>469.0</ele><time>2026-05-02T12:42:14.178Z</time></trkpt><trkpt lat="46.1409589" lon="12.1651361"><ele>468.0</ele><time>2026-05-02T12:42:15.178Z</time></trkpt><trkpt lat="46.140957" lon="12.1653787"><ele>468.0</ele><time>2026-05-02T12:42:16.178Z</time></trkpt><trkpt lat="46.1409502" lon="12.1656224"><ele>468.0</ele><time>2026-05-02T12:42:17.177Z</time></trkpt><trkpt lat="46.1409346" lon="12.1658648"><ele>468.0</ele><time>2026-05-02T12:42:18.178Z</time></trkpt><trkpt lat="46.1409293" lon="12.1661102"><ele>467.66666666666663</ele><time>2026-05-02T12:42:19.177Z</time></trkpt><trkpt lat="46.1409346" lon="12.166377"><ele>467.3333333333333</ele><time>2026-05-02T12:42:20.178Z</time></trkpt><trkpt lat="46.1409451" lon="12.166655"><ele>467.0</ele><time>2026-05-02T12:42:21.178Z</time></trkpt><trkpt lat="46.1409584" lon="12.1669374"><ele>466.66666666666663</ele><time>2026-05-02T12:42:22.177Z</time></trkpt><trkpt lat="46.1409741" lon="12.1672254"><ele>466.33333333333337</ele><time>2026-05-02T12:42:23.178Z</time></trkpt><trkpt lat="46.1409847" lon="12.16751"><ele>466.0</ele><time>2026-05-02T12:42:24.178Z</time></trkpt><trkpt lat="46.1410011" lon="12.1677932"><ele>466.6666666666667</ele><time>2026-05-02T12:42:25.177Z</time></trkpt><trkpt lat="46.1410198" lon="12.1680689"><ele>467.33333333333337</ele><time>2026-05-02T12:42:26.177Z</time></trkpt><trkpt lat="46.1410311" lon="12.1683345"><ele>468.0</ele><time>2026-05-02T12:42:27.178Z</time></trkpt><trkpt lat="46.1410484" lon="12.1685923"><ele>468.0</ele><time>2026-05-02T12:42:28.177Z</time></trkpt><trkpt lat="46.1410629" lon="12.1688514"><ele>468.0</ele><time>2026-05-02T12:42:29.177Z</time></trkpt><trkpt lat="46.1410783" lon="12.1691073"><ele>468.0</ele><time>2026-05-02T12:42:30.177Z</time></trkpt><trkpt lat="46.1410833" lon="12.1693599"><ele>468.0</ele><time>2026-05-02T12:42:31.178Z</time></trkpt><trkpt lat="46.1410797" lon="12.1696149"><ele>468.0</ele><time>2026-05-02T12:42:32.178Z</time></trkpt><trkpt lat="46.141059" lon="12.1698654"><ele>468.0</ele><time>2026-05-02T12:42:33.177Z</time></trkpt><trkpt lat="46.1410467" lon="12.1701186"><ele>468.0</ele><time>2026-05-02T12:42:34.177Z</time></trkpt><trkpt lat="46.1410447" lon="12.1703758"><ele>468.0</ele><time>2026-05-02T12:42:35.178Z</time></trkpt><trkpt lat="46.1410572" lon="12.1706395"><ele>468.0</ele><time>2026-05-02T12:42:36.177Z</time></trkpt><trkpt lat="46.1410686" lon="12.1709067"><ele>468.33333333333337</ele><time>2026-05-02T12:42:37.177Z</time></trkpt><trkpt lat="46.1410798" lon="12.1711727"><ele>468.6666666666667</ele><time>2026-05-02T12:42:38.177Z</time></trkpt><trkpt lat="46.1410844" lon="12.1714426"><ele>469.0</ele><time>2026-05-02T12:42:39.178Z</time></trkpt><trkpt lat="46.1410942" lon="12.1717071"><ele>469.0</ele><time>2026-05-02T12:42:40.177Z</time></trkpt><trkpt lat="46.1410979" lon="12.1719822"><ele>469.0</ele><time>2026-05-02T12:42:41.178Z</time></trkpt><trkpt lat="46.1410947" lon="12.1722516"><ele>469.0</ele><time>2026-05-02T12:42:42.177Z</time></trkpt><trkpt lat="46.1410913" lon="12.1725086"><ele>468.6666666666667</ele><time>2026-05-02T12:42:43.177Z</time></trkpt><trkpt lat="46.141084" lon="12.1727458"><ele>468.33333333333337</ele><time>2026-05-02T12:42:44.177Z</time></trkpt><trkpt lat="46.1410761" lon="12.1729721"><ele>468.0</ele><time>2026-05-02T12:42:45.177Z</time></trkpt><trkpt lat="46.1410565" lon="12.1732103"><ele>468.0</ele><time>2026-05-02T12:42:46.178Z</time></trkpt><trkpt lat="46.1410188" lon="12.1734391"><ele>468.0</ele><time>2026-05-02T12:42:47.177Z</time></trkpt><trkpt lat="46.1409668" lon="12.1736576"><ele>468.0</ele><time>2026-05-02T12:42:48.178Z</time></trkpt><trkpt lat="46.1408901" lon="12.173871"><ele>467.66666666666663</ele><time>2026-05-02T12:42:49.178Z</time></trkpt><trkpt lat="46.1408057" lon="12.1740746"><ele>467.3333333333333</ele><time>2026-05-02T12:42:50.178Z</time></trkpt><trkpt lat="46.1407075" lon="12.1742674"><ele>467.0</ele><time>2026-05-02T12:42:51.179Z</time></trkpt><trkpt lat="46.1406037" lon="12.1744628"><ele>467.0</ele><time>2026-05-02T12:42:52.179Z</time></trkpt><trkpt lat="46.1405028" lon="12.1746573"><ele>467.0</ele><time>2026-05-02T12:42:53.179Z</time></trkpt><trkpt lat="46.1404013" lon="12.1748549"><ele>467.0</ele><time>2026-05-02T12:42:54.179Z</time></trkpt><trkpt lat="46.1403079" lon="12.175035"><ele>466.66666666666663</ele><time>2026-05-02T12:42:55.178Z</time></trkpt><trkpt lat="46.1402141" lon="12.1752136"><ele>466.33333333333337</ele><time>2026-05-02T12:42:56.179Z</time></trkpt><trkpt lat="46.1401272" lon="12.1753985"><ele>466.0</ele><time>2026-05-02T12:42:57.179Z</time></trkpt><trkpt lat="46.1400455" lon="12.1755862"><ele>466.5</ele><time>2026-05-02T12:42:58.178Z</time></trkpt><trkpt lat="46.1399765" lon="12.1757762"><ele>467.0</ele><time>2026-05-02T12:42:59.178Z</time></trkpt><trkpt lat="46.139922" lon="12.1759721"><ele>467.5</ele><time>2026-05-02T12:43:00.178Z</time></trkpt><trkpt lat="46.1398789" lon="12.1761819"><ele>468.0</ele><time>2026-05-02T12:43:01.178Z</time></trkpt><trkpt lat="46.1398523" lon="12.1763927"><ele>466.33333333333337</ele><time>2026-05-02T12:43:02.179Z</time></trkpt><trkpt lat="46.1398431" lon="12.1766131"><ele>464.6666666666667</ele><time>2026-05-02T12:43:03.179Z</time></trkpt><trkpt lat="46.1398499" lon="12.1768384"><ele>463.0</ele><time>2026-05-02T12:43:04.178Z</time></trkpt><trkpt lat="46.1398778" lon="12.177073"><ele>464.0</ele><time>2026-05-02T12:43:05.178Z</time></trkpt><trkpt lat="46.1399083" lon="12.1773244"><ele>465.0</ele><time>2026-05-02T12:43:06.179Z</time></trkpt><trkpt lat="46.1399413" lon="12.1775791"><ele>466.0</ele><time>2026-05-02T12:43:07.179Z</time></trkpt><trkpt lat="46.1399799" lon="12.1778447"><ele>466.0</ele><time>2026-05-02T12:43:08.179Z</time></trkpt><trkpt lat="46.1400145" lon="12.1781213"><ele>466.0</ele><time>2026-05-02T12:43:09.178Z</time></trkpt><trkpt lat="46.1400465" lon="12.1783891"><ele>466.0</ele><time>2026-05-02T12:43:10.178Z</time></trkpt><trkpt lat="46.1400818" lon="12.1786451"><ele>465.6666666666667</ele><time>2026-05-02T12:43:11.178Z</time></trkpt><trkpt lat="46.1401157" lon="12.1789096"><ele>465.33333333333337</ele><time>2026-05-02T12:43:12.178Z</time></trkpt><trkpt lat="46.1401492" lon="12.1791707"><ele>465.0</ele><time>2026-05-02T12:43:13.178Z</time></trkpt><trkpt lat="46.1401805" lon="12.1794291"><ele>464.66666666666663</ele><time>2026-05-02T12:43:14.179Z</time></trkpt><trkpt lat="46.1402117" lon="12.1796868"><ele>464.3333333333333</ele><time>2026-05-02T12:43:15.178Z</time></trkpt><trkpt lat="46.1402446" lon="12.179944"><ele>464.0</ele><time>2026-05-02T12:43:16.179Z</time></trkpt><trkpt lat="46.1402756" lon="12.1801987"><ele>464.0</ele><time>2026-05-02T12:43:17.178Z</time></trkpt><trkpt lat="46.1403088" lon="12.1804577"><ele>464.0</ele><time>2026-05-02T12:43:18.179Z</time></trkpt><trkpt lat="46.1403368" lon="12.1807209"><ele>464.0</ele><time>2026-05-02T12:43:19.179Z</time></trkpt><trkpt lat="46.1403725" lon="12.1809843"><ele>462.66666666666663</ele><time>2026-05-02T12:43:20.179Z</time></trkpt><trkpt lat="46.1404047" lon="12.1812541"><ele>461.33333333333337</ele><time>2026-05-02T12:43:21.178Z</time></trkpt><trkpt lat="46.140439" lon="12.1815248"><ele>460.0</ele><time>2026-05-02T12:43:22.179Z</time></trkpt><trkpt lat="46.1404725" lon="12.1817972"><ele>460.0</ele><time>2026-05-02T12:43:23.179Z</time></trkpt><trkpt lat="46.1405032" lon="12.1820792"><ele>460.0</ele><time>2026-05-02T12:43:24.178Z</time></trkpt><trkpt lat="46.1405418" lon="12.1823578"><ele>460.0</ele><time>2026-05-02T12:43:25.178Z</time></trkpt><trkpt lat="46.1405802" lon="12.1826337"><ele>459.33333333333337</ele><time>2026-05-02T12:43:26.178Z</time></trkpt><trkpt lat="46.1406192" lon="12.1829174"><ele>458.66666666666663</ele><time>2026-05-02T12:43:27.178Z</time></trkpt><trkpt lat="46.1406457" lon="12.183196"><ele>458.0</ele><time>2026-05-02T12:43:28.178Z</time></trkpt><trkpt lat="46.1406797" lon="12.1834734"><ele>457.3333333333333</ele><time>2026-05-02T12:43:29.178Z</time></trkpt><trkpt lat="46.1407199" lon="12.1837501"><ele>456.66666666666663</ele><time>2026-05-02T12:43:30.178Z</time></trkpt><trkpt lat="46.1407547" lon="12.1840323"><ele>456.0</ele><time>2026-05-02T12:43:31.179Z</time></trkpt><trkpt lat="46.1407879" lon="12.1843112"><ele>456.0</ele><time>2026-05-02T12:43:32.179Z</time></trkpt><trkpt lat="46.1408234" lon="12.1845855"><ele>456.0</ele><time>2026-05-02T12:43:33.178Z</time></trkpt><trkpt lat="46.1408666" lon="12.1848603"><ele>456.0</ele><time>2026-05-02T12:43:34.179Z</time></trkpt><trkpt lat="46.1409021" lon="12.1851367"><ele>456.0</ele><time>2026-05-02T12:43:35.179Z</time></trkpt><trkpt lat="46.1409346" lon="12.1853975"><ele>456.0</ele><time>2026-05-02T12:43:36.179Z</time></trkpt><trkpt lat="46.1409623" lon="12.1856606"><ele>456.0</ele><time>2026-05-02T12:43:37.178Z</time></trkpt><trkpt lat="46.1409977" lon="12.185932"><ele>455.66666666666663</ele><time>2026-05-02T12:43:38.179Z</time></trkpt><trkpt lat="46.1410296" lon="12.1862078"><ele>455.3333333333333</ele><time>2026-05-02T12:43:39.179Z</time></trkpt><trkpt lat="46.1410604" lon="12.1864881"><ele>455.0</ele><time>2026-05-02T12:43:40.179Z</time></trkpt><trkpt lat="46.1410981" lon="12.1867565"><ele>454.3333333333333</ele><time>2026-05-02T12:43:41.178Z</time></trkpt><trkpt lat="46.1411318" lon="12.1870319"><ele>453.66666666666663</ele><time>2026-05-02T12:43:42.179Z</time></trkpt><trkpt lat="46.141164" lon="12.1872984"><ele>453.0</ele><time>2026-05-02T12:43:43.178Z</time></trkpt><trkpt lat="46.1411992" lon="12.1875548"><ele>452.66666666666663</ele><time>2026-05-02T12:43:44.179Z</time></trkpt><trkpt lat="46.1412326" lon="12.1878122"><ele>452.3333333333333</ele><time>2026-05-02T12:43:45.179Z</time></trkpt><trkpt lat="46.1412659" lon="12.1880679"><ele>452.0</ele><time>2026-05-02T12:43:46.178Z</time></trkpt><trkpt lat="46.1412952" lon="12.1883093"><ele>451.3333333333333</ele><time>2026-05-02T12:43:47.179Z</time></trkpt><trkpt lat="46.141325" lon="12.1885421"><ele>450.66666666666663</ele><time>2026-05-02T12:43:48.178Z</time></trkpt><trkpt lat="46.1413529" lon="12.1887789"><ele>450.0</ele><time>2026-05-02T12:43:49.179Z</time></trkpt><trkpt lat="46.1413814" lon="12.1890056"><ele>449.0</ele><time>2026-05-02T12:43:50.18Z</time></trkpt><trkpt lat="46.1414077" lon="12.1892404"><ele>448.0</ele><time>2026-05-02T12:43:51.179Z</time></trkpt><trkpt lat="46.1414384" lon="12.189461"><ele>447.0</ele><time>2026-05-02T12:43:52.179Z</time></trkpt><trkpt lat="46.1414624" lon="12.1896737"><ele>446.5</ele><time>2026-05-02T12:43:53.18Z</time></trkpt><trkpt lat="46.1414894" lon="12.1898882"><ele>446.0</ele><time>2026-05-02T12:43:54.18Z</time></trkpt><trkpt lat="46.1415157" lon="12.1900955"><ele>445.5</ele><time>2026-05-02T12:43:55.18Z</time></trkpt><trkpt lat="46.1415393" lon="12.1903035"><ele>445.0</ele><time>2026-05-02T12:43:56.179Z</time></trkpt><trkpt lat="46.1415433" lon="12.1905203"><ele>445.33333333333337</ele><time>2026-05-02T12:43:57.18Z</time></trkpt><trkpt lat="46.141516" lon="12.190736"><ele>445.66666666666663</ele><time>2026-05-02T12:43:58.18Z</time></trkpt><trkpt lat="46.1414492" lon="12.1909363"><ele>446.0</ele><time>2026-05-02T12:43:59.18Z</time></trkpt><trkpt lat="46.141364" lon="12.19111"><ele>446.0</ele><time>2026-05-02T12:44:00.18Z</time></trkpt><trkpt lat="46.141269" lon="12.1912716"><ele>446.0</ele><time>2026-05-02T12:44:01.18Z</time></trkpt><trkpt lat="46.1411734" lon="12.1914281"><ele>446.0</ele><time>2026-05-02T12:44:02.18Z</time></trkpt><trkpt lat="46.1410766" lon="12.1915959"><ele>446.0</ele><time>2026-05-02T12:44:03.179Z</time></trkpt><trkpt lat="46.1409956" lon="12.1917772"><ele>446.0</ele><time>2026-05-02T12:44:04.18Z</time></trkpt><trkpt lat="46.1409227" lon="12.1919602"><ele>446.0</ele><time>2026-05-02T12:44:05.18Z</time></trkpt><trkpt lat="46.1408632" lon="12.1921489"><ele>446.0</ele><time>2026-05-02T12:44:06.179Z</time></trkpt><trkpt lat="46.1408183" lon="12.1923465"><ele>446.0</ele><time>2026-05-02T12:44:07.179Z</time></trkpt><trkpt lat="46.14079" lon="12.1925476"><ele>445.75</ele><time>2026-05-02T12:44:08.18Z</time></trkpt><trkpt lat="46.1407772" lon="12.1927404"><ele>445.5</ele><time>2026-05-02T12:44:09.179Z</time></trkpt><trkpt lat="46.1407768" lon="12.1929267"><ele>445.25</ele><time>2026-05-02T12:44:10.18Z</time></trkpt><trkpt lat="46.1407911" lon="12.1931146"><ele>445.0</ele><time>2026-05-02T12:44:11.179Z</time></trkpt><trkpt lat="46.1408144" lon="12.1933086"><ele>445.0</ele><time>2026-05-02T12:44:12.18Z</time></trkpt><trkpt lat="46.1408385" lon="12.1935044"><ele>445.0</ele><time>2026-05-02T12:44:13.179Z</time></trkpt><trkpt lat="46.140873" lon="12.1937119"><ele>445.0</ele><time>2026-05-02T12:44:14.18Z</time></trkpt><trkpt lat="46.1409072" lon="12.1939206"><ele>445.0</ele><time>2026-05-02T12:44:15.18Z</time></trkpt><trkpt lat="46.1409451" lon="12.1941265"><ele>445.0</ele><time>2026-05-02T12:44:16.179Z</time></trkpt><trkpt lat="46.140985" lon="12.19433"><ele>445.0</ele><time>2026-05-02T12:44:17.18Z</time></trkpt><trkpt lat="46.141024" lon="12.1945335"><ele>445.0</ele><time>2026-05-02T12:44:18.179Z</time></trkpt><trkpt lat="46.1410654" lon="12.1947464"><ele>445.0</ele><time>2026-05-02T12:44:19.18Z</time></trkpt><trkpt lat="46.1411055" lon="12.1949511"><ele>444.75</ele><time>2026-05-02T12:44:20.18Z</time></trkpt><trkpt lat="46.1411444" lon="12.1951548"><ele>444.5</ele><time>2026-05-02T12:44:21.179Z</time></trkpt><trkpt lat="46.1411854" lon="12.1953404"><ele>444.25</ele><time>2026-05-02T12:44:22.179Z</time></trkpt><trkpt lat="46.1412204" lon="12.1955198"><ele>444.0</ele><time>2026-05-02T12:44:23.179Z</time></trkpt><trkpt lat="46.1412655" lon="12.1957115"><ele>442.66666666666663</ele><time>2026-05-02T12:44:24.179Z</time></trkpt><trkpt lat="46.1413172" lon="12.1959114"><ele>441.3333333333333</ele><time>2026-05-02T12:44:25.18Z</time></trkpt><trkpt lat="46.1413817" lon="12.196123"><ele>440.0</ele><time>2026-05-02T12:44:26.179Z</time></trkpt><trkpt lat="46.1414557" lon="12.1963442"><ele>438.66666666666663</ele><time>2026-05-02T12:44:27.18Z</time></trkpt><trkpt lat="46.1415352" lon="12.1965782"><ele>437.33333333333337</ele><time>2026-05-02T12:44:28.18Z</time></trkpt><trkpt lat="46.1416159" lon="12.1968211"><ele>436.0</ele><time>2026-05-02T12:44:29.179Z</time></trkpt><trkpt lat="46.1416949" lon="12.1970715"><ele>438.6666666666667</ele><time>2026-05-02T12:44:30.18Z</time></trkpt><trkpt lat="46.1417746" lon="12.1973264"><ele>441.33333333333337</ele><time>2026-05-02T12:44:31.18Z</time></trkpt><trkpt lat="46.141855" lon="12.1975813"><ele>444.0</ele><time>2026-05-02T12:44:32.179Z</time></trkpt><trkpt lat="46.1419315" lon="12.1978194"><ele>444.0</ele><time>2026-05-02T12:44:33.18Z</time></trkpt><trkpt lat="46.1420029" lon="12.1980426"><ele>444.0</ele><time>2026-05-02T12:44:34.18Z</time></trkpt><trkpt lat="46.1420719" lon="12.1982616"><ele>444.0</ele><time>2026-05-02T12:44:35.179Z</time></trkpt><trkpt lat="46.1421427" lon="12.1984792"><ele>442.66666666666663</ele><time>2026-05-02T12:44:36.179Z</time></trkpt><trkpt lat="46.1422127" lon="12.1986857"><ele>441.3333333333333</ele><time>2026-05-02T12:44:37.179Z</time></trkpt><trkpt lat="46.1422858" lon="12.1988895"><ele>440.0</ele><time>2026-05-02T12:44:38.18Z</time></trkpt><trkpt lat="46.1423599" lon="12.1990908"><ele>440.25</ele><time>2026-05-02T12:44:39.18Z</time></trkpt><trkpt lat="46.1424344" lon="12.1992857"><ele>440.5</ele><time>2026-05-02T12:44:40.179Z</time></trkpt><trkpt lat="46.1425078" lon="12.1994681"><ele>440.75</ele><time>2026-05-02T12:44:41.18Z</time></trkpt><trkpt lat="46.1425821" lon="12.1996454"><ele>441.0</ele><time>2026-05-02T12:44:42.181Z</time></trkpt><trkpt lat="46.1426559" lon="12.199825"><ele>440.0</ele><time>2026-05-02T12:44:43.18Z</time></trkpt><trkpt lat="46.1427297" lon="12.2000021"><ele>439.0</ele><time>2026-05-02T12:44:44.179Z</time></trkpt><trkpt lat="46.1428059" lon="12.200176"><ele>438.0</ele><time>2026-05-02T12:44:45.18Z</time></trkpt><trkpt lat="46.1428802" lon="12.200347"><ele>437.0</ele><time>2026-05-02T12:44:46.18Z</time></trkpt><trkpt lat="46.1429517" lon="12.2005085"><ele>437.0</ele><time>2026-05-02T12:44:47.18Z</time></trkpt><trkpt lat="46.1430174" lon="12.2006615"><ele>437.0</ele><time>2026-05-02T12:44:48.18Z</time></trkpt><trkpt lat="46.1430788" lon="12.2008101"><ele>437.0</ele><time>2026-05-02T12:44:49.181Z</time></trkpt><trkpt lat="46.1431423" lon="12.2009582"><ele>437.0</ele><time>2026-05-02T12:44:50.181Z</time></trkpt><trkpt lat="46.143208" lon="12.2011059"><ele>437.5</ele><time>2026-05-02T12:44:51.18Z</time></trkpt><trkpt lat="46.1432735" lon="12.2012578"><ele>438.0</ele><time>2026-05-02T12:44:52.18Z</time></trkpt><trkpt lat="46.1433379" lon="12.2014133"><ele>438.5</ele><time>2026-05-02T12:44:53.181Z</time></trkpt><trkpt lat="46.1434052" lon="12.2015706"><ele>439.0</ele><time>2026-05-02T12:44:54.18Z</time></trkpt><trkpt lat="46.1434745" lon="12.2017289"><ele>437.75</ele><time>2026-05-02T12:44:55.181Z</time></trkpt><trkpt lat="46.1435443" lon="12.2018889"><ele>436.5</ele><time>2026-05-02T12:44:56.18Z</time></trkpt><trkpt lat="46.1436131" lon="12.2020516"><ele>435.25</ele><time>2026-05-02T12:44:57.18Z</time></trkpt><trkpt lat="46.1436858" lon="12.2022192"><ele>434.0</ele><time>2026-05-02T12:44:58.18Z</time></trkpt><trkpt lat="46.1437636" lon="12.2023955"><ele>433.0</ele><time>2026-05-02T12:44:59.181Z</time></trkpt><trkpt lat="46.1438431" lon="12.2025776"><ele>432.0</ele><time>2026-05-02T12:45:00.18Z</time></trkpt><trkpt lat="46.1439247" lon="12.2027639"><ele>431.0</ele><time>2026-05-02T12:45:01.18Z</time></trkpt><trkpt lat="46.1440042" lon="12.2029462"><ele>431.0</ele><time>2026-05-02T12:45:02.18Z</time></trkpt><trkpt lat="46.1440769" lon="12.2031186"><ele>431.0</ele><time>2026-05-02T12:45:03.18Z</time></trkpt><trkpt lat="46.1441461" lon="12.2032788"><ele>431.0</ele><time>2026-05-02T12:45:04.181Z</time></trkpt><trkpt lat="46.144209" lon="12.2034289"><ele>431.0</ele><time>2026-05-02T12:45:05.18Z</time></trkpt><trkpt lat="46.1442672" lon="12.2035662"><ele>430.6</ele><time>2026-05-02T12:45:06.181Z</time></trkpt><trkpt lat="46.1443236" lon="12.2036885"><ele>430.20000000000005</ele><time>2026-05-02T12:45:07.181Z</time></trkpt><trkpt lat="46.1443816" lon="12.203799"><ele>429.79999999999995</ele><time>2026-05-02T12:45:08.18Z</time></trkpt><trkpt lat="46.1444282" lon="12.2039247"><ele>429.4</ele><time>2026-05-02T12:45:09.181Z</time></trkpt><trkpt lat="46.144465" lon="12.2040641"><ele>429.0</ele><time>2026-05-02T12:45:10.18Z</time></trkpt><trkpt lat="46.1445045" lon="12.204208"><ele>428.75</ele><time>2026-05-02T12:45:11.18Z</time></trkpt><trkpt lat="46.1445432" lon="12.204356"><ele>428.5</ele><time>2026-05-02T12:45:12.18Z</time></trkpt><trkpt lat="46.144584" lon="12.2045083"><ele>428.25</ele><time>2026-05-02T12:45:13.18Z</time></trkpt><trkpt lat="46.1446262" lon="12.2046649"><ele>428.0</ele><time>2026-05-02T12:45:14.18Z</time></trkpt><trkpt lat="46.1446725" lon="12.204824"><ele>427.75</ele><time>2026-05-02T12:45:15.18Z</time></trkpt><trkpt lat="46.1447255" lon="12.2049812"><ele>427.5</ele><time>2026-05-02T12:45:16.181Z</time></trkpt><trkpt lat="46.1447876" lon="12.2051374"><ele>427.25</ele><time>2026-05-02T12:45:17.181Z</time></trkpt><trkpt lat="46.1448599" lon="12.2052883"><ele>427.0</ele><time>2026-05-02T12:45:18.18Z</time></trkpt><trkpt lat="46.1449377" lon="12.2054386"><ele>427.0</ele><time>2026-05-02T12:45:19.181Z</time></trkpt><trkpt lat="46.1450133" lon="12.2055865"><ele>427.0</ele><time>2026-05-02T12:45:20.18Z</time></trkpt><trkpt lat="46.145082" lon="12.2057257"><ele>427.0</ele><time>2026-05-02T12:45:21.181Z</time></trkpt><trkpt lat="46.1451441" lon="12.2058557"><ele>427.0</ele><time>2026-05-02T12:45:22.181Z</time></trkpt><trkpt lat="46.1452016" lon="12.205981"><ele>426.8</ele><time>2026-05-02T12:45:23.18Z</time></trkpt><trkpt lat="46.1452603" lon="12.206098"><ele>426.6</ele><time>2026-05-02T12:45:24.18Z</time></trkpt><trkpt lat="46.1453276" lon="12.206227"><ele>426.40000000000003</ele><time>2026-05-02T12:45:25.18Z</time></trkpt><trkpt lat="46.1453887" lon="12.2063616"><ele>426.20000000000005</ele><time>2026-05-02T12:45:26.181Z</time></trkpt><trkpt lat="46.1454544" lon="12.2064996"><ele>426.0</ele><time>2026-05-02T12:45:27.18Z</time></trkpt><trkpt lat="46.1455173" lon="12.206629"><ele>424.8</ele><time>2026-05-02T12:45:28.181Z</time></trkpt><trkpt lat="46.1455625" lon="12.2067548"><ele>423.6</ele><time>2026-05-02T12:45:29.18Z</time></trkpt><trkpt lat="46.1455917" lon="12.2068858"><ele>422.4</ele><time>2026-05-02T12:45:30.18Z</time></trkpt><trkpt lat="46.1456041" lon="12.2070321"><ele>421.2</ele><time>2026-05-02T12:45:31.18Z</time></trkpt><trkpt lat="46.145604" lon="12.2071927"><ele>420.0</ele><time>2026-05-02T12:45:32.181Z</time></trkpt><trkpt lat="46.145596" lon="12.2073646"><ele>419.0</ele><time>2026-05-02T12:45:33.18Z</time></trkpt><trkpt lat="46.1455849" lon="12.2075466"><ele>418.0</ele><time>2026-05-02T12:45:34.18Z</time></trkpt><trkpt lat="46.1455749" lon="12.2077357"><ele>417.0</ele><time>2026-05-02T12:45:35.181Z</time></trkpt><trkpt lat="46.1455667" lon="12.2079301"><ele>416.0</ele><time>2026-05-02T12:45:36.181Z</time></trkpt><trkpt lat="46.1455568" lon="12.2081259"><ele>415.5</ele><time>2026-05-02T12:45:37.181Z</time></trkpt><trkpt lat="46.1455449" lon="12.2083202"><ele>415.0</ele><time>2026-05-02T12:45:38.18Z</time></trkpt><trkpt lat="46.1455349" lon="12.2085039"><ele>414.5</ele><time>2026-05-02T12:45:39.181Z</time></trkpt><trkpt lat="46.1455263" lon="12.2086781"><ele>414.0</ele><time>2026-05-02T12:45:40.181Z</time></trkpt><trkpt lat="46.1455179" lon="12.2088507"><ele>413.75</ele><time>2026-05-02T12:45:41.18Z</time></trkpt><trkpt lat="46.1455082" lon="12.2090218"><ele>413.5</ele><time>2026-05-02T12:45:42.18Z</time></trkpt><trkpt lat="46.1454987" lon="12.2091907"><ele>413.25</ele><time>2026-05-02T12:45:43.181Z</time></trkpt><trkpt lat="46.1454907" lon="12.2093643"><ele>413.0</ele><time>2026-05-02T12:45:44.181Z</time></trkpt><trkpt lat="46.1454831" lon="12.209538"><ele>413.0</ele><time>2026-05-02T12:45:45.181Z</time></trkpt><trkpt lat="46.1454757" lon="12.2097133"><ele>413.0</ele><time>2026-05-02T12:45:46.182Z</time></trkpt><trkpt lat="46.1454658" lon="12.2098896"><ele>413.0</ele><time>2026-05-02T12:45:47.181Z</time></trkpt><trkpt lat="46.1454557" lon="12.210069"><ele>413.0</ele><time>2026-05-02T12:45:48.181Z</time></trkpt><trkpt lat="46.1454436" lon="12.2102511"><ele>412.5</ele><time>2026-05-02T12:45:49.182Z</time></trkpt><trkpt lat="46.1454329" lon="12.2104325"><ele>412.0</ele><time>2026-05-02T12:45:50.181Z</time></trkpt><trkpt lat="46.1454207" lon="12.210614"><ele>411.5</ele><time>2026-05-02T12:45:51.182Z</time></trkpt><trkpt lat="46.145399" lon="12.2107913"><ele>411.0</ele><time>2026-05-02T12:45:52.181Z</time></trkpt><trkpt lat="46.1453689" lon="12.2109657"><ele>410.5</ele><time>2026-05-02T12:45:53.182Z</time></trkpt><trkpt lat="46.1453172" lon="12.2111347"><ele>410.0</ele><time>2026-05-02T12:45:54.182Z</time></trkpt><trkpt lat="46.1452483" lon="12.2113006"><ele>409.5</ele><time>2026-05-02T12:45:55.181Z</time></trkpt><trkpt lat="46.1451744" lon="12.2114679"><ele>409.0</ele><time>2026-05-02T12:45:56.182Z</time></trkpt><trkpt lat="46.1450955" lon="12.211633"><ele>408.5</ele><time>2026-05-02T12:45:57.182Z</time></trkpt><trkpt lat="46.1450067" lon="12.2117887"><ele>408.0</ele><time>2026-05-02T12:45:58.182Z</time></trkpt><trkpt lat="46.1449084" lon="12.211926"><ele>407.5</ele><time>2026-05-02T12:45:59.182Z</time></trkpt><trkpt lat="46.1448172" lon="12.2120467"><ele>407.0</ele><time>2026-05-02T12:46:00.182Z</time></trkpt><trkpt lat="46.1447285" lon="12.2121634"><ele>407.0</ele><time>2026-05-02T12:46:01.182Z</time></trkpt><trkpt lat="46.1446418" lon="12.2122797"><ele>407.0</ele><time>2026-05-02T12:46:02.182Z</time></trkpt><trkpt lat="46.1445588" lon="12.2123921"><ele>407.0</ele><time>2026-05-02T12:46:03.181Z</time></trkpt><trkpt lat="46.1444833" lon="12.2124967"><ele>407.0</ele><time>2026-05-02T12:46:04.182Z</time></trkpt><trkpt lat="46.1444137" lon="12.2125921"><ele>407.0</ele><time>2026-05-02T12:46:05.182Z</time></trkpt><trkpt lat="46.1443518" lon="12.2126763"><ele>406.99999999999994</ele><time>2026-05-02T12:46:06.181Z</time></trkpt><trkpt lat="46.1442957" lon="12.2127507"><ele>407.0</ele><time>2026-05-02T12:46:07.182Z</time></trkpt><trkpt lat="46.1442446" lon="12.2128152"><ele>407.0</ele><time>2026-05-02T12:46:08.181Z</time></trkpt><trkpt lat="46.1441813" lon="12.2128847"><ele>407.0</ele><time>2026-05-02T12:46:10.182Z</time></trkpt><trkpt lat="46.144114" lon="12.2129116"><ele>406.99999999999994</ele><time>2026-05-02T12:46:14.181Z</time></trkpt><trkpt lat="46.1440449" lon="12.2129167"><ele>407.0</ele><time>2026-05-02T12:46:31.181Z</time></trkpt><trkpt lat="46.1439525" lon="12.2129224"><ele>406.0</ele><time>2026-05-02T12:46:33.182Z</time></trkpt><trkpt lat="46.143888" lon="12.2129385"><ele>405.0</ele><time>2026-05-02T12:46:34.181Z</time></trkpt><trkpt lat="46.1438629" lon="12.2130749"><ele>404.0</ele><time>2026-05-02T12:46:36.181Z</time></trkpt><trkpt lat="46.1439625" lon="12.2131807"><ele>403.0</ele><time>2026-05-02T12:46:38.182Z</time></trkpt><trkpt lat="46.1440474" lon="12.213225"><ele>402.0</ele><time>2026-05-02T12:46:39.182Z</time></trkpt><trkpt lat="46.1441355" lon="12.213301"><ele>401.66666666666663</ele><time>2026-05-02T12:46:40.182Z</time></trkpt><trkpt lat="46.1442265" lon="12.2134167"><ele>401.3333333333333</ele><time>2026-05-02T12:46:41.182Z</time></trkpt><trkpt lat="46.1443338" lon="12.2135735"><ele>401.0</ele><time>2026-05-02T12:46:42.182Z</time></trkpt><trkpt lat="46.1444549" lon="12.2137587"><ele>401.0</ele><time>2026-05-02T12:46:43.182Z</time></trkpt><trkpt lat="46.1445884" lon="12.2139668"><ele>401.0</ele><time>2026-05-02T12:46:44.181Z</time></trkpt><trkpt lat="46.1447305" lon="12.2141888"><ele>401.0</ele><time>2026-05-02T12:46:45.182Z</time></trkpt><trkpt lat="46.144868" lon="12.2144044"><ele>397.3333333333333</ele><time>2026-05-02T12:46:46.183Z</time></trkpt><trkpt lat="46.1449966" lon="12.2146083"><ele>393.66666666666663</ele><time>2026-05-02T12:46:47.182Z</time></trkpt><trkpt lat="46.1451169" lon="12.2148005"><ele>390.0</ele><time>2026-05-02T12:46:48.183Z</time></trkpt><trkpt lat="46.1452327" lon="12.2149823"><ele>388.0</ele><time>2026-05-02T12:46:49.182Z</time></trkpt><trkpt lat="46.1453381" lon="12.2151514"><ele>386.0</ele><time>2026-05-02T12:46:50.183Z</time></trkpt><trkpt lat="46.1454397" lon="12.2153135"><ele>384.0</ele><time>2026-05-02T12:46:51.183Z</time></trkpt><trkpt lat="46.1455348" lon="12.2154632"><ele>384.0</ele><time>2026-05-02T12:46:52.182Z</time></trkpt><trkpt lat="46.1456311" lon="12.215614"><ele>384.0</ele><time>2026-05-02T12:46:53.183Z</time></trkpt><trkpt lat="46.1457295" lon="12.2157682"><ele>384.0</ele><time>2026-05-02T12:46:54.182Z</time></trkpt><trkpt lat="46.1458296" lon="12.2159258"><ele>384.0</ele><time>2026-05-02T12:46:55.183Z</time></trkpt><trkpt lat="46.14593" lon="12.2160868"><ele>384.5</ele><time>2026-05-02T12:46:56.182Z</time></trkpt><trkpt lat="46.1460322" lon="12.2162501"><ele>385.0</ele><time>2026-05-02T12:46:57.183Z</time></trkpt><trkpt lat="46.1461313" lon="12.2164105"><ele>385.5</ele><time>2026-05-02T12:46:58.183Z</time></trkpt><trkpt lat="46.1462261" lon="12.2165607"><ele>386.0</ele><time>2026-05-02T12:46:59.182Z</time></trkpt><trkpt lat="46.1463142" lon="12.2167033"><ele>386.0</ele><time>2026-05-02T12:47:00.182Z</time></trkpt><trkpt lat="46.1463943" lon="12.216841"><ele>386.0</ele><time>2026-05-02T12:47:01.183Z</time></trkpt><trkpt lat="46.1464596" lon="12.2169813"><ele>386.0</ele><time>2026-05-02T12:47:02.182Z</time></trkpt><trkpt lat="46.146511" lon="12.2171386"><ele>386.0</ele><time>2026-05-02T12:47:03.183Z</time></trkpt><trkpt lat="46.1465452" lon="12.217317"><ele>391.0</ele><time>2026-05-02T12:47:04.182Z</time></trkpt><trkpt lat="46.1465665" lon="12.217517"><ele>396.0</ele><time>2026-05-02T12:47:05.182Z</time></trkpt><trkpt lat="46.1465798" lon="12.2177347"><ele>401.0</ele><time>2026-05-02T12:47:06.182Z</time></trkpt><trkpt lat="46.146592" lon="12.2179671"><ele>400.0</ele><time>2026-05-02T12:47:07.182Z</time></trkpt><trkpt lat="46.1466042" lon="12.2182049"><ele>399.0</ele><time>2026-05-02T12:47:08.183Z</time></trkpt><trkpt lat="46.1466181" lon="12.2184556"><ele>398.0</ele><time>2026-05-02T12:47:09.183Z</time></trkpt><trkpt lat="46.1466322" lon="12.2187101"><ele>398.0</ele><time>2026-05-02T12:47:10.182Z</time></trkpt><trkpt lat="46.146648" lon="12.2189666"><ele>398.0</ele><time>2026-05-02T12:47:11.183Z</time></trkpt><trkpt lat="46.1466623" lon="12.2192244"><ele>398.0</ele><time>2026-05-02T12:47:12.182Z</time></trkpt><trkpt lat="46.1466762" lon="12.2194829"><ele>398.0</ele><time>2026-05-02T12:47:13.183Z</time></trkpt><trkpt lat="46.1466906" lon="12.2197405"><ele>398.0</ele><time>2026-05-02T12:47:14.183Z</time></trkpt><trkpt lat="46.1467047" lon="12.2199956"><ele>398.0</ele><time>2026-05-02T12:47:15.183Z</time></trkpt><trkpt lat="46.1467195" lon="12.2202468"><ele>398.0</ele><time>2026-05-02T12:47:16.183Z</time></trkpt><trkpt lat="46.1467339" lon="12.2204953"><ele>398.0</ele><time>2026-05-02T12:47:17.182Z</time></trkpt><trkpt lat="46.146746" lon="12.2207381"><ele>398.0</ele><time>2026-05-02T12:47:18.183Z</time></trkpt><trkpt lat="46.1467574" lon="12.220958"><ele>398.0</ele><time>2026-05-02T12:47:19.183Z</time></trkpt><trkpt lat="46.1467698" lon="12.2211742"><ele>398.0</ele><time>2026-05-02T12:47:20.182Z</time></trkpt><trkpt lat="46.1467829" lon="12.2213681"><ele>398.0</ele><time>2026-05-02T12:47:21.182Z</time></trkpt><trkpt lat="46.1467957" lon="12.2215588"><ele>398.0</ele><time>2026-05-02T12:47:22.183Z</time></trkpt><trkpt lat="46.1468082" lon="12.2217439"><ele>397.75</ele><time>2026-05-02T12:47:23.183Z</time></trkpt><trkpt lat="46.1468212" lon="12.2219377"><ele>397.5</ele><time>2026-05-02T12:47:24.183Z</time></trkpt><trkpt lat="46.146837" lon="12.2221259"><ele>397.25</ele><time>2026-05-02T12:47:25.182Z</time></trkpt><trkpt lat="46.1468354" lon="12.2223319"><ele>397.0</ele><time>2026-05-02T12:47:26.182Z</time></trkpt><trkpt lat="46.1468502" lon="12.2225438"><ele>396.75</ele><time>2026-05-02T12:47:27.182Z</time></trkpt><trkpt lat="46.1468637" lon="12.222751"><ele>396.5</ele><time>2026-05-02T12:47:28.182Z</time></trkpt><trkpt lat="46.1468851" lon="12.2229573"><ele>396.25</ele><time>2026-05-02T12:47:29.182Z</time></trkpt><trkpt lat="46.1469157" lon="12.2231595"><ele>396.0</ele><time>2026-05-02T12:47:30.182Z</time></trkpt><trkpt lat="46.1469536" lon="12.2233552"><ele>395.5</ele><time>2026-05-02T12:47:31.182Z</time></trkpt><trkpt lat="46.1469994" lon="12.2235468"><ele>395.0</ele><time>2026-05-02T12:47:32.182Z</time></trkpt><trkpt lat="46.1470466" lon="12.2237409"><ele>394.5</ele><time>2026-05-02T12:47:33.182Z</time></trkpt><trkpt lat="46.1470933" lon="12.2239151"><ele>394.0</ele><time>2026-05-02T12:47:34.182Z</time></trkpt><trkpt lat="46.1471407" lon="12.2240784"><ele>393.50000000000006</ele><time>2026-05-02T12:47:35.183Z</time></trkpt><trkpt lat="46.1471823" lon="12.2242173"><ele>393.0</ele><time>2026-05-02T12:47:36.183Z</time></trkpt><trkpt lat="46.1472086" lon="12.2243372"><ele>392.5</ele><time>2026-05-02T12:47:37.182Z</time></trkpt><trkpt lat="46.147212" lon="12.2244556"><ele>392.0</ele><time>2026-05-02T12:47:38.182Z</time></trkpt><trkpt lat="46.1471899" lon="12.2245501"><ele>391.50000000000006</ele><time>2026-05-02T12:47:39.183Z</time></trkpt><trkpt lat="46.147174" lon="12.2246479"><ele>391.0</ele><time>2026-05-02T12:47:40.182Z</time></trkpt><trkpt lat="46.1472173" lon="12.2248011"><ele>390.71428571428567</ele><time>2026-05-02T12:47:42.183Z</time></trkpt><trkpt lat="46.1472796" lon="12.2248613"><ele>390.42857142857144</ele><time>2026-05-02T12:47:43.184Z</time></trkpt><trkpt lat="46.1473376" lon="12.2249218"><ele>390.1428571428571</ele><time>2026-05-02T12:47:44.183Z</time></trkpt><trkpt lat="46.1473881" lon="12.224989"><ele>389.85714285714283</ele><time>2026-05-02T12:47:45.184Z</time></trkpt><trkpt lat="46.1474474" lon="12.2250599"><ele>389.57142857142856</ele><time>2026-05-02T12:47:46.183Z</time></trkpt><trkpt lat="46.1475086" lon="12.2251312"><ele>389.2857142857143</ele><time>2026-05-02T12:47:47.183Z</time></trkpt><trkpt lat="46.147554" lon="12.2251985"><ele>389.0</ele><time>2026-05-02T12:47:48.184Z</time></trkpt><trkpt lat="46.1476317" lon="12.2253145"><ele>388.99999999999994</ele><time>2026-05-02T12:47:50.184Z</time></trkpt><trkpt lat="46.1477243" lon="12.2254138"><ele>389.0</ele><time>2026-05-02T12:47:52.184Z</time></trkpt><trkpt lat="46.1477766" lon="12.2254715"><ele>389.0</ele><time>2026-05-02T12:47:53.183Z</time></trkpt><trkpt lat="46.1478338" lon="12.225534"><ele>389.0</ele><time>2026-05-02T12:47:54.184Z</time></trkpt><trkpt lat="46.1478922" lon="12.225598"><ele>388.99999999999994</ele><time>2026-05-02T12:47:55.184Z</time></trkpt><trkpt lat="46.1479535" lon="12.2256619"><ele>389.0</ele><time>2026-05-02T12:47:56.184Z</time></trkpt><trkpt lat="46.1480058" lon="12.2257175"><ele>388.66666666666663</ele><time>2026-05-02T12:47:57.183Z</time></trkpt><trkpt lat="46.1480998" lon="12.2258125"><ele>388.3333333333333</ele><time>2026-05-02T12:47:59.183Z</time></trkpt><trkpt lat="46.1481894" lon="12.2259064"><ele>388.0</ele><time>2026-05-02T12:48:01.184Z</time></trkpt><trkpt lat="46.1482416" lon="12.2259615"><ele>387.66666666666663</ele><time>2026-05-02T12:48:02.184Z</time></trkpt><trkpt lat="46.1482999" lon="12.2260225"><ele>387.3333333333333</ele><time>2026-05-02T12:48:03.183Z</time></trkpt><trkpt lat="46.1483639" lon="12.2260868"><ele>387.0</ele><time>2026-05-02T12:48:04.184Z</time></trkpt><trkpt lat="46.1484368" lon="12.2261597"><ele>386.75</ele><time>2026-05-02T12:48:05.184Z</time></trkpt><trkpt lat="46.1485231" lon="12.2262452"><ele>386.5</ele><time>2026-05-02T12:48:06.183Z</time></trkpt><trkpt lat="46.1486148" lon="12.2263392"><ele>386.25</ele><time>2026-05-02T12:48:07.184Z</time></trkpt><trkpt lat="46.1487152" lon="12.2264465"><ele>386.0</ele><time>2026-05-02T12:48:08.183Z</time></trkpt><trkpt lat="46.1488054" lon="12.2265433"><ele>386.0</ele><time>2026-05-02T12:48:09.183Z</time></trkpt><trkpt lat="46.14889" lon="12.2266318"><ele>386.0</ele><time>2026-05-02T12:48:10.184Z</time></trkpt><trkpt lat="46.1489759" lon="12.2267218"><ele>386.0</ele><time>2026-05-02T12:48:11.184Z</time></trkpt><trkpt lat="46.1490658" lon="12.2268159"><ele>386.0</ele><time>2026-05-02T12:48:12.184Z</time></trkpt><trkpt lat="46.1491599" lon="12.226917"><ele>386.0</ele><time>2026-05-02T12:48:13.184Z</time></trkpt><trkpt lat="46.149252" lon="12.2270152"><ele>385.99999999999994</ele><time>2026-05-02T12:48:14.184Z</time></trkpt><trkpt lat="46.14934" lon="12.2271077"><ele>386.0</ele><time>2026-05-02T12:48:15.184Z</time></trkpt><trkpt lat="46.1494208" lon="12.2271901"><ele>386.0</ele><time>2026-05-02T12:48:16.184Z</time></trkpt><trkpt lat="46.1494915" lon="12.2272656"><ele>386.0</ele><time>2026-05-02T12:48:17.184Z</time></trkpt><trkpt lat="46.1495552" lon="12.2273332"><ele>385.99999999999994</ele><time>2026-05-02T12:48:18.183Z</time></trkpt><trkpt lat="46.1496096" lon="12.2273952"><ele>386.0</ele><time>2026-05-02T12:48:19.183Z</time></trkpt><trkpt lat="46.14966" lon="12.2274519"><ele>385.6</ele><time>2026-05-02T12:48:20.183Z</time></trkpt><trkpt lat="46.1497486" lon="12.2275934"><ele>385.20000000000005</ele><time>2026-05-02T12:48:22.184Z</time></trkpt><trkpt lat="46.1498044" lon="12.2276853"><ele>384.79999999999995</ele><time>2026-05-02T12:48:23.184Z</time></trkpt><trkpt lat="46.1498773" lon="12.2277559"><ele>384.4</ele><time>2026-05-02T12:48:24.184Z</time></trkpt><trkpt lat="46.1499566" lon="12.2278037"><ele>384.0</ele><time>2026-05-02T12:48:25.183Z</time></trkpt><trkpt lat="46.1500347" lon="12.2278518"><ele>384.0</ele><time>2026-05-02T12:48:26.183Z</time></trkpt><trkpt lat="46.1501079" lon="12.2279187"><ele>384.0</ele><time>2026-05-02T12:48:27.183Z</time></trkpt><trkpt lat="46.1501711" lon="12.2279738"><ele>384.0</ele><time>2026-05-02T12:48:28.183Z</time></trkpt><trkpt lat="46.1502328" lon="12.2280257"><ele>384.0</ele><time>2026-05-02T12:48:29.184Z</time></trkpt><trkpt lat="46.1503" lon="12.2281065"><ele>384.0</ele><time>2026-05-02T12:48:30.184Z</time></trkpt><trkpt lat="46.1503862" lon="12.2282096"><ele>384.0</ele><time>2026-05-02T12:48:31.184Z</time></trkpt><trkpt lat="46.1504819" lon="12.2283224"><ele>383.3333333333333</ele><time>2026-05-02T12:48:32.184Z</time></trkpt><trkpt lat="46.1506049" lon="12.2284562"><ele>382.66666666666663</ele><time>2026-05-02T12:48:33.184Z</time></trkpt><trkpt lat="46.1507313" lon="12.2285954"><ele>382.0</ele><time>2026-05-02T12:48:34.183Z</time></trkpt><trkpt lat="46.1508479" lon="12.2287237"><ele>382.0</ele><time>2026-05-02T12:48:35.185Z</time></trkpt><trkpt lat="46.1509553" lon="12.2288386"><ele>382.0</ele><time>2026-05-02T12:48:36.183Z</time></trkpt><trkpt lat="46.1510534" lon="12.2289428"><ele>382.0</ele><time>2026-05-02T12:48:37.184Z</time></trkpt><trkpt lat="46.1511418" lon="12.2290392"><ele>382.0</ele><time>2026-05-02T12:48:38.184Z</time></trkpt><trkpt lat="46.151224" lon="12.2291287"><ele>382.0</ele><time>2026-05-02T12:48:39.183Z</time></trkpt><trkpt lat="46.1513035" lon="12.2292129"><ele>382.0</ele><time>2026-05-02T12:48:40.184Z</time></trkpt><trkpt lat="46.1513817" lon="12.229296"><ele>382.0</ele><time>2026-05-02T12:48:41.183Z</time></trkpt><trkpt lat="46.1514538" lon="12.2293727"><ele>382.0</ele><time>2026-05-02T12:48:42.183Z</time></trkpt><trkpt lat="46.1515184" lon="12.2294422"><ele>382.0</ele><time>2026-05-02T12:48:43.184Z</time></trkpt><trkpt lat="46.1515726" lon="12.2294987"><ele>382.0</ele><time>2026-05-02T12:48:44.184Z</time></trkpt><trkpt lat="46.1516373" lon="12.2295619"><ele>382.0</ele><time>2026-05-02T12:48:46.184Z</time></trkpt><trkpt lat="46.1517023" lon="12.2296218"><ele>382.0</ele><time>2026-05-02T12:48:52.185Z</time></trkpt><trkpt lat="46.1517661" lon="12.2296925"><ele>382.0</ele><time>2026-05-02T12:48:56.184Z</time></trkpt><trkpt lat="46.1518333" lon="12.2297712"><ele>382.0</ele><time>2026-05-02T12:48:59.184Z</time></trkpt><trkpt lat="46.1518954" lon="12.2298901"><ele>382.0</ele><time>2026-05-02T12:49:01.184Z</time></trkpt><trkpt lat="46.1519556" lon="12.2299727"><ele>382.0</ele><time>2026-05-02T12:49:02.185Z</time></trkpt><trkpt lat="46.1520397" lon="12.2300487"><ele>381.75</ele><time>2026-05-02T12:49:03.185Z</time></trkpt><trkpt lat="46.1521378" lon="12.2301252"><ele>381.5</ele><time>2026-05-02T12:49:04.184Z</time></trkpt><trkpt lat="46.1522402" lon="12.2302177"><ele>381.25</ele><time>2026-05-02T12:49:05.185Z</time></trkpt><trkpt lat="46.152344" lon="12.230322"><ele>381.0</ele><time>2026-05-02T12:49:06.185Z</time></trkpt><trkpt lat="46.1524402" lon="12.230424"><ele>381.0</ele><time>2026-05-02T12:49:07.185Z</time></trkpt><trkpt lat="46.1525281" lon="12.2305191"><ele>381.0</ele><time>2026-05-02T12:49:08.184Z</time></trkpt><trkpt lat="46.1526071" lon="12.2306044"><ele>381.0</ele><time>2026-05-02T12:49:09.185Z</time></trkpt><trkpt lat="46.1526767" lon="12.2306794"><ele>381.0</ele><time>2026-05-02T12:49:10.184Z</time></trkpt><trkpt lat="46.1527373" lon="12.2307487"><ele>381.0</ele><time>2026-05-02T12:49:11.184Z</time></trkpt><trkpt lat="46.1527899" lon="12.2308103"><ele>381.0</ele><time>2026-05-02T12:49:12.185Z</time></trkpt><trkpt lat="46.1528422" lon="12.230868"><ele>380.5</ele><time>2026-05-02T12:49:13.185Z</time></trkpt><trkpt lat="46.1528953" lon="12.2309246"><ele>380.0</ele><time>2026-05-02T12:49:14.184Z</time></trkpt><trkpt lat="46.1529525" lon="12.230984"><ele>379.5</ele><time>2026-05-02T12:49:15.185Z</time></trkpt><trkpt lat="46.1530106" lon="12.2310447"><ele>379.0</ele><time>2026-05-02T12:49:16.184Z</time></trkpt><trkpt lat="46.1530655" lon="12.2311017"><ele>378.5</ele><time>2026-05-02T12:49:17.184Z</time></trkpt><trkpt lat="46.1531673" lon="12.2312093"><ele>378.0</ele><time>2026-05-02T12:49:19.184Z</time></trkpt><trkpt lat="46.1532227" lon="12.2312689"><ele>377.8333333333333</ele><time>2026-05-02T12:49:20.184Z</time></trkpt><trkpt lat="46.1532832" lon="12.2313326"><ele>377.6666666666667</ele><time>2026-05-02T12:49:21.185Z</time></trkpt><trkpt lat="46.1533458" lon="12.2313977"><ele>377.5</ele><time>2026-05-02T12:49:22.184Z</time></trkpt><trkpt lat="46.1534094" lon="12.2314662"><ele>377.33333333333337</ele><time>2026-05-02T12:49:23.184Z</time></trkpt><trkpt lat="46.1534756" lon="12.2315386"><ele>377.1666666666667</ele><time>2026-05-02T12:49:24.184Z</time></trkpt><trkpt lat="46.1535468" lon="12.231616"><ele>377.0</ele><time>2026-05-02T12:49:25.184Z</time></trkpt><trkpt lat="46.1536246" lon="12.2317002"><ele>376.8</ele><time>2026-05-02T12:49:26.185Z</time></trkpt><trkpt lat="46.1537091" lon="12.2317895"><ele>376.6</ele><time>2026-05-02T12:49:27.185Z</time></trkpt><trkpt lat="46.1537986" lon="12.2318831"><ele>376.40000000000003</ele><time>2026-05-02T12:49:28.184Z</time></trkpt><trkpt lat="46.1538909" lon="12.2319802"><ele>376.20000000000005</ele><time>2026-05-02T12:49:29.184Z</time></trkpt><trkpt lat="46.1539854" lon="12.2320822"><ele>376.0</ele><time>2026-05-02T12:49:30.185Z</time></trkpt><trkpt lat="46.1540808" lon="12.2321872"><ele>375.5</ele><time>2026-05-02T12:49:31.184Z</time></trkpt><trkpt lat="46.154175" lon="12.2322901"><ele>375.0</ele><time>2026-05-02T12:49:32.185Z</time></trkpt><trkpt lat="46.1542696" lon="12.2323956"><ele>374.5</ele><time>2026-05-02T12:49:33.185Z</time></trkpt><trkpt lat="46.1543649" lon="12.2325043"><ele>374.0</ele><time>2026-05-02T12:49:34.185Z</time></trkpt><trkpt lat="46.1544598" lon="12.2326151"><ele>374.0</ele><time>2026-05-02T12:49:35.185Z</time></trkpt><trkpt lat="46.1545512" lon="12.2327179"><ele>374.0</ele><time>2026-05-02T12:49:36.184Z</time></trkpt><trkpt lat="46.1546382" lon="12.232813"><ele>374.0</ele><time>2026-05-02T12:49:37.184Z</time></trkpt><trkpt lat="46.1547264" lon="12.2329062"><ele>374.0</ele><time>2026-05-02T12:49:38.185Z</time></trkpt><trkpt lat="46.1548183" lon="12.2329997"><ele>374.0</ele><time>2026-05-02T12:49:39.185Z</time></trkpt><trkpt lat="46.1549125" lon="12.2330959"><ele>373.75</ele><time>2026-05-02T12:49:40.184Z</time></trkpt><trkpt lat="46.1550075" lon="12.2331943"><ele>373.5</ele><time>2026-05-02T12:49:41.185Z</time></trkpt><trkpt lat="46.1551038" lon="12.2332932"><ele>373.25</ele><time>2026-05-02T12:49:42.184Z</time></trkpt><trkpt lat="46.1552025" lon="12.2333908"><ele>373.0</ele><time>2026-05-02T12:49:43.185Z</time></trkpt><trkpt lat="46.1553013" lon="12.2334914"><ele>373.0</ele><time>2026-05-02T12:49:44.186Z</time></trkpt><trkpt lat="46.1553999" lon="12.2335929"><ele>373.0</ele><time>2026-05-02T12:49:45.185Z</time></trkpt><trkpt lat="46.1554984" lon="12.2336956"><ele>373.0</ele><time>2026-05-02T12:49:46.186Z</time></trkpt><trkpt lat="46.1555953" lon="12.2337988"><ele>373.0</ele><time>2026-05-02T12:49:47.185Z</time></trkpt><trkpt lat="46.1556858" lon="12.2338954"><ele>372.5</ele><time>2026-05-02T12:49:48.186Z</time></trkpt><trkpt lat="46.15577" lon="12.233987"><ele>372.0</ele><time>2026-05-02T12:49:49.186Z</time></trkpt><trkpt lat="46.155854" lon="12.2340807"><ele>371.5</ele><time>2026-05-02T12:49:50.185Z</time></trkpt><trkpt lat="46.1559464" lon="12.2341835"><ele>371.0</ele><time>2026-05-02T12:49:51.186Z</time></trkpt><trkpt lat="46.1560451" lon="12.2342927"><ele>371.0</ele><time>2026-05-02T12:49:52.186Z</time></trkpt><trkpt lat="46.1561508" lon="12.2344067"><ele>371.0</ele><time>2026-05-02T12:49:53.186Z</time></trkpt><trkpt lat="46.1562616" lon="12.2345221"><ele>371.0</ele><time>2026-05-02T12:49:54.185Z</time></trkpt><trkpt lat="46.1563768" lon="12.2346389"><ele>371.0</ele><time>2026-05-02T12:49:55.186Z</time></trkpt><trkpt lat="46.1564928" lon="12.2347584"><ele>371.75</ele><time>2026-05-02T12:49:56.186Z</time></trkpt><trkpt lat="46.156609" lon="12.2348781"><ele>372.5</ele><time>2026-05-02T12:49:57.186Z</time></trkpt><trkpt lat="46.1567239" lon="12.2349968"><ele>373.25</ele><time>2026-05-02T12:49:58.186Z</time></trkpt><trkpt lat="46.1568315" lon="12.2351111"><ele>374.0</ele><time>2026-05-02T12:49:59.186Z</time></trkpt><trkpt lat="46.1569325" lon="12.2352175"><ele>374.0</ele><time>2026-05-02T12:50:00.186Z</time></trkpt><trkpt lat="46.1570227" lon="12.2353153"><ele>374.0</ele><time>2026-05-02T12:50:01.185Z</time></trkpt><trkpt lat="46.1571075" lon="12.235409"><ele>374.0</ele><time>2026-05-02T12:50:02.186Z</time></trkpt><trkpt lat="46.1571954" lon="12.2355027"><ele>374.0</ele><time>2026-05-02T12:50:03.185Z</time></trkpt><trkpt lat="46.1572887" lon="12.2356005"><ele>374.0</ele><time>2026-05-02T12:50:04.185Z</time></trkpt><trkpt lat="46.1573859" lon="12.2357006"><ele>373.5</ele><time>2026-05-02T12:50:05.186Z</time></trkpt><trkpt lat="46.1574842" lon="12.2358024"><ele>373.0</ele><time>2026-05-02T12:50:06.186Z</time></trkpt><trkpt lat="46.1575807" lon="12.2359046"><ele>372.5</ele><time>2026-05-02T12:50:07.186Z</time></trkpt><trkpt lat="46.1576745" lon="12.2360042"><ele>372.0</ele><time>2026-05-02T12:50:08.186Z</time></trkpt><trkpt lat="46.1577669" lon="12.2361035"><ele>372.0</ele><time>2026-05-02T12:50:09.186Z</time></trkpt><trkpt lat="46.1578596" lon="12.2362042"><ele>372.0</ele><time>2026-05-02T12:50:10.186Z</time></trkpt><trkpt lat="46.1579515" lon="12.2363056"><ele>372.0</ele><time>2026-05-02T12:50:11.185Z</time></trkpt><trkpt lat="46.158044" lon="12.236406"><ele>372.0</ele><time>2026-05-02T12:50:12.186Z</time></trkpt><trkpt lat="46.1581367" lon="12.2365056"><ele>371.75</ele><time>2026-05-02T12:50:13.185Z</time></trkpt><trkpt lat="46.1582298" lon="12.2366044"><ele>371.5</ele><time>2026-05-02T12:50:14.186Z</time></trkpt><trkpt lat="46.1583229" lon="12.2367037"><ele>371.25</ele><time>2026-05-02T12:50:15.185Z</time></trkpt><trkpt lat="46.1584163" lon="12.2368043"><ele>371.0</ele><time>2026-05-02T12:50:16.185Z</time></trkpt><trkpt lat="46.1585117" lon="12.2369076"><ele>371.0</ele><time>2026-05-02T12:50:17.186Z</time></trkpt><trkpt lat="46.1586086" lon="12.2370127"><ele>371.0</ele><time>2026-05-02T12:50:18.186Z</time></trkpt><trkpt lat="46.1587067" lon="12.2371184"><ele>371.0</ele><time>2026-05-02T12:50:19.186Z</time></trkpt><trkpt lat="46.1588048" lon="12.2372247"><ele>371.0</ele><time>2026-05-02T12:50:20.186Z</time></trkpt><trkpt lat="46.1589021" lon="12.2373295"><ele>371.0</ele><time>2026-05-02T12:50:21.186Z</time></trkpt><trkpt lat="46.158997" lon="12.2374324"><ele>371.0</ele><time>2026-05-02T12:50:22.186Z</time></trkpt><trkpt lat="46.1590849" lon="12.237525"><ele>371.0</ele><time>2026-05-02T12:50:23.185Z</time></trkpt><trkpt lat="46.1591652" lon="12.2376091"><ele>371.0</ele><time>2026-05-02T12:50:24.186Z</time></trkpt><trkpt lat="46.1592387" lon="12.2376888"><ele>371.0</ele><time>2026-05-02T12:50:25.185Z</time></trkpt><trkpt lat="46.1593107" lon="12.2377672"><ele>371.0</ele><time>2026-05-02T12:50:26.185Z</time></trkpt><trkpt lat="46.1593848" lon="12.2378453"><ele>371.0</ele><time>2026-05-02T12:50:27.186Z</time></trkpt><trkpt lat="46.1594591" lon="12.2379252"><ele>371.0</ele><time>2026-05-02T12:50:28.186Z</time></trkpt><trkpt lat="46.1595334" lon="12.2380072"><ele>371.0</ele><time>2026-05-02T12:50:29.185Z</time></trkpt><trkpt lat="46.1596078" lon="12.2380855"><ele>371.0</ele><time>2026-05-02T12:50:30.185Z</time></trkpt><trkpt lat="46.1596839" lon="12.2381643"><ele>371.33333333333337</ele><time>2026-05-02T12:50:31.186Z</time></trkpt><trkpt lat="46.1597563" lon="12.2382389"><ele>371.6666666666667</ele><time>2026-05-02T12:50:32.186Z</time></trkpt><trkpt lat="46.159824" lon="12.2383107"><ele>372.0</ele><time>2026-05-02T12:50:33.186Z</time></trkpt><trkpt lat="46.1598936" lon="12.2383853"><ele>372.3333333333333</ele><time>2026-05-02T12:50:34.186Z</time></trkpt><trkpt lat="46.1599684" lon="12.2384651"><ele>372.66666666666663</ele><time>2026-05-02T12:50:35.186Z</time></trkpt><trkpt lat="46.1600447" lon="12.2385446"><ele>373.0</ele><time>2026-05-02T12:50:36.187Z</time></trkpt><trkpt lat="46.160114" lon="12.2386167"><ele>373.0</ele><time>2026-05-02T12:50:37.186Z</time></trkpt><trkpt lat="46.1601801" lon="12.2386889"><ele>373.0</ele><time>2026-05-02T12:50:38.186Z</time></trkpt><trkpt lat="46.1602479" lon="12.238764"><ele>373.0</ele><time>2026-05-02T12:50:39.187Z</time></trkpt><trkpt lat="46.1603196" lon="12.2388415"><ele>373.0</ele><time>2026-05-02T12:50:40.185Z</time></trkpt><trkpt lat="46.1603873" lon="12.2389138"><ele>373.0</ele><time>2026-05-02T12:50:41.185Z</time></trkpt><trkpt lat="46.1604512" lon="12.2389822"><ele>373.0</ele><time>2026-05-02T12:50:42.185Z</time></trkpt><trkpt lat="46.1605072" lon="12.2390422"><ele>373.4</ele><time>2026-05-02T12:50:43.186Z</time></trkpt><trkpt lat="46.1606043" lon="12.2391451"><ele>373.79999999999995</ele><time>2026-05-02T12:50:45.187Z</time></trkpt><trkpt lat="46.1607048" lon="12.2392525"><ele>374.2</ele><time>2026-05-02T12:50:47.187Z</time></trkpt><trkpt lat="46.1607587" lon="12.2393114"><ele>374.6</ele><time>2026-05-02T12:50:48.186Z</time></trkpt><trkpt lat="46.1608557" lon="12.239417"><ele>375.0</ele><time>2026-05-02T12:50:50.187Z</time></trkpt><trkpt lat="46.1609351" lon="12.2395009"><ele>375.0</ele><time>2026-05-02T12:50:52.186Z</time></trkpt><trkpt lat="46.1609959" lon="12.2395632"><ele>375.0</ele><time>2026-05-02T12:50:54.187Z</time></trkpt><trkpt lat="46.1610562" lon="12.2396297"><ele>375.0</ele><time>2026-05-02T12:50:56.186Z</time></trkpt><trkpt lat="46.1611399" lon="12.2397221"><ele>375.0</ele><time>2026-05-02T12:50:58.186Z</time></trkpt><trkpt lat="46.1612429" lon="12.2398289"><ele>375.0</ele><time>2026-05-02T12:51:00.187Z</time></trkpt><trkpt lat="46.1613024" lon="12.239891"><ele>374.8333333333333</ele><time>2026-05-02T12:51:01.186Z</time></trkpt><trkpt lat="46.1613622" lon="12.2399564"><ele>374.6666666666667</ele><time>2026-05-02T12:51:02.187Z</time></trkpt><trkpt lat="46.1614238" lon="12.2400232"><ele>374.5</ele><time>2026-05-02T12:51:03.187Z</time></trkpt><trkpt lat="46.161484" lon="12.2400911"><ele>374.33333333333337</ele><time>2026-05-02T12:51:04.186Z</time></trkpt><trkpt lat="46.1615474" lon="12.240162"><ele>374.1666666666667</ele><time>2026-05-02T12:51:05.186Z</time></trkpt><trkpt lat="46.1616206" lon="12.2402442"><ele>374.0</ele><time>2026-05-02T12:51:06.187Z</time></trkpt><trkpt lat="46.161702" lon="12.2403338"><ele>374.25</ele><time>2026-05-02T12:51:07.187Z</time></trkpt><trkpt lat="46.1617934" lon="12.2404328"><ele>374.5</ele><time>2026-05-02T12:51:08.187Z</time></trkpt><trkpt lat="46.1618939" lon="12.2405404"><ele>374.75</ele><time>2026-05-02T12:51:09.186Z</time></trkpt><trkpt lat="46.1619988" lon="12.2406556"><ele>375.0</ele><time>2026-05-02T12:51:10.186Z</time></trkpt><trkpt lat="46.1621092" lon="12.2407761"><ele>375.0</ele><time>2026-05-02T12:51:11.187Z</time></trkpt><trkpt lat="46.1622125" lon="12.240887"><ele>375.0</ele><time>2026-05-02T12:51:12.186Z</time></trkpt><trkpt lat="46.1623061" lon="12.2409841"><ele>375.0</ele><time>2026-05-02T12:51:13.186Z</time></trkpt><trkpt lat="46.1623976" lon="12.2410756"><ele>375.0</ele><time>2026-05-02T12:51:14.186Z</time></trkpt><trkpt lat="46.1624891" lon="12.2411668"><ele>375.0</ele><time>2026-05-02T12:51:15.186Z</time></trkpt><trkpt lat="46.162581" lon="12.241262"><ele>375.0</ele><time>2026-05-02T12:51:16.187Z</time></trkpt><trkpt lat="46.1626725" lon="12.2413582"><ele>375.0</ele><time>2026-05-02T12:51:17.187Z</time></trkpt><trkpt lat="46.162764" lon="12.2414547"><ele>375.0</ele><time>2026-05-02T12:51:18.186Z</time></trkpt><trkpt lat="46.1628589" lon="12.2415546"><ele>375.0</ele><time>2026-05-02T12:51:19.187Z</time></trkpt><trkpt lat="46.1629565" lon="12.2416543"><ele>375.0</ele><time>2026-05-02T12:51:20.186Z</time></trkpt><trkpt lat="46.1630587" lon="12.2417582"><ele>375.0</ele><time>2026-05-02T12:51:21.187Z</time></trkpt><trkpt lat="46.1631615" lon="12.2418641"><ele>375.0</ele><time>2026-05-02T12:51:22.187Z</time></trkpt><trkpt lat="46.1632621" lon="12.2419704"><ele>375.0</ele><time>2026-05-02T12:51:23.186Z</time></trkpt><trkpt lat="46.1633635" lon="12.2420764"><ele>375.0</ele><time>2026-05-02T12:51:24.186Z</time></trkpt><trkpt lat="46.1634562" lon="12.2421756"><ele>375.0</ele><time>2026-05-02T12:51:25.187Z</time></trkpt><trkpt lat="46.1635442" lon="12.2422713"><ele>375.0</ele><time>2026-05-02T12:51:26.186Z</time></trkpt><trkpt lat="46.1636365" lon="12.2423695"><ele>375.0</ele><time>2026-05-02T12:51:27.186Z</time></trkpt><trkpt lat="46.1637381" lon="12.2424718"><ele>375.0</ele><time>2026-05-02T12:51:28.187Z</time></trkpt><trkpt lat="46.1638411" lon="12.2425837"><ele>375.0</ele><time>2026-05-02T12:51:29.187Z</time></trkpt><trkpt lat="46.1639464" lon="12.2427107"><ele>375.0</ele><time>2026-05-02T12:51:30.187Z</time></trkpt><trkpt lat="46.1640528" lon="12.2428377"><ele>375.4</ele><time>2026-05-02T12:51:31.186Z</time></trkpt><trkpt lat="46.1641525" lon="12.2429478"><ele>375.8</ele><time>2026-05-02T12:51:32.187Z</time></trkpt><trkpt lat="46.1642437" lon="12.2430437"><ele>376.20000000000005</ele><time>2026-05-02T12:51:33.187Z</time></trkpt><trkpt lat="46.1643255" lon="12.2431309"><ele>376.6</ele><time>2026-05-02T12:51:34.187Z</time></trkpt><trkpt lat="46.1644057" lon="12.2432197"><ele>377.0</ele><time>2026-05-02T12:51:35.187Z</time></trkpt><trkpt lat="46.1644869" lon="12.2433088"><ele>377.0</ele><time>2026-05-02T12:51:36.187Z</time></trkpt><trkpt lat="46.164569" lon="12.2433968"><ele>377.0</ele><time>2026-05-02T12:51:37.187Z</time></trkpt><trkpt lat="46.1646515" lon="12.2434865"><ele>377.0</ele><time>2026-05-02T12:51:38.187Z</time></trkpt><trkpt lat="46.1647352" lon="12.2435792"><ele>377.0</ele><time>2026-05-02T12:51:39.187Z</time></trkpt><trkpt lat="46.1648222" lon="12.2436765"><ele>377.0</ele><time>2026-05-02T12:51:40.186Z</time></trkpt><trkpt lat="46.1649165" lon="12.2437778"><ele>377.40000000000003</ele><time>2026-05-02T12:51:41.186Z</time></trkpt><trkpt lat="46.1650114" lon="12.2438788"><ele>377.8</ele><time>2026-05-02T12:51:42.188Z</time></trkpt><trkpt lat="46.1650978" lon="12.2439697"><ele>378.2</ele><time>2026-05-02T12:51:43.187Z</time></trkpt><trkpt lat="46.1651853" lon="12.24406"><ele>378.6</ele><time>2026-05-02T12:51:44.188Z</time></trkpt><trkpt lat="46.1652748" lon="12.2441551"><ele>379.0</ele><time>2026-05-02T12:51:45.188Z</time></trkpt><trkpt lat="46.1653663" lon="12.2442537"><ele>379.0</ele><time>2026-05-02T12:51:46.188Z</time></trkpt><trkpt lat="46.1654582" lon="12.2443542"><ele>379.0</ele><time>2026-05-02T12:51:47.187Z</time></trkpt><trkpt lat="46.1655509" lon="12.2444557"><ele>379.0</ele><time>2026-05-02T12:51:48.187Z</time></trkpt><trkpt lat="46.1656462" lon="12.2445568"><ele>379.0</ele><time>2026-05-02T12:51:49.188Z</time></trkpt><trkpt lat="46.1657521" lon="12.2446587"><ele>379.3333333333333</ele><time>2026-05-02T12:51:50.187Z</time></trkpt><trkpt lat="46.1658752" lon="12.2447697"><ele>379.6666666666667</ele><time>2026-05-02T12:51:51.188Z</time></trkpt><trkpt lat="46.1660107" lon="12.2448974"><ele>380.0</ele><time>2026-05-02T12:51:52.187Z</time></trkpt><trkpt lat="46.166171" lon="12.2450598"><ele>380.0</ele><time>2026-05-02T12:51:53.187Z</time></trkpt><trkpt lat="46.1663375" lon="12.2452404"><ele>380.0</ele><time>2026-05-02T12:51:54.188Z</time></trkpt><trkpt lat="46.166483" lon="12.2454177"><ele>380.0</ele><time>2026-05-02T12:51:55.188Z</time></trkpt><trkpt lat="46.1666117" lon="12.2455803"><ele>380.0</ele><time>2026-05-02T12:51:56.188Z</time></trkpt><trkpt lat="46.1667321" lon="12.2457243"><ele>380.0</ele><time>2026-05-02T12:51:57.187Z</time></trkpt><trkpt lat="46.1668475" lon="12.2458616"><ele>380.0</ele><time>2026-05-02T12:51:58.188Z</time></trkpt><trkpt lat="46.1669603" lon="12.246006"><ele>380.0</ele><time>2026-05-02T12:51:59.188Z</time></trkpt><trkpt lat="46.1670681" lon="12.2461601"><ele>380.0</ele><time>2026-05-02T12:52:00.188Z</time></trkpt><trkpt lat="46.16717" lon="12.2463221"><ele>380.0</ele><time>2026-05-02T12:52:01.188Z</time></trkpt><trkpt lat="46.167268" lon="12.2464976"><ele>380.0</ele><time>2026-05-02T12:52:02.188Z</time></trkpt><trkpt lat="46.1673644" lon="12.2466824"><ele>380.0</ele><time>2026-05-02T12:52:03.187Z</time></trkpt><trkpt lat="46.1674609" lon="12.2468693"><ele>380.0</ele><time>2026-05-02T12:52:04.188Z</time></trkpt><trkpt lat="46.1675557" lon="12.247061"><ele>380.0</ele><time>2026-05-02T12:52:05.188Z</time></trkpt><trkpt lat="46.1676461" lon="12.2472537"><ele>380.0</ele><time>2026-05-02T12:52:06.188Z</time></trkpt><trkpt lat="46.167737" lon="12.2474449"><ele>380.0</ele><time>2026-05-02T12:52:07.188Z</time></trkpt><trkpt lat="46.1678269" lon="12.2476289"><ele>379.5</ele><time>2026-05-02T12:52:08.187Z</time></trkpt><trkpt lat="46.167911" lon="12.2478029"><ele>379.0</ele><time>2026-05-02T12:52:09.188Z</time></trkpt><trkpt lat="46.1679903" lon="12.2479648"><ele>378.5</ele><time>2026-05-02T12:52:10.188Z</time></trkpt><trkpt lat="46.1680622" lon="12.2481116"><ele>378.0</ele><time>2026-05-02T12:52:11.188Z</time></trkpt><trkpt lat="46.1681272" lon="12.2482538"><ele>378.0</ele><time>2026-05-02T12:52:12.188Z</time></trkpt><trkpt lat="46.1681926" lon="12.2483967"><ele>378.0</ele><time>2026-05-02T12:52:13.188Z</time></trkpt><trkpt lat="46.1682616" lon="12.2485424"><ele>378.0</ele><time>2026-05-02T12:52:14.188Z</time></trkpt><trkpt lat="46.1683272" lon="12.2486759"><ele>378.0</ele><time>2026-05-02T12:52:15.187Z</time></trkpt><trkpt lat="46.1683852" lon="12.2487935"><ele>378.1666666666667</ele><time>2026-05-02T12:52:16.188Z</time></trkpt><trkpt lat="46.1684328" lon="12.2488919"><ele>378.3333333333333</ele><time>2026-05-02T12:52:17.187Z</time></trkpt><trkpt lat="46.1684718" lon="12.248975"><ele>378.5</ele><time>2026-05-02T12:52:19.188Z</time></trkpt><trkpt lat="46.1685202" lon="12.2490698"><ele>378.66666666666663</ele><time>2026-05-02T12:52:33.189Z</time></trkpt><trkpt lat="46.1685574" lon="12.2491457"><ele>378.8333333333333</ele><time>2026-05-02T12:52:34.188Z</time></trkpt><trkpt lat="46.1686061" lon="12.2492412"><ele>379.0</ele><time>2026-05-02T12:52:35.188Z</time></trkpt><trkpt lat="46.1686589" lon="12.2493458"><ele>379.00000000000006</ele><time>2026-05-02T12:52:36.187Z</time></trkpt><trkpt lat="46.1687091" lon="12.2494515"><ele>379.0</ele><time>2026-05-02T12:52:37.188Z</time></trkpt><trkpt lat="46.1687503" lon="12.2495489"><ele>379.0</ele><time>2026-05-02T12:52:38.188Z</time></trkpt><trkpt lat="46.168783" lon="12.249635"><ele>379.0</ele><time>2026-05-02T12:52:39.189Z</time></trkpt><trkpt lat="46.1688101" lon="12.2497197"><ele>379.0</ele><time>2026-05-02T12:52:40.187Z</time></trkpt><trkpt lat="46.1688316" lon="12.2498101"><ele>379.00000000000006</ele><time>2026-05-02T12:52:41.187Z</time></trkpt><trkpt lat="46.1688502" lon="12.249905"><ele>379.0</ele><time>2026-05-02T12:52:42.188Z</time></trkpt><trkpt lat="46.1688801" lon="12.2499964"><ele>379.16666666666663</ele><time>2026-05-02T12:52:43.189Z</time></trkpt><trkpt lat="46.1689291" lon="12.250073"><ele>379.3333333333333</ele><time>2026-05-02T12:52:44.189Z</time></trkpt><trkpt lat="46.1689926" lon="12.2501341"><ele>379.5</ele><time>2026-05-02T12:52:45.188Z</time></trkpt><trkpt lat="46.1690594" lon="12.2502112"><ele>379.6666666666667</ele><time>2026-05-02T12:52:46.189Z</time></trkpt><trkpt lat="46.16912" lon="12.2503179"><ele>379.83333333333337</ele><time>2026-05-02T12:52:47.189Z</time></trkpt><trkpt lat="46.1691777" lon="12.250443"><ele>380.0</ele><time>2026-05-02T12:52:48.188Z</time></trkpt><trkpt lat="46.1692377" lon="12.2505784"><ele>380.25</ele><time>2026-05-02T12:52:49.189Z</time></trkpt><trkpt lat="46.1693024" lon="12.2507202"><ele>380.5</ele><time>2026-05-02T12:52:50.188Z</time></trkpt><trkpt lat="46.1693714" lon="12.2508667"><ele>380.75</ele><time>2026-05-02T12:52:51.188Z</time></trkpt><trkpt lat="46.1694404" lon="12.2510144"><ele>381.0</ele><time>2026-05-02T12:52:52.188Z</time></trkpt><trkpt lat="46.1695153" lon="12.251172"><ele>381.0</ele><time>2026-05-02T12:52:53.188Z</time></trkpt><trkpt lat="46.169591" lon="12.2513333"><ele>381.0</ele><time>2026-05-02T12:52:54.188Z</time></trkpt><trkpt lat="46.1696687" lon="12.251495"><ele>381.0</ele><time>2026-05-02T12:52:55.188Z</time></trkpt><trkpt lat="46.1697489" lon="12.2516608"><ele>381.0</ele><time>2026-05-02T12:52:56.188Z</time></trkpt><trkpt lat="46.1698379" lon="12.2518493"><ele>380.6666666666667</ele><time>2026-05-02T12:52:57.188Z</time></trkpt><trkpt lat="46.1699325" lon="12.252048"><ele>380.33333333333337</ele><time>2026-05-02T12:52:58.188Z</time></trkpt><trkpt lat="46.1700292" lon="12.2522518"><ele>380.0</ele><time>2026-05-02T12:52:59.188Z</time></trkpt><trkpt lat="46.1701268" lon="12.2524574"><ele>381.0</ele><time>2026-05-02T12:53:00.189Z</time></trkpt><trkpt lat="46.1702251" lon="12.2526628"><ele>382.0</ele><time>2026-05-02T12:53:01.189Z</time></trkpt><trkpt lat="46.1703219" lon="12.2528669"><ele>383.0</ele><time>2026-05-02T12:53:02.188Z</time></trkpt><trkpt lat="46.1704175" lon="12.2530685"><ele>383.0</ele><time>2026-05-02T12:53:03.189Z</time></trkpt><trkpt lat="46.1705145" lon="12.2532706"><ele>383.0</ele><time>2026-05-02T12:53:04.188Z</time></trkpt><trkpt lat="46.1706124" lon="12.2534756"><ele>383.0</ele><time>2026-05-02T12:53:05.188Z</time></trkpt><trkpt lat="46.1707119" lon="12.2536849"><ele>383.0</ele><time>2026-05-02T12:53:06.188Z</time></trkpt><trkpt lat="46.170815" lon="12.2539006"><ele>383.0</ele><time>2026-05-02T12:53:07.188Z</time></trkpt><trkpt lat="46.1709211" lon="12.2541232"><ele>383.0</ele><time>2026-05-02T12:53:08.189Z</time></trkpt><trkpt lat="46.1710298" lon="12.2543516"><ele>383.0</ele><time>2026-05-02T12:53:09.188Z</time></trkpt><trkpt lat="46.1711403" lon="12.2545785"><ele>383.0</ele><time>2026-05-02T12:53:10.189Z</time></trkpt><trkpt lat="46.1712584" lon="12.254818"><ele>383.0</ele><time>2026-05-02T12:53:11.189Z</time></trkpt><trkpt lat="46.1713707" lon="12.2550522"><ele>382.6666666666667</ele><time>2026-05-02T12:53:12.189Z</time></trkpt><trkpt lat="46.1714868" lon="12.2552904"><ele>382.3333333333333</ele><time>2026-05-02T12:53:13.188Z</time></trkpt><trkpt lat="46.1716014" lon="12.2555298"><ele>382.0</ele><time>2026-05-02T12:53:14.189Z</time></trkpt><trkpt lat="46.1717161" lon="12.2557646"><ele>382.0</ele><time>2026-05-02T12:53:15.189Z</time></trkpt><trkpt lat="46.1718334" lon="12.2560106"><ele>382.0</ele><time>2026-05-02T12:53:16.188Z</time></trkpt><trkpt lat="46.1719513" lon="12.2562599"><ele>382.0</ele><time>2026-05-02T12:53:17.189Z</time></trkpt><trkpt lat="46.172068" lon="12.2565088"><ele>381.3333333333333</ele><time>2026-05-02T12:53:18.189Z</time></trkpt><trkpt lat="46.1721861" lon="12.256763"><ele>380.6666666666667</ele><time>2026-05-02T12:53:19.188Z</time></trkpt><trkpt lat="46.1723108" lon="12.2570091"><ele>380.0</ele><time>2026-05-02T12:53:20.188Z</time></trkpt><trkpt lat="46.1724309" lon="12.2572584"><ele>381.6666666666667</ele><time>2026-05-02T12:53:21.188Z</time></trkpt><trkpt lat="46.1725529" lon="12.2575143"><ele>383.33333333333337</ele><time>2026-05-02T12:53:22.188Z</time></trkpt><trkpt lat="46.1726737" lon="12.2577673"><ele>385.0</ele><time>2026-05-02T12:53:23.189Z</time></trkpt><trkpt lat="46.1727898" lon="12.2580178"><ele>384.0</ele><time>2026-05-02T12:53:24.188Z</time></trkpt><trkpt lat="46.1729117" lon="12.2582722"><ele>383.0</ele><time>2026-05-02T12:53:25.189Z</time></trkpt><trkpt lat="46.173028" lon="12.2585248"><ele>382.0</ele><time>2026-05-02T12:53:26.189Z</time></trkpt><trkpt lat="46.1731438" lon="12.2587731"><ele>383.0</ele><time>2026-05-02T12:53:27.188Z</time></trkpt><trkpt lat="46.1732562" lon="12.2590189"><ele>384.0</ele><time>2026-05-02T12:53:28.188Z</time></trkpt><trkpt lat="46.1733592" lon="12.2592683"><ele>385.0</ele><time>2026-05-02T12:53:29.188Z</time></trkpt><trkpt lat="46.173458" lon="12.2595253"><ele>384.33333333333337</ele><time>2026-05-02T12:53:30.188Z</time></trkpt><trkpt lat="46.1735433" lon="12.2597904"><ele>383.6666666666667</ele><time>2026-05-02T12:53:31.188Z</time></trkpt><trkpt lat="46.1736205" lon="12.2600624"><ele>383.0</ele><time>2026-05-02T12:53:32.188Z</time></trkpt><trkpt lat="46.173696" lon="12.2603381"><ele>382.0</ele><time>2026-05-02T12:53:33.188Z</time></trkpt><trkpt lat="46.1737723" lon="12.2606168"><ele>381.0</ele><time>2026-05-02T12:53:34.189Z</time></trkpt><trkpt lat="46.1738482" lon="12.2608966"><ele>380.0</ele><time>2026-05-02T12:53:35.19Z</time></trkpt><trkpt lat="46.1739248" lon="12.2611753"><ele>377.33333333333337</ele><time>2026-05-02T12:53:36.189Z</time></trkpt><trkpt lat="46.1740093" lon="12.2614524"><ele>374.6666666666667</ele><time>2026-05-02T12:53:37.188Z</time></trkpt><trkpt lat="46.1741116" lon="12.2617197"><ele>372.0</ele><time>2026-05-02T12:53:38.188Z</time></trkpt><trkpt lat="46.1742263" lon="12.2619787"><ele>375.6666666666667</ele><time>2026-05-02T12:53:39.188Z</time></trkpt><trkpt lat="46.1743452" lon="12.2622346"><ele>379.33333333333337</ele><time>2026-05-02T12:53:40.189Z</time></trkpt><trkpt lat="46.1744648" lon="12.2624899"><ele>383.0</ele><time>2026-05-02T12:53:41.189Z</time></trkpt><trkpt lat="46.1745831" lon="12.2627479"><ele>383.0</ele><time>2026-05-02T12:53:42.19Z</time></trkpt><trkpt lat="46.1747012" lon="12.263009"><ele>383.0</ele><time>2026-05-02T12:53:43.19Z</time></trkpt><trkpt lat="46.1748231" lon="12.2632646"><ele>383.0</ele><time>2026-05-02T12:53:44.19Z</time></trkpt><trkpt lat="46.1749497" lon="12.2635113"><ele>386.33333333333337</ele><time>2026-05-02T12:53:45.19Z</time></trkpt><trkpt lat="46.1750825" lon="12.2637468"><ele>389.6666666666667</ele><time>2026-05-02T12:53:46.189Z</time></trkpt><trkpt lat="46.1752268" lon="12.263979"><ele>393.0</ele><time>2026-05-02T12:53:47.19Z</time></trkpt><trkpt lat="46.1753912" lon="12.2642131"><ele>393.0</ele><time>2026-05-02T12:53:48.19Z</time></trkpt><trkpt lat="46.1755664" lon="12.2644403"><ele>393.0</ele><time>2026-05-02T12:53:49.189Z</time></trkpt><trkpt lat="46.1757396" lon="12.2646529"><ele>394.33333333333337</ele><time>2026-05-02T12:53:50.19Z</time></trkpt><trkpt lat="46.1759088" lon="12.2648514"><ele>395.6666666666667</ele><time>2026-05-02T12:53:51.189Z</time></trkpt><trkpt lat="46.1760744" lon="12.2650437"><ele>397.0</ele><time>2026-05-02T12:53:52.19Z</time></trkpt><trkpt lat="46.1762343" lon="12.2652333"><ele>397.0</ele><time>2026-05-02T12:53:53.189Z</time></trkpt><trkpt lat="46.1763925" lon="12.2654275"><ele>397.0</ele><time>2026-05-02T12:53:54.189Z</time></trkpt><trkpt lat="46.1765514" lon="12.2656215"><ele>397.0</ele><time>2026-05-02T12:53:55.189Z</time></trkpt><trkpt lat="46.1767104" lon="12.2658128"><ele>396.6666666666667</ele><time>2026-05-02T12:53:56.189Z</time></trkpt><trkpt lat="46.1768622" lon="12.2659992"><ele>396.33333333333337</ele><time>2026-05-02T12:53:57.19Z</time></trkpt><trkpt lat="46.1770082" lon="12.2661728"><ele>396.0</ele><time>2026-05-02T12:53:58.189Z</time></trkpt><trkpt lat="46.1771498" lon="12.2663408"><ele>396.0</ele><time>2026-05-02T12:53:59.189Z</time></trkpt><trkpt lat="46.1772887" lon="12.2665074"><ele>396.0</ele><time>2026-05-02T12:54:00.189Z</time></trkpt><trkpt lat="46.1774282" lon="12.2666747"><ele>396.0</ele><time>2026-05-02T12:54:01.19Z</time></trkpt><trkpt lat="46.1775712" lon="12.2668424"><ele>396.0</ele><time>2026-05-02T12:54:02.189Z</time></trkpt><trkpt lat="46.1777143" lon="12.26701"><ele>396.0</ele><time>2026-05-02T12:54:03.19Z</time></trkpt><trkpt lat="46.1778527" lon="12.2671761"><ele>396.0</ele><time>2026-05-02T12:54:04.19Z</time></trkpt><trkpt lat="46.1779851" lon="12.2673363"><ele>396.33333333333337</ele><time>2026-05-02T12:54:05.19Z</time></trkpt><trkpt lat="46.1781077" lon="12.2674876"><ele>396.6666666666667</ele><time>2026-05-02T12:54:06.189Z</time></trkpt><trkpt lat="46.1782258" lon="12.2676266"><ele>397.0</ele><time>2026-05-02T12:54:07.19Z</time></trkpt><trkpt lat="46.1783393" lon="12.2677637"><ele>397.0</ele><time>2026-05-02T12:54:08.19Z</time></trkpt><trkpt lat="46.1784542" lon="12.2679027"><ele>397.0</ele><time>2026-05-02T12:54:09.19Z</time></trkpt><trkpt lat="46.1785717" lon="12.2680382"><ele>397.0</ele><time>2026-05-02T12:54:10.19Z</time></trkpt><trkpt lat="46.178692" lon="12.2681813"><ele>396.33333333333337</ele><time>2026-05-02T12:54:11.189Z</time></trkpt><trkpt lat="46.1788177" lon="12.2683278"><ele>395.66666666666663</ele><time>2026-05-02T12:54:12.189Z</time></trkpt><trkpt lat="46.1789435" lon="12.2684813"><ele>395.0</ele><time>2026-05-02T12:54:13.19Z</time></trkpt><trkpt lat="46.1790751" lon="12.2686355"><ele>395.0</ele><time>2026-05-02T12:54:14.19Z</time></trkpt><trkpt lat="46.1792063" lon="12.2687909"><ele>395.0</ele><time>2026-05-02T12:54:15.189Z</time></trkpt><trkpt lat="46.1793371" lon="12.2689468"><ele>395.0</ele><time>2026-05-02T12:54:16.189Z</time></trkpt><trkpt lat="46.1794613" lon="12.2690946"><ele>392.3333333333333</ele><time>2026-05-02T12:54:17.189Z</time></trkpt><trkpt lat="46.1795826" lon="12.2692374"><ele>389.66666666666663</ele><time>2026-05-02T12:54:18.189Z</time></trkpt><trkpt lat="46.1797044" lon="12.2693814"><ele>387.0</ele><time>2026-05-02T12:54:19.189Z</time></trkpt><trkpt lat="46.1798284" lon="12.269532"><ele>388.33333333333337</ele><time>2026-05-02T12:54:20.19Z</time></trkpt><trkpt lat="46.1799533" lon="12.2696844"><ele>389.6666666666667</ele><time>2026-05-02T12:54:21.19Z</time></trkpt><trkpt lat="46.1800846" lon="12.2698403"><ele>391.0</ele><time>2026-05-02T12:54:22.19Z</time></trkpt><trkpt lat="46.1802177" lon="12.2700008"><ele>391.0</ele><time>2026-05-02T12:54:23.189Z</time></trkpt><trkpt lat="46.1803497" lon="12.2701789"><ele>391.0</ele><time>2026-05-02T12:54:24.189Z</time></trkpt><trkpt lat="46.1804773" lon="12.2703746"><ele>391.0</ele><time>2026-05-02T12:54:25.191Z</time></trkpt><trkpt lat="46.1805904" lon="12.2705794"><ele>391.6666666666667</ele><time>2026-05-02T12:54:26.189Z</time></trkpt><trkpt lat="46.1806904" lon="12.2707742"><ele>392.33333333333337</ele><time>2026-05-02T12:54:27.19Z</time></trkpt><trkpt lat="46.1807821" lon="12.2709603"><ele>393.0</ele><time>2026-05-02T12:54:28.189Z</time></trkpt><trkpt lat="46.1808692" lon="12.2711454"><ele>393.0</ele><time>2026-05-02T12:54:29.189Z</time></trkpt><trkpt lat="46.1809528" lon="12.271342"><ele>393.0</ele><time>2026-05-02T12:54:30.189Z</time></trkpt><trkpt lat="46.1810312" lon="12.2715479"><ele>393.0</ele><time>2026-05-02T12:54:31.191Z</time></trkpt><trkpt lat="46.1810921" lon="12.2717548"><ele>393.0</ele><time>2026-05-02T12:54:32.19Z</time></trkpt><trkpt lat="46.1811427" lon="12.2719507"><ele>393.0</ele><time>2026-05-02T12:54:33.189Z</time></trkpt><trkpt lat="46.181185" lon="12.272146"><ele>393.0</ele><time>2026-05-02T12:54:34.19Z</time></trkpt><trkpt lat="46.1812176" lon="12.2723439"><ele>393.0</ele><time>2026-05-02T12:54:35.189Z</time></trkpt><trkpt lat="46.1812409" lon="12.2725393"><ele>393.75</ele><time>2026-05-02T12:54:36.19Z</time></trkpt><trkpt lat="46.1812577" lon="12.272721"><ele>394.5</ele><time>2026-05-02T12:54:37.19Z</time></trkpt><trkpt lat="46.18127" lon="12.2729019"><ele>395.25</ele><time>2026-05-02T12:54:38.19Z</time></trkpt><trkpt lat="46.1812745" lon="12.2730772"><ele>396.0</ele><time>2026-05-02T12:54:39.19Z</time></trkpt><trkpt lat="46.1812741" lon="12.2732399"><ele>396.0</ele><time>2026-05-02T12:54:40.19Z</time></trkpt><trkpt lat="46.1812685" lon="12.2733969"><ele>396.0</ele><time>2026-05-02T12:54:41.19Z</time></trkpt><trkpt lat="46.1812573" lon="12.273552"><ele>396.0</ele><time>2026-05-02T12:54:42.191Z</time></trkpt><trkpt lat="46.1812405" lon="12.2737057"><ele>396.0</ele><time>2026-05-02T12:54:43.19Z</time></trkpt><trkpt lat="46.1812136" lon="12.2738591"><ele>396.0</ele><time>2026-05-02T12:54:44.19Z</time></trkpt><trkpt lat="46.1811812" lon="12.2740103"><ele>396.0</ele><time>2026-05-02T12:54:45.191Z</time></trkpt><trkpt lat="46.1811581" lon="12.2741662"><ele>396.0</ele><time>2026-05-02T12:54:46.19Z</time></trkpt><trkpt lat="46.1811389" lon="12.2743249"><ele>396.0</ele><time>2026-05-02T12:54:47.19Z</time></trkpt><trkpt lat="46.181121" lon="12.274475"><ele>396.0</ele><time>2026-05-02T12:54:48.19Z</time></trkpt><trkpt lat="46.1811023" lon="12.2746149"><ele>396.0</ele><time>2026-05-02T12:54:49.191Z</time></trkpt><trkpt lat="46.1810811" lon="12.2747421"><ele>395.8</ele><time>2026-05-02T12:54:50.19Z</time></trkpt><trkpt lat="46.1810621" lon="12.274858"><ele>395.6</ele><time>2026-05-02T12:54:51.191Z</time></trkpt><trkpt lat="46.1810455" lon="12.2749582"><ele>395.4</ele><time>2026-05-02T12:54:52.191Z</time></trkpt><trkpt lat="46.1810209" lon="12.2751219"><ele>395.2</ele><time>2026-05-02T12:54:54.19Z</time></trkpt><trkpt lat="46.180995" lon="12.2753026"><ele>395.0</ele><time>2026-05-02T12:54:56.191Z</time></trkpt><trkpt lat="46.1809812" lon="12.2754045"><ele>394.99999999999994</ele><time>2026-05-02T12:54:57.191Z</time></trkpt><trkpt lat="46.1809649" lon="12.2755043"><ele>395.0</ele><time>2026-05-02T12:54:58.191Z</time></trkpt><trkpt lat="46.1809445" lon="12.2756075"><ele>395.0</ele><time>2026-05-02T12:54:59.19Z</time></trkpt><trkpt lat="46.1809171" lon="12.2757057"><ele>395.0</ele><time>2026-05-02T12:55:00.191Z</time></trkpt><trkpt lat="46.180882" lon="12.2758646"><ele>394.99999999999994</ele><time>2026-05-02T12:55:02.19Z</time></trkpt><trkpt lat="46.1808706" lon="12.2760152"><ele>395.0</ele><time>2026-05-02T12:55:04.19Z</time></trkpt><trkpt lat="46.1808573" lon="12.2761772"><ele>395.16666666666663</ele><time>2026-05-02T12:55:06.191Z</time></trkpt><trkpt lat="46.1808264" lon="12.2763559"><ele>395.3333333333333</ele><time>2026-05-02T12:55:08.191Z</time></trkpt><trkpt lat="46.1808123" lon="12.2764534"><ele>395.5</ele><time>2026-05-02T12:55:09.19Z</time></trkpt><trkpt lat="46.180795" lon="12.2765555"><ele>395.66666666666663</ele><time>2026-05-02T12:55:10.191Z</time></trkpt><trkpt lat="46.180779" lon="12.2766601"><ele>395.8333333333333</ele><time>2026-05-02T12:55:11.191Z</time></trkpt><trkpt lat="46.1807628" lon="12.2767669"><ele>396.0</ele><time>2026-05-02T12:55:12.19Z</time></trkpt><trkpt lat="46.1807463" lon="12.2768756"><ele>396.3333333333333</ele><time>2026-05-02T12:55:13.19Z</time></trkpt><trkpt lat="46.1807296" lon="12.2769853"><ele>396.66666666666663</ele><time>2026-05-02T12:55:14.191Z</time></trkpt><trkpt lat="46.1807091" lon="12.2770828"><ele>397.0</ele><time>2026-05-02T12:55:15.191Z</time></trkpt><trkpt lat="46.180687" lon="12.2771809"><ele>397.3333333333333</ele><time>2026-05-02T12:55:16.19Z</time></trkpt><trkpt lat="46.1806725" lon="12.2772764"><ele>397.66666666666663</ele><time>2026-05-02T12:55:17.19Z</time></trkpt><trkpt lat="46.1806456" lon="12.2774315"><ele>398.0</ele><time>2026-05-02T12:55:19.191Z</time></trkpt><trkpt lat="46.1806118" lon="12.27757"><ele>397.99999999999994</ele><time>2026-05-02T12:55:21.191Z</time></trkpt><trkpt lat="46.1805846" lon="12.2776638"><ele>398.0</ele><time>2026-05-02T12:55:24.191Z</time></trkpt><trkpt lat="46.1806047" lon="12.2775677"><ele>398.0</ele><time>2026-05-02T12:57:29.194Z</time></trkpt><trkpt lat="46.1806009" lon="12.2774693"><ele>398.0</ele><time>2026-05-02T12:57:36.193Z</time></trkpt><trkpt lat="46.1806281" lon="12.2773714"><ele>398.0</ele><time>2026-05-02T12:57:45.374Z</time></trkpt><trkpt lat="46.1806195" lon="12.2772694"><ele>397.99999999999994</ele><time>2026-05-02T12:57:49.303Z</time></trkpt><trkpt lat="46.1806172" lon="12.2771605"><ele>398.0</ele><time>2026-05-02T12:57:55.322Z</time></trkpt><trkpt lat="46.1806467" lon="12.2770739"><ele>397.0</ele><time>2026-05-02T12:58:02.296Z</time></trkpt><trkpt lat="46.180683" lon="12.2769851"><ele>399.0</ele><time>2026-05-02T12:58:10.355Z</time></trkpt><trkpt lat="46.1807113" lon="12.2768948"><ele>399.0</ele><time>2026-05-02T12:58:16.245Z</time></trkpt><trkpt lat="46.1807273" lon="12.2768042"><ele>399.0</ele><time>2026-05-02T12:58:24.355Z</time></trkpt><trkpt lat="46.1807398" lon="12.2767087"><ele>399.0</ele><time>2026-05-02T12:58:31.305Z</time></trkpt></trkseg></trk></gpx>